<?xml version='1.0' encoding='UTF-8'?><gpx version="1.1" creator="JPX - https://github.com/jenetics/jpx" xmlns="http://www.topografix.com/GPX/1/1"><trk><trkseg><trkpt lat="41.915253530517575" lon="1.1851976736029977"><ele>364.0</ele><time>2026-04-27T12:17:11Z</time></trkpt><trkpt lat="41.915336176456826" lon="1.1851513175420167"><ele>364.0</ele><time>2026-04-27T12:17:14Z</time></trkpt><trkpt lat="41.91542297687079" lon="1.1851778124035257"><ele>364.0</ele><time>2026-04-27T12:17:17Z</time></trkpt><trkpt lat="41.915498050384095" lon="1.1852058352184238"><ele>364.0</ele><time>2026-04-27T12:17:19Z</time></trkpt><trkpt lat="41.915622995905956" lon="1.185287445681252"><ele>364.0</ele><time>2026-04-27T12:17:22Z</time></trkpt><trkpt lat="41.915706503930906" lon="1.1853853822745923"><ele>364.0</ele><time>2026-04-27T12:17:24Z</time></trkpt><trkpt lat="41.91577846941062" lon="1.1855146854723513"><ele>364.0</ele><time>2026-04-27T12:17:26Z</time></trkpt><trkpt lat="41.91586697690638" lon="1.185630472272458"><ele>364.0</ele><time>2026-04-27T12:17:28Z</time></trkpt><trkpt lat="41.91592035422798" lon="1.185677179433664"><ele>364.0</ele><time>2026-04-27T12:17:29Z</time></trkpt><trkpt lat="41.91604107277682" lon="1.1857227208339358"><ele>364.0</ele><time>2026-04-27T12:17:31Z</time></trkpt><trkpt lat="41.91611096955801" lon="1.1857396973398917"><ele>364.57142857142856</ele><time>2026-04-27T12:17:32Z</time></trkpt><trkpt lat="41.91617851936937" lon="1.1857675643787933"><ele>365.1428571428571</ele><time>2026-04-27T12:17:33Z</time></trkpt><trkpt lat="41.91624310859297" lon="1.1857992005173288"><ele>365.7142857142857</ele><time>2026-04-27T12:17:34Z</time></trkpt><trkpt lat="41.916310818258445" lon="1.1858324097981467"><ele>366.2857142857143</ele><time>2026-04-27T12:17:35Z</time></trkpt><trkpt lat="41.91637716620548" lon="1.1858698578472389"><ele>366.85714285714283</ele><time>2026-04-27T12:17:36Z</time></trkpt><trkpt lat="41.916446670496136" lon="1.1858989445599928"><ele>367.42857142857144</ele><time>2026-04-27T12:17:37Z</time></trkpt><trkpt lat="41.916522927596716" lon="1.18592943614791"><ele>368.0</ele><time>2026-04-27T12:17:38Z</time></trkpt><trkpt lat="41.916594923026075" lon="1.185964072607902"><ele>368.0</ele><time>2026-04-27T12:17:39Z</time></trkpt><trkpt lat="41.916667531755664" lon="1.1860055728450216"><ele>368.0</ele><time>2026-04-27T12:17:40Z</time></trkpt><trkpt lat="41.91674031470856" lon="1.1860620718433696"><ele>368.0</ele><time>2026-04-27T12:17:41Z</time></trkpt><trkpt lat="41.91680973189732" lon="1.1861311457572425"><ele>368.0</ele><time>2026-04-27T12:17:42Z</time></trkpt><trkpt lat="41.91687312256762" lon="1.1861984110245516"><ele>368.0</ele><time>2026-04-27T12:17:43Z</time></trkpt><trkpt lat="41.91694608260971" lon="1.1862552299418938"><ele>368.0</ele><time>2026-04-27T12:17:44Z</time></trkpt><trkpt lat="41.917018389724866" lon="1.1863154972289662"><ele>367.83333333333337</ele><time>2026-04-27T12:17:45Z</time></trkpt><trkpt lat="41.91709238324721" lon="1.1863773902209933"><ele>367.6666666666667</ele><time>2026-04-27T12:17:46Z</time></trkpt><trkpt lat="41.917168051566186" lon="1.1864370592504787"><ele>367.5</ele><time>2026-04-27T12:17:47Z</time></trkpt><trkpt lat="41.9172444901691" lon="1.1864977573321067"><ele>367.3333333333333</ele><time>2026-04-27T12:17:48Z</time></trkpt><trkpt lat="41.91732297683544" lon="1.1865599714875597"><ele>367.16666666666663</ele><time>2026-04-27T12:17:49Z</time></trkpt><trkpt lat="41.91739771907337" lon="1.1866341962456912"><ele>367.0</ele><time>2026-04-27T12:17:50Z</time></trkpt><trkpt lat="41.91746418898341" lon="1.1867094640937523"><ele>367.0</ele><time>2026-04-27T12:17:51Z</time></trkpt><trkpt lat="41.91752545948549" lon="1.186794966930246"><ele>367.0</ele><time>2026-04-27T12:17:52Z</time></trkpt><trkpt lat="41.91758184586371" lon="1.1868875711865916"><ele>367.0</ele><time>2026-04-27T12:17:53Z</time></trkpt><trkpt lat="41.91764041781278" lon="1.1869760363310617"><ele>367.0</ele><time>2026-04-27T12:17:54Z</time></trkpt><trkpt lat="41.917702625516746" lon="1.1870818919547181"><ele>367.0</ele><time>2026-04-27T12:17:55Z</time></trkpt><trkpt lat="41.91776657887899" lon="1.1871656809836042"><ele>366.40000000000003</ele><time>2026-04-27T12:17:56Z</time></trkpt><trkpt lat="41.91782782596185" lon="1.1872656495862102"><ele>365.8</ele><time>2026-04-27T12:17:57Z</time></trkpt><trkpt lat="41.917887643658986" lon="1.1873644883157821"><ele>365.2</ele><time>2026-04-27T12:17:58Z</time></trkpt><trkpt lat="41.917939855896215" lon="1.1874643380693815"><ele>364.6</ele><time>2026-04-27T12:17:59Z</time></trkpt><trkpt lat="41.91798882502907" lon="1.1875678277234767"><ele>364.0</ele><time>2026-04-27T12:18:00Z</time></trkpt><trkpt lat="41.91803778515157" lon="1.1876738381987613"><ele>364.0</ele><time>2026-04-27T12:18:01.001Z</time></trkpt><trkpt lat="41.91808612619865" lon="1.1877829594252096"><ele>364.0</ele><time>2026-04-27T12:18:02.001Z</time></trkpt><trkpt lat="41.9181348212639" lon="1.1878888140942772"><ele>364.0</ele><time>2026-04-27T12:18:03.001Z</time></trkpt><trkpt lat="41.918184329626186" lon="1.1879977314060137"><ele>364.0</ele><time>2026-04-27T12:18:04.001Z</time></trkpt><trkpt lat="41.9182372698127" lon="1.1881078439330797"><ele>364.0</ele><time>2026-04-27T12:18:05.001Z</time></trkpt><trkpt lat="41.91828483816993" lon="1.1882170503032705"><ele>364.4</ele><time>2026-04-27T12:18:06.001Z</time></trkpt><trkpt lat="41.91833146232454" lon="1.1883288905867837"><ele>364.79999999999995</ele><time>2026-04-27T12:18:07.001Z</time></trkpt><trkpt lat="41.91837716687536" lon="1.1884381298820377"><ele>365.20000000000005</ele><time>2026-04-27T12:18:08.001Z</time></trkpt><trkpt lat="41.918426698150796" lon="1.188552859596346"><ele>365.6</ele><time>2026-04-27T12:18:09.001Z</time></trkpt><trkpt lat="41.91847467615658" lon="1.1886647412851499"><ele>366.0</ele><time>2026-04-27T12:18:10.001Z</time></trkpt><trkpt lat="41.91852737782597" lon="1.1887725459452707"><ele>364.4</ele><time>2026-04-27T12:18:11.001Z</time></trkpt><trkpt lat="41.91857743765654" lon="1.1888806417607403"><ele>362.8</ele><time>2026-04-27T12:18:12.001Z</time></trkpt><trkpt lat="41.918634600507204" lon="1.1889848898497768"><ele>361.2</ele><time>2026-04-27T12:18:13.001Z</time></trkpt><trkpt lat="41.91869583716347" lon="1.1890851560235483"><ele>359.59999999999997</ele><time>2026-04-27T12:18:14.001Z</time></trkpt><trkpt lat="41.918760767339585" lon="1.1891864442735582"><ele>358.0</ele><time>2026-04-27T12:18:15.001Z</time></trkpt><trkpt lat="41.91883400128016" lon="1.1892824889269438"><ele>358.0</ele><time>2026-04-27T12:18:16.001Z</time></trkpt><trkpt lat="41.91891014820996" lon="1.1893784221967663"><ele>358.0</ele><time>2026-04-27T12:18:17.001Z</time></trkpt><trkpt lat="41.91898658496877" lon="1.1894727613770593"><ele>358.0</ele><time>2026-04-27T12:18:18.001Z</time></trkpt><trkpt lat="41.91906370575616" lon="1.1895584909005676"><ele>358.0</ele><time>2026-04-27T12:18:19.001Z</time></trkpt><trkpt lat="41.919136825680255" lon="1.18965643441913"><ele>358.0</ele><time>2026-04-27T12:18:20.001Z</time></trkpt><trkpt lat="41.91921481472992" lon="1.1897507771471851"><ele>358.0</ele><time>2026-04-27T12:18:21.001Z</time></trkpt><trkpt lat="41.91928838869182" lon="1.1898462214803545"><ele>358.0</ele><time>2026-04-27T12:18:22.001Z</time></trkpt><trkpt lat="41.91936734367563" lon="1.1899429539632305"><ele>358.0</ele><time>2026-04-27T12:18:23.001Z</time></trkpt><trkpt lat="41.91944694110876" lon="1.1900374660767996"><ele>358.0</ele><time>2026-04-27T12:18:24.001Z</time></trkpt><trkpt lat="41.91952552357054" lon="1.190132522404874"><ele>358.0</ele><time>2026-04-27T12:18:25.001Z</time></trkpt><trkpt lat="41.919603456051405" lon="1.190227568598681"><ele>358.0</ele><time>2026-04-27T12:18:26.001Z</time></trkpt><trkpt lat="41.91968423347928" lon="1.1903264659568575"><ele>358.0</ele><time>2026-04-27T12:18:27.001Z</time></trkpt><trkpt lat="41.91976239153025" lon="1.1904257974367296"><ele>358.0</ele><time>2026-04-27T12:18:28.001Z</time></trkpt><trkpt lat="41.91983898863799" lon="1.1905209266404586"><ele>358.0</ele><time>2026-04-27T12:18:29.001Z</time></trkpt><trkpt lat="41.919921554058796" lon="1.1906195797191614"><ele>358.0</ele><time>2026-04-27T12:18:30.001Z</time></trkpt><trkpt lat="41.91999791137336" lon="1.190718091243402"><ele>358.0</ele><time>2026-04-27T12:18:31.001Z</time></trkpt><trkpt lat="41.92007650133917" lon="1.190815104407866"><ele>358.0</ele><time>2026-04-27T12:18:32.001Z</time></trkpt><trkpt lat="41.92015097814455" lon="1.1909093870552312"><ele>358.0</ele><time>2026-04-27T12:18:33.001Z</time></trkpt><trkpt lat="41.92023229021389" lon="1.191005896247234"><ele>358.0</ele><time>2026-04-27T12:18:34.001Z</time></trkpt><trkpt lat="41.92031355606225" lon="1.191099377714831"><ele>358.0</ele><time>2026-04-27T12:18:35.001Z</time></trkpt><trkpt lat="41.92039015277898" lon="1.1911939080778593"><ele>358.0</ele><time>2026-04-27T12:18:36.001Z</time></trkpt><trkpt lat="41.92046895537401" lon="1.1912903451584513"><ele>358.0</ele><time>2026-04-27T12:18:37.001Z</time></trkpt><trkpt lat="41.920547210399974" lon="1.1913835987661345"><ele>358.0</ele><time>2026-04-27T12:18:38.001Z</time></trkpt><trkpt lat="41.9206260645436" lon="1.1914770013170095"><ele>358.0</ele><time>2026-04-27T12:18:38.998Z</time></trkpt><trkpt lat="41.92070540760523" lon="1.1915694946074977"><ele>358.0</ele><time>2026-04-27T12:18:39.998Z</time></trkpt><trkpt lat="41.920781706056026" lon="1.1916598530178724"><ele>358.0</ele><time>2026-04-27T12:18:40.998Z</time></trkpt><trkpt lat="41.92086234674847" lon="1.19175290045015"><ele>358.0</ele><time>2026-04-27T12:18:41.998Z</time></trkpt><trkpt lat="41.92094325339127" lon="1.1918459427330927"><ele>358.0</ele><time>2026-04-27T12:18:42.998Z</time></trkpt><trkpt lat="41.921021315264355" lon="1.191937511999149"><ele>358.0</ele><time>2026-04-27T12:18:43.998Z</time></trkpt><trkpt lat="41.92110022980605" lon="1.192029683502714"><ele>358.0</ele><time>2026-04-27T12:18:44.998Z</time></trkpt><trkpt lat="41.92117439925308" lon="1.1921199440978922"><ele>358.0</ele><time>2026-04-27T12:18:45.998Z</time></trkpt><trkpt lat="41.92125308638698" lon="1.1922066940855032"><ele>358.0</ele><time>2026-04-27T12:18:46.998Z</time></trkpt><trkpt lat="41.92133980991418" lon="1.1922850609640252"><ele>358.0</ele><time>2026-04-27T12:18:47.998Z</time></trkpt><trkpt lat="41.92142746626059" lon="1.1923531846790427"><ele>358.0</ele><time>2026-04-27T12:18:48.998Z</time></trkpt><trkpt lat="41.92152019500819" lon="1.1924061031506303"><ele>358.0</ele><time>2026-04-27T12:18:49.998Z</time></trkpt><trkpt lat="41.921616076734985" lon="1.1924452574360918"><ele>358.2</ele><time>2026-04-27T12:18:50.998Z</time></trkpt><trkpt lat="41.92171344269391" lon="1.1924705443490773"><ele>358.4</ele><time>2026-04-27T12:18:51.998Z</time></trkpt><trkpt lat="41.921817058492216" lon="1.1924754032387646"><ele>358.59999999999997</ele><time>2026-04-27T12:18:52.998Z</time></trkpt><trkpt lat="41.92191052715874" lon="1.1924967446741588"><ele>358.79999999999995</ele><time>2026-04-27T12:18:53.999Z</time></trkpt><trkpt lat="41.921989801575705" lon="1.1925283578450323"><ele>359.0</ele><time>2026-04-27T12:18:54.999Z</time></trkpt><trkpt lat="41.922059028341145" lon="1.1925963892358247"><ele>359.0</ele><time>2026-04-27T12:18:55.999Z</time></trkpt><trkpt lat="41.92210168452936" lon="1.192711569281682"><ele>359.0</ele><time>2026-04-27T12:18:56.999Z</time></trkpt><trkpt lat="41.92215428419938" lon="1.1927956449587294"><ele>359.0</ele><time>2026-04-27T12:18:57.999Z</time></trkpt><trkpt lat="41.92222079178209" lon="1.1928518547832667"><ele>359.0</ele><time>2026-04-27T12:18:58.999Z</time></trkpt><trkpt lat="41.92229365575072" lon="1.1928598611643664"><ele>359.0</ele><time>2026-04-27T12:18:59.999Z</time></trkpt><trkpt lat="41.922363199632805" lon="1.192821961299212"><ele>359.0</ele><time>2026-04-27T12:19:00.999Z</time></trkpt><trkpt lat="41.92242258222299" lon="1.1927561864728646"><ele>359.0</ele><time>2026-04-27T12:19:01.999Z</time></trkpt><trkpt lat="41.922489916089305" lon="1.1927037194759058"><ele>359.0</ele><time>2026-04-27T12:19:02.999Z</time></trkpt><trkpt lat="41.922572285629506" lon="1.1926846773519928"><ele>359.0</ele><time>2026-04-27T12:19:03.999Z</time></trkpt><trkpt lat="41.92265684477827" lon="1.1927044562867504"><ele>359.0</ele><time>2026-04-27T12:19:04.999Z</time></trkpt><trkpt lat="41.92273341464169" lon="1.1927582035004844"><ele>359.0</ele><time>2026-04-27T12:19:05.999Z</time></trkpt><trkpt lat="41.922801852434944" lon="1.1928351032031426"><ele>359.0</ele><time>2026-04-27T12:19:06.999Z</time></trkpt><trkpt lat="41.922864975042565" lon="1.1929212563477225"><ele>359.2</ele><time>2026-04-27T12:19:07.999Z</time></trkpt><trkpt lat="41.92293063025761" lon="1.1930048241856688"><ele>359.4</ele><time>2026-04-27T12:19:08.999Z</time></trkpt><trkpt lat="41.92300188759816" lon="1.1930922634404733"><ele>359.6</ele><time>2026-04-27T12:19:09.999Z</time></trkpt><trkpt lat="41.92307383978368" lon="1.1931786366470578"><ele>359.8</ele><time>2026-04-27T12:19:10.999Z</time></trkpt><trkpt lat="41.92314512871137" lon="1.1932718332090744"><ele>360.0</ele><time>2026-04-27T12:19:11.999Z</time></trkpt><trkpt lat="41.923216158579" lon="1.193366685662924"><ele>360.0</ele><time>2026-04-27T12:19:12.999Z</time></trkpt><trkpt lat="41.92328205637367" lon="1.1934685760207862"><ele>360.0</ele><time>2026-04-27T12:19:13.999Z</time></trkpt><trkpt lat="41.923339274189914" lon="1.1935764987670265"><ele>360.0</ele><time>2026-04-27T12:19:14.999Z</time></trkpt><trkpt lat="41.923390210994484" lon="1.1936949434345518"><ele>360.0</ele><time>2026-04-27T12:19:15.999Z</time></trkpt><trkpt lat="41.92343554576617" lon="1.1938215589664296"><ele>360.0</ele><time>2026-04-27T12:19:17Z</time></trkpt><trkpt lat="41.92348227880094" lon="1.1939530658813686"><ele>359.4</ele><time>2026-04-27T12:19:18Z</time></trkpt><trkpt lat="41.92353172516312" lon="1.1940827604060262"><ele>358.8</ele><time>2026-04-27T12:19:19Z</time></trkpt><trkpt lat="41.923581410056194" lon="1.19421255455769"><ele>358.20000000000005</ele><time>2026-04-27T12:19:20Z</time></trkpt><trkpt lat="41.92363213723236" lon="1.1943439330735182"><ele>357.6</ele><time>2026-04-27T12:19:21Z</time></trkpt><trkpt lat="41.92368196742354" lon="1.1944748626799813"><ele>357.0</ele><time>2026-04-27T12:19:22Z</time></trkpt><trkpt lat="41.923731503959964" lon="1.1946036247253566"><ele>357.0</ele><time>2026-04-27T12:19:23Z</time></trkpt><trkpt lat="41.92377884046846" lon="1.1947325795380108"><ele>357.0</ele><time>2026-04-27T12:19:24Z</time></trkpt><trkpt lat="41.923827000693024" lon="1.1948636970581497"><ele>357.0</ele><time>2026-04-27T12:19:25Z</time></trkpt><trkpt lat="41.92387709446085" lon="1.1949944044019964"><ele>357.0</ele><time>2026-04-27T12:19:26Z</time></trkpt><trkpt lat="41.92392823317121" lon="1.1951235720615068"><ele>357.0</ele><time>2026-04-27T12:19:27Z</time></trkpt><trkpt lat="41.923983866862656" lon="1.195250237801955"><ele>357.40000000000003</ele><time>2026-04-27T12:19:28Z</time></trkpt><trkpt lat="41.924041193067985" lon="1.1953735209683656"><ele>357.8</ele><time>2026-04-27T12:19:29Z</time></trkpt><trkpt lat="41.92410083603431" lon="1.1954974238087357"><ele>358.2</ele><time>2026-04-27T12:19:30Z</time></trkpt><trkpt lat="41.92416088780561" lon="1.1956182278846028"><ele>358.6</ele><time>2026-04-27T12:19:31Z</time></trkpt><trkpt lat="41.924222633151324" lon="1.1957405854696865"><ele>359.0</ele><time>2026-04-27T12:19:32Z</time></trkpt><trkpt lat="41.92428946185459" lon="1.195856892980996"><ele>359.2</ele><time>2026-04-27T12:19:33Z</time></trkpt><trkpt lat="41.924360498028115" lon="1.195965457032478"><ele>359.4</ele><time>2026-04-27T12:19:34Z</time></trkpt><trkpt lat="41.92443440880322" lon="1.1960725985750207"><ele>359.6</ele><time>2026-04-27T12:19:35Z</time></trkpt><trkpt lat="41.92451150751485" lon="1.1961752531574985"><ele>359.8</ele><time>2026-04-27T12:19:36Z</time></trkpt><trkpt lat="41.924592077657536" lon="1.1962756653360318"><ele>360.0</ele><time>2026-04-27T12:19:37Z</time></trkpt><trkpt lat="41.92467154015012" lon="1.1963696905528576"><ele>360.0</ele><time>2026-04-27T12:19:38Z</time></trkpt><trkpt lat="41.924752584446956" lon="1.1964652014234687"><ele>360.0</ele><time>2026-04-27T12:19:39Z</time></trkpt><trkpt lat="41.92482999685086" lon="1.1965606455301947"><ele>360.0</ele><time>2026-04-27T12:19:40Z</time></trkpt><trkpt lat="41.9249133372846" lon="1.1966578214706225"><ele>360.0</ele><time>2026-04-27T12:19:41Z</time></trkpt><trkpt lat="41.92499399386269" lon="1.1967557967318854"><ele>360.0</ele><time>2026-04-27T12:19:42Z</time></trkpt><trkpt lat="41.92507647804445" lon="1.196855020478275"><ele>360.0</ele><time>2026-04-27T12:19:43Z</time></trkpt><trkpt lat="41.92515537512154" lon="1.1969583982706145"><ele>360.0</ele><time>2026-04-27T12:19:44Z</time></trkpt><trkpt lat="41.925229195635644" lon="1.1970642314825075"><ele>360.0</ele><time>2026-04-27T12:19:45Z</time></trkpt><trkpt lat="41.925295954590496" lon="1.197177377611904"><ele>360.0</ele><time>2026-04-27T12:19:46Z</time></trkpt><trkpt lat="41.92535949721615" lon="1.1972922626355864"><ele>360.0</ele><time>2026-04-27T12:19:47Z</time></trkpt><trkpt lat="41.925431976721846" lon="1.1973995950253975"><ele>359.6</ele><time>2026-04-27T12:19:48Z</time></trkpt><trkpt lat="41.92552003751669" lon="1.1974827635890941"><ele>359.2</ele><time>2026-04-27T12:19:49Z</time></trkpt><trkpt lat="41.925613878740755" lon="1.1975488007541533"><ele>358.79999999999995</ele><time>2026-04-27T12:19:50Z</time></trkpt><trkpt lat="41.92572174822367" lon="1.1975996124486237"><ele>358.4</ele><time>2026-04-27T12:19:51Z</time></trkpt><trkpt lat="41.92582186493018" lon="1.197669605113711"><ele>358.0</ele><time>2026-04-27T12:19:52Z</time></trkpt><trkpt lat="41.925915013206705" lon="1.1977838189254089"><ele>358.0</ele><time>2026-04-27T12:19:53Z</time></trkpt><trkpt lat="41.925985933488526" lon="1.1979329793737281"><ele>358.0</ele><time>2026-04-27T12:19:54Z</time></trkpt><trkpt lat="41.926064479432696" lon="1.1980636853201234"><ele>358.0</ele><time>2026-04-27T12:19:55Z</time></trkpt><trkpt lat="41.92613490491855" lon="1.1981713448963494"><ele>358.0</ele><time>2026-04-27T12:19:56Z</time></trkpt><trkpt lat="41.92621454846838" lon="1.1982918408098604"><ele>359.25</ele><time>2026-04-27T12:19:57Z</time></trkpt><trkpt lat="41.92630611034007" lon="1.1983441775018384"><ele>360.5</ele><time>2026-04-27T12:19:58Z</time></trkpt><trkpt lat="41.92638561940622" lon="1.1984615283418147"><ele>361.75</ele><time>2026-04-27T12:19:59Z</time></trkpt><trkpt lat="41.926463384827954" lon="1.1985818435354"><ele>363.0</ele><time>2026-04-27T12:20:00Z</time></trkpt><trkpt lat="41.926544403006424" lon="1.1986984493107458"><ele>363.0</ele><time>2026-04-27T12:20:01Z</time></trkpt><trkpt lat="41.92662242739752" lon="1.1988150742214134"><ele>363.0</ele><time>2026-04-27T12:20:02Z</time></trkpt><trkpt lat="41.926702767311724" lon="1.1989301567024997"><ele>363.0</ele><time>2026-04-27T12:20:03Z</time></trkpt><trkpt lat="41.92678287206993" lon="1.1990455637253339"><ele>363.0</ele><time>2026-04-27T12:20:04Z</time></trkpt><trkpt lat="41.92686590723878" lon="1.1991572104785282"><ele>362.5</ele><time>2026-04-27T12:20:05.001Z</time></trkpt><trkpt lat="41.926947496440185" lon="1.1992681794466538"><ele>362.0</ele><time>2026-04-27T12:20:06.001Z</time></trkpt><trkpt lat="41.927026660162355" lon="1.1993819785038988"><ele>361.5</ele><time>2026-04-27T12:20:07.001Z</time></trkpt><trkpt lat="41.92710710117877" lon="1.1994940190798487"><ele>361.0</ele><time>2026-04-27T12:20:08.001Z</time></trkpt><trkpt lat="41.92718996064854" lon="1.1996070792852398"><ele>361.0</ele><time>2026-04-27T12:20:09.001Z</time></trkpt><trkpt lat="41.92727357070096" lon="1.199723180747636"><ele>361.0</ele><time>2026-04-27T12:20:10.001Z</time></trkpt><trkpt lat="41.9273551024532" lon="1.1998352146974673"><ele>361.0</ele><time>2026-04-27T12:20:11.001Z</time></trkpt><trkpt lat="41.92743543144984" lon="1.1999481912759022"><ele>361.0</ele><time>2026-04-27T12:20:12.001Z</time></trkpt><trkpt lat="41.92751495327728" lon="1.2000618467450095"><ele>361.8</ele><time>2026-04-27T12:20:13.001Z</time></trkpt><trkpt lat="41.92758966916138" lon="1.2001704326071556"><ele>362.6</ele><time>2026-04-27T12:20:14.001Z</time></trkpt><trkpt lat="41.92766103212038" lon="1.200276647915447"><ele>363.4</ele><time>2026-04-27T12:20:15.001Z</time></trkpt><trkpt lat="41.927733242921725" lon="1.2003721774709808"><ele>364.2</ele><time>2026-04-27T12:20:16.001Z</time></trkpt><trkpt lat="41.92780672031429" lon="1.2004393460461482"><ele>365.0</ele><time>2026-04-27T12:20:17.001Z</time></trkpt><trkpt lat="41.92788882887887" lon="1.20046073642658"><ele>365.0</ele><time>2026-04-27T12:20:18.001Z</time></trkpt><trkpt lat="41.927970215058735" lon="1.2004328933809851"><ele>365.0</ele><time>2026-04-27T12:20:19.001Z</time></trkpt><trkpt lat="41.92804784160573" lon="1.2003776129898083"><ele>365.0</ele><time>2026-04-27T12:20:20.001Z</time></trkpt><trkpt lat="41.92808354067729" lon="1.2002150193681618"><ele>365.0</ele><time>2026-04-27T12:20:21.001Z</time></trkpt><trkpt lat="41.92811949130211" lon="1.200100486396641"><ele>365.0</ele><time>2026-04-27T12:20:22.001Z</time></trkpt><trkpt lat="41.92816765842748" lon="1.1999853020004094"><ele>365.0</ele><time>2026-04-27T12:20:23.001Z</time></trkpt><trkpt lat="41.92821475358301" lon="1.1998695118222067"><ele>365.0</ele><time>2026-04-27T12:20:24.001Z</time></trkpt><trkpt lat="41.92826519235955" lon="1.1997511938258716"><ele>365.0</ele><time>2026-04-27T12:20:25.001Z</time></trkpt><trkpt lat="41.9283185263903" lon="1.1996263096664466"><ele>365.0</ele><time>2026-04-27T12:20:26.001Z</time></trkpt><trkpt lat="41.928367729681945" lon="1.1995006343759727"><ele>365.0</ele><time>2026-04-27T12:20:27.001Z</time></trkpt><trkpt lat="41.928419785748055" lon="1.1993671977821045"><ele>365.6</ele><time>2026-04-27T12:20:28.001Z</time></trkpt><trkpt lat="41.92846828069768" lon="1.1992383855871587"><ele>366.2</ele><time>2026-04-27T12:20:29.001Z</time></trkpt><trkpt lat="41.928521472289816" lon="1.199109505314123"><ele>366.79999999999995</ele><time>2026-04-27T12:20:30.001Z</time></trkpt><trkpt lat="41.92857245273595" lon="1.198982890367119"><ele>367.4</ele><time>2026-04-27T12:20:31.001Z</time></trkpt><trkpt lat="41.928621941796905" lon="1.198859097256136"><ele>368.0</ele><time>2026-04-27T12:20:32.001Z</time></trkpt><trkpt lat="41.92868170833054" lon="1.1987475328639727"><ele>368.0</ele><time>2026-04-27T12:20:33.001Z</time></trkpt><trkpt lat="41.9287484146557" lon="1.1986467902795859"><ele>368.0</ele><time>2026-04-27T12:20:34.001Z</time></trkpt><trkpt lat="41.92883409066819" lon="1.1985727869346583"><ele>368.0</ele><time>2026-04-27T12:20:35.001Z</time></trkpt><trkpt lat="41.928928608871566" lon="1.1985194987327732"><ele>368.0</ele><time>2026-04-27T12:20:36.001Z</time></trkpt><trkpt lat="41.929028257405975" lon="1.1984882855685233"><ele>368.0</ele><time>2026-04-27T12:20:37.001Z</time></trkpt><trkpt lat="41.92912949648856" lon="1.1984820953168338"><ele>368.79999999999995</ele><time>2026-04-27T12:20:38.001Z</time></trkpt><trkpt lat="41.9292269570234" lon="1.1984967792474446"><ele>369.6</ele><time>2026-04-27T12:20:39.001Z</time></trkpt><trkpt lat="41.92932588818489" lon="1.198523748232048"><ele>370.4</ele><time>2026-04-27T12:20:40.001Z</time></trkpt><trkpt lat="41.929420713199775" lon="1.198551875473485"><ele>371.20000000000005</ele><time>2026-04-27T12:20:41.001Z</time></trkpt><trkpt lat="41.929517918824935" lon="1.1985815738845094"><ele>372.0</ele><time>2026-04-27T12:20:42.001Z</time></trkpt><trkpt lat="41.929613564762285" lon="1.1986036721069309"><ele>372.0</ele><time>2026-04-27T12:20:43.001Z</time></trkpt><trkpt lat="41.92971065020033" lon="1.1986254163639138"><ele>372.0</ele><time>2026-04-27T12:20:44.001Z</time></trkpt><trkpt lat="41.929809196668096" lon="1.1986468267474342"><ele>372.0</ele><time>2026-04-27T12:20:44.998Z</time></trkpt><trkpt lat="41.92990303710294" lon="1.198676754092496"><ele>372.0</ele><time>2026-04-27T12:20:45.998Z</time></trkpt><trkpt lat="41.92999746098089" lon="1.1986995615704168"><ele>372.0</ele><time>2026-04-27T12:20:46.998Z</time></trkpt><trkpt lat="41.93009496606492" lon="1.1987139004777003"><ele>373.20000000000005</ele><time>2026-04-27T12:20:47.998Z</time></trkpt><trkpt lat="41.93019576096836" lon="1.198726040813479"><ele>374.4</ele><time>2026-04-27T12:20:48.998Z</time></trkpt><trkpt lat="41.930293256334686" lon="1.1987347587518207"><ele>375.6</ele><time>2026-04-27T12:20:49.998Z</time></trkpt><trkpt lat="41.93039010452238" lon="1.198737931086358"><ele>376.79999999999995</ele><time>2026-04-27T12:20:50.998Z</time></trkpt><trkpt lat="41.93049014480915" lon="1.1987372923561097"><ele>378.0</ele><time>2026-04-27T12:20:51.998Z</time></trkpt><trkpt lat="41.93058775762082" lon="1.1987413833328893"><ele>378.0</ele><time>2026-04-27T12:20:52.998Z</time></trkpt><trkpt lat="41.93068762163585" lon="1.1987433098479117"><ele>378.0</ele><time>2026-04-27T12:20:53.998Z</time></trkpt><trkpt lat="41.930785969405825" lon="1.1987397550662948"><ele>378.0</ele><time>2026-04-27T12:20:54.998Z</time></trkpt><trkpt lat="41.93088544198144" lon="1.1987351515983833"><ele>378.0</ele><time>2026-04-27T12:20:55.998Z</time></trkpt><trkpt lat="41.93098306789704" lon="1.198735920436071"><ele>378.0</ele><time>2026-04-27T12:20:56.998Z</time></trkpt><trkpt lat="41.931083419528484" lon="1.1987385577531169"><ele>378.59999999999997</ele><time>2026-04-27T12:20:57.999Z</time></trkpt><trkpt lat="41.93118256600739" lon="1.198741031377801"><ele>379.2</ele><time>2026-04-27T12:20:58.999Z</time></trkpt><trkpt lat="41.93128155111307" lon="1.1987409411936802"><ele>379.8</ele><time>2026-04-27T12:20:59.999Z</time></trkpt><trkpt lat="41.93138281243913" lon="1.1987432347037819"><ele>380.4</ele><time>2026-04-27T12:21:00.999Z</time></trkpt><trkpt lat="41.93148080164997" lon="1.1987454252911627"><ele>381.0</ele><time>2026-04-27T12:21:01.999Z</time></trkpt><trkpt lat="41.93157824819966" lon="1.1987441637399776"><ele>381.0</ele><time>2026-04-27T12:21:02.999Z</time></trkpt><trkpt lat="41.93167782404692" lon="1.1987429300363224"><ele>381.0</ele><time>2026-04-27T12:21:03.999Z</time></trkpt><trkpt lat="41.93177679941859" lon="1.19874291624114"><ele>381.0</ele><time>2026-04-27T12:21:04.999Z</time></trkpt><trkpt lat="41.93188099152579" lon="1.198734824033201"><ele>381.0</ele><time>2026-04-27T12:21:05.999Z</time></trkpt><trkpt lat="41.93198180892868" lon="1.198735092357637"><ele>381.0</ele><time>2026-04-27T12:21:06.999Z</time></trkpt><trkpt lat="41.932080055944986" lon="1.1987387066475563"><ele>382.0</ele><time>2026-04-27T12:21:07.999Z</time></trkpt><trkpt lat="41.93217949574248" lon="1.1987415317102041"><ele>383.0</ele><time>2026-04-27T12:21:08.999Z</time></trkpt><trkpt lat="41.932279699475274" lon="1.1987415117829539"><ele>384.0</ele><time>2026-04-27T12:21:09.999Z</time></trkpt><trkpt lat="41.93237909927818" lon="1.1987401897029102"><ele>385.0</ele><time>2026-04-27T12:21:10.999Z</time></trkpt><trkpt lat="41.932477339005004" lon="1.1987401010597614"><ele>386.0</ele><time>2026-04-27T12:21:11.999Z</time></trkpt><trkpt lat="41.93257325591592" lon="1.1987376889687988"><ele>386.6</ele><time>2026-04-27T12:21:12.999Z</time></trkpt><trkpt lat="41.93266772066527" lon="1.1987248230068601"><ele>387.20000000000005</ele><time>2026-04-27T12:21:13.999Z</time></trkpt><trkpt lat="41.932760892287" lon="1.1987019245916493"><ele>387.79999999999995</ele><time>2026-04-27T12:21:14.999Z</time></trkpt><trkpt lat="41.93284901279343" lon="1.1986678309389487"><ele>388.4</ele><time>2026-04-27T12:21:15.999Z</time></trkpt><trkpt lat="41.93293624578351" lon="1.1986170784722106"><ele>389.0</ele><time>2026-04-27T12:21:16.999Z</time></trkpt><trkpt lat="41.933014345643045" lon="1.1985470788002421"><ele>389.0</ele><time>2026-04-27T12:21:18Z</time></trkpt><trkpt lat="41.93308255504022" lon="1.1984635265216217"><ele>389.0</ele><time>2026-04-27T12:21:19Z</time></trkpt><trkpt lat="41.93314483849106" lon="1.1983700126867676"><ele>389.0</ele><time>2026-04-27T12:21:20Z</time></trkpt><trkpt lat="41.93319469595471" lon="1.1982690891148642"><ele>389.0</ele><time>2026-04-27T12:21:21Z</time></trkpt><trkpt lat="41.933233716782894" lon="1.198162814979074"><ele>389.0</ele><time>2026-04-27T12:21:22Z</time></trkpt><trkpt lat="41.93328025326727" lon="1.1980571561372608"><ele>390.16666666666663</ele><time>2026-04-27T12:21:23Z</time></trkpt><trkpt lat="41.93330302580105" lon="1.1979435055915895"><ele>391.3333333333333</ele><time>2026-04-27T12:21:24Z</time></trkpt><trkpt lat="41.93330538148892" lon="1.1978292873218608"><ele>392.5</ele><time>2026-04-27T12:21:25Z</time></trkpt><trkpt lat="41.93330889212625" lon="1.197720984422313"><ele>393.66666666666663</ele><time>2026-04-27T12:21:26Z</time></trkpt><trkpt lat="41.9332941192755" lon="1.1976069379058631"><ele>394.8333333333333</ele><time>2026-04-27T12:21:27Z</time></trkpt><trkpt lat="41.93326105419971" lon="1.1974988197561311"><ele>396.0</ele><time>2026-04-27T12:21:28Z</time></trkpt><trkpt lat="41.93323801841254" lon="1.1973912361948478"><ele>397.1666666666667</ele><time>2026-04-27T12:21:29Z</time></trkpt><trkpt lat="41.93320830149013" lon="1.1972864561566556"><ele>398.33333333333337</ele><time>2026-04-27T12:21:30Z</time></trkpt><trkpt lat="41.93319379071302" lon="1.19717243656872"><ele>399.5</ele><time>2026-04-27T12:21:31Z</time></trkpt><trkpt lat="41.933148564047706" lon="1.1970722977759938"><ele>400.6666666666667</ele><time>2026-04-27T12:21:32Z</time></trkpt><trkpt lat="41.933133642577154" lon="1.1969599466122802"><ele>401.83333333333337</ele><time>2026-04-27T12:21:33Z</time></trkpt><trkpt lat="41.93310192670029" lon="1.1968490512791388"><ele>403.0</ele><time>2026-04-27T12:21:34Z</time></trkpt><trkpt lat="41.933072087016114" lon="1.1967451775305786"><ele>403.0</ele><time>2026-04-27T12:21:35Z</time></trkpt><trkpt lat="41.93303837985753" lon="1.1966352403361469"><ele>403.0</ele><time>2026-04-27T12:21:36Z</time></trkpt><trkpt lat="41.93300149150485" lon="1.196524739496476"><ele>403.0</ele><time>2026-04-27T12:21:37Z</time></trkpt><trkpt lat="41.932947492083585" lon="1.1964209625187783"><ele>403.0</ele><time>2026-04-27T12:21:38Z</time></trkpt><trkpt lat="41.93292192435157" lon="1.1963020840345635"><ele>403.0</ele><time>2026-04-27T12:21:39Z</time></trkpt><trkpt lat="41.93288006986987" lon="1.1961898336871382"><ele>405.0</ele><time>2026-04-27T12:21:40Z</time></trkpt><trkpt lat="41.93283299817789" lon="1.1960728877688742"><ele>407.0</ele><time>2026-04-27T12:21:41Z</time></trkpt><trkpt lat="41.9327839287678" lon="1.1959516228249025"><ele>409.0</ele><time>2026-04-27T12:21:42Z</time></trkpt><trkpt lat="41.932724526344714" lon="1.195843597978998"><ele>411.0</ele><time>2026-04-27T12:21:43Z</time></trkpt><trkpt lat="41.93267281469499" lon="1.1957231991010047"><ele>413.0</ele><time>2026-04-27T12:21:44Z</time></trkpt><trkpt lat="41.932638398495705" lon="1.1955913582235302"><ele>414.2</ele><time>2026-04-27T12:21:45Z</time></trkpt><trkpt lat="41.93257417247119" lon="1.195478459725468"><ele>415.4</ele><time>2026-04-27T12:21:46Z</time></trkpt><trkpt lat="41.93252660595735" lon="1.1953574495214434"><ele>416.59999999999997</ele><time>2026-04-27T12:21:47Z</time></trkpt><trkpt lat="41.93247923546816" lon="1.1952386459868811"><ele>417.79999999999995</ele><time>2026-04-27T12:21:48Z</time></trkpt><trkpt lat="41.93243473613245" lon="1.1951273977215795"><ele>419.0</ele><time>2026-04-27T12:21:49Z</time></trkpt><trkpt lat="41.932388091351214" lon="1.1950146699786892"><ele>419.2</ele><time>2026-04-27T12:21:50Z</time></trkpt><trkpt lat="41.93233974402077" lon="1.1948989611681107"><ele>419.4</ele><time>2026-04-27T12:21:51Z</time></trkpt><trkpt lat="41.9322944154027" lon="1.1947940743115395"><ele>419.6</ele><time>2026-04-27T12:21:52Z</time></trkpt><trkpt lat="41.93224970136755" lon="1.194681438624684"><ele>419.8</ele><time>2026-04-27T12:21:53Z</time></trkpt><trkpt lat="41.932207523686486" lon="1.1945638339700895"><ele>420.0</ele><time>2026-04-27T12:21:54Z</time></trkpt><trkpt lat="41.932170990985824" lon="1.1944519183207134"><ele>420.0</ele><time>2026-04-27T12:21:55.001Z</time></trkpt><trkpt lat="41.932136527895445" lon="1.1943420844394679"><ele>420.0</ele><time>2026-04-27T12:21:56.001Z</time></trkpt><trkpt lat="41.932106675314714" lon="1.1942297642957242"><ele>420.0</ele><time>2026-04-27T12:21:57.001Z</time></trkpt><trkpt lat="41.93207896763231" lon="1.1941112416166584"><ele>420.0</ele><time>2026-04-27T12:21:58.001Z</time></trkpt><trkpt lat="41.932060378015954" lon="1.1939911684065974"><ele>420.0</ele><time>2026-04-27T12:21:59.001Z</time></trkpt><trkpt lat="41.932038838222184" lon="1.1938653850446916"><ele>422.2</ele><time>2026-04-27T12:22:00.001Z</time></trkpt><trkpt lat="41.932034872045165" lon="1.1937347368692572"><ele>424.4</ele><time>2026-04-27T12:22:01.001Z</time></trkpt><trkpt lat="41.93201697167467" lon="1.193613970929645"><ele>426.6</ele><time>2026-04-27T12:22:02.001Z</time></trkpt><trkpt lat="41.932000883610634" lon="1.193500683425883"><ele>428.8</ele><time>2026-04-27T12:22:03.001Z</time></trkpt><trkpt lat="41.93197023549893" lon="1.1933840441064367"><ele>431.0</ele><time>2026-04-27T12:22:04.001Z</time></trkpt><trkpt lat="41.931958520425034" lon="1.1932669289828248"><ele>431.8333333333333</ele><time>2026-04-27T12:22:05.001Z</time></trkpt><trkpt lat="41.931944319409176" lon="1.1931474869299017"><ele>432.66666666666663</ele><time>2026-04-27T12:22:06.001Z</time></trkpt><trkpt lat="41.931923280277715" lon="1.1930283949864329"><ele>433.5</ele><time>2026-04-27T12:22:07.001Z</time></trkpt><trkpt lat="41.93191126892154" lon="1.1929107225948856"><ele>434.33333333333337</ele><time>2026-04-27T12:22:08.001Z</time></trkpt><trkpt lat="41.9318951590415" lon="1.1927977341013989"><ele>435.1666666666667</ele><time>2026-04-27T12:22:09.001Z</time></trkpt><trkpt lat="41.93188156371944" lon="1.1926830657053913"><ele>436.0</ele><time>2026-04-27T12:22:10.001Z</time></trkpt><trkpt lat="41.93185207383705" lon="1.1925673558527836"><ele>436.00000000000006</ele><time>2026-04-27T12:22:11.001Z</time></trkpt><trkpt lat="41.931816916840575" lon="1.1924526706925536"><ele>436.0</ele><time>2026-04-27T12:22:12.001Z</time></trkpt><trkpt lat="41.93178523799196" lon="1.192338743936606"><ele>436.0</ele><time>2026-04-27T12:22:13.001Z</time></trkpt><trkpt lat="41.93174432235257" lon="1.192230122936013"><ele>436.0</ele><time>2026-04-27T12:22:14.001Z</time></trkpt><trkpt lat="41.93171316913283" lon="1.1921279528672495"><ele>436.00000000000006</ele><time>2026-04-27T12:22:15.001Z</time></trkpt><trkpt lat="41.93168317458704" lon="1.1920180049077882"><ele>436.0</ele><time>2026-04-27T12:22:16.001Z</time></trkpt><trkpt lat="41.931651031469194" lon="1.191901573135204"><ele>434.83333333333337</ele><time>2026-04-27T12:22:17.001Z</time></trkpt><trkpt lat="41.931622538549156" lon="1.1917868861259762"><ele>433.6666666666667</ele><time>2026-04-27T12:22:18.001Z</time></trkpt><trkpt lat="41.931597336937045" lon="1.1916729891337032"><ele>432.5</ele><time>2026-04-27T12:22:19.001Z</time></trkpt><trkpt lat="41.93156645875911" lon="1.1915628881128923"><ele>431.33333333333337</ele><time>2026-04-27T12:22:20.001Z</time></trkpt><trkpt lat="41.93153644168507" lon="1.1914500501289613"><ele>430.1666666666667</ele><time>2026-04-27T12:22:21.001Z</time></trkpt><trkpt lat="41.93150920226126" lon="1.1913365548499162"><ele>429.0</ele><time>2026-04-27T12:22:22.001Z</time></trkpt><trkpt lat="41.93148399044374" lon="1.1912245002961126"><ele>429.0</ele><time>2026-04-27T12:22:23.001Z</time></trkpt><trkpt lat="41.931456804607784" lon="1.1911186959781406"><ele>429.0</ele><time>2026-04-27T12:22:24.001Z</time></trkpt><trkpt lat="41.93143032947623" lon="1.1910065735706246"><ele>429.0</ele><time>2026-04-27T12:22:25.001Z</time></trkpt><trkpt lat="41.931403732785746" lon="1.1908999859771532"><ele>429.0</ele><time>2026-04-27T12:22:26.001Z</time></trkpt><trkpt lat="41.93138583955231" lon="1.1907875822347336"><ele>429.0</ele><time>2026-04-27T12:22:27.001Z</time></trkpt><trkpt lat="41.93137173787482" lon="1.1906769133372206"><ele>429.0</ele><time>2026-04-27T12:22:28.001Z</time></trkpt><trkpt lat="41.9313642189264" lon="1.190563168947224"><ele>428.8333333333333</ele><time>2026-04-27T12:22:29.001Z</time></trkpt><trkpt lat="41.93136935242054" lon="1.190445381076276"><ele>428.66666666666663</ele><time>2026-04-27T12:22:30.001Z</time></trkpt><trkpt lat="41.931390125180215" lon="1.190329742344107"><ele>428.5</ele><time>2026-04-27T12:22:31.001Z</time></trkpt><trkpt lat="41.93142482381781" lon="1.1902264218127339"><ele>428.3333333333333</ele><time>2026-04-27T12:22:32.001Z</time></trkpt><trkpt lat="41.93147319449709" lon="1.190126047393938"><ele>428.16666666666663</ele><time>2026-04-27T12:22:33.001Z</time></trkpt><trkpt lat="41.93152772953019" lon="1.1900401574347603"><ele>428.0</ele><time>2026-04-27T12:22:34.001Z</time></trkpt><trkpt lat="41.931591560274526" lon="1.1899630999842619"><ele>427.99999999999994</ele><time>2026-04-27T12:22:35.001Z</time></trkpt><trkpt lat="41.931656771488115" lon="1.1898885726284874"><ele>428.0</ele><time>2026-04-27T12:22:36.001Z</time></trkpt><trkpt lat="41.93172930184533" lon="1.1898267650042345"><ele>428.0</ele><time>2026-04-27T12:22:37.001Z</time></trkpt><trkpt lat="41.931807925757646" lon="1.1897823688162903"><ele>428.0</ele><time>2026-04-27T12:22:38.002Z</time></trkpt><trkpt lat="41.93189074067571" lon="1.189746135968455"><ele>427.99999999999994</ele><time>2026-04-27T12:22:39.002Z</time></trkpt><trkpt lat="41.93197331790654" lon="1.1897231547968588"><ele>428.0</ele><time>2026-04-27T12:22:40.002Z</time></trkpt><trkpt lat="41.93205732289154" lon="1.1897106251422067"><ele>427.8333333333333</ele><time>2026-04-27T12:22:41.002Z</time></trkpt><trkpt lat="41.9321436901685" lon="1.1897076759911802"><ele>427.66666666666663</ele><time>2026-04-27T12:22:42.002Z</time></trkpt><trkpt lat="41.93223166938051" lon="1.1897103812889787"><ele>427.5</ele><time>2026-04-27T12:22:43.002Z</time></trkpt><trkpt lat="41.93231780478437" lon="1.1897196924557352"><ele>427.33333333333337</ele><time>2026-04-27T12:22:44.002Z</time></trkpt><trkpt lat="41.93240634651822" lon="1.189737897977164"><ele>427.1666666666667</ele><time>2026-04-27T12:22:45.002Z</time></trkpt><trkpt lat="41.93249358354868" lon="1.1897607026148862"><ele>427.0</ele><time>2026-04-27T12:22:46.002Z</time></trkpt><trkpt lat="41.93257794059238" lon="1.1897891268664447"><ele>428.00000000000006</ele><time>2026-04-27T12:22:47.002Z</time></trkpt><trkpt lat="41.93266148383789" lon="1.1898162720017922"><ele>429.0</ele><time>2026-04-27T12:22:48.002Z</time></trkpt><trkpt lat="41.932747833704944" lon="1.1898490167206437"><ele>430.0</ele><time>2026-04-27T12:22:49.002Z</time></trkpt><trkpt lat="41.932832622206476" lon="1.1898911488970352"><ele>431.0</ele><time>2026-04-27T12:22:50.002Z</time></trkpt><trkpt lat="41.93291453045568" lon="1.1899325941476266"><ele>432.00000000000006</ele><time>2026-04-27T12:22:50.999Z</time></trkpt><trkpt lat="41.93299949233562" lon="1.189977199542461"><ele>433.0</ele><time>2026-04-27T12:22:51.999Z</time></trkpt><trkpt lat="41.933084516267826" lon="1.1900186896397684"><ele>433.4</ele><time>2026-04-27T12:22:52.999Z</time></trkpt><trkpt lat="41.933169141524715" lon="1.1900579634886543"><ele>433.79999999999995</ele><time>2026-04-27T12:22:53.999Z</time></trkpt><trkpt lat="41.93325537252138" lon="1.1900919135275703"><ele>434.2</ele><time>2026-04-27T12:22:54.999Z</time></trkpt><trkpt lat="41.933344415976165" lon="1.1901237762147208"><ele>434.6</ele><time>2026-04-27T12:22:55.999Z</time></trkpt><trkpt lat="41.93343514263824" lon="1.1901499082711453"><ele>435.0</ele><time>2026-04-27T12:22:56.999Z</time></trkpt><trkpt lat="41.93352746381404" lon="1.1901748791790987"><ele>435.0</ele><time>2026-04-27T12:22:57.999Z</time></trkpt><trkpt lat="41.93361920120796" lon="1.190198065953709"><ele>435.0</ele><time>2026-04-27T12:22:58.999Z</time></trkpt><trkpt lat="41.93370986597953" lon="1.1902218406062512"><ele>435.0</ele><time>2026-04-27T12:22:59.999Z</time></trkpt><trkpt lat="41.93379894125176" lon="1.1902480672064948"><ele>435.0</ele><time>2026-04-27T12:23:00.999Z</time></trkpt><trkpt lat="41.933888671620615" lon="1.1902748889517922"><ele>435.0</ele><time>2026-04-27T12:23:01.999Z</time></trkpt><trkpt lat="41.933971291898" lon="1.1903104962041855"><ele>435.0</ele><time>2026-04-27T12:23:02.999Z</time></trkpt><trkpt lat="41.93406355629847" lon="1.1903442154314297"><ele>435.0</ele><time>2026-04-27T12:23:03.999Z</time></trkpt><trkpt lat="41.934156624191914" lon="1.1903703978221623"><ele>435.0</ele><time>2026-04-27T12:23:04.999Z</time></trkpt><trkpt lat="41.9342479466425" lon="1.1904059653124548"><ele>435.0</ele><time>2026-04-27T12:23:05.999Z</time></trkpt><trkpt lat="41.93433927775572" lon="1.190440865515555"><ele>435.0</ele><time>2026-04-27T12:23:06.999Z</time></trkpt><trkpt lat="41.93442277337461" lon="1.1904897679101802"><ele>436.2</ele><time>2026-04-27T12:23:07.999Z</time></trkpt><trkpt lat="41.93450183992231" lon="1.1905537749916282"><ele>437.4</ele><time>2026-04-27T12:23:08.999Z</time></trkpt><trkpt lat="41.93457522839993" lon="1.1906325335658283"><ele>438.6</ele><time>2026-04-27T12:23:09.999Z</time></trkpt><trkpt lat="41.934644149071104" lon="1.1907213603876259"><ele>439.8</ele><time>2026-04-27T12:23:10.999Z</time></trkpt><trkpt lat="41.93471009713744" lon="1.1908195739698726"><ele>441.0</ele><time>2026-04-27T12:23:12Z</time></trkpt><trkpt lat="41.93477294028636" lon="1.1909184898657186"><ele>441.20000000000005</ele><time>2026-04-27T12:23:13Z</time></trkpt><trkpt lat="41.93483938999471" lon="1.1910194245636585"><ele>441.40000000000003</ele><time>2026-04-27T12:23:14Z</time></trkpt><trkpt lat="41.93490333622002" lon="1.1911207476020784"><ele>441.6</ele><time>2026-04-27T12:23:15Z</time></trkpt><trkpt lat="41.93496842514149" lon="1.1912254929556554"><ele>441.8</ele><time>2026-04-27T12:23:16Z</time></trkpt><trkpt lat="41.93503326544007" lon="1.1913314310555254"><ele>442.0</ele><time>2026-04-27T12:23:17Z</time></trkpt><trkpt lat="41.93510058860831" lon="1.191440669799162"><ele>444.40000000000003</ele><time>2026-04-27T12:23:18Z</time></trkpt><trkpt lat="41.93516930040301" lon="1.1915496838585853"><ele>446.80000000000007</ele><time>2026-04-27T12:23:19Z</time></trkpt><trkpt lat="41.93523702311728" lon="1.1916575513206957"><ele>449.2</ele><time>2026-04-27T12:23:20Z</time></trkpt><trkpt lat="41.93530479954754" lon="1.1917659757014412"><ele>451.6</ele><time>2026-04-27T12:23:21Z</time></trkpt><trkpt lat="41.93537017082677" lon="1.191876283910324"><ele>454.0</ele><time>2026-04-27T12:23:22Z</time></trkpt><trkpt lat="41.93543460914699" lon="1.1919835754406911"><ele>454.0</ele><time>2026-04-27T12:23:23Z</time></trkpt><trkpt lat="41.93550563419317" lon="1.1920866593220816"><ele>454.0</ele><time>2026-04-27T12:23:24Z</time></trkpt><trkpt lat="41.935572291678334" lon="1.1921909938063624"><ele>454.0</ele><time>2026-04-27T12:23:25Z</time></trkpt><trkpt lat="41.93564075688972" lon="1.192295055370615"><ele>454.0</ele><time>2026-04-27T12:23:26Z</time></trkpt><trkpt lat="41.935708064132484" lon="1.1923981038552303"><ele>454.0</ele><time>2026-04-27T12:23:27Z</time></trkpt><trkpt lat="41.93577915483968" lon="1.1924958617338408"><ele>453.2</ele><time>2026-04-27T12:23:28Z</time></trkpt><trkpt lat="41.93585811929852" lon="1.19258050401506"><ele>452.4</ele><time>2026-04-27T12:23:29Z</time></trkpt><trkpt lat="41.93594392590461" lon="1.1926484925204004"><ele>451.6</ele><time>2026-04-27T12:23:30Z</time></trkpt><trkpt lat="41.93603637050811" lon="1.192700383496078"><ele>450.8</ele><time>2026-04-27T12:23:31Z</time></trkpt><trkpt lat="41.93613184237133" lon="1.1927381532325478"><ele>450.0</ele><time>2026-04-27T12:23:32Z</time></trkpt><trkpt lat="41.93622706458228" lon="1.1927588616230325"><ele>451.6</ele><time>2026-04-27T12:23:33Z</time></trkpt><trkpt lat="41.93632443946437" lon="1.1927666359745654"><ele>453.2</ele><time>2026-04-27T12:23:34Z</time></trkpt><trkpt lat="41.93641885353489" lon="1.1927544158135515"><ele>454.79999999999995</ele><time>2026-04-27T12:23:35Z</time></trkpt><trkpt lat="41.93651150922423" lon="1.192722138975149"><ele>456.4</ele><time>2026-04-27T12:23:36Z</time></trkpt><trkpt lat="41.93660027892303" lon="1.1926767766236217"><ele>458.0</ele><time>2026-04-27T12:23:37Z</time></trkpt><trkpt lat="41.9366818309534" lon="1.192614851570308"><ele>456.79999999999995</ele><time>2026-04-27T12:23:38Z</time></trkpt><trkpt lat="41.93675684514961" lon="1.1925385160312132"><ele>455.59999999999997</ele><time>2026-04-27T12:23:39Z</time></trkpt><trkpt lat="41.936820362617695" lon="1.1924506310878966"><ele>454.40000000000003</ele><time>2026-04-27T12:23:40Z</time></trkpt><trkpt lat="41.93687176950012" lon="1.192349660900744"><ele>453.20000000000005</ele><time>2026-04-27T12:23:41.001Z</time></trkpt><trkpt lat="41.936917288743466" lon="1.1922440695096967"><ele>452.0</ele><time>2026-04-27T12:23:42.001Z</time></trkpt><trkpt lat="41.93695520043204" lon="1.1921352615371688"><ele>454.40000000000003</ele><time>2026-04-27T12:23:43.001Z</time></trkpt><trkpt lat="41.93699134656065" lon="1.1920170020080265"><ele>456.80000000000007</ele><time>2026-04-27T12:23:44.001Z</time></trkpt><trkpt lat="41.93702965805853" lon="1.191896988579284"><ele>459.2</ele><time>2026-04-27T12:23:45.001Z</time></trkpt><trkpt lat="41.93706958841529" lon="1.1917752866572906"><ele>461.6</ele><time>2026-04-27T12:23:46.001Z</time></trkpt><trkpt lat="41.93711268542928" lon="1.191657639416703"><ele>464.0</ele><time>2026-04-27T12:23:47.001Z</time></trkpt><trkpt lat="41.937165639878266" lon="1.1915451364013845"><ele>464.2</ele><time>2026-04-27T12:23:48.001Z</time></trkpt><trkpt lat="41.93722746180877" lon="1.1914435081094024"><ele>464.4</ele><time>2026-04-27T12:23:49.001Z</time></trkpt><trkpt lat="41.93729358757597" lon="1.1913494064457388"><ele>464.6</ele><time>2026-04-27T12:23:50.001Z</time></trkpt><trkpt lat="41.937359431983786" lon="1.1912568796625933"><ele>464.8</ele><time>2026-04-27T12:23:51.001Z</time></trkpt><trkpt lat="41.937425889095664" lon="1.1911607444813654"><ele>465.0</ele><time>2026-04-27T12:23:52.001Z</time></trkpt><trkpt lat="41.937488331708614" lon="1.191060227618998"><ele>465.0</ele><time>2026-04-27T12:23:53.001Z</time></trkpt><trkpt lat="41.93754336287055" lon="1.190951387446173"><ele>465.0</ele><time>2026-04-27T12:23:54.001Z</time></trkpt><trkpt lat="41.93759769044711" lon="1.1908375317254465"><ele>465.0</ele><time>2026-04-27T12:23:55.001Z</time></trkpt><trkpt lat="41.937645763162706" lon="1.190721215026942"><ele>465.0</ele><time>2026-04-27T12:23:56.001Z</time></trkpt><trkpt lat="41.93769253362807" lon="1.1906054201009386"><ele>465.0</ele><time>2026-04-27T12:23:57.001Z</time></trkpt><trkpt lat="41.93773765656721" lon="1.1904892147143757"><ele>467.8</ele><time>2026-04-27T12:23:58.001Z</time></trkpt><trkpt lat="41.937781840859245" lon="1.1903742692808656"><ele>470.6</ele><time>2026-04-27T12:23:59.001Z</time></trkpt><trkpt lat="41.937823998772835" lon="1.1902573414697095"><ele>473.4</ele><time>2026-04-27T12:24:00.001Z</time></trkpt><trkpt lat="41.937864916554176" lon="1.1901375457441723"><ele>476.2</ele><time>2026-04-27T12:24:01.001Z</time></trkpt><trkpt lat="41.937902325209" lon="1.1900145859303788"><ele>479.0</ele><time>2026-04-27T12:24:02.001Z</time></trkpt><trkpt lat="41.937940311337876" lon="1.1898914424381684"><ele>479.6</ele><time>2026-04-27T12:24:03.001Z</time></trkpt><trkpt lat="41.93795344263214" lon="1.1897555531276744"><ele>480.2</ele><time>2026-04-27T12:24:04.001Z</time></trkpt><trkpt lat="41.93794747084979" lon="1.1896155771744552"><ele>480.80000000000007</ele><time>2026-04-27T12:24:05.001Z</time></trkpt><trkpt lat="41.93792749229438" lon="1.1894790323654463"><ele>481.40000000000003</ele><time>2026-04-27T12:24:06.001Z</time></trkpt><trkpt lat="41.93788918220071" lon="1.1893497940126312"><ele>482.0</ele><time>2026-04-27T12:24:07.001Z</time></trkpt><trkpt lat="41.93784123821037" lon="1.1892296272370715"><ele>482.0</ele><time>2026-04-27T12:24:08.001Z</time></trkpt><trkpt lat="41.93778049065352" lon="1.1891202133468277"><ele>482.00000000000006</ele><time>2026-04-27T12:24:09.001Z</time></trkpt><trkpt lat="41.937708832213886" lon="1.1890273748865012"><ele>482.00000000000006</ele><time>2026-04-27T12:24:10.001Z</time></trkpt><trkpt lat="41.93762183068551" lon="1.1889626778477145"><ele>482.0</ele><time>2026-04-27T12:24:11.001Z</time></trkpt><trkpt lat="41.937545879948345" lon="1.1888845835350932"><ele>482.0</ele><time>2026-04-27T12:24:12.001Z</time></trkpt><trkpt lat="41.9374637517813" lon="1.18881885094838"><ele>482.8</ele><time>2026-04-27T12:24:13.001Z</time></trkpt><trkpt lat="41.93737992813415" lon="1.1887608968467158"><ele>483.6</ele><time>2026-04-27T12:24:14.001Z</time></trkpt><trkpt lat="41.937295854606596" lon="1.1886941097095487"><ele>484.40000000000003</ele><time>2026-04-27T12:24:15.001Z</time></trkpt><trkpt lat="41.93721942161931" lon="1.1886317626116776"><ele>485.20000000000005</ele><time>2026-04-27T12:24:16.001Z</time></trkpt><trkpt lat="41.937144246733794" lon="1.1885546270668332"><ele>486.0</ele><time>2026-04-27T12:24:17.001Z</time></trkpt><trkpt lat="41.93707707494391" lon="1.1884693172608245"><ele>486.0</ele><time>2026-04-27T12:24:18.001Z</time></trkpt><trkpt lat="41.93701736831287" lon="1.1883803027333222"><ele>486.0</ele><time>2026-04-27T12:24:19.002Z</time></trkpt><trkpt lat="41.93696249660223" lon="1.1882850110333787"><ele>486.0</ele><time>2026-04-27T12:24:20.002Z</time></trkpt><trkpt lat="41.936932099846466" lon="1.1881689914356137"><ele>486.0</ele><time>2026-04-27T12:24:21.002Z</time></trkpt><trkpt lat="41.936895385233534" lon="1.1880660128725873"><ele>486.0</ele><time>2026-04-27T12:24:22.002Z</time></trkpt><trkpt lat="41.93684442114131" lon="1.1879700161961946"><ele>486.0</ele><time>2026-04-27T12:24:23.002Z</time></trkpt><trkpt lat="41.93680950472906" lon="1.187864179710388"><ele>485.6666666666667</ele><time>2026-04-27T12:24:24.002Z</time></trkpt><trkpt lat="41.936773829321716" lon="1.187761030189658"><ele>485.33333333333337</ele><time>2026-04-27T12:24:25.002Z</time></trkpt><trkpt lat="41.93673720982466" lon="1.187655330762296"><ele>485.0</ele><time>2026-04-27T12:24:26.002Z</time></trkpt><trkpt lat="41.936703970878376" lon="1.1875500328380133"><ele>484.6666666666667</ele><time>2026-04-27T12:24:27.002Z</time></trkpt><trkpt lat="41.9366649429573" lon="1.1874462978933156"><ele>484.33333333333337</ele><time>2026-04-27T12:24:28.002Z</time></trkpt><trkpt lat="41.93661865822288" lon="1.1873471597743157"><ele>484.0</ele><time>2026-04-27T12:24:29.002Z</time></trkpt><trkpt lat="41.93657093073531" lon="1.1872478888997382"><ele>486.6666666666667</ele><time>2026-04-27T12:24:30.002Z</time></trkpt><trkpt lat="41.93652091387609" lon="1.1871478963286237"><ele>489.33333333333337</ele><time>2026-04-27T12:24:31.002Z</time></trkpt><trkpt lat="41.936473180256755" lon="1.1870480532382452"><ele>492.0</ele><time>2026-04-27T12:24:32.002Z</time></trkpt><trkpt lat="41.93642254437161" lon="1.1869485348377191"><ele>494.66666666666663</ele><time>2026-04-27T12:24:33.002Z</time></trkpt><trkpt lat="41.93637455600992" lon="1.1868461882558419"><ele>497.3333333333333</ele><time>2026-04-27T12:24:34.002Z</time></trkpt><trkpt lat="41.93632142969558" lon="1.1867507956286636"><ele>500.0</ele><time>2026-04-27T12:24:35.002Z</time></trkpt><trkpt lat="41.93626531086699" lon="1.1866600385860886"><ele>499.99999999999994</ele><time>2026-04-27T12:24:36.002Z</time></trkpt><trkpt lat="41.9362073632575" lon="1.1865711120459466"><ele>500.0</ele><time>2026-04-27T12:24:37.002Z</time></trkpt><trkpt lat="41.936148435538335" lon="1.1864791399768966"><ele>500.0</ele><time>2026-04-27T12:24:38.002Z</time></trkpt><trkpt lat="41.936094022855514" lon="1.186388284741436"><ele>500.0</ele><time>2026-04-27T12:24:39.002Z</time></trkpt><trkpt lat="41.9360326915855" lon="1.1862994442934307"><ele>499.99999999999994</ele><time>2026-04-27T12:24:40.002Z</time></trkpt><trkpt lat="41.935971184530466" lon="1.1862144571881696"><ele>500.0</ele><time>2026-04-27T12:24:41.002Z</time></trkpt><trkpt lat="41.9359079131159" lon="1.1861275898539443"><ele>500.2</ele><time>2026-04-27T12:24:42.002Z</time></trkpt><trkpt lat="41.93585070874203" lon="1.186034999255632"><ele>500.4</ele><time>2026-04-27T12:24:43.002Z</time></trkpt><trkpt lat="41.935786357985094" lon="1.185949021888505"><ele>500.6</ele><time>2026-04-27T12:24:44.002Z</time></trkpt><trkpt lat="41.9357220188134" lon="1.185853955552458"><ele>500.8</ele><time>2026-04-27T12:24:45.002Z</time></trkpt><trkpt lat="41.93565569951244" lon="1.1857495631640835"><ele>501.0</ele><time>2026-04-27T12:24:46.002Z</time></trkpt><trkpt lat="41.935591278258045" lon="1.185639530227002"><ele>508.0</ele><time>2026-04-27T12:24:47.002Z</time></trkpt><trkpt lat="41.93550470914808" lon="1.185544560967786"><ele>515.0</ele><time>2026-04-27T12:24:48.002Z</time></trkpt><trkpt lat="41.93541870913772" lon="1.1854458854009116"><ele>522.0</ele><time>2026-04-27T12:24:49.002Z</time></trkpt><trkpt lat="41.93534032825625" lon="1.1853559515267411"><ele>529.0</ele><time>2026-04-27T12:24:50.002Z</time></trkpt><trkpt lat="41.93524572998088" lon="1.1852474099385577"><ele>529.0</ele><time>2026-04-27T12:24:51.002Z</time></trkpt><trkpt lat="41.93525510684827" lon="1.1853413499635275"><ele>529.0</ele><time>2026-04-27T12:24:52.002Z</time></trkpt><trkpt lat="41.93518685558143" lon="1.1852652868486149"><ele>529.0</ele><time>2026-04-27T12:24:53.002Z</time></trkpt><trkpt lat="41.93512186062072" lon="1.1851929531642234"><ele>529.0</ele><time>2026-04-27T12:24:54.002Z</time></trkpt><trkpt lat="41.93505611059125" lon="1.1851218671671133"><ele>529.0</ele><time>2026-04-27T12:24:55.002Z</time></trkpt><trkpt lat="41.93498960788549" lon="1.1850496420350078"><ele>529.0</ele><time>2026-04-27T12:24:56.002Z</time></trkpt><trkpt lat="41.93492761270532" lon="1.1849718776897562"><ele>530.0</ele><time>2026-04-27T12:24:57Z</time></trkpt><trkpt lat="41.93486282537162" lon="1.1848936335826552"><ele>531.0</ele><time>2026-04-27T12:24:58Z</time></trkpt><trkpt lat="41.93479840379645" lon="1.1848152602857875"><ele>532.0</ele><time>2026-04-27T12:24:59Z</time></trkpt><trkpt lat="41.93472899121409" lon="1.1847337855002043"><ele>533.0</ele><time>2026-04-27T12:25:00Z</time></trkpt><trkpt lat="41.93466050452301" lon="1.1846624302494764"><ele>534.0</ele><time>2026-04-27T12:25:01Z</time></trkpt><trkpt lat="41.934596463975765" lon="1.1845861732246026"><ele>535.0</ele><time>2026-04-27T12:25:02Z</time></trkpt><trkpt lat="41.93453099030423" lon="1.1845156940688157"><ele>535.0</ele><time>2026-04-27T12:25:03Z</time></trkpt><trkpt lat="41.934466855129834" lon="1.184441104991668"><ele>535.0</ele><time>2026-04-27T12:25:04Z</time></trkpt><trkpt lat="41.93439816948169" lon="1.184373084910703"><ele>535.0</ele><time>2026-04-27T12:25:05Z</time></trkpt><trkpt lat="41.934330563547846" lon="1.1843047202341728"><ele>535.0</ele><time>2026-04-27T12:25:06Z</time></trkpt><trkpt lat="41.93425647947603" lon="1.1842408630285934"><ele>535.0</ele><time>2026-04-27T12:25:07Z</time></trkpt><trkpt lat="41.93417922717395" lon="1.1841876539155252"><ele>535.0</ele><time>2026-04-27T12:25:08Z</time></trkpt><trkpt lat="41.93409968632339" lon="1.1841441386822842"><ele>537.1666666666667</ele><time>2026-04-27T12:25:09Z</time></trkpt><trkpt lat="41.93401546943649" lon="1.1840990621463827"><ele>539.3333333333334</ele><time>2026-04-27T12:25:10Z</time></trkpt><trkpt lat="41.933933344345185" lon="1.1840619120236924"><ele>541.5</ele><time>2026-04-27T12:25:11Z</time></trkpt><trkpt lat="41.93385393758036" lon="1.184020283145443"><ele>543.6666666666666</ele><time>2026-04-27T12:25:12Z</time></trkpt><trkpt lat="41.93376724602174" lon="1.183983765651661"><ele>545.8333333333333</ele><time>2026-04-27T12:25:13Z</time></trkpt><trkpt lat="41.93367775447945" lon="1.1839506076536577"><ele>548.0</ele><time>2026-04-27T12:25:14Z</time></trkpt><trkpt lat="41.93359742351834" lon="1.183912276188856"><ele>548.0</ele><time>2026-04-27T12:25:15Z</time></trkpt><trkpt lat="41.933515596021955" lon="1.1838769546108738"><ele>548.0</ele><time>2026-04-27T12:25:16Z</time></trkpt><trkpt lat="41.933433129882935" lon="1.1838275023608498"><ele>548.0</ele><time>2026-04-27T12:25:17Z</time></trkpt><trkpt lat="41.93335374719788" lon="1.183781738307417"><ele>548.0</ele><time>2026-04-27T12:25:18Z</time></trkpt><trkpt lat="41.93326801978498" lon="1.1837705295596521"><ele>548.0</ele><time>2026-04-27T12:25:19Z</time></trkpt><trkpt lat="41.93318528895399" lon="1.1837302273203647"><ele>548.0</ele><time>2026-04-27T12:25:20Z</time></trkpt><trkpt lat="41.933110450632874" lon="1.183662069177786"><ele>545.3333333333333</ele><time>2026-04-27T12:25:21Z</time></trkpt><trkpt lat="41.933034230685514" lon="1.183613628543661"><ele>542.6666666666666</ele><time>2026-04-27T12:25:22Z</time></trkpt><trkpt lat="41.93295612940806" lon="1.1835615494230898"><ele>540.0</ele><time>2026-04-27T12:25:23Z</time></trkpt><trkpt lat="41.93287870125772" lon="1.1835072973891674"><ele>537.3333333333334</ele><time>2026-04-27T12:25:24Z</time></trkpt><trkpt lat="41.93280528890514" lon="1.1834423883713836"><ele>534.6666666666667</ele><time>2026-04-27T12:25:25Z</time></trkpt><trkpt lat="41.9327354057933" lon="1.183386443856895"><ele>532.0</ele><time>2026-04-27T12:25:26Z</time></trkpt><trkpt lat="41.932663336377125" lon="1.1833280842277987"><ele>532.0</ele><time>2026-04-27T12:25:27Z</time></trkpt><trkpt lat="41.932594705627686" lon="1.183262949622892"><ele>532.0</ele><time>2026-04-27T12:25:28Z</time></trkpt><trkpt lat="41.93252736923" lon="1.1831884841841214"><ele>532.0</ele><time>2026-04-27T12:25:29Z</time></trkpt><trkpt lat="41.93246496472509" lon="1.1831106289732767"><ele>532.0</ele><time>2026-04-27T12:25:30Z</time></trkpt><trkpt lat="41.93241830512262" lon="1.1830161016520973"><ele>532.0</ele><time>2026-04-27T12:25:31Z</time></trkpt><trkpt lat="41.9323729239983" lon="1.18292528545113"><ele>532.0</ele><time>2026-04-27T12:25:32Z</time></trkpt><trkpt lat="41.932339148306156" lon="1.1828194836087744"><ele>531.1666666666667</ele><time>2026-04-27T12:25:33Z</time></trkpt><trkpt lat="41.93232029618684" lon="1.1827133779879502"><ele>530.3333333333334</ele><time>2026-04-27T12:25:34Z</time></trkpt><trkpt lat="41.932298988666275" lon="1.1826059657071677"><ele>529.5</ele><time>2026-04-27T12:25:35Z</time></trkpt><trkpt lat="41.93228613589635" lon="1.1824960824598016"><ele>528.6666666666666</ele><time>2026-04-27T12:25:36Z</time></trkpt><trkpt lat="41.93228297855488" lon="1.1823842913075062"><ele>527.8333333333333</ele><time>2026-04-27T12:25:37.001Z</time></trkpt><trkpt lat="41.93227160203841" lon="1.1822769777891509"><ele>527.0</ele><time>2026-04-27T12:25:38.001Z</time></trkpt><trkpt lat="41.93224279840988" lon="1.1821689509932505"><ele>529.3333333333333</ele><time>2026-04-27T12:25:39.001Z</time></trkpt><trkpt lat="41.932201635438936" lon="1.1820627107475614"><ele>531.6666666666666</ele><time>2026-04-27T12:25:40.001Z</time></trkpt><trkpt lat="41.93217582922375" lon="1.1819573807681403"><ele>534.0</ele><time>2026-04-27T12:25:41.001Z</time></trkpt><trkpt lat="41.932130026848355" lon="1.1818716812876957"><ele>536.3333333333334</ele><time>2026-04-27T12:25:42.001Z</time></trkpt><trkpt lat="41.932091670908186" lon="1.1817700979499535"><ele>538.6666666666667</ele><time>2026-04-27T12:25:43.001Z</time></trkpt><trkpt lat="41.93205072275974" lon="1.1816722572632437"><ele>541.0</ele><time>2026-04-27T12:25:44.001Z</time></trkpt><trkpt lat="41.93201274426637" lon="1.1815717811994562"><ele>542.5</ele><time>2026-04-27T12:25:45.001Z</time></trkpt><trkpt lat="41.93196799241634" lon="1.1814705506943493"><ele>544.0</ele><time>2026-04-27T12:25:46.001Z</time></trkpt><trkpt lat="41.93192150526321" lon="1.1813688255309658"><ele>545.5</ele><time>2026-04-27T12:25:47.001Z</time></trkpt><trkpt lat="41.931875778341954" lon="1.1812704403935426"><ele>547.0</ele><time>2026-04-27T12:25:48.001Z</time></trkpt><trkpt lat="41.93183309879019" lon="1.1811688398160973"><ele>548.5</ele><time>2026-04-27T12:25:49.001Z</time></trkpt><trkpt lat="41.931803179209595" lon="1.1810653331930658"><ele>550.0</ele><time>2026-04-27T12:25:50.001Z</time></trkpt><trkpt lat="41.931769741743686" lon="1.180959085203914"><ele>550.0</ele><time>2026-04-27T12:25:51.001Z</time></trkpt><trkpt lat="41.93175878585097" lon="1.180841133073615"><ele>550.0</ele><time>2026-04-27T12:25:52.001Z</time></trkpt><trkpt lat="41.93173131559703" lon="1.180734487158243"><ele>550.0</ele><time>2026-04-27T12:25:53.001Z</time></trkpt><trkpt lat="41.93173272539158" lon="1.1806226806962141"><ele>550.0</ele><time>2026-04-27T12:25:54.001Z</time></trkpt><trkpt lat="41.93173917942512" lon="1.1805008571868867"><ele>550.0</ele><time>2026-04-27T12:25:55.001Z</time></trkpt><trkpt lat="41.93175518094473" lon="1.1803944077473913"><ele>550.0</ele><time>2026-04-27T12:25:56.001Z</time></trkpt><trkpt lat="41.931769609023675" lon="1.1802794867182156"><ele>550.1666666666667</ele><time>2026-04-27T12:25:57.001Z</time></trkpt><trkpt lat="41.93178795738407" lon="1.1801700345223936"><ele>550.3333333333334</ele><time>2026-04-27T12:25:58.001Z</time></trkpt><trkpt lat="41.93180870177792" lon="1.18006115125159"><ele>550.5</ele><time>2026-04-27T12:25:59.001Z</time></trkpt><trkpt lat="41.93182963568969" lon="1.1799457280542327"><ele>550.6666666666666</ele><time>2026-04-27T12:26:00.001Z</time></trkpt><trkpt lat="41.931844916170924" lon="1.1798336258818742"><ele>550.8333333333333</ele><time>2026-04-27T12:26:01.001Z</time></trkpt><trkpt lat="41.93186228103591" lon="1.1797232136152527"><ele>551.0</ele><time>2026-04-27T12:26:02.001Z</time></trkpt><trkpt lat="41.93188625212309" lon="1.1796113847876806"><ele>550.1666666666666</ele><time>2026-04-27T12:26:03.001Z</time></trkpt><trkpt lat="41.93190656997752" lon="1.1794989800868054"><ele>549.3333333333333</ele><time>2026-04-27T12:26:04.001Z</time></trkpt><trkpt lat="41.931926430398484" lon="1.1793943393676818"><ele>548.5</ele><time>2026-04-27T12:26:05.001Z</time></trkpt><trkpt lat="41.93194439272614" lon="1.179272589726984"><ele>547.6666666666666</ele><time>2026-04-27T12:26:06.001Z</time></trkpt><trkpt lat="41.93196586297641" lon="1.179157431894551"><ele>546.8333333333334</ele><time>2026-04-27T12:26:07.001Z</time></trkpt><trkpt lat="41.931982097741866" lon="1.17903906043094"><ele>546.0</ele><time>2026-04-27T12:26:08.001Z</time></trkpt><trkpt lat="41.93199979659233" lon="1.178922161920095"><ele>544.6666666666666</ele><time>2026-04-27T12:26:09.001Z</time></trkpt><trkpt lat="41.932021730407854" lon="1.178809090696702"><ele>543.3333333333334</ele><time>2026-04-27T12:26:10.001Z</time></trkpt><trkpt lat="41.93206287031826" lon="1.1786963351431865"><ele>542.0</ele><time>2026-04-27T12:26:11.001Z</time></trkpt><trkpt lat="41.932088221952974" lon="1.1785830817945622"><ele>540.6666666666667</ele><time>2026-04-27T12:26:12.001Z</time></trkpt><trkpt lat="41.93214055585949" lon="1.1784924889783042"><ele>539.3333333333334</ele><time>2026-04-27T12:26:13.001Z</time></trkpt><trkpt lat="41.9322057969526" lon="1.1784001198172682"><ele>538.0</ele><time>2026-04-27T12:26:14.002Z</time></trkpt><trkpt lat="41.932276832728974" lon="1.178323405736263"><ele>538.0</ele><time>2026-04-27T12:26:15.002Z</time></trkpt><trkpt lat="41.93235545494281" lon="1.1782549756950946"><ele>538.0</ele><time>2026-04-27T12:26:16.002Z</time></trkpt><trkpt lat="41.93244048143779" lon="1.1782060906344918"><ele>538.0</ele><time>2026-04-27T12:26:17.002Z</time></trkpt><trkpt lat="41.93252711785005" lon="1.1781719022603803"><ele>538.0</ele><time>2026-04-27T12:26:18.002Z</time></trkpt><trkpt lat="41.93261686504065" lon="1.1781483724723374"><ele>538.0</ele><time>2026-04-27T12:26:19.002Z</time></trkpt><trkpt lat="41.932714028060936" lon="1.1781467687283338"><ele>538.6</ele><time>2026-04-27T12:26:20.002Z</time></trkpt><trkpt lat="41.932804557247216" lon="1.1781627316865317"><ele>539.1999999999999</ele><time>2026-04-27T12:26:21.002Z</time></trkpt><trkpt lat="41.93289303038833" lon="1.1782003971459485"><ele>539.8</ele><time>2026-04-27T12:26:22.002Z</time></trkpt><trkpt lat="41.93297810879637" lon="1.1782405301803625"><ele>540.4</ele><time>2026-04-27T12:26:23.002Z</time></trkpt><trkpt lat="41.93306661849092" lon="1.1782824724147758"><ele>541.0</ele><time>2026-04-27T12:26:24.002Z</time></trkpt><trkpt lat="41.9331559595198" lon="1.1783308439109443"><ele>541.0</ele><time>2026-04-27T12:26:25.002Z</time></trkpt><trkpt lat="41.9332408847071" lon="1.1783895355852065"><ele>541.0</ele><time>2026-04-27T12:26:26.002Z</time></trkpt><trkpt lat="41.933315889827945" lon="1.1784584947467551"><ele>541.0</ele><time>2026-04-27T12:26:27.002Z</time></trkpt><trkpt lat="41.93338492464957" lon="1.1785468453910917"><ele>541.0</ele><time>2026-04-27T12:26:28.002Z</time></trkpt><trkpt lat="41.933436855938304" lon="1.1786424315469526"><ele>541.0</ele><time>2026-04-27T12:26:29.002Z</time></trkpt><trkpt lat="41.933483304355704" lon="1.1787549347841784"><ele>540.6</ele><time>2026-04-27T12:26:30.002Z</time></trkpt><trkpt lat="41.93351665710079" lon="1.178867009882457"><ele>540.2</ele><time>2026-04-27T12:26:31.002Z</time></trkpt><trkpt lat="41.933540903524204" lon="1.1789858429452795"><ele>539.8</ele><time>2026-04-27T12:26:32.002Z</time></trkpt><trkpt lat="41.93354850872353" lon="1.179107194547706"><ele>539.4</ele><time>2026-04-27T12:26:33.002Z</time></trkpt><trkpt lat="41.93354638869001" lon="1.1792334725442242"><ele>539.0</ele><time>2026-04-27T12:26:34.002Z</time></trkpt><trkpt lat="41.933529745878104" lon="1.179350335512664"><ele>541.0</ele><time>2026-04-27T12:26:35.002Z</time></trkpt><trkpt lat="41.93350283767535" lon="1.179463903836423"><ele>543.0</ele><time>2026-04-27T12:26:36.002Z</time></trkpt><trkpt lat="41.933460244374125" lon="1.179577233966999"><ele>545.0</ele><time>2026-04-27T12:26:37.002Z</time></trkpt><trkpt lat="41.93341089770032" lon="1.1796796433425822"><ele>547.0</ele><time>2026-04-27T12:26:38.002Z</time></trkpt><trkpt lat="41.933350811704116" lon="1.1797779607900403"><ele>549.0</ele><time>2026-04-27T12:26:39.002Z</time></trkpt><trkpt lat="41.93329187182816" lon="1.179871570037493"><ele>550.0</ele><time>2026-04-27T12:26:40.002Z</time></trkpt><trkpt lat="41.933233862325096" lon="1.17996299722232"><ele>551.0</ele><time>2026-04-27T12:26:41.002Z</time></trkpt><trkpt lat="41.93317588147597" lon="1.1800633676461667"><ele>552.0</ele><time>2026-04-27T12:26:42.002Z</time></trkpt><trkpt lat="41.93311758068257" lon="1.1801629699563603"><ele>553.0</ele><time>2026-04-27T12:26:43.002Z</time></trkpt><trkpt lat="41.93305821719125" lon="1.1802572849794686"><ele>554.0</ele><time>2026-04-27T12:26:44.002Z</time></trkpt><trkpt lat="41.93299873810871" lon="1.1803607625993338"><ele>554.0</ele><time>2026-04-27T12:26:45.002Z</time></trkpt><trkpt lat="41.932949442899336" lon="1.1804650923926014"><ele>554.0</ele><time>2026-04-27T12:26:46.002Z</time></trkpt><trkpt lat="41.93290727559531" lon="1.1805781520031737"><ele>554.0</ele><time>2026-04-27T12:26:47.002Z</time></trkpt><trkpt lat="41.93287396669677" lon="1.1806979816851666"><ele>554.0</ele><time>2026-04-27T12:26:48.002Z</time></trkpt><trkpt lat="41.93285647971004" lon="1.1808239688139524"><ele>554.0</ele><time>2026-04-27T12:26:49.002Z</time></trkpt><trkpt lat="41.93285216953079" lon="1.1809555251891428"><ele>555.4</ele><time>2026-04-27T12:26:50.002Z</time></trkpt><trkpt lat="41.93285844914977" lon="1.1810841150175626"><ele>556.8</ele><time>2026-04-27T12:26:51.003Z</time></trkpt><trkpt lat="41.93287655599374" lon="1.181208778303155"><ele>558.2</ele><time>2026-04-27T12:26:52.003Z</time></trkpt><trkpt lat="41.93290964923113" lon="1.1813330600084866"><ele>559.6</ele><time>2026-04-27T12:26:53.003Z</time></trkpt><trkpt lat="41.93295549435626" lon="1.1814438587344327"><ele>561.0</ele><time>2026-04-27T12:26:54.003Z</time></trkpt><trkpt lat="41.9330163467961" lon="1.1815486235188657"><ele>561.8</ele><time>2026-04-27T12:26:55.003Z</time></trkpt><trkpt lat="41.933081374952046" lon="1.181640657882633"><ele>562.6</ele><time>2026-04-27T12:26:56.003Z</time></trkpt><trkpt lat="41.93315505808459" lon="1.181730134500073"><ele>563.4</ele><time>2026-04-27T12:26:57.003Z</time></trkpt><trkpt lat="41.933231506238634" lon="1.18181951875791"><ele>564.2</ele><time>2026-04-27T12:26:58.003Z</time></trkpt><trkpt lat="41.93330585977098" lon="1.1819051133401361"><ele>565.0</ele><time>2026-04-27T12:26:59.003Z</time></trkpt><trkpt lat="41.933377952482765" lon="1.1819894368466137"><ele>565.6</ele><time>2026-04-27T12:27:00.003Z</time></trkpt><trkpt lat="41.93345293627591" lon="1.182075591872932"><ele>566.2</ele><time>2026-04-27T12:27:01.003Z</time></trkpt><trkpt lat="41.933527059309895" lon="1.182155045894494"><ele>566.8</ele><time>2026-04-27T12:27:02.003Z</time></trkpt><trkpt lat="41.93360509150275" lon="1.1822319497585116"><ele>567.4</ele><time>2026-04-27T12:27:03Z</time></trkpt><trkpt lat="41.93368219611378" lon="1.1822988378121282"><ele>568.0</ele><time>2026-04-27T12:27:04Z</time></trkpt><trkpt lat="41.93376823427998" lon="1.1823690686439996"><ele>568.0</ele><time>2026-04-27T12:27:05Z</time></trkpt><trkpt lat="41.9338514430183" lon="1.1824270788971054"><ele>568.0</ele><time>2026-04-27T12:27:06Z</time></trkpt><trkpt lat="41.933936247172355" lon="1.1824774452644846"><ele>568.0</ele><time>2026-04-27T12:27:07Z</time></trkpt><trkpt lat="41.93402544048865" lon="1.1825303369949036"><ele>568.0</ele><time>2026-04-27T12:27:08Z</time></trkpt><trkpt lat="41.93411697436185" lon="1.1825786436247212"><ele>568.0</ele><time>2026-04-27T12:27:09Z</time></trkpt><trkpt lat="41.93421049057261" lon="1.1826230679622696"><ele>572.4</ele><time>2026-04-27T12:27:10Z</time></trkpt><trkpt lat="41.93429916335884" lon="1.1826679621170624"><ele>576.8</ele><time>2026-04-27T12:27:11Z</time></trkpt><trkpt lat="41.93439293970246" lon="1.182707272278996"><ele>581.2</ele><time>2026-04-27T12:27:12Z</time></trkpt><trkpt lat="41.93448338192017" lon="1.182749124548173"><ele>585.6</ele><time>2026-04-27T12:27:13Z</time></trkpt><trkpt lat="41.934575134306726" lon="1.1827932496941205"><ele>590.0</ele><time>2026-04-27T12:27:14Z</time></trkpt><trkpt lat="41.93466297144438" lon="1.182843941503752"><ele>590.0</ele><time>2026-04-27T12:27:15Z</time></trkpt><trkpt lat="41.93475583516106" lon="1.1828982062642543"><ele>590.0</ele><time>2026-04-27T12:27:16Z</time></trkpt><trkpt lat="41.934838420955955" lon="1.1829599535698392"><ele>590.0</ele><time>2026-04-27T12:27:17Z</time></trkpt><trkpt lat="41.93491897070465" lon="1.1830248780521744"><ele>590.0</ele><time>2026-04-27T12:27:18Z</time></trkpt><trkpt lat="41.935002220442215" lon="1.183097843086222"><ele>590.0</ele><time>2026-04-27T12:27:19Z</time></trkpt><trkpt lat="41.93508319365251" lon="1.183169474401444"><ele>589.8</ele><time>2026-04-27T12:27:20Z</time></trkpt><trkpt lat="41.935162127021314" lon="1.1832390473974235"><ele>589.6</ele><time>2026-04-27T12:27:21Z</time></trkpt><trkpt lat="41.935243973002976" lon="1.183307355647079"><ele>589.4</ele><time>2026-04-27T12:27:22Z</time></trkpt><trkpt lat="41.93532394207891" lon="1.1833705656206774"><ele>589.2</ele><time>2026-04-27T12:27:23Z</time></trkpt><trkpt lat="41.93540966930058" lon="1.1834295692508217"><ele>589.0</ele><time>2026-04-27T12:27:24Z</time></trkpt><trkpt lat="41.93549766301036" lon="1.183480716580572"><ele>589.0</ele><time>2026-04-27T12:27:25Z</time></trkpt><trkpt lat="41.93558607540005" lon="1.1835329473000702"><ele>589.0</ele><time>2026-04-27T12:27:26Z</time></trkpt><trkpt lat="41.93567404500791" lon="1.183585782681557"><ele>589.0</ele><time>2026-04-27T12:27:27Z</time></trkpt><trkpt lat="41.93576282738593" lon="1.1836337174545388"><ele>589.0</ele><time>2026-04-27T12:27:28Z</time></trkpt><trkpt lat="41.93585138639629" lon="1.1836831333276612"><ele>589.0</ele><time>2026-04-27T12:27:29Z</time></trkpt><trkpt lat="41.93594174521563" lon="1.1837299420066054"><ele>592.4</ele><time>2026-04-27T12:27:30Z</time></trkpt><trkpt lat="41.936031729133916" lon="1.183781842761942"><ele>595.8</ele><time>2026-04-27T12:27:31Z</time></trkpt><trkpt lat="41.93611925213109" lon="1.18382903340827"><ele>599.2</ele><time>2026-04-27T12:27:32Z</time></trkpt><trkpt lat="41.93620412714197" lon="1.1838788298372251"><ele>602.6</ele><time>2026-04-27T12:27:33.001Z</time></trkpt><trkpt lat="41.9362948065466" lon="1.1839313344311684"><ele>606.0</ele><time>2026-04-27T12:27:34.001Z</time></trkpt><trkpt lat="41.93637928762089" lon="1.183988728936546"><ele>605.8</ele><time>2026-04-27T12:27:35.001Z</time></trkpt><trkpt lat="41.936461298519816" lon="1.184056462899333"><ele>605.6</ele><time>2026-04-27T12:27:36.001Z</time></trkpt><trkpt lat="41.93653908235414" lon="1.184126243661376"><ele>605.4</ele><time>2026-04-27T12:27:37.001Z</time></trkpt><trkpt lat="41.93661650584621" lon="1.1841966327335522"><ele>605.2</ele><time>2026-04-27T12:27:38.001Z</time></trkpt><trkpt lat="41.936694024717674" lon="1.1842669887906403"><ele>605.0</ele><time>2026-04-27T12:27:39.001Z</time></trkpt><trkpt lat="41.936769722162715" lon="1.184339298796378"><ele>605.0</ele><time>2026-04-27T12:27:40.001Z</time></trkpt><trkpt lat="41.936843987058005" lon="1.184407308668166"><ele>605.0</ele><time>2026-04-27T12:27:41.001Z</time></trkpt><trkpt lat="41.936920080703075" lon="1.1844709892661267"><ele>605.0</ele><time>2026-04-27T12:27:42.001Z</time></trkpt><trkpt lat="41.937000628951374" lon="1.184535240729535"><ele>605.0</ele><time>2026-04-27T12:27:43.001Z</time></trkpt><trkpt lat="41.93708464506254" lon="1.1845895253078005"><ele>605.0</ele><time>2026-04-27T12:27:44.001Z</time></trkpt><trkpt lat="41.937169675030994" lon="1.184624796149665"><ele>605.0</ele><time>2026-04-27T12:27:45.001Z</time></trkpt><trkpt lat="41.93725746971992" lon="1.18464644354955"><ele>605.0</ele><time>2026-04-27T12:27:46.001Z</time></trkpt><trkpt lat="41.9373488317235" lon="1.1846542348386038"><ele>605.0</ele><time>2026-04-27T12:27:47.001Z</time></trkpt><trkpt lat="41.937438446102895" lon="1.1846485474128057"><ele>605.0</ele><time>2026-04-27T12:27:48.001Z</time></trkpt><trkpt lat="41.93752430448906" lon="1.184625708955663"><ele>605.0</ele><time>2026-04-27T12:27:49.001Z</time></trkpt><trkpt lat="41.937610338977784" lon="1.18459741452749"><ele>605.0</ele><time>2026-04-27T12:27:50.001Z</time></trkpt><trkpt lat="41.937695792552326" lon="1.1845667041390038"><ele>603.1666666666666</ele><time>2026-04-27T12:27:51.001Z</time></trkpt><trkpt lat="41.93778592251757" lon="1.1845375423232551"><ele>601.3333333333333</ele><time>2026-04-27T12:27:52.001Z</time></trkpt><trkpt lat="41.93787029617474" lon="1.1845048688422446"><ele>599.5</ele><time>2026-04-27T12:27:53.001Z</time></trkpt><trkpt lat="41.93795542807424" lon="1.1844636083188933"><ele>597.6666666666666</ele><time>2026-04-27T12:27:54.001Z</time></trkpt><trkpt lat="41.93803949533728" lon="1.1844161378560976"><ele>595.8333333333334</ele><time>2026-04-27T12:27:55.001Z</time></trkpt><trkpt lat="41.938114396563506" lon="1.1843587047639106"><ele>594.0</ele><time>2026-04-27T12:27:56.001Z</time></trkpt><trkpt lat="41.93818798905348" lon="1.1842830099328459"><ele>594.0</ele><time>2026-04-27T12:27:57.001Z</time></trkpt><trkpt lat="41.93825391729882" lon="1.1842056152833789"><ele>594.0</ele><time>2026-04-27T12:27:58.001Z</time></trkpt><trkpt lat="41.93832025680834" lon="1.1841219640683027"><ele>594.0</ele><time>2026-04-27T12:27:59.001Z</time></trkpt><trkpt lat="41.93839524199973" lon="1.1840384873498986"><ele>594.0</ele><time>2026-04-27T12:28:00.001Z</time></trkpt><trkpt lat="41.93847924392362" lon="1.1839781340914934"><ele>594.0</ele><time>2026-04-27T12:28:01.001Z</time></trkpt><trkpt lat="41.938565553938304" lon="1.1839373474565074"><ele>595.0</ele><time>2026-04-27T12:28:02.001Z</time></trkpt><trkpt lat="41.93865222396535" lon="1.1839076413171101"><ele>596.0</ele><time>2026-04-27T12:28:03.001Z</time></trkpt><trkpt lat="41.938737845463784" lon="1.1838825273094"><ele>597.0</ele><time>2026-04-27T12:28:04.001Z</time></trkpt><trkpt lat="41.93882476851232" lon="1.1838526142687735"><ele>598.0</ele><time>2026-04-27T12:28:05.001Z</time></trkpt><trkpt lat="41.9389082500009" lon="1.1838064469456873"><ele>599.0</ele><time>2026-04-27T12:28:06.001Z</time></trkpt><trkpt lat="41.938986187768535" lon="1.1837490808166948"><ele>600.0</ele><time>2026-04-27T12:28:07.001Z</time></trkpt><trkpt lat="41.9390558851578" lon="1.1836740829725687"><ele>600.0</ele><time>2026-04-27T12:28:08.001Z</time></trkpt><trkpt lat="41.93912085532083" lon="1.1835902419502538"><ele>600.0</ele><time>2026-04-27T12:28:09.001Z</time></trkpt><trkpt lat="41.9391857239579" lon="1.183506513489066"><ele>600.0</ele><time>2026-04-27T12:28:10.001Z</time></trkpt><trkpt lat="41.93923988017922" lon="1.1834144122766292"><ele>600.0</ele><time>2026-04-27T12:28:11.002Z</time></trkpt><trkpt lat="41.93929878420609" lon="1.1833234020966448"><ele>600.0</ele><time>2026-04-27T12:28:12.002Z</time></trkpt><trkpt lat="41.939361286986376" lon="1.183237345422345"><ele>600.0</ele><time>2026-04-27T12:28:13.002Z</time></trkpt><trkpt lat="41.939428710922414" lon="1.1831585424823654"><ele>602.6</ele><time>2026-04-27T12:28:14.002Z</time></trkpt><trkpt lat="41.93950828942541" lon="1.1830946781068046"><ele>605.2</ele><time>2026-04-27T12:28:15.002Z</time></trkpt><trkpt lat="41.939592921575695" lon="1.18304744142988"><ele>607.8</ele><time>2026-04-27T12:28:16.002Z</time></trkpt><trkpt lat="41.93968236597508" lon="1.1830141683418027"><ele>610.4</ele><time>2026-04-27T12:28:17.002Z</time></trkpt><trkpt lat="41.93977356907661" lon="1.1829970393762255"><ele>613.0</ele><time>2026-04-27T12:28:18.002Z</time></trkpt><trkpt lat="41.939865972934385" lon="1.183000301181709"><ele>613.0</ele><time>2026-04-27T12:28:19.002Z</time></trkpt><trkpt lat="41.93995351785917" lon="1.1830147042516386"><ele>613.0</ele><time>2026-04-27T12:28:20.002Z</time></trkpt><trkpt lat="41.940038059465344" lon="1.1830383633973198"><ele>613.0</ele><time>2026-04-27T12:28:21.002Z</time></trkpt><trkpt lat="41.94012210572542" lon="1.1830688184656788"><ele>613.0</ele><time>2026-04-27T12:28:22.002Z</time></trkpt><trkpt lat="41.94020674772973" lon="1.183091680499529"><ele>613.0</ele><time>2026-04-27T12:28:23.002Z</time></trkpt><trkpt lat="41.94029126450184" lon="1.1830969070966724"><ele>613.0</ele><time>2026-04-27T12:28:24.002Z</time></trkpt><trkpt lat="41.9403791244506" lon="1.1830909629417286"><ele>612.8333333333334</ele><time>2026-04-27T12:28:25.002Z</time></trkpt><trkpt lat="41.940463687441465" lon="1.1830747232340135"><ele>612.6666666666667</ele><time>2026-04-27T12:28:26.002Z</time></trkpt><trkpt lat="41.94054866652265" lon="1.1830480977963242"><ele>612.5</ele><time>2026-04-27T12:28:27.002Z</time></trkpt><trkpt lat="41.94063007976178" lon="1.1830021026756605"><ele>612.3333333333334</ele><time>2026-04-27T12:28:28.002Z</time></trkpt><trkpt lat="41.940705444079406" lon="1.1829375354611777"><ele>612.1666666666666</ele><time>2026-04-27T12:28:29.002Z</time></trkpt><trkpt lat="41.94077448089139" lon="1.1828554974581678"><ele>612.0</ele><time>2026-04-27T12:28:30.002Z</time></trkpt><trkpt lat="41.94083070564951" lon="1.1827559084870218"><ele>612.0</ele><time>2026-04-27T12:28:31.002Z</time></trkpt><trkpt lat="41.94087942826762" lon="1.182646877196821"><ele>612.0</ele><time>2026-04-27T12:28:32.002Z</time></trkpt><trkpt lat="41.94092090347453" lon="1.1825303579583153"><ele>612.0</ele><time>2026-04-27T12:28:33.002Z</time></trkpt><trkpt lat="41.94096614377775" lon="1.1824102983887401"><ele>612.0</ele><time>2026-04-27T12:28:34.002Z</time></trkpt><trkpt lat="41.941005757259305" lon="1.1822845508753956"><ele>612.0</ele><time>2026-04-27T12:28:35.002Z</time></trkpt><trkpt lat="41.94104570735661" lon="1.1821545117470362"><ele>610.6</ele><time>2026-04-27T12:28:36.002Z</time></trkpt><trkpt lat="41.94109029405308" lon="1.1820282581743933"><ele>609.2</ele><time>2026-04-27T12:28:37.002Z</time></trkpt><trkpt lat="41.94114297776866" lon="1.1819007221236713"><ele>607.8</ele><time>2026-04-27T12:28:38.002Z</time></trkpt><trkpt lat="41.94120166878978" lon="1.1817828105634147"><ele>606.4</ele><time>2026-04-27T12:28:39.002Z</time></trkpt><trkpt lat="41.9412682516121" lon="1.1816685429390557"><ele>605.0</ele><time>2026-04-27T12:28:40.002Z</time></trkpt><trkpt lat="41.941342320880125" lon="1.1815625744464047"><ele>604.6</ele><time>2026-04-27T12:28:41.002Z</time></trkpt><trkpt lat="41.9414226864458" lon="1.1814605777090508"><ele>604.2</ele><time>2026-04-27T12:28:42.002Z</time></trkpt><trkpt lat="41.941501741432376" lon="1.181366019171027"><ele>603.8</ele><time>2026-04-27T12:28:43.002Z</time></trkpt><trkpt lat="41.941584223150535" lon="1.1812716580746037"><ele>603.4</ele><time>2026-04-27T12:28:44.002Z</time></trkpt><trkpt lat="41.94166106707536" lon="1.181169773566389"><ele>603.0</ele><time>2026-04-27T12:28:45.002Z</time></trkpt><trkpt lat="41.94172926099387" lon="1.1810583852897782"><ele>603.0</ele><time>2026-04-27T12:28:46.002Z</time></trkpt><trkpt lat="41.94178542208401" lon="1.1809343113789945"><ele>603.0</ele><time>2026-04-27T12:28:47.002Z</time></trkpt><trkpt lat="41.94182411441027" lon="1.180798358458113"><ele>603.0</ele><time>2026-04-27T12:28:48.002Z</time></trkpt><trkpt lat="41.94185298261236" lon="1.1806571635389556"><ele>603.0</ele><time>2026-04-27T12:28:49.003Z</time></trkpt><trkpt lat="41.94187801676171" lon="1.1805184176889898"><ele>603.0</ele><time>2026-04-27T12:28:50.003Z</time></trkpt><trkpt lat="41.94190411520464" lon="1.180377769274945"><ele>603.8</ele><time>2026-04-27T12:28:51.003Z</time></trkpt><trkpt lat="41.94194437991402" lon="1.180241017384981"><ele>604.5999999999999</ele><time>2026-04-27T12:28:52.003Z</time></trkpt><trkpt lat="41.94201224958934" lon="1.1801254271316681"><ele>605.4000000000001</ele><time>2026-04-27T12:28:53.003Z</time></trkpt><trkpt lat="41.942085409322765" lon="1.1800243812356805"><ele>606.2</ele><time>2026-04-27T12:28:54.003Z</time></trkpt><trkpt lat="41.942158961718626" lon="1.1799212873696876"><ele>607.0</ele><time>2026-04-27T12:28:55.003Z</time></trkpt><trkpt lat="41.942255943074926" lon="1.1798557725044683"><ele>607.8000000000001</ele><time>2026-04-27T12:28:56.003Z</time></trkpt><trkpt lat="41.94235944259911" lon="1.179810442059172"><ele>608.6</ele><time>2026-04-27T12:28:57.003Z</time></trkpt><trkpt lat="41.94246305558296" lon="1.1797874465301927"><ele>609.4000000000001</ele><time>2026-04-27T12:28:58.003Z</time></trkpt><trkpt lat="41.942569612237" lon="1.1797894867980767"><ele>610.2</ele><time>2026-04-27T12:28:59.003Z</time></trkpt><trkpt lat="41.942673891174294" lon="1.179795337376478"><ele>611.0</ele><time>2026-04-27T12:29:00.003Z</time></trkpt><trkpt lat="41.94277559712723" lon="1.1797986936482157"><ele>611.0</ele><time>2026-04-27T12:29:01.003Z</time></trkpt><trkpt lat="41.94287571798904" lon="1.1797789100748886"><ele>611.0</ele><time>2026-04-27T12:29:02.003Z</time></trkpt><trkpt lat="41.94297212538105" lon="1.1797302925736062"><ele>611.0</ele><time>2026-04-27T12:29:03.003Z</time></trkpt><trkpt lat="41.94305786517752" lon="1.1796597730812575"><ele>611.0</ele><time>2026-04-27T12:29:04.003Z</time></trkpt><trkpt lat="41.94314233354259" lon="1.1795793703454172"><ele>611.0</ele><time>2026-04-27T12:29:05.003Z</time></trkpt><trkpt lat="41.9432121756115" lon="1.1794819611863352"><ele>611.0</ele><time>2026-04-27T12:29:06.003Z</time></trkpt><trkpt lat="41.94327467280605" lon="1.1793710404184727"><ele>611.0</ele><time>2026-04-27T12:29:07.003Z</time></trkpt><trkpt lat="41.943323890740544" lon="1.1792514558200615"><ele>611.0</ele><time>2026-04-27T12:29:08.003Z</time></trkpt><trkpt lat="41.94336011678402" lon="1.1791221604826583"><ele>611.0</ele><time>2026-04-27T12:29:09Z</time></trkpt><trkpt lat="41.94337919278089" lon="1.1789885641637086"><ele>611.0</ele><time>2026-04-27T12:29:10Z</time></trkpt><trkpt lat="41.94338363876421" lon="1.1788602835881"><ele>609.2</ele><time>2026-04-27T12:29:11Z</time></trkpt><trkpt lat="41.94339440605469" lon="1.1787212377087122"><ele>607.4000000000001</ele><time>2026-04-27T12:29:12Z</time></trkpt><trkpt lat="41.943405399881414" lon="1.1785896306300199"><ele>605.6</ele><time>2026-04-27T12:29:13Z</time></trkpt><trkpt lat="41.943418391224775" lon="1.1784613042766277"><ele>603.8000000000001</ele><time>2026-04-27T12:29:14Z</time></trkpt><trkpt lat="41.943429071502045" lon="1.1783301600816924"><ele>602.0</ele><time>2026-04-27T12:29:15Z</time></trkpt><trkpt lat="41.943438963162706" lon="1.1782022059454182"><ele>604.2</ele><time>2026-04-27T12:29:16Z</time></trkpt><trkpt lat="41.94344826394208" lon="1.1780762489234144"><ele>606.4000000000001</ele><time>2026-04-27T12:29:17Z</time></trkpt><trkpt lat="41.94346149854806" lon="1.1779548227165957"><ele>608.5999999999999</ele><time>2026-04-27T12:29:18Z</time></trkpt><trkpt lat="41.9434834763244" lon="1.1778351336654358"><ele>610.8</ele><time>2026-04-27T12:29:19Z</time></trkpt><trkpt lat="41.94351187967798" lon="1.177721398162714"><ele>613.0</ele><time>2026-04-27T12:29:20Z</time></trkpt><trkpt lat="41.94354830319193" lon="1.1776136139259523"><ele>613.0</ele><time>2026-04-27T12:29:21Z</time></trkpt><trkpt lat="41.94358726904956" lon="1.177508125847307"><ele>613.0</ele><time>2026-04-27T12:29:22Z</time></trkpt><trkpt lat="41.94362984526983" lon="1.1774034626516645"><ele>613.0</ele><time>2026-04-27T12:29:23Z</time></trkpt><trkpt lat="41.943675283666636" lon="1.177305567041842"><ele>613.0</ele><time>2026-04-27T12:29:24Z</time></trkpt><trkpt lat="41.943727477164884" lon="1.1772067428711188"><ele>613.0</ele><time>2026-04-27T12:29:25Z</time></trkpt><trkpt lat="41.94378436906299" lon="1.1771090342372843"><ele>613.0</ele><time>2026-04-27T12:29:26Z</time></trkpt><trkpt lat="41.94385915553307" lon="1.1770403932175542"><ele>614.1999999999999</ele><time>2026-04-27T12:29:27Z</time></trkpt><trkpt lat="41.943918705315795" lon="1.176937972252608"><ele>615.4</ele><time>2026-04-27T12:29:28Z</time></trkpt><trkpt lat="41.943997273239766" lon="1.1768605125297635"><ele>616.5999999999999</ele><time>2026-04-27T12:29:29Z</time></trkpt><trkpt lat="41.944080535356306" lon="1.1767946680605212"><ele>617.8</ele><time>2026-04-27T12:29:30Z</time></trkpt><trkpt lat="41.944165134509696" lon="1.1767276195863456"><ele>619.0</ele><time>2026-04-27T12:29:31Z</time></trkpt><trkpt lat="41.944248719233855" lon="1.1766657177634932"><ele>619.0</ele><time>2026-04-27T12:29:32Z</time></trkpt><trkpt lat="41.94433241800055" lon="1.1766103167472974"><ele>619.0</ele><time>2026-04-27T12:29:33Z</time></trkpt><trkpt lat="41.944420185819205" lon="1.1765600815597206"><ele>619.0</ele><time>2026-04-27T12:29:34Z</time></trkpt><trkpt lat="41.94450879433654" lon="1.176512540381434"><ele>619.0</ele><time>2026-04-27T12:29:35Z</time></trkpt><trkpt lat="41.944592394130105" lon="1.1764607278533585"><ele>619.0</ele><time>2026-04-27T12:29:36Z</time></trkpt><trkpt lat="41.94467675958182" lon="1.1764078868290972"><ele>619.2</ele><time>2026-04-27T12:29:37Z</time></trkpt><trkpt lat="41.9447604782587" lon="1.1763517714497822"><ele>619.4</ele><time>2026-04-27T12:29:38Z</time></trkpt><trkpt lat="41.94484433838852" lon="1.1763007723959018"><ele>619.6</ele><time>2026-04-27T12:29:39Z</time></trkpt><trkpt lat="41.94492851379458" lon="1.176249181584458"><ele>619.8</ele><time>2026-04-27T12:29:40Z</time></trkpt><trkpt lat="41.94501173148454" lon="1.1761983854353049"><ele>620.0</ele><time>2026-04-27T12:29:41Z</time></trkpt><trkpt lat="41.945098869031476" lon="1.1761504535480007"><ele>620.0</ele><time>2026-04-27T12:29:42Z</time></trkpt><trkpt lat="41.94518929985866" lon="1.1761074879383189"><ele>620.0</ele><time>2026-04-27T12:29:43Z</time></trkpt><trkpt lat="41.945285118089885" lon="1.176066615025809"><ele>620.0</ele><time>2026-04-27T12:29:44Z</time></trkpt><trkpt lat="41.94538619328282" lon="1.17603830924399"><ele>620.0</ele><time>2026-04-27T12:29:45Z</time></trkpt><trkpt lat="41.945488898662106" lon="1.1760174082843524"><ele>620.0</ele><time>2026-04-27T12:29:46.001Z</time></trkpt><trkpt lat="41.94559497890976" lon="1.1760164349153126"><ele>620.0</ele><time>2026-04-27T12:29:47.001Z</time></trkpt><trkpt lat="41.945703733647356" lon="1.176022680642761"><ele>620.0</ele><time>2026-04-27T12:29:48.001Z</time></trkpt><trkpt lat="41.94581272728058" lon="1.1760335571581613"><ele>620.0</ele><time>2026-04-27T12:29:49.001Z</time></trkpt><trkpt lat="41.945921124368326" lon="1.1760427931880308"><ele>620.0</ele><time>2026-04-27T12:29:50.001Z</time></trkpt><trkpt lat="41.94603173147151" lon="1.1760550175586653"><ele>620.0</ele><time>2026-04-27T12:29:51.001Z</time></trkpt><trkpt lat="41.946143802185766" lon="1.1760651357551875"><ele>620.4</ele><time>2026-04-27T12:29:52.001Z</time></trkpt><trkpt lat="41.94625343235963" lon="1.1760729456500048"><ele>620.8</ele><time>2026-04-27T12:29:53.001Z</time></trkpt><trkpt lat="41.946365094800115" lon="1.1760761645946796"><ele>621.2</ele><time>2026-04-27T12:29:54.001Z</time></trkpt><trkpt lat="41.94647512751642" lon="1.1760695180322662"><ele>621.6</ele><time>2026-04-27T12:29:55.001Z</time></trkpt><trkpt lat="41.946584036976724" lon="1.1760516597030026"><ele>622.0</ele><time>2026-04-27T12:29:56.001Z</time></trkpt><trkpt lat="41.94669276244266" lon="1.176024593010915"><ele>622.6</ele><time>2026-04-27T12:29:57.001Z</time></trkpt><trkpt lat="41.94680086456355" lon="1.1759930368001181"><ele>623.2</ele><time>2026-04-27T12:29:58.001Z</time></trkpt><trkpt lat="41.94690471419218" lon="1.1759560894467054"><ele>623.8</ele><time>2026-04-27T12:29:59.001Z</time></trkpt><trkpt lat="41.947009115271264" lon="1.175913710413959"><ele>624.4</ele><time>2026-04-27T12:30:00.001Z</time></trkpt><trkpt lat="41.94711289033512" lon="1.175864468460934"><ele>625.0</ele><time>2026-04-27T12:30:01.001Z</time></trkpt><trkpt lat="41.94721756657377" lon="1.1758162077196048"><ele>625.0</ele><time>2026-04-27T12:30:02.001Z</time></trkpt><trkpt lat="41.94732025538609" lon="1.1757681398728395"><ele>625.0</ele><time>2026-04-27T12:30:03.001Z</time></trkpt><trkpt lat="41.9474221619375" lon="1.175717852883504"><ele>625.0</ele><time>2026-04-27T12:30:04.001Z</time></trkpt><trkpt lat="41.94752284520973" lon="1.1756670204344088"><ele>625.0</ele><time>2026-04-27T12:30:05.001Z</time></trkpt><trkpt lat="41.94762437060054" lon="1.1756199963316611"><ele>625.0</ele><time>2026-04-27T12:30:06.001Z</time></trkpt><trkpt lat="41.94772797411823" lon="1.1755744529885244"><ele>624.4</ele><time>2026-04-27T12:30:07.001Z</time></trkpt><trkpt lat="41.947827540658885" lon="1.1755279461273898"><ele>623.8</ele><time>2026-04-27T12:30:08.001Z</time></trkpt><trkpt lat="41.94792688280099" lon="1.1754806665005721"><ele>623.2</ele><time>2026-04-27T12:30:09.001Z</time></trkpt><trkpt lat="41.948029009185035" lon="1.1754338290247397"><ele>622.6</ele><time>2026-04-27T12:30:10.001Z</time></trkpt><trkpt lat="41.94812805178435" lon="1.1753925897320736"><ele>622.0</ele><time>2026-04-27T12:30:11.001Z</time></trkpt><trkpt lat="41.9482316336887" lon="1.1753625741119171"><ele>622.0</ele><time>2026-04-27T12:30:12.001Z</time></trkpt><trkpt lat="41.94833672381596" lon="1.1753541967621017"><ele>622.0</ele><time>2026-04-27T12:30:13.001Z</time></trkpt><trkpt lat="41.94844283418301" lon="1.1753543967350766"><ele>622.0</ele><time>2026-04-27T12:30:14.001Z</time></trkpt><trkpt lat="41.948546764267675" lon="1.175367609148126"><ele>622.0</ele><time>2026-04-27T12:30:15.001Z</time></trkpt><trkpt lat="41.94864892603342" lon="1.1753778642056498"><ele>622.0</ele><time>2026-04-27T12:30:16.001Z</time></trkpt><trkpt lat="41.94875164681562" lon="1.17539480268832"><ele>622.6</ele><time>2026-04-27T12:30:17.001Z</time></trkpt><trkpt lat="41.948850044734" lon="1.1754139073543264"><ele>623.2</ele><time>2026-04-27T12:30:18.001Z</time></trkpt><trkpt lat="41.94894790118656" lon="1.1754295215238797"><ele>623.8</ele><time>2026-04-27T12:30:19.001Z</time></trkpt><trkpt lat="41.94904836323987" lon="1.1754444192146098"><ele>624.4</ele><time>2026-04-27T12:30:20.001Z</time></trkpt><trkpt lat="41.94914426521137" lon="1.17545601539888"><ele>625.0</ele><time>2026-04-27T12:30:21.001Z</time></trkpt><trkpt lat="41.94924351109046" lon="1.1754655462524195"><ele>625.6</ele><time>2026-04-27T12:30:22.002Z</time></trkpt><trkpt lat="41.949336955058854" lon="1.1754695473061012"><ele>626.2</ele><time>2026-04-27T12:30:23.002Z</time></trkpt><trkpt lat="41.94943114942603" lon="1.1754580328399995"><ele>626.8</ele><time>2026-04-27T12:30:24.002Z</time></trkpt><trkpt lat="41.94952687573775" lon="1.1754370511106762"><ele>627.4</ele><time>2026-04-27T12:30:25.002Z</time></trkpt><trkpt lat="41.949619064452435" lon="1.1754003301896276"><ele>628.0</ele><time>2026-04-27T12:30:26.002Z</time></trkpt><trkpt lat="41.94971260443002" lon="1.175352695456771"><ele>628.0</ele><time>2026-04-27T12:30:27.002Z</time></trkpt><trkpt lat="41.94980015007509" lon="1.175298212893572"><ele>628.0</ele><time>2026-04-27T12:30:28.002Z</time></trkpt><trkpt lat="41.949890688697025" lon="1.1752403150176318"><ele>628.0</ele><time>2026-04-27T12:30:29.002Z</time></trkpt><trkpt lat="41.94997192138347" lon="1.1751780317402485"><ele>628.0</ele><time>2026-04-27T12:30:30.002Z</time></trkpt><trkpt lat="41.95005214051907" lon="1.175109497390875"><ele>628.0</ele><time>2026-04-27T12:30:31.002Z</time></trkpt><trkpt lat="41.9501345338058" lon="1.175043282476473"><ele>629.0</ele><time>2026-04-27T12:30:32.002Z</time></trkpt><trkpt lat="41.950214500259584" lon="1.1749749494950952"><ele>630.0</ele><time>2026-04-27T12:30:33.002Z</time></trkpt><trkpt lat="41.950291772623274" lon="1.174907512864974"><ele>631.0</ele><time>2026-04-27T12:30:34.002Z</time></trkpt><trkpt lat="41.950372078827904" lon="1.1748418478219136"><ele>632.0</ele><time>2026-04-27T12:30:35.002Z</time></trkpt><trkpt lat="41.95046039817426" lon="1.1747902356678126"><ele>633.0</ele><time>2026-04-27T12:30:36.002Z</time></trkpt><trkpt lat="41.95055074154717" lon="1.1747398391885358"><ele>633.0</ele><time>2026-04-27T12:30:37.002Z</time></trkpt><trkpt lat="41.95064092134224" lon="1.174694256128506"><ele>633.0</ele><time>2026-04-27T12:30:38.002Z</time></trkpt><trkpt lat="41.950734797020075" lon="1.1746644024509068"><ele>633.0</ele><time>2026-04-27T12:30:39.002Z</time></trkpt><trkpt lat="41.95083118485403" lon="1.1746435286746957"><ele>633.0</ele><time>2026-04-27T12:30:40.002Z</time></trkpt><trkpt lat="41.95092830364046" lon="1.1746388096275315"><ele>633.0</ele><time>2026-04-27T12:30:41.002Z</time></trkpt><trkpt lat="41.951028217113866" lon="1.1746535628465111"><ele>633.0</ele><time>2026-04-27T12:30:42.002Z</time></trkpt><trkpt lat="41.9511296852398" lon="1.1746794089974173"><ele>633.0</ele><time>2026-04-27T12:30:43.002Z</time></trkpt><trkpt lat="41.9512303596359" lon="1.1747134412352096"><ele>633.0</ele><time>2026-04-27T12:30:44.002Z</time></trkpt><trkpt lat="41.95132899552522" lon="1.174748850361014"><ele>633.0</ele><time>2026-04-27T12:30:45.002Z</time></trkpt><trkpt lat="41.9514281710872" lon="1.1747848305141377"><ele>633.0</ele><time>2026-04-27T12:30:46.002Z</time></trkpt><trkpt lat="41.951528613060304" lon="1.174822055305232"><ele>634.1999999999999</ele><time>2026-04-27T12:30:47.002Z</time></trkpt><trkpt lat="41.951628664458795" lon="1.1748594208434606"><ele>635.4</ele><time>2026-04-27T12:30:48.002Z</time></trkpt><trkpt lat="41.95173164318696" lon="1.1748960123996437"><ele>636.5999999999999</ele><time>2026-04-27T12:30:49.002Z</time></trkpt><trkpt lat="41.951835498920026" lon="1.1749354143464084"><ele>637.8</ele><time>2026-04-27T12:30:50.002Z</time></trkpt><trkpt lat="41.951941802603564" lon="1.174973571759744"><ele>639.0</ele><time>2026-04-27T12:30:51.002Z</time></trkpt><trkpt lat="41.952050806072556" lon="1.1750175830021887"><ele>639.0</ele><time>2026-04-27T12:30:52.002Z</time></trkpt><trkpt lat="41.9521606964444" lon="1.1750600691957032"><ele>639.0</ele><time>2026-04-27T12:30:53.002Z</time></trkpt><trkpt lat="41.95226999489176" lon="1.1750977715359783"><ele>639.0</ele><time>2026-04-27T12:30:54.002Z</time></trkpt><trkpt lat="41.952377292281014" lon="1.1751350401772493"><ele>639.0</ele><time>2026-04-27T12:30:55.002Z</time></trkpt><trkpt lat="41.952485365892386" lon="1.1751725825627812"><ele>638.75</ele><time>2026-04-27T12:30:56.002Z</time></trkpt><trkpt lat="41.95259484725043" lon="1.1752092310564253"><ele>638.5</ele><time>2026-04-27T12:30:57.002Z</time></trkpt><trkpt lat="41.95270412262548" lon="1.1752484373911172"><ele>638.25</ele><time>2026-04-27T12:30:58.002Z</time></trkpt><trkpt lat="41.95281427355243" lon="1.175292180349723"><ele>638.0</ele><time>2026-04-27T12:30:59.003Z</time></trkpt><trkpt lat="41.95292329401304" lon="1.1753309455578378"><ele>638.0</ele><time>2026-04-27T12:31:00.003Z</time></trkpt><trkpt lat="41.953031985198386" lon="1.1753692034973204"><ele>638.0</ele><time>2026-04-27T12:31:01.003Z</time></trkpt><trkpt lat="41.95313827118311" lon="1.1754091005857152"><ele>638.0</ele><time>2026-04-27T12:31:02.003Z</time></trkpt><trkpt lat="41.95324555935971" lon="1.175447885560723"><ele>638.0</ele><time>2026-04-27T12:31:03.003Z</time></trkpt><trkpt lat="41.95335183605882" lon="1.1754842651903326"><ele>638.0</ele><time>2026-04-27T12:31:04.003Z</time></trkpt><trkpt lat="41.95345669835738" lon="1.1755235638944541"><ele>638.0</ele><time>2026-04-27T12:31:05.003Z</time></trkpt><trkpt lat="41.95356345832508" lon="1.175562841691976"><ele>638.0</ele><time>2026-04-27T12:31:06.003Z</time></trkpt><trkpt lat="41.95367069599602" lon="1.1756021691107228"><ele>638.0</ele><time>2026-04-27T12:31:07.003Z</time></trkpt><trkpt lat="41.95377896613333" lon="1.1756392415135606"><ele>638.0</ele><time>2026-04-27T12:31:08.003Z</time></trkpt><trkpt lat="41.95388824005376" lon="1.1756717194924213"><ele>638.0</ele><time>2026-04-27T12:31:09.003Z</time></trkpt><trkpt lat="41.95399996457183" lon="1.1756964495955267"><ele>637.0</ele><time>2026-04-27T12:31:10.003Z</time></trkpt><trkpt lat="41.95411529200643" lon="1.1757103046235113"><ele>636.0</ele><time>2026-04-27T12:31:11.003Z</time></trkpt><trkpt lat="41.95423162249132" lon="1.1757129609761898"><ele>635.0</ele><time>2026-04-27T12:31:12.003Z</time></trkpt><trkpt lat="41.954339587512045" lon="1.1756930917606887"><ele>634.0</ele><time>2026-04-27T12:31:13.003Z</time></trkpt><trkpt lat="41.954447085453324" lon="1.1756625301080046"><ele>634.0</ele><time>2026-04-27T12:31:14.003Z</time></trkpt><trkpt lat="41.95455405648291" lon="1.1756156824624944"><ele>634.0</ele><time>2026-04-27T12:31:15Z</time></trkpt><trkpt lat="41.95465538308153" lon="1.175553645652369"><ele>634.0</ele><time>2026-04-27T12:31:16Z</time></trkpt><trkpt lat="41.95475373085061" lon="1.1754821441187409"><ele>634.0</ele><time>2026-04-27T12:31:17Z</time></trkpt><trkpt lat="41.95484740649896" lon="1.1754002859894233"><ele>634.0</ele><time>2026-04-27T12:31:18Z</time></trkpt><trkpt lat="41.95493526005331" lon="1.1753121358968484"><ele>634.0</ele><time>2026-04-27T12:31:19Z</time></trkpt><trkpt lat="41.955025211523854" lon="1.1752260768870106"><ele>634.0</ele><time>2026-04-27T12:31:20Z</time></trkpt><trkpt lat="41.95511708995865" lon="1.1751356705627491"><ele>634.0</ele><time>2026-04-27T12:31:21Z</time></trkpt><trkpt lat="41.95520668443483" lon="1.1750443724311328"><ele>634.0</ele><time>2026-04-27T12:31:22Z</time></trkpt><trkpt lat="41.95529721904679" lon="1.1749537140265394"><ele>634.2</ele><time>2026-04-27T12:31:23Z</time></trkpt><trkpt lat="41.955387724061765" lon="1.1748622892993303"><ele>634.4</ele><time>2026-04-27T12:31:24Z</time></trkpt><trkpt lat="41.95547598569532" lon="1.1747734237223224"><ele>634.6</ele><time>2026-04-27T12:31:25Z</time></trkpt><trkpt lat="41.95556298832726" lon="1.174684955148656"><ele>634.8</ele><time>2026-04-27T12:31:26Z</time></trkpt><trkpt lat="41.95565252593747" lon="1.1745964949259236"><ele>635.0</ele><time>2026-04-27T12:31:27Z</time></trkpt><trkpt lat="41.95574560653715" lon="1.1745158414251238"><ele>635.0</ele><time>2026-04-27T12:31:28Z</time></trkpt><trkpt lat="41.95585051818975" lon="1.1744669419167406"><ele>635.0</ele><time>2026-04-27T12:31:29Z</time></trkpt><trkpt lat="41.955955085630904" lon="1.1744176356773266"><ele>635.0</ele><time>2026-04-27T12:31:30Z</time></trkpt><trkpt lat="41.95606099318785" lon="1.1743551617518282"><ele>635.0</ele><time>2026-04-27T12:31:31Z</time></trkpt><trkpt lat="41.95617119275346" lon="1.1743292327551367"><ele>635.0</ele><time>2026-04-27T12:31:32Z</time></trkpt><trkpt lat="41.95628554563156" lon="1.1743443375720706"><ele>634.75</ele><time>2026-04-27T12:31:33Z</time></trkpt><trkpt lat="41.956395622632286" lon="1.1743558117179538"><ele>634.5</ele><time>2026-04-27T12:31:34Z</time></trkpt><trkpt lat="41.95650767771667" lon="1.1743830003909277"><ele>634.25</ele><time>2026-04-27T12:31:35Z</time></trkpt><trkpt lat="41.95662013492038" lon="1.1744098448128928"><ele>634.0</ele><time>2026-04-27T12:31:36Z</time></trkpt><trkpt lat="41.956725760664014" lon="1.1744714576414663"><ele>634.0</ele><time>2026-04-27T12:31:37Z</time></trkpt><trkpt lat="41.956827514737995" lon="1.1745413544360248"><ele>634.0</ele><time>2026-04-27T12:31:38Z</time></trkpt><trkpt lat="41.95692061587279" lon="1.1746245183425674"><ele>634.0</ele><time>2026-04-27T12:31:39Z</time></trkpt><trkpt lat="41.95701466483762" lon="1.1747055841235263"><ele>634.0</ele><time>2026-04-27T12:31:40Z</time></trkpt><trkpt lat="41.95710703419605" lon="1.1747891743087175"><ele>634.0</ele><time>2026-04-27T12:31:41Z</time></trkpt><trkpt lat="41.95719911319288" lon="1.1748713606055152"><ele>634.0</ele><time>2026-04-27T12:31:42Z</time></trkpt><trkpt lat="41.957289016525976" lon="1.1749566725432445"><ele>634.0</ele><time>2026-04-27T12:31:43Z</time></trkpt><trkpt lat="41.95737397776242" lon="1.1750392222692139"><ele>634.0</ele><time>2026-04-27T12:31:44Z</time></trkpt><trkpt lat="41.95746200025196" lon="1.17512779511168"><ele>634.0</ele><time>2026-04-27T12:31:45Z</time></trkpt><trkpt lat="41.957541011002625" lon="1.1752094465084084"><ele>634.0</ele><time>2026-04-27T12:31:46Z</time></trkpt><trkpt lat="41.95762323559872" lon="1.175295535556827"><ele>632.8</ele><time>2026-04-27T12:31:47Z</time></trkpt><trkpt lat="41.95770339701362" lon="1.1753871630523804"><ele>631.5999999999999</ele><time>2026-04-27T12:31:48Z</time></trkpt><trkpt lat="41.957788184525455" lon="1.175477333370218"><ele>630.4</ele><time>2026-04-27T12:31:49Z</time></trkpt><trkpt lat="41.957867266295175" lon="1.1755713856409198"><ele>629.1999999999999</ele><time>2026-04-27T12:31:50.001Z</time></trkpt><trkpt lat="41.9579396932836" lon="1.1756721706065163"><ele>628.0</ele><time>2026-04-27T12:31:51.001Z</time></trkpt><trkpt lat="41.9580147559782" lon="1.175768502126777"><ele>628.0</ele><time>2026-04-27T12:31:52.001Z</time></trkpt><trkpt lat="41.95809109686005" lon="1.1758685769428563"><ele>628.0</ele><time>2026-04-27T12:31:53.001Z</time></trkpt><trkpt lat="41.95816845653499" lon="1.175965610548866"><ele>628.0</ele><time>2026-04-27T12:31:54.001Z</time></trkpt><trkpt lat="41.958243520980105" lon="1.1760640674272724"><ele>628.0</ele><time>2026-04-27T12:31:55.001Z</time></trkpt><trkpt lat="41.958316362254095" lon="1.1761641283607107"><ele>628.0</ele><time>2026-04-27T12:31:56.001Z</time></trkpt><trkpt lat="41.95838748672436" lon="1.1762652044902109"><ele>627.8</ele><time>2026-04-27T12:31:57.001Z</time></trkpt><trkpt lat="41.95846070417112" lon="1.176366281851429"><ele>627.5999999999999</ele><time>2026-04-27T12:31:58.001Z</time></trkpt><trkpt lat="41.958538410697486" lon="1.1764678768868801"><ele>627.4000000000001</ele><time>2026-04-27T12:31:59.001Z</time></trkpt><trkpt lat="41.95861186366217" lon="1.176568547762444"><ele>627.2</ele><time>2026-04-27T12:32:00.001Z</time></trkpt><trkpt lat="41.958684686650045" lon="1.1766663962928876"><ele>627.0</ele><time>2026-04-27T12:32:01.001Z</time></trkpt><trkpt lat="41.95875754996022" lon="1.176768116395377"><ele>627.0</ele><time>2026-04-27T12:32:02.001Z</time></trkpt><trkpt lat="41.95883254965435" lon="1.1768670599765512"><ele>627.0</ele><time>2026-04-27T12:32:03.001Z</time></trkpt><trkpt lat="41.958911800354535" lon="1.1769676282712227"><ele>627.0</ele><time>2026-04-27T12:32:04.001Z</time></trkpt><trkpt lat="41.95898612130694" lon="1.1770636748947811"><ele>627.0</ele><time>2026-04-27T12:32:05.001Z</time></trkpt><trkpt lat="41.95906580649447" lon="1.1771567162704792"><ele>627.0</ele><time>2026-04-27T12:32:06.001Z</time></trkpt><trkpt lat="41.95914562911346" lon="1.1772480985344436"><ele>625.0</ele><time>2026-04-27T12:32:07.001Z</time></trkpt><trkpt lat="41.95923478425598" lon="1.1773308224469299"><ele>623.0</ele><time>2026-04-27T12:32:08.001Z</time></trkpt><trkpt lat="41.9593215635168" lon="1.1774089365857523"><ele>621.0</ele><time>2026-04-27T12:32:09.001Z</time></trkpt><trkpt lat="41.959408654149414" lon="1.1774810814970704"><ele>619.0</ele><time>2026-04-27T12:32:10.001Z</time></trkpt><trkpt lat="41.95949642257742" lon="1.177545370613318"><ele>617.0</ele><time>2026-04-27T12:32:11.001Z</time></trkpt><trkpt lat="41.95958577203389" lon="1.1776070055932668"><ele>621.2</ele><time>2026-04-27T12:32:12.001Z</time></trkpt><trkpt lat="41.959672484159036" lon="1.1776595824402571"><ele>625.4000000000001</ele><time>2026-04-27T12:32:13.001Z</time></trkpt><trkpt lat="41.959766505108185" lon="1.1777044914965802"><ele>629.5999999999999</ele><time>2026-04-27T12:32:14.001Z</time></trkpt><trkpt lat="41.95985646906434" lon="1.177739505925856"><ele>633.8</ele><time>2026-04-27T12:32:15.001Z</time></trkpt><trkpt lat="41.959944470180695" lon="1.1777725420439613"><ele>638.0</ele><time>2026-04-27T12:32:16.001Z</time></trkpt><trkpt lat="41.96003791264636" lon="1.177802743463912"><ele>638.1999999999999</ele><time>2026-04-27T12:32:17.001Z</time></trkpt><trkpt lat="41.96012479086218" lon="1.177832530153605"><ele>638.4</ele><time>2026-04-27T12:32:18.001Z</time></trkpt><trkpt lat="41.96021557749986" lon="1.1778521619326494"><ele>638.5999999999999</ele><time>2026-04-27T12:32:19.001Z</time></trkpt><trkpt lat="41.9603137283182" lon="1.1778704595020961"><ele>638.8</ele><time>2026-04-27T12:32:20.001Z</time></trkpt><trkpt lat="41.9604058843437" lon="1.1778841910412323"><ele>639.0</ele><time>2026-04-27T12:32:21.001Z</time></trkpt><trkpt lat="41.96050240217382" lon="1.1778942477094048"><ele>639.0</ele><time>2026-04-27T12:32:22.001Z</time></trkpt><trkpt lat="41.96060157128071" lon="1.177905805939817"><ele>639.0</ele><time>2026-04-27T12:32:23.001Z</time></trkpt><trkpt lat="41.96070508852435" lon="1.1779133343368766"><ele>639.0</ele><time>2026-04-27T12:32:24.001Z</time></trkpt><trkpt lat="41.960808989779395" lon="1.1779228714969083"><ele>639.0</ele><time>2026-04-27T12:32:25.001Z</time></trkpt><trkpt lat="41.96091550863327" lon="1.1779385220191598"><ele>639.0</ele><time>2026-04-27T12:32:26.002Z</time></trkpt><trkpt lat="41.96102567990695" lon="1.1779596222169542"><ele>635.75</ele><time>2026-04-27T12:32:27.002Z</time></trkpt><trkpt lat="41.9611368438194" lon="1.1779843543352966"><ele>632.5</ele><time>2026-04-27T12:32:28.002Z</time></trkpt><trkpt lat="41.9612485591328" lon="1.1779963179632105"><ele>629.25</ele><time>2026-04-27T12:32:29.002Z</time></trkpt><trkpt lat="41.961366882329244" lon="1.1780075441834978"><ele>626.0</ele><time>2026-04-27T12:32:30.002Z</time></trkpt><trkpt lat="41.961479759825586" lon="1.1780212356746105"><ele>626.0</ele><time>2026-04-27T12:32:31.002Z</time></trkpt><trkpt lat="41.96159572354977" lon="1.1780374243917886"><ele>626.0</ele><time>2026-04-27T12:32:32.002Z</time></trkpt><trkpt lat="41.96170937324791" lon="1.1780481997395853"><ele>626.0</ele><time>2026-04-27T12:32:33.002Z</time></trkpt><trkpt lat="41.961821769754955" lon="1.178063839908681"><ele>626.0</ele><time>2026-04-27T12:32:34.002Z</time></trkpt><trkpt lat="41.961933993322674" lon="1.1780820960413318"><ele>627.6</ele><time>2026-04-27T12:32:35.002Z</time></trkpt><trkpt lat="41.9620445497177" lon="1.1781151508426775"><ele>629.2</ele><time>2026-04-27T12:32:36.002Z</time></trkpt><trkpt lat="41.962147139760006" lon="1.17817144347748"><ele>630.8</ele><time>2026-04-27T12:32:37.002Z</time></trkpt><trkpt lat="41.9622431123844" lon="1.1782480920845575"><ele>632.4</ele><time>2026-04-27T12:32:38.002Z</time></trkpt><trkpt lat="41.96232985085882" lon="1.1783440112575843"><ele>634.0</ele><time>2026-04-27T12:32:39.002Z</time></trkpt><trkpt lat="41.962407871258996" lon="1.1784550470128008"><ele>634.0</ele><time>2026-04-27T12:32:40.002Z</time></trkpt><trkpt lat="41.962474488135705" lon="1.1785752029756735"><ele>634.0</ele><time>2026-04-27T12:32:41.002Z</time></trkpt><trkpt lat="41.96253312032629" lon="1.1787001832959974"><ele>634.0</ele><time>2026-04-27T12:32:42.002Z</time></trkpt><trkpt lat="41.96258399551881" lon="1.178831662186249"><ele>634.0</ele><time>2026-04-27T12:32:43.002Z</time></trkpt><trkpt lat="41.962635495679784" lon="1.1789590760438202"><ele>634.0</ele><time>2026-04-27T12:32:44.002Z</time></trkpt><trkpt lat="41.96269854091224" lon="1.1790809516423182"><ele>633.8</ele><time>2026-04-27T12:32:45.002Z</time></trkpt><trkpt lat="41.962772008613015" lon="1.1791876162341053"><ele>633.5999999999999</ele><time>2026-04-27T12:32:46.002Z</time></trkpt><trkpt lat="41.96285972697872" lon="1.1792810793293849"><ele>633.4</ele><time>2026-04-27T12:32:47.002Z</time></trkpt><trkpt lat="41.962957772097184" lon="1.1793573827819097"><ele>633.1999999999999</ele><time>2026-04-27T12:32:48.002Z</time></trkpt><trkpt lat="41.963063075315375" lon="1.1794126266789395"><ele>633.0</ele><time>2026-04-27T12:32:49.002Z</time></trkpt><trkpt lat="41.96317751418767" lon="1.1794425066603644"><ele>633.0</ele><time>2026-04-27T12:32:50.002Z</time></trkpt><trkpt lat="41.96329428146767" lon="1.1794477157023404"><ele>633.0</ele><time>2026-04-27T12:32:51.002Z</time></trkpt><trkpt lat="41.96340845972292" lon="1.1794393513362216"><ele>633.0</ele><time>2026-04-27T12:32:52.002Z</time></trkpt><trkpt lat="41.96352006231323" lon="1.179420781314369"><ele>633.0</ele><time>2026-04-27T12:32:53.002Z</time></trkpt><trkpt lat="41.963630593833486" lon="1.1793960123867082"><ele>632.8</ele><time>2026-04-27T12:32:54.002Z</time></trkpt><trkpt lat="41.963740460147314" lon="1.1793735141941337"><ele>632.5999999999999</ele><time>2026-04-27T12:32:55.002Z</time></trkpt><trkpt lat="41.9638494325307" lon="1.1793546758570639"><ele>632.4000000000001</ele><time>2026-04-27T12:32:56.002Z</time></trkpt><trkpt lat="41.963958852466256" lon="1.1793357670437157"><ele>632.2</ele><time>2026-04-27T12:32:57.002Z</time></trkpt><trkpt lat="41.96406699378285" lon="1.1793160962617977"><ele>632.0</ele><time>2026-04-27T12:32:58.002Z</time></trkpt><trkpt lat="41.96417297597747" lon="1.1792912471977806"><ele>633.2</ele><time>2026-04-27T12:32:59.002Z</time></trkpt><trkpt lat="41.964282583914745" lon="1.1792663551127947"><ele>634.4000000000001</ele><time>2026-04-27T12:33:00.002Z</time></trkpt><trkpt lat="41.964392149270225" lon="1.1792406042171544"><ele>635.5999999999999</ele><time>2026-04-27T12:33:01.002Z</time></trkpt><trkpt lat="41.96450349518742" lon="1.179215310145795"><ele>636.8</ele><time>2026-04-27T12:33:02.003Z</time></trkpt><trkpt lat="41.96461192064821" lon="1.1791923933089614"><ele>638.0</ele><time>2026-04-27T12:33:03.003Z</time></trkpt><trkpt lat="41.964720440342454" lon="1.179169551099971"><ele>638.0</ele><time>2026-04-27T12:33:04.003Z</time></trkpt><trkpt lat="41.96483096729564" lon="1.1791475328809693"><ele>638.0</ele><time>2026-04-27T12:33:05.003Z</time></trkpt><trkpt lat="41.96493967843245" lon="1.1791220155780942"><ele>638.0</ele><time>2026-04-27T12:33:06.003Z</time></trkpt><trkpt lat="41.96504757860677" lon="1.1790973200038424"><ele>638.0</ele><time>2026-04-27T12:33:07.003Z</time></trkpt><trkpt lat="41.96515820146737" lon="1.1790717178776178"><ele>638.0</ele><time>2026-04-27T12:33:08.003Z</time></trkpt><trkpt lat="41.96526787809445" lon="1.179047587988235"><ele>637.75</ele><time>2026-04-27T12:33:09.003Z</time></trkpt><trkpt lat="41.96537780050273" lon="1.179023333765679"><ele>637.5</ele><time>2026-04-27T12:33:10.003Z</time></trkpt><trkpt lat="41.965489242633396" lon="1.1790005525116496"><ele>637.25</ele><time>2026-04-27T12:33:11.003Z</time></trkpt><trkpt lat="41.96560286579132" lon="1.178973193705041"><ele>637.0</ele><time>2026-04-27T12:33:12.003Z</time></trkpt><trkpt lat="41.9657145511058" lon="1.178946290411975"><ele>635.5</ele><time>2026-04-27T12:33:13.003Z</time></trkpt><trkpt lat="41.965826009834394" lon="1.1789088809289647"><ele>634.0</ele><time>2026-04-27T12:33:14.003Z</time></trkpt><trkpt lat="41.96593678610557" lon="1.1788725221658023"><ele>632.5</ele><time>2026-04-27T12:33:15.003Z</time></trkpt><trkpt lat="41.96604922129802" lon="1.178836374256717"><ele>631.0</ele><time>2026-04-27T12:33:16.003Z</time></trkpt><trkpt lat="41.96615870505046" lon="1.1788040632519614"><ele>631.0</ele><time>2026-04-27T12:33:17.003Z</time></trkpt><trkpt lat="41.96626851464755" lon="1.1787660491788405"><ele>631.0</ele><time>2026-04-27T12:33:18.003Z</time></trkpt><trkpt lat="41.966377896860386" lon="1.1787202919128534"><ele>631.0</ele><time>2026-04-27T12:33:19.003Z</time></trkpt><trkpt lat="41.9664849258967" lon="1.1786734202756066"><ele>631.0</ele><time>2026-04-27T12:33:20.003Z</time></trkpt><trkpt lat="41.966592074677955" lon="1.17862515688294"><ele>632.0</ele><time>2026-04-27T12:33:21Z</time></trkpt><trkpt lat="41.96670149562377" lon="1.178577352631057"><ele>633.0</ele><time>2026-04-27T12:33:22Z</time></trkpt><trkpt lat="41.96681033272345" lon="1.1785278298798787"><ele>634.0</ele><time>2026-04-27T12:33:23Z</time></trkpt><trkpt lat="41.96692028930986" lon="1.178475706067897"><ele>635.0</ele><time>2026-04-27T12:33:24Z</time></trkpt><trkpt lat="41.9670289671689" lon="1.178430432857019"><ele>635.0</ele><time>2026-04-27T12:33:25Z</time></trkpt><trkpt lat="41.967139781252136" lon="1.1783904700884396"><ele>635.0</ele><time>2026-04-27T12:33:26Z</time></trkpt><trkpt lat="41.967248794399765" lon="1.1783524645906025"><ele>635.0</ele><time>2026-04-27T12:33:27Z</time></trkpt><trkpt lat="41.96735654843338" lon="1.1783208147868678"><ele>635.0</ele><time>2026-04-27T12:33:28Z</time></trkpt><trkpt lat="41.9674664952872" lon="1.1782983343181215"><ele>635.0</ele><time>2026-04-27T12:33:29Z</time></trkpt><trkpt lat="41.967574605022776" lon="1.1782769270730755"><ele>635.2</ele><time>2026-04-27T12:33:30Z</time></trkpt><trkpt lat="41.96768727182653" lon="1.1782676439720015"><ele>635.4</ele><time>2026-04-27T12:33:31Z</time></trkpt><trkpt lat="41.967796051564065" lon="1.1782684825142113"><ele>635.6</ele><time>2026-04-27T12:33:32Z</time></trkpt><trkpt lat="41.96790313869708" lon="1.178278283547365"><ele>635.8</ele><time>2026-04-27T12:33:33Z</time></trkpt><trkpt lat="41.9680120678961" lon="1.1782944120959564"><ele>636.0</ele><time>2026-04-27T12:33:34Z</time></trkpt><trkpt lat="41.96811814983571" lon="1.1783151128362308"><ele>636.0</ele><time>2026-04-27T12:33:35Z</time></trkpt><trkpt lat="41.968226618024325" lon="1.1783377050443329"><ele>636.0</ele><time>2026-04-27T12:33:36Z</time></trkpt><trkpt lat="41.96833148192585" lon="1.1783553389274306"><ele>636.0</ele><time>2026-04-27T12:33:37Z</time></trkpt><trkpt lat="41.96843808494579" lon="1.178379298083632"><ele>636.0</ele><time>2026-04-27T12:33:38Z</time></trkpt><trkpt lat="41.968541372647636" lon="1.178405733241552"><ele>636.0</ele><time>2026-04-27T12:33:39Z</time></trkpt><trkpt lat="41.968646292154595" lon="1.178430825586215"><ele>636.2</ele><time>2026-04-27T12:33:40Z</time></trkpt><trkpt lat="41.96875311206414" lon="1.1784538850909383"><ele>636.4000000000001</ele><time>2026-04-27T12:33:41Z</time></trkpt><trkpt lat="41.9688601396463" lon="1.1784776577181506"><ele>636.6</ele><time>2026-04-27T12:33:42Z</time></trkpt><trkpt lat="41.96897060462143" lon="1.1785028158765904"><ele>636.8000000000001</ele><time>2026-04-27T12:33:43Z</time></trkpt><trkpt lat="41.96908374037452" lon="1.1785235320508398"><ele>637.0</ele><time>2026-04-27T12:33:44Z</time></trkpt><trkpt lat="41.96919697132107" lon="1.178541358056097"><ele>637.0</ele><time>2026-04-27T12:33:45Z</time></trkpt><trkpt lat="41.969310685047226" lon="1.1785541587771253"><ele>637.0</ele><time>2026-04-27T12:33:46Z</time></trkpt><trkpt lat="41.969424412680944" lon="1.178560213811489"><ele>637.0</ele><time>2026-04-27T12:33:47Z</time></trkpt><trkpt lat="41.96953705106712" lon="1.1785626871645412"><ele>637.0</ele><time>2026-04-27T12:33:48Z</time></trkpt><trkpt lat="41.96965257708985" lon="1.1785603868254038"><ele>637.0</ele><time>2026-04-27T12:33:49Z</time></trkpt><trkpt lat="41.96976713581802" lon="1.17855640223434"><ele>637.0</ele><time>2026-04-27T12:33:50Z</time></trkpt><trkpt lat="41.96988488476782" lon="1.1785453944568012"><ele>637.0</ele><time>2026-04-27T12:33:51Z</time></trkpt><trkpt lat="41.96999974048419" lon="1.1785285403536807"><ele>637.0</ele><time>2026-04-27T12:33:52Z</time></trkpt><trkpt lat="41.97011077959608" lon="1.1785014024353242"><ele>635.25</ele><time>2026-04-27T12:33:53Z</time></trkpt><trkpt lat="41.970229657578685" lon="1.1784808953555506"><ele>633.5</ele><time>2026-04-27T12:33:54Z</time></trkpt><trkpt lat="41.970348626754514" lon="1.1784576889493321"><ele>631.75</ele><time>2026-04-27T12:33:55Z</time></trkpt><trkpt lat="41.97047213947364" lon="1.1784320053885808"><ele>630.0</ele><time>2026-04-27T12:33:56Z</time></trkpt><trkpt lat="41.970587350840944" lon="1.1784063100937834"><ele>630.0</ele><time>2026-04-27T12:33:57Z</time></trkpt><trkpt lat="41.9707026725029" lon="1.1783745554120864"><ele>630.0</ele><time>2026-04-27T12:33:58Z</time></trkpt><trkpt lat="41.97081758465553" lon="1.1783407608545309"><ele>630.0</ele><time>2026-04-27T12:33:59.001Z</time></trkpt><trkpt lat="41.97093141197009" lon="1.1783107370438688"><ele>630.0</ele><time>2026-04-27T12:34:00.001Z</time></trkpt><trkpt lat="41.971047972541136" lon="1.1782745371388592"><ele>629.5</ele><time>2026-04-27T12:34:01.001Z</time></trkpt><trkpt lat="41.971163472736905" lon="1.1782394553461162"><ele>629.0</ele><time>2026-04-27T12:34:02.001Z</time></trkpt><trkpt lat="41.97128049976681" lon="1.1782041264654797"><ele>628.5</ele><time>2026-04-27T12:34:03.001Z</time></trkpt><trkpt lat="41.97139874938327" lon="1.1781683778562393"><ele>628.0</ele><time>2026-04-27T12:34:04.001Z</time></trkpt><trkpt lat="41.97151657642316" lon="1.178129971341435"><ele>628.0</ele><time>2026-04-27T12:34:05.001Z</time></trkpt><trkpt lat="41.97163301771911" lon="1.1780881859034649"><ele>628.0</ele><time>2026-04-27T12:34:06.001Z</time></trkpt><trkpt lat="41.97174938792121" lon="1.1780444618740582"><ele>628.0</ele><time>2026-04-27T12:34:07.001Z</time></trkpt><trkpt lat="41.971863304736175" lon="1.177997381866029"><ele>628.0</ele><time>2026-04-27T12:34:08.001Z</time></trkpt><trkpt lat="41.971977765960474" lon="1.1779513804559432"><ele>626.5</ele><time>2026-04-27T12:34:09.001Z</time></trkpt><trkpt lat="41.972092913676576" lon="1.1779045121574165"><ele>625.0</ele><time>2026-04-27T12:34:10.001Z</time></trkpt><trkpt lat="41.97220639798953" lon="1.1778549308648452"><ele>623.5</ele><time>2026-04-27T12:34:11.001Z</time></trkpt><trkpt lat="41.97232053770589" lon="1.177802993988011"><ele>622.0</ele><time>2026-04-27T12:34:12.001Z</time></trkpt><trkpt lat="41.9724334585613" lon="1.1777523238691372"><ele>619.75</ele><time>2026-04-27T12:34:13.001Z</time></trkpt><trkpt lat="41.97254601825001" lon="1.1777034983558123"><ele>617.5</ele><time>2026-04-27T12:34:14.001Z</time></trkpt><trkpt lat="41.97265691451535" lon="1.1776499078142697"><ele>615.25</ele><time>2026-04-27T12:34:15.001Z</time></trkpt><trkpt lat="41.97276859666219" lon="1.1775989216944656"><ele>613.0</ele><time>2026-04-27T12:34:16.001Z</time></trkpt><trkpt lat="41.97288228450263" lon="1.177544836451996"><ele>613.0</ele><time>2026-04-27T12:34:17.001Z</time></trkpt><trkpt lat="41.972994595866666" lon="1.177491277981251"><ele>613.0</ele><time>2026-04-27T12:34:18.001Z</time></trkpt><trkpt lat="41.973106007357224" lon="1.1774442663756055"><ele>613.0</ele><time>2026-04-27T12:34:19.001Z</time></trkpt><trkpt lat="41.973221247961206" lon="1.1773995492061027"><ele>613.0</ele><time>2026-04-27T12:34:20.001Z</time></trkpt><trkpt lat="41.97333699127346" lon="1.1773565314200602"><ele>615.75</ele><time>2026-04-27T12:34:21.001Z</time></trkpt><trkpt lat="41.97345023201007" lon="1.177328302844683"><ele>618.5</ele><time>2026-04-27T12:34:22.001Z</time></trkpt><trkpt lat="41.9735705440567" lon="1.1773025140564213"><ele>621.25</ele><time>2026-04-27T12:34:23.001Z</time></trkpt><trkpt lat="41.97368639852593" lon="1.177298869382623"><ele>624.0</ele><time>2026-04-27T12:34:24.001Z</time></trkpt><trkpt lat="41.97379525773541" lon="1.1772896170686025"><ele>624.0</ele><time>2026-04-27T12:34:25.001Z</time></trkpt><trkpt lat="41.97390720577847" lon="1.1772946241477458"><ele>624.0</ele><time>2026-04-27T12:34:26.001Z</time></trkpt><trkpt lat="41.97401936569167" lon="1.1773068921542285"><ele>624.0</ele><time>2026-04-27T12:34:27.001Z</time></trkpt><trkpt lat="41.97413196949791" lon="1.177323764783507"><ele>624.0</ele><time>2026-04-27T12:34:28.001Z</time></trkpt><trkpt lat="41.9742422274301" lon="1.1773535772839867"><ele>623.0</ele><time>2026-04-27T12:34:29.001Z</time></trkpt><trkpt lat="41.974352999512945" lon="1.1773897710210905"><ele>622.0</ele><time>2026-04-27T12:34:30.001Z</time></trkpt><trkpt lat="41.97446444267179" lon="1.1774323517310297"><ele>621.0</ele><time>2026-04-27T12:34:31.001Z</time></trkpt><trkpt lat="41.97457308523618" lon="1.177481898371906"><ele>620.0</ele><time>2026-04-27T12:34:32.001Z</time></trkpt><trkpt lat="41.9746783379282" lon="1.1775408741799882"><ele>620.0</ele><time>2026-04-27T12:34:33.002Z</time></trkpt><trkpt lat="41.97479383812934" lon="1.1776000897339811"><ele>620.0</ele><time>2026-04-27T12:34:34.002Z</time></trkpt><trkpt lat="41.974902749089416" lon="1.177673154985947"><ele>620.0</ele><time>2026-04-27T12:34:35.002Z</time></trkpt><trkpt lat="41.97498991959793" lon="1.1777426152353865"><ele>620.0</ele><time>2026-04-27T12:34:36.002Z</time></trkpt><trkpt lat="41.97508849567048" lon="1.177816589420454"><ele>620.5</ele><time>2026-04-27T12:34:37.002Z</time></trkpt><trkpt lat="41.9751900257823" lon="1.177890313299466"><ele>621.0</ele><time>2026-04-27T12:34:38.002Z</time></trkpt><trkpt lat="41.97529216990729" lon="1.177968505230343"><ele>621.5</ele><time>2026-04-27T12:34:39.002Z</time></trkpt><trkpt lat="41.97539399851324" lon="1.1780447512840626"><ele>622.0</ele><time>2026-04-27T12:34:40.002Z</time></trkpt><trkpt lat="41.975492769034055" lon="1.178120874579846"><ele>619.75</ele><time>2026-04-27T12:34:41.002Z</time></trkpt><trkpt lat="41.97559416688206" lon="1.1781981024115709"><ele>617.5</ele><time>2026-04-27T12:34:42.002Z</time></trkpt><trkpt lat="41.97569673824866" lon="1.1782651370609978"><ele>615.25</ele><time>2026-04-27T12:34:43.002Z</time></trkpt><trkpt lat="41.975807132880895" lon="1.1783338504723966"><ele>613.0</ele><time>2026-04-27T12:34:44.002Z</time></trkpt><trkpt lat="41.97591871544097" lon="1.1783990002494729"><ele>613.0</ele><time>2026-04-27T12:34:45.002Z</time></trkpt><trkpt lat="41.9760321006388" lon="1.1784555597279995"><ele>613.0</ele><time>2026-04-27T12:34:46.002Z</time></trkpt><trkpt lat="41.976147891652964" lon="1.1785144829673175"><ele>613.0</ele><time>2026-04-27T12:34:47.002Z</time></trkpt><trkpt lat="41.97626417406088" lon="1.1785680585688711"><ele>613.0</ele><time>2026-04-27T12:34:48.002Z</time></trkpt><trkpt lat="41.976376745930054" lon="1.178613382450129"><ele>613.0</ele><time>2026-04-27T12:34:49.002Z</time></trkpt><trkpt lat="41.97648712042028" lon="1.1786560889589843"><ele>613.0</ele><time>2026-04-27T12:34:50.002Z</time></trkpt><trkpt lat="41.97659431979848" lon="1.178692703653916"><ele>613.0</ele><time>2026-04-27T12:34:51.002Z</time></trkpt><trkpt lat="41.976703954835386" lon="1.1787230495141738"><ele>613.0</ele><time>2026-04-27T12:34:52.002Z</time></trkpt><trkpt lat="41.976814406349554" lon="1.1787466670966846"><ele>613.0</ele><time>2026-04-27T12:34:53.002Z</time></trkpt><trkpt lat="41.97692785481983" lon="1.1787544195518795"><ele>612.0</ele><time>2026-04-27T12:34:54.002Z</time></trkpt><trkpt lat="41.97704053376066" lon="1.1787391414577748"><ele>611.0</ele><time>2026-04-27T12:34:55.002Z</time></trkpt><trkpt lat="41.97714924859678" lon="1.1786951046887277"><ele>610.0</ele><time>2026-04-27T12:34:56.002Z</time></trkpt><trkpt lat="41.97725372294354" lon="1.1786300932482638"><ele>609.0</ele><time>2026-04-27T12:34:57.002Z</time></trkpt><trkpt lat="41.97735108340036" lon="1.1785462695329245"><ele>609.0</ele><time>2026-04-27T12:34:58.002Z</time></trkpt><trkpt lat="41.97743918386471" lon="1.1784303693227123"><ele>609.0</ele><time>2026-04-27T12:34:59.002Z</time></trkpt><trkpt lat="41.97752151103984" lon="1.1783195713067265"><ele>609.0</ele><time>2026-04-27T12:35:00.002Z</time></trkpt><trkpt lat="41.97757870794003" lon="1.1781950042423897"><ele>609.0</ele><time>2026-04-27T12:35:01.002Z</time></trkpt><trkpt lat="41.97765551797172" lon="1.1780794077423853"><ele>606.75</ele><time>2026-04-27T12:35:02.002Z</time></trkpt><trkpt lat="41.97772860284406" lon="1.1779683841675073"><ele>604.5</ele><time>2026-04-27T12:35:03.002Z</time></trkpt><trkpt lat="41.97780037662885" lon="1.1778393793116377"><ele>602.25</ele><time>2026-04-27T12:35:04.002Z</time></trkpt><trkpt lat="41.97789551233149" lon="1.1777468064273218"><ele>600.0</ele><time>2026-04-27T12:35:05.002Z</time></trkpt><trkpt lat="41.97799714728991" lon="1.1776723747660829"><ele>600.0</ele><time>2026-04-27T12:35:06.002Z</time></trkpt><trkpt lat="41.97811122374879" lon="1.1776199261291158"><ele>600.0</ele><time>2026-04-27T12:35:07.002Z</time></trkpt><trkpt lat="41.978226061395326" lon="1.1775914558315956"><ele>600.0</ele><time>2026-04-27T12:35:08.003Z</time></trkpt><trkpt lat="41.97834673271351" lon="1.17757222143721"><ele>600.0</ele><time>2026-04-27T12:35:09.003Z</time></trkpt><trkpt lat="41.978454426317555" lon="1.1775676263483208"><ele>598.75</ele><time>2026-04-27T12:35:10.003Z</time></trkpt><trkpt lat="41.978564043167964" lon="1.177559859186057"><ele>597.5</ele><time>2026-04-27T12:35:11.003Z</time></trkpt><trkpt lat="41.97868591604594" lon="1.1775580500308929"><ele>596.25</ele><time>2026-04-27T12:35:12.003Z</time></trkpt><trkpt lat="41.9787632175279" lon="1.1775754389216821"><ele>595.0</ele><time>2026-04-27T12:35:13.003Z</time></trkpt><trkpt lat="41.978926714912575" lon="1.177605948105046"><ele>595.0</ele><time>2026-04-27T12:35:14.003Z</time></trkpt><trkpt lat="41.97905917418244" lon="1.177635093311848"><ele>595.0</ele><time>2026-04-27T12:35:15.003Z</time></trkpt><trkpt lat="41.979177716368504" lon="1.1776830185451947"><ele>595.0</ele><time>2026-04-27T12:35:16.003Z</time></trkpt><trkpt lat="41.97929357173205" lon="1.1777341147881872"><ele>595.0</ele><time>2026-04-27T12:35:17.003Z</time></trkpt><trkpt lat="41.97940375638118" lon="1.1777949248633475"><ele>593.0</ele><time>2026-04-27T12:35:18.003Z</time></trkpt><trkpt lat="41.97951427869345" lon="1.177860976739856"><ele>591.0</ele><time>2026-04-27T12:35:19.003Z</time></trkpt><trkpt lat="41.97962404124876" lon="1.1779315480327424"><ele>589.0</ele><time>2026-04-27T12:35:20.003Z</time></trkpt><trkpt lat="41.9797360021062" lon="1.1780039658620036"><ele>587.0</ele><time>2026-04-27T12:35:21.003Z</time></trkpt><trkpt lat="41.97984605110974" lon="1.1780733875522413"><ele>587.0</ele><time>2026-04-27T12:35:22.003Z</time></trkpt><trkpt lat="41.9799547591048" lon="1.1781425068884708"><ele>587.0</ele><time>2026-04-27T12:35:23.003Z</time></trkpt><trkpt lat="41.98006330113608" lon="1.1782107706644755"><ele>587.0</ele><time>2026-04-27T12:35:24.003Z</time></trkpt><trkpt lat="41.980171243520516" lon="1.1782794522880482"><ele>587.0</ele><time>2026-04-27T12:35:25.003Z</time></trkpt><trkpt lat="41.98027938248573" lon="1.1783484091156635"><ele>586.0</ele><time>2026-04-27T12:35:26.003Z</time></trkpt><trkpt lat="41.98038931066519" lon="1.178417023918961"><ele>585.0</ele><time>2026-04-27T12:35:27Z</time></trkpt><trkpt lat="41.980497313715176" lon="1.1784877588449947"><ele>584.0</ele><time>2026-04-27T12:35:28Z</time></trkpt><trkpt lat="41.980603865251084" lon="1.1785554651511432"><ele>583.0</ele><time>2026-04-27T12:35:29Z</time></trkpt><trkpt lat="41.98071042624825" lon="1.1786266810705939"><ele>583.0</ele><time>2026-04-27T12:35:30Z</time></trkpt><trkpt lat="41.980818077188495" lon="1.178695064017418"><ele>583.0</ele><time>2026-04-27T12:35:31Z</time></trkpt><trkpt lat="41.98092487080299" lon="1.1787635349845407"><ele>583.0</ele><time>2026-04-27T12:35:32Z</time></trkpt><trkpt lat="41.981032137612026" lon="1.1788292269189753"><ele>583.0</ele><time>2026-04-27T12:35:33Z</time></trkpt><trkpt lat="41.98114152232763" lon="1.1788993896647042"><ele>583.75</ele><time>2026-04-27T12:35:34Z</time></trkpt><trkpt lat="41.98125133873769" lon="1.1789649684181474"><ele>584.5</ele><time>2026-04-27T12:35:35Z</time></trkpt><trkpt lat="41.98135823004819" lon="1.1790317502142535"><ele>585.25</ele><time>2026-04-27T12:35:36Z</time></trkpt><trkpt lat="41.9814659866136" lon="1.1790996899010568"><ele>586.0</ele><time>2026-04-27T12:35:37Z</time></trkpt><trkpt lat="41.981568498671" lon="1.179163009025129"><ele>586.0</ele><time>2026-04-27T12:35:38Z</time></trkpt><trkpt lat="41.98167670680277" lon="1.1792407293565692"><ele>586.0</ele><time>2026-04-27T12:35:39Z</time></trkpt><trkpt lat="41.981782855743646" lon="1.1793064214136002"><ele>586.0</ele><time>2026-04-27T12:35:40Z</time></trkpt><trkpt lat="41.981889927984824" lon="1.179374218786157"><ele>586.0</ele><time>2026-04-27T12:35:41Z</time></trkpt><trkpt lat="41.98199630072109" lon="1.1794403994655955"><ele>583.25</ele><time>2026-04-27T12:35:42Z</time></trkpt><trkpt lat="41.98210316810971" lon="1.1795090923036258"><ele>580.5</ele><time>2026-04-27T12:35:43Z</time></trkpt><trkpt lat="41.98220993205575" lon="1.1795767735666591"><ele>577.75</ele><time>2026-04-27T12:35:44Z</time></trkpt><trkpt lat="41.982311085069625" lon="1.1796378918840218"><ele>575.0</ele><time>2026-04-27T12:35:45Z</time></trkpt><trkpt lat="41.982420224203516" lon="1.179710652996078"><ele>575.0</ele><time>2026-04-27T12:35:46Z</time></trkpt><trkpt lat="41.982526394653824" lon="1.179780049254933"><ele>575.0</ele><time>2026-04-27T12:35:47Z</time></trkpt><trkpt lat="41.9826313095407" lon="1.1798440249408115"><ele>575.0</ele><time>2026-04-27T12:35:48Z</time></trkpt><trkpt lat="41.98273084599885" lon="1.1799058823147166"><ele>575.0</ele><time>2026-04-27T12:35:49Z</time></trkpt><trkpt lat="41.98283233675841" lon="1.1799666378884028"><ele>576.75</ele><time>2026-04-27T12:35:50Z</time></trkpt><trkpt lat="41.98293108792035" lon="1.1800350961360542"><ele>578.5</ele><time>2026-04-27T12:35:51Z</time></trkpt><trkpt lat="41.98303108288281" lon="1.1801043668408495"><ele>580.25</ele><time>2026-04-27T12:35:52Z</time></trkpt><trkpt lat="41.98312776328077" lon="1.1801847751053145"><ele>582.0</ele><time>2026-04-27T12:35:53Z</time></trkpt><trkpt lat="41.983221083045365" lon="1.180275353534176"><ele>582.0</ele><time>2026-04-27T12:35:54Z</time></trkpt><trkpt lat="41.98330398561707" lon="1.1803755910597262"><ele>582.0</ele><time>2026-04-27T12:35:55Z</time></trkpt><trkpt lat="41.98338276808439" lon="1.1804900458688812"><ele>582.0</ele><time>2026-04-27T12:35:56Z</time></trkpt><trkpt lat="41.9834535087623" lon="1.180615474629525"><ele>582.0</ele><time>2026-04-27T12:35:57Z</time></trkpt><trkpt lat="41.983523493744514" lon="1.1807431820098535"><ele>582.5</ele><time>2026-04-27T12:35:58Z</time></trkpt><trkpt lat="41.98357986287757" lon="1.1808748499575106"><ele>583.0</ele><time>2026-04-27T12:35:59Z</time></trkpt><trkpt lat="41.983640044085256" lon="1.1810124742324655"><ele>583.5</ele><time>2026-04-27T12:36:00Z</time></trkpt><trkpt lat="41.98369134301033" lon="1.1811441948793688"><ele>584.0</ele><time>2026-04-27T12:36:01Z</time></trkpt><trkpt lat="41.983760037163506" lon="1.181265482171854"><ele>584.0</ele><time>2026-04-27T12:36:02Z</time></trkpt><trkpt lat="41.98383666027246" lon="1.1813821166437786"><ele>584.0</ele><time>2026-04-27T12:36:03Z</time></trkpt><trkpt lat="41.98392142385613" lon="1.1814900329250595"><ele>584.0</ele><time>2026-04-27T12:36:04.001Z</time></trkpt><trkpt lat="41.98400621749275" lon="1.181599410276363"><ele>584.0</ele><time>2026-04-27T12:36:05.001Z</time></trkpt><trkpt lat="41.984101566458364" lon="1.1816754363141249"><ele>585.75</ele><time>2026-04-27T12:36:06.001Z</time></trkpt><trkpt lat="41.98420963147885" lon="1.1817414251568807"><ele>587.5</ele><time>2026-04-27T12:36:07.001Z</time></trkpt><trkpt lat="41.98432313033936" lon="1.181815614524559"><ele>589.25</ele><time>2026-04-27T12:36:08.001Z</time></trkpt><trkpt lat="41.984467179663575" lon="1.181886522212563"><ele>591.0</ele><time>2026-04-27T12:36:09.001Z</time></trkpt><trkpt lat="41.98463285809792" lon="1.1819287890060486"><ele>591.0</ele><time>2026-04-27T12:36:10.001Z</time></trkpt><trkpt lat="41.984801254560374" lon="1.1819179568154041"><ele>591.0</ele><time>2026-04-27T12:36:11.001Z</time></trkpt><trkpt lat="41.98487074189445" lon="1.1818762892951844"><ele>591.0</ele><time>2026-04-27T12:36:13.001Z</time></trkpt><trkpt lat="41.98497980532579" lon="1.181837101839578"><ele>591.0</ele><time>2026-04-27T12:36:14.001Z</time></trkpt><trkpt lat="41.98508326023693" lon="1.1817810747598214"><ele>590.6</ele><time>2026-04-27T12:36:15.001Z</time></trkpt><trkpt lat="41.98518098335127" lon="1.1817173714707019"><ele>590.2</ele><time>2026-04-27T12:36:16.001Z</time></trkpt><trkpt lat="41.98527672057733" lon="1.1816423397786886"><ele>589.8</ele><time>2026-04-27T12:36:17.001Z</time></trkpt><trkpt lat="41.98536366550425" lon="1.1815579473399078"><ele>589.4</ele><time>2026-04-27T12:36:18.001Z</time></trkpt><trkpt lat="41.98545359560856" lon="1.1814735557651213"><ele>589.0</ele><time>2026-04-27T12:36:19.001Z</time></trkpt><trkpt lat="41.98554274056305" lon="1.1813864268782865"><ele>589.0</ele><time>2026-04-27T12:36:20.001Z</time></trkpt><trkpt lat="41.98562982840032" lon="1.1813038951107768"><ele>589.0</ele><time>2026-04-27T12:36:21.001Z</time></trkpt><trkpt lat="41.98572231619085" lon="1.1812211593488173"><ele>589.0</ele><time>2026-04-27T12:36:22.001Z</time></trkpt><trkpt lat="41.98580962018076" lon="1.181141420763055"><ele>589.0</ele><time>2026-04-27T12:36:23.001Z</time></trkpt><trkpt lat="41.98590689040276" lon="1.1810744002733522"><ele>589.0</ele><time>2026-04-27T12:36:24.001Z</time></trkpt><trkpt lat="41.98600956665823" lon="1.1810176624822073"><ele>589.4</ele><time>2026-04-27T12:36:25.001Z</time></trkpt><trkpt lat="41.98612164912132" lon="1.1810034019369338"><ele>589.8</ele><time>2026-04-27T12:36:26.001Z</time></trkpt><trkpt lat="41.9862312625837" lon="1.1809782258542834"><ele>590.2</ele><time>2026-04-27T12:36:27.001Z</time></trkpt><trkpt lat="41.98634127447285" lon="1.1809732933583292"><ele>590.6</ele><time>2026-04-27T12:36:28.001Z</time></trkpt><trkpt lat="41.9864559694648" lon="1.1809588837898874"><ele>591.0</ele><time>2026-04-27T12:36:29.001Z</time></trkpt><trkpt lat="41.98656957124533" lon="1.18096547680619"><ele>592.0</ele><time>2026-04-27T12:36:30.001Z</time></trkpt><trkpt lat="41.98668041125535" lon="1.1809703840828987"><ele>593.0</ele><time>2026-04-27T12:36:31.001Z</time></trkpt><trkpt lat="41.98679228901623" lon="1.1809755172465868"><ele>594.0</ele><time>2026-04-27T12:36:32.001Z</time></trkpt><trkpt lat="41.98690524640018" lon="1.1809803833408439"><ele>595.0</ele><time>2026-04-27T12:36:33.001Z</time></trkpt><trkpt lat="41.98701874956972" lon="1.1809868034669062"><ele>596.0</ele><time>2026-04-27T12:36:34.001Z</time></trkpt><trkpt lat="41.98712382610078" lon="1.1809920988266756"><ele>596.0</ele><time>2026-04-27T12:36:35.001Z</time></trkpt><trkpt lat="41.98722632780572" lon="1.1809999811657805"><ele>596.0</ele><time>2026-04-27T12:36:36.002Z</time></trkpt><trkpt lat="41.98732900499823" lon="1.181007430857352"><ele>596.0</ele><time>2026-04-27T12:36:37.002Z</time></trkpt><trkpt lat="41.9874306361146" lon="1.1810086812761733"><ele>596.0</ele><time>2026-04-27T12:36:38.002Z</time></trkpt><trkpt lat="41.987530684622726" lon="1.1810117680590178"><ele>596.0</ele><time>2026-04-27T12:36:39.002Z</time></trkpt><trkpt lat="41.98762993133602" lon="1.1810136842764414"><ele>597.6</ele><time>2026-04-27T12:36:40.002Z</time></trkpt><trkpt lat="41.98772925934893" lon="1.1810168162681387"><ele>599.2</ele><time>2026-04-27T12:36:41.002Z</time></trkpt><trkpt lat="41.98782648103093" lon="1.1810151147954575"><ele>600.8</ele><time>2026-04-27T12:36:42.002Z</time></trkpt><trkpt lat="41.987923868108155" lon="1.181019491697975"><ele>602.4</ele><time>2026-04-27T12:36:43.002Z</time></trkpt><trkpt lat="41.98802132907746" lon="1.1810294007914193"><ele>604.0</ele><time>2026-04-27T12:36:44.002Z</time></trkpt><trkpt lat="41.9881186638627" lon="1.1810328896504145"><ele>604.0</ele><time>2026-04-27T12:36:45.002Z</time></trkpt><trkpt lat="41.9882151398958" lon="1.1810339211205336"><ele>604.0</ele><time>2026-04-27T12:36:46.002Z</time></trkpt><trkpt lat="41.98831023192197" lon="1.1810372068050077"><ele>604.0</ele><time>2026-04-27T12:36:47.002Z</time></trkpt><trkpt lat="41.988406031389786" lon="1.1810388764223334"><ele>604.0</ele><time>2026-04-27T12:36:48.002Z</time></trkpt><trkpt lat="41.988501145851956" lon="1.1810370267040962"><ele>604.0</ele><time>2026-04-27T12:36:49.002Z</time></trkpt><trkpt lat="41.98859716917634" lon="1.1810324550009785"><ele>605.2</ele><time>2026-04-27T12:36:50.002Z</time></trkpt><trkpt lat="41.98869441204944" lon="1.181024218759012"><ele>606.4</ele><time>2026-04-27T12:36:51.002Z</time></trkpt><trkpt lat="41.988787325765884" lon="1.1810164276618715"><ele>607.6</ele><time>2026-04-27T12:36:52.002Z</time></trkpt><trkpt lat="41.98888211517655" lon="1.1810080913260796"><ele>608.8</ele><time>2026-04-27T12:36:53.002Z</time></trkpt><trkpt lat="41.98897720827338" lon="1.1809975319361294"><ele>610.0</ele><time>2026-04-27T12:36:54.002Z</time></trkpt><trkpt lat="41.98907240389695" lon="1.1809825929458322"><ele>610.0</ele><time>2026-04-27T12:36:55.002Z</time></trkpt><trkpt lat="41.98916845469972" lon="1.1809573346755622"><ele>610.0</ele><time>2026-04-27T12:36:56.002Z</time></trkpt><trkpt lat="41.98925887918889" lon="1.1809345779246387"><ele>610.0</ele><time>2026-04-27T12:36:57.002Z</time></trkpt><trkpt lat="41.989356364984864" lon="1.1809053462830663"><ele>610.0</ele><time>2026-04-27T12:36:58.002Z</time></trkpt><trkpt lat="41.98944873029542" lon="1.180875920649981"><ele>610.0</ele><time>2026-04-27T12:36:59.002Z</time></trkpt><trkpt lat="41.98954511243065" lon="1.180844836651037"><ele>610.6</ele><time>2026-04-27T12:37:00.002Z</time></trkpt><trkpt lat="41.98964176005132" lon="1.1808079728724385"><ele>611.2</ele><time>2026-04-27T12:37:01.002Z</time></trkpt><trkpt lat="41.98974118688491" lon="1.1807733264938134"><ele>611.8</ele><time>2026-04-27T12:37:02.002Z</time></trkpt><trkpt lat="41.989836924939524" lon="1.1807273616006426"><ele>612.4</ele><time>2026-04-27T12:37:03.002Z</time></trkpt><trkpt lat="41.98993596675761" lon="1.1806809331750177"><ele>613.0</ele><time>2026-04-27T12:37:04.002Z</time></trkpt><trkpt lat="41.9900351185607" lon="1.1806356712667552"><ele>614.4</ele><time>2026-04-27T12:37:05.002Z</time></trkpt><trkpt lat="41.99013624567518" lon="1.1805786913704353"><ele>615.8</ele><time>2026-04-27T12:37:06.002Z</time></trkpt><trkpt lat="41.99024050257711" lon="1.1805200440493502"><ele>617.2</ele><time>2026-04-27T12:37:07.002Z</time></trkpt><trkpt lat="41.99034201426099" lon="1.180469901369214"><ele>618.6</ele><time>2026-04-27T12:37:08.002Z</time></trkpt><trkpt lat="41.990442201595684" lon="1.180421108574444"><ele>620.0</ele><time>2026-04-27T12:37:09.002Z</time></trkpt><trkpt lat="41.99054225026806" lon="1.180366522726987"><ele>620.0</ele><time>2026-04-27T12:37:10.003Z</time></trkpt><trkpt lat="41.99064485574022" lon="1.1803159016871032"><ele>620.0</ele><time>2026-04-27T12:37:11.003Z</time></trkpt><trkpt lat="41.99075042660846" lon="1.1802804959736095"><ele>620.0</ele><time>2026-04-27T12:37:12.003Z</time></trkpt><trkpt lat="41.99085949098634" lon="1.180244096861002"><ele>620.0</ele><time>2026-04-27T12:37:13.003Z</time></trkpt><trkpt lat="41.990970331633946" lon="1.1802263611345731"><ele>620.0</ele><time>2026-04-27T12:37:14.003Z</time></trkpt><trkpt lat="41.991077125966726" lon="1.1802267462043246"><ele>619.8</ele><time>2026-04-27T12:37:15.003Z</time></trkpt><trkpt lat="41.991185512525384" lon="1.1802339800094719"><ele>619.6</ele><time>2026-04-27T12:37:16.003Z</time></trkpt><trkpt lat="41.991290846924635" lon="1.1802562509908283"><ele>619.4</ele><time>2026-04-27T12:37:17.003Z</time></trkpt><trkpt lat="41.991395512891195" lon="1.1802787360062548"><ele>619.2</ele><time>2026-04-27T12:37:18.003Z</time></trkpt><trkpt lat="41.991504006685474" lon="1.1802986836250295"><ele>619.0</ele><time>2026-04-27T12:37:19.003Z</time></trkpt><trkpt lat="41.99161373539957" lon="1.180323160028292"><ele>616.6</ele><time>2026-04-27T12:37:20.003Z</time></trkpt><trkpt lat="41.9917226095014" lon="1.1803422674072401"><ele>614.2</ele><time>2026-04-27T12:37:21.003Z</time></trkpt><trkpt lat="41.99182860061034" lon="1.1803580711425126"><ele>611.8000000000001</ele><time>2026-04-27T12:37:22.003Z</time></trkpt><trkpt lat="41.9919373713521" lon="1.1803666098830599"><ele>609.4</ele><time>2026-04-27T12:37:23.003Z</time></trkpt><trkpt lat="41.99204682733965" lon="1.1803610787126864"><ele>607.0</ele><time>2026-04-27T12:37:24.003Z</time></trkpt><trkpt lat="41.992155186601885" lon="1.1803473706853578"><ele>607.0</ele><time>2026-04-27T12:37:25.003Z</time></trkpt><trkpt lat="41.99226652272378" lon="1.1803308611750962"><ele>607.0</ele><time>2026-04-27T12:37:26.003Z</time></trkpt><trkpt lat="41.99237335379854" lon="1.1803068257173817"><ele>607.0</ele><time>2026-04-27T12:37:27.003Z</time></trkpt><trkpt lat="41.9924817290766" lon="1.1802802231952316"><ele>607.0</ele><time>2026-04-27T12:37:28.003Z</time></trkpt><trkpt lat="41.99259167630553" lon="1.1802546091096544"><ele>607.0</ele><time>2026-04-27T12:37:29.003Z</time></trkpt><trkpt lat="41.99269988052662" lon="1.1802250257815"><ele>605.6</ele><time>2026-04-27T12:37:30.003Z</time></trkpt><trkpt lat="41.99280846450883" lon="1.1802040002725451"><ele>604.2</ele><time>2026-04-27T12:37:31.003Z</time></trkpt><trkpt lat="41.99291657974149" lon="1.1801913132677355"><ele>602.8</ele><time>2026-04-27T12:37:32.003Z</time></trkpt><trkpt lat="41.99302164887239" lon="1.1801877769164655"><ele>601.4</ele><time>2026-04-27T12:37:33Z</time></trkpt><trkpt lat="41.99313039729763" lon="1.1801996665128984"><ele>600.0</ele><time>2026-04-27T12:37:34Z</time></trkpt><trkpt lat="41.99323762251175" lon="1.1802230325497476"><ele>599.0</ele><time>2026-04-27T12:37:35Z</time></trkpt><trkpt lat="41.99333993868186" lon="1.1802567930112449"><ele>598.0</ele><time>2026-04-27T12:37:36Z</time></trkpt><trkpt lat="41.99344679095303" lon="1.1802976112016461"><ele>597.0</ele><time>2026-04-27T12:37:37Z</time></trkpt><trkpt lat="41.9935495422179" lon="1.1803409023416653"><ele>596.0</ele><time>2026-04-27T12:37:38Z</time></trkpt><trkpt lat="41.99365369274424" lon="1.180390181423244"><ele>595.0</ele><time>2026-04-27T12:37:39Z</time></trkpt><trkpt lat="41.99375599235372" lon="1.1804382929880186"><ele>595.0</ele><time>2026-04-27T12:37:40Z</time></trkpt><trkpt lat="41.993855730195754" lon="1.180490863785981"><ele>595.0</ele><time>2026-04-27T12:37:41Z</time></trkpt><trkpt lat="41.9939574114282" lon="1.1805417112684247"><ele>595.0</ele><time>2026-04-27T12:37:42Z</time></trkpt><trkpt lat="41.99405925541315" lon="1.1805931217791177"><ele>595.0</ele><time>2026-04-27T12:37:43Z</time></trkpt><trkpt lat="41.99415877151306" lon="1.1806487222797561"><ele>595.0</ele><time>2026-04-27T12:37:44Z</time></trkpt><trkpt lat="41.99425765010196" lon="1.1807147357112149"><ele>596.8</ele><time>2026-04-27T12:37:45Z</time></trkpt><trkpt lat="41.994353600110095" lon="1.180785636439508"><ele>598.6</ele><time>2026-04-27T12:37:46Z</time></trkpt><trkpt lat="41.994448858112165" lon="1.1808583635450036"><ele>600.4</ele><time>2026-04-27T12:37:47Z</time></trkpt><trkpt lat="41.99454591951506" lon="1.18093196603741"><ele>602.2</ele><time>2026-04-27T12:37:48Z</time></trkpt><trkpt lat="41.994643231300245" lon="1.1810032590051998"><ele>604.0</ele><time>2026-04-27T12:37:49Z</time></trkpt><trkpt lat="41.994740355270956" lon="1.1810791079168343"><ele>604.0</ele><time>2026-04-27T12:37:50Z</time></trkpt><trkpt lat="41.994835815653765" lon="1.1811586749067557"><ele>604.0</ele><time>2026-04-27T12:37:51Z</time></trkpt><trkpt lat="41.994925516881295" lon="1.1812398779478277"><ele>604.0</ele><time>2026-04-27T12:37:52Z</time></trkpt><trkpt lat="41.99501274843247" lon="1.181323414568528"><ele>604.0</ele><time>2026-04-27T12:37:53Z</time></trkpt><trkpt lat="41.99510770486485" lon="1.1814065715747888"><ele>604.0</ele><time>2026-04-27T12:37:54Z</time></trkpt><trkpt lat="41.99519194951461" lon="1.1814923105626605"><ele>604.2</ele><time>2026-04-27T12:37:55Z</time></trkpt><trkpt lat="41.995277444160216" lon="1.181584769795412"><ele>604.4</ele><time>2026-04-27T12:37:56Z</time></trkpt><trkpt lat="41.995351208153195" lon="1.1816793655610247"><ele>604.6</ele><time>2026-04-27T12:37:57Z</time></trkpt><trkpt lat="41.99542714325745" lon="1.181772896630455"><ele>604.8</ele><time>2026-04-27T12:37:58Z</time></trkpt><trkpt lat="41.99549786357895" lon="1.1818756148051308"><ele>605.0</ele><time>2026-04-27T12:37:59Z</time></trkpt><trkpt lat="41.99556344092279" lon="1.1819830544409273"><ele>605.0</ele><time>2026-04-27T12:38:00Z</time></trkpt><trkpt lat="41.995620649037136" lon="1.1820970693242947"><ele>605.0</ele><time>2026-04-27T12:38:01Z</time></trkpt><trkpt lat="41.99567398925169" lon="1.182206235183622"><ele>605.0</ele><time>2026-04-27T12:38:02Z</time></trkpt><trkpt lat="41.99573328454351" lon="1.182318106929458"><ele>605.0</ele><time>2026-04-27T12:38:03.001Z</time></trkpt><trkpt lat="41.99579184367926" lon="1.1824368115725805"><ele>605.0</ele><time>2026-04-27T12:38:04.001Z</time></trkpt><trkpt lat="41.99585456403594" lon="1.1825516311606616"><ele>605.0</ele><time>2026-04-27T12:38:05.001Z</time></trkpt><trkpt lat="41.99591753214444" lon="1.1826667368551302"><ele>605.0</ele><time>2026-04-27T12:38:06.001Z</time></trkpt><trkpt lat="41.995983357693966" lon="1.1827783446184208"><ele>605.0</ele><time>2026-04-27T12:38:07.001Z</time></trkpt><trkpt lat="41.99606158064966" lon="1.1828854610265538"><ele>605.0</ele><time>2026-04-27T12:38:08.001Z</time></trkpt><trkpt lat="41.99614600798227" lon="1.182984815355619"><ele>605.0</ele><time>2026-04-27T12:38:09.001Z</time></trkpt><trkpt lat="41.996236323995795" lon="1.1830700268359449"><ele>605.0</ele><time>2026-04-27T12:38:10.001Z</time></trkpt><trkpt lat="41.99632876495631" lon="1.183145814670239"><ele>605.0</ele><time>2026-04-27T12:38:11.001Z</time></trkpt><trkpt lat="41.996428119517006" lon="1.1832126041830997"><ele>605.0</ele><time>2026-04-27T12:38:12.001Z</time></trkpt><trkpt lat="41.99653060631107" lon="1.1832607818562741"><ele>605.0</ele><time>2026-04-27T12:38:13.001Z</time></trkpt><trkpt lat="41.99663701099658" lon="1.1832977114807692"><ele>605.0</ele><time>2026-04-27T12:38:14.001Z</time></trkpt><trkpt lat="41.996746351200315" lon="1.183314173385979"><ele>607.0</ele><time>2026-04-27T12:38:15.001Z</time></trkpt><trkpt lat="41.99686353755703" lon="1.1833153470965219"><ele>609.0</ele><time>2026-04-27T12:38:16.001Z</time></trkpt><trkpt lat="41.99697033645431" lon="1.1833097608258274"><ele>611.0</ele><time>2026-04-27T12:38:17.001Z</time></trkpt><trkpt lat="41.99708248005822" lon="1.1832878407724727"><ele>613.0</ele><time>2026-04-27T12:38:18.001Z</time></trkpt><trkpt lat="41.997189604121026" lon="1.1832553188689396"><ele>615.0</ele><time>2026-04-27T12:38:19.001Z</time></trkpt><trkpt lat="41.99729249937498" lon="1.1832143535589537"><ele>614.0</ele><time>2026-04-27T12:38:20.001Z</time></trkpt><trkpt lat="41.99739290590566" lon="1.1831704384024617"><ele>613.0</ele><time>2026-04-27T12:38:21.001Z</time></trkpt><trkpt lat="41.99749303014931" lon="1.1831237941175785"><ele>612.0</ele><time>2026-04-27T12:38:22.001Z</time></trkpt><trkpt lat="41.99758902240283" lon="1.1830750464017645"><ele>611.0</ele><time>2026-04-27T12:38:23.001Z</time></trkpt><trkpt lat="41.99768070032086" lon="1.1830229862743287"><ele>610.0</ele><time>2026-04-27T12:38:24.001Z</time></trkpt><trkpt lat="41.99777300919914" lon="1.1829734454912626"><ele>612.4</ele><time>2026-04-27T12:38:25.001Z</time></trkpt><trkpt lat="41.997880505785425" lon="1.1829138920110618"><ele>614.8</ele><time>2026-04-27T12:38:26.001Z</time></trkpt><trkpt lat="41.99795116209414" lon="1.1828646116341177"><ele>617.2</ele><time>2026-04-27T12:38:27.001Z</time></trkpt><trkpt lat="41.99803751166396" lon="1.1828031453386"><ele>619.6</ele><time>2026-04-27T12:38:28.001Z</time></trkpt><trkpt lat="41.998118063004384" lon="1.182738820659749"><ele>622.0</ele><time>2026-04-27T12:38:29.001Z</time></trkpt><trkpt lat="41.998198580265175" lon="1.1826775094629234"><ele>622.0</ele><time>2026-04-27T12:38:30.001Z</time></trkpt><trkpt lat="41.9982788422785" lon="1.182612559982855"><ele>622.0</ele><time>2026-04-27T12:38:31.001Z</time></trkpt><trkpt lat="41.99835293416246" lon="1.1825466624780832"><ele>622.0</ele><time>2026-04-27T12:38:32.001Z</time></trkpt><trkpt lat="41.99842645348021" lon="1.1824741261962204"><ele>622.0</ele><time>2026-04-27T12:38:33.001Z</time></trkpt><trkpt lat="41.99850255507583" lon="1.182407288852309"><ele>622.0</ele><time>2026-04-27T12:38:34.001Z</time></trkpt><trkpt lat="41.99857803935678" lon="1.1823477246774994"><ele>623.1666666666667</ele><time>2026-04-27T12:38:35.001Z</time></trkpt><trkpt lat="41.99863362855552" lon="1.1822622730080985"><ele>624.3333333333334</ele><time>2026-04-27T12:38:36.001Z</time></trkpt><trkpt lat="41.99871702222774" lon="1.1821985437679343"><ele>625.5</ele><time>2026-04-27T12:38:37.002Z</time></trkpt><trkpt lat="41.998774695594896" lon="1.1821098996145096"><ele>626.6666666666666</ele><time>2026-04-27T12:38:38.002Z</time></trkpt><trkpt lat="41.998840441843804" lon="1.1820392816647873"><ele>627.8333333333333</ele><time>2026-04-27T12:38:39.002Z</time></trkpt><trkpt lat="41.99890862284547" lon="1.1819620525544505"><ele>629.0</ele><time>2026-04-27T12:38:40.002Z</time></trkpt><trkpt lat="41.99897025275734" lon="1.181886223396467"><ele>629.0</ele><time>2026-04-27T12:38:41.002Z</time></trkpt><trkpt lat="41.99903447621732" lon="1.1818059603288904"><ele>629.0</ele><time>2026-04-27T12:38:42.002Z</time></trkpt><trkpt lat="41.999096401285875" lon="1.1817303070437084"><ele>629.0</ele><time>2026-04-27T12:38:43.002Z</time></trkpt><trkpt lat="41.99915923630589" lon="1.1816529748120443"><ele>629.0</ele><time>2026-04-27T12:38:44.002Z</time></trkpt><trkpt lat="41.99921954932998" lon="1.1815726009962262"><ele>629.0</ele><time>2026-04-27T12:38:45.002Z</time></trkpt><trkpt lat="41.999279786045264" lon="1.1815004840012104"><ele>629.0</ele><time>2026-04-27T12:38:46.002Z</time></trkpt><trkpt lat="41.99934695141929" lon="1.1814221228511745"><ele>630.3333333333333</ele><time>2026-04-27T12:38:47.002Z</time></trkpt><trkpt lat="41.99940638816822" lon="1.1813454255506357"><ele>631.6666666666666</ele><time>2026-04-27T12:38:48.002Z</time></trkpt><trkpt lat="41.99947488026842" lon="1.181268550515895"><ele>633.0</ele><time>2026-04-27T12:38:49.002Z</time></trkpt><trkpt lat="41.999544342879894" lon="1.181199774578369"><ele>634.3333333333334</ele><time>2026-04-27T12:38:50.002Z</time></trkpt><trkpt lat="41.999616759965086" lon="1.1811287550654432"><ele>635.6666666666667</ele><time>2026-04-27T12:38:51.002Z</time></trkpt><trkpt lat="41.99969053282292" lon="1.181057975092484"><ele>637.0</ele><time>2026-04-27T12:38:52.002Z</time></trkpt><trkpt lat="41.99976498762015" lon="1.1809937708290876"><ele>637.0</ele><time>2026-04-27T12:38:53.002Z</time></trkpt><trkpt lat="41.99984566535079" lon="1.1809274786094006"><ele>637.0</ele><time>2026-04-27T12:38:54.002Z</time></trkpt><trkpt lat="41.99993351600923" lon="1.1808680301553813"><ele>637.0</ele><time>2026-04-27T12:38:55.002Z</time></trkpt><trkpt lat="42.00002324876052" lon="1.1808096296068982"><ele>637.0</ele><time>2026-04-27T12:38:56.002Z</time></trkpt><trkpt lat="42.00011680737565" lon="1.180748849206289"><ele>637.0</ele><time>2026-04-27T12:38:57.002Z</time></trkpt><trkpt lat="42.00021095956874" lon="1.1806870898017818"><ele>637.0</ele><time>2026-04-27T12:38:58.002Z</time></trkpt><trkpt lat="42.000305692622796" lon="1.1806283117219847"><ele>637.0</ele><time>2026-04-27T12:38:59.002Z</time></trkpt><trkpt lat="42.00040152751699" lon="1.1805693671622803"><ele>637.0</ele><time>2026-04-27T12:39:00.002Z</time></trkpt><trkpt lat="42.000503240172854" lon="1.1805114511426458"><ele>637.0</ele><time>2026-04-27T12:39:01.002Z</time></trkpt><trkpt lat="42.000606746974185" lon="1.1804549002249856"><ele>637.0</ele><time>2026-04-27T12:39:02.002Z</time></trkpt><trkpt lat="42.00071148609531" lon="1.1803972209364204"><ele>637.0</ele><time>2026-04-27T12:39:03.002Z</time></trkpt><trkpt lat="42.0008150240914" lon="1.180340050408032"><ele>637.0</ele><time>2026-04-27T12:39:04.002Z</time></trkpt><trkpt lat="42.000916435806936" lon="1.1802791285564218"><ele>637.0</ele><time>2026-04-27T12:39:05.002Z</time></trkpt><trkpt lat="42.00101408341429" lon="1.1802120440645008"><ele>637.0</ele><time>2026-04-27T12:39:06.002Z</time></trkpt><trkpt lat="42.00111423313079" lon="1.1801473680247088"><ele>637.0</ele><time>2026-04-27T12:39:07.002Z</time></trkpt><trkpt lat="42.001215967603805" lon="1.1800860522349452"><ele>635.25</ele><time>2026-04-27T12:39:08.002Z</time></trkpt><trkpt lat="42.00131141761498" lon="1.1800304353996107"><ele>633.5</ele><time>2026-04-27T12:39:09.002Z</time></trkpt><trkpt lat="42.00139607950711" lon="1.1799864099180681"><ele>631.75</ele><time>2026-04-27T12:39:10.002Z</time></trkpt><trkpt lat="42.00152916313752" lon="1.1799025321464174"><ele>630.0</ele><time>2026-04-27T12:39:11.003Z</time></trkpt><trkpt lat="42.001629984352924" lon="1.1798482189712003"><ele>628.0</ele><time>2026-04-27T12:39:12.003Z</time></trkpt><trkpt lat="42.00173439553733" lon="1.1797978635638784"><ele>626.0</ele><time>2026-04-27T12:39:13.003Z</time></trkpt><trkpt lat="42.00184029017524" lon="1.1797490510715438"><ele>624.0</ele><time>2026-04-27T12:39:14.003Z</time></trkpt><trkpt lat="42.00194723877722" lon="1.1797141606268793"><ele>622.0</ele><time>2026-04-27T12:39:15.003Z</time></trkpt><trkpt lat="42.00205289707217" lon="1.179682058359633"><ele>620.0</ele><time>2026-04-27T12:39:16.003Z</time></trkpt><trkpt lat="42.00215910685848" lon="1.1796532999388625"><ele>620.0</ele><time>2026-04-27T12:39:17.003Z</time></trkpt><trkpt lat="42.00226617459652" lon="1.1796309592785257"><ele>620.0</ele><time>2026-04-27T12:39:18.003Z</time></trkpt><trkpt lat="42.00237503865003" lon="1.1796087030954956"><ele>620.0</ele><time>2026-04-27T12:39:19.003Z</time></trkpt><trkpt lat="42.00248319252942" lon="1.1795856411621273"><ele>620.0</ele><time>2026-04-27T12:39:20.003Z</time></trkpt><trkpt lat="42.0025912402989" lon="1.1795622683325082"><ele>620.0</ele><time>2026-04-27T12:39:21.003Z</time></trkpt><trkpt lat="42.00270184679955" lon="1.1795554968347643"><ele>622.0</ele><time>2026-04-27T12:39:22.003Z</time></trkpt><trkpt lat="42.002811101269174" lon="1.1795632324665113"><ele>624.0</ele><time>2026-04-27T12:39:23.003Z</time></trkpt><trkpt lat="42.0029201346175" lon="1.1795817017889172"><ele>626.0</ele><time>2026-04-27T12:39:24.003Z</time></trkpt><trkpt lat="42.00302756857144" lon="1.1796215414958884"><ele>628.0</ele><time>2026-04-27T12:39:25.003Z</time></trkpt><trkpt lat="42.003136450380076" lon="1.1796588198968048"><ele>630.0</ele><time>2026-04-27T12:39:26.003Z</time></trkpt><trkpt lat="42.003245974613705" lon="1.179697109980306"><ele>630.2</ele><time>2026-04-27T12:39:27.003Z</time></trkpt><trkpt lat="42.003352007860336" lon="1.1797357150277383"><ele>630.4</ele><time>2026-04-27T12:39:28.003Z</time></trkpt><trkpt lat="42.00346180507763" lon="1.1797723315133828"><ele>630.6</ele><time>2026-04-27T12:39:29.003Z</time></trkpt><trkpt lat="42.0035701254711" lon="1.1798046609811799"><ele>630.8</ele><time>2026-04-27T12:39:30.003Z</time></trkpt><trkpt lat="42.00367917152859" lon="1.1798367268564331"><ele>631.0</ele><time>2026-04-27T12:39:31.003Z</time></trkpt><trkpt lat="42.003775934752106" lon="1.179861322574192"><ele>635.8</ele><time>2026-04-27T12:39:32.003Z</time></trkpt><trkpt lat="42.00389313030852" lon="1.1798872171941233"><ele>640.6</ele><time>2026-04-27T12:39:33.003Z</time></trkpt><trkpt lat="42.0040005342099" lon="1.17990681342478"><ele>645.4</ele><time>2026-04-27T12:39:34.003Z</time></trkpt><trkpt lat="42.00410932161441" lon="1.1799284961816063"><ele>650.2</ele><time>2026-04-27T12:39:35.003Z</time></trkpt><trkpt lat="42.00421705256153" lon="1.1799493008269646"><ele>655.0</ele><time>2026-04-27T12:39:36.003Z</time></trkpt><trkpt lat="42.00432283505217" lon="1.1799553366877982"><ele>655.0</ele><time>2026-04-27T12:39:37.003Z</time></trkpt><trkpt lat="42.004430091587544" lon="1.1799590841954106"><ele>655.0</ele><time>2026-04-27T12:39:38.003Z</time></trkpt><trkpt lat="42.00452984950225" lon="1.1799723750178603"><ele>655.0</ele><time>2026-04-27T12:39:39Z</time></trkpt><trkpt lat="42.00463132345039" lon="1.1799921282144534"><ele>655.0</ele><time>2026-04-27T12:39:40Z</time></trkpt><trkpt lat="42.00473076562762" lon="1.1800210781941856"><ele>655.0</ele><time>2026-04-27T12:39:41Z</time></trkpt><trkpt lat="42.00482471587216" lon="1.1800541810788867"><ele>655.0</ele><time>2026-04-27T12:39:42Z</time></trkpt><trkpt lat="42.004925610760914" lon="1.1800867093297198"><ele>655.0</ele><time>2026-04-27T12:39:43Z</time></trkpt><trkpt lat="42.005018648636245" lon="1.1801243563020052"><ele>655.0</ele><time>2026-04-27T12:39:44Z</time></trkpt><trkpt lat="42.005109182892724" lon="1.1801683461793766"><ele>655.0</ele><time>2026-04-27T12:39:45Z</time></trkpt><trkpt lat="42.00519840950873" lon="1.1802184875304012"><ele>655.0</ele><time>2026-04-27T12:39:46Z</time></trkpt><trkpt lat="42.0052859556558" lon="1.1802716725326312"><ele>654.3333333333334</ele><time>2026-04-27T12:39:47Z</time></trkpt><trkpt lat="42.005370728959754" lon="1.1803184254448666"><ele>653.6666666666667</ele><time>2026-04-27T12:39:48Z</time></trkpt><trkpt lat="42.005458373919225" lon="1.1803640052935642"><ele>653.0</ele><time>2026-04-27T12:39:49Z</time></trkpt><trkpt lat="42.005546873357574" lon="1.1804001257935042"><ele>652.3333333333334</ele><time>2026-04-27T12:39:50Z</time></trkpt><trkpt lat="42.00563363203526" lon="1.1804267066539755"><ele>651.6666666666666</ele><time>2026-04-27T12:39:51Z</time></trkpt><trkpt lat="42.005713168011205" lon="1.1804412287090171"><ele>651.0</ele><time>2026-04-27T12:39:52Z</time></trkpt><trkpt lat="42.00580860167076" lon="1.1804410720112242"><ele>651.0</ele><time>2026-04-27T12:39:53Z</time></trkpt><trkpt lat="42.005900793357235" lon="1.1804236700341761"><ele>651.0</ele><time>2026-04-27T12:39:54Z</time></trkpt><trkpt lat="42.00598768336446" lon="1.180400973877262"><ele>651.0</ele><time>2026-04-27T12:39:55Z</time></trkpt><trkpt lat="42.00607393249489" lon="1.1803611650127674"><ele>651.0</ele><time>2026-04-27T12:39:56Z</time></trkpt><trkpt lat="42.00615593737254" lon="1.1803105531576554"><ele>651.0</ele><time>2026-04-27T12:39:57Z</time></trkpt><trkpt lat="42.006235656248265" lon="1.1802522458503797"><ele>651.0</ele><time>2026-04-27T12:39:58Z</time></trkpt><trkpt lat="42.00631526398762" lon="1.1801893304669104"><ele>651.0</ele><time>2026-04-27T12:39:59Z</time></trkpt><trkpt lat="42.00638963522587" lon="1.1801195391047217"><ele>651.0</ele><time>2026-04-27T12:40:00Z</time></trkpt><trkpt lat="42.006464769982365" lon="1.1800487144334604"><ele>651.0</ele><time>2026-04-27T12:40:01Z</time></trkpt><trkpt lat="42.00653932968171" lon="1.1799770369600977"><ele>651.0</ele><time>2026-04-27T12:40:02Z</time></trkpt><trkpt lat="42.006613734341116" lon="1.1799119510312344"><ele>650.8333333333334</ele><time>2026-04-27T12:40:03Z</time></trkpt><trkpt lat="42.0066913355019" lon="1.1798441544532505"><ele>650.6666666666666</ele><time>2026-04-27T12:40:04Z</time></trkpt><trkpt lat="42.006768414596195" lon="1.1797859945492644"><ele>650.5</ele><time>2026-04-27T12:40:05Z</time></trkpt><trkpt lat="42.00685209434459" lon="1.1797362861023895"><ele>650.3333333333333</ele><time>2026-04-27T12:40:06Z</time></trkpt><trkpt lat="42.0069352709658" lon="1.17971794362204"><ele>650.1666666666666</ele><time>2026-04-27T12:40:07Z</time></trkpt><trkpt lat="42.00702320244348" lon="1.1796847704522777"><ele>650.0</ele><time>2026-04-27T12:40:08.001Z</time></trkpt><trkpt lat="42.007109216291326" lon="1.1796780491659153"><ele>650.0</ele><time>2026-04-27T12:40:09.001Z</time></trkpt><trkpt lat="42.007194146077445" lon="1.1796768532084305"><ele>650.0</ele><time>2026-04-27T12:40:10.001Z</time></trkpt><trkpt lat="42.00728025488596" lon="1.1796749535152424"><ele>650.0</ele><time>2026-04-27T12:40:11.001Z</time></trkpt><trkpt lat="42.00736317901791" lon="1.1796714512761262"><ele>650.0</ele><time>2026-04-27T12:40:12.001Z</time></trkpt><trkpt lat="42.00744831091564" lon="1.1796632336789334"><ele>650.0</ele><time>2026-04-27T12:40:13.001Z</time></trkpt><trkpt lat="42.007532510304586" lon="1.1796458235605485"><ele>650.0</ele><time>2026-04-27T12:40:14.001Z</time></trkpt><trkpt lat="42.00761369236228" lon="1.17961952008454"><ele>652.8333333333333</ele><time>2026-04-27T12:40:15.001Z</time></trkpt><trkpt lat="42.00769500151301" lon="1.179580611374024"><ele>655.6666666666666</ele><time>2026-04-27T12:40:16.001Z</time></trkpt><trkpt lat="42.00778152747075" lon="1.1795117332522713"><ele>658.5</ele><time>2026-04-27T12:40:17.001Z</time></trkpt><trkpt lat="42.007839442942156" lon="1.1794575091581205"><ele>661.3333333333334</ele><time>2026-04-27T12:40:18.001Z</time></trkpt><trkpt lat="42.00789792912836" lon="1.1793991973723674"><ele>664.1666666666667</ele><time>2026-04-27T12:40:19.001Z</time></trkpt><trkpt lat="42.00796150684846" lon="1.179298180612085"><ele>667.0</ele><time>2026-04-27T12:40:20.001Z</time></trkpt><trkpt lat="42.008010164153" lon="1.1792016399026586"><ele>667.0</ele><time>2026-04-27T12:40:21.001Z</time></trkpt><trkpt lat="42.00804998424737" lon="1.1791109711256693"><ele>667.0</ele><time>2026-04-27T12:40:22.001Z</time></trkpt><trkpt lat="42.00809038026849" lon="1.1790101842656224"><ele>667.0</ele><time>2026-04-27T12:40:23.001Z</time></trkpt><trkpt lat="42.008122289601154" lon="1.178905729099958"><ele>667.0</ele><time>2026-04-27T12:40:24.001Z</time></trkpt><trkpt lat="42.00815238766802" lon="1.1787936201346938"><ele>667.0</ele><time>2026-04-27T12:40:25.001Z</time></trkpt><trkpt lat="42.00818042105683" lon="1.178683044070459"><ele>667.0</ele><time>2026-04-27T12:40:26.001Z</time></trkpt><trkpt lat="42.008209342267016" lon="1.1785703625236859"><ele>668.0</ele><time>2026-04-27T12:40:27.001Z</time></trkpt><trkpt lat="42.00824643651094" lon="1.1784592671272942"><ele>669.0</ele><time>2026-04-27T12:40:28.001Z</time></trkpt><trkpt lat="42.00828467543653" lon="1.178353661469038"><ele>670.0</ele><time>2026-04-27T12:40:29.001Z</time></trkpt><trkpt lat="42.00832708542131" lon="1.178248624685625"><ele>671.0</ele><time>2026-04-27T12:40:30.001Z</time></trkpt><trkpt lat="42.00837200172581" lon="1.178151219683817"><ele>672.0</ele><time>2026-04-27T12:40:31.001Z</time></trkpt><trkpt lat="42.008423511621125" lon="1.1780572580727604"><ele>673.0</ele><time>2026-04-27T12:40:32.001Z</time></trkpt><trkpt lat="42.00848142218908" lon="1.1779711938034723"><ele>673.0</ele><time>2026-04-27T12:40:33.001Z</time></trkpt><trkpt lat="42.00854205876145" lon="1.1778932368053336"><ele>673.0</ele><time>2026-04-27T12:40:34.001Z</time></trkpt><trkpt lat="42.008607453803045" lon="1.1778207528463753"><ele>673.0</ele><time>2026-04-27T12:40:35.001Z</time></trkpt><trkpt lat="42.0086748954254" lon="1.1777594169472883"><ele>673.0</ele><time>2026-04-27T12:40:36.001Z</time></trkpt><trkpt lat="42.00874502739804" lon="1.17770292619024"><ele>673.0</ele><time>2026-04-27T12:40:37.001Z</time></trkpt><trkpt lat="42.00881499342118" lon="1.1776377694132303"><ele>673.0</ele><time>2026-04-27T12:40:38.001Z</time></trkpt><trkpt lat="42.00888203742887" lon="1.1775867332767744"><ele>673.0</ele><time>2026-04-27T12:40:39.001Z</time></trkpt><trkpt lat="42.008956221245924" lon="1.1775339438273773"><ele>673.0</ele><time>2026-04-27T12:40:40.001Z</time></trkpt><trkpt lat="42.009026688526134" lon="1.1774909811558507"><ele>673.0</ele><time>2026-04-27T12:40:41.002Z</time></trkpt><trkpt lat="42.00909877033443" lon="1.1774396006247358"><ele>673.0</ele><time>2026-04-27T12:40:42.002Z</time></trkpt><trkpt lat="42.00917050702156" lon="1.177391052534804"><ele>673.0</ele><time>2026-04-27T12:40:43.002Z</time></trkpt><trkpt lat="42.00924057601705" lon="1.1773449775352691"><ele>673.0</ele><time>2026-04-27T12:40:44.002Z</time></trkpt><trkpt lat="42.00931019227137" lon="1.1772891349894667"><ele>673.5</ele><time>2026-04-27T12:40:45.002Z</time></trkpt><trkpt lat="42.00938315788199" lon="1.1772444146566305"><ele>674.0</ele><time>2026-04-27T12:40:46.002Z</time></trkpt><trkpt lat="42.009456022102384" lon="1.1771950800417008"><ele>674.5</ele><time>2026-04-27T12:40:47.002Z</time></trkpt><trkpt lat="42.00952863336775" lon="1.1771438701026486"><ele>675.0</ele><time>2026-04-27T12:40:48.002Z</time></trkpt><trkpt lat="42.00960087016117" lon="1.1770944745788159"><ele>675.5</ele><time>2026-04-27T12:40:49.002Z</time></trkpt><trkpt lat="42.00967298844135" lon="1.177041718519857"><ele>676.0</ele><time>2026-04-27T12:40:50.002Z</time></trkpt><trkpt lat="42.009750170596796" lon="1.1769888153105421"><ele>676.0</ele><time>2026-04-27T12:40:51.002Z</time></trkpt><trkpt lat="42.00982997842927" lon="1.1769348522022576"><ele>676.0</ele><time>2026-04-27T12:40:52.002Z</time></trkpt><trkpt lat="42.00991295820212" lon="1.1768796401431811"><ele>676.0</ele><time>2026-04-27T12:40:53.002Z</time></trkpt><trkpt lat="42.00999942295956" lon="1.1768243081959733"><ele>676.0</ele><time>2026-04-27T12:40:54.002Z</time></trkpt><trkpt lat="42.01008712246496" lon="1.1767707582990872"><ele>676.0</ele><time>2026-04-27T12:40:55.002Z</time></trkpt><trkpt lat="42.010181532833805" lon="1.176722288642277"><ele>678.8</ele><time>2026-04-27T12:40:56.002Z</time></trkpt><trkpt lat="42.01027805846592" lon="1.1766831601562715"><ele>681.5999999999999</ele><time>2026-04-27T12:40:57.002Z</time></trkpt><trkpt lat="42.010382927866395" lon="1.1766356136994767"><ele>684.4</ele><time>2026-04-27T12:40:58.002Z</time></trkpt><trkpt lat="42.01048661887006" lon="1.1766002926469123"><ele>687.2</ele><time>2026-04-27T12:40:59.002Z</time></trkpt><trkpt lat="42.010591956867074" lon="1.1765720292205017"><ele>690.0</ele><time>2026-04-27T12:41:00.002Z</time></trkpt><trkpt lat="42.01069932729362" lon="1.176551809962048"><ele>690.0</ele><time>2026-04-27T12:41:01.002Z</time></trkpt><trkpt lat="42.01080590469996" lon="1.176534902235002"><ele>690.0</ele><time>2026-04-27T12:41:02.002Z</time></trkpt><trkpt lat="42.0109162141931" lon="1.1765142355643852"><ele>690.0</ele><time>2026-04-27T12:41:03.002Z</time></trkpt><trkpt lat="42.01102316098703" lon="1.176504623104458"><ele>690.0</ele><time>2026-04-27T12:41:04.002Z</time></trkpt><trkpt lat="42.01113313908401" lon="1.176490947255579"><ele>690.0</ele><time>2026-04-27T12:41:05.002Z</time></trkpt><trkpt lat="42.01124151060051" lon="1.1764762633768782"><ele>688.6</ele><time>2026-04-27T12:41:06.002Z</time></trkpt><trkpt lat="42.01135209795812" lon="1.1764663975177079"><ele>687.2</ele><time>2026-04-27T12:41:07.002Z</time></trkpt><trkpt lat="42.01146454754789" lon="1.1764540136262776"><ele>685.8</ele><time>2026-04-27T12:41:08.002Z</time></trkpt><trkpt lat="42.01157638989571" lon="1.176437820860675"><ele>684.4</ele><time>2026-04-27T12:41:09.002Z</time></trkpt><trkpt lat="42.0116867268651" lon="1.1764196664370141"><ele>683.0</ele><time>2026-04-27T12:41:10.002Z</time></trkpt><trkpt lat="42.01179842053332" lon="1.1763975731433738"><ele>683.0</ele><time>2026-04-27T12:41:11.002Z</time></trkpt><trkpt lat="42.011910027746396" lon="1.1763779210233407"><ele>683.0</ele><time>2026-04-27T12:41:12.002Z</time></trkpt><trkpt lat="42.012021079225256" lon="1.1763576782915282"><ele>683.0</ele><time>2026-04-27T12:41:13.002Z</time></trkpt><trkpt lat="42.0121325694944" lon="1.1763321423526223"><ele>683.0</ele><time>2026-04-27T12:41:14.002Z</time></trkpt><trkpt lat="42.01223848729386" lon="1.1763064235099396"><ele>683.0</ele><time>2026-04-27T12:41:15.003Z</time></trkpt><trkpt lat="42.01234824841145" lon="1.1762770804636795"><ele>683.0</ele><time>2026-04-27T12:41:16.003Z</time></trkpt><trkpt lat="42.012455486243944" lon="1.1762450152952766"><ele>683.0</ele><time>2026-04-27T12:41:17.003Z</time></trkpt><trkpt lat="42.012563325428886" lon="1.1762082375397171"><ele>683.0</ele><time>2026-04-27T12:41:18.003Z</time></trkpt><trkpt lat="42.01267379815173" lon="1.176167712972686"><ele>683.0</ele><time>2026-04-27T12:41:19.003Z</time></trkpt><trkpt lat="42.0127808261803" lon="1.1761263677673393"><ele>683.0</ele><time>2026-04-27T12:41:20.003Z</time></trkpt><trkpt lat="42.01288932534824" lon="1.1760816415414597"><ele>684.8</ele><time>2026-04-27T12:41:21.003Z</time></trkpt><trkpt lat="42.012997706825054" lon="1.17603589886222"><ele>686.5999999999999</ele><time>2026-04-27T12:41:22.003Z</time></trkpt><trkpt lat="42.01310273271822" lon="1.175991855950538"><ele>688.4000000000001</ele><time>2026-04-27T12:41:23.003Z</time></trkpt><trkpt lat="42.01321162543554" lon="1.1759473341603939"><ele>690.2</ele><time>2026-04-27T12:41:24.003Z</time></trkpt><trkpt lat="42.0133125871637" lon="1.1759045018975849"><ele>692.0</ele><time>2026-04-27T12:41:25.003Z</time></trkpt><trkpt lat="42.01341651665055" lon="1.1758588605258227"><ele>692.4000000000001</ele><time>2026-04-27T12:41:26.003Z</time></trkpt><trkpt lat="42.01351666610031" lon="1.1758038795584937"><ele>692.8000000000001</ele><time>2026-04-27T12:41:27.003Z</time></trkpt><trkpt lat="42.0136096998451" lon="1.1757392220744798"><ele>693.2</ele><time>2026-04-27T12:41:28.003Z</time></trkpt><trkpt lat="42.01369580620002" lon="1.1756619566961692"><ele>693.6</ele><time>2026-04-27T12:41:29.003Z</time></trkpt><trkpt lat="42.01377869812859" lon="1.175582946746612"><ele>694.0</ele><time>2026-04-27T12:41:30.003Z</time></trkpt><trkpt lat="42.0138560092767" lon="1.175495200860692"><ele>694.0</ele><time>2026-04-27T12:41:31.003Z</time></trkpt><trkpt lat="42.0139229673808" lon="1.1754009878535365"><ele>694.0</ele><time>2026-04-27T12:41:32.003Z</time></trkpt><trkpt lat="42.01398648734733" lon="1.1753011512936997"><ele>694.0</ele><time>2026-04-27T12:41:33.003Z</time></trkpt><trkpt lat="42.014047899083785" lon="1.1751936032088008"><ele>694.0</ele><time>2026-04-27T12:41:34.003Z</time></trkpt><trkpt lat="42.014101014790775" lon="1.1750849313164777"><ele>694.0</ele><time>2026-04-27T12:41:35.003Z</time></trkpt><trkpt lat="42.01415149643391" lon="1.1749724221614277"><ele>695.6</ele><time>2026-04-27T12:41:36.003Z</time></trkpt><trkpt lat="42.01420144677107" lon="1.1748515257711016"><ele>697.2</ele><time>2026-04-27T12:41:37.003Z</time></trkpt><trkpt lat="42.01425052179115" lon="1.1747290181472927"><ele>698.8000000000001</ele><time>2026-04-27T12:41:38.003Z</time></trkpt><trkpt lat="42.01429683050193" lon="1.1746008841983286"><ele>700.4000000000001</ele><time>2026-04-27T12:41:39.003Z</time></trkpt><trkpt lat="42.01434188640761" lon="1.1744738469452298"><ele>702.0</ele><time>2026-04-27T12:41:40.003Z</time></trkpt><trkpt lat="42.01439055421558" lon="1.1743390483430498"><ele>702.0</ele><time>2026-04-27T12:41:41.003Z</time></trkpt><trkpt lat="42.01443948778897" lon="1.1742022021742404"><ele>702.0</ele><time>2026-04-27T12:41:42.003Z</time></trkpt><trkpt lat="42.0144885541836" lon="1.174063514901909"><ele>702.0</ele><time>2026-04-27T12:41:43.003Z</time></trkpt><trkpt lat="42.014533024606145" lon="1.173924203174475"><ele>702.0</ele><time>2026-04-27T12:41:44.003Z</time></trkpt><trkpt lat="42.0145920188495" lon="1.173787835360681"><ele>700.75</ele><time>2026-04-27T12:41:45Z</time></trkpt><trkpt lat="42.014631828239246" lon="1.1736429400837993"><ele>699.5</ele><time>2026-04-27T12:41:46Z</time></trkpt><trkpt lat="42.01465337341426" lon="1.1734779702430338"><ele>698.25</ele><time>2026-04-27T12:41:47Z</time></trkpt><trkpt lat="42.01468489064685" lon="1.1733432654434885"><ele>697.0</ele><time>2026-04-27T12:41:48Z</time></trkpt><trkpt lat="42.014723101423115" lon="1.173205132810173"><ele>695.75</ele><time>2026-04-27T12:41:49Z</time></trkpt><trkpt lat="42.01472533228623" lon="1.1730415659531455"><ele>694.5</ele><time>2026-04-27T12:41:50Z</time></trkpt><trkpt lat="42.014743065612485" lon="1.1728859876375464"><ele>693.25</ele><time>2026-04-27T12:41:51Z</time></trkpt><trkpt lat="42.01475337594833" lon="1.1727312812222608"><ele>692.0</ele><time>2026-04-27T12:41:52Z</time></trkpt><trkpt lat="42.01475562731092" lon="1.1725692719313592"><ele>692.0</ele><time>2026-04-27T12:41:53Z</time></trkpt><trkpt lat="42.014748290792724" lon="1.1724075601178474"><ele>692.0</ele><time>2026-04-27T12:41:54Z</time></trkpt><trkpt lat="42.01474015341739" lon="1.1722517712316032"><ele>692.0</ele><time>2026-04-27T12:41:55Z</time></trkpt><trkpt lat="42.01471944450324" lon="1.1720924973569875"><ele>692.0</ele><time>2026-04-27T12:41:56Z</time></trkpt><trkpt lat="42.01470499172184" lon="1.1719314084134222"><ele>691.0</ele><time>2026-04-27T12:41:57Z</time></trkpt><trkpt lat="42.01468383281697" lon="1.1717664716035272"><ele>690.0</ele><time>2026-04-27T12:41:58Z</time></trkpt><trkpt lat="42.014658758366465" lon="1.1716092047726812"><ele>689.0</ele><time>2026-04-27T12:41:59Z</time></trkpt><trkpt lat="42.01462802534085" lon="1.1714551246382685"><ele>688.0</ele><time>2026-04-27T12:42:00Z</time></trkpt><trkpt lat="42.0146021177109" lon="1.1712988959869057"><ele>687.25</ele><time>2026-04-27T12:42:01Z</time></trkpt><trkpt lat="42.014569716685926" lon="1.1711417691236523"><ele>686.5</ele><time>2026-04-27T12:42:02Z</time></trkpt><trkpt lat="42.01453794517481" lon="1.170985423639435"><ele>685.75</ele><time>2026-04-27T12:42:03Z</time></trkpt><trkpt lat="42.014512524991645" lon="1.1708301264363117"><ele>685.0</ele><time>2026-04-27T12:42:04Z</time></trkpt><trkpt lat="42.01448054708843" lon="1.170677005513044"><ele>685.0</ele><time>2026-04-27T12:42:05Z</time></trkpt><trkpt lat="42.01445437181555" lon="1.1705186712890143"><ele>685.0</ele><time>2026-04-27T12:42:06Z</time></trkpt><trkpt lat="42.01442452496249" lon="1.1703633225375027"><ele>685.0</ele><time>2026-04-27T12:42:07Z</time></trkpt><trkpt lat="42.01439371028387" lon="1.1702112444562913"><ele>685.0</ele><time>2026-04-27T12:42:08Z</time></trkpt><trkpt lat="42.01436350281998" lon="1.170065220410363"><ele>685.0</ele><time>2026-04-27T12:42:09Z</time></trkpt><trkpt lat="42.014340985005795" lon="1.1699162613064265"><ele>685.0</ele><time>2026-04-27T12:42:10Z</time></trkpt><trkpt lat="42.0143170139044" lon="1.1697627830167114"><ele>685.0</ele><time>2026-04-27T12:42:11Z</time></trkpt><trkpt lat="42.01429644376781" lon="1.1696016801889098"><ele>685.0</ele><time>2026-04-27T12:42:12Z</time></trkpt><trkpt lat="42.01428182738634" lon="1.169442092656198"><ele>683.25</ele><time>2026-04-27T12:42:13Z</time></trkpt><trkpt lat="42.01429799089045" lon="1.1692903860410646"><ele>681.5</ele><time>2026-04-27T12:42:14Z</time></trkpt><trkpt lat="42.0143084618447" lon="1.1691444349063813"><ele>679.75</ele><time>2026-04-27T12:42:15Z</time></trkpt><trkpt lat="42.0143304229898" lon="1.16898810345415"><ele>678.0</ele><time>2026-04-27T12:42:16.001Z</time></trkpt><trkpt lat="42.014367139131345" lon="1.168839036282734"><ele>677.5999999999999</ele><time>2026-04-27T12:42:17.001Z</time></trkpt><trkpt lat="42.01441221479073" lon="1.168694601406448"><ele>677.1999999999999</ele><time>2026-04-27T12:42:18.001Z</time></trkpt><trkpt lat="42.014460953474824" lon="1.1685759642706526"><ele>676.8</ele><time>2026-04-27T12:42:19.001Z</time></trkpt><trkpt lat="42.014521964556295" lon="1.1684541433370297"><ele>676.4</ele><time>2026-04-27T12:42:20.001Z</time></trkpt><trkpt lat="42.01458673916975" lon="1.1683332331089036"><ele>676.0</ele><time>2026-04-27T12:42:21.001Z</time></trkpt><trkpt lat="42.01464261460379" lon="1.1682068035979742"><ele>677.0</ele><time>2026-04-27T12:42:22.001Z</time></trkpt><trkpt lat="42.014731033788536" lon="1.1681103800046257"><ele>678.0</ele><time>2026-04-27T12:42:23.001Z</time></trkpt><trkpt lat="42.014833078679594" lon="1.1680305560863733"><ele>679.0</ele><time>2026-04-27T12:42:24.001Z</time></trkpt><trkpt lat="42.014939246451235" lon="1.1679674965730518"><ele>680.0</ele><time>2026-04-27T12:42:25.001Z</time></trkpt><trkpt lat="42.01505995017419" lon="1.1679605798351849"><ele>680.0</ele><time>2026-04-27T12:42:26.001Z</time></trkpt><trkpt lat="42.015174991519736" lon="1.1679210168188747"><ele>680.0</ele><time>2026-04-27T12:42:27.001Z</time></trkpt><trkpt lat="42.01529048018307" lon="1.16789503870197"><ele>680.0</ele><time>2026-04-27T12:42:28.001Z</time></trkpt><trkpt lat="42.01540945176796" lon="1.167873663827069"><ele>680.0</ele><time>2026-04-27T12:42:29.001Z</time></trkpt><trkpt lat="42.01552833863917" lon="1.167877029502113"><ele>680.0</ele><time>2026-04-27T12:42:30.001Z</time></trkpt><trkpt lat="42.01564786574723" lon="1.167878085655026"><ele>680.0</ele><time>2026-04-27T12:42:31.001Z</time></trkpt><trkpt lat="42.015765207228476" lon="1.1678684485982662"><ele>680.0</ele><time>2026-04-27T12:42:32.001Z</time></trkpt><trkpt lat="42.01587971698332" lon="1.1678507021999152"><ele>680.0</ele><time>2026-04-27T12:42:33.001Z</time></trkpt><trkpt lat="42.015995211647635" lon="1.1678151651988546"><ele>676.75</ele><time>2026-04-27T12:42:34.001Z</time></trkpt><trkpt lat="42.01610600637564" lon="1.1677672046271135"><ele>673.5</ele><time>2026-04-27T12:42:35.001Z</time></trkpt><trkpt lat="42.016214566949145" lon="1.1677142421919122"><ele>670.25</ele><time>2026-04-27T12:42:36.001Z</time></trkpt><trkpt lat="42.016321088154086" lon="1.1676465373243086"><ele>667.0</ele><time>2026-04-27T12:42:37.001Z</time></trkpt><trkpt lat="42.01642618225833" lon="1.1675632972195005"><ele>667.0</ele><time>2026-04-27T12:42:38.001Z</time></trkpt><trkpt lat="42.01652724020053" lon="1.1674705088853297"><ele>667.0</ele><time>2026-04-27T12:42:39.001Z</time></trkpt><trkpt lat="42.01662139191298" lon="1.1673625603125481"><ele>667.0</ele><time>2026-04-27T12:42:40.001Z</time></trkpt><trkpt lat="42.016715630347065" lon="1.1672577529476984"><ele>667.0</ele><time>2026-04-27T12:42:41.001Z</time></trkpt><trkpt lat="42.01679719616514" lon="1.1671366502016436"><ele>665.25</ele><time>2026-04-27T12:42:42.001Z</time></trkpt><trkpt lat="42.01688226587109" lon="1.1670202925064896"><ele>663.5</ele><time>2026-04-27T12:42:43.001Z</time></trkpt><trkpt lat="42.01695757172068" lon="1.166900884080012"><ele>661.75</ele><time>2026-04-27T12:42:44.001Z</time></trkpt><trkpt lat="42.017028223588895" lon="1.1667712720164283"><ele>660.0</ele><time>2026-04-27T12:42:45.001Z</time></trkpt><trkpt lat="42.017089696886266" lon="1.1666362017835998"><ele>656.75</ele><time>2026-04-27T12:42:46.001Z</time></trkpt><trkpt lat="42.01715226051735" lon="1.166498266519563"><ele>653.5</ele><time>2026-04-27T12:42:47.001Z</time></trkpt><trkpt lat="42.01719441032317" lon="1.1663512793050534"><ele>650.25</ele><time>2026-04-27T12:42:48.001Z</time></trkpt><trkpt lat="42.01725291215783" lon="1.1662082311700426"><ele>647.0</ele><time>2026-04-27T12:42:49.002Z</time></trkpt><trkpt lat="42.017274761663664" lon="1.1660493247441392"><ele>647.0</ele><time>2026-04-27T12:42:50.002Z</time></trkpt><trkpt lat="42.01731503256142" lon="1.1658902130060866"><ele>647.0</ele><time>2026-04-27T12:42:51.002Z</time></trkpt><trkpt lat="42.01735779825251" lon="1.1657417064234417"><ele>647.0</ele><time>2026-04-27T12:42:52.002Z</time></trkpt><trkpt lat="42.01743236897072" lon="1.1655530836451538"><ele>647.0</ele><time>2026-04-27T12:42:53.002Z</time></trkpt><trkpt lat="42.017419024198006" lon="1.1654470018591288"><ele>646.25</ele><time>2026-04-27T12:42:54.002Z</time></trkpt><trkpt lat="42.01745253220962" lon="1.1653091929108865"><ele>645.5</ele><time>2026-04-27T12:42:55.002Z</time></trkpt><trkpt lat="42.01749421290083" lon="1.1651511119454239"><ele>644.75</ele><time>2026-04-27T12:42:56.002Z</time></trkpt><trkpt lat="42.01753076656897" lon="1.1649981417917783"><ele>644.0</ele><time>2026-04-27T12:42:57.002Z</time></trkpt><trkpt lat="42.01755928706155" lon="1.164845046561996"><ele>644.0</ele><time>2026-04-27T12:42:58.002Z</time></trkpt><trkpt lat="42.01758817037477" lon="1.1646921977213027"><ele>644.0</ele><time>2026-04-27T12:42:59.002Z</time></trkpt><trkpt lat="42.01761751410889" lon="1.164535600364182"><ele>644.0</ele><time>2026-04-27T12:43:00.002Z</time></trkpt><trkpt lat="42.017645588291295" lon="1.1643799637550054"><ele>644.0</ele><time>2026-04-27T12:43:01.002Z</time></trkpt><trkpt lat="42.017679559158346" lon="1.164228831815507"><ele>644.0</ele><time>2026-04-27T12:43:02.002Z</time></trkpt><trkpt lat="42.017703594354465" lon="1.16407486701265"><ele>644.0</ele><time>2026-04-27T12:43:03.002Z</time></trkpt><trkpt lat="42.0177049811211" lon="1.1639118827491337"><ele>644.0</ele><time>2026-04-27T12:43:04.002Z</time></trkpt><trkpt lat="42.017698614754345" lon="1.1637530290190332"><ele>644.0</ele><time>2026-04-27T12:43:05.002Z</time></trkpt><trkpt lat="42.0176810712687" lon="1.1635944047466233"><ele>644.25</ele><time>2026-04-27T12:43:06.002Z</time></trkpt><trkpt lat="42.01765746303835" lon="1.1634323910510151"><ele>644.5</ele><time>2026-04-27T12:43:07.002Z</time></trkpt><trkpt lat="42.01762938300428" lon="1.1632691599751226"><ele>644.75</ele><time>2026-04-27T12:43:08.002Z</time></trkpt><trkpt lat="42.01759753887577" lon="1.1631109556834445"><ele>645.0</ele><time>2026-04-27T12:43:09.002Z</time></trkpt><trkpt lat="42.01756200031566" lon="1.1629599268861648"><ele>645.0</ele><time>2026-04-27T12:43:10.002Z</time></trkpt><trkpt lat="42.017522601751025" lon="1.162814548610692"><ele>645.0</ele><time>2026-04-27T12:43:11.002Z</time></trkpt><trkpt lat="42.017481677403126" lon="1.1626743225166027"><ele>645.0</ele><time>2026-04-27T12:43:12.002Z</time></trkpt><trkpt lat="42.017449490626" lon="1.1625286092635945"><ele>645.0</ele><time>2026-04-27T12:43:13.002Z</time></trkpt><trkpt lat="42.01743141494782" lon="1.1623774672776734"><ele>644.2</ele><time>2026-04-27T12:43:14.002Z</time></trkpt><trkpt lat="42.017433285468826" lon="1.1622306729707177"><ele>643.4</ele><time>2026-04-27T12:43:15.002Z</time></trkpt><trkpt lat="42.017447506078064" lon="1.162079875653659"><ele>642.5999999999999</ele><time>2026-04-27T12:43:16.002Z</time></trkpt><trkpt lat="42.017472557277735" lon="1.1619376219796078"><ele>641.8</ele><time>2026-04-27T12:43:17.002Z</time></trkpt><trkpt lat="42.017515854183856" lon="1.1617920196237614"><ele>641.0</ele><time>2026-04-27T12:43:18.002Z</time></trkpt><trkpt lat="42.017571095639596" lon="1.161655940866223"><ele>641.0</ele><time>2026-04-27T12:43:19.002Z</time></trkpt><trkpt lat="42.01765607336756" lon="1.161539229313695"><ele>641.0</ele><time>2026-04-27T12:43:20.002Z</time></trkpt><trkpt lat="42.017737034518774" lon="1.1614356035910134"><ele>641.0</ele><time>2026-04-27T12:43:21.002Z</time></trkpt><trkpt lat="42.01782563163739" lon="1.1613341932724546"><ele>641.0</ele><time>2026-04-27T12:43:22.002Z</time></trkpt><trkpt lat="42.01791853318929" lon="1.161242855990909"><ele>637.0</ele><time>2026-04-27T12:43:23.003Z</time></trkpt><trkpt lat="42.018017241546836" lon="1.1611576670829704"><ele>633.0</ele><time>2026-04-27T12:43:24.003Z</time></trkpt><trkpt lat="42.01811831279001" lon="1.16108100730269"><ele>629.0</ele><time>2026-04-27T12:43:25.003Z</time></trkpt><trkpt lat="42.01821899610509" lon="1.1610071846130765"><ele>625.0</ele><time>2026-04-27T12:43:26.003Z</time></trkpt><trkpt lat="42.018317853391814" lon="1.1609322236088544"><ele>624.25</ele><time>2026-04-27T12:43:27.003Z</time></trkpt><trkpt lat="42.018419172436865" lon="1.1608530875140435"><ele>623.5</ele><time>2026-04-27T12:43:28.003Z</time></trkpt><trkpt lat="42.01851502571531" lon="1.1607732578088739"><ele>622.75</ele><time>2026-04-27T12:43:29.003Z</time></trkpt><trkpt lat="42.01860905130334" lon="1.1606888843525087"><ele>622.0</ele><time>2026-04-27T12:43:30.003Z</time></trkpt><trkpt lat="42.01870149102562" lon="1.16059464284837"><ele>622.0</ele><time>2026-04-27T12:43:31.003Z</time></trkpt><trkpt lat="42.01879207241731" lon="1.1604923050943334"><ele>622.0</ele><time>2026-04-27T12:43:32.003Z</time></trkpt><trkpt lat="42.018863290704374" lon="1.1603752170500081"><ele>622.0</ele><time>2026-04-27T12:43:33.003Z</time></trkpt><trkpt lat="42.018911288025215" lon="1.1602431074860096"><ele>622.0</ele><time>2026-04-27T12:43:34.003Z</time></trkpt><trkpt lat="42.01892613462754" lon="1.1600573789491633"><ele>622.0</ele><time>2026-04-27T12:43:35.003Z</time></trkpt><trkpt lat="42.018968957562194" lon="1.1598853663614457"><ele>622.0</ele><time>2026-04-27T12:43:36.003Z</time></trkpt><trkpt lat="42.019081567767415" lon="1.1598178504981902"><ele>622.0</ele><time>2026-04-27T12:43:37.003Z</time></trkpt><trkpt lat="42.019089559949556" lon="1.159649458103308"><ele>622.0</ele><time>2026-04-27T12:43:38.003Z</time></trkpt><trkpt lat="42.01908474384017" lon="1.1594885083992705"><ele>620.5</ele><time>2026-04-27T12:43:39.003Z</time></trkpt><trkpt lat="42.019067516808136" lon="1.1593287866960982"><ele>619.0</ele><time>2026-04-27T12:43:40.003Z</time></trkpt><trkpt lat="42.019035926195706" lon="1.1591749568168523"><ele>617.5</ele><time>2026-04-27T12:43:41.003Z</time></trkpt><trkpt lat="42.01897521118106" lon="1.1590521653520593"><ele>616.0</ele><time>2026-04-27T12:43:42.003Z</time></trkpt><trkpt lat="42.01892273519215" lon="1.1588950938356348"><ele>619.0</ele><time>2026-04-27T12:43:43.003Z</time></trkpt><trkpt lat="42.01885108331625" lon="1.1587729948709022"><ele>622.0</ele><time>2026-04-27T12:43:44.003Z</time></trkpt><trkpt lat="42.01876879936469" lon="1.1586678880993033"><ele>625.0</ele><time>2026-04-27T12:43:45.003Z</time></trkpt><trkpt lat="42.01867944260347" lon="1.15857164618925"><ele>628.0</ele><time>2026-04-27T12:43:46.003Z</time></trkpt><trkpt lat="42.018579537347435" lon="1.158492374059075"><ele>628.0</ele><time>2026-04-27T12:43:47.003Z</time></trkpt><trkpt lat="42.01847372948814" lon="1.1584262751838623"><ele>628.0</ele><time>2026-04-27T12:43:48.003Z</time></trkpt><trkpt lat="42.01836336855755" lon="1.158373640514036"><ele>628.0</ele><time>2026-04-27T12:43:49.003Z</time></trkpt><trkpt lat="42.01825454072263" lon="1.1583340184492954"><ele>628.0</ele><time>2026-04-27T12:43:50.003Z</time></trkpt><trkpt lat="42.01813821943745" lon="1.1583025439281112"><ele>627.25</ele><time>2026-04-27T12:43:51Z</time></trkpt><trkpt lat="42.01802021490436" lon="1.1582834909295676"><ele>626.5</ele><time>2026-04-27T12:43:52Z</time></trkpt><trkpt lat="42.01790575704145" lon="1.1582703541864454"><ele>625.75</ele><time>2026-04-27T12:43:53Z</time></trkpt><trkpt lat="42.017787119141836" lon="1.1582616253892202"><ele>625.0</ele><time>2026-04-27T12:43:54Z</time></trkpt><trkpt lat="42.01766851290358" lon="1.1582574201173605"><ele>625.0</ele><time>2026-04-27T12:43:55Z</time></trkpt><trkpt lat="42.01754995174178" lon="1.1582568712294123"><ele>625.0</ele><time>2026-04-27T12:43:56Z</time></trkpt><trkpt lat="42.01743064230636" lon="1.1582484866874032"><ele>625.0</ele><time>2026-04-27T12:43:57Z</time></trkpt><trkpt lat="42.01731422748001" lon="1.15824307095472"><ele>625.0</ele><time>2026-04-27T12:43:58Z</time></trkpt><trkpt lat="42.017204565723866" lon="1.1582226691822628"><ele>624.75</ele><time>2026-04-27T12:43:59Z</time></trkpt><trkpt lat="42.01708994792589" lon="1.1582021882788631"><ele>624.5</ele><time>2026-04-27T12:44:00Z</time></trkpt><trkpt lat="42.01697290154268" lon="1.1581661795133342"><ele>624.25</ele><time>2026-04-27T12:44:01Z</time></trkpt><trkpt lat="42.01685830596499" lon="1.1581321713941075"><ele>624.0</ele><time>2026-04-27T12:44:02Z</time></trkpt><trkpt lat="42.01673937725048" lon="1.158096043043945"><ele>620.0</ele><time>2026-04-27T12:44:03Z</time></trkpt><trkpt lat="42.016623347827995" lon="1.1580569386232538"><ele>616.0</ele><time>2026-04-27T12:44:04Z</time></trkpt><trkpt lat="42.01651703984315" lon="1.158007923492769"><ele>612.0</ele><time>2026-04-27T12:44:05Z</time></trkpt><trkpt lat="42.01640422266882" lon="1.1579710411926767"><ele>608.0</ele><time>2026-04-27T12:44:06Z</time></trkpt><trkpt lat="42.01629339478616" lon="1.1579190201214686"><ele>608.0</ele><time>2026-04-27T12:44:07Z</time></trkpt><trkpt lat="42.016185280279736" lon="1.1578640898337662"><ele>608.0</ele><time>2026-04-27T12:44:08Z</time></trkpt><trkpt lat="42.016079936051526" lon="1.1578004836114182"><ele>608.0</ele><time>2026-04-27T12:44:09Z</time></trkpt><trkpt lat="42.01597418232287" lon="1.1577387636189367"><ele>608.0</ele><time>2026-04-27T12:44:10Z</time></trkpt><trkpt lat="42.0158658279997" lon="1.157671600703116"><ele>606.5</ele><time>2026-04-27T12:44:11Z</time></trkpt><trkpt lat="42.01576363119353" lon="1.1575991209865344"><ele>605.0</ele><time>2026-04-27T12:44:12Z</time></trkpt><trkpt lat="42.015662003738406" lon="1.1575239078263484"><ele>603.5</ele><time>2026-04-27T12:44:13Z</time></trkpt><trkpt lat="42.015557930156994" lon="1.1574546879205971"><ele>602.0</ele><time>2026-04-27T12:44:14Z</time></trkpt><trkpt lat="42.015449468065974" lon="1.1573808241659962"><ele>600.5</ele><time>2026-04-27T12:44:15Z</time></trkpt><trkpt lat="42.01534802078722" lon="1.1572857883597578"><ele>599.0</ele><time>2026-04-27T12:44:16Z</time></trkpt><trkpt lat="42.01530556516859" lon="1.1571392319203955"><ele>597.5</ele><time>2026-04-27T12:44:17Z</time></trkpt><trkpt lat="42.01527185189872" lon="1.1569591310543"><ele>596.0</ele><time>2026-04-27T12:44:18.001Z</time></trkpt><trkpt lat="42.015040883501364" lon="1.1570548866898869"><ele>594.25</ele><time>2026-04-27T12:44:19.001Z</time></trkpt><trkpt lat="42.01494100128387" lon="1.156971359261833"><ele>592.5</ele><time>2026-04-27T12:44:20.001Z</time></trkpt><trkpt lat="42.01483666448363" lon="1.1568898890004777"><ele>590.75</ele><time>2026-04-27T12:44:21.001Z</time></trkpt><trkpt lat="42.01473244427513" lon="1.1568053587922889"><ele>589.0</ele><time>2026-04-27T12:44:22.001Z</time></trkpt><trkpt lat="42.014635109795584" lon="1.1567227588018176"><ele>589.0</ele><time>2026-04-27T12:44:23.001Z</time></trkpt><trkpt lat="42.01453717936891" lon="1.1566458138722413"><ele>589.0</ele><time>2026-04-27T12:44:24.001Z</time></trkpt><trkpt lat="42.01443844543899" lon="1.1565626345711837"><ele>589.0</ele><time>2026-04-27T12:44:25.001Z</time></trkpt><trkpt lat="42.01433554742429" lon="1.1564793566278098"><ele>589.0</ele><time>2026-04-27T12:44:26.001Z</time></trkpt><trkpt lat="42.01423463697722" lon="1.1563969815730724"><ele>587.5</ele><time>2026-04-27T12:44:27.001Z</time></trkpt><trkpt lat="42.014133208078924" lon="1.1563141359040727"><ele>586.0</ele><time>2026-04-27T12:44:28.001Z</time></trkpt><trkpt lat="42.01403086749642" lon="1.156232392353361"><ele>584.5</ele><time>2026-04-27T12:44:29.001Z</time></trkpt><trkpt lat="42.01392896192766" lon="1.1561506649626607"><ele>583.0</ele><time>2026-04-27T12:44:30.001Z</time></trkpt><trkpt lat="42.01383164616529" lon="1.1560686878810587"><ele>583.0</ele><time>2026-04-27T12:44:31.001Z</time></trkpt><trkpt lat="42.01373747565004" lon="1.1559858750978536"><ele>583.0</ele><time>2026-04-27T12:44:32.001Z</time></trkpt><trkpt lat="42.013636787394304" lon="1.1559108845877086"><ele>583.0</ele><time>2026-04-27T12:44:33.001Z</time></trkpt><trkpt lat="42.01354186103689" lon="1.1558313735116597"><ele>583.0</ele><time>2026-04-27T12:44:34.001Z</time></trkpt><trkpt lat="42.01344364690205" lon="1.1557546798118454"><ele>586.0</ele><time>2026-04-27T12:44:35.001Z</time></trkpt><trkpt lat="42.013352946476886" lon="1.1556734921329452"><ele>589.0</ele><time>2026-04-27T12:44:36.001Z</time></trkpt><trkpt lat="42.01325841022279" lon="1.1555871911907034"><ele>592.0</ele><time>2026-04-27T12:44:37.001Z</time></trkpt><trkpt lat="42.013172979069694" lon="1.1554982004109218"><ele>595.0</ele><time>2026-04-27T12:44:38.001Z</time></trkpt><trkpt lat="42.01308801849122" lon="1.155398339772852"><ele>598.0</ele><time>2026-04-27T12:44:39.001Z</time></trkpt><trkpt lat="42.01300929885122" lon="1.1553011337876602"><ele>598.1999999999999</ele><time>2026-04-27T12:44:40.001Z</time></trkpt><trkpt lat="42.01294520525192" lon="1.1551930889284308"><ele>598.4</ele><time>2026-04-27T12:44:41.001Z</time></trkpt><trkpt lat="42.01287923130308" lon="1.1550836223584278"><ele>598.5999999999999</ele><time>2026-04-27T12:44:42.001Z</time></trkpt><trkpt lat="42.01282873837844" lon="1.1549761776809924"><ele>598.8</ele><time>2026-04-27T12:44:43.001Z</time></trkpt><trkpt lat="42.01278034993784" lon="1.1548720805159132"><ele>599.0</ele><time>2026-04-27T12:44:44.001Z</time></trkpt><trkpt lat="42.012740413791576" lon="1.1547624470551603"><ele>599.0</ele><time>2026-04-27T12:44:45.001Z</time></trkpt><trkpt lat="42.012703506559724" lon="1.154655686447602"><ele>599.0</ele><time>2026-04-27T12:44:46.001Z</time></trkpt><trkpt lat="42.01267841069565" lon="1.1545404999394615"><ele>599.0</ele><time>2026-04-27T12:44:47.001Z</time></trkpt><trkpt lat="42.01264976668419" lon="1.154426355809198"><ele>599.0</ele><time>2026-04-27T12:44:48.001Z</time></trkpt><trkpt lat="42.012625998622525" lon="1.1543137077273797"><ele>599.0</ele><time>2026-04-27T12:44:49.001Z</time></trkpt><trkpt lat="42.012602230909955" lon="1.1541844985833103"><ele>599.0</ele><time>2026-04-27T12:44:50.001Z</time></trkpt><trkpt lat="42.01259263438624" lon="1.15408985388344"><ele>599.0</ele><time>2026-04-27T12:44:51.002Z</time></trkpt><trkpt lat="42.01258733357145" lon="1.153974486206337"><ele>599.0</ele><time>2026-04-27T12:44:52.002Z</time></trkpt><trkpt lat="42.012579325124264" lon="1.1538544055554047"><ele>599.0</ele><time>2026-04-27T12:44:53.002Z</time></trkpt><trkpt lat="42.01257906846772" lon="1.1537384345789319"><ele>599.0</ele><time>2026-04-27T12:44:54.002Z</time></trkpt><trkpt lat="42.01258624884523" lon="1.1536204698663814"><ele>599.0</ele><time>2026-04-27T12:44:55.002Z</time></trkpt><trkpt lat="42.01259397512064" lon="1.1534965775120254"><ele>599.0</ele><time>2026-04-27T12:44:56.002Z</time></trkpt><trkpt lat="42.0126045500631" lon="1.1533722162436746"><ele>599.0</ele><time>2026-04-27T12:44:57.002Z</time></trkpt><trkpt lat="42.01261539228773" lon="1.1532470152236094"><ele>599.0</ele><time>2026-04-27T12:44:58.002Z</time></trkpt><trkpt lat="42.012627480304836" lon="1.153121698656065"><ele>599.0</ele><time>2026-04-27T12:44:59.002Z</time></trkpt><trkpt lat="42.012643801725545" lon="1.1529986530196996"><ele>599.0</ele><time>2026-04-27T12:45:00.002Z</time></trkpt><trkpt lat="42.01266730525534" lon="1.1528755799226764"><ele>599.4</ele><time>2026-04-27T12:45:01.002Z</time></trkpt><trkpt lat="42.01269495518633" lon="1.1527569809149065"><ele>599.8</ele><time>2026-04-27T12:45:02.002Z</time></trkpt><trkpt lat="42.01270003723925" lon="1.1526187231356264"><ele>600.2</ele><time>2026-04-27T12:45:03.002Z</time></trkpt><trkpt lat="42.01270857584569" lon="1.1524870615634948"><ele>600.6</ele><time>2026-04-27T12:45:04.002Z</time></trkpt><trkpt lat="42.01271399317955" lon="1.1523583424827342"><ele>601.0</ele><time>2026-04-27T12:45:05.002Z</time></trkpt><trkpt lat="42.012718425991324" lon="1.1522299493196155"><ele>602.6</ele><time>2026-04-27T12:45:06.002Z</time></trkpt><trkpt lat="42.012728910624375" lon="1.1521127123941848"><ele>604.2</ele><time>2026-04-27T12:45:07.002Z</time></trkpt><trkpt lat="42.012729290150986" lon="1.1519840134387749"><ele>605.8</ele><time>2026-04-27T12:45:08.002Z</time></trkpt><trkpt lat="42.01272836750891" lon="1.1518597075513128"><ele>607.4</ele><time>2026-04-27T12:45:09.002Z</time></trkpt><trkpt lat="42.012720394976725" lon="1.1517374501898103"><ele>609.0</ele><time>2026-04-27T12:45:10.002Z</time></trkpt><trkpt lat="42.0127110824554" lon="1.1516212951356952"><ele>610.3333333333334</ele><time>2026-04-27T12:45:11.002Z</time></trkpt><trkpt lat="42.012691200507135" lon="1.1515037681655171"><ele>611.6666666666666</ele><time>2026-04-27T12:45:12.002Z</time></trkpt><trkpt lat="42.01266382010572" lon="1.1513929315568143"><ele>613.0</ele><time>2026-04-27T12:45:13.002Z</time></trkpt><trkpt lat="42.0126264291357" lon="1.1512864128031643"><ele>614.3333333333333</ele><time>2026-04-27T12:45:14.002Z</time></trkpt><trkpt lat="42.01258710528825" lon="1.1511856968062069"><ele>615.6666666666666</ele><time>2026-04-27T12:45:15.002Z</time></trkpt><trkpt lat="42.012541961288086" lon="1.1510899469108455"><ele>617.0</ele><time>2026-04-27T12:45:16.002Z</time></trkpt><trkpt lat="42.01249276420672" lon="1.150997848543187"><ele>618.1666666666666</ele><time>2026-04-27T12:45:17.002Z</time></trkpt><trkpt lat="42.012446880582786" lon="1.1509358218137367"><ele>619.3333333333333</ele><time>2026-04-27T12:45:18.002Z</time></trkpt><trkpt lat="42.01237068133692" lon="1.1508496332177571"><ele>620.5</ele><time>2026-04-27T12:45:19.002Z</time></trkpt><trkpt lat="42.01230114971414" lon="1.150784752346217"><ele>621.6666666666666</ele><time>2026-04-27T12:45:20.002Z</time></trkpt><trkpt lat="42.01223519081231" lon="1.1507226939304078"><ele>622.8333333333334</ele><time>2026-04-27T12:45:21.002Z</time></trkpt><trkpt lat="42.012159178890755" lon="1.1506697864456128"><ele>624.0</ele><time>2026-04-27T12:45:22.002Z</time></trkpt><trkpt lat="42.01208902882242" lon="1.1506169310448897"><ele>624.3333333333334</ele><time>2026-04-27T12:45:23.002Z</time></trkpt><trkpt lat="42.01201646374928" lon="1.1505719861999932"><ele>624.6666666666666</ele><time>2026-04-27T12:45:24.002Z</time></trkpt><trkpt lat="42.01193939789459" lon="1.1505319461228476"><ele>625.0</ele><time>2026-04-27T12:45:25.003Z</time></trkpt><trkpt lat="42.01186443761042" lon="1.1504955961511354"><ele>625.3333333333333</ele><time>2026-04-27T12:45:26.003Z</time></trkpt><trkpt lat="42.01178871054589" lon="1.150458375154081"><ele>625.6666666666666</ele><time>2026-04-27T12:45:27.003Z</time></trkpt><trkpt lat="42.011710258030625" lon="1.1504413765937416"><ele>626.0</ele><time>2026-04-27T12:45:28.003Z</time></trkpt><trkpt lat="42.011631285811376" lon="1.1504226309518795"><ele>626.0</ele><time>2026-04-27T12:45:29.003Z</time></trkpt><trkpt lat="42.011552627215856" lon="1.1504020455075636"><ele>626.0</ele><time>2026-04-27T12:45:30.003Z</time></trkpt><trkpt lat="42.0114759093592" lon="1.1503852272812205"><ele>626.0</ele><time>2026-04-27T12:45:31.003Z</time></trkpt><trkpt lat="42.01139457253936" lon="1.1503726681497277"><ele>626.0</ele><time>2026-04-27T12:45:32.003Z</time></trkpt><trkpt lat="42.01131407014057" lon="1.1503614917990617"><ele>626.0</ele><time>2026-04-27T12:45:33.003Z</time></trkpt><trkpt lat="42.01122905061573" lon="1.1503520467739452"><ele>626.0</ele><time>2026-04-27T12:45:34.003Z</time></trkpt><trkpt lat="42.01114248573145" lon="1.1503464063055124"><ele>626.0</ele><time>2026-04-27T12:45:35.003Z</time></trkpt><trkpt lat="42.0110554591832" lon="1.1503400465348905"><ele>626.0</ele><time>2026-04-27T12:45:36.003Z</time></trkpt><trkpt lat="42.01096245653008" lon="1.1503295819439543"><ele>626.0</ele><time>2026-04-27T12:45:37.003Z</time></trkpt><trkpt lat="42.0108681209027" lon="1.1503234442707662"><ele>626.0</ele><time>2026-04-27T12:45:38.003Z</time></trkpt><trkpt lat="42.01077325296717" lon="1.1503166573916281"><ele>626.0</ele><time>2026-04-27T12:45:39.003Z</time></trkpt><trkpt lat="42.010676118092" lon="1.150311186623587"><ele>625.0</ele><time>2026-04-27T12:45:40.003Z</time></trkpt><trkpt lat="42.01057804644874" lon="1.1503005222851141"><ele>624.0</ele><time>2026-04-27T12:45:41.003Z</time></trkpt><trkpt lat="42.01047388802843" lon="1.1502831144060097"><ele>623.0</ele><time>2026-04-27T12:45:42.003Z</time></trkpt><trkpt lat="42.01036747338414" lon="1.1502636840972338"><ele>622.0</ele><time>2026-04-27T12:45:43.003Z</time></trkpt><trkpt lat="42.01026228184236" lon="1.1502409114300476"><ele>621.0</ele><time>2026-04-27T12:45:44.003Z</time></trkpt><trkpt lat="42.01015602771132" lon="1.1502131250556922"><ele>621.0</ele><time>2026-04-27T12:45:45.003Z</time></trkpt><trkpt lat="42.0100525290118" lon="1.1501763894508443"><ele>621.0</ele><time>2026-04-27T12:45:46.003Z</time></trkpt><trkpt lat="42.009948694433284" lon="1.1501292591106447"><ele>621.0</ele><time>2026-04-27T12:45:47.003Z</time></trkpt><trkpt lat="42.0098451745514" lon="1.150069045781455"><ele>621.0</ele><time>2026-04-27T12:45:48.003Z</time></trkpt><trkpt lat="42.00974471903281" lon="1.1500062129019049"><ele>621.0</ele><time>2026-04-27T12:45:49.003Z</time></trkpt><trkpt lat="42.00964556747896" lon="1.1499357574290503"><ele>620.0</ele><time>2026-04-27T12:45:50.003Z</time></trkpt><trkpt lat="42.00955161886976" lon="1.1498493233034959"><ele>619.0</ele><time>2026-04-27T12:45:51.003Z</time></trkpt><trkpt lat="42.009463753265536" lon="1.1497481584171776"><ele>618.0</ele><time>2026-04-27T12:45:52.003Z</time></trkpt><trkpt lat="42.0093845052836" lon="1.149640177004169"><ele>617.0</ele><time>2026-04-27T12:45:53.003Z</time></trkpt><trkpt lat="42.00931268935133" lon="1.1495204654278863"><ele>617.0</ele><time>2026-04-27T12:45:54.003Z</time></trkpt><trkpt lat="42.00924825632351" lon="1.1493921754872014"><ele>617.0</ele><time>2026-04-27T12:45:55.003Z</time></trkpt><trkpt lat="42.00919222148889" lon="1.149254634698594"><ele>617.0</ele><time>2026-04-27T12:45:56.003Z</time></trkpt><trkpt lat="42.00914645791228" lon="1.1491134459787418"><ele>617.0</ele><time>2026-04-27T12:45:57Z</time></trkpt><trkpt lat="42.009112189698534" lon="1.1489635014019508"><ele>614.0</ele><time>2026-04-27T12:45:58Z</time></trkpt><trkpt lat="42.00908808490592" lon="1.1488100165187776"><ele>611.0</ele><time>2026-04-27T12:45:59Z</time></trkpt><trkpt lat="42.00906256403364" lon="1.14866228272887"><ele>608.0</ele><time>2026-04-27T12:46:00Z</time></trkpt><trkpt lat="42.009051373255005" lon="1.1485008915773385"><ele>605.0</ele><time>2026-04-27T12:46:01Z</time></trkpt><trkpt lat="42.009047058291934" lon="1.1483392980872895"><ele>605.5</ele><time>2026-04-27T12:46:02Z</time></trkpt><trkpt lat="42.009027283131985" lon="1.148193720918523"><ele>606.0</ele><time>2026-04-27T12:46:03Z</time></trkpt><trkpt lat="42.00901178387006" lon="1.1480355105949949"><ele>606.5</ele><time>2026-04-27T12:46:04Z</time></trkpt><trkpt lat="42.00899496867633" lon="1.1478783101333845"><ele>607.0</ele><time>2026-04-27T12:46:05Z</time></trkpt><trkpt lat="42.00898352769957" lon="1.1477284516522304"><ele>607.0</ele><time>2026-04-27T12:46:06Z</time></trkpt><trkpt lat="42.00896037249846" lon="1.1475763404817103"><ele>607.0</ele><time>2026-04-27T12:46:07Z</time></trkpt><trkpt lat="42.00892982678095" lon="1.1474293074437532"><ele>607.0</ele><time>2026-04-27T12:46:08Z</time></trkpt><trkpt lat="42.008890046903055" lon="1.1472922596706112"><ele>607.0</ele><time>2026-04-27T12:46:09Z</time></trkpt><trkpt lat="42.00884995201734" lon="1.147154530405629"><ele>607.0</ele><time>2026-04-27T12:46:10Z</time></trkpt><trkpt lat="42.00880543943716" lon="1.1470144173044665"><ele>608.8000000000001</ele><time>2026-04-27T12:46:11Z</time></trkpt><trkpt lat="42.008760366959805" lon="1.1468760570835868"><ele>610.6</ele><time>2026-04-27T12:46:12Z</time></trkpt><trkpt lat="42.00871263730862" lon="1.146742132832147"><ele>612.4000000000001</ele><time>2026-04-27T12:46:13Z</time></trkpt><trkpt lat="42.008666018268926" lon="1.1466079982441175"><ele>614.2</ele><time>2026-04-27T12:46:14Z</time></trkpt><trkpt lat="42.008619840433084" lon="1.146475809143141"><ele>616.0</ele><time>2026-04-27T12:46:15Z</time></trkpt><trkpt lat="42.0085733252969" lon="1.146347841064611"><ele>616.0</ele><time>2026-04-27T12:46:16Z</time></trkpt><trkpt lat="42.0085311227912" lon="1.1462161517291292"><ele>616.0</ele><time>2026-04-27T12:46:17Z</time></trkpt><trkpt lat="42.00848724755643" lon="1.146087509051112"><ele>616.0</ele><time>2026-04-27T12:46:18Z</time></trkpt><trkpt lat="42.00844109920423" lon="1.1459615153478369"><ele>616.0</ele><time>2026-04-27T12:46:19Z</time></trkpt><trkpt lat="42.00839288416381" lon="1.1458336451240956"><ele>616.0</ele><time>2026-04-27T12:46:20Z</time></trkpt><trkpt lat="42.00835705527941" lon="1.1457061366008945"><ele>613.4</ele><time>2026-04-27T12:46:21Z</time></trkpt><trkpt lat="42.00832066726584" lon="1.145575613195302"><ele>610.8</ele><time>2026-04-27T12:46:22Z</time></trkpt><trkpt lat="42.008284753031326" lon="1.1454454352247831"><ele>608.1999999999999</ele><time>2026-04-27T12:46:23Z</time></trkpt><trkpt lat="42.00825050366809" lon="1.145313736960834"><ele>605.6</ele><time>2026-04-27T12:46:24Z</time></trkpt><trkpt lat="42.008217282968104" lon="1.145181595075291"><ele>603.0</ele><time>2026-04-27T12:46:25Z</time></trkpt><trkpt lat="42.00818335219525" lon="1.1450482431802753"><ele>603.0</ele><time>2026-04-27T12:46:26Z</time></trkpt><trkpt lat="42.00814815427336" lon="1.1449158962909862"><ele>603.0</ele><time>2026-04-27T12:46:27Z</time></trkpt><trkpt lat="42.00811554631389" lon="1.1447829340392606"><ele>603.0</ele><time>2026-04-27T12:46:28Z</time></trkpt><trkpt lat="42.00808306782869" lon="1.1446499258541754"><ele>603.0</ele><time>2026-04-27T12:46:29Z</time></trkpt><trkpt lat="42.00804678830342" lon="1.1445173015736068"><ele>603.0</ele><time>2026-04-27T12:46:30Z</time></trkpt><trkpt lat="42.008010066489895" lon="1.1443852216265717"><ele>603.4</ele><time>2026-04-27T12:46:31Z</time></trkpt><trkpt lat="42.00797980379598" lon="1.14425243985409"><ele>603.8</ele><time>2026-04-27T12:46:32Z</time></trkpt><trkpt lat="42.00795010080939" lon="1.1441200379429362"><ele>604.2</ele><time>2026-04-27T12:46:33.001Z</time></trkpt><trkpt lat="42.007920902031245" lon="1.143987079777828"><ele>604.6</ele><time>2026-04-27T12:46:34.001Z</time></trkpt><trkpt lat="42.00789019656709" lon="1.143855772416911"><ele>605.0</ele><time>2026-04-27T12:46:35.001Z</time></trkpt><trkpt lat="42.007859342570896" lon="1.143728027273606"><ele>606.8</ele><time>2026-04-27T12:46:36.001Z</time></trkpt><trkpt lat="42.00782751059886" lon="1.1435996014890926"><ele>608.6</ele><time>2026-04-27T12:46:37.001Z</time></trkpt><trkpt lat="42.00780127040649" lon="1.1434735377434504"><ele>610.4</ele><time>2026-04-27T12:46:38.001Z</time></trkpt><trkpt lat="42.007772301765876" lon="1.1433461252201533"><ele>612.2</ele><time>2026-04-27T12:46:39.001Z</time></trkpt><trkpt lat="42.007748019280044" lon="1.1432192645544554"><ele>614.0</ele><time>2026-04-27T12:46:40.001Z</time></trkpt><trkpt lat="42.007713325111446" lon="1.1430969072928774"><ele>615.6</ele><time>2026-04-27T12:46:41.001Z</time></trkpt><trkpt lat="42.00767796097906" lon="1.1429729228514345"><ele>617.2</ele><time>2026-04-27T12:46:42.001Z</time></trkpt><trkpt lat="42.00765249824312" lon="1.142841090865344"><ele>618.8000000000001</ele><time>2026-04-27T12:46:43.001Z</time></trkpt><trkpt lat="42.00762329142626" lon="1.1427132346624487"><ele>620.4</ele><time>2026-04-27T12:46:44.001Z</time></trkpt><trkpt lat="42.007592168659606" lon="1.1425908103622138"><ele>622.0</ele><time>2026-04-27T12:46:45.001Z</time></trkpt><trkpt lat="42.00756128409138" lon="1.142471056405818"><ele>622.4</ele><time>2026-04-27T12:46:46.001Z</time></trkpt><trkpt lat="42.007528465521204" lon="1.1423417093214978"><ele>622.8000000000001</ele><time>2026-04-27T12:46:47.001Z</time></trkpt><trkpt lat="42.00749800041462" lon="1.1422092169679936"><ele>623.2</ele><time>2026-04-27T12:46:48.001Z</time></trkpt><trkpt lat="42.00746578785402" lon="1.1420778850010374"><ele>623.6</ele><time>2026-04-27T12:46:49.001Z</time></trkpt><trkpt lat="42.00744227003309" lon="1.141954999645771"><ele>624.0</ele><time>2026-04-27T12:46:50.001Z</time></trkpt><trkpt lat="42.00740892879549" lon="1.141832027033888"><ele>623.0</ele><time>2026-04-27T12:46:51.001Z</time></trkpt><trkpt lat="42.00737608367868" lon="1.1416992591566673"><ele>622.0</ele><time>2026-04-27T12:46:52.001Z</time></trkpt><trkpt lat="42.00734801851415" lon="1.141577795771211"><ele>621.0</ele><time>2026-04-27T12:46:53.001Z</time></trkpt><trkpt lat="42.007322987980615" lon="1.1414540434069926"><ele>620.0</ele><time>2026-04-27T12:46:54.001Z</time></trkpt><trkpt lat="42.00729539339215" lon="1.1413265929791099"><ele>619.0</ele><time>2026-04-27T12:46:55.001Z</time></trkpt><trkpt lat="42.00726858599584" lon="1.1412010348756305"><ele>618.4</ele><time>2026-04-27T12:46:56.001Z</time></trkpt><trkpt lat="42.00723880424603" lon="1.1410746988708371"><ele>617.8</ele><time>2026-04-27T12:46:57.001Z</time></trkpt><trkpt lat="42.00720977914568" lon="1.140944643592789"><ele>617.2</ele><time>2026-04-27T12:46:58.001Z</time></trkpt><trkpt lat="42.00718479315905" lon="1.140818668778811"><ele>616.6</ele><time>2026-04-27T12:46:59.001Z</time></trkpt><trkpt lat="42.00716173709085" lon="1.1406884841228488"><ele>616.0</ele><time>2026-04-27T12:47:00.001Z</time></trkpt><trkpt lat="42.007136835036356" lon="1.1405550717767863"><ele>616.0</ele><time>2026-04-27T12:47:01.001Z</time></trkpt><trkpt lat="42.0071166231739" lon="1.140418450763973"><ele>616.0</ele><time>2026-04-27T12:47:02.001Z</time></trkpt><trkpt lat="42.00710264291276" lon="1.140276328840089"><ele>616.0</ele><time>2026-04-27T12:47:03.001Z</time></trkpt><trkpt lat="42.007096596487045" lon="1.1401340037062273"><ele>616.0</ele><time>2026-04-27T12:47:04.001Z</time></trkpt><trkpt lat="42.00712232258768" lon="1.1399875183685673"><ele>616.0</ele><time>2026-04-27T12:47:05.001Z</time></trkpt><trkpt lat="42.00712991727645" lon="1.1398442491210223"><ele>617.0</ele><time>2026-04-27T12:47:06.002Z</time></trkpt><trkpt lat="42.00714208987745" lon="1.1397018494013518"><ele>618.0</ele><time>2026-04-27T12:47:07.002Z</time></trkpt><trkpt lat="42.00715912814436" lon="1.139555365423705"><ele>619.0</ele><time>2026-04-27T12:47:08.002Z</time></trkpt><trkpt lat="42.00718049817707" lon="1.1394129452332087"><ele>620.0</ele><time>2026-04-27T12:47:09.002Z</time></trkpt><trkpt lat="42.00720904808449" lon="1.1392675373361103"><ele>621.0</ele><time>2026-04-27T12:47:10.002Z</time></trkpt><trkpt lat="42.007245757713214" lon="1.1391270867756544"><ele>619.0</ele><time>2026-04-27T12:47:11.002Z</time></trkpt><trkpt lat="42.00729178256514" lon="1.1389861505543668"><ele>617.0</ele><time>2026-04-27T12:47:12.002Z</time></trkpt><trkpt lat="42.0073423652293" lon="1.1388503477387493"><ele>615.0</ele><time>2026-04-27T12:47:13.002Z</time></trkpt><trkpt lat="42.00739876977766" lon="1.1387213071142896"><ele>613.0</ele><time>2026-04-27T12:47:14.002Z</time></trkpt><trkpt lat="42.007463512217264" lon="1.1385965810109175"><ele>614.0</ele><time>2026-04-27T12:47:15.002Z</time></trkpt><trkpt lat="42.00753439163764" lon="1.1384759689528237"><ele>615.0</ele><time>2026-04-27T12:47:16.002Z</time></trkpt><trkpt lat="42.007596572743914" lon="1.1383437432100039"><ele>616.0</ele><time>2026-04-27T12:47:17.002Z</time></trkpt><trkpt lat="42.00767380337253" lon="1.138229888716743"><ele>617.0</ele><time>2026-04-27T12:47:18.002Z</time></trkpt><trkpt lat="42.00776422464507" lon="1.1381396306112244"><ele>615.0</ele><time>2026-04-27T12:47:19.002Z</time></trkpt><trkpt lat="42.00784561441696" lon="1.1380408874465984"><ele>613.0</ele><time>2026-04-27T12:47:20.002Z</time></trkpt><trkpt lat="42.00792176577544" lon="1.137927867122354"><ele>611.0</ele><time>2026-04-27T12:47:21.002Z</time></trkpt><trkpt lat="42.008011561762" lon="1.137833030200159"><ele>609.0</ele><time>2026-04-27T12:47:22.002Z</time></trkpt><trkpt lat="42.00810582908815" lon="1.1377452849952117"><ele>609.0</ele><time>2026-04-27T12:47:23.002Z</time></trkpt><trkpt lat="42.00819407186989" lon="1.1376504601441655"><ele>609.0</ele><time>2026-04-27T12:47:24.002Z</time></trkpt><trkpt lat="42.008280706836175" lon="1.1375604579445493"><ele>609.0</ele><time>2026-04-27T12:47:25.002Z</time></trkpt><trkpt lat="42.00836867079056" lon="1.1374748061690527"><ele>609.0</ele><time>2026-04-27T12:47:26.002Z</time></trkpt><trkpt lat="42.008459630624834" lon="1.137388549457702"><ele>609.0</ele><time>2026-04-27T12:47:27.002Z</time></trkpt><trkpt lat="42.00855275925997" lon="1.137302313866121"><ele>609.4</ele><time>2026-04-27T12:47:28.002Z</time></trkpt><trkpt lat="42.00864702363286" lon="1.1372138654649637"><ele>609.8</ele><time>2026-04-27T12:47:29.002Z</time></trkpt><trkpt lat="42.00873633836921" lon="1.1371192821486253"><ele>610.2</ele><time>2026-04-27T12:47:30.002Z</time></trkpt><trkpt lat="42.00882035713" lon="1.1370239403652864"><ele>610.6</ele><time>2026-04-27T12:47:31.002Z</time></trkpt><trkpt lat="42.00890306131996" lon="1.136927172111335"><ele>611.0</ele><time>2026-04-27T12:47:32.002Z</time></trkpt><trkpt lat="42.00897888306717" lon="1.136820788794238"><ele>611.0</ele><time>2026-04-27T12:47:33.002Z</time></trkpt><trkpt lat="42.00906728692583" lon="1.1367286576527775"><ele>611.0</ele><time>2026-04-27T12:47:34.002Z</time></trkpt><trkpt lat="42.009140147649845" lon="1.1366158491573022"><ele>611.0</ele><time>2026-04-27T12:47:35.002Z</time></trkpt><trkpt lat="42.00919643012818" lon="1.136491657266029"><ele>611.0</ele><time>2026-04-27T12:47:36.002Z</time></trkpt><trkpt lat="42.00927430622386" lon="1.13638686754742"><ele>611.0</ele><time>2026-04-27T12:47:37.002Z</time></trkpt><trkpt lat="42.00932127623415" lon="1.1362652627462124"><ele>612.0</ele><time>2026-04-27T12:47:38.002Z</time></trkpt><trkpt lat="42.00938827153895" lon="1.1361350976257458"><ele>613.0</ele><time>2026-04-27T12:47:39.003Z</time></trkpt><trkpt lat="42.00945118423248" lon="1.1360104043578507"><ele>614.0</ele><time>2026-04-27T12:47:40.003Z</time></trkpt><trkpt lat="42.00950089602878" lon="1.1358794324894794"><ele>615.0</ele><time>2026-04-27T12:47:41.003Z</time></trkpt><trkpt lat="42.009547351767075" lon="1.1357465823059274"><ele>616.0</ele><time>2026-04-27T12:47:42.003Z</time></trkpt><trkpt lat="42.009589263345816" lon="1.135609399410603"><ele>616.0</ele><time>2026-04-27T12:47:43.003Z</time></trkpt><trkpt lat="42.00962785228094" lon="1.1354686596468286"><ele>616.0</ele><time>2026-04-27T12:47:44.003Z</time></trkpt><trkpt lat="42.0096611554439" lon="1.1353264839551365"><ele>616.0</ele><time>2026-04-27T12:47:45.003Z</time></trkpt><trkpt lat="42.00969723904874" lon="1.1351849747438603"><ele>616.0</ele><time>2026-04-27T12:47:46.003Z</time></trkpt><trkpt lat="42.00974932190763" lon="1.1350555824008188"><ele>616.0</ele><time>2026-04-27T12:47:47.003Z</time></trkpt><trkpt lat="42.00978794510072" lon="1.1349215903653995"><ele>617.75</ele><time>2026-04-27T12:47:48.003Z</time></trkpt><trkpt lat="42.00982874869815" lon="1.1347887108103483"><ele>619.5</ele><time>2026-04-27T12:47:49.003Z</time></trkpt><trkpt lat="42.00986978140934" lon="1.1346728117030849"><ele>621.25</ele><time>2026-04-27T12:47:50.003Z</time></trkpt><trkpt lat="42.00994069911234" lon="1.1345007044066764"><ele>623.0</ele><time>2026-04-27T12:47:51.003Z</time></trkpt><trkpt lat="42.00998464401373" lon="1.1343593522762303"><ele>622.6</ele><time>2026-04-27T12:47:52.003Z</time></trkpt><trkpt lat="42.01006209363019" lon="1.1342466784740706"><ele>622.1999999999999</ele><time>2026-04-27T12:47:53.003Z</time></trkpt><trkpt lat="42.01012723848181" lon="1.134129427183559"><ele>621.8</ele><time>2026-04-27T12:47:54.003Z</time></trkpt><trkpt lat="42.010198117932475" lon="1.134017747642187"><ele>621.4</ele><time>2026-04-27T12:47:55.003Z</time></trkpt><trkpt lat="42.01026056310478" lon="1.1339266203051261"><ele>621.0</ele><time>2026-04-27T12:47:56.003Z</time></trkpt><trkpt lat="42.01033860143869" lon="1.1338201869696878"><ele>624.6</ele><time>2026-04-27T12:47:57.003Z</time></trkpt><trkpt lat="42.01040801053574" lon="1.1337129956983523"><ele>628.2</ele><time>2026-04-27T12:47:58.003Z</time></trkpt><trkpt lat="42.01048706318165" lon="1.1336253358477695"><ele>631.8</ele><time>2026-04-27T12:47:59.003Z</time></trkpt><trkpt lat="42.01056434613123" lon="1.1335391641462351"><ele>635.4</ele><time>2026-04-27T12:48:00.003Z</time></trkpt><trkpt lat="42.01063967622407" lon="1.1334586050665962"><ele>639.0</ele><time>2026-04-27T12:48:01.003Z</time></trkpt><trkpt lat="42.01071813452292" lon="1.1333821038789804"><ele>639.0</ele><time>2026-04-27T12:48:02.003Z</time></trkpt><trkpt lat="42.01079973026538" lon="1.1333070605170432"><ele>639.0</ele><time>2026-04-27T12:48:02.999Z</time></trkpt><trkpt lat="42.01087615303091" lon="1.133237748977487"><ele>639.0</ele><time>2026-04-27T12:48:03.999Z</time></trkpt><trkpt lat="42.01096135451215" lon="1.1331781574774646"><ele>639.0</ele><time>2026-04-27T12:48:04.999Z</time></trkpt><trkpt lat="42.011048207616234" lon="1.133122708950216"><ele>639.0</ele><time>2026-04-27T12:48:05.999Z</time></trkpt><trkpt lat="42.0111340787637" lon="1.1330701934123133"><ele>640.8</ele><time>2026-04-27T12:48:06.999Z</time></trkpt><trkpt lat="42.01121970917186" lon="1.1330238426729002"><ele>642.5999999999999</ele><time>2026-04-27T12:48:07.999Z</time></trkpt><trkpt lat="42.01130416626613" lon="1.1329731065807747"><ele>644.4</ele><time>2026-04-27T12:48:08.999Z</time></trkpt><trkpt lat="42.01138879545385" lon="1.132924341192625"><ele>646.1999999999999</ele><time>2026-04-27T12:48:09.999Z</time></trkpt><trkpt lat="42.01147667447481" lon="1.1328950596221343"><ele>648.0</ele><time>2026-04-27T12:48:10.999Z</time></trkpt><trkpt lat="42.0115634325608" lon="1.1328677684969748"><ele>648.0</ele><time>2026-04-27T12:48:11.999Z</time></trkpt><trkpt lat="42.01164906077901" lon="1.1328475096634092"><ele>648.0</ele><time>2026-04-27T12:48:12.999Z</time></trkpt><trkpt lat="42.011738831304505" lon="1.1328152810556953"><ele>648.0</ele><time>2026-04-27T12:48:14Z</time></trkpt><trkpt lat="42.01182795965105" lon="1.1327893435534118"><ele>648.0</ele><time>2026-04-27T12:48:15Z</time></trkpt><trkpt lat="42.01191744772458" lon="1.1327693373855952"><ele>648.0</ele><time>2026-04-27T12:48:16Z</time></trkpt><trkpt lat="42.01200720057676" lon="1.1327532391291817"><ele>647.5</ele><time>2026-04-27T12:48:17Z</time></trkpt><trkpt lat="42.012093060052315" lon="1.1327340362136635"><ele>647.0</ele><time>2026-04-27T12:48:18Z</time></trkpt><trkpt lat="42.012182469320706" lon="1.1327163176371708"><ele>646.5</ele><time>2026-04-27T12:48:19Z</time></trkpt><trkpt lat="42.01227118948001" lon="1.1326993991597207"><ele>646.0</ele><time>2026-04-27T12:48:20Z</time></trkpt><trkpt lat="42.01235832056244" lon="1.1326740089072669"><ele>645.5</ele><time>2026-04-27T12:48:21Z</time></trkpt><trkpt lat="42.01244610087" lon="1.1326430056756427"><ele>645.0</ele><time>2026-04-27T12:48:22Z</time></trkpt><trkpt lat="42.01253407225037" lon="1.1326098534748932"><ele>644.5</ele><time>2026-04-27T12:48:23Z</time></trkpt><trkpt lat="42.012616354388285" lon="1.1325716787608868"><ele>644.0</ele><time>2026-04-27T12:48:24Z</time></trkpt><trkpt lat="42.01269758233648" lon="1.1325318734145622"><ele>643.5</ele><time>2026-04-27T12:48:25Z</time></trkpt><trkpt lat="42.01277652629882" lon="1.1324769093726328"><ele>643.0</ele><time>2026-04-27T12:48:26Z</time></trkpt><trkpt lat="42.0128514602352" lon="1.1324202583232446"><ele>642.5</ele><time>2026-04-27T12:48:27Z</time></trkpt><trkpt lat="42.01292316835761" lon="1.1323502422008602"><ele>642.0</ele><time>2026-04-27T12:48:28Z</time></trkpt><trkpt lat="42.012988372008245" lon="1.1322685038935152"><ele>643.8333333333334</ele><time>2026-04-27T12:48:29Z</time></trkpt><trkpt lat="42.013050128644004" lon="1.1321917492100244"><ele>645.6666666666666</ele><time>2026-04-27T12:48:30Z</time></trkpt><trkpt lat="42.013109358369505" lon="1.1321088419570324"><ele>647.5</ele><time>2026-04-27T12:48:31Z</time></trkpt><trkpt lat="42.01316230543634" lon="1.1320167170152846"><ele>649.3333333333333</ele><time>2026-04-27T12:48:32Z</time></trkpt><trkpt lat="42.01321237528686" lon="1.1319242479887326"><ele>651.1666666666666</ele><time>2026-04-27T12:48:33Z</time></trkpt><trkpt lat="42.013254185109865" lon="1.1318220905729857"><ele>653.0</ele><time>2026-04-27T12:48:34Z</time></trkpt><trkpt lat="42.013287645234705" lon="1.1317124321648542"><ele>653.0</ele><time>2026-04-27T12:48:35Z</time></trkpt><trkpt lat="42.01331627738875" lon="1.131602013736796"><ele>653.0</ele><time>2026-04-27T12:48:36Z</time></trkpt><trkpt lat="42.01333987947153" lon="1.1314944934559916"><ele>653.0</ele><time>2026-04-27T12:48:37.001Z</time></trkpt><trkpt lat="42.013354534522435" lon="1.1313802207224555"><ele>653.0</ele><time>2026-04-27T12:48:38.001Z</time></trkpt><trkpt lat="42.013367286045835" lon="1.1312677064579768"><ele>653.0</ele><time>2026-04-27T12:48:39.001Z</time></trkpt><trkpt lat="42.013370674196864" lon="1.1311518921845651"><ele>653.0</ele><time>2026-04-27T12:48:40.001Z</time></trkpt><trkpt lat="42.01336787113853" lon="1.1310370585738867"><ele>653.6666666666666</ele><time>2026-04-27T12:48:41.001Z</time></trkpt><trkpt lat="42.01336001266407" lon="1.130924160095636"><ele>654.3333333333333</ele><time>2026-04-27T12:48:42.001Z</time></trkpt><trkpt lat="42.013352878457674" lon="1.1308071129749857"><ele>655.0</ele><time>2026-04-27T12:48:43.001Z</time></trkpt><trkpt lat="42.01334439750105" lon="1.1306981771902265"><ele>655.6666666666666</ele><time>2026-04-27T12:48:44.001Z</time></trkpt><trkpt lat="42.01333200604601" lon="1.1305886409219434"><ele>656.3333333333334</ele><time>2026-04-27T12:48:45.001Z</time></trkpt><trkpt lat="42.01331727988211" lon="1.130470572154578"><ele>657.0</ele><time>2026-04-27T12:48:46.001Z</time></trkpt><trkpt lat="42.01330306013135" lon="1.1303617192506907"><ele>658.0</ele><time>2026-04-27T12:48:47.001Z</time></trkpt><trkpt lat="42.01329018290535" lon="1.1302534692091577"><ele>659.0</ele><time>2026-04-27T12:48:48.001Z</time></trkpt><trkpt lat="42.013277597262544" lon="1.130145776815124"><ele>660.0</ele><time>2026-04-27T12:48:49.001Z</time></trkpt><trkpt lat="42.01326764005217" lon="1.130038288347072"><ele>661.0</ele><time>2026-04-27T12:48:50.001Z</time></trkpt><trkpt lat="42.01326180569797" lon="1.1299278491871323"><ele>662.0</ele><time>2026-04-27T12:48:51.001Z</time></trkpt><trkpt lat="42.0132512960185" lon="1.1298210127605544"><ele>663.0</ele><time>2026-04-27T12:48:52.001Z</time></trkpt><trkpt lat="42.0132412143039" lon="1.129713931834368"><ele>663.0</ele><time>2026-04-27T12:48:53.001Z</time></trkpt><trkpt lat="42.01323063478663" lon="1.129608294221305"><ele>663.0</ele><time>2026-04-27T12:48:54.001Z</time></trkpt><trkpt lat="42.013220806117864" lon="1.1294997321493723"><ele>663.0</ele><time>2026-04-27T12:48:55.001Z</time></trkpt><trkpt lat="42.01321285451627" lon="1.1293949011378033"><ele>663.0</ele><time>2026-04-27T12:48:56.001Z</time></trkpt><trkpt lat="42.013203428243045" lon="1.1292903135010088"><ele>663.0</ele><time>2026-04-27T12:48:57.001Z</time></trkpt><trkpt lat="42.0132007302166" lon="1.129180644562035"><ele>663.0</ele><time>2026-04-27T12:48:58.001Z</time></trkpt><trkpt lat="42.01318758918121" lon="1.1290796323642065"><ele>662.6666666666666</ele><time>2026-04-27T12:48:59.001Z</time></trkpt><trkpt lat="42.01318082645437" lon="1.128972838128661"><ele>662.3333333333334</ele><time>2026-04-27T12:49:00.001Z</time></trkpt><trkpt lat="42.01317457702922" lon="1.1288692685932298"><ele>662.0</ele><time>2026-04-27T12:49:01.001Z</time></trkpt><trkpt lat="42.01316877717102" lon="1.1287595679290874"><ele>661.6666666666667</ele><time>2026-04-27T12:49:02.001Z</time></trkpt><trkpt lat="42.01316177515614" lon="1.1286563639102296"><ele>661.3333333333334</ele><time>2026-04-27T12:49:03.001Z</time></trkpt><trkpt lat="42.01315554363271" lon="1.1285484195231528"><ele>661.0</ele><time>2026-04-27T12:49:04.001Z</time></trkpt><trkpt lat="42.01314723510713" lon="1.1284420968825588"><ele>661.0</ele><time>2026-04-27T12:49:05.001Z</time></trkpt><trkpt lat="42.013140416918304" lon="1.1283359869961729"><ele>661.0</ele><time>2026-04-27T12:49:06.001Z</time></trkpt><trkpt lat="42.01313340110939" lon="1.1282281105838812"><ele>661.0</ele><time>2026-04-27T12:49:07.002Z</time></trkpt><trkpt lat="42.01312751946083" lon="1.1281201179686797"><ele>661.0</ele><time>2026-04-27T12:49:08.002Z</time></trkpt><trkpt lat="42.0131236417865" lon="1.1280080407643236"><ele>661.0</ele><time>2026-04-27T12:49:09.002Z</time></trkpt><trkpt lat="42.013121610082976" lon="1.1278989482602402"><ele>661.0</ele><time>2026-04-27T12:49:10.002Z</time></trkpt><trkpt lat="42.01312057149991" lon="1.1277831785571997"><ele>661.1999999999999</ele><time>2026-04-27T12:49:11.002Z</time></trkpt><trkpt lat="42.01311687274828" lon="1.1276667832606035"><ele>661.4</ele><time>2026-04-27T12:49:12.002Z</time></trkpt><trkpt lat="42.01311603686701" lon="1.127544363293289"><ele>661.6</ele><time>2026-04-27T12:49:13.002Z</time></trkpt><trkpt lat="42.01313005163878" lon="1.127422961575099"><ele>661.8</ele><time>2026-04-27T12:49:14.002Z</time></trkpt><trkpt lat="42.01313054141382" lon="1.1272961587238959"><ele>662.0</ele><time>2026-04-27T12:49:15.002Z</time></trkpt><trkpt lat="42.01313194495393" lon="1.127166403534073"><ele>662.6</ele><time>2026-04-27T12:49:16.002Z</time></trkpt><trkpt lat="42.013134893893245" lon="1.1270336169332311"><ele>663.2</ele><time>2026-04-27T12:49:17.002Z</time></trkpt><trkpt lat="42.01313792105296" lon="1.1268973083241662"><ele>663.8</ele><time>2026-04-27T12:49:18.002Z</time></trkpt><trkpt lat="42.013142372705246" lon="1.1267562673755749"><ele>664.4</ele><time>2026-04-27T12:49:19.002Z</time></trkpt><trkpt lat="42.01314727827617" lon="1.1266162602446033"><ele>665.0</ele><time>2026-04-27T12:49:20.002Z</time></trkpt><trkpt lat="42.01313796492943" lon="1.1264736275549985"><ele>665.0</ele><time>2026-04-27T12:49:21.002Z</time></trkpt><trkpt lat="42.01314696724699" lon="1.1263302915087845"><ele>665.0</ele><time>2026-04-27T12:49:22.002Z</time></trkpt><trkpt lat="42.01315519389294" lon="1.1261854461774286"><ele>665.0</ele><time>2026-04-27T12:49:23.002Z</time></trkpt><trkpt lat="42.01316429206484" lon="1.1260425664281386"><ele>665.0</ele><time>2026-04-27T12:49:24.002Z</time></trkpt><trkpt lat="42.01317510498506" lon="1.1258973395971605"><ele>665.0</ele><time>2026-04-27T12:49:25.002Z</time></trkpt><trkpt lat="42.01318746886075" lon="1.1257525938921984"><ele>665.6</ele><time>2026-04-27T12:49:26.002Z</time></trkpt><trkpt lat="42.01320074259645" lon="1.125609260290314"><ele>666.2</ele><time>2026-04-27T12:49:27.002Z</time></trkpt><trkpt lat="42.01321523980128" lon="1.1254628056066358"><ele>666.8</ele><time>2026-04-27T12:49:28.002Z</time></trkpt><trkpt lat="42.0132350273052" lon="1.125314675531112"><ele>667.4</ele><time>2026-04-27T12:49:29.002Z</time></trkpt><trkpt lat="42.01324795838005" lon="1.1251676853573016"><ele>668.0</ele><time>2026-04-27T12:49:30.002Z</time></trkpt><trkpt lat="42.013281081558695" lon="1.1250220773604134"><ele>669.0</ele><time>2026-04-27T12:49:31.002Z</time></trkpt><trkpt lat="42.01328247849706" lon="1.1248746038540964"><ele>670.0</ele><time>2026-04-27T12:49:32.002Z</time></trkpt><trkpt lat="42.01331884128719" lon="1.124731298916414"><ele>671.0</ele><time>2026-04-27T12:49:33.002Z</time></trkpt><trkpt lat="42.01333856174577" lon="1.1245891913591801"><ele>672.0</ele><time>2026-04-27T12:49:34.002Z</time></trkpt><trkpt lat="42.01335935112268" lon="1.1244460574330088"><ele>673.0</ele><time>2026-04-27T12:49:35.002Z</time></trkpt><trkpt lat="42.01337984119318" lon="1.1243063819819963"><ele>673.0</ele><time>2026-04-27T12:49:36.002Z</time></trkpt><trkpt lat="42.01340098887537" lon="1.1241634438801689"><ele>673.0</ele><time>2026-04-27T12:49:37.002Z</time></trkpt><trkpt lat="42.01342129818438" lon="1.1240268751277025"><ele>673.0</ele><time>2026-04-27T12:49:38.002Z</time></trkpt><trkpt lat="42.01344126606016" lon="1.1238969672536878"><ele>673.0</ele><time>2026-04-27T12:49:39.002Z</time></trkpt><trkpt lat="42.01344598642286" lon="1.1237584768362758"><ele>673.0</ele><time>2026-04-27T12:49:40.003Z</time></trkpt><trkpt lat="42.01346522265853" lon="1.123630535969733"><ele>674.0</ele><time>2026-04-27T12:49:41.003Z</time></trkpt><trkpt lat="42.01350066507142" lon="1.123510526704066"><ele>675.0</ele><time>2026-04-27T12:49:42.003Z</time></trkpt><trkpt lat="42.01351951594433" lon="1.1233878861521052"><ele>676.0</ele><time>2026-04-27T12:49:43.003Z</time></trkpt><trkpt lat="42.01353768174145" lon="1.1232697023901212"><ele>677.0</ele><time>2026-04-27T12:49:44.003Z</time></trkpt><trkpt lat="42.013556022172715" lon="1.123150382505673"><ele>678.0</ele><time>2026-04-27T12:49:45.003Z</time></trkpt><trkpt lat="42.0135745149651" lon="1.123030071351523"><ele>678.6666666666666</ele><time>2026-04-27T12:49:46.003Z</time></trkpt><trkpt lat="42.0135923373353" lon="1.122914121679092"><ele>679.3333333333334</ele><time>2026-04-27T12:49:47.003Z</time></trkpt><trkpt lat="42.01359424213129" lon="1.122791939623334"><ele>680.0</ele><time>2026-04-27T12:49:48.003Z</time></trkpt><trkpt lat="42.013613565232454" lon="1.12267552596255"><ele>680.6666666666667</ele><time>2026-04-27T12:49:49.003Z</time></trkpt><trkpt lat="42.0136462023008" lon="1.1225636847491802"><ele>681.3333333333334</ele><time>2026-04-27T12:49:50.003Z</time></trkpt><trkpt lat="42.01364672707728" lon="1.1224501331224028"><ele>682.0</ele><time>2026-04-27T12:49:51.003Z</time></trkpt><trkpt lat="42.013680452698274" lon="1.1223408571764069"><ele>683.5</ele><time>2026-04-27T12:49:52.003Z</time></trkpt><trkpt lat="42.01369711425361" lon="1.1222324605030174"><ele>685.0</ele><time>2026-04-27T12:49:53.003Z</time></trkpt><trkpt lat="42.01369747212601" lon="1.1221203547974858"><ele>686.5</ele><time>2026-04-27T12:49:54.003Z</time></trkpt><trkpt lat="42.01371458397168" lon="1.122010638008869"><ele>688.0</ele><time>2026-04-27T12:49:55.003Z</time></trkpt><trkpt lat="42.01373120443777" lon="1.1219047925497916"><ele>689.5</ele><time>2026-04-27T12:49:56.003Z</time></trkpt><trkpt lat="42.01374825885539" lon="1.1218005884765854"><ele>691.0</ele><time>2026-04-27T12:49:57.003Z</time></trkpt><trkpt lat="42.01376569272088" lon="1.1216967049501059"><ele>691.0</ele><time>2026-04-27T12:49:58.003Z</time></trkpt><trkpt lat="42.01378070433452" lon="1.1215881890227524"><ele>691.0</ele><time>2026-04-27T12:49:59.003Z</time></trkpt><trkpt lat="42.01379747948364" lon="1.1214846234149831"><ele>691.0</ele><time>2026-04-27T12:50:00.003Z</time></trkpt><trkpt lat="42.01381286000876" lon="1.1213823147500768"><ele>691.0</ele><time>2026-04-27T12:50:01.003Z</time></trkpt><trkpt lat="42.01382855489601" lon="1.1212796368804852"><ele>691.0</ele><time>2026-04-27T12:50:02.003Z</time></trkpt><trkpt lat="42.01384238194336" lon="1.1211785604528588"><ele>691.0</ele><time>2026-04-27T12:50:03.003Z</time></trkpt><trkpt lat="42.01387325529314" lon="1.1210828585570884"><ele>691.8333333333334</ele><time>2026-04-27T12:50:04.003Z</time></trkpt><trkpt lat="42.01388870182209" lon="1.1209820534820771"><ele>692.6666666666667</ele><time>2026-04-27T12:50:05.003Z</time></trkpt><trkpt lat="42.013888349861226" lon="1.1208780027495504"><ele>693.5</ele><time>2026-04-27T12:50:06.003Z</time></trkpt><trkpt lat="42.01390993043228" lon="1.1207799830297782"><ele>694.3333333333334</ele><time>2026-04-27T12:50:07.003Z</time></trkpt><trkpt lat="42.01392461818203" lon="1.120682719993833"><ele>695.1666666666666</ele><time>2026-04-27T12:50:08.003Z</time></trkpt><trkpt lat="42.01393828410519" lon="1.1205824258940955"><ele>696.0</ele><time>2026-04-27T12:50:09Z</time></trkpt><trkpt lat="42.01395230736931" lon="1.1204839641639937"><ele>696.5</ele><time>2026-04-27T12:50:10Z</time></trkpt><trkpt lat="42.01396722020615" lon="1.1203833153096243"><ele>697.0</ele><time>2026-04-27T12:50:11Z</time></trkpt><trkpt lat="42.01398681270339" lon="1.1202843105498834"><ele>697.5</ele><time>2026-04-27T12:50:12Z</time></trkpt><trkpt lat="42.01399942937628" lon="1.1201848904089997"><ele>698.0</ele><time>2026-04-27T12:50:13Z</time></trkpt><trkpt lat="42.01401308611482" lon="1.1200802014668891"><ele>698.5</ele><time>2026-04-27T12:50:14Z</time></trkpt><trkpt lat="42.014031692144364" lon="1.1199823285548292"><ele>699.0</ele><time>2026-04-27T12:50:15Z</time></trkpt><trkpt lat="42.01404502976312" lon="1.1198803400210584"><ele>699.1428571428571</ele><time>2026-04-27T12:50:16Z</time></trkpt><trkpt lat="42.01406645812518" lon="1.119781485318994"><ele>699.2857142857143</ele><time>2026-04-27T12:50:17Z</time></trkpt><trkpt lat="42.01407899205301" lon="1.1196840398858912"><ele>699.4285714285714</ele><time>2026-04-27T12:50:18Z</time></trkpt><trkpt lat="42.01409053824708" lon="1.119588678105801"><ele>699.5714285714286</ele><time>2026-04-27T12:50:19Z</time></trkpt><trkpt lat="42.01410621792401" lon="1.1194866677731363"><ele>699.7142857142858</ele><time>2026-04-27T12:50:20Z</time></trkpt><trkpt lat="42.014122354988494" lon="1.1193924619846591"><ele>699.8571428571429</ele><time>2026-04-27T12:50:21Z</time></trkpt><trkpt lat="42.01413982710651" lon="1.119293385912431"><ele>700.0</ele><time>2026-04-27T12:50:22Z</time></trkpt><trkpt lat="42.01415432743749" lon="1.1191966619587068"><ele>700.2857142857143</ele><time>2026-04-27T12:50:23Z</time></trkpt><trkpt lat="42.014166953089635" lon="1.1191030648373863"><ele>700.5714285714286</ele><time>2026-04-27T12:50:24Z</time></trkpt><trkpt lat="42.014182639876225" lon="1.1190004659380735"><ele>700.8571428571429</ele><time>2026-04-27T12:50:25Z</time></trkpt><trkpt lat="42.01419717616109" lon="1.1189061920601437"><ele>701.1428571428571</ele><time>2026-04-27T12:50:26Z</time></trkpt><trkpt lat="42.01421284188253" lon="1.118808491091216"><ele>701.4285714285714</ele><time>2026-04-27T12:50:27Z</time></trkpt><trkpt lat="42.0142286308641" lon="1.1187089431418498"><ele>701.7142857142858</ele><time>2026-04-27T12:50:28Z</time></trkpt><trkpt lat="42.014241525476784" lon="1.1186082695472863"><ele>702.0</ele><time>2026-04-27T12:50:29Z</time></trkpt><trkpt lat="42.01425682859568" lon="1.11851157003247"><ele>702.5714285714287</ele><time>2026-04-27T12:50:30Z</time></trkpt><trkpt lat="42.01427572451538" lon="1.1184158620345765"><ele>703.1428571428571</ele><time>2026-04-27T12:50:31Z</time></trkpt><trkpt lat="42.01428998366192" lon="1.1183173175000667"><ele>703.7142857142858</ele><time>2026-04-27T12:50:32Z</time></trkpt><trkpt lat="42.01430624544955" lon="1.1182186318213316"><ele>704.2857142857143</ele><time>2026-04-27T12:50:33Z</time></trkpt><trkpt lat="42.014320269138935" lon="1.1181218330268863"><ele>704.8571428571429</ele><time>2026-04-27T12:50:34Z</time></trkpt><trkpt lat="42.014334379162364" lon="1.118024852123587"><ele>705.4285714285714</ele><time>2026-04-27T12:50:35Z</time></trkpt><trkpt lat="42.01434889455932" lon="1.117929241670418"><ele>706.0</ele><time>2026-04-27T12:50:36Z</time></trkpt><trkpt lat="42.01436271071332" lon="1.117831812292107"><ele>706.7142857142857</ele><time>2026-04-27T12:50:37Z</time></trkpt><trkpt lat="42.014375687920875" lon="1.1177355426434787"><ele>707.4285714285714</ele><time>2026-04-27T12:50:38Z</time></trkpt><trkpt lat="42.01438966786062" lon="1.117638452881975"><ele>708.1428571428571</ele><time>2026-04-27T12:50:39.001Z</time></trkpt><trkpt lat="42.01440613397564" lon="1.1175430687802865"><ele>708.8571428571429</ele><time>2026-04-27T12:50:40.001Z</time></trkpt><trkpt lat="42.01441998998448" lon="1.1174431486966518"><ele>709.5714285714286</ele><time>2026-04-27T12:50:41.001Z</time></trkpt><trkpt lat="42.014429023660654" lon="1.1173446257476696"><ele>710.2857142857143</ele><time>2026-04-27T12:50:42.001Z</time></trkpt><trkpt lat="42.01443785574512" lon="1.1172439233071434"><ele>711.0</ele><time>2026-04-27T12:50:43.001Z</time></trkpt><trkpt lat="42.01444548853842" lon="1.1171449986056308"><ele>711.6666666666666</ele><time>2026-04-27T12:50:44.001Z</time></trkpt><trkpt lat="42.014445562113764" lon="1.1170453205453286"><ele>712.3333333333334</ele><time>2026-04-27T12:50:45.001Z</time></trkpt><trkpt lat="42.014435628610485" lon="1.116942602429371"><ele>713.0</ele><time>2026-04-27T12:50:46.001Z</time></trkpt><trkpt lat="42.014423812626575" lon="1.1168422065473094"><ele>713.6666666666667</ele><time>2026-04-27T12:50:47.001Z</time></trkpt><trkpt lat="42.01442155139784" lon="1.1167387336895795"><ele>714.3333333333334</ele><time>2026-04-27T12:50:48.001Z</time></trkpt><trkpt lat="42.014401261382034" lon="1.1166413441935572"><ele>715.0</ele><time>2026-04-27T12:50:49.001Z</time></trkpt><trkpt lat="42.014373867624236" lon="1.116540988500977"><ele>714.6666666666667</ele><time>2026-04-27T12:50:50.001Z</time></trkpt><trkpt lat="42.014341528643556" lon="1.1164454980883896"><ele>714.3333333333334</ele><time>2026-04-27T12:50:51.001Z</time></trkpt><trkpt lat="42.014291665623695" lon="1.1163643142100417"><ele>714.0</ele><time>2026-04-27T12:50:52.001Z</time></trkpt><trkpt lat="42.014258419307" lon="1.116275465763395"><ele>713.6666666666666</ele><time>2026-04-27T12:50:53.001Z</time></trkpt><trkpt lat="42.01421572499732" lon="1.1161896082147351"><ele>713.3333333333333</ele><time>2026-04-27T12:50:54.001Z</time></trkpt><trkpt lat="42.01417306120828" lon="1.1161048510402136"><ele>713.0</ele><time>2026-04-27T12:50:55.001Z</time></trkpt><trkpt lat="42.01413087506897" lon="1.1160175343092147"><ele>713.0</ele><time>2026-04-27T12:50:56.001Z</time></trkpt><trkpt lat="42.01408695074004" lon="1.1159299092942159"><ele>713.0</ele><time>2026-04-27T12:50:57.001Z</time></trkpt><trkpt lat="42.01404499900013" lon="1.1158427639963793"><ele>713.0</ele><time>2026-04-27T12:50:58.001Z</time></trkpt><trkpt lat="42.014002793560984" lon="1.1157555036908005"><ele>713.0</ele><time>2026-04-27T12:50:59.001Z</time></trkpt><trkpt lat="42.01396193318611" lon="1.115665863466164"><ele>713.0</ele><time>2026-04-27T12:51:00.001Z</time></trkpt><trkpt lat="42.013919087379854" lon="1.1155783405375246"><ele>713.0</ele><time>2026-04-27T12:51:01.001Z</time></trkpt><trkpt lat="42.013879285117184" lon="1.1154870233617118"><ele>713.8333333333333</ele><time>2026-04-27T12:51:02.001Z</time></trkpt><trkpt lat="42.01384193292456" lon="1.1153951225735155"><ele>714.6666666666666</ele><time>2026-04-27T12:51:03.001Z</time></trkpt><trkpt lat="42.01382915322717" lon="1.115291209380584"><ele>715.5</ele><time>2026-04-27T12:51:04.001Z</time></trkpt><trkpt lat="42.013810694167354" lon="1.115193392819327"><ele>716.3333333333334</ele><time>2026-04-27T12:51:05.001Z</time></trkpt><trkpt lat="42.013796425151895" lon="1.1150927606347185"><ele>717.1666666666667</ele><time>2026-04-27T12:51:06.001Z</time></trkpt><trkpt lat="42.0137915537395" lon="1.1149900649135096"><ele>718.0</ele><time>2026-04-27T12:51:07.001Z</time></trkpt><trkpt lat="42.013795272171116" lon="1.114888085228475"><ele>719.3333333333334</ele><time>2026-04-27T12:51:08.001Z</time></trkpt><trkpt lat="42.013808803746386" lon="1.1147850123223746"><ele>720.6666666666667</ele><time>2026-04-27T12:51:09.001Z</time></trkpt><trkpt lat="42.01383062592515" lon="1.1146859323900926"><ele>722.0</ele><time>2026-04-27T12:51:10.001Z</time></trkpt><trkpt lat="42.013856362989195" lon="1.1145842554202563"><ele>723.3333333333334</ele><time>2026-04-27T12:51:11.001Z</time></trkpt><trkpt lat="42.01388294159993" lon="1.114484354516196"><ele>724.6666666666666</ele><time>2026-04-27T12:51:12.001Z</time></trkpt><trkpt lat="42.013904254135916" lon="1.1143823887956443"><ele>726.0</ele><time>2026-04-27T12:51:13.001Z</time></trkpt><trkpt lat="42.01395127145811" lon="1.1142938757887542"><ele>726.0</ele><time>2026-04-27T12:51:14.002Z</time></trkpt><trkpt lat="42.014014229030515" lon="1.1142225954354357"><ele>726.0</ele><time>2026-04-27T12:51:15.002Z</time></trkpt><trkpt lat="42.014084650264515" lon="1.114163140180854"><ele>726.0</ele><time>2026-04-27T12:51:16.002Z</time></trkpt><trkpt lat="42.01416530892889" lon="1.1141217616433379"><ele>726.0</ele><time>2026-04-27T12:51:17.002Z</time></trkpt><trkpt lat="42.01424924108765" lon="1.114092830059999"><ele>726.0</ele><time>2026-04-27T12:51:18.002Z</time></trkpt><trkpt lat="42.014339606421935" lon="1.1140987414200647"><ele>726.0</ele><time>2026-04-27T12:51:19.002Z</time></trkpt><trkpt lat="42.014419365312285" lon="1.1140634651271495"><ele>726.8</ele><time>2026-04-27T12:51:20.002Z</time></trkpt><trkpt lat="42.01451046008253" lon="1.11414549578675"><ele>727.5999999999999</ele><time>2026-04-27T12:51:21.002Z</time></trkpt><trkpt lat="42.0145924884112" lon="1.114168419799869"><ele>728.4</ele><time>2026-04-27T12:51:22.002Z</time></trkpt><trkpt lat="42.01467861255837" lon="1.114189316072415"><ele>729.2</ele><time>2026-04-27T12:51:23.002Z</time></trkpt><trkpt lat="42.01476655914073" lon="1.114209006087066"><ele>730.0</ele><time>2026-04-27T12:51:24.002Z</time></trkpt><trkpt lat="42.01485408445908" lon="1.1142292382729708"><ele>730.0</ele><time>2026-04-27T12:51:25.002Z</time></trkpt><trkpt lat="42.01494209764591" lon="1.1142442192935322"><ele>730.0</ele><time>2026-04-27T12:51:26.002Z</time></trkpt><trkpt lat="42.01502836533003" lon="1.1142598393667322"><ele>730.0</ele><time>2026-04-27T12:51:27.002Z</time></trkpt><trkpt lat="42.015115938566325" lon="1.1142742118724098"><ele>730.0</ele><time>2026-04-27T12:51:28.002Z</time></trkpt><trkpt lat="42.01520504992242" lon="1.1142902514792192"><ele>730.0</ele><time>2026-04-27T12:51:29.002Z</time></trkpt><trkpt lat="42.01529532523788" lon="1.1143010594272256"><ele>730.0</ele><time>2026-04-27T12:51:30.002Z</time></trkpt><trkpt lat="42.01538468265844" lon="1.1143104384910945"><ele>731.1666666666667</ele><time>2026-04-27T12:51:31.002Z</time></trkpt><trkpt lat="42.01547407165877" lon="1.114319303493209"><ele>732.3333333333334</ele><time>2026-04-27T12:51:32.002Z</time></trkpt><trkpt lat="42.01556303099969" lon="1.1143299698479185"><ele>733.5</ele><time>2026-04-27T12:51:33.002Z</time></trkpt><trkpt lat="42.015654016680486" lon="1.114341184716295"><ele>734.6666666666666</ele><time>2026-04-27T12:51:34.002Z</time></trkpt><trkpt lat="42.01574027498154" lon="1.1143477128471804"><ele>735.8333333333333</ele><time>2026-04-27T12:51:35.002Z</time></trkpt><trkpt lat="42.01582691462162" lon="1.1143547130245532"><ele>737.0</ele><time>2026-04-27T12:51:36.002Z</time></trkpt><trkpt lat="42.015915438257004" lon="1.1143691887073348"><ele>737.8333333333333</ele><time>2026-04-27T12:51:37.002Z</time></trkpt><trkpt lat="42.01600291312959" lon="1.1143878730178238"><ele>738.6666666666666</ele><time>2026-04-27T12:51:38.002Z</time></trkpt><trkpt lat="42.016092099004865" lon="1.1144050511909638"><ele>739.5</ele><time>2026-04-27T12:51:39.002Z</time></trkpt><trkpt lat="42.016180501663555" lon="1.1144202828438792"><ele>740.3333333333334</ele><time>2026-04-27T12:51:40.002Z</time></trkpt><trkpt lat="42.01627000820732" lon="1.1144344968598154"><ele>741.1666666666667</ele><time>2026-04-27T12:51:41.002Z</time></trkpt><trkpt lat="42.016360981315955" lon="1.114448941733389"><ele>742.0</ele><time>2026-04-27T12:51:42.002Z</time></trkpt><trkpt lat="42.016452991043884" lon="1.1144656002474467"><ele>742.0</ele><time>2026-04-27T12:51:43.002Z</time></trkpt><trkpt lat="42.01654318392545" lon="1.1144822104237888"><ele>742.0</ele><time>2026-04-27T12:51:44.002Z</time></trkpt><trkpt lat="42.01663279420986" lon="1.1144981808889645"><ele>742.0</ele><time>2026-04-27T12:51:45.002Z</time></trkpt><trkpt lat="42.01672303172192" lon="1.114513673590563"><ele>742.0</ele><time>2026-04-27T12:51:46.002Z</time></trkpt><trkpt lat="42.01681384144139" lon="1.1145298729444384"><ele>742.0</ele><time>2026-04-27T12:51:47.002Z</time></trkpt><trkpt lat="42.0169008575795" lon="1.1145435969947028"><ele>744.2</ele><time>2026-04-27T12:51:48.002Z</time></trkpt><trkpt lat="42.016992412007404" lon="1.1145622084082365"><ele>746.4000000000001</ele><time>2026-04-27T12:51:49.003Z</time></trkpt><trkpt lat="42.01708142084577" lon="1.1145754943468984"><ele>748.5999999999999</ele><time>2026-04-27T12:51:50.003Z</time></trkpt><trkpt lat="42.01717096056823" lon="1.1145836013678747"><ele>750.8</ele><time>2026-04-27T12:51:51.003Z</time></trkpt><trkpt lat="42.01726113725066" lon="1.1145959480323582"><ele>753.0</ele><time>2026-04-27T12:51:52.003Z</time></trkpt><trkpt lat="42.01734926763614" lon="1.1146086596900568"><ele>753.0</ele><time>2026-04-27T12:51:53.003Z</time></trkpt><trkpt lat="42.017437352464015" lon="1.114624440312354"><ele>753.0</ele><time>2026-04-27T12:51:54.003Z</time></trkpt><trkpt lat="42.017529033925975" lon="1.1146413417185352"><ele>753.0</ele><time>2026-04-27T12:51:55.003Z</time></trkpt><trkpt lat="42.017615053566175" lon="1.1146562633494952"><ele>753.0</ele><time>2026-04-27T12:51:56.003Z</time></trkpt><trkpt lat="42.0177015485224" lon="1.1146704174949085"><ele>753.0</ele><time>2026-04-27T12:51:57.003Z</time></trkpt><trkpt lat="42.01778520849263" lon="1.1146858040948442"><ele>753.0</ele><time>2026-04-27T12:51:58.003Z</time></trkpt><trkpt lat="42.01787041860306" lon="1.114699563224062"><ele>753.8</ele><time>2026-04-27T12:51:59.003Z</time></trkpt><trkpt lat="42.017949885676025" lon="1.114716587600863"><ele>754.5999999999999</ele><time>2026-04-27T12:52:00.003Z</time></trkpt><trkpt lat="42.01803611091711" lon="1.1147297405224257"><ele>755.4000000000001</ele><time>2026-04-27T12:52:01.003Z</time></trkpt><trkpt lat="42.018134146606954" lon="1.1147443764570812"><ele>756.2</ele><time>2026-04-27T12:52:02.003Z</time></trkpt><trkpt lat="42.01823252861235" lon="1.1147601424451399"><ele>757.0</ele><time>2026-04-27T12:52:03.003Z</time></trkpt><trkpt lat="42.018324980889965" lon="1.1147756788682164"><ele>758.0</ele><time>2026-04-27T12:52:04.003Z</time></trkpt><trkpt lat="42.01841341496447" lon="1.1147918260382916"><ele>759.0</ele><time>2026-04-27T12:52:05.003Z</time></trkpt><trkpt lat="42.01850267167491" lon="1.1148055055687125"><ele>760.0</ele><time>2026-04-27T12:52:06.003Z</time></trkpt><trkpt lat="42.01858998601009" lon="1.1148165083733974"><ele>761.0</ele><time>2026-04-27T12:52:07.003Z</time></trkpt><trkpt lat="42.018677766658115" lon="1.1148240963935814"><ele>762.0</ele><time>2026-04-27T12:52:08.003Z</time></trkpt><trkpt lat="42.01876552247883" lon="1.1148301411429895"><ele>763.0</ele><time>2026-04-27T12:52:09.003Z</time></trkpt><trkpt lat="42.01885202682793" lon="1.1148312635400832"><ele>763.0</ele><time>2026-04-27T12:52:10.003Z</time></trkpt><trkpt lat="42.01893896236711" lon="1.1148261435490783"><ele>763.0</ele><time>2026-04-27T12:52:11.003Z</time></trkpt><trkpt lat="42.01902475062246" lon="1.1148135947701536"><ele>763.0</ele><time>2026-04-27T12:52:12.003Z</time></trkpt><trkpt lat="42.01911011821187" lon="1.11479682648275"><ele>763.0</ele><time>2026-04-27T12:52:13.003Z</time></trkpt><trkpt lat="42.01919629840046" lon="1.114774126074437"><ele>763.0</ele><time>2026-04-27T12:52:14.003Z</time></trkpt><trkpt lat="42.01928210708796" lon="1.1147477923232303"><ele>763.0</ele><time>2026-04-27T12:52:15Z</time></trkpt><trkpt lat="42.01936903572799" lon="1.1147193409925384"><ele>764.1666666666667</ele><time>2026-04-27T12:52:16Z</time></trkpt><trkpt lat="42.019453562493084" lon="1.1146888439259808"><ele>765.3333333333334</ele><time>2026-04-27T12:52:17Z</time></trkpt><trkpt lat="42.01953797257471" lon="1.114652241228403"><ele>766.5</ele><time>2026-04-27T12:52:18Z</time></trkpt><trkpt lat="42.01962344573875" lon="1.1146150558889965"><ele>767.6666666666667</ele><time>2026-04-27T12:52:19Z</time></trkpt><trkpt lat="42.01970749405073" lon="1.11457733620284"><ele>768.8333333333334</ele><time>2026-04-27T12:52:20Z</time></trkpt><trkpt lat="42.01979255257406" lon="1.1145397264674632"><ele>770.0</ele><time>2026-04-27T12:52:21Z</time></trkpt><trkpt lat="42.0198752244589" lon="1.1145019783705217"><ele>770.0000000000001</ele><time>2026-04-27T12:52:22Z</time></trkpt><trkpt lat="42.019958367137626" lon="1.1144641103567912"><ele>770.0</ele><time>2026-04-27T12:52:23Z</time></trkpt><trkpt lat="42.020041349459405" lon="1.1144277902097743"><ele>770.0</ele><time>2026-04-27T12:52:24Z</time></trkpt><trkpt lat="42.020125285982125" lon="1.1143956753246314"><ele>770.0</ele><time>2026-04-27T12:52:25Z</time></trkpt><trkpt lat="42.02021137684844" lon="1.1143692915468366"><ele>770.0000000000001</ele><time>2026-04-27T12:52:26Z</time></trkpt><trkpt lat="42.020297531045124" lon="1.1143521682614472"><ele>770.0</ele><time>2026-04-27T12:52:27Z</time></trkpt><trkpt lat="42.020386665614446" lon="1.1143516256335753"><ele>770.8333333333334</ele><time>2026-04-27T12:52:28Z</time></trkpt><trkpt lat="42.020472723336326" lon="1.1143756172700878"><ele>771.6666666666667</ele><time>2026-04-27T12:52:29Z</time></trkpt><trkpt lat="42.020551814226316" lon="1.1144045291077749"><ele>772.5</ele><time>2026-04-27T12:52:30Z</time></trkpt><trkpt lat="42.02062791060253" lon="1.1144491893071182"><ele>773.3333333333333</ele><time>2026-04-27T12:52:31Z</time></trkpt><trkpt lat="42.02069905437677" lon="1.1145065750681387"><ele>774.1666666666666</ele><time>2026-04-27T12:52:32Z</time></trkpt><trkpt lat="42.02076485839189" lon="1.1145741035711052"><ele>775.0</ele><time>2026-04-27T12:52:33Z</time></trkpt><trkpt lat="42.02082521881838" lon="1.1146479890914465"><ele>775.1666666666666</ele><time>2026-04-27T12:52:34Z</time></trkpt><trkpt lat="42.02088079665564" lon="1.1147255709571473"><ele>775.3333333333333</ele><time>2026-04-27T12:52:35Z</time></trkpt><trkpt lat="42.02093543314169" lon="1.1148025113039948"><ele>775.5</ele><time>2026-04-27T12:52:36Z</time></trkpt><trkpt lat="42.02099292542649" lon="1.1148778966677912"><ele>775.6666666666667</ele><time>2026-04-27T12:52:37Z</time></trkpt><trkpt lat="42.02105378895748" lon="1.1149471948674265"><ele>775.8333333333334</ele><time>2026-04-27T12:52:38Z</time></trkpt><trkpt lat="42.021120669150015" lon="1.1150072136034173"><ele>776.0</ele><time>2026-04-27T12:52:39Z</time></trkpt><trkpt lat="42.02119252507845" lon="1.1150578118562025"><ele>776.0000000000001</ele><time>2026-04-27T12:52:40.001Z</time></trkpt><trkpt lat="42.02126892155245" lon="1.1150975843674173"><ele>776.0</ele><time>2026-04-27T12:52:41.001Z</time></trkpt><trkpt lat="42.02134939604774" lon="1.1151230028703925"><ele>776.0</ele><time>2026-04-27T12:52:42.001Z</time></trkpt><trkpt lat="42.021432818284495" lon="1.1151186787579184"><ele>776.0</ele><time>2026-04-27T12:52:43.001Z</time></trkpt><trkpt lat="42.021516580281954" lon="1.1151232364801111"><ele>776.0000000000001</ele><time>2026-04-27T12:52:44.001Z</time></trkpt><trkpt lat="42.0215999050849" lon="1.1150882243916582"><ele>776.0</ele><time>2026-04-27T12:52:45.001Z</time></trkpt><trkpt lat="42.02167526280565" lon="1.1150365979426458"><ele>778.0000000000001</ele><time>2026-04-27T12:52:46.001Z</time></trkpt><trkpt lat="42.021741555737755" lon="1.114960642671965"><ele>780.0</ele><time>2026-04-27T12:52:47.001Z</time></trkpt><trkpt lat="42.02179864373063" lon="1.1148703946304068"><ele>782.0</ele><time>2026-04-27T12:52:48.001Z</time></trkpt><trkpt lat="42.02184440870371" lon="1.114769902832368"><ele>784.0</ele><time>2026-04-27T12:52:49.001Z</time></trkpt><trkpt lat="42.02187836182083" lon="1.1146630451091946"><ele>786.0000000000001</ele><time>2026-04-27T12:52:50.001Z</time></trkpt><trkpt lat="42.02190638426739" lon="1.1145554348561757"><ele>788.0</ele><time>2026-04-27T12:52:51.001Z</time></trkpt><trkpt lat="42.021914645755786" lon="1.1144387769783608"><ele>788.3333333333334</ele><time>2026-04-27T12:52:52.001Z</time></trkpt><trkpt lat="42.02193835641785" lon="1.1143312310503575"><ele>788.6666666666667</ele><time>2026-04-27T12:52:53.001Z</time></trkpt><trkpt lat="42.02195520671674" lon="1.1142199311861116"><ele>789.0</ele><time>2026-04-27T12:52:54.001Z</time></trkpt><trkpt lat="42.02196885082731" lon="1.1141081634248946"><ele>789.3333333333333</ele><time>2026-04-27T12:52:55.001Z</time></trkpt><trkpt lat="42.0219806895219" lon="1.1139948312239811"><ele>789.6666666666666</ele><time>2026-04-27T12:52:56.001Z</time></trkpt><trkpt lat="42.02199760755652" lon="1.1138806944917565"><ele>790.0</ele><time>2026-04-27T12:52:57.001Z</time></trkpt><trkpt lat="42.022013615265045" lon="1.1137692137456243"><ele>790.3333333333333</ele><time>2026-04-27T12:52:58.001Z</time></trkpt><trkpt lat="42.02203469956551" lon="1.1136593712701082"><ele>790.6666666666666</ele><time>2026-04-27T12:52:59.001Z</time></trkpt><trkpt lat="42.02204780916491" lon="1.113550465996755"><ele>791.0</ele><time>2026-04-27T12:53:00.001Z</time></trkpt><trkpt lat="42.02205880611573" lon="1.1134378574272181"><ele>791.3333333333333</ele><time>2026-04-27T12:53:01.001Z</time></trkpt><trkpt lat="42.0220745947631" lon="1.1133204006712123"><ele>791.6666666666666</ele><time>2026-04-27T12:53:02.001Z</time></trkpt><trkpt lat="42.0220850370727" lon="1.1131995189585242"><ele>792.0</ele><time>2026-04-27T12:53:03.001Z</time></trkpt><trkpt lat="42.02208484768729" lon="1.1130830616408576"><ele>793.6666666666666</ele><time>2026-04-27T12:53:04.001Z</time></trkpt><trkpt lat="42.02207602681746" lon="1.1129689318384037"><ele>795.3333333333333</ele><time>2026-04-27T12:53:05.001Z</time></trkpt><trkpt lat="42.02205650832945" lon="1.1128520031578892"><ele>797.0</ele><time>2026-04-27T12:53:06.001Z</time></trkpt><trkpt lat="42.02202299462106" lon="1.1127406610510715"><ele>798.6666666666666</ele><time>2026-04-27T12:53:07.001Z</time></trkpt><trkpt lat="42.02198226946488" lon="1.112640184882755"><ele>800.3333333333333</ele><time>2026-04-27T12:53:08.001Z</time></trkpt><trkpt lat="42.02193057508766" lon="1.1125469161393169"><ele>802.0</ele><time>2026-04-27T12:53:09.001Z</time></trkpt><trkpt lat="42.02187034397412" lon="1.1124635519149977"><ele>803.8333333333333</ele><time>2026-04-27T12:53:10.001Z</time></trkpt><trkpt lat="42.021804001604735" lon="1.112392724958103"><ele>805.6666666666666</ele><time>2026-04-27T12:53:11.001Z</time></trkpt><trkpt lat="42.0217305453786" lon="1.1123337659670458"><ele>807.5</ele><time>2026-04-27T12:53:12.001Z</time></trkpt><trkpt lat="42.021651522465724" lon="1.1122870383335288"><ele>809.3333333333333</ele><time>2026-04-27T12:53:13.001Z</time></trkpt><trkpt lat="42.02156958998591" lon="1.1122497699403426"><ele>811.1666666666666</ele><time>2026-04-27T12:53:14.001Z</time></trkpt><trkpt lat="42.02148685717946" lon="1.1122165370396024"><ele>813.0</ele><time>2026-04-27T12:53:15.001Z</time></trkpt><trkpt lat="42.02140399423785" lon="1.1121796186377282"><ele>813.0</ele><time>2026-04-27T12:53:16.001Z</time></trkpt><trkpt lat="42.021322051717355" lon="1.112145282837664"><ele>813.0</ele><time>2026-04-27T12:53:17.001Z</time></trkpt><trkpt lat="42.02124045730705" lon="1.1121164141586601"><ele>813.0</ele><time>2026-04-27T12:53:18.001Z</time></trkpt><trkpt lat="42.02115976017981" lon="1.1120867916947696"><ele>813.0</ele><time>2026-04-27T12:53:19.001Z</time></trkpt><trkpt lat="42.02107966070019" lon="1.1120576080655658"><ele>813.0</ele><time>2026-04-27T12:53:20.002Z</time></trkpt><trkpt lat="42.0210006430526" lon="1.1120309615432282"><ele>813.0</ele><time>2026-04-27T12:53:21.002Z</time></trkpt><trkpt lat="42.020922127101635" lon="1.1120012189108908"><ele>813.0</ele><time>2026-04-27T12:53:22.002Z</time></trkpt><trkpt lat="42.02084517683689" lon="1.1119699994880106"><ele>813.0</ele><time>2026-04-27T12:53:23.002Z</time></trkpt><trkpt lat="42.02076686028363" lon="1.1119367309541734"><ele>813.0</ele><time>2026-04-27T12:53:24.002Z</time></trkpt><trkpt lat="42.02069190274942" lon="1.1118998821259596"><ele>813.0</ele><time>2026-04-27T12:53:25.002Z</time></trkpt><trkpt lat="42.02062094486616" lon="1.1118527519449082"><ele>813.0</ele><time>2026-04-27T12:53:26.002Z</time></trkpt><trkpt lat="42.0205544759745" lon="1.111791140227228"><ele>813.0</ele><time>2026-04-27T12:53:27.002Z</time></trkpt><trkpt lat="42.02049373796462" lon="1.1117205698751937"><ele>812.0</ele><time>2026-04-27T12:53:28.002Z</time></trkpt><trkpt lat="42.02043744723727" lon="1.1116453828568074"><ele>811.0</ele><time>2026-04-27T12:53:29.002Z</time></trkpt><trkpt lat="42.02038740198263" lon="1.1115668189496954"><ele>810.0</ele><time>2026-04-27T12:53:30.002Z</time></trkpt><trkpt lat="42.020347836171744" lon="1.1114755727127839"><ele>809.0</ele><time>2026-04-27T12:53:31.002Z</time></trkpt><trkpt lat="42.02031659926727" lon="1.1113799327728162"><ele>808.0</ele><time>2026-04-27T12:53:32.002Z</time></trkpt><trkpt lat="42.02029362411703" lon="1.1112801170648015"><ele>807.0</ele><time>2026-04-27T12:53:33.002Z</time></trkpt><trkpt lat="42.02028002291013" lon="1.1111771571295848"><ele>807.0</ele><time>2026-04-27T12:53:34.002Z</time></trkpt><trkpt lat="42.020274320837174" lon="1.1110719896792205"><ele>807.0</ele><time>2026-04-27T12:53:35.002Z</time></trkpt><trkpt lat="42.020275589757574" lon="1.1109686601108313"><ele>807.0</ele><time>2026-04-27T12:53:36.002Z</time></trkpt><trkpt lat="42.02030615686712" lon="1.1108721882610404"><ele>807.0</ele><time>2026-04-27T12:53:37.002Z</time></trkpt><trkpt lat="42.02032491498891" lon="1.1107750395516176"><ele>807.0</ele><time>2026-04-27T12:53:38.002Z</time></trkpt><trkpt lat="42.0203494837574" lon="1.1106805854313457"><ele>807.0</ele><time>2026-04-27T12:53:39.002Z</time></trkpt><trkpt lat="42.020381238382534" lon="1.1105846854082406"><ele>806.0</ele><time>2026-04-27T12:53:40.002Z</time></trkpt><trkpt lat="42.02040320763728" lon="1.1104871932081697"><ele>805.0</ele><time>2026-04-27T12:53:41.002Z</time></trkpt><trkpt lat="42.02044629467824" lon="1.110402386974927"><ele>804.0</ele><time>2026-04-27T12:53:42.002Z</time></trkpt><trkpt lat="42.020490206061744" lon="1.1103200728488987"><ele>803.0</ele><time>2026-04-27T12:53:43.002Z</time></trkpt><trkpt lat="42.020552913403584" lon="1.1102549615114699"><ele>802.0</ele><time>2026-04-27T12:53:44.002Z</time></trkpt><trkpt lat="42.020605073645" lon="1.1101809630024346"><ele>801.0</ele><time>2026-04-27T12:53:45.002Z</time></trkpt><trkpt lat="42.020659214949696" lon="1.1101116661097536"><ele>801.0</ele><time>2026-04-27T12:53:46.002Z</time></trkpt><trkpt lat="42.02071791399278" lon="1.110045366221225"><ele>801.0</ele><time>2026-04-27T12:53:47.002Z</time></trkpt><trkpt lat="42.020773309480454" lon="1.1099715358855582"><ele>801.0</ele><time>2026-04-27T12:53:48.002Z</time></trkpt><trkpt lat="42.02083979181018" lon="1.1099200114744714"><ele>801.0</ele><time>2026-04-27T12:53:49.002Z</time></trkpt><trkpt lat="42.020909594607964" lon="1.109871925795196"><ele>801.0</ele><time>2026-04-27T12:53:50.002Z</time></trkpt><trkpt lat="42.02098300524858" lon="1.1098301688636574"><ele>801.0</ele><time>2026-04-27T12:53:51.002Z</time></trkpt><trkpt lat="42.021058003017146" lon="1.1097953448562115"><ele>802.0</ele><time>2026-04-27T12:53:52.002Z</time></trkpt><trkpt lat="42.02113406009877" lon="1.1097688933935121"><ele>803.0</ele><time>2026-04-27T12:53:53.002Z</time></trkpt><trkpt lat="42.02121191975413" lon="1.1097506876397372"><ele>804.0</ele><time>2026-04-27T12:53:54.002Z</time></trkpt><trkpt lat="42.021291206959155" lon="1.1097389204082933"><ele>805.0</ele><time>2026-04-27T12:53:55.002Z</time></trkpt><trkpt lat="42.021370051729406" lon="1.1097337631307986"><ele>806.0</ele><time>2026-04-27T12:53:56.002Z</time></trkpt><trkpt lat="42.02144897062137" lon="1.1097342215105939"><ele>807.0</ele><time>2026-04-27T12:53:57.003Z</time></trkpt><trkpt lat="42.02152728063752" lon="1.109744152642856"><ele>807.0</ele><time>2026-04-27T12:53:58.003Z</time></trkpt><trkpt lat="42.02160454759351" lon="1.1097603216211493"><ele>807.0</ele><time>2026-04-27T12:53:59.003Z</time></trkpt><trkpt lat="42.02168284684332" lon="1.1097851027429566"><ele>807.0</ele><time>2026-04-27T12:54:00.003Z</time></trkpt><trkpt lat="42.02175973748009" lon="1.1098146038170802"><ele>807.0</ele><time>2026-04-27T12:54:01.003Z</time></trkpt><trkpt lat="42.02183414221612" lon="1.10985061374254"><ele>807.0</ele><time>2026-04-27T12:54:02.003Z</time></trkpt><trkpt lat="42.02190723361518" lon="1.1098925375565976"><ele>807.0</ele><time>2026-04-27T12:54:03.003Z</time></trkpt><trkpt lat="42.02197696528854" lon="1.1099410397895138"><ele>810.0</ele><time>2026-04-27T12:54:04.003Z</time></trkpt><trkpt lat="42.02204470170743" lon="1.1099978001869115"><ele>813.0</ele><time>2026-04-27T12:54:05.003Z</time></trkpt><trkpt lat="42.0221132694907" lon="1.1100522910407373"><ele>816.0</ele><time>2026-04-27T12:54:06.003Z</time></trkpt><trkpt lat="42.022180807998545" lon="1.1101064113470454"><ele>819.0</ele><time>2026-04-27T12:54:07.003Z</time></trkpt><trkpt lat="42.02224617858203" lon="1.1101616409341646"><ele>822.0</ele><time>2026-04-27T12:54:08.003Z</time></trkpt><trkpt lat="42.02231006682563" lon="1.1102189809598566"><ele>825.0</ele><time>2026-04-27T12:54:09.003Z</time></trkpt><trkpt lat="42.022373645039714" lon="1.1102756244420702"><ele>825.0</ele><time>2026-04-27T12:54:10.003Z</time></trkpt><trkpt lat="42.02243760616508" lon="1.1103313130270824"><ele>825.0</ele><time>2026-04-27T12:54:11.003Z</time></trkpt><trkpt lat="42.02250239636319" lon="1.1103851734127284"><ele>825.0</ele><time>2026-04-27T12:54:12.003Z</time></trkpt><trkpt lat="42.02256726500111" lon="1.1104388114962203"><ele>825.0</ele><time>2026-04-27T12:54:13.003Z</time></trkpt><trkpt lat="42.022633240623044" lon="1.1104903321631305"><ele>825.0</ele><time>2026-04-27T12:54:14.003Z</time></trkpt><trkpt lat="42.02269864501358" lon="1.1105372295910303"><ele>825.0</ele><time>2026-04-27T12:54:15.003Z</time></trkpt><trkpt lat="42.02276733526533" lon="1.1105815844524383"><ele>826.3333333333334</ele><time>2026-04-27T12:54:16.003Z</time></trkpt><trkpt lat="42.02283536053338" lon="1.1106236748689438"><ele>827.6666666666667</ele><time>2026-04-27T12:54:17.003Z</time></trkpt><trkpt lat="42.02290476809052" lon="1.1106621718529275"><ele>829.0</ele><time>2026-04-27T12:54:18.003Z</time></trkpt><trkpt lat="42.02297492987383" lon="1.1106961335169996"><ele>830.3333333333334</ele><time>2026-04-27T12:54:19.003Z</time></trkpt><trkpt lat="42.02304692912533" lon="1.1107308458514886"><ele>831.6666666666667</ele><time>2026-04-27T12:54:20.003Z</time></trkpt><trkpt lat="42.02311924005303" lon="1.1107625823084923"><ele>833.0</ele><time>2026-04-27T12:54:21Z</time></trkpt><trkpt lat="42.02319313820068" lon="1.1107911688412735"><ele>833.0000000000001</ele><time>2026-04-27T12:54:22Z</time></trkpt><trkpt lat="42.02326701855959" lon="1.1108161877321023"><ele>833.0</ele><time>2026-04-27T12:54:23Z</time></trkpt><trkpt lat="42.02334168420183" lon="1.1108377162231795"><ele>833.0</ele><time>2026-04-27T12:54:24Z</time></trkpt><trkpt lat="42.02341808481594" lon="1.1108548919448116"><ele>833.0</ele><time>2026-04-27T12:54:25Z</time></trkpt><trkpt lat="42.02349363795912" lon="1.1108660645351183"><ele>833.0000000000001</ele><time>2026-04-27T12:54:26Z</time></trkpt><trkpt lat="42.023571421025196" lon="1.1108748922407805"><ele>833.0</ele><time>2026-04-27T12:54:27Z</time></trkpt><trkpt lat="42.02364806353665" lon="1.1108821688771078"><ele>834.1666666666667</ele><time>2026-04-27T12:54:28Z</time></trkpt><trkpt lat="42.02372526791116" lon="1.1108838085051724"><ele>835.3333333333334</ele><time>2026-04-27T12:54:29Z</time></trkpt><trkpt lat="42.023801895279256" lon="1.1108831203154768"><ele>836.5</ele><time>2026-04-27T12:54:30Z</time></trkpt><trkpt lat="42.0238793696574" lon="1.1108803931392366"><ele>837.6666666666667</ele><time>2026-04-27T12:54:31Z</time></trkpt><trkpt lat="42.02395786276716" lon="1.1108738113996055"><ele>838.8333333333334</ele><time>2026-04-27T12:54:32Z</time></trkpt><trkpt lat="42.024035866543684" lon="1.1108626767183227"><ele>840.0</ele><time>2026-04-27T12:54:33Z</time></trkpt><trkpt lat="42.024113440978844" lon="1.1108496938554304"><ele>841.8333333333334</ele><time>2026-04-27T12:54:34Z</time></trkpt><trkpt lat="42.02419075695584" lon="1.1108319438392595"><ele>843.6666666666667</ele><time>2026-04-27T12:54:35Z</time></trkpt><trkpt lat="42.024269419437076" lon="1.1108099632555144"><ele>845.5</ele><time>2026-04-27T12:54:36Z</time></trkpt><trkpt lat="42.02434695357246" lon="1.1107855064243508"><ele>847.3333333333334</ele><time>2026-04-27T12:54:37Z</time></trkpt><trkpt lat="42.02442389155298" lon="1.1107564218189845"><ele>849.1666666666667</ele><time>2026-04-27T12:54:38Z</time></trkpt><trkpt lat="42.02449935489821" lon="1.1107227847420218"><ele>851.0</ele><time>2026-04-27T12:54:39Z</time></trkpt><trkpt lat="42.02457415828317" lon="1.110683000890409"><ele>852.6666666666667</ele><time>2026-04-27T12:54:40Z</time></trkpt><trkpt lat="42.024649048518036" lon="1.1106468594556482"><ele>854.3333333333334</ele><time>2026-04-27T12:54:41Z</time></trkpt><trkpt lat="42.024722457449414" lon="1.110606831925097"><ele>856.0</ele><time>2026-04-27T12:54:42Z</time></trkpt><trkpt lat="42.024795266189926" lon="1.110562216510047"><ele>857.6666666666667</ele><time>2026-04-27T12:54:43Z</time></trkpt><trkpt lat="42.02486781938681" lon="1.1105156145670192"><ele>859.3333333333334</ele><time>2026-04-27T12:54:44Z</time></trkpt><trkpt lat="42.0249395304811" lon="1.1104692898864874"><ele>861.0</ele><time>2026-04-27T12:54:45Z</time></trkpt><trkpt lat="42.025012477414464" lon="1.1104220200591481"><ele>861.5</ele><time>2026-04-27T12:54:46Z</time></trkpt><trkpt lat="42.02508713360091" lon="1.1103780042442453"><ele>862.0</ele><time>2026-04-27T12:54:47Z</time></trkpt><trkpt lat="42.02516191385799" lon="1.1103312749147427"><ele>862.5</ele><time>2026-04-27T12:54:48Z</time></trkpt><trkpt lat="42.02523626831702" lon="1.1102829355294221"><ele>863.0</ele><time>2026-04-27T12:54:49.001Z</time></trkpt><trkpt lat="42.02530961266737" lon="1.1102311780407457"><ele>863.5</ele><time>2026-04-27T12:54:50.001Z</time></trkpt><trkpt lat="42.02538173697215" lon="1.1101840231346534"><ele>864.0</ele><time>2026-04-27T12:54:51.001Z</time></trkpt><trkpt lat="42.02545241488849" lon="1.1101376202896913"><ele>864.0</ele><time>2026-04-27T12:54:52.001Z</time></trkpt><trkpt lat="42.025523761920596" lon="1.1100935987097702"><ele>864.0</ele><time>2026-04-27T12:54:53.001Z</time></trkpt><trkpt lat="42.025598234775245" lon="1.110051630650081"><ele>864.0</ele><time>2026-04-27T12:54:54.001Z</time></trkpt><trkpt lat="42.025676332366864" lon="1.1100107712924743"><ele>864.0</ele><time>2026-04-27T12:54:55.001Z</time></trkpt><trkpt lat="42.0257557491664" lon="1.1099940712279388"><ele>864.0</ele><time>2026-04-27T12:54:56.001Z</time></trkpt><trkpt lat="42.02582512046183" lon="1.1099412533817379"><ele>864.0</ele><time>2026-04-27T12:54:57.001Z</time></trkpt><trkpt lat="42.02590225808475" lon="1.1099347884929036"><ele>863.3333333333334</ele><time>2026-04-27T12:54:58.001Z</time></trkpt><trkpt lat="42.02597034784751" lon="1.1099123985686505"><ele>862.6666666666667</ele><time>2026-04-27T12:54:59.001Z</time></trkpt><trkpt lat="42.02604034365597" lon="1.1098900421310298"><ele>862.0</ele><time>2026-04-27T12:55:00.001Z</time></trkpt><trkpt lat="42.02611163244967" lon="1.1098677236238712"><ele>861.3333333333334</ele><time>2026-04-27T12:55:01.001Z</time></trkpt><trkpt lat="42.02620141991728" lon="1.1098444454639784"><ele>860.6666666666667</ele><time>2026-04-27T12:55:02.001Z</time></trkpt><trkpt lat="42.02629978181876" lon="1.1098217395229415"><ele>860.0</ele><time>2026-04-27T12:55:03.001Z</time></trkpt><trkpt lat="42.02639185207187" lon="1.1098024716662567"><ele>863.3333333333334</ele><time>2026-04-27T12:55:04.001Z</time></trkpt><trkpt lat="42.026480373787464" lon="1.109785072752214"><ele>866.6666666666667</ele><time>2026-04-27T12:55:05.001Z</time></trkpt><trkpt lat="42.02656045590899" lon="1.1097499500882677"><ele>870.0</ele><time>2026-04-27T12:55:06.001Z</time></trkpt><trkpt lat="42.02664844002492" lon="1.1097434860325226"><ele>873.3333333333333</ele><time>2026-04-27T12:55:07.001Z</time></trkpt><trkpt lat="42.02673589146335" lon="1.1097219644222869"><ele>876.6666666666666</ele><time>2026-04-27T12:55:08.001Z</time></trkpt><trkpt lat="42.02682180807074" lon="1.109703483176396"><ele>880.0</ele><time>2026-04-27T12:55:09.001Z</time></trkpt><trkpt lat="42.026901774765285" lon="1.1096835475650206"><ele>881.1666666666666</ele><time>2026-04-27T12:55:10.001Z</time></trkpt><trkpt lat="42.0269862920261" lon="1.1096642384052284"><ele>882.3333333333333</ele><time>2026-04-27T12:55:11.001Z</time></trkpt><trkpt lat="42.02707020563143" lon="1.1096409116076449"><ele>883.5</ele><time>2026-04-27T12:55:12.001Z</time></trkpt><trkpt lat="42.02715742772905" lon="1.1096209529440124"><ele>884.6666666666667</ele><time>2026-04-27T12:55:13.001Z</time></trkpt><trkpt lat="42.027236817971705" lon="1.1095955713388694"><ele>885.8333333333334</ele><time>2026-04-27T12:55:14.001Z</time></trkpt><trkpt lat="42.02731861656466" lon="1.1095771774620897"><ele>887.0</ele><time>2026-04-27T12:55:15.001Z</time></trkpt><trkpt lat="42.0274042841609" lon="1.1095574262629804"><ele>888.1666666666667</ele><time>2026-04-27T12:55:16.001Z</time></trkpt><trkpt lat="42.027488059884476" lon="1.1095332902620652"><ele>889.3333333333334</ele><time>2026-04-27T12:55:17.001Z</time></trkpt><trkpt lat="42.02757203390501" lon="1.1095093663426177"><ele>890.5</ele><time>2026-04-27T12:55:18.001Z</time></trkpt><trkpt lat="42.02765798172123" lon="1.1094873895534911"><ele>891.6666666666667</ele><time>2026-04-27T12:55:19.001Z</time></trkpt><trkpt lat="42.02774332053043" lon="1.1094642170815112"><ele>892.8333333333334</ele><time>2026-04-27T12:55:20.001Z</time></trkpt><trkpt lat="42.02782921031465" lon="1.1094396713837409"><ele>894.0</ele><time>2026-04-27T12:55:21.001Z</time></trkpt><trkpt lat="42.027915185085845" lon="1.1094132368879244"><ele>894.0</ele><time>2026-04-27T12:55:22.001Z</time></trkpt><trkpt lat="42.02799895557484" lon="1.1093858286889149"><ele>894.0</ele><time>2026-04-27T12:55:23.001Z</time></trkpt><trkpt lat="42.02808190031407" lon="1.1093570387256815"><ele>894.0</ele><time>2026-04-27T12:55:24.001Z</time></trkpt><trkpt lat="42.02816610683005" lon="1.1093274465337355"><ele>894.0</ele><time>2026-04-27T12:55:25.001Z</time></trkpt><trkpt lat="42.028253009776336" lon="1.1092976154394498"><ele>894.0</ele><time>2026-04-27T12:55:26.002Z</time></trkpt><trkpt lat="42.02833740179316" lon="1.1092678983851234"><ele>894.0</ele><time>2026-04-27T12:55:27.002Z</time></trkpt><trkpt lat="42.02842253310466" lon="1.109240083711529"><ele>893.2</ele><time>2026-04-27T12:55:28.002Z</time></trkpt><trkpt lat="42.028505916959666" lon="1.1092125797860757"><ele>892.4000000000001</ele><time>2026-04-27T12:55:29.002Z</time></trkpt><trkpt lat="42.02858588849072" lon="1.1091796614754148"><ele>891.6</ele><time>2026-04-27T12:55:30.002Z</time></trkpt><trkpt lat="42.02867123502896" lon="1.1091438764538453"><ele>890.8</ele><time>2026-04-27T12:55:31.002Z</time></trkpt><trkpt lat="42.028844812169666" lon="1.1090945985334462"><ele>890.0</ele><time>2026-04-27T12:55:33.002Z</time></trkpt><trkpt lat="42.028936408271676" lon="1.1090924021826334"><ele>890.0</ele><time>2026-04-27T12:55:34.002Z</time></trkpt><trkpt lat="42.029028008630995" lon="1.1091092475320423"><ele>890.0</ele><time>2026-04-27T12:55:35.002Z</time></trkpt><trkpt lat="42.02911893599244" lon="1.1091455771837142"><ele>890.0</ele><time>2026-04-27T12:55:36.002Z</time></trkpt><trkpt lat="42.02919368904381" lon="1.109209432688583"><ele>890.0</ele><time>2026-04-27T12:55:37.002Z</time></trkpt><trkpt lat="42.02925376959748" lon="1.1092912866083255"><ele>890.0</ele><time>2026-04-27T12:55:38.002Z</time></trkpt><trkpt lat="42.02930059124521" lon="1.109392174170063"><ele>890.8333333333334</ele><time>2026-04-27T12:55:39.002Z</time></trkpt><trkpt lat="42.02933456442646" lon="1.1094988796094685"><ele>891.6666666666667</ele><time>2026-04-27T12:55:40.002Z</time></trkpt><trkpt lat="42.029348895955394" lon="1.1096162013000008"><ele>892.5</ele><time>2026-04-27T12:55:41.002Z</time></trkpt><trkpt lat="42.029348710828444" lon="1.109734923534226"><ele>893.3333333333333</ele><time>2026-04-27T12:55:42.002Z</time></trkpt><trkpt lat="42.02933316478958" lon="1.1098470335469668"><ele>894.1666666666666</ele><time>2026-04-27T12:55:43.002Z</time></trkpt><trkpt lat="42.029301908868504" lon="1.1099493478181133"><ele>895.0</ele><time>2026-04-27T12:55:44.002Z</time></trkpt><trkpt lat="42.02925904804924" lon="1.1100459769077589"><ele>894.9999999999999</ele><time>2026-04-27T12:55:45.002Z</time></trkpt><trkpt lat="42.029210139166025" lon="1.1101371206932942"><ele>895.0</ele><time>2026-04-27T12:55:46.002Z</time></trkpt><trkpt lat="42.02915418192503" lon="1.1102174296643321"><ele>895.0</ele><time>2026-04-27T12:55:47.002Z</time></trkpt><trkpt lat="42.02909807980541" lon="1.1102996173881943"><ele>895.0</ele><time>2026-04-27T12:55:48.002Z</time></trkpt><trkpt lat="42.02904346654699" lon="1.1103816722453241"><ele>894.9999999999999</ele><time>2026-04-27T12:55:49.002Z</time></trkpt><trkpt lat="42.02898981196247" lon="1.1104645056831588"><ele>895.0</ele><time>2026-04-27T12:55:50.002Z</time></trkpt><trkpt lat="42.028937678732134" lon="1.1105445861074152"><ele>893.9999999999999</ele><time>2026-04-27T12:55:51.002Z</time></trkpt><trkpt lat="42.0288830629144" lon="1.1106248076986096"><ele>893.0</ele><time>2026-04-27T12:55:52.002Z</time></trkpt><trkpt lat="42.02882846358063" lon="1.1107061335002517"><ele>892.0</ele><time>2026-04-27T12:55:53.002Z</time></trkpt><trkpt lat="42.02877579474175" lon="1.1107909728206296"><ele>891.0</ele><time>2026-04-27T12:55:54.002Z</time></trkpt><trkpt lat="42.0287213316549" lon="1.1108748943851117"><ele>889.9999999999999</ele><time>2026-04-27T12:55:55.002Z</time></trkpt><trkpt lat="42.028665931134114" lon="1.110953830104461"><ele>889.0</ele><time>2026-04-27T12:55:56.002Z</time></trkpt><trkpt lat="42.02861338885655" lon="1.1110368908350228"><ele>888.9999999999999</ele><time>2026-04-27T12:55:57.002Z</time></trkpt><trkpt lat="42.028562779235926" lon="1.1111240622247989"><ele>889.0</ele><time>2026-04-27T12:55:58.002Z</time></trkpt><trkpt lat="42.028518778161526" lon="1.1112174803712422"><ele>889.0</ele><time>2026-04-27T12:55:59.002Z</time></trkpt><trkpt lat="42.02848425739623" lon="1.1113169224107646"><ele>889.0</ele><time>2026-04-27T12:56:00.002Z</time></trkpt><trkpt lat="42.02845870715715" lon="1.11142337869974"><ele>888.9999999999999</ele><time>2026-04-27T12:56:01.002Z</time></trkpt><trkpt lat="42.028443658807625" lon="1.1115329469283393"><ele>889.0</ele><time>2026-04-27T12:56:02.002Z</time></trkpt><trkpt lat="42.02843454039284" lon="1.1116438076972497"><ele>890.6666666666666</ele><time>2026-04-27T12:56:03.002Z</time></trkpt><trkpt lat="42.028438745942054" lon="1.11175704272399"><ele>892.3333333333333</ele><time>2026-04-27T12:56:04.003Z</time></trkpt><trkpt lat="42.02845658323941" lon="1.1118676358721753"><ele>894.0</ele><time>2026-04-27T12:56:05.003Z</time></trkpt><trkpt lat="42.02848055941659" lon="1.1119728182617323"><ele>895.6666666666667</ele><time>2026-04-27T12:56:06.003Z</time></trkpt><trkpt lat="42.028515224832795" lon="1.1120726138946346"><ele>897.3333333333334</ele><time>2026-04-27T12:56:07.003Z</time></trkpt><trkpt lat="42.02855960051512" lon="1.1121674961315675"><ele>899.0</ele><time>2026-04-27T12:56:08.003Z</time></trkpt><trkpt lat="42.02860661519996" lon="1.1122591988475712"><ele>899.0000000000001</ele><time>2026-04-27T12:56:09.003Z</time></trkpt><trkpt lat="42.02865959061486" lon="1.1123439192982516"><ele>899.0</ele><time>2026-04-27T12:56:10.003Z</time></trkpt><trkpt lat="42.02871797903498" lon="1.112430972950513"><ele>899.0</ele><time>2026-04-27T12:56:11.003Z</time></trkpt><trkpt lat="42.028772386150585" lon="1.112519738115129"><ele>899.0</ele><time>2026-04-27T12:56:12.003Z</time></trkpt><trkpt lat="42.028828509056574" lon="1.1126051259323402"><ele>899.0000000000001</ele><time>2026-04-27T12:56:13.003Z</time></trkpt><trkpt lat="42.028886223214684" lon="1.1126874783237881"><ele>899.0</ele><time>2026-04-27T12:56:14.003Z</time></trkpt><trkpt lat="42.02894404885827" lon="1.1127709432610342"><ele>898.3333333333334</ele><time>2026-04-27T12:56:15.003Z</time></trkpt><trkpt lat="42.02900359318269" lon="1.1128609910911977"><ele>897.6666666666667</ele><time>2026-04-27T12:56:16.003Z</time></trkpt><trkpt lat="42.02906370209176" lon="1.1129485407958806"><ele>897.0</ele><time>2026-04-27T12:56:17.003Z</time></trkpt><trkpt lat="42.02912204658244" lon="1.1130285354511542"><ele>896.3333333333333</ele><time>2026-04-27T12:56:18.003Z</time></trkpt><trkpt lat="42.02918360849974" lon="1.1131133320676008"><ele>895.6666666666666</ele><time>2026-04-27T12:56:19.003Z</time></trkpt><trkpt lat="42.02924308802659" lon="1.113194090708366"><ele>895.0</ele><time>2026-04-27T12:56:20.003Z</time></trkpt><trkpt lat="42.02930372438266" lon="1.1132807150768955"><ele>896.8333333333333</ele><time>2026-04-27T12:56:21.003Z</time></trkpt><trkpt lat="42.02936304864133" lon="1.1133620000133881"><ele>898.6666666666666</ele><time>2026-04-27T12:56:22.003Z</time></trkpt><trkpt lat="42.02942495097314" lon="1.1134475465808376"><ele>900.5</ele><time>2026-04-27T12:56:23.003Z</time></trkpt><trkpt lat="42.02948489560799" lon="1.113525405617144"><ele>902.3333333333333</ele><time>2026-04-27T12:56:24.003Z</time></trkpt><trkpt lat="42.029550344131735" lon="1.1136018473153941"><ele>904.1666666666666</ele><time>2026-04-27T12:56:25.003Z</time></trkpt><trkpt lat="42.02962140728613" lon="1.1136718170714783"><ele>906.0</ele><time>2026-04-27T12:56:26.003Z</time></trkpt><trkpt lat="42.02969972488395" lon="1.1137242998047765"><ele>906.0</ele><time>2026-04-27T12:56:26.999Z</time></trkpt><trkpt lat="42.029788397667765" lon="1.1137589471586309"><ele>905.9999999999999</ele><time>2026-04-27T12:56:27.999Z</time></trkpt><trkpt lat="42.02987694029353" lon="1.1137711002328454"><ele>905.9999999999999</ele><time>2026-04-27T12:56:28.999Z</time></trkpt><trkpt lat="42.02996608889798" lon="1.1137894719010721"><ele>906.0</ele><time>2026-04-27T12:56:29.999Z</time></trkpt><trkpt lat="42.03005905943929" lon="1.1137655943776352"><ele>906.0</ele><time>2026-04-27T12:56:30.999Z</time></trkpt><trkpt lat="42.03014512608471" lon="1.1137215911444178"><ele>908.5999999999999</ele><time>2026-04-27T12:56:31.999Z</time></trkpt><trkpt lat="42.03022127302038" lon="1.1136547053199526"><ele>911.1999999999999</ele><time>2026-04-27T12:56:32.999Z</time></trkpt><trkpt lat="42.03028612974992" lon="1.1135663043918023"><ele>913.8000000000001</ele><time>2026-04-27T12:56:33.999Z</time></trkpt><trkpt lat="42.030340448841706" lon="1.1134598464898093"><ele>916.4000000000001</ele><time>2026-04-27T12:56:35Z</time></trkpt><trkpt lat="42.03037703700526" lon="1.113330166748491"><ele>919.0</ele><time>2026-04-27T12:56:35.999Z</time></trkpt><trkpt lat="42.030391904900455" lon="1.1131995371176964"><ele>921.2</ele><time>2026-04-27T12:56:36.999Z</time></trkpt><trkpt lat="42.03038795264036" lon="1.1130689678076202"><ele>923.4000000000001</ele><time>2026-04-27T12:56:38Z</time></trkpt><trkpt lat="42.03036597007079" lon="1.1129456167654728"><ele>925.6</ele><time>2026-04-27T12:56:39Z</time></trkpt><trkpt lat="42.03031958724992" lon="1.1128263404535692"><ele>927.8</ele><time>2026-04-27T12:56:40Z</time></trkpt><trkpt lat="42.03026013614701" lon="1.1127247245526677"><ele>930.0</ele><time>2026-04-27T12:56:41Z</time></trkpt><trkpt lat="42.03018746811474" lon="1.1126539576854313"><ele>930.0</ele><time>2026-04-27T12:56:42Z</time></trkpt><trkpt lat="42.03012165770752" lon="1.112582927667802"><ele>930.0</ele><time>2026-04-27T12:56:43Z</time></trkpt><trkpt lat="42.030051206492125" lon="1.112521357393271"><ele>930.0</ele><time>2026-04-27T12:56:44Z</time></trkpt><trkpt lat="42.02997337149902" lon="1.1124739525167608"><ele>930.0</ele><time>2026-04-27T12:56:45Z</time></trkpt><trkpt lat="42.02989199893147" lon="1.1124345178895223"><ele>930.0</ele><time>2026-04-27T12:56:46Z</time></trkpt><trkpt lat="42.02981216949719" lon="1.1123919069651493"><ele>930.0</ele><time>2026-04-27T12:56:47Z</time></trkpt><trkpt lat="42.02973449310356" lon="1.112343439835707"><ele>928.0</ele><time>2026-04-27T12:56:48Z</time></trkpt><trkpt lat="42.02965998503412" lon="1.112281880034265"><ele>926.0</ele><time>2026-04-27T12:56:49Z</time></trkpt><trkpt lat="42.02959274651796" lon="1.1122066313081471"><ele>924.0</ele><time>2026-04-27T12:56:50Z</time></trkpt><trkpt lat="42.02954391082132" lon="1.1121105439781545"><ele>922.0</ele><time>2026-04-27T12:56:51Z</time></trkpt><trkpt lat="42.02950705718676" lon="1.1120057963602699"><ele>920.0</ele><time>2026-04-27T12:56:52Z</time></trkpt><trkpt lat="42.02948622515617" lon="1.1118961136982337"><ele>918.0</ele><time>2026-04-27T12:56:53Z</time></trkpt><trkpt lat="42.02948200561055" lon="1.1117811365913974"><ele>918.0</ele><time>2026-04-27T12:56:54Z</time></trkpt><trkpt lat="42.02949407030665" lon="1.111669715706824"><ele>918.0</ele><time>2026-04-27T12:56:55Z</time></trkpt><trkpt lat="42.029535997116" lon="1.1115713969353214"><ele>918.0</ele><time>2026-04-27T12:56:56Z</time></trkpt><trkpt lat="42.02957266761021" lon="1.111474786952263"><ele>918.0</ele><time>2026-04-27T12:56:57Z</time></trkpt><trkpt lat="42.02961356535031" lon="1.1113805364503917"><ele>918.0</ele><time>2026-04-27T12:56:58Z</time></trkpt><trkpt lat="42.02965784048039" lon="1.1112903520885975"><ele>918.0</ele><time>2026-04-27T12:56:59Z</time></trkpt><trkpt lat="42.02970481783301" lon="1.1111997142117205"><ele>918.8333333333334</ele><time>2026-04-27T12:57:00Z</time></trkpt><trkpt lat="42.029752705213944" lon="1.1111106737037666"><ele>919.6666666666667</ele><time>2026-04-27T12:57:01Z</time></trkpt><trkpt lat="42.029801848371605" lon="1.1110214852527376"><ele>920.5</ele><time>2026-04-27T12:57:02Z</time></trkpt><trkpt lat="42.029851962613556" lon="1.1109305344249394"><ele>921.3333333333334</ele><time>2026-04-27T12:57:03Z</time></trkpt><trkpt lat="42.02990205911351" lon="1.110843073195777"><ele>922.1666666666667</ele><time>2026-04-27T12:57:04Z</time></trkpt><trkpt lat="42.02995390585587" lon="1.1107549974236952"><ele>923.0</ele><time>2026-04-27T12:57:05Z</time></trkpt><trkpt lat="42.030009172039534" lon="1.110668249520862"><ele>923.0000000000001</ele><time>2026-04-27T12:57:06Z</time></trkpt><trkpt lat="42.03006559899323" lon="1.1105846016997678"><ele>923.0</ele><time>2026-04-27T12:57:07Z</time></trkpt><trkpt lat="42.030113624216376" lon="1.1104879682792828"><ele>923.0</ele><time>2026-04-27T12:57:08.001Z</time></trkpt><trkpt lat="42.03017344740546" lon="1.110407296982129"><ele>923.0</ele><time>2026-04-27T12:57:09.001Z</time></trkpt><trkpt lat="42.030233639573645" lon="1.1103258081149534"><ele>923.0000000000001</ele><time>2026-04-27T12:57:10.001Z</time></trkpt><trkpt lat="42.03029511542286" lon="1.110246225488083"><ele>923.0</ele><time>2026-04-27T12:57:11.001Z</time></trkpt><trkpt lat="42.03035956129148" lon="1.1101713439117704"><ele>923.0000000000001</ele><time>2026-04-27T12:57:12.001Z</time></trkpt><trkpt lat="42.03042418230785" lon="1.1100950101084024"><ele>923.0</ele><time>2026-04-27T12:57:13.001Z</time></trkpt><trkpt lat="42.030488734296874" lon="1.110019450102487"><ele>923.0</ele><time>2026-04-27T12:57:14.001Z</time></trkpt><trkpt lat="42.030552597436355" lon="1.109946730110194"><ele>923.0</ele><time>2026-04-27T12:57:15.001Z</time></trkpt><trkpt lat="42.030616331539576" lon="1.1098764947275759"><ele>923.0000000000001</ele><time>2026-04-27T12:57:16.001Z</time></trkpt><trkpt lat="42.03068422708269" lon="1.1098125175255378"><ele>923.0</ele><time>2026-04-27T12:57:17.001Z</time></trkpt><trkpt lat="42.03074794019024" lon="1.1097482626363515"><ele>926.3333333333334</ele><time>2026-04-27T12:57:18.001Z</time></trkpt><trkpt lat="42.03081147339783" lon="1.1096833944303703"><ele>929.6666666666667</ele><time>2026-04-27T12:57:19.001Z</time></trkpt><trkpt lat="42.03087790727819" lon="1.1096234857836418"><ele>933.0</ele><time>2026-04-27T12:57:20.001Z</time></trkpt><trkpt lat="42.03094089041895" lon="1.109560955624635"><ele>936.3333333333333</ele><time>2026-04-27T12:57:21.001Z</time></trkpt><trkpt lat="42.03098878636502" lon="1.109477550558529"><ele>939.6666666666666</ele><time>2026-04-27T12:57:22.001Z</time></trkpt><trkpt lat="42.0310317725391" lon="1.1093915924561917"><ele>943.0</ele><time>2026-04-27T12:57:23.001Z</time></trkpt><trkpt lat="42.031066791932716" lon="1.1093034883299535"><ele>942.9999999999999</ele><time>2026-04-27T12:57:24.001Z</time></trkpt><trkpt lat="42.03109420187123" lon="1.109210379124804"><ele>943.0</ele><time>2026-04-27T12:57:25.001Z</time></trkpt><trkpt lat="42.03111177393063" lon="1.1091115418823496"><ele>943.0</ele><time>2026-04-27T12:57:26.001Z</time></trkpt><trkpt lat="42.031120754195506" lon="1.1090098435484734"><ele>943.0</ele><time>2026-04-27T12:57:27.001Z</time></trkpt><trkpt lat="42.03112663314762" lon="1.1089075248259497"><ele>942.9999999999999</ele><time>2026-04-27T12:57:28.001Z</time></trkpt><trkpt lat="42.031128160299694" lon="1.1088050224706365"><ele>943.0</ele><time>2026-04-27T12:57:29.001Z</time></trkpt><trkpt lat="42.03112722063321" lon="1.108702885350524"><ele>945.1666666666666</ele><time>2026-04-27T12:57:30.001Z</time></trkpt><trkpt lat="42.03112387792441" lon="1.1085996568703926"><ele>947.3333333333333</ele><time>2026-04-27T12:57:31.001Z</time></trkpt><trkpt lat="42.031118391522945" lon="1.1084956412705882"><ele>949.5</ele><time>2026-04-27T12:57:32.001Z</time></trkpt><trkpt lat="42.03111313736389" lon="1.1083929405758535"><ele>951.6666666666667</ele><time>2026-04-27T12:57:33.001Z</time></trkpt><trkpt lat="42.03111227385538" lon="1.1082898456244112"><ele>953.8333333333334</ele><time>2026-04-27T12:57:34.001Z</time></trkpt><trkpt lat="42.03111833756148" lon="1.1081861697143425"><ele>956.0</ele><time>2026-04-27T12:57:35.001Z</time></trkpt><trkpt lat="42.0311277954432" lon="1.1080835442576185"><ele>956.5000000000001</ele><time>2026-04-27T12:57:36.001Z</time></trkpt><trkpt lat="42.03114695190212" lon="1.107982004525831"><ele>957.0</ele><time>2026-04-27T12:57:37.001Z</time></trkpt><trkpt lat="42.03117493245193" lon="1.107884557897447"><ele>957.5</ele><time>2026-04-27T12:57:38.001Z</time></trkpt><trkpt lat="42.03120930784658" lon="1.1077893504085947"><ele>958.0</ele><time>2026-04-27T12:57:39.001Z</time></trkpt><trkpt lat="42.03124871320814" lon="1.1077016544217866"><ele>958.5000000000001</ele><time>2026-04-27T12:57:40.001Z</time></trkpt><trkpt lat="42.03130694791497" lon="1.1076319449555028"><ele>959.0</ele><time>2026-04-27T12:57:41.002Z</time></trkpt><trkpt lat="42.03134416039447" lon="1.1075408870024108"><ele>959.0</ele><time>2026-04-27T12:57:42.002Z</time></trkpt><trkpt lat="42.03139789648916" lon="1.107468818493407"><ele>959.0</ele><time>2026-04-27T12:57:43.002Z</time></trkpt><trkpt lat="42.031448428912576" lon="1.1073982779117697"><ele>959.0</ele><time>2026-04-27T12:57:44.002Z</time></trkpt><trkpt lat="42.03150298395933" lon="1.107330909899957"><ele>959.0</ele><time>2026-04-27T12:57:45.002Z</time></trkpt><trkpt lat="42.031550777166444" lon="1.1072559224883658"><ele>959.0</ele><time>2026-04-27T12:57:46.002Z</time></trkpt><trkpt lat="42.03160180917929" lon="1.1071848857513389"><ele>959.0</ele><time>2026-04-27T12:57:47.002Z</time></trkpt><trkpt lat="42.03164353073346" lon="1.107100207906366"><ele>959.0</ele><time>2026-04-27T12:57:48.002Z</time></trkpt><trkpt lat="42.03167501607582" lon="1.1070120407785031"><ele>960.8333333333334</ele><time>2026-04-27T12:57:49.002Z</time></trkpt><trkpt lat="42.031694808871" lon="1.1069140296423066"><ele>962.6666666666667</ele><time>2026-04-27T12:57:50.002Z</time></trkpt><trkpt lat="42.03170696637124" lon="1.106814881584134"><ele>964.5</ele><time>2026-04-27T12:57:51.002Z</time></trkpt><trkpt lat="42.03170699825593" lon="1.1067107171161115"><ele>966.3333333333333</ele><time>2026-04-27T12:57:52.002Z</time></trkpt><trkpt lat="42.03169224253478" lon="1.1066114544857337"><ele>968.1666666666666</ele><time>2026-04-27T12:57:53.002Z</time></trkpt><trkpt lat="42.031664164679015" lon="1.1065145546517092"><ele>970.0</ele><time>2026-04-27T12:57:54.002Z</time></trkpt><trkpt lat="42.03162557457004" lon="1.106426389412392"><ele>970.3333333333333</ele><time>2026-04-27T12:57:55.002Z</time></trkpt><trkpt lat="42.03157513207522" lon="1.1063493407067597"><ele>970.6666666666666</ele><time>2026-04-27T12:57:56.002Z</time></trkpt><trkpt lat="42.0315176361642" lon="1.1062784078224575"><ele>971.0</ele><time>2026-04-27T12:57:57.002Z</time></trkpt><trkpt lat="42.031453863968885" lon="1.1062159122123967"><ele>971.3333333333333</ele><time>2026-04-27T12:57:58.002Z</time></trkpt><trkpt lat="42.03138565168729" lon="1.1061630331195953"><ele>971.6666666666666</ele><time>2026-04-27T12:57:59.002Z</time></trkpt><trkpt lat="42.03131399273129" lon="1.1061141842188864"><ele>972.0</ele><time>2026-04-27T12:58:00.002Z</time></trkpt><trkpt lat="42.03124253671689" lon="1.106073197290161"><ele>972.0</ele><time>2026-04-27T12:58:01.002Z</time></trkpt><trkpt lat="42.03117074509407" lon="1.1060374313111516"><ele>972.0</ele><time>2026-04-27T12:58:02.002Z</time></trkpt><trkpt lat="42.03109937674213" lon="1.1059968092595553"><ele>972.0</ele><time>2026-04-27T12:58:03.002Z</time></trkpt><trkpt lat="42.031030189755896" lon="1.1059514977616103"><ele>972.0</ele><time>2026-04-27T12:58:04.002Z</time></trkpt><trkpt lat="42.03096369137267" lon="1.1058998370350188"><ele>972.0</ele><time>2026-04-27T12:58:05.002Z</time></trkpt><trkpt lat="42.03089818296125" lon="1.1058491411398628"><ele>972.0</ele><time>2026-04-27T12:58:06.002Z</time></trkpt><trkpt lat="42.030834868511704" lon="1.1057958789343325"><ele>972.4285714285713</ele><time>2026-04-27T12:58:07.002Z</time></trkpt><trkpt lat="42.03077331935855" lon="1.1057425988132235"><ele>972.8571428571429</ele><time>2026-04-27T12:58:08.002Z</time></trkpt><trkpt lat="42.03071495358511" lon="1.105683805800156"><ele>973.2857142857142</ele><time>2026-04-27T12:58:09.002Z</time></trkpt><trkpt lat="42.03065937844437" lon="1.105620065308794"><ele>973.7142857142857</ele><time>2026-04-27T12:58:10.002Z</time></trkpt><trkpt lat="42.03060396179249" lon="1.1055562107103623"><ele>974.1428571428571</ele><time>2026-04-27T12:58:11.002Z</time></trkpt><trkpt lat="42.030550948238414" lon="1.1054905668790918"><ele>974.5714285714286</ele><time>2026-04-27T12:58:12.002Z</time></trkpt><trkpt lat="42.03049936978987" lon="1.1054250393781864"><ele>975.0</ele><time>2026-04-27T12:58:13.002Z</time></trkpt><trkpt lat="42.03045029211148" lon="1.1053556314028015"><ele>975.0</ele><time>2026-04-27T12:58:14.002Z</time></trkpt><trkpt lat="42.030403656177135" lon="1.1052848028421478"><ele>974.9999999999999</ele><time>2026-04-27T12:58:15.002Z</time></trkpt><trkpt lat="42.03036242243833" lon="1.1052079841960862"><ele>975.0</ele><time>2026-04-27T12:58:16.002Z</time></trkpt><trkpt lat="42.03032682148839" lon="1.105126090708691"><ele>975.0</ele><time>2026-04-27T12:58:17.003Z</time></trkpt><trkpt lat="42.03030222981694" lon="1.1050355306605708"><ele>974.9999999999999</ele><time>2026-04-27T12:58:18.003Z</time></trkpt><trkpt lat="42.03029491747315" lon="1.1049373946214458"><ele>975.0</ele><time>2026-04-27T12:58:19.003Z</time></trkpt><trkpt lat="42.03029132219384" lon="1.104839704272047"><ele>975.0</ele><time>2026-04-27T12:58:20.003Z</time></trkpt><trkpt lat="42.03030413510122" lon="1.1047449788244272"><ele>974.1428571428571</ele><time>2026-04-27T12:58:21.003Z</time></trkpt><trkpt lat="42.030325450634265" lon="1.1046531893309672"><ele>973.2857142857142</ele><time>2026-04-27T12:58:22.003Z</time></trkpt><trkpt lat="42.03036374424722" lon="1.1045723521462225"><ele>972.4285714285713</ele><time>2026-04-27T12:58:23.003Z</time></trkpt><trkpt lat="42.03040958475158" lon="1.1045001482415189"><ele>971.5714285714284</ele><time>2026-04-27T12:58:24.003Z</time></trkpt><trkpt lat="42.030456658827234" lon="1.1044308883690284"><ele>970.7142857142857</ele><time>2026-04-27T12:58:25.003Z</time></trkpt><trkpt lat="42.03051567658454" lon="1.1043774083629543"><ele>969.8571428571427</ele><time>2026-04-27T12:58:26.003Z</time></trkpt><trkpt lat="42.03057963320791" lon="1.1043326670926468"><ele>968.9999999999999</ele><time>2026-04-27T12:58:27.003Z</time></trkpt><trkpt lat="42.030643694036115" lon="1.1042906301165363"><ele>969.0</ele><time>2026-04-27T12:58:28.003Z</time></trkpt><trkpt lat="42.0307116421739" lon="1.104251511314832"><ele>969.0</ele><time>2026-04-27T12:58:29.003Z</time></trkpt><trkpt lat="42.0307801202728" lon="1.1042184495280003"><ele>969.0</ele><time>2026-04-27T12:58:30.003Z</time></trkpt><trkpt lat="42.0308500784963" lon="1.104185585849628"><ele>969.0</ele><time>2026-04-27T12:58:31.003Z</time></trkpt><trkpt lat="42.030923449906254" lon="1.104153806611073"><ele>969.0</ele><time>2026-04-27T12:58:32.003Z</time></trkpt><trkpt lat="42.03099753664743" lon="1.1041211300461842"><ele>969.0</ele><time>2026-04-27T12:58:32.999Z</time></trkpt><trkpt lat="42.03107555475513" lon="1.1040920026462722"><ele>965.5</ele><time>2026-04-27T12:58:33.999Z</time></trkpt><trkpt lat="42.031152794302294" lon="1.10406732926237"><ele>962.0</ele><time>2026-04-27T12:58:34.999Z</time></trkpt><trkpt lat="42.031232902680664" lon="1.1040498974714914"><ele>958.5</ele><time>2026-04-27T12:58:35.999Z</time></trkpt><trkpt lat="42.03131472965211" lon="1.1040461830133645"><ele>955.0</ele><time>2026-04-27T12:58:36.999Z</time></trkpt><trkpt lat="42.03139884849963" lon="1.104051864187719"><ele>951.5</ele><time>2026-04-27T12:58:37.999Z</time></trkpt><trkpt lat="42.03148024922269" lon="1.104062358343657"><ele>948.0</ele><time>2026-04-27T12:58:38.999Z</time></trkpt><trkpt lat="42.03156075121453" lon="1.1040777594044833"><ele>955.5</ele><time>2026-04-27T12:58:39.999Z</time></trkpt><trkpt lat="42.03164120902612" lon="1.1040961859399647"><ele>963.0</ele><time>2026-04-27T12:58:40.999Z</time></trkpt><trkpt lat="42.031721444485655" lon="1.1041146097359045"><ele>970.5</ele><time>2026-04-27T12:58:41.999Z</time></trkpt><trkpt lat="42.03180152221304" lon="1.1041340255670176"><ele>978.0</ele><time>2026-04-27T12:58:42.999Z</time></trkpt><trkpt lat="42.03188413398051" lon="1.1041506474202192"><ele>985.5</ele><time>2026-04-27T12:58:43.999Z</time></trkpt><trkpt lat="42.031965576808865" lon="1.1041719896504283"><ele>993.0</ele><time>2026-04-27T12:58:44.999Z</time></trkpt><trkpt lat="42.03204651613505" lon="1.1041945319640918"><ele>993.0</ele><time>2026-04-27T12:58:45.999Z</time></trkpt><trkpt lat="42.03212561389927" lon="1.104212671335981"><ele>993.0</ele><time>2026-04-27T12:58:47Z</time></trkpt><trkpt lat="42.032206297883945" lon="1.1042316645718835"><ele>993.0</ele><time>2026-04-27T12:58:48Z</time></trkpt><trkpt lat="42.03228590652379" lon="1.104251421727045"><ele>993.0</ele><time>2026-04-27T12:58:49Z</time></trkpt><trkpt lat="42.032365437971606" lon="1.104270032748652"><ele>993.0</ele><time>2026-04-27T12:58:50Z</time></trkpt><trkpt lat="42.03244417151918" lon="1.1042906940651682"><ele>993.0</ele><time>2026-04-27T12:58:51Z</time></trkpt><trkpt lat="42.03252300700844" lon="1.104309003477998"><ele>992.6666666666666</ele><time>2026-04-27T12:58:52Z</time></trkpt><trkpt lat="42.032603428235305" lon="1.104328778852752"><ele>992.3333333333333</ele><time>2026-04-27T12:58:53Z</time></trkpt><trkpt lat="42.03268417401942" lon="1.104350650695922"><ele>992.0</ele><time>2026-04-27T12:58:54Z</time></trkpt><trkpt lat="42.03276241005401" lon="1.1043714471117207"><ele>991.6666666666666</ele><time>2026-04-27T12:58:55Z</time></trkpt><trkpt lat="42.032842806401426" lon="1.1044005854472019"><ele>991.3333333333333</ele><time>2026-04-27T12:58:56Z</time></trkpt><trkpt lat="42.03292228812129" lon="1.1044313856950616"><ele>991.0</ele><time>2026-04-27T12:58:57Z</time></trkpt><trkpt lat="42.033000416623544" lon="1.1044690692665176"><ele>990.9999999999999</ele><time>2026-04-27T12:58:58Z</time></trkpt><trkpt lat="42.03307975963305" lon="1.1045114629049189"><ele>991.0</ele><time>2026-04-27T12:58:59Z</time></trkpt><trkpt lat="42.0331559853409" lon="1.1045628374498428"><ele>991.0</ele><time>2026-04-27T12:59:00Z</time></trkpt><trkpt lat="42.03322827175447" lon="1.104621984548722"><ele>991.0</ele><time>2026-04-27T12:59:01Z</time></trkpt><trkpt lat="42.033299982958496" lon="1.1046854652387923"><ele>990.9999999999999</ele><time>2026-04-27T12:59:02Z</time></trkpt><trkpt lat="42.03337001263986" lon="1.104754025141122"><ele>991.0</ele><time>2026-04-27T12:59:03Z</time></trkpt><trkpt lat="42.03343720152437" lon="1.1048243228086978"><ele>990.1666666666666</ele><time>2026-04-27T12:59:04Z</time></trkpt><trkpt lat="42.03350461826256" lon="1.1049010084242792"><ele>989.3333333333333</ele><time>2026-04-27T12:59:05Z</time></trkpt><trkpt lat="42.03356902266705" lon="1.1049788001113985"><ele>988.5</ele><time>2026-04-27T12:59:06Z</time></trkpt><trkpt lat="42.033634356996075" lon="1.1050579307589783"><ele>987.6666666666667</ele><time>2026-04-27T12:59:07Z</time></trkpt><trkpt lat="42.03370048878401" lon="1.1051387704353308"><ele>986.8333333333334</ele><time>2026-04-27T12:59:08Z</time></trkpt><trkpt lat="42.033764930881944" lon="1.1052190614917003"><ele>986.0</ele><time>2026-04-27T12:59:09Z</time></trkpt><trkpt lat="42.03383235227318" lon="1.1052965795317078"><ele>986.8333333333334</ele><time>2026-04-27T12:59:10Z</time></trkpt><trkpt lat="42.03390090635138" lon="1.1053690378130996"><ele>987.6666666666667</ele><time>2026-04-27T12:59:11Z</time></trkpt><trkpt lat="42.0339728219139" lon="1.1054368663104235"><ele>988.5</ele><time>2026-04-27T12:59:12Z</time></trkpt><trkpt lat="42.034046613700966" lon="1.1055011889962778"><ele>989.3333333333333</ele><time>2026-04-27T12:59:13.001Z</time></trkpt><trkpt lat="42.03412621016574" lon="1.105558017847275"><ele>990.1666666666666</ele><time>2026-04-27T12:59:14.001Z</time></trkpt><trkpt lat="42.0342089708949" lon="1.1056117144082258"><ele>991.0</ele><time>2026-04-27T12:59:15.001Z</time></trkpt><trkpt lat="42.034296662687744" lon="1.1056563822288727"><ele>991.0</ele><time>2026-04-27T12:59:16.001Z</time></trkpt><trkpt lat="42.03438432068836" lon="1.105695807274796"><ele>990.9999999999999</ele><time>2026-04-27T12:59:17.001Z</time></trkpt><trkpt lat="42.0344736039706" lon="1.1057278617582633"><ele>990.9999999999999</ele><time>2026-04-27T12:59:18.001Z</time></trkpt><trkpt lat="42.03456391200004" lon="1.1057482536019008"><ele>991.0</ele><time>2026-04-27T12:59:19.001Z</time></trkpt><trkpt lat="42.03465892893036" lon="1.1057607684093604"><ele>991.0</ele><time>2026-04-27T12:59:20.001Z</time></trkpt><trkpt lat="42.03475471526629" lon="1.1057650604124816"><ele>995.0</ele><time>2026-04-27T12:59:21.001Z</time></trkpt><trkpt lat="42.034853338969725" lon="1.1057677952970295"><ele>998.9999999999999</ele><time>2026-04-27T12:59:22.001Z</time></trkpt><trkpt lat="42.03495214830761" lon="1.1057656711114385"><ele>1002.9999999999999</ele><time>2026-04-27T12:59:23.001Z</time></trkpt><trkpt lat="42.035052186263016" lon="1.1057596909083223"><ele>1007.0</ele><time>2026-04-27T12:59:24.001Z</time></trkpt><trkpt lat="42.035150759249284" lon="1.105755625885213"><ele>1011.0</ele><time>2026-04-27T12:59:25.001Z</time></trkpt><trkpt lat="42.03525077841287" lon="1.1057507579543424"><ele>1011.0</ele><time>2026-04-27T12:59:26.001Z</time></trkpt><trkpt lat="42.03534796097686" lon="1.105746294052077"><ele>1010.9999999999999</ele><time>2026-04-27T12:59:27.001Z</time></trkpt><trkpt lat="42.03544247837991" lon="1.1057426707826679"><ele>1010.9999999999999</ele><time>2026-04-27T12:59:28.001Z</time></trkpt><trkpt lat="42.03553861185423" lon="1.1057354264598658"><ele>1011.0</ele><time>2026-04-27T12:59:29.001Z</time></trkpt><trkpt lat="42.03563048950587" lon="1.1057281093963167"><ele>1011.0</ele><time>2026-04-27T12:59:30.001Z</time></trkpt><trkpt lat="42.03573056214935" lon="1.1057258747015177"><ele>1007.1999999999999</ele><time>2026-04-27T12:59:31.001Z</time></trkpt><trkpt lat="42.035831401769585" lon="1.1057226007251078"><ele>1003.3999999999999</ele><time>2026-04-27T12:59:32.001Z</time></trkpt><trkpt lat="42.03592734605545" lon="1.1057143734215236"><ele>999.6</ele><time>2026-04-27T12:59:33.001Z</time></trkpt><trkpt lat="42.03602385464259" lon="1.1057061598272075"><ele>995.8</ele><time>2026-04-27T12:59:34.001Z</time></trkpt><trkpt lat="42.036124477813935" lon="1.1056895820631354"><ele>992.0</ele><time>2026-04-27T12:59:35.001Z</time></trkpt><trkpt lat="42.036220384465565" lon="1.1056675083308418"><ele>992.0</ele><time>2026-04-27T12:59:36.001Z</time></trkpt><trkpt lat="42.03631184639973" lon="1.1056391684374156"><ele>992.0</ele><time>2026-04-27T12:59:37.001Z</time></trkpt><trkpt lat="42.036406545913586" lon="1.105603076410331"><ele>992.0</ele><time>2026-04-27T12:59:38.001Z</time></trkpt><trkpt lat="42.03649994608254" lon="1.1055668784270118"><ele>992.0</ele><time>2026-04-27T12:59:39.001Z</time></trkpt><trkpt lat="42.03659029995248" lon="1.1055230161327338"><ele>992.0</ele><time>2026-04-27T12:59:40.001Z</time></trkpt><trkpt lat="42.036679291546044" lon="1.1054681691784618"><ele>995.2</ele><time>2026-04-27T12:59:41.001Z</time></trkpt><trkpt lat="42.03676205204858" lon="1.1054081829442306"><ele>998.4000000000001</ele><time>2026-04-27T12:59:42.001Z</time></trkpt><trkpt lat="42.036845946621575" lon="1.105341138298406"><ele>1001.5999999999999</ele><time>2026-04-27T12:59:43.001Z</time></trkpt><trkpt lat="42.036925060060696" lon="1.105274923711144"><ele>1004.8</ele><time>2026-04-27T12:59:44.001Z</time></trkpt><trkpt lat="42.03700714509313" lon="1.1052071785076374"><ele>1008.0</ele><time>2026-04-27T12:59:45.001Z</time></trkpt><trkpt lat="42.0370917549173" lon="1.1051369333710017"><ele>1008.0</ele><time>2026-04-27T12:59:46.002Z</time></trkpt><trkpt lat="42.037173422781194" lon="1.105074101564949"><ele>1008.0</ele><time>2026-04-27T12:59:47.002Z</time></trkpt><trkpt lat="42.03725446493468" lon="1.1050123927558022"><ele>1008.0</ele><time>2026-04-27T12:59:48.002Z</time></trkpt><trkpt lat="42.03733962499354" lon="1.1049545436672432"><ele>1008.0</ele><time>2026-04-27T12:59:49.002Z</time></trkpt><trkpt lat="42.037426624038986" lon="1.1049037852597208"><ele>1008.0</ele><time>2026-04-27T12:59:50.002Z</time></trkpt><trkpt lat="42.03751433016942" lon="1.1048600444778256"><ele>1008.8</ele><time>2026-04-27T12:59:51.002Z</time></trkpt><trkpt lat="42.03760503895164" lon="1.1048145597221402"><ele>1009.5999999999999</ele><time>2026-04-27T12:59:52.002Z</time></trkpt><trkpt lat="42.0376966396113" lon="1.104777206668109"><ele>1010.4000000000001</ele><time>2026-04-27T12:59:53.002Z</time></trkpt><trkpt lat="42.03778952906762" lon="1.1047476770268139"><ele>1011.2</ele><time>2026-04-27T12:59:54.002Z</time></trkpt><trkpt lat="42.037881853588296" lon="1.104725702059582"><ele>1012.0</ele><time>2026-04-27T12:59:55.002Z</time></trkpt><trkpt lat="42.03797698775196" lon="1.104711735492605"><ele>1012.0</ele><time>2026-04-27T12:59:56.002Z</time></trkpt><trkpt lat="42.038073496129115" lon="1.1047028975812858"><ele>1012.0</ele><time>2026-04-27T12:59:57.002Z</time></trkpt><trkpt lat="42.03816761968672" lon="1.1047024045370346"><ele>1012.0</ele><time>2026-04-27T12:59:58.002Z</time></trkpt><trkpt lat="42.038262291525314" lon="1.1047085077962873"><ele>1012.0</ele><time>2026-04-27T12:59:59.002Z</time></trkpt><trkpt lat="42.03835371908202" lon="1.104716146155132"><ele>1012.0</ele><time>2026-04-27T13:00:00.002Z</time></trkpt><trkpt lat="42.038446548117356" lon="1.104735329084468"><ele>1012.8</ele><time>2026-04-27T13:00:01.002Z</time></trkpt><trkpt lat="42.03853936898578" lon="1.1047586834190048"><ele>1013.6</ele><time>2026-04-27T13:00:02.002Z</time></trkpt><trkpt lat="42.03862971466744" lon="1.104783190122421"><ele>1014.3999999999999</ele><time>2026-04-27T13:00:03.002Z</time></trkpt><trkpt lat="42.03871883313025" lon="1.104815421925923"><ele>1015.1999999999999</ele><time>2026-04-27T13:00:04.002Z</time></trkpt><trkpt lat="42.038807100417294" lon="1.1048491630750117"><ele>1016.0</ele><time>2026-04-27T13:00:05.002Z</time></trkpt><trkpt lat="42.038894055277716" lon="1.1048838583517548"><ele>1019.8</ele><time>2026-04-27T13:00:06.002Z</time></trkpt><trkpt lat="42.03898086487512" lon="1.1049184944131543"><ele>1023.5999999999999</ele><time>2026-04-27T13:00:07.002Z</time></trkpt><trkpt lat="42.03906798552825" lon="1.1049505647277635"><ele>1027.4</ele><time>2026-04-27T13:00:08.002Z</time></trkpt><trkpt lat="42.03915519176109" lon="1.1049816535435568"><ele>1031.2</ele><time>2026-04-27T13:00:09.002Z</time></trkpt><trkpt lat="42.039242241196106" lon="1.1050070379395975"><ele>1035.0</ele><time>2026-04-27T13:00:10.002Z</time></trkpt><trkpt lat="42.0393314673679" lon="1.1050268758298365"><ele>1035.0</ele><time>2026-04-27T13:00:11.002Z</time></trkpt><trkpt lat="42.039420468018484" lon="1.1050336004525212"><ele>1035.0</ele><time>2026-04-27T13:00:12.002Z</time></trkpt><trkpt lat="42.03951255562277" lon="1.1050325441967264"><ele>1035.0</ele><time>2026-04-27T13:00:13.002Z</time></trkpt><trkpt lat="42.039607272539534" lon="1.1050261425675882"><ele>1035.0</ele><time>2026-04-27T13:00:14.002Z</time></trkpt><trkpt lat="42.03970012017428" lon="1.1050142455244858"><ele>1035.0</ele><time>2026-04-27T13:00:15.002Z</time></trkpt><trkpt lat="42.039793601686135" lon="1.1049941910329597"><ele>1035.0</ele><time>2026-04-27T13:00:16.002Z</time></trkpt><trkpt lat="42.039886266143604" lon="1.1049592976275655"><ele>1035.0</ele><time>2026-04-27T13:00:17.002Z</time></trkpt><trkpt lat="42.03997478994824" lon="1.1049203353937094"><ele>1035.0</ele><time>2026-04-27T13:00:18.002Z</time></trkpt><trkpt lat="42.04006244610853" lon="1.1048726377138012"><ele>1035.0</ele><time>2026-04-27T13:00:19.003Z</time></trkpt><trkpt lat="42.04015092932896" lon="1.1048201302657072"><ele>1035.0</ele><time>2026-04-27T13:00:20.003Z</time></trkpt><trkpt lat="42.040238979371985" lon="1.1047678520088617"><ele>1032.2</ele><time>2026-04-27T13:00:21.003Z</time></trkpt><trkpt lat="42.040329233929405" lon="1.1047121350928963"><ele>1029.4</ele><time>2026-04-27T13:00:22.003Z</time></trkpt><trkpt lat="42.04041799060001" lon="1.1046562183648798"><ele>1026.6</ele><time>2026-04-27T13:00:23.003Z</time></trkpt><trkpt lat="42.04050647305035" lon="1.1046004083696177"><ele>1023.8</ele><time>2026-04-27T13:00:24.003Z</time></trkpt><trkpt lat="42.04059988828194" lon="1.1045433791135186"><ele>1021.0</ele><time>2026-04-27T13:00:25.003Z</time></trkpt><trkpt lat="42.0406922909672" lon="1.104486598528509"><ele>1021.0</ele><time>2026-04-27T13:00:26.003Z</time></trkpt><trkpt lat="42.04078163073975" lon="1.104430925828782"><ele>1020.9999999999999</ele><time>2026-04-27T13:00:27.003Z</time></trkpt><trkpt lat="42.04086865808461" lon="1.104374565646626"><ele>1020.9999999999999</ele><time>2026-04-27T13:00:28.003Z</time></trkpt><trkpt lat="42.0409582797586" lon="1.1043189606789625"><ele>1021.0</ele><time>2026-04-27T13:00:29.003Z</time></trkpt><trkpt lat="42.04104936283149" lon="1.1042620193865662"><ele>1021.0</ele><time>2026-04-27T13:00:30.003Z</time></trkpt><trkpt lat="42.041138643129806" lon="1.1042047795959762"><ele>1020.5999999999999</ele><time>2026-04-27T13:00:31.003Z</time></trkpt><trkpt lat="42.041223915043346" lon="1.1041532630711701"><ele>1020.1999999999999</ele><time>2026-04-27T13:00:32.003Z</time></trkpt><trkpt lat="42.04131087072912" lon="1.1040921692732695"><ele>1019.8000000000001</ele><time>2026-04-27T13:00:33.003Z</time></trkpt><trkpt lat="42.041399637362524" lon="1.1040258911191654"><ele>1019.4000000000001</ele><time>2026-04-27T13:00:34.003Z</time></trkpt><trkpt lat="42.04147836417996" lon="1.1039579224620755"><ele>1019.0</ele><time>2026-04-27T13:00:35.003Z</time></trkpt><trkpt lat="42.041558035645956" lon="1.103875710441223"><ele>1022.6</ele><time>2026-04-27T13:00:36.003Z</time></trkpt><trkpt lat="42.04163246363922" lon="1.103791651007295"><ele>1026.2</ele><time>2026-04-27T13:00:37.003Z</time></trkpt><trkpt lat="42.04169726921513" lon="1.103704035852033"><ele>1029.8000000000002</ele><time>2026-04-27T13:00:38.003Z</time></trkpt><trkpt lat="42.04175952136814" lon="1.1036022851056277"><ele>1033.4</ele><time>2026-04-27T13:00:39Z</time></trkpt><trkpt lat="42.04181952616986" lon="1.1034978241088993"><ele>1037.0</ele><time>2026-04-27T13:00:40Z</time></trkpt><trkpt lat="42.041879366358835" lon="1.1033852625329896"><ele>1037.0</ele><time>2026-04-27T13:00:41Z</time></trkpt><trkpt lat="42.0419346928299" lon="1.1032789740580131"><ele>1037.0</ele><time>2026-04-27T13:00:42Z</time></trkpt><trkpt lat="42.041988997881326" lon="1.1031701475252171"><ele>1037.0</ele><time>2026-04-27T13:00:43Z</time></trkpt><trkpt lat="42.04203750270104" lon="1.1030583422929083"><ele>1037.0</ele><time>2026-04-27T13:00:44Z</time></trkpt><trkpt lat="42.04208836246208" lon="1.1029431015702404"><ele>1037.0</ele><time>2026-04-27T13:00:45Z</time></trkpt><trkpt lat="42.04214082266781" lon="1.1028211208895384"><ele>1035.8</ele><time>2026-04-27T13:00:46Z</time></trkpt><trkpt lat="42.04219260239685" lon="1.1027057299812781"><ele>1034.6</ele><time>2026-04-27T13:00:47Z</time></trkpt><trkpt lat="42.04224452359985" lon="1.1025893359080763"><ele>1033.3999999999999</ele><time>2026-04-27T13:00:48Z</time></trkpt><trkpt lat="42.04229850827561" lon="1.1024746750405512"><ele>1032.2</ele><time>2026-04-27T13:00:49Z</time></trkpt><trkpt lat="42.04234819175388" lon="1.102358282789931"><ele>1031.0</ele><time>2026-04-27T13:00:50Z</time></trkpt><trkpt lat="42.04239748317772" lon="1.1022369346664642"><ele>1030.6</ele><time>2026-04-27T13:00:51Z</time></trkpt><trkpt lat="42.04244445225664" lon="1.1021285419954505"><ele>1030.1999999999998</ele><time>2026-04-27T13:00:52Z</time></trkpt><trkpt lat="42.04249707066072" lon="1.1020064852257245"><ele>1029.8000000000002</ele><time>2026-04-27T13:00:53Z</time></trkpt><trkpt lat="42.04254909385902" lon="1.1018903153102526"><ele>1029.4</ele><time>2026-04-27T13:00:54Z</time></trkpt><trkpt lat="42.04260694140771" lon="1.1017829532348253"><ele>1029.0</ele><time>2026-04-27T13:00:55Z</time></trkpt><trkpt lat="42.04266399257573" lon="1.1016819696188802"><ele>1031.4</ele><time>2026-04-27T13:00:56Z</time></trkpt><trkpt lat="42.04272754659792" lon="1.1015793713668465"><ele>1033.8000000000002</ele><time>2026-04-27T13:00:57Z</time></trkpt><trkpt lat="42.0427934417207" lon="1.1014864677955651"><ele>1036.1999999999998</ele><time>2026-04-27T13:00:58Z</time></trkpt><trkpt lat="42.042866785541364" lon="1.1013982419794155"><ele>1038.6</ele><time>2026-04-27T13:00:59Z</time></trkpt><trkpt lat="42.042947002967175" lon="1.101318450973055"><ele>1041.0</ele><time>2026-04-27T13:01:00Z</time></trkpt><trkpt lat="42.04303356263382" lon="1.1012423981413004"><ele>1041.0</ele><time>2026-04-27T13:01:01Z</time></trkpt><trkpt lat="42.04312521123264" lon="1.1011850743435407"><ele>1041.0</ele><time>2026-04-27T13:01:02Z</time></trkpt><trkpt lat="42.04321611476654" lon="1.101139080381594"><ele>1041.0</ele><time>2026-04-27T13:01:03Z</time></trkpt><trkpt lat="42.04331604478685" lon="1.1010965055501714"><ele>1041.0</ele><time>2026-04-27T13:01:04.001Z</time></trkpt><trkpt lat="42.04341731646542" lon="1.1010636032191365"><ele>1041.0</ele><time>2026-04-27T13:01:05.001Z</time></trkpt><trkpt lat="42.04351771197203" lon="1.101039310519581"><ele>1043.3999999999999</ele><time>2026-04-27T13:01:06.001Z</time></trkpt><trkpt lat="42.04361880652686" lon="1.101013498716719"><ele>1045.8</ele><time>2026-04-27T13:01:07.001Z</time></trkpt><trkpt lat="42.04372416874574" lon="1.1009908418018761"><ele>1048.1999999999998</ele><time>2026-04-27T13:01:08.001Z</time></trkpt><trkpt lat="42.04382329108358" lon="1.1009676503390302"><ele>1050.6</ele><time>2026-04-27T13:01:09.001Z</time></trkpt><trkpt lat="42.043927641872386" lon="1.1009427634797402"><ele>1053.0</ele><time>2026-04-27T13:01:10.001Z</time></trkpt><trkpt lat="42.04403804546132" lon="1.10091570549079"><ele>1054.0</ele><time>2026-04-27T13:01:11.001Z</time></trkpt><trkpt lat="42.04413538990613" lon="1.100898616526832"><ele>1055.0</ele><time>2026-04-27T13:01:12.001Z</time></trkpt><trkpt lat="42.04424339568784" lon="1.1008737533522595"><ele>1056.0</ele><time>2026-04-27T13:01:13.001Z</time></trkpt><trkpt lat="42.0443444482295" lon="1.1008517360892247"><ele>1057.0</ele><time>2026-04-27T13:01:14.001Z</time></trkpt><trkpt lat="42.04444457611732" lon="1.1008318725714448"><ele>1058.0</ele><time>2026-04-27T13:01:15.001Z</time></trkpt><trkpt lat="42.04455234327419" lon="1.1008080431087033"><ele>1058.0</ele><time>2026-04-27T13:01:16.001Z</time></trkpt><trkpt lat="42.044649455851165" lon="1.1007861589612549"><ele>1058.0</ele><time>2026-04-27T13:01:17.001Z</time></trkpt><trkpt lat="42.04475187302006" lon="1.1007628143511052"><ele>1058.0</ele><time>2026-04-27T13:01:18.001Z</time></trkpt><trkpt lat="42.04484894449987" lon="1.100743763468213"><ele>1058.0</ele><time>2026-04-27T13:01:19.001Z</time></trkpt><trkpt lat="42.04494714441649" lon="1.1007196557924395"><ele>1058.0</ele><time>2026-04-27T13:01:20.001Z</time></trkpt><trkpt lat="42.04504177506868" lon="1.1006927488486042"><ele>1057.6</ele><time>2026-04-27T13:01:21.001Z</time></trkpt><trkpt lat="42.04513102386028" lon="1.100670499380962"><ele>1057.1999999999998</ele><time>2026-04-27T13:01:22.001Z</time></trkpt><trkpt lat="42.045224154580104" lon="1.1006466772980055"><ele>1056.8</ele><time>2026-04-27T13:01:23.001Z</time></trkpt><trkpt lat="42.04532182289905" lon="1.100627169997576"><ele>1056.3999999999999</ele><time>2026-04-27T13:01:24.001Z</time></trkpt><trkpt lat="42.0454232078981" lon="1.1006056715774715"><ele>1056.0</ele><time>2026-04-27T13:01:25.001Z</time></trkpt><trkpt lat="42.04552350560781" lon="1.1005774803662085"><ele>1056.0</ele><time>2026-04-27T13:01:26.001Z</time></trkpt><trkpt lat="42.045624682663004" lon="1.1005433721047748"><ele>1056.0</ele><time>2026-04-27T13:01:27.001Z</time></trkpt><trkpt lat="42.04573113842379" lon="1.1005100456881944"><ele>1056.0</ele><time>2026-04-27T13:01:28.001Z</time></trkpt><trkpt lat="42.04583690922001" lon="1.1004663215966544"><ele>1056.0</ele><time>2026-04-27T13:01:29.001Z</time></trkpt><trkpt lat="42.04593760312142" lon="1.100414794626125"><ele>1056.0</ele><time>2026-04-27T13:01:30.001Z</time></trkpt><trkpt lat="42.046039587225934" lon="1.1003563915066725"><ele>1057.8</ele><time>2026-04-27T13:01:31.001Z</time></trkpt><trkpt lat="42.04613583939124" lon="1.1002885712686048"><ele>1059.6</ele><time>2026-04-27T13:01:32.001Z</time></trkpt><trkpt lat="42.04622920165995" lon="1.1002127666651713"><ele>1061.4</ele><time>2026-04-27T13:01:33.001Z</time></trkpt><trkpt lat="42.04631693362072" lon="1.1001328926180123"><ele>1063.2</ele><time>2026-04-27T13:01:34.001Z</time></trkpt><trkpt lat="42.04640016306791" lon="1.100042075043436"><ele>1065.0</ele><time>2026-04-27T13:01:35.001Z</time></trkpt><trkpt lat="42.046476515539304" lon="1.09994441774221"><ele>1065.4</ele><time>2026-04-27T13:01:36.001Z</time></trkpt><trkpt lat="42.04654617922902" lon="1.0998484703981484"><ele>1065.8</ele><time>2026-04-27T13:01:37.001Z</time></trkpt><trkpt lat="42.04661341072482" lon="1.09973727309441"><ele>1066.2</ele><time>2026-04-27T13:01:38.001Z</time></trkpt><trkpt lat="42.04667758741734" lon="1.0996337696223368"><ele>1066.6</ele><time>2026-04-27T13:01:39.001Z</time></trkpt><trkpt lat="42.04673508274399" lon="1.0995227765676596"><ele>1067.0</ele><time>2026-04-27T13:01:40.002Z</time></trkpt><trkpt lat="42.04679195067638" lon="1.0994067348940864"><ele>1067.4</ele><time>2026-04-27T13:01:41.002Z</time></trkpt><trkpt lat="42.04684027758717" lon="1.0992913040658525"><ele>1067.8000000000002</ele><time>2026-04-27T13:01:42.002Z</time></trkpt><trkpt lat="42.04688564838684" lon="1.0991812235209715"><ele>1068.2</ele><time>2026-04-27T13:01:43.002Z</time></trkpt><trkpt lat="42.04692607140708" lon="1.0990672649699242"><ele>1068.6000000000001</ele><time>2026-04-27T13:01:44.002Z</time></trkpt><trkpt lat="42.046958608563166" lon="1.0989501844417402"><ele>1069.0</ele><time>2026-04-27T13:01:45.002Z</time></trkpt><trkpt lat="42.04698553683403" lon="1.0988327726167784"><ele>1070.6666666666665</ele><time>2026-04-27T13:01:46.002Z</time></trkpt><trkpt lat="42.04700767756833" lon="1.0987172560562979"><ele>1072.3333333333333</ele><time>2026-04-27T13:01:47.002Z</time></trkpt><trkpt lat="42.04702306549465" lon="1.098599667760173"><ele>1074.0</ele><time>2026-04-27T13:01:48.002Z</time></trkpt><trkpt lat="42.04703414930247" lon="1.098480911046403"><ele>1075.6666666666667</ele><time>2026-04-27T13:01:49.002Z</time></trkpt><trkpt lat="42.04704422183136" lon="1.098364754840929"><ele>1077.3333333333335</ele><time>2026-04-27T13:01:50.002Z</time></trkpt><trkpt lat="42.047049769166264" lon="1.0982511781348603"><ele>1079.0</ele><time>2026-04-27T13:01:51.002Z</time></trkpt><trkpt lat="42.04705031588169" lon="1.0981379254343326"><ele>1079.1666666666667</ele><time>2026-04-27T13:01:52.002Z</time></trkpt><trkpt lat="42.0470470145699" lon="1.098025884225515"><ele>1079.3333333333335</ele><time>2026-04-27T13:01:53.002Z</time></trkpt><trkpt lat="42.04704101855626" lon="1.0979142218031352"><ele>1079.5</ele><time>2026-04-27T13:01:54.002Z</time></trkpt><trkpt lat="42.04703110664896" lon="1.0978016820247576"><ele>1079.6666666666667</ele><time>2026-04-27T13:01:55.002Z</time></trkpt><trkpt lat="42.04701658708508" lon="1.0976919327208001"><ele>1079.8333333333333</ele><time>2026-04-27T13:01:56.002Z</time></trkpt><trkpt lat="42.04699905641002" lon="1.097580714305761"><ele>1080.0</ele><time>2026-04-27T13:01:57.002Z</time></trkpt><trkpt lat="42.04697876376713" lon="1.0974694474879607"><ele>1080.0</ele><time>2026-04-27T13:01:58.002Z</time></trkpt><trkpt lat="42.04695485213725" lon="1.0973606680795887"><ele>1080.0</ele><time>2026-04-27T13:01:59.002Z</time></trkpt><trkpt lat="42.046933397974065" lon="1.0972513399777488"><ele>1080.0</ele><time>2026-04-27T13:02:00.002Z</time></trkpt><trkpt lat="42.04691636376106" lon="1.0971363716588174"><ele>1080.0</ele><time>2026-04-27T13:02:01.002Z</time></trkpt><trkpt lat="42.0468979189609" lon="1.0970131674640782"><ele>1080.0</ele><time>2026-04-27T13:02:02.002Z</time></trkpt><trkpt lat="42.04688196430658" lon="1.0968876100890994"><ele>1080.0</ele><time>2026-04-27T13:02:03.002Z</time></trkpt><trkpt lat="42.04687061570159" lon="1.0967623732688991"><ele>1080.0</ele><time>2026-04-27T13:02:04.002Z</time></trkpt><trkpt lat="42.04686526741449" lon="1.0966304912892344"><ele>1080.0</ele><time>2026-04-27T13:02:05.002Z</time></trkpt><trkpt lat="42.04686861562238" lon="1.0964963333535587"><ele>1080.0</ele><time>2026-04-27T13:02:06.002Z</time></trkpt><trkpt lat="42.04687903179212" lon="1.0963593469955708"><ele>1080.0</ele><time>2026-04-27T13:02:07.002Z</time></trkpt><trkpt lat="42.04690409632957" lon="1.0962251266756309"><ele>1080.0</ele><time>2026-04-27T13:02:08.002Z</time></trkpt><trkpt lat="42.04694100655451" lon="1.0960965992583598"><ele>1079.0</ele><time>2026-04-27T13:02:09.002Z</time></trkpt><trkpt lat="42.04699214826871" lon="1.0959778167363816"><ele>1078.0</ele><time>2026-04-27T13:02:10.002Z</time></trkpt><trkpt lat="42.04705767573859" lon="1.0958722964804453"><ele>1077.0</ele><time>2026-04-27T13:02:11.002Z</time></trkpt><trkpt lat="42.04713433711343" lon="1.095778915506872"><ele>1076.0</ele><time>2026-04-27T13:02:12.002Z</time></trkpt><trkpt lat="42.04722119698592" lon="1.0956958423404117"><ele>1075.0</ele><time>2026-04-27T13:02:13.002Z</time></trkpt><trkpt lat="42.04731817983419" lon="1.095632134100784"><ele>1074.8</ele><time>2026-04-27T13:02:14.003Z</time></trkpt><trkpt lat="42.04741956825641" lon="1.09558131636681"><ele>1074.6</ele><time>2026-04-27T13:02:15.003Z</time></trkpt><trkpt lat="42.04752429938401" lon="1.0955398096892865"><ele>1074.4</ele><time>2026-04-27T13:02:16.003Z</time></trkpt><trkpt lat="42.047628402917425" lon="1.0955081118979264"><ele>1074.2</ele><time>2026-04-27T13:02:17.003Z</time></trkpt><trkpt lat="42.04773480283895" lon="1.09548321667819"><ele>1074.0</ele><time>2026-04-27T13:02:18.003Z</time></trkpt><trkpt lat="42.04784162533966" lon="1.0954598442960228"><ele>1074.0</ele><time>2026-04-27T13:02:19.003Z</time></trkpt><trkpt lat="42.04794817929194" lon="1.0954360330676431"><ele>1074.0</ele><time>2026-04-27T13:02:20.003Z</time></trkpt><trkpt lat="42.04805184735746" lon="1.0954138808988663"><ele>1074.0</ele><time>2026-04-27T13:02:21.003Z</time></trkpt><trkpt lat="42.04815779411823" lon="1.0953944466127226"><ele>1074.0</ele><time>2026-04-27T13:02:22.003Z</time></trkpt><trkpt lat="42.048264901266066" lon="1.0953754657963215"><ele>1074.0</ele><time>2026-04-27T13:02:23.003Z</time></trkpt><trkpt lat="42.048370491787686" lon="1.095358491852562"><ele>1075.0</ele><time>2026-04-27T13:02:24.003Z</time></trkpt><trkpt lat="42.0484766384994" lon="1.0953446190510336"><ele>1076.0</ele><time>2026-04-27T13:02:25.003Z</time></trkpt><trkpt lat="42.048581322433854" lon="1.0953276772853984"><ele>1077.0</ele><time>2026-04-27T13:02:26.003Z</time></trkpt><trkpt lat="42.04868851923916" lon="1.0953183441469037"><ele>1078.0</ele><time>2026-04-27T13:02:27.003Z</time></trkpt><trkpt lat="42.04879915330304" lon="1.0953048353801458"><ele>1079.0</ele><time>2026-04-27T13:02:28.003Z</time></trkpt><trkpt lat="42.04890629865773" lon="1.095294992772394"><ele>1079.0</ele><time>2026-04-27T13:02:29.003Z</time></trkpt><trkpt lat="42.04901571066218" lon="1.095285837474838"><ele>1079.0</ele><time>2026-04-27T13:02:30.003Z</time></trkpt><trkpt lat="42.04912523485742" lon="1.0952802630535414"><ele>1079.0</ele><time>2026-04-27T13:02:31.003Z</time></trkpt><trkpt lat="42.04923634358652" lon="1.0952825865251785"><ele>1079.0</ele><time>2026-04-27T13:02:32.003Z</time></trkpt><trkpt lat="42.04935081793329" lon="1.0952744821131146"><ele>1079.0</ele><time>2026-04-27T13:02:33.003Z</time></trkpt><trkpt lat="42.04946369504533" lon="1.095265386717792"><ele>1080.2</ele><time>2026-04-27T13:02:34.003Z</time></trkpt><trkpt lat="42.04957340519725" lon="1.095266996347024"><ele>1081.4</ele><time>2026-04-27T13:02:35.003Z</time></trkpt><trkpt lat="42.049683384944764" lon="1.0952606703642978"><ele>1082.6</ele><time>2026-04-27T13:02:36.003Z</time></trkpt><trkpt lat="42.04979209845137" lon="1.0952605902565937"><ele>1083.8</ele><time>2026-04-27T13:02:37.003Z</time></trkpt><trkpt lat="42.049901331974326" lon="1.0952605017780837"><ele>1085.0</ele><time>2026-04-27T13:02:38.003Z</time></trkpt><trkpt lat="42.050009296726664" lon="1.0952587440418327"><ele>1086.2</ele><time>2026-04-27T13:02:39.003Z</time></trkpt><trkpt lat="42.05011651737866" lon="1.0952598771965478"><ele>1087.4</ele><time>2026-04-27T13:02:40.003Z</time></trkpt><trkpt lat="42.050224234092816" lon="1.0952584109914232"><ele>1088.6</ele><time>2026-04-27T13:02:41.003Z</time></trkpt><trkpt lat="42.05033366840063" lon="1.0952552789586822"><ele>1089.8</ele><time>2026-04-27T13:02:42.003Z</time></trkpt><trkpt lat="42.05044266784929" lon="1.095252979020506"><ele>1091.0</ele><time>2026-04-27T13:02:43.003Z</time></trkpt><trkpt lat="42.05055263553082" lon="1.0952477926369701"><ele>1091.0</ele><time>2026-04-27T13:02:44.003Z</time></trkpt><trkpt lat="42.05066059265149" lon="1.0952438619698583"><ele>1091.0</ele><time>2026-04-27T13:02:45.001Z</time></trkpt><trkpt lat="42.0507693955266" lon="1.0952405535653043"><ele>1091.0</ele><time>2026-04-27T13:02:46.001Z</time></trkpt><trkpt lat="42.050875482958425" lon="1.0952340175536408"><ele>1091.0</ele><time>2026-04-27T13:02:47.001Z</time></trkpt><trkpt lat="42.0509831120987" lon="1.0952141973094938"><ele>1091.0</ele><time>2026-04-27T13:02:48.001Z</time></trkpt><trkpt lat="42.051088311389" lon="1.0951876982253888"><ele>1090.8</ele><time>2026-04-27T13:02:49.001Z</time></trkpt><trkpt lat="42.051193601652386" lon="1.0951461197462462"><ele>1090.6</ele><time>2026-04-27T13:02:50.001Z</time></trkpt><trkpt lat="42.051297470315774" lon="1.0950903099148306"><ele>1090.4</ele><time>2026-04-27T13:02:51.001Z</time></trkpt><trkpt lat="42.051393785960116" lon="1.0950242510696129"><ele>1090.2</ele><time>2026-04-27T13:02:52.001Z</time></trkpt><trkpt lat="42.05148374845318" lon="1.0949453261720934"><ele>1090.0</ele><time>2026-04-27T13:02:53.001Z</time></trkpt><trkpt lat="42.05156911101487" lon="1.094854854506011"><ele>1090.6</ele><time>2026-04-27T13:02:54.001Z</time></trkpt><trkpt lat="42.05164745637289" lon="1.0947534452953838"><ele>1091.2</ele><time>2026-04-27T13:02:55.001Z</time></trkpt><trkpt lat="42.05171840145327" lon="1.0946433533024993"><ele>1091.8</ele><time>2026-04-27T13:02:56.001Z</time></trkpt><trkpt lat="42.051782361865364" lon="1.094525827149252"><ele>1092.4</ele><time>2026-04-27T13:02:57.001Z</time></trkpt><trkpt lat="42.05184316791042" lon="1.0944071070339276"><ele>1093.0</ele><time>2026-04-27T13:02:58.001Z</time></trkpt><trkpt lat="42.05190237285075" lon="1.094282190617239"><ele>1093.0</ele><time>2026-04-27T13:02:59.001Z</time></trkpt><trkpt lat="42.051958789370744" lon="1.0941532035282258"><ele>1093.0</ele><time>2026-04-27T13:03:00.001Z</time></trkpt><trkpt lat="42.052017380899514" lon="1.0940261806350884"><ele>1093.0</ele><time>2026-04-27T13:03:01.001Z</time></trkpt><trkpt lat="42.05207289081098" lon="1.0938980971264705"><ele>1093.0</ele><time>2026-04-27T13:03:02.001Z</time></trkpt><trkpt lat="42.052133310689904" lon="1.093773747854631"><ele>1093.0</ele><time>2026-04-27T13:03:03.001Z</time></trkpt><trkpt lat="42.05218903528491" lon="1.093647727174669"><ele>1093.6</ele><time>2026-04-27T13:03:04.001Z</time></trkpt><trkpt lat="42.05224313780084" lon="1.093521391045288"><ele>1094.1999999999998</ele><time>2026-04-27T13:03:05.001Z</time></trkpt><trkpt lat="42.05229796252292" lon="1.0933948827660536"><ele>1094.8</ele><time>2026-04-27T13:03:06.001Z</time></trkpt><trkpt lat="42.05235095937722" lon="1.0932684086379425"><ele>1095.3999999999999</ele><time>2026-04-27T13:03:07.001Z</time></trkpt><trkpt lat="42.052405393231126" lon="1.093147758237979"><ele>1096.0</ele><time>2026-04-27T13:03:08.001Z</time></trkpt><trkpt lat="42.052457257865726" lon="1.0930260466548234"><ele>1096.3999999999999</ele><time>2026-04-27T13:03:09.001Z</time></trkpt><trkpt lat="42.05251161749608" lon="1.0929041589329682"><ele>1096.8</ele><time>2026-04-27T13:03:10.001Z</time></trkpt><trkpt lat="42.05256644880137" lon="1.092780747387855"><ele>1097.1999999999998</ele><time>2026-04-27T13:03:11.001Z</time></trkpt><trkpt lat="42.052618133049" lon="1.092651013561998"><ele>1097.6</ele><time>2026-04-27T13:03:12.001Z</time></trkpt><trkpt lat="42.05267135465107" lon="1.0925262400138842"><ele>1098.0</ele><time>2026-04-27T13:03:13.001Z</time></trkpt><trkpt lat="42.05272234427359" lon="1.092402806455158"><ele>1096.6</ele><time>2026-04-27T13:03:14.001Z</time></trkpt><trkpt lat="42.05277689023158" lon="1.092280314210363"><ele>1095.1999999999998</ele><time>2026-04-27T13:03:15.001Z</time></trkpt><trkpt lat="42.0528311866441" lon="1.0921552004125472"><ele>1093.8</ele><time>2026-04-27T13:03:16.001Z</time></trkpt><trkpt lat="42.05288787533329" lon="1.0920312058621966"><ele>1092.3999999999999</ele><time>2026-04-27T13:03:17.001Z</time></trkpt><trkpt lat="42.05294394096141" lon="1.0919036736053702"><ele>1091.0</ele><time>2026-04-27T13:03:18.001Z</time></trkpt><trkpt lat="42.05300522276933" lon="1.0917792808902236"><ele>1091.0</ele><time>2026-04-27T13:03:19.001Z</time></trkpt><trkpt lat="42.05306761492119" lon="1.0916598206921952"><ele>1091.0</ele><time>2026-04-27T13:03:20.001Z</time></trkpt><trkpt lat="42.053128019774576" lon="1.0915389428859104"><ele>1091.0</ele><time>2026-04-27T13:03:21.001Z</time></trkpt><trkpt lat="42.05319196343144" lon="1.0914228831066006"><ele>1091.0</ele><time>2026-04-27T13:03:22.001Z</time></trkpt><trkpt lat="42.05326206219052" lon="1.0913125616797126"><ele>1091.0</ele><time>2026-04-27T13:03:23.001Z</time></trkpt><trkpt lat="42.05333325556577" lon="1.0912000111145999"><ele>1092.6</ele><time>2026-04-27T13:03:24.001Z</time></trkpt><trkpt lat="42.05340892615357" lon="1.0910940609363267"><ele>1094.1999999999998</ele><time>2026-04-27T13:03:25.001Z</time></trkpt><trkpt lat="42.05348651663409" lon="1.0909891606946616"><ele>1095.8000000000002</ele><time>2026-04-27T13:03:26.001Z</time></trkpt><trkpt lat="42.05356316928745" lon="1.0908881464699984"><ele>1097.4</ele><time>2026-04-27T13:03:27.001Z</time></trkpt><trkpt lat="42.0536453928706" lon="1.0907928544459127"><ele>1099.0</ele><time>2026-04-27T13:03:28.001Z</time></trkpt><trkpt lat="42.053727462967366" lon="1.0906975296067685"><ele>1099.6000000000001</ele><time>2026-04-27T13:03:29.001Z</time></trkpt><trkpt lat="42.053814930140554" lon="1.090607747287718"><ele>1100.2</ele><time>2026-04-27T13:03:30.001Z</time></trkpt><trkpt lat="42.053905232450276" lon="1.0905270231640452"><ele>1100.8000000000002</ele><time>2026-04-27T13:03:31.001Z</time></trkpt><trkpt lat="42.053997287078474" lon="1.0904468384499046"><ele>1101.4</ele><time>2026-04-27T13:03:32.001Z</time></trkpt><trkpt lat="42.05409240682024" lon="1.0903680053598839"><ele>1102.0</ele><time>2026-04-27T13:03:33.001Z</time></trkpt><trkpt lat="42.05418693020893" lon="1.0902976039298589"><ele>1102.4</ele><time>2026-04-27T13:03:34.001Z</time></trkpt><trkpt lat="42.054285124062424" lon="1.090230810565387"><ele>1102.8000000000002</ele><time>2026-04-27T13:03:35.001Z</time></trkpt><trkpt lat="42.054383491133414" lon="1.0901634793887314"><ele>1103.2</ele><time>2026-04-27T13:03:36.001Z</time></trkpt><trkpt lat="42.05448513272615" lon="1.0901077000954917"><ele>1103.6000000000001</ele><time>2026-04-27T13:03:37.001Z</time></trkpt><trkpt lat="42.054587067916614" lon="1.0900580261726827"><ele>1104.0</ele><time>2026-04-27T13:03:38.001Z</time></trkpt><trkpt lat="42.05469305180904" lon="1.0900093607562222"><ele>1104.0</ele><time>2026-04-27T13:03:39.001Z</time></trkpt><trkpt lat="42.054798120549435" lon="1.0899639388447544"><ele>1104.0</ele><time>2026-04-27T13:03:40.001Z</time></trkpt><trkpt lat="42.05490513435368" lon="1.089918437119183"><ele>1104.0</ele><time>2026-04-27T13:03:41.002Z</time></trkpt><trkpt lat="42.05501149872157" lon="1.0898794162299603"><ele>1104.0</ele><time>2026-04-27T13:03:42.002Z</time></trkpt><trkpt lat="42.05512329069739" lon="1.0898592600236399"><ele>1104.0</ele><time>2026-04-27T13:03:43.002Z</time></trkpt><trkpt lat="42.055234340583695" lon="1.089861036361197"><ele>1104.0</ele><time>2026-04-27T13:03:44.002Z</time></trkpt><trkpt lat="42.05534311361333" lon="1.0898754817177554"><ele>1104.0</ele><time>2026-04-27T13:03:45.002Z</time></trkpt><trkpt lat="42.05545267063416" lon="1.0898974761524285"><ele>1104.0</ele><time>2026-04-27T13:03:46.002Z</time></trkpt><trkpt lat="42.05556221838293" lon="1.0899266191394261"><ele>1104.0</ele><time>2026-04-27T13:03:47.002Z</time></trkpt><trkpt lat="42.05567313055451" lon="1.0899521309708902"><ele>1104.0</ele><time>2026-04-27T13:03:48.002Z</time></trkpt><trkpt lat="42.05578157094785" lon="1.0899882845127185"><ele>1102.75</ele><time>2026-04-27T13:03:49.002Z</time></trkpt><trkpt lat="42.055891112897584" lon="1.0900330599119712"><ele>1101.5</ele><time>2026-04-27T13:03:50.002Z</time></trkpt><trkpt lat="42.05599992668789" lon="1.0900801279498584"><ele>1100.25</ele><time>2026-04-27T13:03:51.002Z</time></trkpt><trkpt lat="42.056107137002414" lon="1.0901338542691168"><ele>1099.0</ele><time>2026-04-27T13:03:52.002Z</time></trkpt><trkpt lat="42.05621196039175" lon="1.0901913065218054"><ele>1099.0</ele><time>2026-04-27T13:03:53.002Z</time></trkpt><trkpt lat="42.05631452240968" lon="1.0902563473697597"><ele>1099.0</ele><time>2026-04-27T13:03:54.002Z</time></trkpt><trkpt lat="42.05641538148347" lon="1.0903206520239352"><ele>1099.0</ele><time>2026-04-27T13:03:55.002Z</time></trkpt><trkpt lat="42.05652259621029" lon="1.0903768331429253"><ele>1099.0</ele><time>2026-04-27T13:03:56.002Z</time></trkpt><trkpt lat="42.0566238115967" lon="1.0904384111197105"><ele>1094.25</ele><time>2026-04-27T13:03:57.002Z</time></trkpt><trkpt lat="42.056726406124255" lon="1.0905047485935673"><ele>1089.5</ele><time>2026-04-27T13:03:58.002Z</time></trkpt><trkpt lat="42.0568357295708" lon="1.0905679346551964"><ele>1084.75</ele><time>2026-04-27T13:03:59.002Z</time></trkpt><trkpt lat="42.05694756742507" lon="1.0906297540664804"><ele>1080.0</ele><time>2026-04-27T13:04:00.002Z</time></trkpt><trkpt lat="42.05705278518861" lon="1.0906869205796048"><ele>1079.5</ele><time>2026-04-27T13:04:01.002Z</time></trkpt><trkpt lat="42.05715983329482" lon="1.090762244750633"><ele>1079.0</ele><time>2026-04-27T13:04:02.002Z</time></trkpt><trkpt lat="42.057236402580365" lon="1.0908429588901727"><ele>1078.5</ele><time>2026-04-27T13:04:03.002Z</time></trkpt><trkpt lat="42.05736935138599" lon="1.0908694843098437"><ele>1078.0</ele><time>2026-04-27T13:04:04.002Z</time></trkpt><trkpt lat="42.05747875146581" lon="1.0909325507428747"><ele>1078.0</ele><time>2026-04-27T13:04:05.002Z</time></trkpt><trkpt lat="42.0575862481539" lon="1.090995839142164"><ele>1078.0</ele><time>2026-04-27T13:04:06.002Z</time></trkpt><trkpt lat="42.0576952757688" lon="1.0910614163971502"><ele>1078.0</ele><time>2026-04-27T13:04:07.002Z</time></trkpt><trkpt lat="42.05779990427728" lon="1.0911391234576702"><ele>1078.0</ele><time>2026-04-27T13:04:08.002Z</time></trkpt><trkpt lat="42.05789951886492" lon="1.091227258720095"><ele>1078.0</ele><time>2026-04-27T13:04:09.002Z</time></trkpt><trkpt lat="42.05799750973889" lon="1.091318721165529"><ele>1078.0</ele><time>2026-04-27T13:04:10.002Z</time></trkpt><trkpt lat="42.05809315372719" lon="1.0914192679822385"><ele>1078.0</ele><time>2026-04-27T13:04:11.002Z</time></trkpt><trkpt lat="42.05818922054014" lon="1.0915247269143658"><ele>1078.0</ele><time>2026-04-27T13:04:12.002Z</time></trkpt><trkpt lat="42.05828416164989" lon="1.0916220293912096"><ele>1077.5</ele><time>2026-04-27T13:04:13.002Z</time></trkpt><trkpt lat="42.05838186626075" lon="1.0917131225753365"><ele>1077.0</ele><time>2026-04-27T13:04:14.002Z</time></trkpt><trkpt lat="42.05847943970433" lon="1.0917942005033177"><ele>1076.5</ele><time>2026-04-27T13:04:15.002Z</time></trkpt><trkpt lat="42.05858180738125" lon="1.0918575192424043"><ele>1076.0</ele><time>2026-04-27T13:04:16.002Z</time></trkpt><trkpt lat="42.05868958418675" lon="1.091899598458424"><ele>1076.0</ele><time>2026-04-27T13:04:17.002Z</time></trkpt><trkpt lat="42.05880267546888" lon="1.0919225870542262"><ele>1076.0</ele><time>2026-04-27T13:04:18.003Z</time></trkpt><trkpt lat="42.05891811850814" lon="1.0919231081725773"><ele>1076.0</ele><time>2026-04-27T13:04:19.003Z</time></trkpt><trkpt lat="42.05903450968346" lon="1.0919332445697145"><ele>1076.0</ele><time>2026-04-27T13:04:20.003Z</time></trkpt><trkpt lat="42.059155871229606" lon="1.0919404951207823"><ele>1073.0</ele><time>2026-04-27T13:04:21.003Z</time></trkpt><trkpt lat="42.059277474799856" lon="1.0919464947671513"><ele>1070.0</ele><time>2026-04-27T13:04:22.003Z</time></trkpt><trkpt lat="42.05939669867218" lon="1.0919608520105364"><ele>1067.0</ele><time>2026-04-27T13:04:23.003Z</time></trkpt><trkpt lat="42.05951547395637" lon="1.0919824837281433"><ele>1064.0</ele><time>2026-04-27T13:04:24.003Z</time></trkpt><trkpt lat="42.05963797908671" lon="1.0920190303174575"><ele>1064.0</ele><time>2026-04-27T13:04:25.003Z</time></trkpt><trkpt lat="42.0597609235792" lon="1.0920626154670423"><ele>1064.0</ele><time>2026-04-27T13:04:26.003Z</time></trkpt><trkpt lat="42.059876944163896" lon="1.0921320729132957"><ele>1064.0</ele><time>2026-04-27T13:04:27.003Z</time></trkpt><trkpt lat="42.05999024274897" lon="1.0922054632236666"><ele>1064.0</ele><time>2026-04-27T13:04:28.003Z</time></trkpt><trkpt lat="42.06009806592361" lon="1.0922851122862016"><ele>1064.5</ele><time>2026-04-27T13:04:29.003Z</time></trkpt><trkpt lat="42.060207042795355" lon="1.092367492078946"><ele>1065.0</ele><time>2026-04-27T13:04:30.003Z</time></trkpt><trkpt lat="42.060314359119204" lon="1.0924435314565846"><ele>1065.5</ele><time>2026-04-27T13:04:31.003Z</time></trkpt><trkpt lat="42.06042699321259" lon="1.0925155118551528"><ele>1066.0</ele><time>2026-04-27T13:04:32.003Z</time></trkpt><trkpt lat="42.06053538558851" lon="1.0925867882183782"><ele>1066.0</ele><time>2026-04-27T13:04:33.003Z</time></trkpt><trkpt lat="42.06064453027415" lon="1.092660607441088"><ele>1066.0</ele><time>2026-04-27T13:04:34.003Z</time></trkpt><trkpt lat="42.060753049538484" lon="1.0927382412667666"><ele>1066.0</ele><time>2026-04-27T13:04:35.003Z</time></trkpt><trkpt lat="42.060860294337644" lon="1.092811187285316"><ele>1066.0</ele><time>2026-04-27T13:04:36.003Z</time></trkpt><trkpt lat="42.060970618942235" lon="1.0928750078761795"><ele>1062.0</ele><time>2026-04-27T13:04:37.003Z</time></trkpt><trkpt lat="42.06108514320213" lon="1.0929261868471136"><ele>1058.0</ele><time>2026-04-27T13:04:38.003Z</time></trkpt><trkpt lat="42.06119327391101" lon="1.0929520088641869"><ele>1054.0</ele><time>2026-04-27T13:04:39.003Z</time></trkpt><trkpt lat="42.061316133924315" lon="1.0929761589747968"><ele>1050.0</ele><time>2026-04-27T13:04:40.003Z</time></trkpt><trkpt lat="42.0614417069231" lon="1.0929806886259459"><ele>1050.0</ele><time>2026-04-27T13:04:41.003Z</time></trkpt><trkpt lat="42.06156238183877" lon="1.092964030326004"><ele>1050.0</ele><time>2026-04-27T13:04:42.003Z</time></trkpt><trkpt lat="42.061684874709414" lon="1.0929349043119907"><ele>1050.0</ele><time>2026-04-27T13:04:43.003Z</time></trkpt><trkpt lat="42.061806620848884" lon="1.0929273695379336"><ele>1050.0</ele><time>2026-04-27T13:04:44.003Z</time></trkpt><trkpt lat="42.06192848902183" lon="1.092946873754741"><ele>1052.5</ele><time>2026-04-27T13:04:45.003Z</time></trkpt><trkpt lat="42.06204978215653" lon="1.0929973955204455"><ele>1055.0</ele><time>2026-04-27T13:04:46.003Z</time></trkpt><trkpt lat="42.06216167954274" lon="1.0930719993883697"><ele>1057.5</ele><time>2026-04-27T13:04:47.003Z</time></trkpt><trkpt lat="42.06226941727416" lon="1.093162915472274"><ele>1060.0</ele><time>2026-04-27T13:04:48.003Z</time></trkpt><trkpt lat="42.062370074352714" lon="1.0932626994007557"><ele>1055.75</ele><time>2026-04-27T13:04:49.003Z</time></trkpt><trkpt lat="42.06246720691843" lon="1.0933680440797875"><ele>1051.5</ele><time>2026-04-27T13:04:50.003Z</time></trkpt><trkpt lat="42.062561526697436" lon="1.0934708864045368"><ele>1047.25</ele><time>2026-04-27T13:04:51.001Z</time></trkpt><trkpt lat="42.06266244657728" lon="1.0935703710300015"><ele>1043.0</ele><time>2026-04-27T13:04:52.001Z</time></trkpt><trkpt lat="42.06276362743575" lon="1.0936652665708717"><ele>1043.0</ele><time>2026-04-27T13:04:53.001Z</time></trkpt><trkpt lat="42.06286102912291" lon="1.0937593518123565"><ele>1043.0</ele><time>2026-04-27T13:04:54.001Z</time></trkpt><trkpt lat="42.06295771223157" lon="1.093856230462289"><ele>1043.0</ele><time>2026-04-27T13:04:55.001Z</time></trkpt><trkpt lat="42.06305150188416" lon="1.0939448293933072"><ele>1043.0</ele><time>2026-04-27T13:04:56.001Z</time></trkpt><trkpt lat="42.06314684114388" lon="1.0940437130330871"><ele>1046.0</ele><time>2026-04-27T13:04:57.001Z</time></trkpt><trkpt lat="42.0632444832811" lon="1.0941434320436811"><ele>1049.0</ele><time>2026-04-27T13:04:58.001Z</time></trkpt><trkpt lat="42.06333970693459" lon="1.0942360750661642"><ele>1052.0</ele><time>2026-04-27T13:04:59.001Z</time></trkpt><trkpt lat="42.06343654850662" lon="1.0943302079565354"><ele>1055.0</ele><time>2026-04-27T13:05:00.001Z</time></trkpt><trkpt lat="42.06353253528358" lon="1.0944213227661763"><ele>1048.75</ele><time>2026-04-27T13:05:01.001Z</time></trkpt><trkpt lat="42.06362881032376" lon="1.0945111401222833"><ele>1042.5</ele><time>2026-04-27T13:05:02.001Z</time></trkpt><trkpt lat="42.06373001585231" lon="1.094601393288096"><ele>1036.25</ele><time>2026-04-27T13:05:03.001Z</time></trkpt><trkpt lat="42.0638633621094" lon="1.0947134627598127"><ele>1030.0</ele><time>2026-04-27T13:05:04.001Z</time></trkpt><trkpt lat="42.06402573878401" lon="1.0948450578808298"><ele>1030.75</ele><time>2026-04-27T13:05:05.001Z</time></trkpt><trkpt lat="42.06414560099847" lon="1.0949491947810734"><ele>1031.5</ele><time>2026-04-27T13:05:06.001Z</time></trkpt><trkpt lat="42.06423013662479" lon="1.094997415349366"><ele>1032.25</ele><time>2026-04-27T13:05:07.001Z</time></trkpt><trkpt lat="42.0643027534168" lon="1.0951330903234655"><ele>1033.0</ele><time>2026-04-27T13:05:09.001Z</time></trkpt><trkpt lat="42.06442216876227" lon="1.0952079259903456"><ele>1033.0</ele><time>2026-04-27T13:05:10.001Z</time></trkpt><trkpt lat="42.06452538418883" lon="1.095290747672762"><ele>1033.0</ele><time>2026-04-27T13:05:11.001Z</time></trkpt><trkpt lat="42.06461809324446" lon="1.0953746114784888"><ele>1033.0</ele><time>2026-04-27T13:05:12.001Z</time></trkpt><trkpt lat="42.06472386252781" lon="1.0954509574684825"><ele>1033.0</ele><time>2026-04-27T13:05:13.001Z</time></trkpt><trkpt lat="42.064823339001585" lon="1.0955392597688611"><ele>1033.0</ele><time>2026-04-27T13:05:14.001Z</time></trkpt><trkpt lat="42.06492371114775" lon="1.0956271806350142"><ele>1033.0</ele><time>2026-04-27T13:05:15.001Z</time></trkpt><trkpt lat="42.065021786383596" lon="1.0957162562139011"><ele>1033.0</ele><time>2026-04-27T13:05:16.001Z</time></trkpt><trkpt lat="42.0651187618309" lon="1.0958100074398627"><ele>1033.0</ele><time>2026-04-27T13:05:17.001Z</time></trkpt><trkpt lat="42.065209730709526" lon="1.0959091470388547"><ele>1033.25</ele><time>2026-04-27T13:05:18.001Z</time></trkpt><trkpt lat="42.065302255192464" lon="1.0960088952784648"><ele>1033.5</ele><time>2026-04-27T13:05:19.001Z</time></trkpt><trkpt lat="42.0653923501364" lon="1.0961126644844508"><ele>1033.75</ele><time>2026-04-27T13:05:20.001Z</time></trkpt><trkpt lat="42.065484684304046" lon="1.096218752293421"><ele>1034.0</ele><time>2026-04-27T13:05:21.001Z</time></trkpt><trkpt lat="42.065575809396805" lon="1.0963217277784267"><ele>1034.0</ele><time>2026-04-27T13:05:22.001Z</time></trkpt><trkpt lat="42.06566823633019" lon="1.0964231818766186"><ele>1034.0</ele><time>2026-04-27T13:05:23.001Z</time></trkpt><trkpt lat="42.065769193841106" lon="1.0965137047567346"><ele>1034.0</ele><time>2026-04-27T13:05:24.001Z</time></trkpt><trkpt lat="42.06587659005443" lon="1.0965880069855967"><ele>1034.0</ele><time>2026-04-27T13:05:25.001Z</time></trkpt><trkpt lat="42.06599592167248" lon="1.0966330377921787"><ele>1032.5</ele><time>2026-04-27T13:05:26.001Z</time></trkpt><trkpt lat="42.06611372034679" lon="1.0966713426554573"><ele>1031.0</ele><time>2026-04-27T13:05:27.001Z</time></trkpt><trkpt lat="42.06622477685147" lon="1.0967050716083762"><ele>1029.5</ele><time>2026-04-27T13:05:28.001Z</time></trkpt><trkpt lat="42.06634034645296" lon="1.0967439357933202"><ele>1028.0</ele><time>2026-04-27T13:05:29.001Z</time></trkpt><trkpt lat="42.06645789936198" lon="1.0967752184891617"><ele>1028.0</ele><time>2026-04-27T13:05:30.001Z</time></trkpt><trkpt lat="42.066576317855834" lon="1.096793920445605"><ele>1028.0</ele><time>2026-04-27T13:05:31.001Z</time></trkpt><trkpt lat="42.06669265506619" lon="1.0967967691499583"><ele>1028.0</ele><time>2026-04-27T13:05:32.001Z</time></trkpt><trkpt lat="42.066806123212665" lon="1.0967927169962024"><ele>1028.0</ele><time>2026-04-27T13:05:33.001Z</time></trkpt><trkpt lat="42.06688664714963" lon="1.0968266850796269"><ele>1028.0</ele><time>2026-04-27T13:05:34.001Z</time></trkpt><trkpt lat="42.06694992272883" lon="1.0968322603041296"><ele>1023.0</ele><time>2026-04-27T13:05:35.001Z</time></trkpt><trkpt lat="42.067154998967666" lon="1.096678685722671"><ele>1018.0</ele><time>2026-04-27T13:05:36.001Z</time></trkpt><trkpt lat="42.067271038103186" lon="1.0966254280957808"><ele>1013.0</ele><time>2026-04-27T13:05:37.001Z</time></trkpt><trkpt lat="42.067387297772214" lon="1.0965670625221224"><ele>1010.0</ele><time>2026-04-27T13:05:38.001Z</time></trkpt><trkpt lat="42.06750295049072" lon="1.0965114907873617"><ele>1007.0</ele><time>2026-04-27T13:05:39.001Z</time></trkpt><trkpt lat="42.06762027182748" lon="1.0964576640925598"><ele>1004.0</ele><time>2026-04-27T13:05:40.001Z</time></trkpt><trkpt lat="42.06773770304141" lon="1.0963996583212952"><ele>1001.0</ele><time>2026-04-27T13:05:41.001Z</time></trkpt><trkpt lat="42.067853164311124" lon="1.0963400110125614"><ele>1001.0</ele><time>2026-04-27T13:05:42.001Z</time></trkpt><trkpt lat="42.067969665494374" lon="1.0962808253085874"><ele>1001.0</ele><time>2026-04-27T13:05:43.001Z</time></trkpt><trkpt lat="42.06808541941263" lon="1.0962232414474642"><ele>1001.0</ele><time>2026-04-27T13:05:44.001Z</time></trkpt><trkpt lat="42.068196802269064" lon="1.0961665319026748"><ele>1001.0</ele><time>2026-04-27T13:05:45.001Z</time></trkpt><trkpt lat="42.068312523700264" lon="1.096110604572346"><ele>1001.0</ele><time>2026-04-27T13:05:46.001Z</time></trkpt><trkpt lat="42.068428321883616" lon="1.09605379556375"><ele>1001.0</ele><time>2026-04-27T13:05:47.001Z</time></trkpt><trkpt lat="42.06854218690613" lon="1.0959951322539356"><ele>1001.0</ele><time>2026-04-27T13:05:48.001Z</time></trkpt><trkpt lat="42.068657053970185" lon="1.0959376000523418"><ele>1001.0</ele><time>2026-04-27T13:05:49.001Z</time></trkpt><trkpt lat="42.06876905789524" lon="1.0958847902377757"><ele>1001.0</ele><time>2026-04-27T13:05:50.001Z</time></trkpt><trkpt lat="42.06888475179081" lon="1.0958341039525605"><ele>1001.0</ele><time>2026-04-27T13:05:51.002Z</time></trkpt><trkpt lat="42.069000271689525" lon="1.0957842626515848"><ele>1001.0</ele><time>2026-04-27T13:05:52.002Z</time></trkpt><trkpt lat="42.06911852909096" lon="1.0957378957342179"><ele>1001.0</ele><time>2026-04-27T13:05:53.002Z</time></trkpt><trkpt lat="42.06923543103935" lon="1.095692676246696"><ele>999.25</ele><time>2026-04-27T13:05:54.002Z</time></trkpt><trkpt lat="42.069351860799635" lon="1.0956483023424237"><ele>997.5</ele><time>2026-04-27T13:05:55.002Z</time></trkpt><trkpt lat="42.069470289832445" lon="1.0956046198772034"><ele>995.75</ele><time>2026-04-27T13:05:56.002Z</time></trkpt><trkpt lat="42.06959022490892" lon="1.0955625761950532"><ele>994.0</ele><time>2026-04-27T13:05:57.002Z</time></trkpt><trkpt lat="42.06970984593572" lon="1.0955221628899434"><ele>994.0</ele><time>2026-04-27T13:05:58.002Z</time></trkpt><trkpt lat="42.06982638265603" lon="1.095482432100413"><ele>994.0</ele><time>2026-04-27T13:05:59.002Z</time></trkpt><trkpt lat="42.06994811159816" lon="1.0954486420548435"><ele>994.0</ele><time>2026-04-27T13:06:00.002Z</time></trkpt><trkpt lat="42.07006904535331" lon="1.0954339930269765"><ele>994.0</ele><time>2026-04-27T13:06:01.002Z</time></trkpt><trkpt lat="42.07018997325056" lon="1.0954527283752324"><ele>994.75</ele><time>2026-04-27T13:06:02.002Z</time></trkpt><trkpt lat="42.07030778679923" lon="1.095480899457276"><ele>995.5</ele><time>2026-04-27T13:06:03.002Z</time></trkpt><trkpt lat="42.070425866139786" lon="1.0955209901489396"><ele>996.25</ele><time>2026-04-27T13:06:04.002Z</time></trkpt><trkpt lat="42.07054343603185" lon="1.0955592177400475"><ele>997.0</ele><time>2026-04-27T13:06:05.002Z</time></trkpt><trkpt lat="42.070664184617925" lon="1.095597623317648"><ele>995.5</ele><time>2026-04-27T13:06:06.002Z</time></trkpt><trkpt lat="42.07077946077757" lon="1.0956370925984935"><ele>994.0</ele><time>2026-04-27T13:06:07.002Z</time></trkpt><trkpt lat="42.07089974182714" lon="1.09567257860052"><ele>992.5</ele><time>2026-04-27T13:06:08.002Z</time></trkpt><trkpt lat="42.07101964168795" lon="1.0957074277203025"><ele>991.0</ele><time>2026-04-27T13:06:09.002Z</time></trkpt><trkpt lat="42.07114009219581" lon="1.095738185717916"><ele>992.25</ele><time>2026-04-27T13:06:10.002Z</time></trkpt><trkpt lat="42.07126038280395" lon="1.0957660304395713"><ele>993.5</ele><time>2026-04-27T13:06:11.002Z</time></trkpt><trkpt lat="42.07138023645517" lon="1.0957923310069275"><ele>994.75</ele><time>2026-04-27T13:06:12.002Z</time></trkpt><trkpt lat="42.07149698289175" lon="1.0958141838098356"><ele>996.0</ele><time>2026-04-27T13:06:13.002Z</time></trkpt><trkpt lat="42.07161541973954" lon="1.095841481553776"><ele>996.0</ele><time>2026-04-27T13:06:14.002Z</time></trkpt><trkpt lat="42.071730946240805" lon="1.0958654460320265"><ele>996.0</ele><time>2026-04-27T13:06:15.002Z</time></trkpt><trkpt lat="42.07184721932003" lon="1.0958895779978144"><ele>996.0</ele><time>2026-04-27T13:06:16.002Z</time></trkpt><trkpt lat="42.07196382640976" lon="1.095911490984995"><ele>996.0</ele><time>2026-04-27T13:06:17.002Z</time></trkpt><trkpt lat="42.07208101908331" lon="1.0959379818753667"><ele>996.0</ele><time>2026-04-27T13:06:18.002Z</time></trkpt><trkpt lat="42.07219967185673" lon="1.0959606826392585"><ele>996.0</ele><time>2026-04-27T13:06:19.002Z</time></trkpt><trkpt lat="42.07231981764109" lon="1.0959773309841236"><ele>996.0</ele><time>2026-04-27T13:06:20.002Z</time></trkpt><trkpt lat="42.07243450156999" lon="1.0959930401822908"><ele>996.0</ele><time>2026-04-27T13:06:21.002Z</time></trkpt><trkpt lat="42.0725392535651" lon="1.0959965699861032"><ele>994.6666666666667</ele><time>2026-04-27T13:06:22.002Z</time></trkpt><trkpt lat="42.072673012527794" lon="1.0960157243510062"><ele>993.3333333333334</ele><time>2026-04-27T13:06:23.002Z</time></trkpt><trkpt lat="42.072835794878756" lon="1.09604114559415"><ele>992.0</ele><time>2026-04-27T13:06:24.002Z</time></trkpt><trkpt lat="42.073016555043445" lon="1.0960610792814118"><ele>992.0</ele><time>2026-04-27T13:06:25.002Z</time></trkpt><trkpt lat="42.0732220595094" lon="1.0960547448219475"><ele>992.0</ele><time>2026-04-27T13:06:26.002Z</time></trkpt><trkpt lat="42.073127501744445" lon="1.0960009125119483"><ele>992.0</ele><time>2026-04-27T13:06:27.002Z</time></trkpt><trkpt lat="42.07324561067418" lon="1.095999208608528"><ele>992.0</ele><time>2026-04-27T13:06:28.002Z</time></trkpt><trkpt lat="42.073357096497844" lon="1.0960032410013207"><ele>991.6</ele><time>2026-04-27T13:06:29.003Z</time></trkpt><trkpt lat="42.073468160942866" lon="1.0960267545927673"><ele>991.2</ele><time>2026-04-27T13:06:30.003Z</time></trkpt><trkpt lat="42.07357333567494" lon="1.0960720466223144"><ele>990.8</ele><time>2026-04-27T13:06:31.003Z</time></trkpt><trkpt lat="42.07366884339619" lon="1.0961519860952909"><ele>990.4</ele><time>2026-04-27T13:06:32.003Z</time></trkpt><trkpt lat="42.07375459982541" lon="1.0962534974808826"><ele>990.0</ele><time>2026-04-27T13:06:33.003Z</time></trkpt><trkpt lat="42.07382883846153" lon="1.0963640364844311"><ele>990.0</ele><time>2026-04-27T13:06:34.003Z</time></trkpt><trkpt lat="42.07389496733116" lon="1.0964823834281416"><ele>990.0</ele><time>2026-04-27T13:06:35.003Z</time></trkpt><trkpt lat="42.07396526886623" lon="1.096597275282251"><ele>990.0</ele><time>2026-04-27T13:06:36.003Z</time></trkpt><trkpt lat="42.07403852783052" lon="1.096707583909118"><ele>990.0</ele><time>2026-04-27T13:06:37.003Z</time></trkpt><trkpt lat="42.07410918762292" lon="1.096815540514617"><ele>990.0</ele><time>2026-04-27T13:06:38.003Z</time></trkpt><trkpt lat="42.07418575729223" lon="1.0969225831115108"><ele>990.25</ele><time>2026-04-27T13:06:39.003Z</time></trkpt><trkpt lat="42.07427991147384" lon="1.0970063110848027"><ele>990.5</ele><time>2026-04-27T13:06:40.003Z</time></trkpt><trkpt lat="42.07438823420385" lon="1.0970594994347542"><ele>990.75</ele><time>2026-04-27T13:06:41.003Z</time></trkpt><trkpt lat="42.07450795759931" lon="1.097079331938505"><ele>991.0</ele><time>2026-04-27T13:06:42.003Z</time></trkpt><trkpt lat="42.07462726653061" lon="1.0970930747581056"><ele>991.0</ele><time>2026-04-27T13:06:43.003Z</time></trkpt><trkpt lat="42.074743967552656" lon="1.0971070654720658"><ele>991.0</ele><time>2026-04-27T13:06:44.003Z</time></trkpt><trkpt lat="42.074863838080525" lon="1.097117172069062"><ele>991.0</ele><time>2026-04-27T13:06:45.003Z</time></trkpt><trkpt lat="42.0749820667962" lon="1.0971305687918518"><ele>991.0</ele><time>2026-04-27T13:06:46.003Z</time></trkpt><trkpt lat="42.075102735583584" lon="1.0971479408942246"><ele>988.0</ele><time>2026-04-27T13:06:47.003Z</time></trkpt><trkpt lat="42.07522122958754" lon="1.0971577767521108"><ele>985.0</ele><time>2026-04-27T13:06:48.003Z</time></trkpt><trkpt lat="42.07540042647563" lon="1.0971374660370095"><ele>982.0</ele><time>2026-04-27T13:06:49.003Z</time></trkpt><trkpt lat="42.07558216370742" lon="1.0971180417599065"><ele>982.0</ele><time>2026-04-27T13:06:50.003Z</time></trkpt><trkpt lat="42.0756909805697" lon="1.0970828795187546"><ele>982.0</ele><time>2026-04-27T13:06:52.003Z</time></trkpt><trkpt lat="42.075805250874296" lon="1.0970233576700623"><ele>982.0</ele><time>2026-04-27T13:06:53.003Z</time></trkpt><trkpt lat="42.07591984403517" lon="1.0969621038218207"><ele>982.0</ele><time>2026-04-27T13:06:54.003Z</time></trkpt><trkpt lat="42.07603387313425" lon="1.09689834082693"><ele>980.75</ele><time>2026-04-27T13:06:55.003Z</time></trkpt><trkpt lat="42.07614835311403" lon="1.096831552643735"><ele>979.5</ele><time>2026-04-27T13:06:56.003Z</time></trkpt><trkpt lat="42.07626389295062" lon="1.0967700742581084"><ele>978.25</ele><time>2026-04-27T13:06:57.001Z</time></trkpt><trkpt lat="42.07638100672846" lon="1.0967061475098971"><ele>977.0</ele><time>2026-04-27T13:06:58.001Z</time></trkpt><trkpt lat="42.07649518393197" lon="1.096640400693244"><ele>974.25</ele><time>2026-04-27T13:06:59.001Z</time></trkpt><trkpt lat="42.076606643924976" lon="1.0965727539444734"><ele>971.5</ele><time>2026-04-27T13:07:00.001Z</time></trkpt><trkpt lat="42.076719122006175" lon="1.0965090771293726"><ele>968.75</ele><time>2026-04-27T13:07:01.001Z</time></trkpt><trkpt lat="42.0768318398811" lon="1.096445424578765"><ele>966.0</ele><time>2026-04-27T13:07:02.001Z</time></trkpt><trkpt lat="42.0769429393232" lon="1.0963828811032104"><ele>966.0</ele><time>2026-04-27T13:07:03.001Z</time></trkpt><trkpt lat="42.077053448740784" lon="1.0963160624628345"><ele>966.0</ele><time>2026-04-27T13:07:04.001Z</time></trkpt><trkpt lat="42.0771635425743" lon="1.0962456496324187"><ele>966.0</ele><time>2026-04-27T13:07:05.001Z</time></trkpt><trkpt lat="42.077273181643456" lon="1.0961751498581693"><ele>966.0</ele><time>2026-04-27T13:07:06.001Z</time></trkpt><trkpt lat="42.07738512178592" lon="1.0961027761704045"><ele>966.0</ele><time>2026-04-27T13:07:07Z</time></trkpt><trkpt lat="42.077493506158156" lon="1.0960291681935523"><ele>966.0</ele><time>2026-04-27T13:07:08.001Z</time></trkpt><trkpt lat="42.07760549908124" lon="1.095961720817316"><ele>966.0</ele><time>2026-04-27T13:07:09Z</time></trkpt><trkpt lat="42.07771566840946" lon="1.0958908965537784"><ele>966.0</ele><time>2026-04-27T13:07:10Z</time></trkpt><trkpt lat="42.07782672082425" lon="1.095816950071589"><ele>964.0</ele><time>2026-04-27T13:07:11Z</time></trkpt><trkpt lat="42.077935112603626" lon="1.09574163845976"><ele>962.0</ele><time>2026-04-27T13:07:12Z</time></trkpt><trkpt lat="42.07804334227968" lon="1.095671002490685"><ele>960.0</ele><time>2026-04-27T13:07:13.001Z</time></trkpt><trkpt lat="42.078150109294434" lon="1.0955957988157186"><ele>958.0</ele><time>2026-04-27T13:07:14.001Z</time></trkpt><trkpt lat="42.0782579091431" lon="1.0955226995814094"><ele>956.75</ele><time>2026-04-27T13:07:15.001Z</time></trkpt><trkpt lat="42.07836737881258" lon="1.0954503060412337"><ele>955.5</ele><time>2026-04-27T13:07:16.001Z</time></trkpt><trkpt lat="42.078477205430005" lon="1.0953753457964401"><ele>954.25</ele><time>2026-04-27T13:07:17.001Z</time></trkpt><trkpt lat="42.0785855275574" lon="1.0953029570604524"><ele>953.0</ele><time>2026-04-27T13:07:18.001Z</time></trkpt><trkpt lat="42.078692120565066" lon="1.095228865994174"><ele>953.0</ele><time>2026-04-27T13:07:19.001Z</time></trkpt><trkpt lat="42.07879943334523" lon="1.0951571735246408"><ele>953.0</ele><time>2026-04-27T13:07:20.001Z</time></trkpt><trkpt lat="42.07890793981906" lon="1.0950847052524533"><ele>953.0</ele><time>2026-04-27T13:07:21.001Z</time></trkpt><trkpt lat="42.07901740492537" lon="1.0950146531931926"><ele>953.0</ele><time>2026-04-27T13:07:22.001Z</time></trkpt><trkpt lat="42.079128675759485" lon="1.094943672927429"><ele>950.5</ele><time>2026-04-27T13:07:23.001Z</time></trkpt><trkpt lat="42.07923630805399" lon="1.0948734048547317"><ele>948.0</ele><time>2026-04-27T13:07:24.001Z</time></trkpt><trkpt lat="42.07934633667047" lon="1.0947998627785642"><ele>945.5</ele><time>2026-04-27T13:07:25.001Z</time></trkpt><trkpt lat="42.07945510703278" lon="1.094728480447485"><ele>943.0</ele><time>2026-04-27T13:07:26.001Z</time></trkpt><trkpt lat="42.079564199913534" lon="1.094654951701122"><ele>943.0</ele><time>2026-04-27T13:07:27.001Z</time></trkpt><trkpt lat="42.07967385510278" lon="1.0945820254766006"><ele>943.0</ele><time>2026-04-27T13:07:28.001Z</time></trkpt><trkpt lat="42.07977974985575" lon="1.0945072069671373"><ele>943.0</ele><time>2026-04-27T13:07:29.001Z</time></trkpt><trkpt lat="42.079887132933855" lon="1.0944358446204059"><ele>943.0</ele><time>2026-04-27T13:07:30.001Z</time></trkpt><trkpt lat="42.07999522583514" lon="1.0943616860641165"><ele>942.25</ele><time>2026-04-27T13:07:31.001Z</time></trkpt><trkpt lat="42.08010747916412" lon="1.0942874507383584"><ele>941.5</ele><time>2026-04-27T13:07:32.001Z</time></trkpt><trkpt lat="42.08021880442204" lon="1.0942133907701728"><ele>940.75</ele><time>2026-04-27T13:07:33.001Z</time></trkpt><trkpt lat="42.08033012215818" lon="1.0941393125666026"><ele>940.0</ele><time>2026-04-27T13:07:34.001Z</time></trkpt><trkpt lat="42.080444740487394" lon="1.0940649402787133"><ele>937.75</ele><time>2026-04-27T13:07:35.001Z</time></trkpt><trkpt lat="42.08055628077545" lon="1.0939915415775527"><ele>935.5</ele><time>2026-04-27T13:07:36.001Z</time></trkpt><trkpt lat="42.08066995413889" lon="1.0939140623324768"><ele>933.25</ele><time>2026-04-27T13:07:37.001Z</time></trkpt><trkpt lat="42.080780692165725" lon="1.0938393108077689"><ele>931.0</ele><time>2026-04-27T13:07:38.001Z</time></trkpt><trkpt lat="42.08089275534323" lon="1.0937627492404967"><ele>931.0</ele><time>2026-04-27T13:07:39.001Z</time></trkpt><trkpt lat="42.081002378994434" lon="1.0936863993915409"><ele>931.0</ele><time>2026-04-27T13:07:40.001Z</time></trkpt><trkpt lat="42.081113875693404" lon="1.0936160862088344"><ele>931.0</ele><time>2026-04-27T13:07:41.001Z</time></trkpt><trkpt lat="42.081222925848344" lon="1.0935441671760517"><ele>931.0</ele><time>2026-04-27T13:07:42.001Z</time></trkpt><trkpt lat="42.081332553641" lon="1.0934714578709248"><ele>931.0</ele><time>2026-04-27T13:07:43.001Z</time></trkpt><trkpt lat="42.08144288468503" lon="1.0933964527880236"><ele>931.0</ele><time>2026-04-27T13:07:44.001Z</time></trkpt><trkpt lat="42.081551538222456" lon="1.093321020021819"><ele>931.0</ele><time>2026-04-27T13:07:45.001Z</time></trkpt><trkpt lat="42.08166114597497" lon="1.0932452261243497"><ele>931.0</ele><time>2026-04-27T13:07:46.001Z</time></trkpt><trkpt lat="42.08177117057495" lon="1.0931719370037387"><ele>928.0</ele><time>2026-04-27T13:07:47.001Z</time></trkpt><trkpt lat="42.081880627806626" lon="1.0930986089676176"><ele>925.0</ele><time>2026-04-27T13:07:48.001Z</time></trkpt><trkpt lat="42.08198671732776" lon="1.0930306350938883"><ele>922.0</ele><time>2026-04-27T13:07:49.001Z</time></trkpt><trkpt lat="42.08209550611237" lon="1.0929554864869129"><ele>919.0</ele><time>2026-04-27T13:07:50.001Z</time></trkpt><trkpt lat="42.08220196585008" lon="1.0928829007642122"><ele>919.0</ele><time>2026-04-27T13:07:51.001Z</time></trkpt><trkpt lat="42.08231169507714" lon="1.0928122922621804"><ele>919.0</ele><time>2026-04-27T13:07:52.001Z</time></trkpt><trkpt lat="42.082422788203296" lon="1.092742419298475"><ele>919.0</ele><time>2026-04-27T13:07:53.001Z</time></trkpt><trkpt lat="42.082536733916434" lon="1.0926743154747924"><ele>919.0</ele><time>2026-04-27T13:07:54.001Z</time></trkpt><trkpt lat="42.08265649972089" lon="1.0926155749540472"><ele>920.25</ele><time>2026-04-27T13:07:55.001Z</time></trkpt><trkpt lat="42.08277871028816" lon="1.092566770420621"><ele>921.5</ele><time>2026-04-27T13:07:56.001Z</time></trkpt><trkpt lat="42.082910745312624" lon="1.0925350390704034"><ele>922.75</ele><time>2026-04-27T13:07:57.001Z</time></trkpt><trkpt lat="42.08304384674293" lon="1.092524817008499"><ele>924.0</ele><time>2026-04-27T13:07:58.001Z</time></trkpt><trkpt lat="42.08317518249678" lon="1.0925247555090005"><ele>922.25</ele><time>2026-04-27T13:07:59.001Z</time></trkpt><trkpt lat="42.083303540553835" lon="1.0925396499955942"><ele>920.5</ele><time>2026-04-27T13:08:00.001Z</time></trkpt><trkpt lat="42.08343039167409" lon="1.0925570785778684"><ele>918.75</ele><time>2026-04-27T13:08:01.002Z</time></trkpt><trkpt lat="42.083558310879184" lon="1.0925778400761306"><ele>917.0</ele><time>2026-04-27T13:08:02.002Z</time></trkpt><trkpt lat="42.08368518722914" lon="1.0925968567267603"><ele>917.0</ele><time>2026-04-27T13:08:03.002Z</time></trkpt><trkpt lat="42.08380635633365" lon="1.0926142845761966"><ele>917.0</ele><time>2026-04-27T13:08:04.002Z</time></trkpt><trkpt lat="42.083931667467965" lon="1.092631255544091"><ele>917.0</ele><time>2026-04-27T13:08:05.002Z</time></trkpt><trkpt lat="42.08405365482346" lon="1.092648793673339"><ele>917.0</ele><time>2026-04-27T13:08:06.002Z</time></trkpt><trkpt lat="42.08417808426476" lon="1.092666882157532"><ele>915.5</ele><time>2026-04-27T13:08:07.002Z</time></trkpt><trkpt lat="42.08430113113807" lon="1.0926853081323142"><ele>914.0</ele><time>2026-04-27T13:08:08.002Z</time></trkpt><trkpt lat="42.084422441616724" lon="1.092701088767809"><ele>912.5</ele><time>2026-04-27T13:08:09.002Z</time></trkpt><trkpt lat="42.084541327928136" lon="1.0927168922661041"><ele>911.0</ele><time>2026-04-27T13:08:10.002Z</time></trkpt><trkpt lat="42.08466232554365" lon="1.092736810624143"><ele>911.0</ele><time>2026-04-27T13:08:11.002Z</time></trkpt><trkpt lat="42.08478162739624" lon="1.0927691328701115"><ele>911.0</ele><time>2026-04-27T13:08:12.002Z</time></trkpt><trkpt lat="42.08489492452201" lon="1.0928254012907537"><ele>911.0</ele><time>2026-04-27T13:08:13.002Z</time></trkpt><trkpt lat="42.084995263094974" lon="1.092912747939886"><ele>911.0</ele><time>2026-04-27T13:08:14.002Z</time></trkpt><trkpt lat="42.085081145054595" lon="1.0930396670548563"><ele>910.5</ele><time>2026-04-27T13:08:15.002Z</time></trkpt><trkpt lat="42.08513003761764" lon="1.0931958354965639"><ele>910.0</ele><time>2026-04-27T13:08:16.002Z</time></trkpt><trkpt lat="42.08514641788084" lon="1.0933465647643315"><ele>909.5</ele><time>2026-04-27T13:08:17.002Z</time></trkpt><trkpt lat="42.08513014484063" lon="1.0935035647016975"><ele>909.0</ele><time>2026-04-27T13:08:18.002Z</time></trkpt><trkpt lat="42.08510570209198" lon="1.0936768714304477"><ele>909.0</ele><time>2026-04-27T13:08:19.002Z</time></trkpt><trkpt lat="42.085102099535526" lon="1.093832211236924"><ele>909.0</ele><time>2026-04-27T13:08:20.002Z</time></trkpt><trkpt lat="42.08512457809342" lon="1.0939767833740506"><ele>909.0</ele><time>2026-04-27T13:08:21.002Z</time></trkpt><trkpt lat="42.085144060960225" lon="1.0941302923406455"><ele>909.0</ele><time>2026-04-27T13:08:22.002Z</time></trkpt><trkpt lat="42.085176997693715" lon="1.0942832183337041"><ele>909.0</ele><time>2026-04-27T13:08:23.002Z</time></trkpt><trkpt lat="42.08523608314429" lon="1.0944316843180588"><ele>909.0</ele><time>2026-04-27T13:08:24.002Z</time></trkpt><trkpt lat="42.085305373289" lon="1.0945689013533284"><ele>909.0</ele><time>2026-04-27T13:08:25.002Z</time></trkpt><trkpt lat="42.08536727709622" lon="1.0946943598682934"><ele>909.0</ele><time>2026-04-27T13:08:26.002Z</time></trkpt><trkpt lat="42.08544375057698" lon="1.0948111493446073"><ele>910.0</ele><time>2026-04-27T13:08:27.002Z</time></trkpt><trkpt lat="42.08553476888056" lon="1.09492261529806"><ele>911.0</ele><time>2026-04-27T13:08:28.002Z</time></trkpt><trkpt lat="42.085624740047756" lon="1.0950238567227835"><ele>912.0</ele><time>2026-04-27T13:08:29.002Z</time></trkpt><trkpt lat="42.08572726371547" lon="1.095104077476926"><ele>913.0</ele><time>2026-04-27T13:08:30.002Z</time></trkpt><trkpt lat="42.08582537753464" lon="1.0952328925653578"><ele>909.25</ele><time>2026-04-27T13:08:31.002Z</time></trkpt><trkpt lat="42.08594074915595" lon="1.0952487808111835"><ele>905.5</ele><time>2026-04-27T13:08:32.002Z</time></trkpt><trkpt lat="42.086049204799224" lon="1.095201454880587"><ele>901.75</ele><time>2026-04-27T13:08:33.002Z</time></trkpt><trkpt lat="42.086171510167674" lon="1.0951935349073338"><ele>898.0</ele><time>2026-04-27T13:08:34.002Z</time></trkpt><trkpt lat="42.086295140322484" lon="1.0951723252610126"><ele>898.0</ele><time>2026-04-27T13:08:35.002Z</time></trkpt><trkpt lat="42.08641776182198" lon="1.0951521242201079"><ele>898.0</ele><time>2026-04-27T13:08:36.002Z</time></trkpt><trkpt lat="42.086540840076985" lon="1.095126872213394"><ele>898.0</ele><time>2026-04-27T13:08:37.002Z</time></trkpt><trkpt lat="42.08666261476788" lon="1.0950987770727547"><ele>898.0</ele><time>2026-04-27T13:08:38.002Z</time></trkpt><trkpt lat="42.08678079044142" lon="1.0950702508376533"><ele>897.5</ele><time>2026-04-27T13:08:39.002Z</time></trkpt><trkpt lat="42.08689827014388" lon="1.0950468684615657"><ele>897.0</ele><time>2026-04-27T13:08:40.002Z</time></trkpt><trkpt lat="42.08701603982016" lon="1.0950262117943275"><ele>896.5</ele><time>2026-04-27T13:08:41.003Z</time></trkpt><trkpt lat="42.087129213357805" lon="1.0950016212787979"><ele>896.0</ele><time>2026-04-27T13:08:42.003Z</time></trkpt><trkpt lat="42.08724285454463" lon="1.0949766462604404"><ele>896.0</ele><time>2026-04-27T13:08:43.003Z</time></trkpt><trkpt lat="42.08735778152357" lon="1.0949519489152495"><ele>896.0</ele><time>2026-04-27T13:08:44.003Z</time></trkpt><trkpt lat="42.08747337076856" lon="1.0949299521417062"><ele>896.0</ele><time>2026-04-27T13:08:45.003Z</time></trkpt><trkpt lat="42.08758844408255" lon="1.09490995095093"><ele>896.0</ele><time>2026-04-27T13:08:46.003Z</time></trkpt><trkpt lat="42.08770039384348" lon="1.0948893159765183"><ele>896.0</ele><time>2026-04-27T13:08:47.003Z</time></trkpt><trkpt lat="42.087815507729445" lon="1.0948726515049938"><ele>896.0</ele><time>2026-04-27T13:08:48.003Z</time></trkpt><trkpt lat="42.08793316797165" lon="1.0948732823730367"><ele>896.0</ele><time>2026-04-27T13:08:49.003Z</time></trkpt><trkpt lat="42.088046155421885" lon="1.0948902524801598"><ele>896.0</ele><time>2026-04-27T13:08:50.003Z</time></trkpt><trkpt lat="42.08814931967165" lon="1.094953206979581"><ele>896.0</ele><time>2026-04-27T13:08:51.003Z</time></trkpt><trkpt lat="42.088255353941115" lon="1.0950138863598602"><ele>896.0</ele><time>2026-04-27T13:08:52.003Z</time></trkpt><trkpt lat="42.08835855130654" lon="1.0950867538759481"><ele>896.0</ele><time>2026-04-27T13:08:53.003Z</time></trkpt><trkpt lat="42.088461338485054" lon="1.095167102350429"><ele>896.0</ele><time>2026-04-27T13:08:54.003Z</time></trkpt><trkpt lat="42.08856023800621" lon="1.0952605441189929"><ele>894.25</ele><time>2026-04-27T13:08:55.003Z</time></trkpt><trkpt lat="42.088658242291" lon="1.0953501329865458"><ele>892.5</ele><time>2026-04-27T13:08:56.003Z</time></trkpt><trkpt lat="42.08875872743399" lon="1.0954393128958377"><ele>890.75</ele><time>2026-04-27T13:08:57.003Z</time></trkpt><trkpt lat="42.088856706968016" lon="1.0955335087072353"><ele>889.0</ele><time>2026-04-27T13:08:58.003Z</time></trkpt><trkpt lat="42.0889506699792" lon="1.0956247327614388"><ele>889.0</ele><time>2026-04-27T13:08:59.003Z</time></trkpt><trkpt lat="42.08904802760712" lon="1.0957164468507659"><ele>889.0</ele><time>2026-04-27T13:09:00.003Z</time></trkpt><trkpt lat="42.08914572049167" lon="1.0958093722560014"><ele>889.0</ele><time>2026-04-27T13:09:01.003Z</time></trkpt><trkpt lat="42.08924672866965" lon="1.0959008028124104"><ele>889.0</ele><time>2026-04-27T13:09:02.003Z</time></trkpt><trkpt lat="42.089347017329374" lon="1.095990163420578"><ele>888.5</ele><time>2026-04-27T13:09:03Z</time></trkpt><trkpt lat="42.08944259250256" lon="1.0960790179460012"><ele>888.0</ele><time>2026-04-27T13:09:04Z</time></trkpt><trkpt lat="42.08953950339764" lon="1.0961682130826382"><ele>887.5</ele><time>2026-04-27T13:09:05Z</time></trkpt><trkpt lat="42.0896397166278" lon="1.096259101924715"><ele>887.0</ele><time>2026-04-27T13:09:06Z</time></trkpt><trkpt lat="42.0897413798963" lon="1.096345690864382"><ele>887.0</ele><time>2026-04-27T13:09:07Z</time></trkpt><trkpt lat="42.08984425959863" lon="1.0964217738889488"><ele>887.0</ele><time>2026-04-27T13:09:08Z</time></trkpt><trkpt lat="42.089947653288654" lon="1.0964879381922392"><ele>887.0</ele><time>2026-04-27T13:09:09Z</time></trkpt><trkpt lat="42.09006017952339" lon="1.0965446511864316"><ele>887.0</ele><time>2026-04-27T13:09:10Z</time></trkpt><trkpt lat="42.09017504930551" lon="1.0965785182660102"><ele>884.75</ele><time>2026-04-27T13:09:11Z</time></trkpt><trkpt lat="42.090296437480376" lon="1.0965852083203742"><ele>882.5</ele><time>2026-04-27T13:09:12Z</time></trkpt><trkpt lat="42.0904179064696" lon="1.0965759028356676"><ele>880.25</ele><time>2026-04-27T13:09:13Z</time></trkpt><trkpt lat="42.0905388512886" lon="1.0965558979119296"><ele>878.0</ele><time>2026-04-27T13:09:14Z</time></trkpt><trkpt lat="42.09065932625256" lon="1.0965210513803094"><ele>877.0</ele><time>2026-04-27T13:09:15Z</time></trkpt><trkpt lat="42.09077424959383" lon="1.0964712805817207"><ele>876.0</ele><time>2026-04-27T13:09:16Z</time></trkpt><trkpt lat="42.09088554006775" lon="1.0964003898164103"><ele>875.0</ele><time>2026-04-27T13:09:17Z</time></trkpt><trkpt lat="42.09098511412949" lon="1.0963123050959742"><ele>874.0</ele><time>2026-04-27T13:09:18Z</time></trkpt><trkpt lat="42.09107745980977" lon="1.096213464783636"><ele>874.0</ele><time>2026-04-27T13:09:19Z</time></trkpt><trkpt lat="42.09116730087167" lon="1.0961080560175636"><ele>874.0</ele><time>2026-04-27T13:09:20Z</time></trkpt><trkpt lat="42.09125547919447" lon="1.095995599159972"><ele>874.0</ele><time>2026-04-27T13:09:21Z</time></trkpt><trkpt lat="42.09134231175825" lon="1.0958981839932787"><ele>874.0</ele><time>2026-04-27T13:09:22Z</time></trkpt><trkpt lat="42.09143864234872" lon="1.0957959688297443"><ele>872.5</ele><time>2026-04-27T13:09:23Z</time></trkpt><trkpt lat="42.091526308470044" lon="1.095694868499787"><ele>871.0</ele><time>2026-04-27T13:09:24Z</time></trkpt><trkpt lat="42.091623462561856" lon="1.095592389739677"><ele>869.5</ele><time>2026-04-27T13:09:25Z</time></trkpt><trkpt lat="42.091723375313606" lon="1.0955028942601324"><ele>868.0</ele><time>2026-04-27T13:09:26Z</time></trkpt><trkpt lat="42.09182584186738" lon="1.095440994981898"><ele>868.0</ele><time>2026-04-27T13:09:27Z</time></trkpt><trkpt lat="42.09193243319154" lon="1.0953745740285032"><ele>868.0</ele><time>2026-04-27T13:09:28Z</time></trkpt><trkpt lat="42.09204307043799" lon="1.0953354277146734"><ele>868.0</ele><time>2026-04-27T13:09:29Z</time></trkpt><trkpt lat="42.09215742155795" lon="1.0953047710738393"><ele>868.0</ele><time>2026-04-27T13:09:30.001Z</time></trkpt><trkpt lat="42.092270799318406" lon="1.0952644667586104"><ele>868.0</ele><time>2026-04-27T13:09:31.001Z</time></trkpt><trkpt lat="42.09238834837838" lon="1.09525007344283"><ele>868.0</ele><time>2026-04-27T13:09:32.001Z</time></trkpt><trkpt lat="42.092511214812454" lon="1.095231557475244"><ele>868.0</ele><time>2026-04-27T13:09:33.001Z</time></trkpt><trkpt lat="42.09263196221531" lon="1.095214609172396"><ele>868.0</ele><time>2026-04-27T13:09:34.001Z</time></trkpt><trkpt lat="42.09275318286611" lon="1.0951959573099155"><ele>868.25</ele><time>2026-04-27T13:09:35.001Z</time></trkpt><trkpt lat="42.092873294337444" lon="1.0951763169352349"><ele>868.5</ele><time>2026-04-27T13:09:36.001Z</time></trkpt><trkpt lat="42.0929920182064" lon="1.0951604998635187"><ele>868.75</ele><time>2026-04-27T13:09:37.001Z</time></trkpt><trkpt lat="42.09311158388444" lon="1.0951399275918283"><ele>869.0</ele><time>2026-04-27T13:09:38.001Z</time></trkpt><trkpt lat="42.093228824776325" lon="1.095121397615741"><ele>868.0</ele><time>2026-04-27T13:09:39.001Z</time></trkpt><trkpt lat="42.09334634292828" lon="1.095100766196336"><ele>867.0</ele><time>2026-04-27T13:09:40.001Z</time></trkpt><trkpt lat="42.093462433147344" lon="1.0950805904313146"><ele>866.0</ele><time>2026-04-27T13:09:41.001Z</time></trkpt><trkpt lat="42.09358179203122" lon="1.09505912451183"><ele>865.0</ele><time>2026-04-27T13:09:42.001Z</time></trkpt><trkpt lat="42.093696830337976" lon="1.0950424392343008"><ele>865.0</ele><time>2026-04-27T13:09:43.001Z</time></trkpt><trkpt lat="42.09381149788755" lon="1.095022538053886"><ele>865.0</ele><time>2026-04-27T13:09:44.001Z</time></trkpt><trkpt lat="42.09392643765423" lon="1.0950053397242636"><ele>865.0</ele><time>2026-04-27T13:09:45.001Z</time></trkpt><trkpt lat="42.09404388496634" lon="1.094987907303229"><ele>865.0</ele><time>2026-04-27T13:09:46.001Z</time></trkpt><trkpt lat="42.0941627920552" lon="1.0949687617563246"><ele>864.75</ele><time>2026-04-27T13:09:47.001Z</time></trkpt><trkpt lat="42.094281870908375" lon="1.0949479021406487"><ele>864.5</ele><time>2026-04-27T13:09:48.001Z</time></trkpt><trkpt lat="42.094402449604374" lon="1.094928227785684"><ele>864.25</ele><time>2026-04-27T13:09:49.001Z</time></trkpt><trkpt lat="42.09452493453357" lon="1.0949081713183615"><ele>864.0</ele><time>2026-04-27T13:09:50.001Z</time></trkpt><trkpt lat="42.094643337927366" lon="1.094890349314446"><ele>862.0</ele><time>2026-04-27T13:09:51.001Z</time></trkpt><trkpt lat="42.09476463614154" lon="1.0948688286343837"><ele>860.0</ele><time>2026-04-27T13:09:52.001Z</time></trkpt><trkpt lat="42.09488489140402" lon="1.0948454799538079"><ele>858.0</ele><time>2026-04-27T13:09:53.001Z</time></trkpt><trkpt lat="42.09500409494862" lon="1.0948260581735452"><ele>856.0</ele><time>2026-04-27T13:09:54.001Z</time></trkpt><trkpt lat="42.09512672813531" lon="1.0948063006410278"><ele>856.0</ele><time>2026-04-27T13:09:55.001Z</time></trkpt><trkpt lat="42.095246497643934" lon="1.0947852319912967"><ele>856.0</ele><time>2026-04-27T13:09:56.001Z</time></trkpt><trkpt lat="42.095369342526034" lon="1.0947630028728417"><ele>856.0</ele><time>2026-04-27T13:09:57.001Z</time></trkpt><trkpt lat="42.09549065498518" lon="1.0947436973607478"><ele>856.0</ele><time>2026-04-27T13:09:58.001Z</time></trkpt><trkpt lat="42.09561330036573" lon="1.0947241047286616"><ele>856.0</ele><time>2026-04-27T13:09:59.001Z</time></trkpt><trkpt lat="42.09573653693637" lon="1.0947069664252465"><ele>856.0</ele><time>2026-04-27T13:10:00.001Z</time></trkpt><trkpt lat="42.09585958834509" lon="1.0946852727068797"><ele>856.0</ele><time>2026-04-27T13:10:01.001Z</time></trkpt><trkpt lat="42.095980142486965" lon="1.0946632082285097"><ele>856.0</ele><time>2026-04-27T13:10:02.001Z</time></trkpt><trkpt lat="42.09610062732502" lon="1.094643456144717"><ele>855.0</ele><time>2026-04-27T13:10:03.001Z</time></trkpt><trkpt lat="42.096218769520206" lon="1.094624895764633"><ele>854.0</ele><time>2026-04-27T13:10:04.001Z</time></trkpt><trkpt lat="42.09633769985391" lon="1.0946051700450483"><ele>853.0</ele><time>2026-04-27T13:10:05.001Z</time></trkpt><trkpt lat="42.09645914618389" lon="1.0945826453323588"><ele>852.0</ele><time>2026-04-27T13:10:06.001Z</time></trkpt><trkpt lat="42.09657784994932" lon="1.09455003081402"><ele>851.0</ele><time>2026-04-27T13:10:07.001Z</time></trkpt><trkpt lat="42.09669698606035" lon="1.0945139638865724"><ele>850.0</ele><time>2026-04-27T13:10:08.001Z</time></trkpt><trkpt lat="42.0968149446837" lon="1.094472763591178"><ele>849.0</ele><time>2026-04-27T13:10:09.001Z</time></trkpt><trkpt lat="42.09692951360072" lon="1.094423501712391"><ele>848.0</ele><time>2026-04-27T13:10:10.001Z</time></trkpt><trkpt lat="42.09704337959079" lon="1.0943652961826793"><ele>848.0</ele><time>2026-04-27T13:10:11.001Z</time></trkpt><trkpt lat="42.097159940354764" lon="1.094308428700459"><ele>848.0</ele><time>2026-04-27T13:10:12.001Z</time></trkpt><trkpt lat="42.0972747765403" lon="1.0942477007528926"><ele>848.0</ele><time>2026-04-27T13:10:13.001Z</time></trkpt><trkpt lat="42.09738637327822" lon="1.0941852931381197"><ele>848.0</ele><time>2026-04-27T13:10:14.002Z</time></trkpt><trkpt lat="42.09750272355791" lon="1.0941174322844949"><ele>847.0</ele><time>2026-04-27T13:10:15.002Z</time></trkpt><trkpt lat="42.09761643623816" lon="1.094045617233104"><ele>846.0</ele><time>2026-04-27T13:10:16.002Z</time></trkpt><trkpt lat="42.0977287145486" lon="1.093965577344657"><ele>845.0</ele><time>2026-04-27T13:10:17.002Z</time></trkpt><trkpt lat="42.09783867703229" lon="1.093882288984136"><ele>844.0</ele><time>2026-04-27T13:10:18.002Z</time></trkpt><trkpt lat="42.09794725703928" lon="1.0938050718462042"><ele>844.0</ele><time>2026-04-27T13:10:19.002Z</time></trkpt><trkpt lat="42.098055429219244" lon="1.0937278910182855"><ele>844.0</ele><time>2026-04-27T13:10:20.002Z</time></trkpt><trkpt lat="42.098164869759614" lon="1.0936487483171373"><ele>844.0</ele><time>2026-04-27T13:10:21.002Z</time></trkpt><trkpt lat="42.09827269930433" lon="1.0935727836457154"><ele>844.0</ele><time>2026-04-27T13:10:22.002Z</time></trkpt><trkpt lat="42.09838120262135" lon="1.0934986267606397"><ele>843.25</ele><time>2026-04-27T13:10:23.002Z</time></trkpt><trkpt lat="42.09849037728961" lon="1.0934240443516103"><ele>842.5</ele><time>2026-04-27T13:10:24.002Z</time></trkpt><trkpt lat="42.09859921367533" lon="1.0933463979497822"><ele>841.75</ele><time>2026-04-27T13:10:25.002Z</time></trkpt><trkpt lat="42.098707047691" lon="1.0932684549138587"><ele>841.0</ele><time>2026-04-27T13:10:26.002Z</time></trkpt><trkpt lat="42.09880955612386" lon="1.093183453125151"><ele>840.0</ele><time>2026-04-27T13:10:27.002Z</time></trkpt><trkpt lat="42.098909342061965" lon="1.093092632630835"><ele>839.0</ele><time>2026-04-27T13:10:28.002Z</time></trkpt><trkpt lat="42.09900420248856" lon="1.0929902873023896"><ele>838.0</ele><time>2026-04-27T13:10:29.002Z</time></trkpt><trkpt lat="42.099095344568276" lon="1.092881198193151"><ele>837.0</ele><time>2026-04-27T13:10:30.002Z</time></trkpt><trkpt lat="42.09917757845007" lon="1.0927549167673567"><ele>835.0</ele><time>2026-04-27T13:10:31.002Z</time></trkpt><trkpt lat="42.09925029951391" lon="1.0926168072448526"><ele>833.0</ele><time>2026-04-27T13:10:32.002Z</time></trkpt><trkpt lat="42.09931424129718" lon="1.0924743149960672"><ele>831.0</ele><time>2026-04-27T13:10:33.002Z</time></trkpt><trkpt lat="42.09936041457794" lon="1.0923175146785842"><ele>829.0</ele><time>2026-04-27T13:10:34.002Z</time></trkpt><trkpt lat="42.09939620758231" lon="1.0921513056347356"><ele>828.25</ele><time>2026-04-27T13:10:35.002Z</time></trkpt><trkpt lat="42.09942435007096" lon="1.0919911886815314"><ele>827.5</ele><time>2026-04-27T13:10:36.002Z</time></trkpt><trkpt lat="42.0994522606048" lon="1.0918293961630505"><ele>826.75</ele><time>2026-04-27T13:10:37.002Z</time></trkpt><trkpt lat="42.099479515720034" lon="1.0916674718349448"><ele>826.0</ele><time>2026-04-27T13:10:38.002Z</time></trkpt><trkpt lat="42.09950823749133" lon="1.0915082656863766"><ele>825.25</ele><time>2026-04-27T13:10:39.002Z</time></trkpt><trkpt lat="42.09953696040349" lon="1.0913508557952674"><ele>824.5</ele><time>2026-04-27T13:10:40.002Z</time></trkpt><trkpt lat="42.09955982461069" lon="1.0911914922174266"><ele>823.75</ele><time>2026-04-27T13:10:41.002Z</time></trkpt><trkpt lat="42.09958608940591" lon="1.0910336718157232"><ele>823.0</ele><time>2026-04-27T13:10:42.002Z</time></trkpt><trkpt lat="42.099613017341106" lon="1.0908799794418256"><ele>822.0</ele><time>2026-04-27T13:10:43.002Z</time></trkpt><trkpt lat="42.09964361821457" lon="1.090721454291606"><ele>821.0</ele><time>2026-04-27T13:10:44.002Z</time></trkpt><trkpt lat="42.09966981568324" lon="1.0905637033704179"><ele>820.0</ele><time>2026-04-27T13:10:45.002Z</time></trkpt><trkpt lat="42.09969766535187" lon="1.0904048997412026"><ele>819.0</ele><time>2026-04-27T13:10:46.002Z</time></trkpt><trkpt lat="42.09972418764116" lon="1.0902476001853791"><ele>819.0</ele><time>2026-04-27T13:10:47.002Z</time></trkpt><trkpt lat="42.099753207212835" lon="1.090095121662761"><ele>819.0</ele><time>2026-04-27T13:10:48.002Z</time></trkpt><trkpt lat="42.09978761448878" lon="1.0899394570682077"><ele>819.0</ele><time>2026-04-27T13:10:49.002Z</time></trkpt><trkpt lat="42.099819648814915" lon="1.0897829152869762"><ele>819.0</ele><time>2026-04-27T13:10:50.002Z</time></trkpt><trkpt lat="42.099859015863416" lon="1.0896328964616955"><ele>818.5</ele><time>2026-04-27T13:10:51.002Z</time></trkpt><trkpt lat="42.09990557810606" lon="1.0894840878341236"><ele>818.0</ele><time>2026-04-27T13:10:52.002Z</time></trkpt><trkpt lat="42.099957895717175" lon="1.0893396284133514"><ele>817.5</ele><time>2026-04-27T13:10:53.002Z</time></trkpt><trkpt lat="42.10002028546006" lon="1.0891961076980523"><ele>817.0</ele><time>2026-04-27T13:10:54.002Z</time></trkpt><trkpt lat="42.100059725629464" lon="1.0890437518078693"><ele>814.75</ele><time>2026-04-27T13:10:55.002Z</time></trkpt><trkpt lat="42.10012093047135" lon="1.088901827907766"><ele>812.5</ele><time>2026-04-27T13:10:56.003Z</time></trkpt><trkpt lat="42.100178174210846" lon="1.0887561774159096"><ele>810.25</ele><time>2026-04-27T13:10:57.003Z</time></trkpt><trkpt lat="42.100235229291215" lon="1.0886093329261954"><ele>808.0</ele><time>2026-04-27T13:10:58.003Z</time></trkpt><trkpt lat="42.100293058693026" lon="1.0884661539107525"><ele>808.0</ele><time>2026-04-27T13:10:59.003Z</time></trkpt><trkpt lat="42.10034577290373" lon="1.0883221537827756"><ele>808.0</ele><time>2026-04-27T13:11:00.003Z</time></trkpt><trkpt lat="42.100402774319065" lon="1.0881828591177014"><ele>808.0</ele><time>2026-04-27T13:11:01.003Z</time></trkpt><trkpt lat="42.100459249052726" lon="1.0880467535770006"><ele>808.0</ele><time>2026-04-27T13:11:02.003Z</time></trkpt><trkpt lat="42.10051055866455" lon="1.0879188231100647"><ele>807.25</ele><time>2026-04-27T13:11:03.003Z</time></trkpt><trkpt lat="42.1005651525236" lon="1.0877733293989773"><ele>806.5</ele><time>2026-04-27T13:11:04.003Z</time></trkpt><trkpt lat="42.100607308619075" lon="1.0876320992345245"><ele>805.75</ele><time>2026-04-27T13:11:05.003Z</time></trkpt><trkpt lat="42.100635924929115" lon="1.0874830695248514"><ele>805.0</ele><time>2026-04-27T13:11:06.003Z</time></trkpt><trkpt lat="42.100643067175405" lon="1.0873262383084725"><ele>803.5</ele><time>2026-04-27T13:11:07.003Z</time></trkpt><trkpt lat="42.100630621977544" lon="1.0871695709553122"><ele>802.0</ele><time>2026-04-27T13:11:08.003Z</time></trkpt><trkpt lat="42.10059639718205" lon="1.0870083227514402"><ele>800.5</ele><time>2026-04-27T13:11:09Z</time></trkpt><trkpt lat="42.10055352651626" lon="1.0868701015174238"><ele>799.0</ele><time>2026-04-27T13:11:10Z</time></trkpt><trkpt lat="42.1004884316317" lon="1.0867337146051366"><ele>799.0</ele><time>2026-04-27T13:11:11Z</time></trkpt><trkpt lat="42.100422276125194" lon="1.0865955690723226"><ele>799.0</ele><time>2026-04-27T13:11:12Z</time></trkpt><trkpt lat="42.10036125074035" lon="1.0864622087791413"><ele>799.0</ele><time>2026-04-27T13:11:13Z</time></trkpt><trkpt lat="42.10029795626384" lon="1.086326831101158"><ele>799.0</ele><time>2026-04-27T13:11:14Z</time></trkpt><trkpt lat="42.10023885898377" lon="1.0861987505258974"><ele>798.0</ele><time>2026-04-27T13:11:15Z</time></trkpt><trkpt lat="42.10017957161687" lon="1.0860716099945886"><ele>797.0</ele><time>2026-04-27T13:11:16Z</time></trkpt><trkpt lat="42.1001403658494" lon="1.0859601803800716"><ele>796.0</ele><time>2026-04-27T13:11:17Z</time></trkpt><trkpt lat="42.10003970190316" lon="1.0857935405338448"><ele>795.0</ele><time>2026-04-27T13:11:18Z</time></trkpt><trkpt lat="42.09997082516068" lon="1.0856217046302743"><ele>794.0</ele><time>2026-04-27T13:11:19Z</time></trkpt><trkpt lat="42.099919633762894" lon="1.0855276357746737"><ele>793.0</ele><time>2026-04-27T13:11:20Z</time></trkpt><trkpt lat="42.0998726418762" lon="1.085391324493172"><ele>792.0</ele><time>2026-04-27T13:11:21Z</time></trkpt><trkpt lat="42.09983919471697" lon="1.085242357718136"><ele>791.0</ele><time>2026-04-27T13:11:22Z</time></trkpt><trkpt lat="42.099854694677795" lon="1.0850849376530978"><ele>790.0</ele><time>2026-04-27T13:11:23Z</time></trkpt><trkpt lat="42.09988397939587" lon="1.0849366696018514"><ele>788.25</ele><time>2026-04-27T13:11:24Z</time></trkpt><trkpt lat="42.09993098669292" lon="1.084797658054598"><ele>786.5</ele><time>2026-04-27T13:11:25Z</time></trkpt><trkpt lat="42.09998597073285" lon="1.0846594471402948"><ele>784.75</ele><time>2026-04-27T13:11:26Z</time></trkpt><trkpt lat="42.10009086241829" lon="1.0845799238970495"><ele>783.0</ele><time>2026-04-27T13:11:27Z</time></trkpt><trkpt lat="42.10018489243504" lon="1.0844856882533838"><ele>783.0</ele><time>2026-04-27T13:11:28Z</time></trkpt><trkpt lat="42.100304082991386" lon="1.08444692403016"><ele>783.0</ele><time>2026-04-27T13:11:29Z</time></trkpt><trkpt lat="42.10042256282422" lon="1.0844262372041673"><ele>783.0</ele><time>2026-04-27T13:11:30Z</time></trkpt><trkpt lat="42.10054084839881" lon="1.0844169738332345"><ele>783.0</ele><time>2026-04-27T13:11:31Z</time></trkpt><trkpt lat="42.10066060506994" lon="1.0844117519356953"><ele>781.6666666666667</ele><time>2026-04-27T13:11:32Z</time></trkpt><trkpt lat="42.10076317065105" lon="1.0843923236628867"><ele>780.3333333333334</ele><time>2026-04-27T13:11:33Z</time></trkpt><trkpt lat="42.10100652993907" lon="1.0843284100768054"><ele>779.0</ele><time>2026-04-27T13:11:35Z</time></trkpt><trkpt lat="42.101122933056494" lon="1.0842838553300185"><ele>779.0</ele><time>2026-04-27T13:11:36Z</time></trkpt><trkpt lat="42.101237004346416" lon="1.0842300870964272"><ele>779.0</ele><time>2026-04-27T13:11:37Z</time></trkpt><trkpt lat="42.10135066399808" lon="1.0841606028300845"><ele>779.0</ele><time>2026-04-27T13:11:38Z</time></trkpt><trkpt lat="42.101454840206905" lon="1.0840739533471855"><ele>779.0</ele><time>2026-04-27T13:11:39Z</time></trkpt><trkpt lat="42.101556288088524" lon="1.083972046519411"><ele>775.5</ele><time>2026-04-27T13:11:40Z</time></trkpt><trkpt lat="42.1016475989503" lon="1.0838496296163396"><ele>772.0</ele><time>2026-04-27T13:11:41Z</time></trkpt><trkpt lat="42.10173152445678" lon="1.0837128059355394"><ele>768.5</ele><time>2026-04-27T13:11:42Z</time></trkpt><trkpt lat="42.10181493178599" lon="1.0835814488384836"><ele>765.0</ele><time>2026-04-27T13:11:43.001Z</time></trkpt><trkpt lat="42.10189775713393" lon="1.0834559689350305"><ele>765.0</ele><time>2026-04-27T13:11:44.001Z</time></trkpt><trkpt lat="42.101982867739736" lon="1.0833284158319705"><ele>765.0</ele><time>2026-04-27T13:11:45.001Z</time></trkpt><trkpt lat="42.10206538099351" lon="1.0832013254392232"><ele>765.0</ele><time>2026-04-27T13:11:46.001Z</time></trkpt><trkpt lat="42.10214729047508" lon="1.0830757419409052"><ele>765.0</ele><time>2026-04-27T13:11:47.001Z</time></trkpt><trkpt lat="42.1022268456342" lon="1.0829505406243216"><ele>764.0</ele><time>2026-04-27T13:11:48.001Z</time></trkpt><trkpt lat="42.102307999174485" lon="1.0828228521678396"><ele>763.0</ele><time>2026-04-27T13:11:49.001Z</time></trkpt><trkpt lat="42.10238565831968" lon="1.082695344477267"><ele>762.0</ele><time>2026-04-27T13:11:50.001Z</time></trkpt><trkpt lat="42.10246133786063" lon="1.0825684535326663"><ele>761.0</ele><time>2026-04-27T13:11:51.001Z</time></trkpt><trkpt lat="42.102539685168885" lon="1.0824463127668602"><ele>758.0</ele><time>2026-04-27T13:11:52.001Z</time></trkpt><trkpt lat="42.102632750957014" lon="1.0823419372945213"><ele>755.0</ele><time>2026-04-27T13:11:53.001Z</time></trkpt><trkpt lat="42.10273966084795" lon="1.0822682381756632"><ele>752.0</ele><time>2026-04-27T13:11:54.001Z</time></trkpt><trkpt lat="42.10286284675397" lon="1.0822521271788212"><ele>749.0</ele><time>2026-04-27T13:11:55.001Z</time></trkpt><trkpt lat="42.10298583505582" lon="1.0822641922925915"><ele>749.0</ele><time>2026-04-27T13:11:56.001Z</time></trkpt><trkpt lat="42.103105120676446" lon="1.082339162880108"><ele>749.0</ele><time>2026-04-27T13:11:57.001Z</time></trkpt><trkpt lat="42.103211871023404" lon="1.0824905041368567"><ele>749.0</ele><time>2026-04-27T13:11:58.001Z</time></trkpt><trkpt lat="42.10328415639858" lon="1.0826248027274892"><ele>749.0</ele><time>2026-04-27T13:11:59.001Z</time></trkpt><trkpt lat="42.10333298557999" lon="1.082767593000027"><ele>751.0</ele><time>2026-04-27T13:12:00.001Z</time></trkpt><trkpt lat="42.10334458447872" lon="1.0829283338153015"><ele>753.0</ele><time>2026-04-27T13:12:01.001Z</time></trkpt><trkpt lat="42.103341310689565" lon="1.0830862175232454"><ele>755.0</ele><time>2026-04-27T13:12:02.001Z</time></trkpt><trkpt lat="42.10334081664611" lon="1.0832383140733315"><ele>757.0</ele><time>2026-04-27T13:12:03.001Z</time></trkpt><trkpt lat="42.103352047561394" lon="1.083394956718993"><ele>757.0</ele><time>2026-04-27T13:12:04.001Z</time></trkpt><trkpt lat="42.103369985608055" lon="1.0835507732010354"><ele>757.0</ele><time>2026-04-27T13:12:05.001Z</time></trkpt><trkpt lat="42.103383883296615" lon="1.0837058444900922"><ele>757.0</ele><time>2026-04-27T13:12:06.001Z</time></trkpt><trkpt lat="42.103389044080615" lon="1.0838640834163638"><ele>757.0</ele><time>2026-04-27T13:12:07.001Z</time></trkpt><trkpt lat="42.1033853370767" lon="1.0840139016895574"><ele>755.5</ele><time>2026-04-27T13:12:08.001Z</time></trkpt><trkpt lat="42.103344212439445" lon="1.0841349003666307"><ele>754.0</ele><time>2026-04-27T13:12:09.001Z</time></trkpt><trkpt lat="42.10329826565436" lon="1.084236629957853"><ele>752.5</ele><time>2026-04-27T13:12:10.001Z</time></trkpt><trkpt lat="42.103389116254505" lon="1.0844816791507303"><ele>751.0</ele><time>2026-04-27T13:12:11.001Z</time></trkpt><trkpt lat="42.10344442205034" lon="1.0846863297632066"><ele>751.0</ele><time>2026-04-27T13:12:12.001Z</time></trkpt><trkpt lat="42.10341781566407" lon="1.0848012923076236"><ele>751.0</ele><time>2026-04-27T13:12:13.001Z</time></trkpt><trkpt lat="42.10343138888258" lon="1.0849631656611307"><ele>751.0</ele><time>2026-04-27T13:12:14.001Z</time></trkpt><trkpt lat="42.10344178843483" lon="1.0851177045511107"><ele>751.0</ele><time>2026-04-27T13:12:15.001Z</time></trkpt><trkpt lat="42.103451375713135" lon="1.0852744028761045"><ele>751.0</ele><time>2026-04-27T13:12:16.001Z</time></trkpt><trkpt lat="42.10346466955148" lon="1.0854348892731325"><ele>750.25</ele><time>2026-04-27T13:12:17.001Z</time></trkpt><trkpt lat="42.10348286622472" lon="1.0855822523364294"><ele>749.5</ele><time>2026-04-27T13:12:18.001Z</time></trkpt><trkpt lat="42.10352956671648" lon="1.0857159136325882"><ele>748.75</ele><time>2026-04-27T13:12:19.001Z</time></trkpt><trkpt lat="42.10361389856773" lon="1.0858252794668533"><ele>748.0</ele><time>2026-04-27T13:12:20.001Z</time></trkpt><trkpt lat="42.10371443302319" lon="1.08589435580298"><ele>748.0</ele><time>2026-04-27T13:12:21.001Z</time></trkpt><trkpt lat="42.103832516918054" lon="1.0859222286572008"><ele>748.0</ele><time>2026-04-27T13:12:22.001Z</time></trkpt><trkpt lat="42.10394830909934" lon="1.0858763328006131"><ele>748.0</ele><time>2026-04-27T13:12:23.001Z</time></trkpt><trkpt lat="42.104053612564165" lon="1.085800473546866"><ele>748.0</ele><time>2026-04-27T13:12:24.002Z</time></trkpt><trkpt lat="42.104142115921675" lon="1.0856754120943934"><ele>744.25</ele><time>2026-04-27T13:12:25.002Z</time></trkpt><trkpt lat="42.104207566583156" lon="1.0855377098797763"><ele>740.5</ele><time>2026-04-27T13:12:26.002Z</time></trkpt><trkpt lat="42.10427268130798" lon="1.0854028090591603"><ele>736.75</ele><time>2026-04-27T13:12:27.002Z</time></trkpt><trkpt lat="42.104340593756774" lon="1.0852669290695693"><ele>733.0</ele><time>2026-04-27T13:12:28.002Z</time></trkpt><trkpt lat="42.104397831828685" lon="1.0851315972523972"><ele>733.0</ele><time>2026-04-27T13:12:29.002Z</time></trkpt><trkpt lat="42.104454060727704" lon="1.084999318638875"><ele>733.0</ele><time>2026-04-27T13:12:30.002Z</time></trkpt><trkpt lat="42.104515984179415" lon="1.0848687377297008"><ele>733.0</ele><time>2026-04-27T13:12:31.002Z</time></trkpt><trkpt lat="42.104579005407395" lon="1.0847267678900532"><ele>733.0</ele><time>2026-04-27T13:12:32.002Z</time></trkpt><trkpt lat="42.104641800072805" lon="1.0845885463819687"><ele>732.0</ele><time>2026-04-27T13:12:33.002Z</time></trkpt><trkpt lat="42.104697746409144" lon="1.0844629552635374"><ele>731.0</ele><time>2026-04-27T13:12:34.002Z</time></trkpt><trkpt lat="42.10476810617208" lon="1.0843208060255485"><ele>730.0</ele><time>2026-04-27T13:12:35.002Z</time></trkpt><trkpt lat="42.10487253615378" lon="1.084142416875381"><ele>729.0</ele><time>2026-04-27T13:12:36.002Z</time></trkpt><trkpt lat="42.104988262726856" lon="1.0839403509848744"><ele>727.5</ele><time>2026-04-27T13:12:37.002Z</time></trkpt><trkpt lat="42.10504967561288" lon="1.0838364062839656"><ele>726.0</ele><time>2026-04-27T13:12:39.002Z</time></trkpt><trkpt lat="42.1051282436403" lon="1.0837134248016036"><ele>724.5</ele><time>2026-04-27T13:12:40.002Z</time></trkpt><trkpt lat="42.105206805034946" lon="1.083593402672346"><ele>723.0</ele><time>2026-04-27T13:12:41.002Z</time></trkpt><trkpt lat="42.10528836359377" lon="1.0834785148032133"><ele>723.0</ele><time>2026-04-27T13:12:42.002Z</time></trkpt><trkpt lat="42.10535849441784" lon="1.0833707513115614"><ele>723.0</ele><time>2026-04-27T13:12:43.002Z</time></trkpt><trkpt lat="42.10545608560796" lon="1.0832598348686513"><ele>723.0</ele><time>2026-04-27T13:12:44.002Z</time></trkpt><trkpt lat="42.10554563398213" lon="1.083151155107841"><ele>723.0</ele><time>2026-04-27T13:12:45.002Z</time></trkpt><trkpt lat="42.1056335839057" lon="1.0830426144056737"><ele>721.75</ele><time>2026-04-27T13:12:46.002Z</time></trkpt><trkpt lat="42.10572278468787" lon="1.0829380337905898"><ele>720.5</ele><time>2026-04-27T13:12:47.002Z</time></trkpt><trkpt lat="42.105816924662356" lon="1.0828358158747138"><ele>719.25</ele><time>2026-04-27T13:12:48.002Z</time></trkpt><trkpt lat="42.10591433953716" lon="1.0827393146460695"><ele>718.0</ele><time>2026-04-27T13:12:49.002Z</time></trkpt><trkpt lat="42.10601179193484" lon="1.082645184713336"><ele>718.0</ele><time>2026-04-27T13:12:50.002Z</time></trkpt><trkpt lat="42.1061063803993" lon="1.0825498180577233"><ele>718.0</ele><time>2026-04-27T13:12:51.002Z</time></trkpt><trkpt lat="42.10620269557396" lon="1.0824605547485928"><ele>718.0</ele><time>2026-04-27T13:12:52.002Z</time></trkpt><trkpt lat="42.106302947277314" lon="1.0823692625274979"><ele>718.0</ele><time>2026-04-27T13:12:53.002Z</time></trkpt><trkpt lat="42.10640038099854" lon="1.0822786137330573"><ele>716.0</ele><time>2026-04-27T13:12:54.002Z</time></trkpt><trkpt lat="42.10649699245547" lon="1.08218868859138"><ele>714.0</ele><time>2026-04-27T13:12:55.002Z</time></trkpt><trkpt lat="42.10659382448952" lon="1.0820971671931703"><ele>712.0</ele><time>2026-04-27T13:12:56.002Z</time></trkpt><trkpt lat="42.10668835316743" lon="1.0820052842192436"><ele>710.0</ele><time>2026-04-27T13:12:57.002Z</time></trkpt><trkpt lat="42.10678307835196" lon="1.0819154703660239"><ele>710.0</ele><time>2026-04-27T13:12:58.002Z</time></trkpt><trkpt lat="42.10687852979938" lon="1.081819974198411"><ele>710.0</ele><time>2026-04-27T13:12:59.002Z</time></trkpt><trkpt lat="42.10697411858471" lon="1.0817219517931902"><ele>710.0</ele><time>2026-04-27T13:13:00.002Z</time></trkpt><trkpt lat="42.1070707030011" lon="1.0816239081843213"><ele>710.0</ele><time>2026-04-27T13:13:01.002Z</time></trkpt><trkpt lat="42.107164066933656" lon="1.0815230900704444"><ele>710.5</ele><time>2026-04-27T13:13:02.002Z</time></trkpt><trkpt lat="42.107254073607514" lon="1.0814200466793575"><ele>711.0</ele><time>2026-04-27T13:13:03.002Z</time></trkpt><trkpt lat="42.10734034221733" lon="1.0813112005091807"><ele>711.5</ele><time>2026-04-27T13:13:04.002Z</time></trkpt><trkpt lat="42.10742990985625" lon="1.0812070418488933"><ele>712.0</ele><time>2026-04-27T13:13:05.003Z</time></trkpt><trkpt lat="42.1075156333728" lon="1.0810970791854357"><ele>712.0</ele><time>2026-04-27T13:13:06.003Z</time></trkpt><trkpt lat="42.1075984176297" lon="1.0809782360208284"><ele>712.0</ele><time>2026-04-27T13:13:07.003Z</time></trkpt><trkpt lat="42.1076750979209" lon="1.0808536750718065"><ele>712.0</ele><time>2026-04-27T13:13:08.003Z</time></trkpt><trkpt lat="42.10775229832508" lon="1.0807271196393113"><ele>712.0</ele><time>2026-04-27T13:13:09.003Z</time></trkpt><trkpt lat="42.10782521075853" lon="1.080596453240376"><ele>707.5</ele><time>2026-04-27T13:13:10.003Z</time></trkpt><trkpt lat="42.10789514193307" lon="1.0804624552064443"><ele>703.0</ele><time>2026-04-27T13:13:11.003Z</time></trkpt><trkpt lat="42.1079600211979" lon="1.0803265785565064"><ele>698.5</ele><time>2026-04-27T13:13:12.003Z</time></trkpt><trkpt lat="42.10802128882746" lon="1.080191302647631"><ele>694.0</ele><time>2026-04-27T13:13:13.003Z</time></trkpt><trkpt lat="42.10807938424141" lon="1.0800503389395695"><ele>692.25</ele><time>2026-04-27T13:13:14.003Z</time></trkpt><trkpt lat="42.108135040624326" lon="1.0799022419761137"><ele>690.5</ele><time>2026-04-27T13:13:15Z</time></trkpt><trkpt lat="42.10818484893595" lon="1.079753087460049"><ele>688.75</ele><time>2026-04-27T13:13:16Z</time></trkpt><trkpt lat="42.10823269634863" lon="1.0796033836872165"><ele>687.0</ele><time>2026-04-27T13:13:17Z</time></trkpt><trkpt lat="42.10828231798718" lon="1.0794531310196063"><ele>687.0</ele><time>2026-04-27T13:13:18Z</time></trkpt><trkpt lat="42.108332154640706" lon="1.079302636556303"><ele>687.0</ele><time>2026-04-27T13:13:19Z</time></trkpt><trkpt lat="42.1083804819439" lon="1.0791503099585074"><ele>687.0</ele><time>2026-04-27T13:13:20Z</time></trkpt><trkpt lat="42.10842646663024" lon="1.0789919767379907"><ele>687.0</ele><time>2026-04-27T13:13:21Z</time></trkpt><trkpt lat="42.1084710221292" lon="1.0788409430413748"><ele>686.75</ele><time>2026-04-27T13:13:22Z</time></trkpt><trkpt lat="42.10851389532846" lon="1.0786886642602302"><ele>686.5</ele><time>2026-04-27T13:13:23Z</time></trkpt><trkpt lat="42.10855955559765" lon="1.0785322511254474"><ele>686.25</ele><time>2026-04-27T13:13:24Z</time></trkpt><trkpt lat="42.10860139520092" lon="1.0783794223384426"><ele>686.0</ele><time>2026-04-27T13:13:25Z</time></trkpt><trkpt lat="42.10863997113889" lon="1.078225580525711"><ele>686.0</ele><time>2026-04-27T13:13:26Z</time></trkpt><trkpt lat="42.10867693777442" lon="1.0780704408200639"><ele>686.0</ele><time>2026-04-27T13:13:27Z</time></trkpt><trkpt lat="42.10871300018934" lon="1.077913945610162"><ele>686.0</ele><time>2026-04-27T13:13:28Z</time></trkpt><trkpt lat="42.10874875150574" lon="1.0777596490088692"><ele>686.0</ele><time>2026-04-27T13:13:29Z</time></trkpt><trkpt lat="42.108785415371024" lon="1.0776048790659736"><ele>686.0</ele><time>2026-04-27T13:13:30Z</time></trkpt><trkpt lat="42.10882203538793" lon="1.0774534240914924"><ele>686.0</ele><time>2026-04-27T13:13:31Z</time></trkpt><trkpt lat="42.10885653125225" lon="1.0772976136707813"><ele>686.0</ele><time>2026-04-27T13:13:32Z</time></trkpt><trkpt lat="42.108890552660704" lon="1.0771399140779552"><ele>686.0</ele><time>2026-04-27T13:13:33Z</time></trkpt><trkpt lat="42.10892184280428" lon="1.0769850237767218"><ele>685.25</ele><time>2026-04-27T13:13:34Z</time></trkpt><trkpt lat="42.10895363300196" lon="1.0768330511030455"><ele>684.5</ele><time>2026-04-27T13:13:35Z</time></trkpt><trkpt lat="42.10898025635306" lon="1.076674385786602"><ele>683.75</ele><time>2026-04-27T13:13:36Z</time></trkpt><trkpt lat="42.1090093148797" lon="1.0765158060929143"><ele>683.0</ele><time>2026-04-27T13:13:37Z</time></trkpt><trkpt lat="42.109038255512274" lon="1.0763629009629023"><ele>683.0</ele><time>2026-04-27T13:13:38Z</time></trkpt><trkpt lat="42.109061439664195" lon="1.0762149103111731"><ele>683.0</ele><time>2026-04-27T13:13:39Z</time></trkpt><trkpt lat="42.10908409852752" lon="1.0760572175436893"><ele>683.0</ele><time>2026-04-27T13:13:40Z</time></trkpt><trkpt lat="42.1091028016753" lon="1.075921452239737"><ele>683.0</ele><time>2026-04-27T13:13:41Z</time></trkpt><trkpt lat="42.10913284507138" lon="1.0757607760752852"><ele>686.2</ele><time>2026-04-27T13:13:42Z</time></trkpt><trkpt lat="42.10915426508546" lon="1.075617696288374"><ele>689.4</ele><time>2026-04-27T13:13:43Z</time></trkpt><trkpt lat="42.10917546710623" lon="1.0754675475632682"><ele>692.6</ele><time>2026-04-27T13:13:44Z</time></trkpt><trkpt lat="42.109195342694406" lon="1.0753163622658062"><ele>695.8000000000001</ele><time>2026-04-27T13:13:45Z</time></trkpt><trkpt lat="42.10921217900489" lon="1.075167674273363"><ele>699.0</ele><time>2026-04-27T13:13:46Z</time></trkpt><trkpt lat="42.109229521758415" lon="1.075021882542792"><ele>698.0</ele><time>2026-04-27T13:13:47Z</time></trkpt><trkpt lat="42.109245250854634" lon="1.0748730251572056"><ele>697.0</ele><time>2026-04-27T13:13:48Z</time></trkpt><trkpt lat="42.109259400182765" lon="1.074728446042349"><ele>696.0</ele><time>2026-04-27T13:13:49Z</time></trkpt><trkpt lat="42.10927226411042" lon="1.0745818390264035"><ele>695.0</ele><time>2026-04-27T13:13:50Z</time></trkpt><trkpt lat="42.109288610350106" lon="1.074436586346003"><ele>694.0</ele><time>2026-04-27T13:13:51Z</time></trkpt><trkpt lat="42.109301360835275" lon="1.0742908443651138"><ele>694.0</ele><time>2026-04-27T13:13:52.001Z</time></trkpt><trkpt lat="42.10931335433622" lon="1.0741452064759298"><ele>694.0</ele><time>2026-04-27T13:13:53.001Z</time></trkpt><trkpt lat="42.1093245435927" lon="1.0740015553018516"><ele>694.0</ele><time>2026-04-27T13:13:54.001Z</time></trkpt><trkpt lat="42.109336619122764" lon="1.0738594980736689"><ele>694.0</ele><time>2026-04-27T13:13:55.001Z</time></trkpt><trkpt lat="42.10934990727714" lon="1.0737162442111565"><ele>694.0</ele><time>2026-04-27T13:13:56.001Z</time></trkpt><trkpt lat="42.109363788241474" lon="1.073575101296461"><ele>694.2</ele><time>2026-04-27T13:13:57.001Z</time></trkpt><trkpt lat="42.1093759518816" lon="1.0734337499347446"><ele>694.4000000000001</ele><time>2026-04-27T13:13:58.001Z</time></trkpt><trkpt lat="42.10938623643101" lon="1.0732879571731178"><ele>694.6</ele><time>2026-04-27T13:13:59.001Z</time></trkpt><trkpt lat="42.10940209050361" lon="1.0731480839830856"><ele>694.8</ele><time>2026-04-27T13:14:00.001Z</time></trkpt><trkpt lat="42.10942087597682" lon="1.073008545097976"><ele>695.0</ele><time>2026-04-27T13:14:01.001Z</time></trkpt><trkpt lat="42.10944180459782" lon="1.0728647066856514"><ele>695.2</ele><time>2026-04-27T13:14:02.001Z</time></trkpt><trkpt lat="42.109469888741096" lon="1.072725350309478"><ele>695.4</ele><time>2026-04-27T13:14:03.001Z</time></trkpt><trkpt lat="42.10950216444966" lon="1.0725899935252545"><ele>695.5999999999999</ele><time>2026-04-27T13:14:04.001Z</time></trkpt><trkpt lat="42.10954226157116" lon="1.0724540157149685"><ele>695.8</ele><time>2026-04-27T13:14:05.001Z</time></trkpt><trkpt lat="42.109586043770825" lon="1.0723239096943837"><ele>696.0</ele><time>2026-04-27T13:14:06.001Z</time></trkpt><trkpt lat="42.10963366068458" lon="1.0721972372023625"><ele>696.0</ele><time>2026-04-27T13:14:07.001Z</time></trkpt><trkpt lat="42.109689607888605" lon="1.0720696705025456"><ele>696.0</ele><time>2026-04-27T13:14:08.001Z</time></trkpt><trkpt lat="42.1097512284087" lon="1.0719507652525255"><ele>696.0</ele><time>2026-04-27T13:14:09.001Z</time></trkpt><trkpt lat="42.109816625049284" lon="1.0718354926212508"><ele>696.0</ele><time>2026-04-27T13:14:10.001Z</time></trkpt><trkpt lat="42.10988792816347" lon="1.0717246211995484"><ele>696.0</ele><time>2026-04-27T13:14:11.001Z</time></trkpt><trkpt lat="42.10996238431398" lon="1.0716201518674504"><ele>699.0</ele><time>2026-04-27T13:14:12.001Z</time></trkpt><trkpt lat="42.11004408119635" lon="1.0715184281244199"><ele>702.0</ele><time>2026-04-27T13:14:13.001Z</time></trkpt><trkpt lat="42.11012916601303" lon="1.0714287086240388"><ele>705.0</ele><time>2026-04-27T13:14:14.001Z</time></trkpt><trkpt lat="42.11021774818317" lon="1.0713441743176966"><ele>708.0</ele><time>2026-04-27T13:14:15.001Z</time></trkpt><trkpt lat="42.11030955273009" lon="1.0712593038096305"><ele>711.0</ele><time>2026-04-27T13:14:16.001Z</time></trkpt><trkpt lat="42.11040439268913" lon="1.0711838554998176"><ele>711.0</ele><time>2026-04-27T13:14:17.001Z</time></trkpt><trkpt lat="42.110506207287024" lon="1.071117634652429"><ele>711.0</ele><time>2026-04-27T13:14:18.001Z</time></trkpt><trkpt lat="42.110605103463485" lon="1.071059471573748"><ele>711.0</ele><time>2026-04-27T13:14:19.001Z</time></trkpt><trkpt lat="42.11070909048806" lon="1.0710056982019487"><ele>711.0</ele><time>2026-04-27T13:14:20.001Z</time></trkpt><trkpt lat="42.11081842318279" lon="1.070960320453119"><ele>711.0</ele><time>2026-04-27T13:14:21.001Z</time></trkpt><trkpt lat="42.11092620762233" lon="1.0709224564705544"><ele>710.5</ele><time>2026-04-27T13:14:22.001Z</time></trkpt><trkpt lat="42.11103762557555" lon="1.070894084231019"><ele>710.0</ele><time>2026-04-27T13:14:23.001Z</time></trkpt><trkpt lat="42.111147480714976" lon="1.0708752258625136"><ele>709.5</ele><time>2026-04-27T13:14:24.001Z</time></trkpt><trkpt lat="42.11126110367752" lon="1.0708649889084"><ele>709.0</ele><time>2026-04-27T13:14:25.001Z</time></trkpt><trkpt lat="42.11137565027706" lon="1.0708636115681194"><ele>709.0</ele><time>2026-04-27T13:14:26.001Z</time></trkpt><trkpt lat="42.111490119572544" lon="1.0708733767290668"><ele>709.0</ele><time>2026-04-27T13:14:27.001Z</time></trkpt><trkpt lat="42.111603179650274" lon="1.0708908651092925"><ele>709.0</ele><time>2026-04-27T13:14:28.001Z</time></trkpt><trkpt lat="42.11171447277174" lon="1.070916853522785"><ele>709.0</ele><time>2026-04-27T13:14:29.001Z</time></trkpt><trkpt lat="42.111824259077345" lon="1.0709477448531097"><ele>707.5</ele><time>2026-04-27T13:14:30.001Z</time></trkpt><trkpt lat="42.11193318506296" lon="1.070985996913122"><ele>706.0</ele><time>2026-04-27T13:14:31.001Z</time></trkpt><trkpt lat="42.112041082190956" lon="1.0710369593687994"><ele>704.5</ele><time>2026-04-27T13:14:32.001Z</time></trkpt><trkpt lat="42.112146517729734" lon="1.0710951866747875"><ele>703.0</ele><time>2026-04-27T13:14:33.002Z</time></trkpt><trkpt lat="42.11224855049157" lon="1.0711599722638294"><ele>703.0</ele><time>2026-04-27T13:14:34.002Z</time></trkpt><trkpt lat="42.11235223859512" lon="1.0712253866816572"><ele>703.0</ele><time>2026-04-27T13:14:35.002Z</time></trkpt><trkpt lat="42.11245844072088" lon="1.0712909252841853"><ele>703.0</ele><time>2026-04-27T13:14:36.002Z</time></trkpt><trkpt lat="42.11256275197039" lon="1.0713582487410092"><ele>703.0</ele><time>2026-04-27T13:14:37.002Z</time></trkpt><trkpt lat="42.112666914597185" lon="1.0714287850952264"><ele>702.25</ele><time>2026-04-27T13:14:38.002Z</time></trkpt><trkpt lat="42.1127696331814" lon="1.0714967557873805"><ele>701.5</ele><time>2026-04-27T13:14:39.002Z</time></trkpt><trkpt lat="42.11287566690452" lon="1.0715600041131275"><ele>700.75</ele><time>2026-04-27T13:14:40.002Z</time></trkpt><trkpt lat="42.11298141340565" lon="1.0716189441554815"><ele>700.0</ele><time>2026-04-27T13:14:41.002Z</time></trkpt><trkpt lat="42.113092644163935" lon="1.07166928158859"><ele>700.0</ele><time>2026-04-27T13:14:42.002Z</time></trkpt><trkpt lat="42.11320223330059" lon="1.0717122022077394"><ele>700.0</ele><time>2026-04-27T13:14:43.002Z</time></trkpt><trkpt lat="42.11332223500848" lon="1.0717499404299762"><ele>700.0</ele><time>2026-04-27T13:14:44.002Z</time></trkpt><trkpt lat="42.113424423913145" lon="1.07178358115821"><ele>700.0</ele><time>2026-04-27T13:14:45.002Z</time></trkpt><trkpt lat="42.113509281546975" lon="1.0718446449002967"><ele>700.0</ele><time>2026-04-27T13:14:46.002Z</time></trkpt><trkpt lat="42.11366499861585" lon="1.0717888524347656"><ele>698.75</ele><time>2026-04-27T13:14:47.002Z</time></trkpt><trkpt lat="42.113804821850394" lon="1.0717579257892234"><ele>697.5</ele><time>2026-04-27T13:14:48.002Z</time></trkpt><trkpt lat="42.113907943359195" lon="1.071774031287571"><ele>696.25</ele><time>2026-04-27T13:14:49.002Z</time></trkpt><trkpt lat="42.11402906018188" lon="1.071758261525182"><ele>695.0</ele><time>2026-04-27T13:14:50.002Z</time></trkpt><trkpt lat="42.11414752193561" lon="1.0717281477658962"><ele>694.25</ele><time>2026-04-27T13:14:51.002Z</time></trkpt><trkpt lat="42.11425966162723" lon="1.0716835948963772"><ele>693.5</ele><time>2026-04-27T13:14:52.002Z</time></trkpt><trkpt lat="42.1143640074677" lon="1.07159411445677"><ele>692.75</ele><time>2026-04-27T13:14:53.002Z</time></trkpt><trkpt lat="42.11442773344516" lon="1.0714741018869665"><ele>692.0</ele><time>2026-04-27T13:14:54.002Z</time></trkpt><trkpt lat="42.1145813619113" lon="1.0715303796787832"><ele>691.0</ele><time>2026-04-27T13:14:55.002Z</time></trkpt><trkpt lat="42.11468398689962" lon="1.0714580133689982"><ele>690.0</ele><time>2026-04-27T13:14:56.002Z</time></trkpt><trkpt lat="42.114783382084106" lon="1.0713739012358257"><ele>689.0</ele><time>2026-04-27T13:14:57.002Z</time></trkpt><trkpt lat="42.11487902800441" lon="1.0712833576417622"><ele>688.0</ele><time>2026-04-27T13:14:58.002Z</time></trkpt><trkpt lat="42.114973694171425" lon="1.071184936962258"><ele>688.0</ele><time>2026-04-27T13:14:59.002Z</time></trkpt><trkpt lat="42.115066930877624" lon="1.0710806437154257"><ele>688.0</ele><time>2026-04-27T13:15:00.002Z</time></trkpt><trkpt lat="42.11515718596677" lon="1.0709669876345806"><ele>688.0</ele><time>2026-04-27T13:15:01.002Z</time></trkpt><trkpt lat="42.115242384911205" lon="1.0708408105417828"><ele>688.0</ele><time>2026-04-27T13:15:02.002Z</time></trkpt><trkpt lat="42.11531813727098" lon="1.0707078581633112"><ele>685.75</ele><time>2026-04-27T13:15:03.002Z</time></trkpt><trkpt lat="42.11538613342772" lon="1.0705730773633841"><ele>683.5</ele><time>2026-04-27T13:15:04.002Z</time></trkpt><trkpt lat="42.1154486979353" lon="1.0704300515779641"><ele>681.25</ele><time>2026-04-27T13:15:05.002Z</time></trkpt><trkpt lat="42.11550494583566" lon="1.0702852862068393"><ele>679.0</ele><time>2026-04-27T13:15:06.002Z</time></trkpt><trkpt lat="42.11555740752217" lon="1.0701382990584203"><ele>679.0</ele><time>2026-04-27T13:15:07.002Z</time></trkpt><trkpt lat="42.11559583767154" lon="1.0699860949954327"><ele>679.0</ele><time>2026-04-27T13:15:08.002Z</time></trkpt><trkpt lat="42.11563128579587" lon="1.0698281368815683"><ele>679.0</ele><time>2026-04-27T13:15:09.002Z</time></trkpt><trkpt lat="42.11566389743784" lon="1.0696668415416597"><ele>679.0</ele><time>2026-04-27T13:15:10.002Z</time></trkpt><trkpt lat="42.115687355056274" lon="1.069499886994483"><ele>677.5</ele><time>2026-04-27T13:15:11.002Z</time></trkpt><trkpt lat="42.11570299869308" lon="1.0693298859105025"><ele>676.0</ele><time>2026-04-27T13:15:12.002Z</time></trkpt><trkpt lat="42.11571137982013" lon="1.069161000543471"><ele>674.5</ele><time>2026-04-27T13:15:13.002Z</time></trkpt><trkpt lat="42.115712282979615" lon="1.0689904364124798"><ele>673.0</ele><time>2026-04-27T13:15:14.003Z</time></trkpt><trkpt lat="42.11570323254795" lon="1.068824647181574"><ele>672.0</ele><time>2026-04-27T13:15:15.003Z</time></trkpt><trkpt lat="42.1156869092572" lon="1.0686541045524884"><ele>671.0</ele><time>2026-04-27T13:15:16.003Z</time></trkpt><trkpt lat="42.11566176967203" lon="1.068488347055605"><ele>670.0</ele><time>2026-04-27T13:15:17.003Z</time></trkpt><trkpt lat="42.11561714041543" lon="1.0683266253878088"><ele>669.0</ele><time>2026-04-27T13:15:18.003Z</time></trkpt><trkpt lat="42.115576632359506" lon="1.0681722583346451"><ele>668.25</ele><time>2026-04-27T13:15:19.003Z</time></trkpt><trkpt lat="42.11552890639275" lon="1.0680202785639277"><ele>667.5</ele><time>2026-04-27T13:15:20.003Z</time></trkpt><trkpt lat="42.11548049379722" lon="1.0678715573347677"><ele>666.75</ele><time>2026-04-27T13:15:21Z</time></trkpt><trkpt lat="42.11542567434834" lon="1.0677234587323794"><ele>666.0</ele><time>2026-04-27T13:15:22Z</time></trkpt><trkpt lat="42.115368663456074" lon="1.0675755864437892"><ele>666.0</ele><time>2026-04-27T13:15:23Z</time></trkpt><trkpt lat="42.11531215301661" lon="1.0674292847255706"><ele>666.0</ele><time>2026-04-27T13:15:24Z</time></trkpt><trkpt lat="42.115256348041" lon="1.0672836546506115"><ele>666.0</ele><time>2026-04-27T13:15:25Z</time></trkpt><trkpt lat="42.115199333686434" lon="1.0671370923545063"><ele>666.0</ele><time>2026-04-27T13:15:26Z</time></trkpt><trkpt lat="42.11514486759489" lon="1.0669952763208979"><ele>666.0</ele><time>2026-04-27T13:15:27Z</time></trkpt><trkpt lat="42.1150887831966" lon="1.0668509400937203"><ele>666.0</ele><time>2026-04-27T13:15:28Z</time></trkpt><trkpt lat="42.11503635580499" lon="1.066705628240029"><ele>666.0</ele><time>2026-04-27T13:15:29Z</time></trkpt><trkpt lat="42.114985226968074" lon="1.0665574117886965"><ele>666.0</ele><time>2026-04-27T13:15:30Z</time></trkpt><trkpt lat="42.1149369277146" lon="1.0664073968460623"><ele>662.25</ele><time>2026-04-27T13:15:31Z</time></trkpt><trkpt lat="42.11489391520912" lon="1.066253425752836"><ele>658.5</ele><time>2026-04-27T13:15:32Z</time></trkpt><trkpt lat="42.11485124913042" lon="1.0660995692655273"><ele>654.75</ele><time>2026-04-27T13:15:33Z</time></trkpt><trkpt lat="42.114809814611746" lon="1.0659424010888823"><ele>651.0</ele><time>2026-04-27T13:15:34Z</time></trkpt><trkpt lat="42.11476862102191" lon="1.0657845837953306"><ele>650.25</ele><time>2026-04-27T13:15:35Z</time></trkpt><trkpt lat="42.11473114688479" lon="1.065621499466017"><ele>649.5</ele><time>2026-04-27T13:15:36Z</time></trkpt><trkpt lat="42.1146987817288" lon="1.06546413074831"><ele>648.75</ele><time>2026-04-27T13:15:37Z</time></trkpt><trkpt lat="42.11466933967979" lon="1.0653024979008625"><ele>648.0</ele><time>2026-04-27T13:15:38Z</time></trkpt><trkpt lat="42.11464128210714" lon="1.0651399428215602"><ele>648.0</ele><time>2026-04-27T13:15:39Z</time></trkpt><trkpt lat="42.11461744358239" lon="1.0649721451810983"><ele>648.0</ele><time>2026-04-27T13:15:40Z</time></trkpt><trkpt lat="42.11459866737535" lon="1.0648071946398674"><ele>648.0</ele><time>2026-04-27T13:15:41Z</time></trkpt><trkpt lat="42.11457616031042" lon="1.0646372146405474"><ele>648.0</ele><time>2026-04-27T13:15:42Z</time></trkpt><trkpt lat="42.11456039826775" lon="1.064472492080562"><ele>648.0</ele><time>2026-04-27T13:15:43Z</time></trkpt><trkpt lat="42.1145429771127" lon="1.06430599080867"><ele>648.0</ele><time>2026-04-27T13:15:44Z</time></trkpt><trkpt lat="42.114529115571166" lon="1.0641392529535674"><ele>648.0</ele><time>2026-04-27T13:15:45Z</time></trkpt><trkpt lat="42.114509460356" lon="1.063972705513497"><ele>648.0</ele><time>2026-04-27T13:15:46Z</time></trkpt><trkpt lat="42.11449462044455" lon="1.063804231798048"><ele>647.75</ele><time>2026-04-27T13:15:47Z</time></trkpt><trkpt lat="42.11448286620527" lon="1.0636430947082134"><ele>647.5</ele><time>2026-04-27T13:15:48Z</time></trkpt><trkpt lat="42.11446950987903" lon="1.0634770079121443"><ele>647.25</ele><time>2026-04-27T13:15:49Z</time></trkpt><trkpt lat="42.114454766632285" lon="1.063307273388043"><ele>647.0</ele><time>2026-04-27T13:15:50Z</time></trkpt><trkpt lat="42.11444795661825" lon="1.0631426780019662"><ele>645.5</ele><time>2026-04-27T13:15:51Z</time></trkpt><trkpt lat="42.11443949247517" lon="1.0629747284033884"><ele>644.0</ele><time>2026-04-27T13:15:52Z</time></trkpt><trkpt lat="42.11443347435725" lon="1.0628084055560698"><ele>642.5</ele><time>2026-04-27T13:15:53Z</time></trkpt><trkpt lat="42.114419779382985" lon="1.0626372267910342"><ele>641.0</ele><time>2026-04-27T13:15:54Z</time></trkpt><trkpt lat="42.11440929224844" lon="1.0624692293160478"><ele>638.5</ele><time>2026-04-27T13:15:55Z</time></trkpt><trkpt lat="42.11440103521053" lon="1.0623048323763389"><ele>636.0</ele><time>2026-04-27T13:15:56Z</time></trkpt><trkpt lat="42.114394491611094" lon="1.0621363987872259"><ele>633.5</ele><time>2026-04-27T13:15:57Z</time></trkpt><trkpt lat="42.11438972225915" lon="1.0619674609413374"><ele>631.0</ele><time>2026-04-27T13:15:58Z</time></trkpt><trkpt lat="42.11438495209134" lon="1.0617972050780746"><ele>631.0</ele><time>2026-04-27T13:15:59Z</time></trkpt><trkpt lat="42.11437960130344" lon="1.0616290486893916"><ele>631.0</ele><time>2026-04-27T13:16:00Z</time></trkpt><trkpt lat="42.11437390282736" lon="1.0614612531177665"><ele>631.0</ele><time>2026-04-27T13:16:01Z</time></trkpt><trkpt lat="42.11436875332116" lon="1.061290599939576"><ele>631.0</ele><time>2026-04-27T13:16:02Z</time></trkpt><trkpt lat="42.11436512449247" lon="1.061123156121189"><ele>631.5</ele><time>2026-04-27T13:16:03.001Z</time></trkpt><trkpt lat="42.11436433115888" lon="1.0609591266135834"><ele>632.0</ele><time>2026-04-27T13:16:04.001Z</time></trkpt><trkpt lat="42.114360865370045" lon="1.0607915804843704"><ele>632.5</ele><time>2026-04-27T13:16:05.001Z</time></trkpt><trkpt lat="42.11435906119758" lon="1.0606246617528756"><ele>633.0</ele><time>2026-04-27T13:16:06.001Z</time></trkpt><trkpt lat="42.11435890540674" lon="1.0604586432060368"><ele>633.5</ele><time>2026-04-27T13:16:07.001Z</time></trkpt><trkpt lat="42.1143588689027" lon="1.0602957539545839"><ele>634.0</ele><time>2026-04-27T13:16:08.001Z</time></trkpt><trkpt lat="42.11435946106152" lon="1.0601319937422"><ele>634.5</ele><time>2026-04-27T13:16:09.001Z</time></trkpt><trkpt lat="42.114363525731186" lon="1.059972154946482"><ele>635.0</ele><time>2026-04-27T13:16:10.001Z</time></trkpt><trkpt lat="42.114364151337995" lon="1.059811937238092"><ele>635.0</ele><time>2026-04-27T13:16:11.001Z</time></trkpt><trkpt lat="42.11436729258856" lon="1.0596493488220837"><ele>635.0</ele><time>2026-04-27T13:16:12.001Z</time></trkpt><trkpt lat="42.11436911154381" lon="1.059488160319207"><ele>635.0</ele><time>2026-04-27T13:16:13.001Z</time></trkpt><trkpt lat="42.11437419476566" lon="1.0593304254145668"><ele>635.0</ele><time>2026-04-27T13:16:14.001Z</time></trkpt><trkpt lat="42.114377731727046" lon="1.0591776573787333"><ele>635.25</ele><time>2026-04-27T13:16:15.001Z</time></trkpt><trkpt lat="42.11438256714441" lon="1.059022837738145"><ele>635.5</ele><time>2026-04-27T13:16:16.001Z</time></trkpt><trkpt lat="42.11438891645342" lon="1.0588634296066146"><ele>635.75</ele><time>2026-04-27T13:16:17.001Z</time></trkpt><trkpt lat="42.11439698759597" lon="1.0587084839289984"><ele>636.0</ele><time>2026-04-27T13:16:18.001Z</time></trkpt><trkpt lat="42.114401412501095" lon="1.0585690505252534"><ele>636.0</ele><time>2026-04-27T13:16:19.001Z</time></trkpt><trkpt lat="42.11444033508592" lon="1.0584665126568393"><ele>636.0</ele><time>2026-04-27T13:16:20.001Z</time></trkpt><trkpt lat="42.1144148731463" lon="1.0582416075410082"><ele>636.0</ele><time>2026-04-27T13:16:21.001Z</time></trkpt><trkpt lat="42.114422661398244" lon="1.0580869386677982"><ele>636.0</ele><time>2026-04-27T13:16:22.001Z</time></trkpt><trkpt lat="42.114432066605936" lon="1.057935952053899"><ele>635.75</ele><time>2026-04-27T13:16:23.001Z</time></trkpt><trkpt lat="42.11444535817045" lon="1.0577845156883887"><ele>635.5</ele><time>2026-04-27T13:16:24.001Z</time></trkpt><trkpt lat="42.11446154053805" lon="1.0576380024429997"><ele>635.25</ele><time>2026-04-27T13:16:25.001Z</time></trkpt><trkpt lat="42.11447336731166" lon="1.0574844954715013"><ele>635.0</ele><time>2026-04-27T13:16:26.001Z</time></trkpt><trkpt lat="42.114481903280456" lon="1.057328866921816"><ele>635.5</ele><time>2026-04-27T13:16:27.001Z</time></trkpt><trkpt lat="42.11449528109506" lon="1.057178549646417"><ele>636.0</ele><time>2026-04-27T13:16:28.001Z</time></trkpt><trkpt lat="42.11450190842389" lon="1.0570111799139132"><ele>636.5</ele><time>2026-04-27T13:16:29.001Z</time></trkpt><trkpt lat="42.11452394870415" lon="1.0568501690939016"><ele>637.0</ele><time>2026-04-27T13:16:30.001Z</time></trkpt><trkpt lat="42.114539452580004" lon="1.0566791083409273"><ele>637.4</ele><time>2026-04-27T13:16:31.001Z</time></trkpt><trkpt lat="42.114550410396625" lon="1.0565558821670518"><ele>637.8000000000001</ele><time>2026-04-27T13:16:32.001Z</time></trkpt><trkpt lat="42.11456517617916" lon="1.0564012081640763"><ele>638.2</ele><time>2026-04-27T13:16:33.001Z</time></trkpt><trkpt lat="42.11458026879651" lon="1.0562454442034017"><ele>638.6</ele><time>2026-04-27T13:16:34.001Z</time></trkpt><trkpt lat="42.11459497747824" lon="1.0560921192183366"><ele>639.0</ele><time>2026-04-27T13:16:35.001Z</time></trkpt><trkpt lat="42.11461254087271" lon="1.0559375539221294"><ele>637.75</ele><time>2026-04-27T13:16:36.001Z</time></trkpt><trkpt lat="42.114629189373495" lon="1.0557811012611833"><ele>636.5</ele><time>2026-04-27T13:16:37.001Z</time></trkpt><trkpt lat="42.114646978405716" lon="1.0556259777069146"><ele>635.25</ele><time>2026-04-27T13:16:38.001Z</time></trkpt><trkpt lat="42.11466523535021" lon="1.0554726874448355"><ele>634.0</ele><time>2026-04-27T13:16:39.001Z</time></trkpt><trkpt lat="42.114685737368035" lon="1.0553151889663162"><ele>634.0</ele><time>2026-04-27T13:16:40.001Z</time></trkpt><trkpt lat="42.114705293254914" lon="1.0551605799355106"><ele>634.0</ele><time>2026-04-27T13:16:41.002Z</time></trkpt><trkpt lat="42.11472774006472" lon="1.055001765900074"><ele>634.0</ele><time>2026-04-27T13:16:42.002Z</time></trkpt><trkpt lat="42.114747176146814" lon="1.0548463530907795"><ele>634.0</ele><time>2026-04-27T13:16:43.002Z</time></trkpt><trkpt lat="42.11476921206349" lon="1.0546925308804194"><ele>633.75</ele><time>2026-04-27T13:16:44.002Z</time></trkpt><trkpt lat="42.11479264821278" lon="1.0545359134543828"><ele>633.5</ele><time>2026-04-27T13:16:45.002Z</time></trkpt><trkpt lat="42.11481793105626" lon="1.0543777369782008"><ele>633.25</ele><time>2026-04-27T13:16:46.002Z</time></trkpt><trkpt lat="42.11484217504529" lon="1.0542157636020655"><ele>633.0</ele><time>2026-04-27T13:16:47.002Z</time></trkpt><trkpt lat="42.11486773251953" lon="1.0540588824966657"><ele>632.25</ele><time>2026-04-27T13:16:48.002Z</time></trkpt><trkpt lat="42.114895212081315" lon="1.0539028111164077"><ele>631.5</ele><time>2026-04-27T13:16:49.002Z</time></trkpt><trkpt lat="42.1149231950907" lon="1.0537407726595194"><ele>630.75</ele><time>2026-04-27T13:16:50.002Z</time></trkpt><trkpt lat="42.11495134423279" lon="1.0535799551288338"><ele>630.0</ele><time>2026-04-27T13:16:51.002Z</time></trkpt><trkpt lat="42.114979841410175" lon="1.0534212881439677"><ele>631.0</ele><time>2026-04-27T13:16:52.002Z</time></trkpt><trkpt lat="42.115011176730334" lon="1.053265678754808"><ele>632.0</ele><time>2026-04-27T13:16:53.002Z</time></trkpt><trkpt lat="42.11505003659591" lon="1.0531139674270298"><ele>633.0</ele><time>2026-04-27T13:16:54.002Z</time></trkpt><trkpt lat="42.11508120445082" lon="1.0529556615431817"><ele>634.0</ele><time>2026-04-27T13:16:55.002Z</time></trkpt><trkpt lat="42.11511349560771" lon="1.0527978547752939"><ele>634.0</ele><time>2026-04-27T13:16:56.002Z</time></trkpt><trkpt lat="42.115146578763145" lon="1.0526403722114879"><ele>634.0</ele><time>2026-04-27T13:16:57.002Z</time></trkpt><trkpt lat="42.11517891597947" lon="1.0524818971528926"><ele>634.0</ele><time>2026-04-27T13:16:58.002Z</time></trkpt><trkpt lat="42.11521639456462" lon="1.0523287252901645"><ele>634.0</ele><time>2026-04-27T13:16:59.002Z</time></trkpt><trkpt lat="42.11525334299394" lon="1.0521722086872767"><ele>633.0</ele><time>2026-04-27T13:17:00.002Z</time></trkpt><trkpt lat="42.11528831095071" lon="1.0520106221098968"><ele>632.0</ele><time>2026-04-27T13:17:01.002Z</time></trkpt><trkpt lat="42.115326697645315" lon="1.051854519823439"><ele>631.0</ele><time>2026-04-27T13:17:02.002Z</time></trkpt><trkpt lat="42.115362136886226" lon="1.0516988381215602"><ele>630.0</ele><time>2026-04-27T13:17:03.002Z</time></trkpt><trkpt lat="42.11539869628332" lon="1.0515424487589873"><ele>627.75</ele><time>2026-04-27T13:17:04.002Z</time></trkpt><trkpt lat="42.11544644992047" lon="1.0514007634715934"><ele>625.5</ele><time>2026-04-27T13:17:05.002Z</time></trkpt><trkpt lat="42.11546842983147" lon="1.0512298770783164"><ele>623.25</ele><time>2026-04-27T13:17:06.002Z</time></trkpt><trkpt lat="42.11549972251533" lon="1.051074322004244"><ele>621.0</ele><time>2026-04-27T13:17:07.002Z</time></trkpt><trkpt lat="42.11552922642539" lon="1.0509145017451604"><ele>619.75</ele><time>2026-04-27T13:17:08.002Z</time></trkpt><trkpt lat="42.11555339496295" lon="1.0507495950605024"><ele>618.5</ele><time>2026-04-27T13:17:09.002Z</time></trkpt><trkpt lat="42.11557634736745" lon="1.0505839334049083"><ele>617.25</ele><time>2026-04-27T13:17:10.002Z</time></trkpt><trkpt lat="42.115594613042106" lon="1.0504168980662"><ele>616.0</ele><time>2026-04-27T13:17:11.002Z</time></trkpt><trkpt lat="42.11561261711973" lon="1.0502488179112401"><ele>616.0</ele><time>2026-04-27T13:17:12.002Z</time></trkpt><trkpt lat="42.11563066822292" lon="1.050083811336345"><ele>616.0</ele><time>2026-04-27T13:17:13.002Z</time></trkpt><trkpt lat="42.11564384593748" lon="1.049918244469258"><ele>616.0</ele><time>2026-04-27T13:17:14.002Z</time></trkpt><trkpt lat="42.11565138858966" lon="1.0497507836624083"><ele>616.0</ele><time>2026-04-27T13:17:15.002Z</time></trkpt><trkpt lat="42.115659848970225" lon="1.0495872496064682"><ele>616.25</ele><time>2026-04-27T13:17:16.002Z</time></trkpt><trkpt lat="42.1156617606538" lon="1.049425742252634"><ele>616.5</ele><time>2026-04-27T13:17:17.002Z</time></trkpt><trkpt lat="42.1156645741764" lon="1.0492656646194594"><ele>616.75</ele><time>2026-04-27T13:17:18.002Z</time></trkpt><trkpt lat="42.11566328966174" lon="1.0491035308366257"><ele>617.0</ele><time>2026-04-27T13:17:19.002Z</time></trkpt><trkpt lat="42.11565573146445" lon="1.0489383514253716"><ele>617.0</ele><time>2026-04-27T13:17:20.003Z</time></trkpt><trkpt lat="42.11565176691773" lon="1.04877485524206"><ele>617.0</ele><time>2026-04-27T13:17:21.003Z</time></trkpt><trkpt lat="42.11564252198076" lon="1.0486140080089092"><ele>617.0</ele><time>2026-04-27T13:17:22.003Z</time></trkpt><trkpt lat="42.115628990806215" lon="1.0484544965702653"><ele>617.0</ele><time>2026-04-27T13:17:23.003Z</time></trkpt><trkpt lat="42.11561302763031" lon="1.048294815764946"><ele>616.25</ele><time>2026-04-27T13:17:24.003Z</time></trkpt><trkpt lat="42.11559296045737" lon="1.0481321928846463"><ele>615.5</ele><time>2026-04-27T13:17:25.003Z</time></trkpt><trkpt lat="42.115574619194916" lon="1.0479722731483843"><ele>614.75</ele><time>2026-04-27T13:17:26.003Z</time></trkpt><trkpt lat="42.11555165408783" lon="1.047814574604153"><ele>614.0</ele><time>2026-04-27T13:17:27Z</time></trkpt><trkpt lat="42.115525156896496" lon="1.0476551330427955"><ele>614.0</ele><time>2026-04-27T13:17:28Z</time></trkpt><trkpt lat="42.115493985863004" lon="1.047495232843148"><ele>614.0</ele><time>2026-04-27T13:17:29Z</time></trkpt><trkpt lat="42.115462131741566" lon="1.0473381055775048"><ele>614.0</ele><time>2026-04-27T13:17:30Z</time></trkpt><trkpt lat="42.11543509145201" lon="1.0471839758514736"><ele>614.0</ele><time>2026-04-27T13:17:31Z</time></trkpt><trkpt lat="42.11540089061869" lon="1.047029449223245"><ele>615.0</ele><time>2026-04-27T13:17:32Z</time></trkpt><trkpt lat="42.115357117739094" lon="1.0468744211780983"><ele>616.0</ele><time>2026-04-27T13:17:33Z</time></trkpt><trkpt lat="42.115319435647685" lon="1.0467242298718913"><ele>617.0</ele><time>2026-04-27T13:17:34Z</time></trkpt><trkpt lat="42.11527683156768" lon="1.0465723273716097"><ele>618.0</ele><time>2026-04-27T13:17:35Z</time></trkpt><trkpt lat="42.11523016563345" lon="1.0464227033174924"><ele>619.25</ele><time>2026-04-27T13:17:36Z</time></trkpt><trkpt lat="42.11518019872918" lon="1.0462747948788325"><ele>620.5</ele><time>2026-04-27T13:17:37Z</time></trkpt><trkpt lat="42.11513125177828" lon="1.0461296249996745"><ele>621.75</ele><time>2026-04-27T13:17:38Z</time></trkpt><trkpt lat="42.11507667051227" lon="1.0459882136954193"><ele>623.0</ele><time>2026-04-27T13:17:39Z</time></trkpt><trkpt lat="42.1150228408762" lon="1.045843137508595"><ele>624.0</ele><time>2026-04-27T13:17:40Z</time></trkpt><trkpt lat="42.11496360053054" lon="1.0457038916358445"><ele>625.0</ele><time>2026-04-27T13:17:41Z</time></trkpt><trkpt lat="42.11490640562745" lon="1.045561593968104"><ele>626.0</ele><time>2026-04-27T13:17:42Z</time></trkpt><trkpt lat="42.11484385150123" lon="1.0454227726895267"><ele>627.0</ele><time>2026-04-27T13:17:43Z</time></trkpt><trkpt lat="42.114781302987524" lon="1.0452867248620152"><ele>624.5</ele><time>2026-04-27T13:17:44Z</time></trkpt><trkpt lat="42.114710924148234" lon="1.0451545285832138"><ele>622.0</ele><time>2026-04-27T13:17:45Z</time></trkpt><trkpt lat="42.114643257077404" lon="1.045022953551885"><ele>619.5</ele><time>2026-04-27T13:17:46Z</time></trkpt><trkpt lat="42.11457400218055" lon="1.0448877742707625"><ele>617.0</ele><time>2026-04-27T13:17:47Z</time></trkpt><trkpt lat="42.114508781731004" lon="1.0447577203750307"><ele>617.0</ele><time>2026-04-27T13:17:48Z</time></trkpt><trkpt lat="42.11443862988262" lon="1.0446288166806073"><ele>617.0</ele><time>2026-04-27T13:17:49Z</time></trkpt><trkpt lat="42.114370035042015" lon="1.0444985600967498"><ele>617.0</ele><time>2026-04-27T13:17:50Z</time></trkpt><trkpt lat="42.11429641776565" lon="1.044368742507331"><ele>617.0</ele><time>2026-04-27T13:17:51Z</time></trkpt><trkpt lat="42.11422562480148" lon="1.044239543900421"><ele>618.25</ele><time>2026-04-27T13:17:52Z</time></trkpt><trkpt lat="42.11415729219977" lon="1.0441117836505678"><ele>619.5</ele><time>2026-04-27T13:17:53Z</time></trkpt><trkpt lat="42.114091511485604" lon="1.0439790663240966"><ele>620.75</ele><time>2026-04-27T13:17:54Z</time></trkpt><trkpt lat="42.11402211458193" lon="1.0438496265129311"><ele>622.0</ele><time>2026-04-27T13:17:55Z</time></trkpt><trkpt lat="42.11395408058835" lon="1.0437141259237583"><ele>620.0</ele><time>2026-04-27T13:17:56Z</time></trkpt><trkpt lat="42.113892977958464" lon="1.0435816587389999"><ele>618.0</ele><time>2026-04-27T13:17:57Z</time></trkpt><trkpt lat="42.113843084563285" lon="1.043445600987465"><ele>616.0</ele><time>2026-04-27T13:17:58Z</time></trkpt><trkpt lat="42.11377712976533" lon="1.0433065130398942"><ele>614.0</ele><time>2026-04-27T13:17:59Z</time></trkpt><trkpt lat="42.113731324328974" lon="1.0431712590146427"><ele>614.0</ele><time>2026-04-27T13:18:00Z</time></trkpt><trkpt lat="42.1136712014227" lon="1.0430274219159692"><ele>614.0</ele><time>2026-04-27T13:18:01Z</time></trkpt><trkpt lat="42.113621703918945" lon="1.0428816506804084"><ele>614.0</ele><time>2026-04-27T13:18:02Z</time></trkpt><trkpt lat="42.113574273876296" lon="1.0427347159840887"><ele>614.0</ele><time>2026-04-27T13:18:03Z</time></trkpt><trkpt lat="42.11352818311896" lon="1.0425868119828732"><ele>614.0</ele><time>2026-04-27T13:18:04Z</time></trkpt><trkpt lat="42.11348666446812" lon="1.0424371217287822"><ele>614.0</ele><time>2026-04-27T13:18:05.001Z</time></trkpt><trkpt lat="42.11344785405162" lon="1.0422864907116736"><ele>614.0</ele><time>2026-04-27T13:18:06.001Z</time></trkpt><trkpt lat="42.11340921039039" lon="1.0421358717859515"><ele>614.0</ele><time>2026-04-27T13:18:07.001Z</time></trkpt><trkpt lat="42.113369965795926" lon="1.0419845621790076"><ele>614.0</ele><time>2026-04-27T13:18:08.001Z</time></trkpt><trkpt lat="42.1133354304404" lon="1.0418331151619953"><ele>614.0</ele><time>2026-04-27T13:18:09.001Z</time></trkpt><trkpt lat="42.113306766752665" lon="1.0416818425220988"><ele>614.0</ele><time>2026-04-27T13:18:10.001Z</time></trkpt><trkpt lat="42.11327404455929" lon="1.0415308608099292"><ele>614.0</ele><time>2026-04-27T13:18:11.001Z</time></trkpt><trkpt lat="42.113250314586246" lon="1.0413741191969041"><ele>612.0</ele><time>2026-04-27T13:18:12.001Z</time></trkpt><trkpt lat="42.113223590774865" lon="1.0412178220572492"><ele>610.0</ele><time>2026-04-27T13:18:13.001Z</time></trkpt><trkpt lat="42.11320429183586" lon="1.0410604755564796"><ele>608.0</ele><time>2026-04-27T13:18:14.001Z</time></trkpt><trkpt lat="42.113190805001544" lon="1.040903386978005"><ele>606.0</ele><time>2026-04-27T13:18:15.001Z</time></trkpt><trkpt lat="42.113178076112874" lon="1.040744452471376"><ele>606.0</ele><time>2026-04-27T13:18:16.001Z</time></trkpt><trkpt lat="42.11316497272409" lon="1.0405831444520337"><ele>606.0</ele><time>2026-04-27T13:18:17.001Z</time></trkpt><trkpt lat="42.11315358137327" lon="1.040419671783451"><ele>606.0</ele><time>2026-04-27T13:18:18.001Z</time></trkpt><trkpt lat="42.11314301264512" lon="1.0402553670711254"><ele>606.0</ele><time>2026-04-27T13:18:19.001Z</time></trkpt><trkpt lat="42.11313280225704" lon="1.0400940613586396"><ele>606.0</ele><time>2026-04-27T13:18:20.001Z</time></trkpt><trkpt lat="42.11312870526855" lon="1.0399331188815044"><ele>606.0</ele><time>2026-04-27T13:18:21.001Z</time></trkpt><trkpt lat="42.113133095549315" lon="1.0397724883817465"><ele>606.0</ele><time>2026-04-27T13:18:22.001Z</time></trkpt><trkpt lat="42.11313463632502" lon="1.0396087835126577"><ele>606.0</ele><time>2026-04-27T13:18:23.001Z</time></trkpt><trkpt lat="42.1131340688997" lon="1.0394431459393003"><ele>606.0</ele><time>2026-04-27T13:18:24.001Z</time></trkpt><trkpt lat="42.11313476842268" lon="1.0392794099082938"><ele>606.0</ele><time>2026-04-27T13:18:25.001Z</time></trkpt><trkpt lat="42.11313820634256" lon="1.039119552311387"><ele>606.0</ele><time>2026-04-27T13:18:26.001Z</time></trkpt><trkpt lat="42.11313662600033" lon="1.0389548399102106"><ele>606.0</ele><time>2026-04-27T13:18:27.001Z</time></trkpt><trkpt lat="42.11313539528991" lon="1.0387912904144887"><ele>606.0</ele><time>2026-04-27T13:18:28.001Z</time></trkpt><trkpt lat="42.113134329497804" lon="1.0386275524522506"><ele>606.0</ele><time>2026-04-27T13:18:29.001Z</time></trkpt><trkpt lat="42.11313637566129" lon="1.0384652831650036"><ele>606.0</ele><time>2026-04-27T13:18:30.001Z</time></trkpt><trkpt lat="42.113140542589015" lon="1.0383002605938192"><ele>606.0</ele><time>2026-04-27T13:18:31.001Z</time></trkpt><trkpt lat="42.113139698679774" lon="1.0381351536959076"><ele>605.5</ele><time>2026-04-27T13:18:32.001Z</time></trkpt><trkpt lat="42.11314257137586" lon="1.037970170237246"><ele>605.0</ele><time>2026-04-27T13:18:33.001Z</time></trkpt><trkpt lat="42.113144853024004" lon="1.0378066402449342"><ele>604.5</ele><time>2026-04-27T13:18:34.001Z</time></trkpt><trkpt lat="42.11314538240546" lon="1.0376414481411553"><ele>604.0</ele><time>2026-04-27T13:18:35.001Z</time></trkpt><trkpt lat="42.1131447902654" lon="1.0374786728778658"><ele>603.75</ele><time>2026-04-27T13:18:36.001Z</time></trkpt><trkpt lat="42.11314159532193" lon="1.0373168691429222"><ele>603.5</ele><time>2026-04-27T13:18:37.001Z</time></trkpt><trkpt lat="42.11313763009347" lon="1.0371515403708194"><ele>603.25</ele><time>2026-04-27T13:18:38.001Z</time></trkpt><trkpt lat="42.113140392437806" lon="1.0369884894369337"><ele>603.0</ele><time>2026-04-27T13:18:39.001Z</time></trkpt><trkpt lat="42.11313837265489" lon="1.0368252144031138"><ele>603.0</ele><time>2026-04-27T13:18:40.001Z</time></trkpt><trkpt lat="42.11313535952685" lon="1.0366566268953306"><ele>603.0</ele><time>2026-04-27T13:18:41.001Z</time></trkpt><trkpt lat="42.11313322359481" lon="1.0364966587975606"><ele>603.0</ele><time>2026-04-27T13:18:42.002Z</time></trkpt><trkpt lat="42.113138227922754" lon="1.0363434689246067"><ele>603.0</ele><time>2026-04-27T13:18:43.002Z</time></trkpt><trkpt lat="42.11313434698267" lon="1.0361829070366493"><ele>601.5</ele><time>2026-04-27T13:18:44.002Z</time></trkpt><trkpt lat="42.11312723634271" lon="1.036016676739994"><ele>600.0</ele><time>2026-04-27T13:18:45.002Z</time></trkpt><trkpt lat="42.11312562314306" lon="1.0358667752420812"><ele>598.5</ele><time>2026-04-27T13:18:46.002Z</time></trkpt><trkpt lat="42.113118599109384" lon="1.0357078859028357"><ele>597.0</ele><time>2026-04-27T13:18:47.002Z</time></trkpt><trkpt lat="42.11309857443356" lon="1.0355440284020543"><ele>595.75</ele><time>2026-04-27T13:18:48.002Z</time></trkpt><trkpt lat="42.11308294607587" lon="1.035384303279437"><ele>594.5</ele><time>2026-04-27T13:18:49.002Z</time></trkpt><trkpt lat="42.113059643636454" lon="1.0352353488038017"><ele>593.25</ele><time>2026-04-27T13:18:50.002Z</time></trkpt><trkpt lat="42.11303412064537" lon="1.035080709604"><ele>592.0</ele><time>2026-04-27T13:18:51.002Z</time></trkpt><trkpt lat="42.1130005822619" lon="1.0349231120961877"><ele>591.25</ele><time>2026-04-27T13:18:52.002Z</time></trkpt><trkpt lat="42.11296452987706" lon="1.0347691955302822"><ele>590.5</ele><time>2026-04-27T13:18:53.002Z</time></trkpt><trkpt lat="42.11292406566546" lon="1.0346154958594664"><ele>589.75</ele><time>2026-04-27T13:18:54.002Z</time></trkpt><trkpt lat="42.11287411608511" lon="1.0344642967800255"><ele>589.0</ele><time>2026-04-27T13:18:55.002Z</time></trkpt><trkpt lat="42.11281406308906" lon="1.0343163080069957"><ele>589.0</ele><time>2026-04-27T13:18:56.002Z</time></trkpt><trkpt lat="42.112753720127785" lon="1.0341720968445969"><ele>589.0</ele><time>2026-04-27T13:18:57.002Z</time></trkpt><trkpt lat="42.11269264256238" lon="1.0340307434642184"><ele>589.0</ele><time>2026-04-27T13:18:58.002Z</time></trkpt><trkpt lat="42.11262223302688" lon="1.033894591365708"><ele>589.0</ele><time>2026-04-27T13:18:59.002Z</time></trkpt><trkpt lat="42.11254695407867" lon="1.0337606850632846"><ele>588.0</ele><time>2026-04-27T13:19:00.002Z</time></trkpt><trkpt lat="42.11246253417942" lon="1.0336339515041304"><ele>587.0</ele><time>2026-04-27T13:19:01.002Z</time></trkpt><trkpt lat="42.1123930185606" lon="1.0335053688359452"><ele>586.0</ele><time>2026-04-27T13:19:02.002Z</time></trkpt><trkpt lat="42.1123112602508" lon="1.0333868499746028"><ele>585.0</ele><time>2026-04-27T13:19:03.002Z</time></trkpt><trkpt lat="42.11222097797034" lon="1.033278365746521"><ele>584.75</ele><time>2026-04-27T13:19:04.002Z</time></trkpt><trkpt lat="42.11213340873269" lon="1.0331687054058352"><ele>584.5</ele><time>2026-04-27T13:19:05.002Z</time></trkpt><trkpt lat="42.11204814018811" lon="1.033060912327038"><ele>584.25</ele><time>2026-04-27T13:19:06.002Z</time></trkpt><trkpt lat="42.11195504477667" lon="1.0329526878961808"><ele>584.0</ele><time>2026-04-27T13:19:07.002Z</time></trkpt><trkpt lat="42.111861402171314" lon="1.0328469241006586"><ele>584.0</ele><time>2026-04-27T13:19:08.002Z</time></trkpt><trkpt lat="42.11176128248749" lon="1.0327475621226052"><ele>584.0</ele><time>2026-04-27T13:19:09.002Z</time></trkpt><trkpt lat="42.11166211818708" lon="1.0326446986862865"><ele>584.0</ele><time>2026-04-27T13:19:10.002Z</time></trkpt><trkpt lat="42.11156460798387" lon="1.0325425651500353"><ele>584.0</ele><time>2026-04-27T13:19:11.002Z</time></trkpt><trkpt lat="42.111469231731384" lon="1.0324399299228584"><ele>582.5</ele><time>2026-04-27T13:19:12.002Z</time></trkpt><trkpt lat="42.11137368065665" lon="1.032335466927211"><ele>581.0</ele><time>2026-04-27T13:19:13.002Z</time></trkpt><trkpt lat="42.11127865848307" lon="1.032236142802762"><ele>579.5</ele><time>2026-04-27T13:19:14.002Z</time></trkpt><trkpt lat="42.111186854696356" lon="1.0321329663607486"><ele>578.0</ele><time>2026-04-27T13:19:15.002Z</time></trkpt><trkpt lat="42.111091762358754" lon="1.0320357257660597"><ele>578.0</ele><time>2026-04-27T13:19:16.002Z</time></trkpt><trkpt lat="42.11100016632232" lon="1.031940290625424"><ele>578.0</ele><time>2026-04-27T13:19:17.002Z</time></trkpt><trkpt lat="42.11090800478988" lon="1.0318456950345694"><ele>578.0</ele><time>2026-04-27T13:19:18.002Z</time></trkpt><trkpt lat="42.11081089658167" lon="1.0317385811983821"><ele>578.0</ele><time>2026-04-27T13:19:19.002Z</time></trkpt><trkpt lat="42.11071401545101" lon="1.031640223723699"><ele>577.5</ele><time>2026-04-27T13:19:20.003Z</time></trkpt><trkpt lat="42.11061433936913" lon="1.0315278453400925"><ele>577.0</ele><time>2026-04-27T13:19:21.003Z</time></trkpt><trkpt lat="42.110541378103996" lon="1.031445266165783"><ele>576.5</ele><time>2026-04-27T13:19:22.003Z</time></trkpt><trkpt lat="42.11044472556442" lon="1.0313475533826664"><ele>576.0</ele><time>2026-04-27T13:19:23.003Z</time></trkpt><trkpt lat="42.110350507941135" lon="1.0312514547249922"><ele>576.0</ele><time>2026-04-27T13:19:24.003Z</time></trkpt><trkpt lat="42.11025993869928" lon="1.0311544091580316"><ele>576.0</ele><time>2026-04-27T13:19:25.003Z</time></trkpt><trkpt lat="42.11016535596666" lon="1.0310603861573486"><ele>576.0</ele><time>2026-04-27T13:19:26.003Z</time></trkpt><trkpt lat="42.11006981546743" lon="1.030964028332318"><ele>576.0</ele><time>2026-04-27T13:19:27.003Z</time></trkpt><trkpt lat="42.109974131445576" lon="1.0308661683117988"><ele>575.0</ele><time>2026-04-27T13:19:28.003Z</time></trkpt><trkpt lat="42.109879909911065" lon="1.0307613465447747"><ele>574.0</ele><time>2026-04-27T13:19:29.003Z</time></trkpt><trkpt lat="42.109787938265164" lon="1.0306614104962026"><ele>573.0</ele><time>2026-04-27T13:19:30.003Z</time></trkpt><trkpt lat="42.109692596783724" lon="1.0305588993631087"><ele>572.0</ele><time>2026-04-27T13:19:31.003Z</time></trkpt><trkpt lat="42.109595797658756" lon="1.030457825912767"><ele>572.0</ele><time>2026-04-27T13:19:32.003Z</time></trkpt><trkpt lat="42.10950399544813" lon="1.0303538387342719"><ele>572.0</ele><time>2026-04-27T13:19:33Z</time></trkpt><trkpt lat="42.10940987789174" lon="1.030252364688225"><ele>572.0</ele><time>2026-04-27T13:19:34Z</time></trkpt><trkpt lat="42.10931952023046" lon="1.0301475645487026"><ele>572.0</ele><time>2026-04-27T13:19:35Z</time></trkpt><trkpt lat="42.10922918788139" lon="1.0300399412804342"><ele>573.0</ele><time>2026-04-27T13:19:36Z</time></trkpt><trkpt lat="42.10914122251871" lon="1.029924574316439"><ele>574.0</ele><time>2026-04-27T13:19:37Z</time></trkpt><trkpt lat="42.109055452477335" lon="1.0298124322083577"><ele>575.0</ele><time>2026-04-27T13:19:38Z</time></trkpt><trkpt lat="42.10896793728412" lon="1.0296900249235683"><ele>576.0</ele><time>2026-04-27T13:19:39Z</time></trkpt><trkpt lat="42.10888445831538" lon="1.0295724146514549"><ele>573.25</ele><time>2026-04-27T13:19:40Z</time></trkpt><trkpt lat="42.108808268441926" lon="1.0294414733769803"><ele>570.5</ele><time>2026-04-27T13:19:41Z</time></trkpt><trkpt lat="42.10874186578359" lon="1.0293036275588368"><ele>567.75</ele><time>2026-04-27T13:19:42Z</time></trkpt><trkpt lat="42.10867303949765" lon="1.0291668166941286"><ele>565.0</ele><time>2026-04-27T13:19:43Z</time></trkpt><trkpt lat="42.10860692346335" lon="1.0290390512651133"><ele>565.0</ele><time>2026-04-27T13:19:44Z</time></trkpt><trkpt lat="42.10854660548078" lon="1.02889560848929"><ele>565.0</ele><time>2026-04-27T13:19:45Z</time></trkpt><trkpt lat="42.10848801004241" lon="1.0287473639681972"><ele>565.0</ele><time>2026-04-27T13:19:46Z</time></trkpt><trkpt lat="42.10843325513924" lon="1.0286007546862361"><ele>565.0</ele><time>2026-04-27T13:19:47Z</time></trkpt><trkpt lat="42.10838282459335" lon="1.0284507912499201"><ele>564.0</ele><time>2026-04-27T13:19:48Z</time></trkpt><trkpt lat="42.10833440536124" lon="1.028295214192991"><ele>563.0</ele><time>2026-04-27T13:19:49Z</time></trkpt><trkpt lat="42.10829758290957" lon="1.0281405220277535"><ele>562.0</ele><time>2026-04-27T13:19:50Z</time></trkpt><trkpt lat="42.108266502261365" lon="1.0279783627127719"><ele>561.0</ele><time>2026-04-27T13:19:51Z</time></trkpt><trkpt lat="42.10822810479871" lon="1.0278252498153013"><ele>558.0</ele><time>2026-04-27T13:19:52Z</time></trkpt><trkpt lat="42.108207953040235" lon="1.0276564633055958"><ele>555.0</ele><time>2026-04-27T13:19:53Z</time></trkpt><trkpt lat="42.108185378350775" lon="1.0274912529858902"><ele>552.0</ele><time>2026-04-27T13:19:54Z</time></trkpt><trkpt lat="42.10816765841234" lon="1.0273245329833545"><ele>549.0</ele><time>2026-04-27T13:19:55Z</time></trkpt><trkpt lat="42.10815389781409" lon="1.0271581089798267"><ele>548.25</ele><time>2026-04-27T13:19:56Z</time></trkpt><trkpt lat="42.10814581387043" lon="1.0269905927340206"><ele>547.5</ele><time>2026-04-27T13:19:57Z</time></trkpt><trkpt lat="42.10814497814469" lon="1.0268201151576475"><ele>546.75</ele><time>2026-04-27T13:19:58Z</time></trkpt><trkpt lat="42.10814586997366" lon="1.0266531839050028"><ele>546.0</ele><time>2026-04-27T13:19:59.001Z</time></trkpt><trkpt lat="42.10815166558937" lon="1.0264822161268865"><ele>545.25</ele><time>2026-04-27T13:20:00.001Z</time></trkpt><trkpt lat="42.10816140407436" lon="1.026314464095605"><ele>544.5</ele><time>2026-04-27T13:20:01.001Z</time></trkpt><trkpt lat="42.108177748228805" lon="1.0261470382836833"><ele>543.75</ele><time>2026-04-27T13:20:02.001Z</time></trkpt><trkpt lat="42.10819993481777" lon="1.0259753173776818"><ele>543.0</ele><time>2026-04-27T13:20:03.001Z</time></trkpt><trkpt lat="42.108220425865774" lon="1.0258039537243864"><ele>544.0</ele><time>2026-04-27T13:20:04.001Z</time></trkpt><trkpt lat="42.10825879856563" lon="1.0256394738021748"><ele>545.0</ele><time>2026-04-27T13:20:05.001Z</time></trkpt><trkpt lat="42.108295467457985" lon="1.025483203887746"><ele>546.0</ele><time>2026-04-27T13:20:06.001Z</time></trkpt><trkpt lat="42.108337163676346" lon="1.025324244225045"><ele>547.0</ele><time>2026-04-27T13:20:07.001Z</time></trkpt><trkpt lat="42.10838176683458" lon="1.0251630962803335"><ele>547.0</ele><time>2026-04-27T13:20:08.001Z</time></trkpt><trkpt lat="42.108431502961686" lon="1.0250056172076734"><ele>547.0</ele><time>2026-04-27T13:20:09.001Z</time></trkpt><trkpt lat="42.10848511914423" lon="1.0248578087477014"><ele>547.0</ele><time>2026-04-27T13:20:10.001Z</time></trkpt><trkpt lat="42.10854429217405" lon="1.0247058333708883"><ele>547.0</ele><time>2026-04-27T13:20:11.001Z</time></trkpt><trkpt lat="42.10860657451638" lon="1.0245655245838348"><ele>545.75</ele><time>2026-04-27T13:20:12.001Z</time></trkpt><trkpt lat="42.10867155841947" lon="1.024417626525125"><ele>544.5</ele><time>2026-04-27T13:20:13.001Z</time></trkpt><trkpt lat="42.108741357656534" lon="1.0242817527703072"><ele>543.25</ele><time>2026-04-27T13:20:14.001Z</time></trkpt><trkpt lat="42.10881224956794" lon="1.024141261700926"><ele>542.0</ele><time>2026-04-27T13:20:15.001Z</time></trkpt><trkpt lat="42.10888827625626" lon="1.0240047693161811"><ele>542.0</ele><time>2026-04-27T13:20:16.001Z</time></trkpt><trkpt lat="42.10896534620545" lon="1.0238719864904227"><ele>542.0</ele><time>2026-04-27T13:20:17.001Z</time></trkpt><trkpt lat="42.10904460385149" lon="1.023739015593025"><ele>542.0</ele><time>2026-04-27T13:20:18.001Z</time></trkpt><trkpt lat="42.109126142149876" lon="1.0236087965057712"><ele>542.0</ele><time>2026-04-27T13:20:19.001Z</time></trkpt><trkpt lat="42.10920527301638" lon="1.0234743165361015"><ele>542.0</ele><time>2026-04-27T13:20:20.001Z</time></trkpt><trkpt lat="42.109283488582136" lon="1.023343135832787"><ele>542.0</ele><time>2026-04-27T13:20:21.001Z</time></trkpt><trkpt lat="42.10936326490087" lon="1.0232041491048638"><ele>542.0</ele><time>2026-04-27T13:20:22.001Z</time></trkpt><trkpt lat="42.10944545668466" lon="1.0230730290135426"><ele>542.0</ele><time>2026-04-27T13:20:23.001Z</time></trkpt><trkpt lat="42.109525237468354" lon="1.0229428510009861"><ele>539.75</ele><time>2026-04-27T13:20:24.001Z</time></trkpt><trkpt lat="42.1096039233828" lon="1.0228067971048975"><ele>537.5</ele><time>2026-04-27T13:20:25.001Z</time></trkpt><trkpt lat="42.10968686676855" lon="1.0226720943314431"><ele>535.25</ele><time>2026-04-27T13:20:26.001Z</time></trkpt><trkpt lat="42.10976601713751" lon="1.0225392631512598"><ele>533.0</ele><time>2026-04-27T13:20:27.001Z</time></trkpt><trkpt lat="42.10984652986013" lon="1.0224039076817268"><ele>532.25</ele><time>2026-04-27T13:20:28.001Z</time></trkpt><trkpt lat="42.10992699779923" lon="1.0222700439084074"><ele>531.5</ele><time>2026-04-27T13:20:29.001Z</time></trkpt><trkpt lat="42.11000631930839" lon="1.022139114505658"><ele>530.75</ele><time>2026-04-27T13:20:30.001Z</time></trkpt><trkpt lat="42.110084971092974" lon="1.022001429562993"><ele>530.0</ele><time>2026-04-27T13:20:31.001Z</time></trkpt><trkpt lat="42.11016784479413" lon="1.0218639212021843"><ele>530.0</ele><time>2026-04-27T13:20:32.001Z</time></trkpt><trkpt lat="42.11024684384915" lon="1.0217321616967665"><ele>530.0</ele><time>2026-04-27T13:20:33.001Z</time></trkpt><trkpt lat="42.110324553879536" lon="1.0215954204751574"><ele>530.0</ele><time>2026-04-27T13:20:34.001Z</time></trkpt><trkpt lat="42.11040198005978" lon="1.021457800961609"><ele>530.0</ele><time>2026-04-27T13:20:35.001Z</time></trkpt><trkpt lat="42.1104804377289" lon="1.021326391551273"><ele>528.25</ele><time>2026-04-27T13:20:36.001Z</time></trkpt><trkpt lat="42.11056243105437" lon="1.0211962145748679"><ele>526.5</ele><time>2026-04-27T13:20:37.001Z</time></trkpt><trkpt lat="42.11063850286238" lon="1.0210658696165034"><ele>524.75</ele><time>2026-04-27T13:20:38.002Z</time></trkpt><trkpt lat="42.110714320765254" lon="1.0209303625551818"><ele>523.0</ele><time>2026-04-27T13:20:39.002Z</time></trkpt><trkpt lat="42.11079256292851" lon="1.0208008276410758"><ele>522.75</ele><time>2026-04-27T13:20:40.002Z</time></trkpt><trkpt lat="42.110869290076096" lon="1.0206768859057036"><ele>522.5</ele><time>2026-04-27T13:20:41.002Z</time></trkpt><trkpt lat="42.11095481940301" lon="1.020554091564387"><ele>522.25</ele><time>2026-04-27T13:20:42.002Z</time></trkpt><trkpt lat="42.11103231945899" lon="1.020419925698297"><ele>522.0</ele><time>2026-04-27T13:20:43.002Z</time></trkpt><trkpt lat="42.11110408868406" lon="1.020290061671675"><ele>522.0</ele><time>2026-04-27T13:20:44.002Z</time></trkpt><trkpt lat="42.111179781712046" lon="1.02015902199277"><ele>522.0</ele><time>2026-04-27T13:20:45.002Z</time></trkpt><trkpt lat="42.11125779920039" lon="1.0200345735678094"><ele>522.0</ele><time>2026-04-27T13:20:46.002Z</time></trkpt><trkpt lat="42.111330771987085" lon="1.0199079217855438"><ele>522.0</ele><time>2026-04-27T13:20:47.002Z</time></trkpt><trkpt lat="42.111407505118684" lon="1.0197804209924288"><ele>522.25</ele><time>2026-04-27T13:20:48.002Z</time></trkpt><trkpt lat="42.11148299157078" lon="1.0196534846868175"><ele>522.5</ele><time>2026-04-27T13:20:49.002Z</time></trkpt><trkpt lat="42.11155564479832" lon="1.0195273717373268"><ele>522.75</ele><time>2026-04-27T13:20:50.002Z</time></trkpt><trkpt lat="42.11162813710327" lon="1.0194000394767333"><ele>523.0</ele><time>2026-04-27T13:20:51.002Z</time></trkpt><trkpt lat="42.11170023924645" lon="1.0192741138535917"><ele>524.25</ele><time>2026-04-27T13:20:52.002Z</time></trkpt><trkpt lat="42.11176993788959" lon="1.0191591763384722"><ele>525.5</ele><time>2026-04-27T13:20:53.002Z</time></trkpt><trkpt lat="42.11184455747991" lon="1.019038817084695"><ele>526.75</ele><time>2026-04-27T13:20:54.002Z</time></trkpt><trkpt lat="42.11192326783248" lon="1.0189149975699014"><ele>528.0</ele><time>2026-04-27T13:20:55.002Z</time></trkpt><trkpt lat="42.11199029697685" lon="1.0188043303403456"><ele>528.0</ele><time>2026-04-27T13:20:56.002Z</time></trkpt><trkpt lat="42.112059005686554" lon="1.0186814809179874"><ele>528.0</ele><time>2026-04-27T13:20:57.002Z</time></trkpt><trkpt lat="42.112125100744365" lon="1.0185590472950807"><ele>528.0</ele><time>2026-04-27T13:20:58.002Z</time></trkpt><trkpt lat="42.112192409055915" lon="1.018437605451857"><ele>528.0</ele><time>2026-04-27T13:20:59.002Z</time></trkpt><trkpt lat="42.11225684915237" lon="1.0183159627858849"><ele>527.8</ele><time>2026-04-27T13:21:00.002Z</time></trkpt><trkpt lat="42.11231993071534" lon="1.0181919917772475"><ele>527.5999999999999</ele><time>2026-04-27T13:21:01.002Z</time></trkpt><trkpt lat="42.11238285212251" lon="1.0180673805455749"><ele>527.4000000000001</ele><time>2026-04-27T13:21:02.002Z</time></trkpt><trkpt lat="42.11244034270807" lon="1.0179375449359098"><ele>527.2</ele><time>2026-04-27T13:21:03.002Z</time></trkpt><trkpt lat="42.112494071341764" lon="1.0178057991577043"><ele>527.0</ele><time>2026-04-27T13:21:04.002Z</time></trkpt><trkpt lat="42.11254532754479" lon="1.0176698209710773"><ele>529.25</ele><time>2026-04-27T13:21:05.002Z</time></trkpt><trkpt lat="42.112594023494964" lon="1.0175326585835447"><ele>531.5</ele><time>2026-04-27T13:21:06.002Z</time></trkpt><trkpt lat="42.11263954940401" lon="1.0173957811759995"><ele>533.75</ele><time>2026-04-27T13:21:07.002Z</time></trkpt><trkpt lat="42.11268119579699" lon="1.0172530359743175"><ele>536.0</ele><time>2026-04-27T13:21:08.002Z</time></trkpt><trkpt lat="42.112718246329365" lon="1.017108842906407"><ele>536.25</ele><time>2026-04-27T13:21:09.002Z</time></trkpt><trkpt lat="42.11275023539722" lon="1.0169622088760049"><ele>536.5</ele><time>2026-04-27T13:21:10.002Z</time></trkpt><trkpt lat="42.112783217908095" lon="1.0168044152278366"><ele>536.75</ele><time>2026-04-27T13:21:11.002Z</time></trkpt><trkpt lat="42.112824125541415" lon="1.0166520134518808"><ele>537.0</ele><time>2026-04-27T13:21:12.002Z</time></trkpt><trkpt lat="42.11284719767925" lon="1.0164933835500685"><ele>536.5</ele><time>2026-04-27T13:21:13.002Z</time></trkpt><trkpt lat="42.11287109073515" lon="1.016338130944532"><ele>536.0</ele><time>2026-04-27T13:21:14.002Z</time></trkpt><trkpt lat="42.112899640002695" lon="1.0161813143006955"><ele>535.5</ele><time>2026-04-27T13:21:15.002Z</time></trkpt><trkpt lat="42.11291120835028" lon="1.0160187871428434"><ele>535.0</ele><time>2026-04-27T13:21:16.003Z</time></trkpt><trkpt lat="42.112919941373086" lon="1.015856865540804"><ele>533.75</ele><time>2026-04-27T13:21:17.003Z</time></trkpt><trkpt lat="42.11292798198284" lon="1.0156932841267996"><ele>532.5</ele><time>2026-04-27T13:21:18.003Z</time></trkpt><trkpt lat="42.112933649696906" lon="1.015532903186671"><ele>531.25</ele><time>2026-04-27T13:21:19.003Z</time></trkpt><trkpt lat="42.112935519569916" lon="1.0153651316217205"><ele>530.0</ele><time>2026-04-27T13:21:20.003Z</time></trkpt><trkpt lat="42.11293365809417" lon="1.0152016123323364"><ele>530.0</ele><time>2026-04-27T13:21:21.003Z</time></trkpt><trkpt lat="42.1129338664027" lon="1.0150419545837897"><ele>530.0</ele><time>2026-04-27T13:21:22.003Z</time></trkpt><trkpt lat="42.112930675858074" lon="1.014881961964188"><ele>530.0</ele><time>2026-04-27T13:21:23.003Z</time></trkpt><trkpt lat="42.11293138753927" lon="1.0147209497532597"><ele>530.0</ele><time>2026-04-27T13:21:24.003Z</time></trkpt><trkpt lat="42.112933444689595" lon="1.0145641533878207"><ele>528.75</ele><time>2026-04-27T13:21:25.003Z</time></trkpt><trkpt lat="42.112938058704835" lon="1.0144034536074242"><ele>527.5</ele><time>2026-04-27T13:21:26.003Z</time></trkpt><trkpt lat="42.11294219946498" lon="1.0142404652570263"><ele>526.25</ele><time>2026-04-27T13:21:27.003Z</time></trkpt><trkpt lat="42.11295018877664" lon="1.0140783598819414"><ele>525.0</ele><time>2026-04-27T13:21:28.003Z</time></trkpt><trkpt lat="42.1129569528293" lon="1.013915882470304"><ele>523.75</ele><time>2026-04-27T13:21:29.003Z</time></trkpt><trkpt lat="42.1129675277568" lon="1.0137556714485556"><ele>522.5</ele><time>2026-04-27T13:21:30.003Z</time></trkpt><trkpt lat="42.11298346445452" lon="1.0135924012411766"><ele>521.25</ele><time>2026-04-27T13:21:31.003Z</time></trkpt><trkpt lat="42.113004848045115" lon="1.0134300329227306"><ele>520.0</ele><time>2026-04-27T13:21:32.003Z</time></trkpt><trkpt lat="42.113031484794746" lon="1.0132662830132704"><ele>519.0</ele><time>2026-04-27T13:21:33.003Z</time></trkpt><trkpt lat="42.11305873602463" lon="1.013105140572049"><ele>518.0</ele><time>2026-04-27T13:21:34.003Z</time></trkpt><trkpt lat="42.113092066943565" lon="1.012948513590086"><ele>517.0</ele><time>2026-04-27T13:21:35.003Z</time></trkpt><trkpt lat="42.113126595514984" lon="1.0127950329167363"><ele>516.0</ele><time>2026-04-27T13:21:36.003Z</time></trkpt><trkpt lat="42.113161804505665" lon="1.0126426681361385"><ele>516.0</ele><time>2026-04-27T13:21:37.003Z</time></trkpt><trkpt lat="42.11319524888841" lon="1.0124950703810878"><ele>516.0</ele><time>2026-04-27T13:21:38.003Z</time></trkpt><trkpt lat="42.11323474068614" lon="1.0123468680408836"><ele>516.0</ele><time>2026-04-27T13:21:39.001Z</time></trkpt><trkpt lat="42.11327866315913" lon="1.0121967505739822"><ele>516.0</ele><time>2026-04-27T13:21:40.001Z</time></trkpt><trkpt lat="42.11332096940095" lon="1.0120460723989877"><ele>517.75</ele><time>2026-04-27T13:21:41.001Z</time></trkpt><trkpt lat="42.1133671363352" lon="1.0119056620660487"><ele>519.5</ele><time>2026-04-27T13:21:42.001Z</time></trkpt><trkpt lat="42.113417763876036" lon="1.0117643380469041"><ele>521.25</ele><time>2026-04-27T13:21:43Z</time></trkpt><trkpt lat="42.113474420535596" lon="1.0116214384302755"><ele>523.0</ele><time>2026-04-27T13:21:44.001Z</time></trkpt><trkpt lat="42.11353513173345" lon="1.0114772220351065"><ele>523.5</ele><time>2026-04-27T13:21:45Z</time></trkpt><trkpt lat="42.11358898533628" lon="1.011341513375257"><ele>524.0</ele><time>2026-04-27T13:21:46Z</time></trkpt><trkpt lat="42.113654264322605" lon="1.0112010028133336"><ele>524.5</ele><time>2026-04-27T13:21:47Z</time></trkpt><trkpt lat="42.11370434385229" lon="1.011078665066506"><ele>525.0</ele><time>2026-04-27T13:21:48Z</time></trkpt><trkpt lat="42.11377334093412" lon="1.0109346443142357"><ele>525.0</ele><time>2026-04-27T13:21:49Z</time></trkpt><trkpt lat="42.11384648395609" lon="1.0107922149370883"><ele>525.0</ele><time>2026-04-27T13:21:50Z</time></trkpt><trkpt lat="42.11388253226961" lon="1.0106640078533207"><ele>525.0</ele><time>2026-04-27T13:21:51Z</time></trkpt><trkpt lat="42.11394332423103" lon="1.010530968822964"><ele>525.0</ele><time>2026-04-27T13:21:52Z</time></trkpt><trkpt lat="42.113991083747756" lon="1.010402585465138"><ele>525.0</ele><time>2026-04-27T13:21:53Z</time></trkpt><trkpt lat="42.11405829255948" lon="1.01028970541446"><ele>525.0</ele><time>2026-04-27T13:21:54Z</time></trkpt><trkpt lat="42.114108222831305" lon="1.0101766836770432"><ele>525.0</ele><time>2026-04-27T13:21:55Z</time></trkpt><trkpt lat="42.114172246380875" lon="1.009989287189709"><ele>525.0</ele><time>2026-04-27T13:21:56Z</time></trkpt><trkpt lat="42.11423886557065" lon="1.0098575112450738"><ele>526.25</ele><time>2026-04-27T13:21:57Z</time></trkpt><trkpt lat="42.11429738183328" lon="1.0097125262949485"><ele>527.5</ele><time>2026-04-27T13:21:58Z</time></trkpt><trkpt lat="42.11435919372837" lon="1.0095727096696536"><ele>528.75</ele><time>2026-04-27T13:21:59Z</time></trkpt><trkpt lat="42.11442383314223" lon="1.009433516624409"><ele>530.0</ele><time>2026-04-27T13:22:00Z</time></trkpt><trkpt lat="42.114485016112816" lon="1.0092913224634692"><ele>528.75</ele><time>2026-04-27T13:22:01Z</time></trkpt><trkpt lat="42.114552453079774" lon="1.0091489738984365"><ele>527.5</ele><time>2026-04-27T13:22:02.001Z</time></trkpt><trkpt lat="42.11461535291418" lon="1.0090056477747467"><ele>526.25</ele><time>2026-04-27T13:22:03.001Z</time></trkpt><trkpt lat="42.114676237635386" lon="1.0088626310924618"><ele>525.0</ele><time>2026-04-27T13:22:04.001Z</time></trkpt><trkpt lat="42.114736623625575" lon="1.0087139111330963"><ele>525.0</ele><time>2026-04-27T13:22:05.001Z</time></trkpt><trkpt lat="42.114800480827334" lon="1.008571407742741"><ele>525.0</ele><time>2026-04-27T13:22:06.001Z</time></trkpt><trkpt lat="42.11486318764497" lon="1.0084286446772255"><ele>525.0</ele><time>2026-04-27T13:22:07.001Z</time></trkpt><trkpt lat="42.11492853464757" lon="1.0082856431545417"><ele>525.0</ele><time>2026-04-27T13:22:08.001Z</time></trkpt><trkpt lat="42.11499083056821" lon="1.0081398411172902"><ele>526.0</ele><time>2026-04-27T13:22:09.001Z</time></trkpt><trkpt lat="42.11505319748161" lon="1.00799737485879"><ele>527.0</ele><time>2026-04-27T13:22:10.001Z</time></trkpt><trkpt lat="42.11511755675842" lon="1.0078544140781784"><ele>528.0</ele><time>2026-04-27T13:22:11.001Z</time></trkpt><trkpt lat="42.11517432964652" lon="1.0077079941546054"><ele>529.0</ele><time>2026-04-27T13:22:12.001Z</time></trkpt><trkpt lat="42.115230012942064" lon="1.0075592469121746"><ele>528.5</ele><time>2026-04-27T13:22:13.001Z</time></trkpt><trkpt lat="42.11528715508025" lon="1.0074131100612027"><ele>528.0</ele><time>2026-04-27T13:22:14.001Z</time></trkpt><trkpt lat="42.11534135176616" lon="1.007264030082891"><ele>527.5</ele><time>2026-04-27T13:22:15.001Z</time></trkpt><trkpt lat="42.11539324849895" lon="1.0071161553027657"><ele>527.0</ele><time>2026-04-27T13:22:16.001Z</time></trkpt><trkpt lat="42.11544420761163" lon="1.006966957293859"><ele>527.0</ele><time>2026-04-27T13:22:17.001Z</time></trkpt><trkpt lat="42.11549216533886" lon="1.006818105409769"><ele>527.0</ele><time>2026-04-27T13:22:18.001Z</time></trkpt><trkpt lat="42.115538133957635" lon="1.006664913803066"><ele>527.0</ele><time>2026-04-27T13:22:19.001Z</time></trkpt><trkpt lat="42.11558272057668" lon="1.0065140291910957"><ele>527.0</ele><time>2026-04-27T13:22:20.001Z</time></trkpt><trkpt lat="42.115623715740476" lon="1.0063630689023944"><ele>526.25</ele><time>2026-04-27T13:22:21.001Z</time></trkpt><trkpt lat="42.11566064465275" lon="1.0062078867620277"><ele>525.5</ele><time>2026-04-27T13:22:22.001Z</time></trkpt><trkpt lat="42.11569683307725" lon="1.0060508776333772"><ele>524.75</ele><time>2026-04-27T13:22:23.001Z</time></trkpt><trkpt lat="42.11573669700016" lon="1.0058927206877455"><ele>524.0</ele><time>2026-04-27T13:22:24.001Z</time></trkpt><trkpt lat="42.11577356953357" lon="1.0057326949197218"><ele>526.0</ele><time>2026-04-27T13:22:25.001Z</time></trkpt><trkpt lat="42.115807511095085" lon="1.005570815343601"><ele>528.0</ele><time>2026-04-27T13:22:26.001Z</time></trkpt><trkpt lat="42.11584029596778" lon="1.0054119608495613"><ele>530.0</ele><time>2026-04-27T13:22:27.001Z</time></trkpt><trkpt lat="42.11587333599199" lon="1.0052504693337887"><ele>532.0</ele><time>2026-04-27T13:22:28.001Z</time></trkpt><trkpt lat="42.115912915274556" lon="1.0050903817981969"><ele>531.75</ele><time>2026-04-27T13:22:29.001Z</time></trkpt><trkpt lat="42.115946621697354" lon="1.0049295384431887"><ele>531.5</ele><time>2026-04-27T13:22:30.001Z</time></trkpt><trkpt lat="42.11598454753521" lon="1.0047704700437032"><ele>531.25</ele><time>2026-04-27T13:22:31.001Z</time></trkpt><trkpt lat="42.11601383095546" lon="1.0046112798128328"><ele>531.0</ele><time>2026-04-27T13:22:32.001Z</time></trkpt><trkpt lat="42.11604785552222" lon="1.004452108464578"><ele>531.0</ele><time>2026-04-27T13:22:33.001Z</time></trkpt><trkpt lat="42.11608686852271" lon="1.004288660965051"><ele>531.0</ele><time>2026-04-27T13:22:34.001Z</time></trkpt><trkpt lat="42.11612711426604" lon="1.0041309939140628"><ele>531.0</ele><time>2026-04-27T13:22:35.001Z</time></trkpt><trkpt lat="42.116157976432376" lon="1.0039699322522477"><ele>531.0</ele><time>2026-04-27T13:22:36.001Z</time></trkpt><trkpt lat="42.11619205397307" lon="1.003811069835966"><ele>530.0</ele><time>2026-04-27T13:22:37.001Z</time></trkpt><trkpt lat="42.116229045548785" lon="1.0036487245079915"><ele>529.0</ele><time>2026-04-27T13:22:38.001Z</time></trkpt><trkpt lat="42.11626523429889" lon="1.0034922119585652"><ele>528.0</ele><time>2026-04-27T13:22:39.001Z</time></trkpt><trkpt lat="42.11629867230157" lon="1.0033290812854283"><ele>527.0</ele><time>2026-04-27T13:22:40.001Z</time></trkpt><trkpt lat="42.116338196326254" lon="1.003173718368864"><ele>526.0</ele><time>2026-04-27T13:22:41.001Z</time></trkpt><trkpt lat="42.116373254670194" lon="1.0030167174938145"><ele>525.0</ele><time>2026-04-27T13:22:42.001Z</time></trkpt><trkpt lat="42.11640882006147" lon="1.0028587633464885"><ele>524.0</ele><time>2026-04-27T13:22:43.001Z</time></trkpt><trkpt lat="42.116444539635616" lon="1.002700750744924"><ele>523.0</ele><time>2026-04-27T13:22:44.001Z</time></trkpt><trkpt lat="42.116477180926" lon="1.0025400002768374"><ele>523.5</ele><time>2026-04-27T13:22:45.001Z</time></trkpt><trkpt lat="42.11651405640885" lon="1.0023837181040613"><ele>524.0</ele><time>2026-04-27T13:22:46.001Z</time></trkpt><trkpt lat="42.1165525642492" lon="1.0022223569225415"><ele>524.5</ele><time>2026-04-27T13:22:47.002Z</time></trkpt><trkpt lat="42.11658013161834" lon="1.0020662891745133"><ele>525.0</ele><time>2026-04-27T13:22:48.002Z</time></trkpt><trkpt lat="42.116616600234394" lon="1.0019087850985973"><ele>525.0</ele><time>2026-04-27T13:22:49.002Z</time></trkpt><trkpt lat="42.1166504794709" lon="1.0017480815788902"><ele>525.0</ele><time>2026-04-27T13:22:50.002Z</time></trkpt><trkpt lat="42.11667753865609" lon="1.0015880138649553"><ele>525.0</ele><time>2026-04-27T13:22:51.002Z</time></trkpt><trkpt lat="42.11670437072998" lon="1.0014293448679095"><ele>525.0</ele><time>2026-04-27T13:22:52.002Z</time></trkpt><trkpt lat="42.11673009010608" lon="1.001266686719259"><ele>525.0</ele><time>2026-04-27T13:22:53.002Z</time></trkpt><trkpt lat="42.11674711148126" lon="1.0011037282907285"><ele>525.0</ele><time>2026-04-27T13:22:54.002Z</time></trkpt><trkpt lat="42.11676198299434" lon="1.0009403923663083"><ele>525.0</ele><time>2026-04-27T13:22:55.002Z</time></trkpt><trkpt lat="42.11677189040444" lon="1.0007824784454868"><ele>525.0</ele><time>2026-04-27T13:22:56.002Z</time></trkpt><trkpt lat="42.116777851756645" lon="1.0006244734698246"><ele>526.5</ele><time>2026-04-27T13:22:57.002Z</time></trkpt><trkpt lat="42.11677870736819" lon="1.0004595906904563"><ele>528.0</ele><time>2026-04-27T13:22:58.002Z</time></trkpt><trkpt lat="42.11677273428753" lon="1.0003030118197567"><ele>529.5</ele><time>2026-04-27T13:22:59.002Z</time></trkpt><trkpt lat="42.11676599777919" lon="1.0001438561012348"><ele>531.0</ele><time>2026-04-27T13:23:00.002Z</time></trkpt><trkpt lat="42.11675776665355" lon="0.999984521977934"><ele>531.0</ele><time>2026-04-27T13:23:01.002Z</time></trkpt><trkpt lat="42.11674423584814" lon="0.9998303941611195"><ele>531.0</ele><time>2026-04-27T13:23:02.002Z</time></trkpt><trkpt lat="42.1167353056532" lon="0.9996760671488563"><ele>531.0</ele><time>2026-04-27T13:23:03.002Z</time></trkpt><trkpt lat="42.11672265157327" lon="0.9995319943634331"><ele>531.0</ele><time>2026-04-27T13:23:04.002Z</time></trkpt><trkpt lat="42.11670559197699" lon="0.9993826805065048"><ele>531.0</ele><time>2026-04-27T13:23:05.002Z</time></trkpt><trkpt lat="42.11669247829708" lon="0.9992272797855682"><ele>531.0</ele><time>2026-04-27T13:23:06.002Z</time></trkpt><trkpt lat="42.116681980855205" lon="0.9990778300135638"><ele>531.0</ele><time>2026-04-27T13:23:07.002Z</time></trkpt><trkpt lat="42.11667040850265" lon="0.9989268653779338"><ele>531.0</ele><time>2026-04-27T13:23:08.002Z</time></trkpt><trkpt lat="42.11666360110928" lon="0.9987768573482578"><ele>532.75</ele><time>2026-04-27T13:23:09.002Z</time></trkpt><trkpt lat="42.11666563083955" lon="0.9986243153885029"><ele>534.5</ele><time>2026-04-27T13:23:10.002Z</time></trkpt><trkpt lat="42.11666865281794" lon="0.9984723742030507"><ele>536.25</ele><time>2026-04-27T13:23:11.002Z</time></trkpt><trkpt lat="42.11667353906867" lon="0.9983210109757877"><ele>538.0</ele><time>2026-04-27T13:23:12.002Z</time></trkpt><trkpt lat="42.11668747430562" lon="0.9981692666615758"><ele>539.0</ele><time>2026-04-27T13:23:13.002Z</time></trkpt><trkpt lat="42.1167046808892" lon="0.9980167699958497"><ele>540.0</ele><time>2026-04-27T13:23:14.002Z</time></trkpt><trkpt lat="42.116721532892676" lon="0.9978709772521978"><ele>541.0</ele><time>2026-04-27T13:23:15.002Z</time></trkpt><trkpt lat="42.116740485115955" lon="0.9977215814758985"><ele>542.0</ele><time>2026-04-27T13:23:16.002Z</time></trkpt><trkpt lat="42.116762563731" lon="0.9975740761088502"><ele>543.0</ele><time>2026-04-27T13:23:17.002Z</time></trkpt><trkpt lat="42.11679300237901" lon="0.9974267252975555"><ele>540.8</ele><time>2026-04-27T13:23:18.002Z</time></trkpt><trkpt lat="42.11682792550609" lon="0.997284207554362"><ele>538.5999999999999</ele><time>2026-04-27T13:23:19.002Z</time></trkpt><trkpt lat="42.11686651223252" lon="0.9971434378585353"><ele>536.4000000000001</ele><time>2026-04-27T13:23:20.002Z</time></trkpt><trkpt lat="42.1169079937983" lon="0.9970039220865541"><ele>534.2</ele><time>2026-04-27T13:23:21.002Z</time></trkpt><trkpt lat="42.116952461827275" lon="0.9968715768817904"><ele>532.0</ele><time>2026-04-27T13:23:22.002Z</time></trkpt><trkpt lat="42.1170002771021" lon="0.9967354612386292"><ele>531.6</ele><time>2026-04-27T13:23:23.002Z</time></trkpt><trkpt lat="42.117051937874564" lon="0.9966037673253532"><ele>531.2</ele><time>2026-04-27T13:23:24.002Z</time></trkpt><trkpt lat="42.11710659916284" lon="0.9964756210921396"><ele>530.8</ele><time>2026-04-27T13:23:25.002Z</time></trkpt><trkpt lat="42.11716409660813" lon="0.9963482385257247"><ele>530.4</ele><time>2026-04-27T13:23:26.002Z</time></trkpt><trkpt lat="42.11722336558786" lon="0.9962212290260067"><ele>530.0</ele><time>2026-04-27T13:23:27.003Z</time></trkpt><trkpt lat="42.11728805758367" lon="0.9960974331101431"><ele>530.0</ele><time>2026-04-27T13:23:28.003Z</time></trkpt><trkpt lat="42.11735896973309" lon="0.995984376624945"><ele>530.0</ele><time>2026-04-27T13:23:29.003Z</time></trkpt><trkpt lat="42.117434522821156" lon="0.9958708164297182"><ele>530.0</ele><time>2026-04-27T13:23:30.003Z</time></trkpt><trkpt lat="42.117509854043256" lon="0.9957568516779712"><ele>530.0</ele><time>2026-04-27T13:23:31.003Z</time></trkpt><trkpt lat="42.117588246604406" lon="0.9956466557677496"><ele>530.0</ele><time>2026-04-27T13:23:32.003Z</time></trkpt><trkpt lat="42.11766884352882" lon="0.9955426840795277"><ele>533.25</ele><time>2026-04-27T13:23:33.003Z</time></trkpt><trkpt lat="42.11775266058127" lon="0.9954399071475927"><ele>536.5</ele><time>2026-04-27T13:23:34.003Z</time></trkpt><trkpt lat="42.11784021585516" lon="0.9953414298371069"><ele>539.75</ele><time>2026-04-27T13:23:35.003Z</time></trkpt><trkpt lat="42.117931494870255" lon="0.9952460161803525"><ele>543.0</ele><time>2026-04-27T13:23:36.003Z</time></trkpt><trkpt lat="42.11802500993813" lon="0.9951590673708375"><ele>543.0</ele><time>2026-04-27T13:23:37.003Z</time></trkpt><trkpt lat="42.11813558744571" lon="0.9950668431130387"><ele>543.0</ele><time>2026-04-27T13:23:38.003Z</time></trkpt><trkpt lat="42.118223257868635" lon="0.9949891785824567"><ele>543.0</ele><time>2026-04-27T13:23:39.003Z</time></trkpt><trkpt lat="42.11832739537289" lon="0.994913229889931"><ele>543.0</ele><time>2026-04-27T13:23:40.003Z</time></trkpt><trkpt lat="42.11843226886618" lon="0.9948377696147768"><ele>543.0</ele><time>2026-04-27T13:23:41.003Z</time></trkpt><trkpt lat="42.11854158334985" lon="0.9947674071982194"><ele>543.0</ele><time>2026-04-27T13:23:42.003Z</time></trkpt><trkpt lat="42.11865137131111" lon="0.9947099792310631"><ele>543.0</ele><time>2026-04-27T13:23:43.003Z</time></trkpt><trkpt lat="42.1187616582868" lon="0.9946540263107981"><ele>543.0</ele><time>2026-04-27T13:23:44.003Z</time></trkpt><trkpt lat="42.118876671366074" lon="0.9946062648518813"><ele>543.0</ele><time>2026-04-27T13:23:45Z</time></trkpt><trkpt lat="42.11898860838433" lon="0.9945611157076233"><ele>543.0</ele><time>2026-04-27T13:23:46Z</time></trkpt><trkpt lat="42.11910362918367" lon="0.994518746049435"><ele>543.0</ele><time>2026-04-27T13:23:47Z</time></trkpt><trkpt lat="42.11921871092124" lon="0.9944895773090799"><ele>543.0</ele><time>2026-04-27T13:23:48Z</time></trkpt><trkpt lat="42.11933757857137" lon="0.9944642355638443"><ele>546.25</ele><time>2026-04-27T13:23:49Z</time></trkpt><trkpt lat="42.119457629717225" lon="0.9944438733408291"><ele>549.5</ele><time>2026-04-27T13:23:50Z</time></trkpt><trkpt lat="42.11957759293946" lon="0.9944335245848105"><ele>552.75</ele><time>2026-04-27T13:23:51Z</time></trkpt><trkpt lat="42.119699036976726" lon="0.99442310906502"><ele>556.0</ele><time>2026-04-27T13:23:52Z</time></trkpt><trkpt lat="42.119819957660646" lon="0.994415696962686"><ele>554.25</ele><time>2026-04-27T13:23:53Z</time></trkpt><trkpt lat="42.119938894850414" lon="0.9944110621650658"><ele>552.5</ele><time>2026-04-27T13:23:54Z</time></trkpt><trkpt lat="42.120060190193335" lon="0.9944103609370527"><ele>550.75</ele><time>2026-04-27T13:23:55Z</time></trkpt><trkpt lat="42.120179202755175" lon="0.9944089397280157"><ele>549.0</ele><time>2026-04-27T13:23:56Z</time></trkpt><trkpt lat="42.12029830344007" lon="0.9944074948050353"><ele>549.0</ele><time>2026-04-27T13:23:57Z</time></trkpt><trkpt lat="42.12041692183152" lon="0.9944046920076431"><ele>549.0</ele><time>2026-04-27T13:23:58Z</time></trkpt><trkpt lat="42.12053724959226" lon="0.9943974897702107"><ele>549.0</ele><time>2026-04-27T13:23:59Z</time></trkpt><trkpt lat="42.12065708400808" lon="0.994386002537067"><ele>549.0</ele><time>2026-04-27T13:24:00Z</time></trkpt><trkpt lat="42.12077832714866" lon="0.9943703019860063"><ele>548.5</ele><time>2026-04-27T13:24:01Z</time></trkpt><trkpt lat="42.12089963713819" lon="0.9943422497354374"><ele>548.0</ele><time>2026-04-27T13:24:02Z</time></trkpt><trkpt lat="42.12101801216122" lon="0.9943135601258024"><ele>547.5</ele><time>2026-04-27T13:24:03Z</time></trkpt><trkpt lat="42.1211339337642" lon="0.9942781260501211"><ele>547.0</ele><time>2026-04-27T13:24:04Z</time></trkpt><trkpt lat="42.12125296439478" lon="0.9942357145056008"><ele>547.0</ele><time>2026-04-27T13:24:05Z</time></trkpt><trkpt lat="42.1213667930814" lon="0.9941880511398835"><ele>547.0</ele><time>2026-04-27T13:24:06Z</time></trkpt><trkpt lat="42.121478974778015" lon="0.9941301474564648"><ele>547.0</ele><time>2026-04-27T13:24:07Z</time></trkpt><trkpt lat="42.12158791525013" lon="0.9940634991277962"><ele>547.0</ele><time>2026-04-27T13:24:08Z</time></trkpt><trkpt lat="42.12169323989072" lon="0.9939943562886853"><ele>544.25</ele><time>2026-04-27T13:24:09Z</time></trkpt><trkpt lat="42.1218022003382" lon="0.9939182692061374"><ele>541.5</ele><time>2026-04-27T13:24:10Z</time></trkpt><trkpt lat="42.12190625954746" lon="0.9938404038308379"><ele>538.75</ele><time>2026-04-27T13:24:11Z</time></trkpt><trkpt lat="42.12201116128929" lon="0.9937558166655655"><ele>536.0</ele><time>2026-04-27T13:24:12Z</time></trkpt><trkpt lat="42.12211462307935" lon="0.993669595356933"><ele>536.0</ele><time>2026-04-27T13:24:13Z</time></trkpt><trkpt lat="42.12221491228353" lon="0.9935855127076099"><ele>536.0</ele><time>2026-04-27T13:24:14Z</time></trkpt><trkpt lat="42.12231457264274" lon="0.993492174388926"><ele>536.0</ele><time>2026-04-27T13:24:15Z</time></trkpt><trkpt lat="42.12241353659789" lon="0.9934040493125166"><ele>536.0</ele><time>2026-04-27T13:24:16Z</time></trkpt><trkpt lat="42.12251466104521" lon="0.9933182467914493"><ele>535.5</ele><time>2026-04-27T13:24:17Z</time></trkpt><trkpt lat="42.12261581673072" lon="0.9932317197792839"><ele>535.0</ele><time>2026-04-27T13:24:18Z</time></trkpt><trkpt lat="42.12271865855254" lon="0.9931455766934404"><ele>534.5</ele><time>2026-04-27T13:24:19Z</time></trkpt><trkpt lat="42.12281863053274" lon="0.9930567077324137"><ele>534.0</ele><time>2026-04-27T13:24:20.001Z</time></trkpt><trkpt lat="42.12292015535752" lon="0.9929640888136865"><ele>534.0</ele><time>2026-04-27T13:24:21.001Z</time></trkpt><trkpt lat="42.12302015346787" lon="0.9928774739069368"><ele>534.0</ele><time>2026-04-27T13:24:22.001Z</time></trkpt><trkpt lat="42.123120199504534" lon="0.992790408162647"><ele>534.0</ele><time>2026-04-27T13:24:23.001Z</time></trkpt><trkpt lat="42.12322072259664" lon="0.9927047007750802"><ele>534.0</ele><time>2026-04-27T13:24:24.001Z</time></trkpt><trkpt lat="42.12332198411003" lon="0.9926205395024698"><ele>534.75</ele><time>2026-04-27T13:24:25.001Z</time></trkpt><trkpt lat="42.123424113971986" lon="0.9925306857334291"><ele>535.5</ele><time>2026-04-27T13:24:26.001Z</time></trkpt><trkpt lat="42.123524456447186" lon="0.9924445399154721"><ele>536.25</ele><time>2026-04-27T13:24:27.001Z</time></trkpt><trkpt lat="42.12362394155553" lon="0.9923536259522543"><ele>537.0</ele><time>2026-04-27T13:24:28.001Z</time></trkpt><trkpt lat="42.12372105787386" lon="0.9922658113929084"><ele>537.5</ele><time>2026-04-27T13:24:29.001Z</time></trkpt><trkpt lat="42.123815336678604" lon="0.9921834767922065"><ele>538.0</ele><time>2026-04-27T13:24:30.001Z</time></trkpt><trkpt lat="42.12389031644078" lon="0.9921072512747662"><ele>538.5</ele><time>2026-04-27T13:24:31.001Z</time></trkpt><trkpt lat="42.12394505051066" lon="0.9920478953808487"><ele>539.0</ele><time>2026-04-27T13:24:32.001Z</time></trkpt><trkpt lat="42.12411832959665" lon="0.9919286769212162"><ele>539.0</ele><time>2026-04-27T13:24:33.001Z</time></trkpt><trkpt lat="42.12421985617579" lon="0.9918449223461249"><ele>539.0</ele><time>2026-04-27T13:24:34.001Z</time></trkpt><trkpt lat="42.12432434881254" lon="0.9917644165259663"><ele>539.0</ele><time>2026-04-27T13:24:35.001Z</time></trkpt><trkpt lat="42.12443123729767" lon="0.9916858613444341"><ele>539.0</ele><time>2026-04-27T13:24:36.001Z</time></trkpt><trkpt lat="42.124539358499206" lon="0.9916137828899401"><ele>538.25</ele><time>2026-04-27T13:24:37.001Z</time></trkpt><trkpt lat="42.12465219604138" lon="0.9915543869865308"><ele>537.5</ele><time>2026-04-27T13:24:38.001Z</time></trkpt><trkpt lat="42.12476388138382" lon="0.9914998922251489"><ele>536.75</ele><time>2026-04-27T13:24:39.001Z</time></trkpt><trkpt lat="42.12487912140463" lon="0.9914559737400116"><ele>536.0</ele><time>2026-04-27T13:24:40.001Z</time></trkpt><trkpt lat="42.1249995834957" lon="0.9914180713531967"><ele>536.0</ele><time>2026-04-27T13:24:41.001Z</time></trkpt><trkpt lat="42.125120193605284" lon="0.991389038727407"><ele>536.0</ele><time>2026-04-27T13:24:42.001Z</time></trkpt><trkpt lat="42.12523757887725" lon="0.9913629045752546"><ele>536.0</ele><time>2026-04-27T13:24:43.001Z</time></trkpt><trkpt lat="42.125360031212374" lon="0.9913457201721356"><ele>536.0</ele><time>2026-04-27T13:24:44.001Z</time></trkpt><trkpt lat="42.12547853666206" lon="0.9913363981287445"><ele>536.0</ele><time>2026-04-27T13:24:45.001Z</time></trkpt><trkpt lat="42.12560150448256" lon="0.9913325880105586"><ele>536.0</ele><time>2026-04-27T13:24:46.001Z</time></trkpt><trkpt lat="42.12572347125807" lon="0.9913369325059207"><ele>536.0</ele><time>2026-04-27T13:24:47.001Z</time></trkpt><trkpt lat="42.12584412214445" lon="0.991344367220147"><ele>536.0</ele><time>2026-04-27T13:24:48.001Z</time></trkpt><trkpt lat="42.12596616124553" lon="0.9913544824706405"><ele>534.5</ele><time>2026-04-27T13:24:49.001Z</time></trkpt><trkpt lat="42.126084498018514" lon="0.9913740149635378"><ele>533.0</ele><time>2026-04-27T13:24:50.001Z</time></trkpt><trkpt lat="42.12620183089564" lon="0.9913947156776156"><ele>531.5</ele><time>2026-04-27T13:24:51.001Z</time></trkpt><trkpt lat="42.12631964100328" lon="0.991415716144601"><ele>530.0</ele><time>2026-04-27T13:24:52.001Z</time></trkpt><trkpt lat="42.1264389343354" lon="0.9914404720790847"><ele>530.0</ele><time>2026-04-27T13:24:53.001Z</time></trkpt><trkpt lat="42.12655753977681" lon="0.9914580146926407"><ele>530.0</ele><time>2026-04-27T13:24:54.001Z</time></trkpt><trkpt lat="42.126678933753276" lon="0.9914777350213289"><ele>530.0</ele><time>2026-04-27T13:24:55.001Z</time></trkpt><trkpt lat="42.12679876712346" lon="0.9914897520044161"><ele>530.0</ele><time>2026-04-27T13:24:56.001Z</time></trkpt><trkpt lat="42.12691826641498" lon="0.9914998528670657"><ele>528.25</ele><time>2026-04-27T13:24:57.001Z</time></trkpt><trkpt lat="42.12704131361178" lon="0.9914996409737143"><ele>526.5</ele><time>2026-04-27T13:24:58.001Z</time></trkpt><trkpt lat="42.12716235175443" lon="0.991489752409749"><ele>524.75</ele><time>2026-04-27T13:24:59.001Z</time></trkpt><trkpt lat="42.12728228712759" lon="0.991473864440103"><ele>523.0</ele><time>2026-04-27T13:25:00.002Z</time></trkpt><trkpt lat="42.12740030764587" lon="0.9914506633209689"><ele>521.75</ele><time>2026-04-27T13:25:01.002Z</time></trkpt><trkpt lat="42.12752041834043" lon="0.9914217085877896"><ele>520.5</ele><time>2026-04-27T13:25:02.002Z</time></trkpt><trkpt lat="42.12763642096015" lon="0.9913858147348515"><ele>519.25</ele><time>2026-04-27T13:25:03.002Z</time></trkpt><trkpt lat="42.127750541679504" lon="0.9913400235108345"><ele>518.0</ele><time>2026-04-27T13:25:04.002Z</time></trkpt><trkpt lat="42.127861802720986" lon="0.991289495116979"><ele>518.0</ele><time>2026-04-27T13:25:05.002Z</time></trkpt><trkpt lat="42.1279724444702" lon="0.9912306900983148"><ele>518.0</ele><time>2026-04-27T13:25:06.002Z</time></trkpt><trkpt lat="42.128084391311994" lon="0.991165331183569"><ele>518.0</ele><time>2026-04-27T13:25:07.002Z</time></trkpt><trkpt lat="42.12819070468682" lon="0.9911028972519073"><ele>518.0</ele><time>2026-04-27T13:25:08.002Z</time></trkpt><trkpt lat="42.12829705539258" lon="0.9910270334176398"><ele>518.5</ele><time>2026-04-27T13:25:09.002Z</time></trkpt><trkpt lat="42.12839941400268" lon="0.9909459756661154"><ele>519.0</ele><time>2026-04-27T13:25:10.002Z</time></trkpt><trkpt lat="42.128495280922046" lon="0.9908606036489409"><ele>519.5</ele><time>2026-04-27T13:25:11.002Z</time></trkpt><trkpt lat="42.128602856211515" lon="0.9907573838436535"><ele>520.0</ele><time>2026-04-27T13:25:12.002Z</time></trkpt><trkpt lat="42.12876181001737" lon="0.9906453218182247"><ele>519.75</ele><time>2026-04-27T13:25:13.002Z</time></trkpt><trkpt lat="42.12893507082218" lon="0.9905096745252219"><ele>519.5</ele><time>2026-04-27T13:25:14.002Z</time></trkpt><trkpt lat="42.12896940256195" lon="0.9903902452004915"><ele>519.25</ele><time>2026-04-27T13:25:16.002Z</time></trkpt><trkpt lat="42.129057643861394" lon="0.9902917924492161"><ele>519.0</ele><time>2026-04-27T13:25:17.002Z</time></trkpt><trkpt lat="42.12914908711488" lon="0.9901948429313174"><ele>519.0</ele><time>2026-04-27T13:25:18.002Z</time></trkpt><trkpt lat="42.129236227795" lon="0.9901044638939234"><ele>519.0</ele><time>2026-04-27T13:25:19.002Z</time></trkpt><trkpt lat="42.12932441408908" lon="0.9900111738547288"><ele>519.0</ele><time>2026-04-27T13:25:20.002Z</time></trkpt><trkpt lat="42.12940914136936" lon="0.9899215867618989"><ele>519.0</ele><time>2026-04-27T13:25:21.002Z</time></trkpt><trkpt lat="42.129494200057906" lon="0.9898292194087586"><ele>519.0</ele><time>2026-04-27T13:25:22.002Z</time></trkpt><trkpt lat="42.129579793344334" lon="0.9897374949849354"><ele>519.2</ele><time>2026-04-27T13:25:23.002Z</time></trkpt><trkpt lat="42.12966703456742" lon="0.9896452058506998"><ele>519.4</ele><time>2026-04-27T13:25:24.002Z</time></trkpt><trkpt lat="42.129750196756255" lon="0.9895545742913809"><ele>519.6</ele><time>2026-04-27T13:25:25.002Z</time></trkpt><trkpt lat="42.12983439126034" lon="0.9894610793269141"><ele>519.8</ele><time>2026-04-27T13:25:26.002Z</time></trkpt><trkpt lat="42.129920468810795" lon="0.9893706551438335"><ele>520.0</ele><time>2026-04-27T13:25:27.002Z</time></trkpt><trkpt lat="42.13000367373383" lon="0.9892816383789754"><ele>520.0</ele><time>2026-04-27T13:25:28.002Z</time></trkpt><trkpt lat="42.13008583332261" lon="0.9891914778808805"><ele>520.0</ele><time>2026-04-27T13:25:29.002Z</time></trkpt><trkpt lat="42.130168360621084" lon="0.9891019685705824"><ele>520.0</ele><time>2026-04-27T13:25:30.002Z</time></trkpt><trkpt lat="42.13025144303394" lon="0.9890153951799092"><ele>520.0</ele><time>2026-04-27T13:25:31.002Z</time></trkpt><trkpt lat="42.13033437593997" lon="0.9889272729520306"><ele>520.0</ele><time>2026-04-27T13:25:32.002Z</time></trkpt><trkpt lat="42.13041797582065" lon="0.9888391143834043"><ele>519.8</ele><time>2026-04-27T13:25:33.002Z</time></trkpt><trkpt lat="42.13050280657901" lon="0.9887515519614827"><ele>519.6</ele><time>2026-04-27T13:25:34.002Z</time></trkpt><trkpt lat="42.13058845167317" lon="0.9886620983031239"><ele>519.4</ele><time>2026-04-27T13:25:35.002Z</time></trkpt><trkpt lat="42.130671637305156" lon="0.9885731143690444"><ele>519.2</ele><time>2026-04-27T13:25:36.002Z</time></trkpt><trkpt lat="42.13075320458564" lon="0.9884798590732996"><ele>519.0</ele><time>2026-04-27T13:25:37.002Z</time></trkpt><trkpt lat="42.13083694518289" lon="0.9883877940499248"><ele>520.8</ele><time>2026-04-27T13:25:38.002Z</time></trkpt><trkpt lat="42.13091811141797" lon="0.9882953271522525"><ele>522.5999999999999</ele><time>2026-04-27T13:25:39.002Z</time></trkpt><trkpt lat="42.131001708852736" lon="0.9882014724610367"><ele>524.4</ele><time>2026-04-27T13:25:40.003Z</time></trkpt><trkpt lat="42.131079365335275" lon="0.9881094262509429"><ele>526.1999999999999</ele><time>2026-04-27T13:25:41.003Z</time></trkpt><trkpt lat="42.131158284652535" lon="0.9880119783411401"><ele>528.0</ele><time>2026-04-27T13:25:42.003Z</time></trkpt><trkpt lat="42.131235112636034" lon="0.987913352204194"><ele>528.0</ele><time>2026-04-27T13:25:43.003Z</time></trkpt><trkpt lat="42.13131230114936" lon="0.98781039473179"><ele>528.0</ele><time>2026-04-27T13:25:44.003Z</time></trkpt><trkpt lat="42.131384102832335" lon="0.987704479278821"><ele>528.0</ele><time>2026-04-27T13:25:45.003Z</time></trkpt><trkpt lat="42.13145493745304" lon="0.987590944121469"><ele>528.0</ele><time>2026-04-27T13:25:46.003Z</time></trkpt><trkpt lat="42.13152212293775" lon="0.9874758539190942"><ele>528.0</ele><time>2026-04-27T13:25:47.003Z</time></trkpt><trkpt lat="42.131590784371475" lon="0.9873575162600142"><ele>528.25</ele><time>2026-04-27T13:25:48.003Z</time></trkpt><trkpt lat="42.131657333909516" lon="0.9872368688367615"><ele>528.5</ele><time>2026-04-27T13:25:49.003Z</time></trkpt><trkpt lat="42.13172345642347" lon="0.9871180349787182"><ele>528.75</ele><time>2026-04-27T13:25:50.003Z</time></trkpt><trkpt lat="42.131785384698944" lon="0.986984115074109"><ele>529.0</ele><time>2026-04-27T13:25:51Z</time></trkpt><trkpt lat="42.1318431604112" lon="0.9868512777613238"><ele>529.0</ele><time>2026-04-27T13:25:52Z</time></trkpt><trkpt lat="42.1318984265784" lon="0.9867170328028554"><ele>529.0</ele><time>2026-04-27T13:25:53Z</time></trkpt><trkpt lat="42.13194918489711" lon="0.9865819737714983"><ele>529.0</ele><time>2026-04-27T13:25:54Z</time></trkpt><trkpt lat="42.13199827644639" lon="0.9864409976271908"><ele>529.0</ele><time>2026-04-27T13:25:55Z</time></trkpt><trkpt lat="42.13204437316923" lon="0.9862975208205177"><ele>529.0</ele><time>2026-04-27T13:25:56Z</time></trkpt><trkpt lat="42.132088112949724" lon="0.9861493050287929"><ele>529.0</ele><time>2026-04-27T13:25:57Z</time></trkpt><trkpt lat="42.132132197137004" lon="0.9859891537129075"><ele>529.0</ele><time>2026-04-27T13:25:58Z</time></trkpt><trkpt lat="42.13222208929287" lon="0.9858291277754162"><ele>529.0</ele><time>2026-04-27T13:25:59Z</time></trkpt><trkpt lat="42.1321908234249" lon="0.985696466348549"><ele>529.0</ele><time>2026-04-27T13:26:00Z</time></trkpt><trkpt lat="42.13221777479925" lon="0.9855366083544833"><ele>529.0</ele><time>2026-04-27T13:26:01Z</time></trkpt><trkpt lat="42.13224438877308" lon="0.9853784043694177"><ele>529.0</ele><time>2026-04-27T13:26:02Z</time></trkpt><trkpt lat="42.132270013813404" lon="0.9852199561142373"><ele>529.0</ele><time>2026-04-27T13:26:03Z</time></trkpt><trkpt lat="42.132292107538014" lon="0.9850618637030003"><ele>529.0</ele><time>2026-04-27T13:26:04Z</time></trkpt><trkpt lat="42.132312820146" lon="0.9849006764272258"><ele>529.0</ele><time>2026-04-27T13:26:05Z</time></trkpt><trkpt lat="42.13233114235811" lon="0.9847432620421956"><ele>529.0</ele><time>2026-04-27T13:26:06Z</time></trkpt><trkpt lat="42.132351319683885" lon="0.9845852418206749"><ele>529.0</ele><time>2026-04-27T13:26:07Z</time></trkpt><trkpt lat="42.13237086297775" lon="0.9844254665474209"><ele>528.75</ele><time>2026-04-27T13:26:08Z</time></trkpt><trkpt lat="42.13239123337168" lon="0.9842664472412233"><ele>528.5</ele><time>2026-04-27T13:26:09Z</time></trkpt><trkpt lat="42.13240775039224" lon="0.9841078264478215"><ele>528.25</ele><time>2026-04-27T13:26:10Z</time></trkpt><trkpt lat="42.1324228874938" lon="0.9839525099215211"><ele>528.0</ele><time>2026-04-27T13:26:11Z</time></trkpt><trkpt lat="42.13244515685665" lon="0.9837989585421398"><ele>528.0</ele><time>2026-04-27T13:26:12Z</time></trkpt><trkpt lat="42.13246179684225" lon="0.9836418261266033"><ele>528.0</ele><time>2026-04-27T13:26:13Z</time></trkpt><trkpt lat="42.13247958362498" lon="0.9834802855040351"><ele>528.0</ele><time>2026-04-27T13:26:14Z</time></trkpt><trkpt lat="42.13249610470785" lon="0.983321690594461"><ele>528.0</ele><time>2026-04-27T13:26:15Z</time></trkpt><trkpt lat="42.13250954386516" lon="0.9831639842222344"><ele>527.75</ele><time>2026-04-27T13:26:16Z</time></trkpt><trkpt lat="42.1325267607287" lon="0.9830058909206439"><ele>527.5</ele><time>2026-04-27T13:26:17Z</time></trkpt><trkpt lat="42.13254246883962" lon="0.9828476959655386"><ele>527.25</ele><time>2026-04-27T13:26:18Z</time></trkpt><trkpt lat="42.13255898193323" lon="0.9826915921282019"><ele>527.0</ele><time>2026-04-27T13:26:19Z</time></trkpt><trkpt lat="42.13257658577761" lon="0.9825329637488792"><ele>527.25</ele><time>2026-04-27T13:26:20Z</time></trkpt><trkpt lat="42.132589113978824" lon="0.9823762755700612"><ele>527.5</ele><time>2026-04-27T13:26:21Z</time></trkpt><trkpt lat="42.13260395661081" lon="0.9822185675910834"><ele>527.75</ele><time>2026-04-27T13:26:22Z</time></trkpt><trkpt lat="42.132615791791636" lon="0.9820594956061076"><ele>528.0</ele><time>2026-04-27T13:26:23Z</time></trkpt><trkpt lat="42.13263753700426" lon="0.9819035495415642"><ele>528.0</ele><time>2026-04-27T13:26:24Z</time></trkpt><trkpt lat="42.132629212242456" lon="0.9817411358927018"><ele>528.0</ele><time>2026-04-27T13:26:25Z</time></trkpt><trkpt lat="42.13263125409852" lon="0.9815856445608203"><ele>528.0</ele><time>2026-04-27T13:26:26Z</time></trkpt><trkpt lat="42.13262790341712" lon="0.9814280059508335"><ele>528.0</ele><time>2026-04-27T13:26:27Z</time></trkpt><trkpt lat="42.132619602245335" lon="0.9812693052481017"><ele>528.25</ele><time>2026-04-27T13:26:28Z</time></trkpt><trkpt lat="42.13260278934204" lon="0.9811159811266125"><ele>528.5</ele><time>2026-04-27T13:26:29Z</time></trkpt><trkpt lat="42.132587250216574" lon="0.9809666639835871"><ele>528.75</ele><time>2026-04-27T13:26:30.001Z</time></trkpt><trkpt lat="42.132568202426434" lon="0.9807992219885449"><ele>529.0</ele><time>2026-04-27T13:26:31.001Z</time></trkpt><trkpt lat="42.13256472917988" lon="0.980660403753873"><ele>529.0</ele><time>2026-04-27T13:26:32.001Z</time></trkpt><trkpt lat="42.13254159566831" lon="0.9805028322099418"><ele>529.0</ele><time>2026-04-27T13:26:33.001Z</time></trkpt><trkpt lat="42.13252597962243" lon="0.9803457837548601"><ele>529.0</ele><time>2026-04-27T13:26:34.001Z</time></trkpt><trkpt lat="42.13250397842468" lon="0.9801873661759664"><ele>529.0</ele><time>2026-04-27T13:26:35.001Z</time></trkpt><trkpt lat="42.132504697942835" lon="0.9800318537759629"><ele>529.25</ele><time>2026-04-27T13:26:36.001Z</time></trkpt><trkpt lat="42.13248304210132" lon="0.9798930745645397"><ele>529.5</ele><time>2026-04-27T13:26:37.001Z</time></trkpt><trkpt lat="42.13248159776431" lon="0.9797879582724458"><ele>529.75</ele><time>2026-04-27T13:26:38.001Z</time></trkpt><trkpt lat="42.13246925519184" lon="0.979660948519008"><ele>530.0</ele><time>2026-04-27T13:26:39.001Z</time></trkpt><trkpt lat="42.1324400358531" lon="0.9794159895812549"><ele>530.0</ele><time>2026-04-27T13:26:40.001Z</time></trkpt><trkpt lat="42.13242610987961" lon="0.9792516223000179"><ele>530.0</ele><time>2026-04-27T13:26:41.001Z</time></trkpt><trkpt lat="42.13241333668559" lon="0.9790928683242272"><ele>530.0</ele><time>2026-04-27T13:26:42.001Z</time></trkpt><trkpt lat="42.13239808987234" lon="0.9789541881458196"><ele>530.0</ele><time>2026-04-27T13:26:43.001Z</time></trkpt><trkpt lat="42.13238160560484" lon="0.9788358686561404"><ele>530.0</ele><time>2026-04-27T13:26:44.001Z</time></trkpt><trkpt lat="42.132359082354014" lon="0.9786372833239723"><ele>535.0</ele><time>2026-04-27T13:26:45.001Z</time></trkpt><trkpt lat="42.13234868802196" lon="0.9784815865183315"><ele>540.0</ele><time>2026-04-27T13:26:46.001Z</time></trkpt><trkpt lat="42.13233155098122" lon="0.9783221840260603"><ele>545.0</ele><time>2026-04-27T13:26:47.001Z</time></trkpt><trkpt lat="42.13231525241938" lon="0.978164440985104"><ele>550.0</ele><time>2026-04-27T13:26:48.001Z</time></trkpt><trkpt lat="42.132299542125466" lon="0.9780078232535361"><ele>550.0</ele><time>2026-04-27T13:26:49.001Z</time></trkpt><trkpt lat="42.1322823493585" lon="0.9778500974740381"><ele>550.0</ele><time>2026-04-27T13:26:50.001Z</time></trkpt><trkpt lat="42.13226470586962" lon="0.9776952242444669"><ele>550.0</ele><time>2026-04-27T13:26:51.001Z</time></trkpt><trkpt lat="42.13224968299048" lon="0.9775357520765429"><ele>550.0</ele><time>2026-04-27T13:26:52.001Z</time></trkpt><trkpt lat="42.132233200881615" lon="0.9773785956545032"><ele>547.5</ele><time>2026-04-27T13:26:53.001Z</time></trkpt><trkpt lat="42.13221793337339" lon="0.9772248590235112"><ele>545.0</ele><time>2026-04-27T13:26:54.001Z</time></trkpt><trkpt lat="42.132201821229486" lon="0.9770650265735108"><ele>542.5</ele><time>2026-04-27T13:26:55.001Z</time></trkpt><trkpt lat="42.13218377250504" lon="0.9769099302076841"><ele>540.0</ele><time>2026-04-27T13:26:56.001Z</time></trkpt><trkpt lat="42.13216841108566" lon="0.9767539489410131"><ele>537.75</ele><time>2026-04-27T13:26:57.001Z</time></trkpt><trkpt lat="42.13215133667183" lon="0.9766037523253978"><ele>535.5</ele><time>2026-04-27T13:26:58.001Z</time></trkpt><trkpt lat="42.132139750872284" lon="0.9764533516272357"><ele>533.25</ele><time>2026-04-27T13:26:59.001Z</time></trkpt><trkpt lat="42.13212172400613" lon="0.9762963710593298"><ele>531.0</ele><time>2026-04-27T13:27:00.001Z</time></trkpt><trkpt lat="42.13210895067805" lon="0.9761346774180784"><ele>531.0</ele><time>2026-04-27T13:27:01.001Z</time></trkpt><trkpt lat="42.13209213634625" lon="0.9759720116657301"><ele>531.0</ele><time>2026-04-27T13:27:02.001Z</time></trkpt><trkpt lat="42.13207344568981" lon="0.9758054837743426"><ele>531.0</ele><time>2026-04-27T13:27:03.001Z</time></trkpt><trkpt lat="42.132055003116506" lon="0.975641439573007"><ele>531.0</ele><time>2026-04-27T13:27:04.001Z</time></trkpt><trkpt lat="42.13204093351772" lon="0.9754791702741054"><ele>530.0</ele><time>2026-04-27T13:27:05.001Z</time></trkpt><trkpt lat="42.13202019146521" lon="0.9753167530628064"><ele>529.0</ele><time>2026-04-27T13:27:06.001Z</time></trkpt><trkpt lat="42.13200024897172" lon="0.9751579753335713"><ele>528.0</ele><time>2026-04-27T13:27:07.001Z</time></trkpt><trkpt lat="42.13198609309586" lon="0.974995441936181"><ele>527.0</ele><time>2026-04-27T13:27:08.002Z</time></trkpt><trkpt lat="42.131971922479025" lon="0.9748325415911888"><ele>525.25</ele><time>2026-04-27T13:27:09.002Z</time></trkpt><trkpt lat="42.13195564244837" lon="0.9746738988850636"><ele>523.5</ele><time>2026-04-27T13:27:10.002Z</time></trkpt><trkpt lat="42.131939785958515" lon="0.974515596085482"><ele>521.75</ele><time>2026-04-27T13:27:11.002Z</time></trkpt><trkpt lat="42.13192097521331" lon="0.9743584477568189"><ele>520.0</ele><time>2026-04-27T13:27:12.002Z</time></trkpt><trkpt lat="42.1319020472974" lon="0.9742015782151648"><ele>519.0</ele><time>2026-04-27T13:27:13.002Z</time></trkpt><trkpt lat="42.1318831289766" lon="0.9740431352755857"><ele>518.0</ele><time>2026-04-27T13:27:14.002Z</time></trkpt><trkpt lat="42.13186601868988" lon="0.973883508041783"><ele>517.0</ele><time>2026-04-27T13:27:15.002Z</time></trkpt><trkpt lat="42.131838936836246" lon="0.9737250611270946"><ele>516.0</ele><time>2026-04-27T13:27:16.002Z</time></trkpt><trkpt lat="42.131814125166535" lon="0.9735684196015202"><ele>516.0</ele><time>2026-04-27T13:27:17.002Z</time></trkpt><trkpt lat="42.131788606520225" lon="0.9734111546461859"><ele>516.0</ele><time>2026-04-27T13:27:18.002Z</time></trkpt><trkpt lat="42.13176465444425" lon="0.97324920951205"><ele>516.0</ele><time>2026-04-27T13:27:19.002Z</time></trkpt><trkpt lat="42.131735840991695" lon="0.9730954725607538"><ele>516.0</ele><time>2026-04-27T13:27:20.002Z</time></trkpt><trkpt lat="42.1317038817936" lon="0.9729362362680534"><ele>515.75</ele><time>2026-04-27T13:27:21.002Z</time></trkpt><trkpt lat="42.1316781331403" lon="0.9727806903588717"><ele>515.5</ele><time>2026-04-27T13:27:22.002Z</time></trkpt><trkpt lat="42.13164623823914" lon="0.9726239507864635"><ele>515.25</ele><time>2026-04-27T13:27:23.002Z</time></trkpt><trkpt lat="42.13162224748486" lon="0.9724672989769704"><ele>515.0</ele><time>2026-04-27T13:27:24.002Z</time></trkpt><trkpt lat="42.13159030721484" lon="0.9723131877292792"><ele>515.25</ele><time>2026-04-27T13:27:25.002Z</time></trkpt><trkpt lat="42.13155641091471" lon="0.9721555975030468"><ele>515.5</ele><time>2026-04-27T13:27:26.002Z</time></trkpt><trkpt lat="42.131520032033094" lon="0.9719997482364372"><ele>515.75</ele><time>2026-04-27T13:27:27.002Z</time></trkpt><trkpt lat="42.13149000479054" lon="0.9718436896817408"><ele>516.0</ele><time>2026-04-27T13:27:28.002Z</time></trkpt><trkpt lat="42.13145201703588" lon="0.971685333804345"><ele>515.25</ele><time>2026-04-27T13:27:29.002Z</time></trkpt><trkpt lat="42.13141397095365" lon="0.9715298580089579"><ele>514.5</ele><time>2026-04-27T13:27:30.002Z</time></trkpt><trkpt lat="42.1313761237719" lon="0.9713763550747654"><ele>513.75</ele><time>2026-04-27T13:27:31.002Z</time></trkpt><trkpt lat="42.13133838948899" lon="0.9712216607955622"><ele>513.0</ele><time>2026-04-27T13:27:32.002Z</time></trkpt><trkpt lat="42.13130100106162" lon="0.9710665029938828"><ele>513.0</ele><time>2026-04-27T13:27:33.002Z</time></trkpt><trkpt lat="42.13126342018778" lon="0.9709164787350362"><ele>513.0</ele><time>2026-04-27T13:27:34.002Z</time></trkpt><trkpt lat="42.1312266847937" lon="0.9707647663894359"><ele>513.0</ele><time>2026-04-27T13:27:35.002Z</time></trkpt><trkpt lat="42.131188941799294" lon="0.9706129251233442"><ele>513.0</ele><time>2026-04-27T13:27:36.002Z</time></trkpt><trkpt lat="42.131152378165076" lon="0.9704601625782782"><ele>512.25</ele><time>2026-04-27T13:27:37.002Z</time></trkpt><trkpt lat="42.13111667694411" lon="0.9703073232768221"><ele>511.5</ele><time>2026-04-27T13:27:38.002Z</time></trkpt><trkpt lat="42.13107732946452" lon="0.9701528834652244"><ele>510.75</ele><time>2026-04-27T13:27:39.002Z</time></trkpt><trkpt lat="42.13103753832966" lon="0.9699969847249285"><ele>510.0</ele><time>2026-04-27T13:27:40.002Z</time></trkpt><trkpt lat="42.13099780646468" lon="0.9698398440343561"><ele>509.25</ele><time>2026-04-27T13:27:41.002Z</time></trkpt><trkpt lat="42.1309597687763" lon="0.969684059013824"><ele>508.5</ele><time>2026-04-27T13:27:42.002Z</time></trkpt><trkpt lat="42.1309206702575" lon="0.9695229201144161"><ele>507.75</ele><time>2026-04-27T13:27:43.002Z</time></trkpt><trkpt lat="42.13088248538017" lon="0.969366970843453"><ele>507.0</ele><time>2026-04-27T13:27:44.002Z</time></trkpt><trkpt lat="42.13084240361397" lon="0.9692070257459843"><ele>506.5</ele><time>2026-04-27T13:27:45.002Z</time></trkpt><trkpt lat="42.13080421577293" lon="0.9690493223265343"><ele>506.0</ele><time>2026-04-27T13:27:46.002Z</time></trkpt><trkpt lat="42.13076301020522" lon="0.9688865739012728"><ele>505.5</ele><time>2026-04-27T13:27:47.003Z</time></trkpt><trkpt lat="42.13072422658255" lon="0.9687258643791469"><ele>505.0</ele><time>2026-04-27T13:27:48.003Z</time></trkpt><trkpt lat="42.130683590486484" lon="0.9685669012231626"><ele>504.25</ele><time>2026-04-27T13:27:49.003Z</time></trkpt><trkpt lat="42.13064416761661" lon="0.9684034778476864"><ele>503.5</ele><time>2026-04-27T13:27:50.003Z</time></trkpt><trkpt lat="42.13060664042937" lon="0.9682449975033312"><ele>502.75</ele><time>2026-04-27T13:27:51.003Z</time></trkpt><trkpt lat="42.130569134877256" lon="0.9680821992725167"><ele>502.0</ele><time>2026-04-27T13:27:52.003Z</time></trkpt><trkpt lat="42.13052740739247" lon="0.9679244163844894"><ele>501.5</ele><time>2026-04-27T13:27:53.003Z</time></trkpt><trkpt lat="42.1304891990333" lon="0.9677646137120665"><ele>501.0</ele><time>2026-04-27T13:27:54.003Z</time></trkpt><trkpt lat="42.130449227114084" lon="0.9676059320255916"><ele>500.5</ele><time>2026-04-27T13:27:55.003Z</time></trkpt><trkpt lat="42.1304085699257" lon="0.9674489732359134"><ele>500.0</ele><time>2026-04-27T13:27:56.003Z</time></trkpt><trkpt lat="42.13036948946881" lon="0.9672932110372726"><ele>499.75</ele><time>2026-04-27T13:27:57Z</time></trkpt><trkpt lat="42.13033486644362" lon="0.9671372997412305"><ele>499.5</ele><time>2026-04-27T13:27:58Z</time></trkpt><trkpt lat="42.13029633621392" lon="0.9669811894604871"><ele>499.25</ele><time>2026-04-27T13:27:59Z</time></trkpt><trkpt lat="42.13025452639843" lon="0.9668262778960688"><ele>499.0</ele><time>2026-04-27T13:28:00Z</time></trkpt><trkpt lat="42.130216013775104" lon="0.9666709463323309"><ele>498.75</ele><time>2026-04-27T13:28:01Z</time></trkpt><trkpt lat="42.13017809295952" lon="0.9665133296379369"><ele>498.5</ele><time>2026-04-27T13:28:02Z</time></trkpt><trkpt lat="42.13014076927617" lon="0.9663586853683405"><ele>498.25</ele><time>2026-04-27T13:28:03Z</time></trkpt><trkpt lat="42.13010326023997" lon="0.9662022285834401"><ele>498.0</ele><time>2026-04-27T13:28:04Z</time></trkpt><trkpt lat="42.13006511777344" lon="0.9660409665253427"><ele>498.0</ele><time>2026-04-27T13:28:05Z</time></trkpt><trkpt lat="42.13002609001254" lon="0.9658827553185585"><ele>498.0</ele><time>2026-04-27T13:28:06Z</time></trkpt><trkpt lat="42.129986178876926" lon="0.9657271898595335"><ele>498.0</ele><time>2026-04-27T13:28:07Z</time></trkpt><trkpt lat="42.129945232426984" lon="0.9655653785695141"><ele>498.0</ele><time>2026-04-27T13:28:08Z</time></trkpt><trkpt lat="42.12990640140198" lon="0.9654054491302744"><ele>496.75</ele><time>2026-04-27T13:28:09Z</time></trkpt><trkpt lat="42.129870942672234" lon="0.9652447347802494"><ele>495.5</ele><time>2026-04-27T13:28:10Z</time></trkpt><trkpt lat="42.1298346959783" lon="0.965085281247486"><ele>494.25</ele><time>2026-04-27T13:28:11Z</time></trkpt><trkpt lat="42.129794004373224" lon="0.9649262023574051"><ele>493.0</ele><time>2026-04-27T13:28:12Z</time></trkpt><trkpt lat="42.129752396547566" lon="0.9647681151234846"><ele>492.75</ele><time>2026-04-27T13:28:13Z</time></trkpt><trkpt lat="42.129712468710444" lon="0.9646087999771176"><ele>492.5</ele><time>2026-04-27T13:28:14Z</time></trkpt><trkpt lat="42.129673164775966" lon="0.964450767225152"><ele>492.25</ele><time>2026-04-27T13:28:15Z</time></trkpt><trkpt lat="42.12963356211486" lon="0.9642932350617421"><ele>492.0</ele><time>2026-04-27T13:28:16Z</time></trkpt><trkpt lat="42.129598535711665" lon="0.9641352178612405"><ele>491.75</ele><time>2026-04-27T13:28:17Z</time></trkpt><trkpt lat="42.12955773527873" lon="0.9639758659971019"><ele>491.5</ele><time>2026-04-27T13:28:18Z</time></trkpt><trkpt lat="42.129519823672254" lon="0.9638175964850659"><ele>491.25</ele><time>2026-04-27T13:28:19Z</time></trkpt><trkpt lat="42.12948133236289" lon="0.96365989302339"><ele>491.0</ele><time>2026-04-27T13:28:20Z</time></trkpt><trkpt lat="42.12944117870632" lon="0.9634990500028813"><ele>490.75</ele><time>2026-04-27T13:28:21Z</time></trkpt><trkpt lat="42.12940145741043" lon="0.9633409438329411"><ele>490.5</ele><time>2026-04-27T13:28:22Z</time></trkpt><trkpt lat="42.129364062165266" lon="0.9631829955569594"><ele>490.25</ele><time>2026-04-27T13:28:23Z</time></trkpt><trkpt lat="42.129332564450785" lon="0.9630248955564408"><ele>490.0</ele><time>2026-04-27T13:28:24Z</time></trkpt><trkpt lat="42.129296895672574" lon="0.9628650817761658"><ele>490.0</ele><time>2026-04-27T13:28:25Z</time></trkpt><trkpt lat="42.12926989309346" lon="0.962705166182036"><ele>490.0</ele><time>2026-04-27T13:28:26Z</time></trkpt><trkpt lat="42.12924158547181" lon="0.962542959094616"><ele>490.0</ele><time>2026-04-27T13:28:27Z</time></trkpt><trkpt lat="42.12921573501541" lon="0.9623816838786812"><ele>490.0</ele><time>2026-04-27T13:28:28Z</time></trkpt><trkpt lat="42.12919433143897" lon="0.9622183002440386"><ele>489.5</ele><time>2026-04-27T13:28:29Z</time></trkpt><trkpt lat="42.12917206023065" lon="0.9620528255188474"><ele>489.0</ele><time>2026-04-27T13:28:30Z</time></trkpt><trkpt lat="42.12915414157773" lon="0.9618918521023926"><ele>488.5</ele><time>2026-04-27T13:28:31Z</time></trkpt><trkpt lat="42.129136065842346" lon="0.9617271249069492"><ele>488.0</ele><time>2026-04-27T13:28:32Z</time></trkpt><trkpt lat="42.12912348677698" lon="0.9615632192023652"><ele>488.0</ele><time>2026-04-27T13:28:33Z</time></trkpt><trkpt lat="42.129108851119156" lon="0.9613995243321887"><ele>488.0</ele><time>2026-04-27T13:28:34.001Z</time></trkpt><trkpt lat="42.12910300533839" lon="0.9612360324152033"><ele>488.0</ele><time>2026-04-27T13:28:35.001Z</time></trkpt><trkpt lat="42.129098723177314" lon="0.9610762780039059"><ele>488.0</ele><time>2026-04-27T13:28:36.001Z</time></trkpt><trkpt lat="42.129093094972404" lon="0.9609143975770786"><ele>488.0</ele><time>2026-04-27T13:28:37.001Z</time></trkpt><trkpt lat="42.12908539757972" lon="0.9607505225692301"><ele>488.0</ele><time>2026-04-27T13:28:38.001Z</time></trkpt><trkpt lat="42.12908197938878" lon="0.9605933520205434"><ele>488.0</ele><time>2026-04-27T13:28:39.001Z</time></trkpt><trkpt lat="42.129077559430705" lon="0.9604317376235295"><ele>488.0</ele><time>2026-04-27T13:28:40.001Z</time></trkpt><trkpt lat="42.129074972169946" lon="0.9602714251836966"><ele>488.0</ele><time>2026-04-27T13:28:41.001Z</time></trkpt><trkpt lat="42.129071842402446" lon="0.9601153761422602"><ele>488.0</ele><time>2026-04-27T13:28:42.001Z</time></trkpt><trkpt lat="42.12906592702677" lon="0.9599536998712102"><ele>488.0</ele><time>2026-04-27T13:28:43.001Z</time></trkpt><trkpt lat="42.129061110579215" lon="0.9597947572363219"><ele>488.0</ele><time>2026-04-27T13:28:44.001Z</time></trkpt><trkpt lat="42.1290584386818" lon="0.9596388987384566"><ele>486.5</ele><time>2026-04-27T13:28:45.001Z</time></trkpt><trkpt lat="42.12905557217014" lon="0.95948188429235"><ele>485.0</ele><time>2026-04-27T13:28:46.001Z</time></trkpt><trkpt lat="42.129047212608135" lon="0.9593226319734145"><ele>483.5</ele><time>2026-04-27T13:28:47.001Z</time></trkpt><trkpt lat="42.129045992478424" lon="0.9591627972743852"><ele>482.0</ele><time>2026-04-27T13:28:48.001Z</time></trkpt><trkpt lat="42.129044087296826" lon="0.9590034110919747"><ele>482.0</ele><time>2026-04-27T13:28:49.001Z</time></trkpt><trkpt lat="42.12903618088339" lon="0.9588465436336147"><ele>482.0</ele><time>2026-04-27T13:28:50.001Z</time></trkpt><trkpt lat="42.129033217569706" lon="0.9586815718447361"><ele>482.0</ele><time>2026-04-27T13:28:51.001Z</time></trkpt><trkpt lat="42.12902937327853" lon="0.958528427781484"><ele>482.0</ele><time>2026-04-27T13:28:52.001Z</time></trkpt><trkpt lat="42.129027133670206" lon="0.9583590311504926"><ele>481.75</ele><time>2026-04-27T13:28:53.001Z</time></trkpt><trkpt lat="42.12902381637665" lon="0.9582054048138314"><ele>481.5</ele><time>2026-04-27T13:28:54.001Z</time></trkpt><trkpt lat="42.12902034560314" lon="0.9580457041632525"><ele>481.25</ele><time>2026-04-27T13:28:55.001Z</time></trkpt><trkpt lat="42.12901667018302" lon="0.9578872177563589"><ele>481.0</ele><time>2026-04-27T13:28:56.001Z</time></trkpt><trkpt lat="42.12901039241701" lon="0.9577271762029772"><ele>481.0</ele><time>2026-04-27T13:28:57.001Z</time></trkpt><trkpt lat="42.12900401451142" lon="0.9575706638268296"><ele>481.0</ele><time>2026-04-27T13:28:58.001Z</time></trkpt><trkpt lat="42.12899926389851" lon="0.957410260678862"><ele>481.0</ele><time>2026-04-27T13:28:59.001Z</time></trkpt><trkpt lat="42.12899599221436" lon="0.957249643250307"><ele>481.0</ele><time>2026-04-27T13:29:00.001Z</time></trkpt><trkpt lat="42.12899101794312" lon="0.9570882611275398"><ele>480.75</ele><time>2026-04-27T13:29:01.001Z</time></trkpt><trkpt lat="42.12898865939487" lon="0.9569264976354684"><ele>480.5</ele><time>2026-04-27T13:29:02.001Z</time></trkpt><trkpt lat="42.128982803901835" lon="0.9567660558364699"><ele>480.25</ele><time>2026-04-27T13:29:03.001Z</time></trkpt><trkpt lat="42.12897570263333" lon="0.9566036468227952"><ele>480.0</ele><time>2026-04-27T13:29:04.001Z</time></trkpt><trkpt lat="42.12896998614573" lon="0.9564413067505724"><ele>479.0</ele><time>2026-04-27T13:29:05.001Z</time></trkpt><trkpt lat="42.12896809981865" lon="0.9562794356160464"><ele>478.0</ele><time>2026-04-27T13:29:06.001Z</time></trkpt><trkpt lat="42.12897070038755" lon="0.9561176336222033"><ele>477.0</ele><time>2026-04-27T13:29:07.001Z</time></trkpt><trkpt lat="42.12897902363801" lon="0.9559573197746553"><ele>476.0</ele><time>2026-04-27T13:29:08.001Z</time></trkpt><trkpt lat="42.128992123290544" lon="0.9557991029200015"><ele>475.75</ele><time>2026-04-27T13:29:09.001Z</time></trkpt><trkpt lat="42.12900222173422" lon="0.9556340471153275"><ele>475.5</ele><time>2026-04-27T13:29:10.001Z</time></trkpt><trkpt lat="42.129017526418515" lon="0.955474274323973"><ele>475.25</ele><time>2026-04-27T13:29:11.002Z</time></trkpt><trkpt lat="42.12903946383492" lon="0.9553161608406127"><ele>475.0</ele><time>2026-04-27T13:29:12.002Z</time></trkpt><trkpt lat="42.1290657521403" lon="0.9551574440632282"><ele>475.5</ele><time>2026-04-27T13:29:13.002Z</time></trkpt><trkpt lat="42.129094510893694" lon="0.9550023583022307"><ele>476.0</ele><time>2026-04-27T13:29:14.002Z</time></trkpt><trkpt lat="42.12913289702084" lon="0.9548509344838428"><ele>476.5</ele><time>2026-04-27T13:29:15.002Z</time></trkpt><trkpt lat="42.1291747844454" lon="0.954699843381423"><ele>477.0</ele><time>2026-04-27T13:29:16.002Z</time></trkpt><trkpt lat="42.129228182665884" lon="0.954554982386909"><ele>477.0</ele><time>2026-04-27T13:29:17.002Z</time></trkpt><trkpt lat="42.12928358245963" lon="0.9544109467090646"><ele>477.0</ele><time>2026-04-27T13:29:18.002Z</time></trkpt><trkpt lat="42.12933847925069" lon="0.9542648943199621"><ele>477.0</ele><time>2026-04-27T13:29:19.002Z</time></trkpt><trkpt lat="42.12940165385266" lon="0.9541270751272473"><ele>477.0</ele><time>2026-04-27T13:29:20.002Z</time></trkpt><trkpt lat="42.12946852851913" lon="0.953992019215754"><ele>476.75</ele><time>2026-04-27T13:29:21.002Z</time></trkpt><trkpt lat="42.12954114461891" lon="0.9538591454171228"><ele>476.5</ele><time>2026-04-27T13:29:22.002Z</time></trkpt><trkpt lat="42.12961500889657" lon="0.9537264697509058"><ele>476.25</ele><time>2026-04-27T13:29:23.002Z</time></trkpt><trkpt lat="42.12968946335864" lon="0.95360236106297"><ele>476.0</ele><time>2026-04-27T13:29:24.002Z</time></trkpt><trkpt lat="42.12977958508411" lon="0.953466306778163"><ele>475.75</ele><time>2026-04-27T13:29:25.002Z</time></trkpt><trkpt lat="42.12987105661275" lon="0.9533525141244782"><ele>475.5</ele><time>2026-04-27T13:29:26.002Z</time></trkpt><trkpt lat="42.129968198815824" lon="0.9532435167650994"><ele>475.25</ele><time>2026-04-27T13:29:27.002Z</time></trkpt><trkpt lat="42.13007021892457" lon="0.9531450682572306"><ele>475.0</ele><time>2026-04-27T13:29:28.002Z</time></trkpt><trkpt lat="42.13017443558037" lon="0.9530485438775924"><ele>475.0</ele><time>2026-04-27T13:29:29.002Z</time></trkpt><trkpt lat="42.130280184350106" lon="0.952957058125982"><ele>475.0</ele><time>2026-04-27T13:29:30.002Z</time></trkpt><trkpt lat="42.13038992249698" lon="0.9528717536030533"><ele>475.0</ele><time>2026-04-27T13:29:31.002Z</time></trkpt><trkpt lat="42.13050243968325" lon="0.9527874111717942"><ele>475.0</ele><time>2026-04-27T13:29:32.002Z</time></trkpt><trkpt lat="42.13061370362504" lon="0.9527207241196667"><ele>475.0</ele><time>2026-04-27T13:29:33.002Z</time></trkpt><trkpt lat="42.130728974991285" lon="0.952650884611809"><ele>475.0</ele><time>2026-04-27T13:29:34.002Z</time></trkpt><trkpt lat="42.13084094481099" lon="0.9525857710999096"><ele>475.0</ele><time>2026-04-27T13:29:35.002Z</time></trkpt><trkpt lat="42.130954475313075" lon="0.9525203059524996"><ele>475.0</ele><time>2026-04-27T13:29:36.002Z</time></trkpt><trkpt lat="42.1310674143793" lon="0.9524566843651296"><ele>474.75</ele><time>2026-04-27T13:29:37.002Z</time></trkpt><trkpt lat="42.131182209754826" lon="0.9523891953729102"><ele>474.5</ele><time>2026-04-27T13:29:38.002Z</time></trkpt><trkpt lat="42.131298776649594" lon="0.9523200650538943"><ele>474.25</ele><time>2026-04-27T13:29:39.002Z</time></trkpt><trkpt lat="42.13141584162509" lon="0.9522525390402077"><ele>474.0</ele><time>2026-04-27T13:29:40.002Z</time></trkpt><trkpt lat="42.13153234486393" lon="0.9521837116487465"><ele>472.75</ele><time>2026-04-27T13:29:41.002Z</time></trkpt><trkpt lat="42.13164798111706" lon="0.9521149849317755"><ele>471.5</ele><time>2026-04-27T13:29:42.002Z</time></trkpt><trkpt lat="42.13176648897704" lon="0.9520451665203847"><ele>470.25</ele><time>2026-04-27T13:29:43.002Z</time></trkpt><trkpt lat="42.13188292649084" lon="0.9519794323410032"><ele>469.0</ele><time>2026-04-27T13:29:44.002Z</time></trkpt><trkpt lat="42.132000184608344" lon="0.9519157935587499"><ele>469.0</ele><time>2026-04-27T13:29:45.002Z</time></trkpt><trkpt lat="42.13211625854371" lon="0.9518526833627383"><ele>469.0</ele><time>2026-04-27T13:29:46.002Z</time></trkpt><trkpt lat="42.13223203551273" lon="0.9517851250950653"><ele>469.0</ele><time>2026-04-27T13:29:47.002Z</time></trkpt><trkpt lat="42.13234649693457" lon="0.9517215447665525"><ele>469.0</ele><time>2026-04-27T13:29:48.003Z</time></trkpt><trkpt lat="42.13245644890888" lon="0.951657135543792"><ele>464.25</ele><time>2026-04-27T13:29:49.003Z</time></trkpt><trkpt lat="42.13256883319191" lon="0.9515947937894572"><ele>459.5</ele><time>2026-04-27T13:29:50.003Z</time></trkpt><trkpt lat="42.132679211459426" lon="0.9515282638326273"><ele>454.75</ele><time>2026-04-27T13:29:51.003Z</time></trkpt><trkpt lat="42.132791099055645" lon="0.9514674466931637"><ele>450.0</ele><time>2026-04-27T13:29:52.003Z</time></trkpt><trkpt lat="42.13290386766437" lon="0.9514069353618466"><ele>450.0</ele><time>2026-04-27T13:29:53.003Z</time></trkpt><trkpt lat="42.1330147793038" lon="0.9513397435317236"><ele>450.0</ele><time>2026-04-27T13:29:54.003Z</time></trkpt><trkpt lat="42.13312285551347" lon="0.9512807241360491"><ele>450.0</ele><time>2026-04-27T13:29:55.003Z</time></trkpt><trkpt lat="42.133232893524976" lon="0.9512224888564093"><ele>450.0</ele><time>2026-04-27T13:29:56.003Z</time></trkpt><trkpt lat="42.133331221431156" lon="0.9511676508143815"><ele>450.75</ele><time>2026-04-27T13:29:57.003Z</time></trkpt><trkpt lat="42.13343987597761" lon="0.9511045534809296"><ele>451.5</ele><time>2026-04-27T13:29:58.003Z</time></trkpt><trkpt lat="42.13354387241163" lon="0.9510411037691482"><ele>452.25</ele><time>2026-04-27T13:29:59.003Z</time></trkpt><trkpt lat="42.13364470949557" lon="0.9509758538789129"><ele>453.0</ele><time>2026-04-27T13:30:00.003Z</time></trkpt><trkpt lat="42.13374057991342" lon="0.9509080966356546"><ele>453.0</ele><time>2026-04-27T13:30:01.003Z</time></trkpt><trkpt lat="42.1338350462805" lon="0.9508306478982278"><ele>452.99999999999994</ele><time>2026-04-27T13:30:02.003Z</time></trkpt><trkpt lat="42.13392595742405" lon="0.9507555704327507"><ele>452.99999999999994</ele><time>2026-04-27T13:30:03Z</time></trkpt><trkpt lat="42.134012457198764" lon="0.9506732656095013"><ele>453.0</ele><time>2026-04-27T13:30:04Z</time></trkpt><trkpt lat="42.13409554711577" lon="0.9505885446734752"><ele>453.0</ele><time>2026-04-27T13:30:05Z</time></trkpt><trkpt lat="42.134176589858555" lon="0.9505025106955498"><ele>454.0</ele><time>2026-04-27T13:30:06Z</time></trkpt><trkpt lat="42.13425378520664" lon="0.9504105578582955"><ele>454.99999999999994</ele><time>2026-04-27T13:30:07Z</time></trkpt><trkpt lat="42.13432733945119" lon="0.9503189193163539"><ele>455.99999999999994</ele><time>2026-04-27T13:30:08Z</time></trkpt><trkpt lat="42.13439610685623" lon="0.9502248513215307"><ele>457.0</ele><time>2026-04-27T13:30:09Z</time></trkpt><trkpt lat="42.13446208613478" lon="0.9501296450944682"><ele>458.0</ele><time>2026-04-27T13:30:10Z</time></trkpt><trkpt lat="42.13452424356495" lon="0.9500332166330641"><ele>458.2</ele><time>2026-04-27T13:30:11Z</time></trkpt><trkpt lat="42.134585666089464" lon="0.949943439809641"><ele>458.4</ele><time>2026-04-27T13:30:12Z</time></trkpt><trkpt lat="42.13464237847403" lon="0.9498445834372066"><ele>458.59999999999997</ele><time>2026-04-27T13:30:13Z</time></trkpt><trkpt lat="42.1346955560161" lon="0.9497395018114279"><ele>458.79999999999995</ele><time>2026-04-27T13:30:14Z</time></trkpt><trkpt lat="42.13474789641491" lon="0.9496349978369206"><ele>459.0</ele><time>2026-04-27T13:30:15Z</time></trkpt><trkpt lat="42.13479982467437" lon="0.9495249541204853"><ele>459.0</ele><time>2026-04-27T13:30:16Z</time></trkpt><trkpt lat="42.1348526791266" lon="0.949433998713195"><ele>459.0</ele><time>2026-04-27T13:30:17Z</time></trkpt><trkpt lat="42.13490539435576" lon="0.949334726510133"><ele>459.0</ele><time>2026-04-27T13:30:18Z</time></trkpt><trkpt lat="42.13495690029157" lon="0.9492328020039622"><ele>459.0</ele><time>2026-04-27T13:30:19Z</time></trkpt><trkpt lat="42.1350079190436" lon="0.9491302903921809"><ele>459.0</ele><time>2026-04-27T13:30:20Z</time></trkpt><trkpt lat="42.13505810857972" lon="0.9490264853869794"><ele>461.4</ele><time>2026-04-27T13:30:21Z</time></trkpt><trkpt lat="42.13510876055779" lon="0.9489259661028626"><ele>463.79999999999995</ele><time>2026-04-27T13:30:22Z</time></trkpt><trkpt lat="42.135161064790054" lon="0.948824632311209"><ele>466.20000000000005</ele><time>2026-04-27T13:30:23Z</time></trkpt><trkpt lat="42.13521307460916" lon="0.9487213530810803"><ele>468.6</ele><time>2026-04-27T13:30:24Z</time></trkpt><trkpt lat="42.13526201497808" lon="0.9486169478525303"><ele>471.0</ele><time>2026-04-27T13:30:25Z</time></trkpt><trkpt lat="42.13531117572074" lon="0.9485153180230056"><ele>471.0</ele><time>2026-04-27T13:30:26Z</time></trkpt><trkpt lat="42.13536285636733" lon="0.9484130549164492"><ele>471.0</ele><time>2026-04-27T13:30:27Z</time></trkpt><trkpt lat="42.13541568158661" lon="0.9483174039407373"><ele>471.0</ele><time>2026-04-27T13:30:28Z</time></trkpt><trkpt lat="42.135464744697174" lon="0.9482112150177575"><ele>471.0</ele><time>2026-04-27T13:30:29Z</time></trkpt><trkpt lat="42.13551382519244" lon="0.9481012608702781"><ele>471.0</ele><time>2026-04-27T13:30:30Z</time></trkpt><trkpt lat="42.135567254842385" lon="0.9479929527929266"><ele>471.0</ele><time>2026-04-27T13:30:31Z</time></trkpt><trkpt lat="42.13561847315243" lon="0.9478870239586247"><ele>471.0</ele><time>2026-04-27T13:30:32Z</time></trkpt><trkpt lat="42.13567016690246" lon="0.947771663692925"><ele>471.0</ele><time>2026-04-27T13:30:33Z</time></trkpt><trkpt lat="42.13572815381586" lon="0.9476699107442432"><ele>471.0</ele><time>2026-04-27T13:30:34.001Z</time></trkpt><trkpt lat="42.13578422799529" lon="0.9475545893123211"><ele>471.0</ele><time>2026-04-27T13:30:35.001Z</time></trkpt><trkpt lat="42.135848136609376" lon="0.9474437354091564"><ele>471.20000000000005</ele><time>2026-04-27T13:30:36.001Z</time></trkpt><trkpt lat="42.13591279901436" lon="0.9473314407189791"><ele>471.40000000000003</ele><time>2026-04-27T13:30:37.001Z</time></trkpt><trkpt lat="42.1359738267097" lon="0.9472106292936274"><ele>471.6</ele><time>2026-04-27T13:30:38.001Z</time></trkpt><trkpt lat="42.13604269787217" lon="0.9470975703408008"><ele>471.8</ele><time>2026-04-27T13:30:39.001Z</time></trkpt><trkpt lat="42.13611307224642" lon="0.9469894539370579"><ele>472.0</ele><time>2026-04-27T13:30:40.001Z</time></trkpt><trkpt lat="42.13618380519649" lon="0.9468689900958729"><ele>472.0</ele><time>2026-04-27T13:30:41.001Z</time></trkpt><trkpt lat="42.136258680358424" lon="0.9467517321659081"><ele>472.00000000000006</ele><time>2026-04-27T13:30:42.001Z</time></trkpt><trkpt lat="42.13632836399051" lon="0.9466353943393451"><ele>472.00000000000006</ele><time>2026-04-27T13:30:43.001Z</time></trkpt><trkpt lat="42.13639848047045" lon="0.9465225050406186"><ele>472.0</ele><time>2026-04-27T13:30:44.001Z</time></trkpt><trkpt lat="42.13646914871429" lon="0.946410260686184"><ele>472.0</ele><time>2026-04-27T13:30:45.001Z</time></trkpt><trkpt lat="42.136541760428145" lon="0.9462988669543093"><ele>472.20000000000005</ele><time>2026-04-27T13:30:46.001Z</time></trkpt><trkpt lat="42.136614394038276" lon="0.946190972799995"><ele>472.40000000000003</ele><time>2026-04-27T13:30:47.001Z</time></trkpt><trkpt lat="42.136688134641645" lon="0.9460803099960854"><ele>472.59999999999997</ele><time>2026-04-27T13:30:48.001Z</time></trkpt><trkpt lat="42.13676239855261" lon="0.9459666551312274"><ele>472.79999999999995</ele><time>2026-04-27T13:30:49.001Z</time></trkpt><trkpt lat="42.136835383894336" lon="0.9458509175733563"><ele>473.0</ele><time>2026-04-27T13:30:50.001Z</time></trkpt><trkpt lat="42.13690709845325" lon="0.945735915086179"><ele>472.4</ele><time>2026-04-27T13:30:51.001Z</time></trkpt><trkpt lat="42.1369802078911" lon="0.9456226609662033"><ele>471.79999999999995</ele><time>2026-04-27T13:30:52.001Z</time></trkpt><trkpt lat="42.13705393697392" lon="0.9455103421271066"><ele>471.2</ele><time>2026-04-27T13:30:53.001Z</time></trkpt><trkpt lat="42.13712740063601" lon="0.945399024078452"><ele>470.6</ele><time>2026-04-27T13:30:54.001Z</time></trkpt><trkpt lat="42.13720058128887" lon="0.9452837340839073"><ele>470.0</ele><time>2026-04-27T13:30:55.001Z</time></trkpt><trkpt lat="42.13727419278406" lon="0.9451673154253768"><ele>470.0</ele><time>2026-04-27T13:30:56.001Z</time></trkpt><trkpt lat="42.13734983075362" lon="0.9450551742108625"><ele>470.0</ele><time>2026-04-27T13:30:57.001Z</time></trkpt><trkpt lat="42.137426547418826" lon="0.9449418136068739"><ele>470.0</ele><time>2026-04-27T13:30:58.001Z</time></trkpt><trkpt lat="42.137502496683666" lon="0.9448268955274841"><ele>470.0</ele><time>2026-04-27T13:30:59.001Z</time></trkpt><trkpt lat="42.13757844278875" lon="0.9447114940174476"><ele>469.8</ele><time>2026-04-27T13:31:00.001Z</time></trkpt><trkpt lat="42.13765322472139" lon="0.9445960005037733"><ele>469.6</ele><time>2026-04-27T13:31:01.001Z</time></trkpt><trkpt lat="42.13772870387424" lon="0.9444807266611084"><ele>469.4</ele><time>2026-04-27T13:31:02.001Z</time></trkpt><trkpt lat="42.137801732299444" lon="0.9443702704248512"><ele>469.2</ele><time>2026-04-27T13:31:03.001Z</time></trkpt><trkpt lat="42.13787364976425" lon="0.9442573241745713"><ele>469.0</ele><time>2026-04-27T13:31:04.001Z</time></trkpt><trkpt lat="42.137946152897136" lon="0.9441429695540496"><ele>468.6</ele><time>2026-04-27T13:31:05.001Z</time></trkpt><trkpt lat="42.13801777531936" lon="0.9440315941882679"><ele>468.2</ele><time>2026-04-27T13:31:06.001Z</time></trkpt><trkpt lat="42.1380900584565" lon="0.9439199166049098"><ele>467.80000000000007</ele><time>2026-04-27T13:31:07.001Z</time></trkpt><trkpt lat="42.13816402922907" lon="0.9438066181011101"><ele>467.40000000000003</ele><time>2026-04-27T13:31:08.001Z</time></trkpt><trkpt lat="42.13823621277376" lon="0.9436901822674622"><ele>467.0</ele><time>2026-04-27T13:31:09.001Z</time></trkpt><trkpt lat="42.138306588553256" lon="0.9435718219746029"><ele>467.0</ele><time>2026-04-27T13:31:10.001Z</time></trkpt><trkpt lat="42.13837290325399" lon="0.9434517321267782"><ele>467.00000000000006</ele><time>2026-04-27T13:31:11.001Z</time></trkpt><trkpt lat="42.13843805968306" lon="0.9433325442234484"><ele>467.00000000000006</ele><time>2026-04-27T13:31:12.001Z</time></trkpt><trkpt lat="42.13850694163062" lon="0.9432150343769958"><ele>467.0</ele><time>2026-04-27T13:31:13.002Z</time></trkpt><trkpt lat="42.13856337170336" lon="0.9430881030083064"><ele>467.0</ele><time>2026-04-27T13:31:14.002Z</time></trkpt><trkpt lat="42.13862024294911" lon="0.9429637646812312"><ele>466.8</ele><time>2026-04-27T13:31:15.002Z</time></trkpt><trkpt lat="42.138675250284706" lon="0.9428380174128584"><ele>466.6</ele><time>2026-04-27T13:31:16.002Z</time></trkpt><trkpt lat="42.13872523697399" lon="0.9427070070049763"><ele>466.40000000000003</ele><time>2026-04-27T13:31:17.002Z</time></trkpt><trkpt lat="42.138774096475416" lon="0.9425721980741436"><ele>466.20000000000005</ele><time>2026-04-27T13:31:18.002Z</time></trkpt><trkpt lat="42.13882261196292" lon="0.9424343873081339"><ele>466.0</ele><time>2026-04-27T13:31:19.002Z</time></trkpt><trkpt lat="42.13886832476498" lon="0.9422937527070945"><ele>466.0</ele><time>2026-04-27T13:31:20.002Z</time></trkpt><trkpt lat="42.138909973265356" lon="0.9421506034087367"><ele>466.0</ele><time>2026-04-27T13:31:21.002Z</time></trkpt><trkpt lat="42.138951860492064" lon="0.9420087602165785"><ele>466.0</ele><time>2026-04-27T13:31:22.002Z</time></trkpt><trkpt lat="42.13899492935521" lon="0.9418692086042926"><ele>466.0</ele><time>2026-04-27T13:31:23.002Z</time></trkpt><trkpt lat="42.13903849218238" lon="0.9417245574023468"><ele>466.25</ele><time>2026-04-27T13:31:24.002Z</time></trkpt><trkpt lat="42.139078561919476" lon="0.9415822633015268"><ele>466.5</ele><time>2026-04-27T13:31:25.002Z</time></trkpt><trkpt lat="42.139118435224454" lon="0.9414392494678634"><ele>466.75</ele><time>2026-04-27T13:31:26.002Z</time></trkpt><trkpt lat="42.139157378746056" lon="0.9412954868554441"><ele>467.0</ele><time>2026-04-27T13:31:27.002Z</time></trkpt><trkpt lat="42.13919829554153" lon="0.9411526551935346"><ele>467.0</ele><time>2026-04-27T13:31:28.002Z</time></trkpt><trkpt lat="42.1392392821869" lon="0.9410078125831395"><ele>467.0</ele><time>2026-04-27T13:31:29.002Z</time></trkpt><trkpt lat="42.139279073215995" lon="0.9408634621323991"><ele>467.0</ele><time>2026-04-27T13:31:30.002Z</time></trkpt><trkpt lat="42.13931887994526" lon="0.9407178134615681"><ele>467.0</ele><time>2026-04-27T13:31:31.002Z</time></trkpt><trkpt lat="42.13936025967305" lon="0.9405669482671991"><ele>466.5</ele><time>2026-04-27T13:31:32.002Z</time></trkpt><trkpt lat="42.139410397334835" lon="0.9404264737664983"><ele>466.0</ele><time>2026-04-27T13:31:33.002Z</time></trkpt><trkpt lat="42.13944448916492" lon="0.9402750188434812"><ele>465.5</ele><time>2026-04-27T13:31:34.002Z</time></trkpt><trkpt lat="42.13949001686457" lon="0.9401278792503146"><ele>465.0</ele><time>2026-04-27T13:31:35.002Z</time></trkpt><trkpt lat="42.13953134429194" lon="0.9399802961859893"><ele>464.25</ele><time>2026-04-27T13:31:36.002Z</time></trkpt><trkpt lat="42.13958156076183" lon="0.9398358003553355"><ele>463.5</ele><time>2026-04-27T13:31:37.002Z</time></trkpt><trkpt lat="42.139615742605564" lon="0.9396838940787247"><ele>462.75</ele><time>2026-04-27T13:31:38.002Z</time></trkpt><trkpt lat="42.1396548730347" lon="0.9395392892186912"><ele>462.0</ele><time>2026-04-27T13:31:39.002Z</time></trkpt><trkpt lat="42.13969539265598" lon="0.9393912721518951"><ele>462.0</ele><time>2026-04-27T13:31:40.002Z</time></trkpt><trkpt lat="42.139740921436506" lon="0.9392484811885703"><ele>462.0</ele><time>2026-04-27T13:31:41.002Z</time></trkpt><trkpt lat="42.13978123905194" lon="0.939100155371606"><ele>462.0</ele><time>2026-04-27T13:31:42.002Z</time></trkpt><trkpt lat="42.139822350089226" lon="0.9389538401764941"><ele>462.0</ele><time>2026-04-27T13:31:43.002Z</time></trkpt><trkpt lat="42.139861299320145" lon="0.9388090687538995"><ele>462.0</ele><time>2026-04-27T13:31:44.002Z</time></trkpt><trkpt lat="42.13990014061593" lon="0.9386644053033549"><ele>462.0</ele><time>2026-04-27T13:31:45.002Z</time></trkpt><trkpt lat="42.13994033859946" lon="0.938519818847386"><ele>462.0</ele><time>2026-04-27T13:31:46.002Z</time></trkpt><trkpt lat="42.139981342052266" lon="0.9383706132814333"><ele>462.0</ele><time>2026-04-27T13:31:47.002Z</time></trkpt><trkpt lat="42.140021536479516" lon="0.9382245439384193"><ele>462.0</ele><time>2026-04-27T13:31:48.002Z</time></trkpt><trkpt lat="42.14006053966851" lon="0.9380785274672853"><ele>462.0</ele><time>2026-04-27T13:31:49.002Z</time></trkpt><trkpt lat="42.140100067418246" lon="0.9379344237978859"><ele>462.0</ele><time>2026-04-27T13:31:50.002Z</time></trkpt><trkpt lat="42.14013779690209" lon="0.9377892194189962"><ele>462.0</ele><time>2026-04-27T13:31:51.003Z</time></trkpt><trkpt lat="42.14017515701593" lon="0.9376463918532132"><ele>462.0</ele><time>2026-04-27T13:31:52.003Z</time></trkpt><trkpt lat="42.140215717602196" lon="0.9375047413840585"><ele>462.00000000000006</ele><time>2026-04-27T13:31:53.003Z</time></trkpt><trkpt lat="42.14025603087935" lon="0.937361590532746"><ele>462.00000000000006</ele><time>2026-04-27T13:31:54.003Z</time></trkpt><trkpt lat="42.140294966969286" lon="0.9372199428630189"><ele>462.0</ele><time>2026-04-27T13:31:55.003Z</time></trkpt><trkpt lat="42.14033262762918" lon="0.9370795373984827"><ele>462.0</ele><time>2026-04-27T13:31:56.003Z</time></trkpt><trkpt lat="42.14037570919965" lon="0.9369385092412562"><ele>462.0</ele><time>2026-04-27T13:31:57.003Z</time></trkpt><trkpt lat="42.14041465835179" lon="0.9367969945112743"><ele>462.00000000000006</ele><time>2026-04-27T13:31:58.003Z</time></trkpt><trkpt lat="42.14045695886537" lon="0.9366581361352645"><ele>462.00000000000006</ele><time>2026-04-27T13:31:59.003Z</time></trkpt><trkpt lat="42.14049472720452" lon="0.936516662091078"><ele>462.0</ele><time>2026-04-27T13:32:00.003Z</time></trkpt><trkpt lat="42.140532901196785" lon="0.9363738956158907"><ele>462.0</ele><time>2026-04-27T13:32:01.003Z</time></trkpt><trkpt lat="42.14057325963624" lon="0.9362303152867933"><ele>463.0</ele><time>2026-04-27T13:32:02.003Z</time></trkpt><trkpt lat="42.14061290426276" lon="0.9360858942775369"><ele>464.0</ele><time>2026-04-27T13:32:03.003Z</time></trkpt><trkpt lat="42.14065365942998" lon="0.9359393220609231"><ele>465.0</ele><time>2026-04-27T13:32:04.003Z</time></trkpt><trkpt lat="42.1406940485588" lon="0.9357891170184411"><ele>466.0</ele><time>2026-04-27T13:32:05.003Z</time></trkpt><trkpt lat="42.14073563524103" lon="0.9356400171056313"><ele>466.0</ele><time>2026-04-27T13:32:06.003Z</time></trkpt><trkpt lat="42.140776615098744" lon="0.9354967142446993"><ele>466.0</ele><time>2026-04-27T13:32:07.003Z</time></trkpt><trkpt lat="42.14081693512253" lon="0.9353546630363614"><ele>466.0</ele><time>2026-04-27T13:32:08.003Z</time></trkpt><trkpt lat="42.14085796876924" lon="0.9352109985721123"><ele>466.0</ele><time>2026-04-27T13:32:09Z</time></trkpt><trkpt lat="42.1408979679881" lon="0.9350624529722912"><ele>465.5</ele><time>2026-04-27T13:32:10Z</time></trkpt><trkpt lat="42.140937977529724" lon="0.9349161026835335"><ele>465.0</ele><time>2026-04-27T13:32:11Z</time></trkpt><trkpt lat="42.14097929093884" lon="0.9347682489891542"><ele>464.5</ele><time>2026-04-27T13:32:12Z</time></trkpt><trkpt lat="42.14101984418415" lon="0.9346166619857579"><ele>464.0</ele><time>2026-04-27T13:32:13Z</time></trkpt><trkpt lat="42.14106145928831" lon="0.9344692021598064"><ele>464.0</ele><time>2026-04-27T13:32:14Z</time></trkpt><trkpt lat="42.141101676677415" lon="0.9343190552158931"><ele>464.0</ele><time>2026-04-27T13:32:15Z</time></trkpt><trkpt lat="42.1411421636333" lon="0.9341682959755593"><ele>464.0</ele><time>2026-04-27T13:32:16Z</time></trkpt><trkpt lat="42.141181721467774" lon="0.9340161712825958"><ele>464.0</ele><time>2026-04-27T13:32:17Z</time></trkpt><trkpt lat="42.141221896573676" lon="0.933864898866017"><ele>463.75</ele><time>2026-04-27T13:32:18Z</time></trkpt><trkpt lat="42.14126107828561" lon="0.9337135227151573"><ele>463.5</ele><time>2026-04-27T13:32:19Z</time></trkpt><trkpt lat="42.14129993577661" lon="0.9335653690248188"><ele>463.25</ele><time>2026-04-27T13:32:20Z</time></trkpt><trkpt lat="42.141339007446746" lon="0.9334141680400014"><ele>463.0</ele><time>2026-04-27T13:32:21Z</time></trkpt><trkpt lat="42.1413787351436" lon="0.9332685893142874"><ele>463.0</ele><time>2026-04-27T13:32:22Z</time></trkpt><trkpt lat="42.14141770401399" lon="0.933121514337772"><ele>463.0</ele><time>2026-04-27T13:32:23Z</time></trkpt><trkpt lat="42.14145650418086" lon="0.9329733348402256"><ele>463.0</ele><time>2026-04-27T13:32:24Z</time></trkpt><trkpt lat="42.14149692950656" lon="0.9328279111555451"><ele>463.0</ele><time>2026-04-27T13:32:25Z</time></trkpt><trkpt lat="42.14153693216832" lon="0.9326852837716597"><ele>461.4</ele><time>2026-04-27T13:32:26Z</time></trkpt><trkpt lat="42.14157620564205" lon="0.9325464854589869"><ele>459.79999999999995</ele><time>2026-04-27T13:32:27Z</time></trkpt><trkpt lat="42.141615816436634" lon="0.9324076188290937"><ele>458.2</ele><time>2026-04-27T13:32:28Z</time></trkpt><trkpt lat="42.14165398529288" lon="0.9322755190499521"><ele>456.6</ele><time>2026-04-27T13:32:29Z</time></trkpt><trkpt lat="42.14169385813507" lon="0.9321500097956453"><ele>455.0</ele><time>2026-04-27T13:32:30Z</time></trkpt><trkpt lat="42.14173745667383" lon="0.9320402204807099"><ele>454.99999999999994</ele><time>2026-04-27T13:32:31Z</time></trkpt><trkpt lat="42.141773126678245" lon="0.9319238355985453"><ele>455.0</ele><time>2026-04-27T13:32:32Z</time></trkpt><trkpt lat="42.14180766236065" lon="0.9318110063369434"><ele>455.0</ele><time>2026-04-27T13:32:33Z</time></trkpt><trkpt lat="42.14184242369642" lon="0.9317046687149494"><ele>455.0</ele><time>2026-04-27T13:32:34Z</time></trkpt><trkpt lat="42.141878253626395" lon="0.9316049848623813"><ele>454.99999999999994</ele><time>2026-04-27T13:32:35Z</time></trkpt><trkpt lat="42.14191229227443" lon="0.9315087335475968"><ele>455.0</ele><time>2026-04-27T13:32:36Z</time></trkpt><trkpt lat="42.14194394949915" lon="0.9314136540861913"><ele>454.8333333333333</ele><time>2026-04-27T13:32:37Z</time></trkpt><trkpt lat="42.14197489377336" lon="0.9313240517248631"><ele>454.66666666666663</ele><time>2026-04-27T13:32:38Z</time></trkpt><trkpt lat="42.142006654870755" lon="0.9312409989126088"><ele>454.5</ele><time>2026-04-27T13:32:39Z</time></trkpt><trkpt lat="42.14203474175812" lon="0.9311562148851689"><ele>454.33333333333337</ele><time>2026-04-27T13:32:40Z</time></trkpt><trkpt lat="42.14208955330819" lon="0.9310240285534838"><ele>454.1666666666667</ele><time>2026-04-27T13:32:42.001Z</time></trkpt><trkpt lat="42.14212025338907" lon="0.9309388216571469"><ele>454.0</ele><time>2026-04-27T13:32:44.001Z</time></trkpt><trkpt lat="42.1419764404421" lon="0.9308476547634147"><ele>453.4</ele><time>2026-04-27T13:32:46.001Z</time></trkpt><trkpt lat="42.14193447938813" lon="0.9307386908032546"><ele>452.79999999999995</ele><time>2026-04-27T13:32:48.001Z</time></trkpt><trkpt lat="42.141899826530846" lon="0.9306314578175428"><ele>452.20000000000005</ele><time>2026-04-27T13:32:50.001Z</time></trkpt><trkpt lat="42.14205315936955" lon="0.9305731663397423"><ele>451.6</ele><time>2026-04-27T13:32:53.001Z</time></trkpt><trkpt lat="42.14209733122752" lon="0.9304702865720145"><ele>451.0</ele><time>2026-04-27T13:32:55.001Z</time></trkpt><trkpt lat="42.14212963189257" lon="0.9303950557646521"><ele>451.0</ele><time>2026-04-27T13:32:57.001Z</time></trkpt><trkpt lat="42.14188006719084" lon="0.9305488441193488"><ele>451.0</ele><time>2026-04-27T13:32:59.001Z</time></trkpt><trkpt lat="42.14192774563523" lon="0.9304264620038045"><ele>451.0</ele><time>2026-04-27T13:33:04.001Z</time></trkpt><trkpt lat="42.14188305607667" lon="0.9305176144162465"><ele>451.00000000000006</ele><time>2026-04-27T13:33:06.001Z</time></trkpt><trkpt lat="42.141796348030304" lon="0.9305299850669342"><ele>451.0</ele><time>2026-04-27T13:33:08.001Z</time></trkpt><trkpt lat="42.141708006746654" lon="0.9304860082287788"><ele>451.0</ele><time>2026-04-27T13:33:10.001Z</time></trkpt><trkpt lat="42.1416618048345" lon="0.9304045545930113"><ele>451.0</ele><time>2026-04-27T13:33:12.001Z</time></trkpt><trkpt lat="42.141617171791914" lon="0.9303411765266426"><ele>451.00000000000006</ele><time>2026-04-27T13:37:52.002Z</time></trkpt><trkpt lat="42.14166104518728" lon="0.9304038922546806"><ele>451.0</ele><time>2026-04-27T13:38:03.002Z</time></trkpt><trkpt lat="42.141768344186964" lon="0.9305121092897525"><ele>451.00000000000006</ele><time>2026-04-27T13:51:43.001Z</time></trkpt><trkpt lat="42.14181550382429" lon="0.9305766167764508"><ele>451.0</ele><time>2026-04-27T13:51:45.001Z</time></trkpt><trkpt lat="42.14187090938588" lon="0.9306627792341409"><ele>451.0</ele><time>2026-04-27T13:51:47.001Z</time></trkpt><trkpt lat="42.14189330038034" lon="0.9307577826486741"><ele>451.0</ele><time>2026-04-27T13:51:49.001Z</time></trkpt><trkpt lat="42.14192290090927" lon="0.9308525603646748"><ele>451.00000000000006</ele><time>2026-04-27T13:51:51.001Z</time></trkpt><trkpt lat="42.14198530677273" lon="0.930937034612338"><ele>451.0</ele><time>2026-04-27T13:51:53.001Z</time></trkpt><trkpt lat="42.14206180361984" lon="0.9309606299231222"><ele>451.00000000000006</ele><time>2026-04-27T13:51:55.001Z</time></trkpt><trkpt lat="42.14216186406258" lon="0.9308658048787584"><ele>451.0</ele><time>2026-04-27T13:51:57.001Z</time></trkpt><trkpt lat="42.14219387586091" lon="0.9307742101255427"><ele>451.0</ele><time>2026-04-27T13:51:58.001Z</time></trkpt><trkpt lat="42.14222361311312" lon="0.9306729189867788"><ele>451.0</ele><time>2026-04-27T13:51:59.001Z</time></trkpt><trkpt lat="42.142257772828074" lon="0.9305716815692364"><ele>451.00000000000006</ele><time>2026-04-27T13:52:00.001Z</time></trkpt><trkpt lat="42.14229632686862" lon="0.9304668482982528"><ele>451.0</ele><time>2026-04-27T13:52:01.001Z</time></trkpt><trkpt lat="42.142336417093816" lon="0.9303586310693086"><ele>451.0</ele><time>2026-04-27T13:52:02.001Z</time></trkpt><trkpt lat="42.14237798914172" lon="0.9302448845772258"><ele>451.0</ele><time>2026-04-27T13:52:03.001Z</time></trkpt><trkpt lat="42.14242149216265" lon="0.930124980754856"><ele>451.0</ele><time>2026-04-27T13:52:04.001Z</time></trkpt><trkpt lat="42.14246213204369" lon="0.9300019080731406"><ele>451.0</ele><time>2026-04-27T13:52:05.001Z</time></trkpt><trkpt lat="42.14250980328881" lon="0.9298788174244177"><ele>451.0</ele><time>2026-04-27T13:52:06.001Z</time></trkpt><trkpt lat="42.14255408485381" lon="0.9297603732821325"><ele>450.4</ele><time>2026-04-27T13:52:07.001Z</time></trkpt><trkpt lat="42.142599953347045" lon="0.9296374110856954"><ele>449.8</ele><time>2026-04-27T13:52:08.001Z</time></trkpt><trkpt lat="42.14264557582745" lon="0.9295133819971846"><ele>449.19999999999993</ele><time>2026-04-27T13:52:09.001Z</time></trkpt><trkpt lat="42.14268976341337" lon="0.9293901752313326"><ele>448.59999999999997</ele><time>2026-04-27T13:52:10.001Z</time></trkpt><trkpt lat="42.14273530158015" lon="0.929267165423545"><ele>448.0</ele><time>2026-04-27T13:52:11.001Z</time></trkpt><trkpt lat="42.14277882042544" lon="0.9291464772048088"><ele>448.0</ele><time>2026-04-27T13:52:12.002Z</time></trkpt><trkpt lat="42.14282301266572" lon="0.929024766691052"><ele>447.99999999999994</ele><time>2026-04-27T13:52:13.002Z</time></trkpt><trkpt lat="42.142868100480015" lon="0.928901251756085"><ele>447.99999999999994</ele><time>2026-04-27T13:52:14.002Z</time></trkpt><trkpt lat="42.14291473086897" lon="0.9287759666914979"><ele>448.0</ele><time>2026-04-27T13:52:15.002Z</time></trkpt><trkpt lat="42.14295899652021" lon="0.9286499556008522"><ele>448.0</ele><time>2026-04-27T13:52:16.002Z</time></trkpt><trkpt lat="42.14300459786324" lon="0.9285246418358752"><ele>448.0</ele><time>2026-04-27T13:52:17.002Z</time></trkpt><trkpt lat="42.143049842195005" lon="0.9283988861613663"><ele>447.99999999999994</ele><time>2026-04-27T13:52:18.002Z</time></trkpt><trkpt lat="42.143096206374096" lon="0.928272915401259"><ele>447.99999999999994</ele><time>2026-04-27T13:52:19.002Z</time></trkpt><trkpt lat="42.14314419504891" lon="0.9281471869071726"><ele>448.0</ele><time>2026-04-27T13:52:20.002Z</time></trkpt><trkpt lat="42.143192480688256" lon="0.9280204735124726"><ele>448.0</ele><time>2026-04-27T13:52:21.002Z</time></trkpt><trkpt lat="42.14324017538289" lon="0.9278926256152545"><ele>448.2</ele><time>2026-04-27T13:52:22.002Z</time></trkpt><trkpt lat="42.1432866596597" lon="0.9277634284519244"><ele>448.4</ele><time>2026-04-27T13:52:23.002Z</time></trkpt><trkpt lat="42.143332421788614" lon="0.9276373769160752"><ele>448.59999999999997</ele><time>2026-04-27T13:52:24.002Z</time></trkpt><trkpt lat="42.143380170612645" lon="0.9275084374827528"><ele>448.79999999999995</ele><time>2026-04-27T13:52:25.002Z</time></trkpt><trkpt lat="42.14342873212492" lon="0.9273786836560501"><ele>449.0</ele><time>2026-04-27T13:52:26.002Z</time></trkpt><trkpt lat="42.14347511864776" lon="0.9272506635601963"><ele>449.0</ele><time>2026-04-27T13:52:27.002Z</time></trkpt><trkpt lat="42.143523204828234" lon="0.9271236490644302"><ele>449.0</ele><time>2026-04-27T13:52:28.002Z</time></trkpt><trkpt lat="42.1435704968448" lon="0.9269932927643514"><ele>449.0</ele><time>2026-04-27T13:52:29.002Z</time></trkpt><trkpt lat="42.14361745303655" lon="0.926865115198975"><ele>449.0</ele><time>2026-04-27T13:52:30.002Z</time></trkpt><trkpt lat="42.143666248383994" lon="0.9267357575780695"><ele>449.0</ele><time>2026-04-27T13:52:31.002Z</time></trkpt><trkpt lat="42.14371487726255" lon="0.9266055678611163"><ele>449.2</ele><time>2026-04-27T13:52:32.002Z</time></trkpt><trkpt lat="42.143763859633296" lon="0.926476784597225"><ele>449.4</ele><time>2026-04-27T13:52:33.002Z</time></trkpt><trkpt lat="42.14381247860317" lon="0.9263456105716209"><ele>449.6</ele><time>2026-04-27T13:52:34.002Z</time></trkpt><trkpt lat="42.14386146027604" lon="0.9262121996287133"><ele>449.8</ele><time>2026-04-27T13:52:35.002Z</time></trkpt><trkpt lat="42.143910229875544" lon="0.9260792410464429"><ele>450.0</ele><time>2026-04-27T13:52:36.002Z</time></trkpt><trkpt lat="42.143959651841556" lon="0.9259469713087514"><ele>449.6</ele><time>2026-04-27T13:52:37.002Z</time></trkpt><trkpt lat="42.14400995307273" lon="0.9258136521710286"><ele>449.2</ele><time>2026-04-27T13:52:38.002Z</time></trkpt><trkpt lat="42.14406041565431" lon="0.9256815289734112"><ele>448.79999999999995</ele><time>2026-04-27T13:52:39.002Z</time></trkpt><trkpt lat="42.14410859149108" lon="0.9255464665616459"><ele>448.4</ele><time>2026-04-27T13:52:40.002Z</time></trkpt><trkpt lat="42.144159251546434" lon="0.9254114708902692"><ele>448.0</ele><time>2026-04-27T13:52:41.002Z</time></trkpt><trkpt lat="42.14421107826666" lon="0.9252774434861186"><ele>448.0</ele><time>2026-04-27T13:52:42.002Z</time></trkpt><trkpt lat="42.144262466223466" lon="0.9251417061652613"><ele>447.99999999999994</ele><time>2026-04-27T13:52:43.002Z</time></trkpt><trkpt lat="42.144311542730556" lon="0.9250076949048445"><ele>447.99999999999994</ele><time>2026-04-27T13:52:44.002Z</time></trkpt><trkpt lat="42.14436011048417" lon="0.9248725639072367"><ele>448.0</ele><time>2026-04-27T13:52:45.002Z</time></trkpt><trkpt lat="42.14440753706813" lon="0.9247350370513511"><ele>448.0</ele><time>2026-04-27T13:52:46.002Z</time></trkpt><trkpt lat="42.14445241647479" lon="0.924594860551319"><ele>447.75</ele><time>2026-04-27T13:52:47.002Z</time></trkpt><trkpt lat="42.144496230238246" lon="0.9244536827455775"><ele>447.5</ele><time>2026-04-27T13:52:48.003Z</time></trkpt><trkpt lat="42.14453722583758" lon="0.924310699726172"><ele>447.25</ele><time>2026-04-27T13:52:49.003Z</time></trkpt><trkpt lat="42.14457218670975" lon="0.9241657634880517"><ele>447.0</ele><time>2026-04-27T13:52:50.003Z</time></trkpt><trkpt lat="42.14459983126441" lon="0.9240192767345871"><ele>447.5</ele><time>2026-04-27T13:52:51.003Z</time></trkpt><trkpt lat="42.14462254384481" lon="0.9238684280084323"><ele>448.0</ele><time>2026-04-27T13:52:52.003Z</time></trkpt><trkpt lat="42.14464080148649" lon="0.9237174791290628"><ele>448.5</ele><time>2026-04-27T13:52:53.003Z</time></trkpt><trkpt lat="42.14465207172587" lon="0.9235648011528379"><ele>449.0</ele><time>2026-04-27T13:52:54.003Z</time></trkpt><trkpt lat="42.14465964376351" lon="0.9234130945892142"><ele>448.5</ele><time>2026-04-27T13:52:55.003Z</time></trkpt><trkpt lat="42.14466144620639" lon="0.923258696600865"><ele>448.0</ele><time>2026-04-27T13:52:56.003Z</time></trkpt><trkpt lat="42.14465871741546" lon="0.9231066541508793"><ele>447.5</ele><time>2026-04-27T13:52:57.003Z</time></trkpt><trkpt lat="42.14465339308384" lon="0.9229531182574271"><ele>447.0</ele><time>2026-04-27T13:52:58.003Z</time></trkpt><trkpt lat="42.14464436155581" lon="0.9228017300426345"><ele>447.0</ele><time>2026-04-27T13:52:59.003Z</time></trkpt><trkpt lat="42.14463408572709" lon="0.9226515280153869"><ele>447.0</ele><time>2026-04-27T13:53:00.003Z</time></trkpt><trkpt lat="42.144618103952865" lon="0.9224975547070575"><ele>447.0</ele><time>2026-04-27T13:53:01.003Z</time></trkpt><trkpt lat="42.1446044268433" lon="0.9223428128548836"><ele>447.0</ele><time>2026-04-27T13:53:02.003Z</time></trkpt><trkpt lat="42.14459079909778" lon="0.9221905347907058"><ele>446.6</ele><time>2026-04-27T13:53:03.003Z</time></trkpt><trkpt lat="42.14458006532398" lon="0.922040510894695"><ele>446.20000000000005</ele><time>2026-04-27T13:53:04.003Z</time></trkpt><trkpt lat="42.14456682491935" lon="0.9218915774539984"><ele>445.8</ele><time>2026-04-27T13:53:05.003Z</time></trkpt><trkpt lat="42.14455531779162" lon="0.9217416863005593"><ele>445.4</ele><time>2026-04-27T13:53:06.003Z</time></trkpt><trkpt lat="42.14454341356022" lon="0.9215926228810111"><ele>445.0</ele><time>2026-04-27T13:53:07.003Z</time></trkpt><trkpt lat="42.144532884098574" lon="0.9214447701506718"><ele>445.0</ele><time>2026-04-27T13:53:08.003Z</time></trkpt><trkpt lat="42.14452251156025" lon="0.9212990036845723"><ele>445.0</ele><time>2026-04-27T13:53:09Z</time></trkpt><trkpt lat="42.14451681448877" lon="0.9211537578005736"><ele>445.0</ele><time>2026-04-27T13:53:10Z</time></trkpt><trkpt lat="42.14451567233621" lon="0.9210123143886276"><ele>445.0</ele><time>2026-04-27T13:53:11Z</time></trkpt><trkpt lat="42.14453694987942" lon="0.9208765067025956"><ele>445.0</ele><time>2026-04-27T13:53:12Z</time></trkpt><trkpt lat="42.1445461881824" lon="0.920745586489175"><ele>445.0</ele><time>2026-04-27T13:53:13Z</time></trkpt><trkpt lat="42.144568612016315" lon="0.9206120250294647"><ele>445.0</ele><time>2026-04-27T13:53:14Z</time></trkpt><trkpt lat="42.14460481724481" lon="0.9204772907432976"><ele>445.0</ele><time>2026-04-27T13:53:15Z</time></trkpt><trkpt lat="42.14464562028136" lon="0.9203374982889153"><ele>445.0</ele><time>2026-04-27T13:53:16Z</time></trkpt><trkpt lat="42.14468426679324" lon="0.9201940033653918"><ele>445.0</ele><time>2026-04-27T13:53:17Z</time></trkpt><trkpt lat="42.144729960500065" lon="0.9200597761655532"><ele>444.75</ele><time>2026-04-27T13:53:18Z</time></trkpt><trkpt lat="42.14477694355566" lon="0.9199240223385416"><ele>444.5</ele><time>2026-04-27T13:53:19Z</time></trkpt><trkpt lat="42.14482958368692" lon="0.9197904529069664"><ele>444.25</ele><time>2026-04-27T13:53:20Z</time></trkpt><trkpt lat="42.14489237996565" lon="0.919661455685144"><ele>444.0</ele><time>2026-04-27T13:53:21Z</time></trkpt><trkpt lat="42.14496315890317" lon="0.919544549663048"><ele>444.4</ele><time>2026-04-27T13:53:22Z</time></trkpt><trkpt lat="42.14503726079514" lon="0.9194326800236845"><ele>444.79999999999995</ele><time>2026-04-27T13:53:23Z</time></trkpt><trkpt lat="42.14511559888764" lon="0.9193197087317564"><ele>445.20000000000005</ele><time>2026-04-27T13:53:24Z</time></trkpt><trkpt lat="42.145197301982265" lon="0.9192150486313704"><ele>445.6</ele><time>2026-04-27T13:53:25Z</time></trkpt><trkpt lat="42.14527471032554" lon="0.9191099980361799"><ele>446.0</ele><time>2026-04-27T13:53:26Z</time></trkpt><trkpt lat="42.14535222795864" lon="0.919010120380051"><ele>446.0</ele><time>2026-04-27T13:53:27Z</time></trkpt><trkpt lat="42.14543375987302" lon="0.9189096414914402"><ele>446.0</ele><time>2026-04-27T13:53:28Z</time></trkpt><trkpt lat="42.145520939972215" lon="0.918819721659496"><ele>446.0</ele><time>2026-04-27T13:53:29Z</time></trkpt><trkpt lat="42.14560508529241" lon="0.9187322747680928"><ele>446.0</ele><time>2026-04-27T13:53:30Z</time></trkpt><trkpt lat="42.145686208083845" lon="0.9186383510825904"><ele>446.0</ele><time>2026-04-27T13:53:31Z</time></trkpt><trkpt lat="42.14576126380642" lon="0.9185467121966583"><ele>445.6</ele><time>2026-04-27T13:53:32Z</time></trkpt><trkpt lat="42.14583435658826" lon="0.9184554466159525"><ele>445.20000000000005</ele><time>2026-04-27T13:53:33Z</time></trkpt><trkpt lat="42.145909392329266" lon="0.9183679132883954"><ele>444.79999999999995</ele><time>2026-04-27T13:53:34Z</time></trkpt><trkpt lat="42.14598490537121" lon="0.918281598370577"><ele>444.4</ele><time>2026-04-27T13:53:35Z</time></trkpt><trkpt lat="42.14606291416256" lon="0.9181962512200972"><ele>444.0</ele><time>2026-04-27T13:53:36Z</time></trkpt><trkpt lat="42.14614051428354" lon="0.9181094094411782"><ele>443.4</ele><time>2026-04-27T13:53:37Z</time></trkpt><trkpt lat="42.14622254206848" lon="0.9180242601971816"><ele>442.79999999999995</ele><time>2026-04-27T13:53:38Z</time></trkpt><trkpt lat="42.146304058774625" lon="0.9179438157678403"><ele>442.20000000000005</ele><time>2026-04-27T13:53:39Z</time></trkpt><trkpt lat="42.14638760542528" lon="0.9178678177463929"><ele>441.6</ele><time>2026-04-27T13:53:40Z</time></trkpt><trkpt lat="42.14647847910424" lon="0.9177969304976257"><ele>441.0</ele><time>2026-04-27T13:53:41Z</time></trkpt><trkpt lat="42.146574832499994" lon="0.9177332262489126"><ele>441.6</ele><time>2026-04-27T13:53:42Z</time></trkpt><trkpt lat="42.14666917707827" lon="0.9176780148027649"><ele>442.20000000000005</ele><time>2026-04-27T13:53:43Z</time></trkpt><trkpt lat="42.14677051294042" lon="0.9176237757187397"><ele>442.79999999999995</ele><time>2026-04-27T13:53:44Z</time></trkpt><trkpt lat="42.14687331899677" lon="0.9175838371142431"><ele>443.4</ele><time>2026-04-27T13:53:45.001Z</time></trkpt><trkpt lat="42.14697946805521" lon="0.9175444483190484"><ele>444.0</ele><time>2026-04-27T13:53:46.001Z</time></trkpt><trkpt lat="42.1470837806333" lon="0.9175032802709776"><ele>444.0</ele><time>2026-04-27T13:53:47.001Z</time></trkpt><trkpt lat="42.14719206456223" lon="0.9174650085163307"><ele>444.0</ele><time>2026-04-27T13:53:48.001Z</time></trkpt><trkpt lat="42.14729605239815" lon="0.917431696271942"><ele>444.0</ele><time>2026-04-27T13:53:49.001Z</time></trkpt><trkpt lat="42.14740276031525" lon="0.9173978849293833"><ele>444.0</ele><time>2026-04-27T13:53:50.001Z</time></trkpt><trkpt lat="42.14750876711453" lon="0.9173650186966391"><ele>444.0</ele><time>2026-04-27T13:53:51.001Z</time></trkpt><trkpt lat="42.14762042624416" lon="0.9173384241052361"><ele>444.4</ele><time>2026-04-27T13:53:52.001Z</time></trkpt><trkpt lat="42.14772425909801" lon="0.9172882175002689"><ele>444.79999999999995</ele><time>2026-04-27T13:53:53.001Z</time></trkpt><trkpt lat="42.14783064695643" lon="0.917249171749247"><ele>445.20000000000005</ele><time>2026-04-27T13:53:54.001Z</time></trkpt><trkpt lat="42.147937618790685" lon="0.9172083775656863"><ele>445.6</ele><time>2026-04-27T13:53:55.001Z</time></trkpt><trkpt lat="42.14804294365355" lon="0.917157616319836"><ele>446.0</ele><time>2026-04-27T13:53:56.001Z</time></trkpt><trkpt lat="42.148150185782924" lon="0.9171199563418357"><ele>446.20000000000005</ele><time>2026-04-27T13:53:57.001Z</time></trkpt><trkpt lat="42.14825422002284" lon="0.9170772606763299"><ele>446.40000000000003</ele><time>2026-04-27T13:53:58.001Z</time></trkpt><trkpt lat="42.148360341050875" lon="0.9170365923373308"><ele>446.6</ele><time>2026-04-27T13:53:59.001Z</time></trkpt><trkpt lat="42.14846548001821" lon="0.9170006775819174"><ele>446.8</ele><time>2026-04-27T13:54:00.001Z</time></trkpt><trkpt lat="42.14857100069139" lon="0.9169510777983879"><ele>447.0</ele><time>2026-04-27T13:54:01.001Z</time></trkpt><trkpt lat="42.148675711244636" lon="0.9169077070902054"><ele>447.0</ele><time>2026-04-27T13:54:02.001Z</time></trkpt><trkpt lat="42.14878231953046" lon="0.9168599371842686"><ele>447.00000000000006</ele><time>2026-04-27T13:54:03.001Z</time></trkpt><trkpt lat="42.148888156548644" lon="0.9168198956944167"><ele>447.00000000000006</ele><time>2026-04-27T13:54:04.001Z</time></trkpt><trkpt lat="42.14899376409033" lon="0.9167810353642649"><ele>447.0</ele><time>2026-04-27T13:54:05.001Z</time></trkpt><trkpt lat="42.149100065643225" lon="0.9167382055553084"><ele>447.0</ele><time>2026-04-27T13:54:06.001Z</time></trkpt><trkpt lat="42.149206843732415" lon="0.9166977143825767"><ele>446.40000000000003</ele><time>2026-04-27T13:54:07.001Z</time></trkpt><trkpt lat="42.14931314701488" lon="0.9166569332800515"><ele>445.80000000000007</ele><time>2026-04-27T13:54:08.001Z</time></trkpt><trkpt lat="42.14942113481419" lon="0.9166175156309354"><ele>445.2</ele><time>2026-04-27T13:54:09.001Z</time></trkpt><trkpt lat="42.149530072138425" lon="0.9165788315766346"><ele>444.6</ele><time>2026-04-27T13:54:10.001Z</time></trkpt><trkpt lat="42.14963870282569" lon="0.9165401051973241"><ele>444.0</ele><time>2026-04-27T13:54:11.001Z</time></trkpt><trkpt lat="42.149746787082464" lon="0.9165027602616146"><ele>444.0</ele><time>2026-04-27T13:54:12.001Z</time></trkpt><trkpt lat="42.149856224596256" lon="0.916464830055826"><ele>444.0</ele><time>2026-04-27T13:54:13.001Z</time></trkpt><trkpt lat="42.14996710519391" lon="0.9164247613860321"><ele>444.0</ele><time>2026-04-27T13:54:14.001Z</time></trkpt><trkpt lat="42.15007726168954" lon="0.916385097333496"><ele>444.0</ele><time>2026-04-27T13:54:15.001Z</time></trkpt><trkpt lat="42.1501870617034" lon="0.9163425403668155"><ele>443.4</ele><time>2026-04-27T13:54:16.001Z</time></trkpt><trkpt lat="42.15029551717787" lon="0.9163028667346935"><ele>442.79999999999995</ele><time>2026-04-27T13:54:17.001Z</time></trkpt><trkpt lat="42.15040389169443" lon="0.9162639315118728"><ele>442.20000000000005</ele><time>2026-04-27T13:54:18.001Z</time></trkpt><trkpt lat="42.15051325313477" lon="0.916226383822984"><ele>441.6</ele><time>2026-04-27T13:54:19.001Z</time></trkpt><trkpt lat="42.150620190113074" lon="0.9161884821867624"><ele>441.0</ele><time>2026-04-27T13:54:20.002Z</time></trkpt><trkpt lat="42.15072871718853" lon="0.9161474982887651"><ele>440.6</ele><time>2026-04-27T13:54:21.002Z</time></trkpt><trkpt lat="42.15083609782177" lon="0.9161094021641797"><ele>440.20000000000005</ele><time>2026-04-27T13:54:22.002Z</time></trkpt><trkpt lat="42.150943839123194" lon="0.9160708195757079"><ele>439.79999999999995</ele><time>2026-04-27T13:54:23.002Z</time></trkpt><trkpt lat="42.15105129618671" lon="0.9160326671923008"><ele>439.4</ele><time>2026-04-27T13:54:24.002Z</time></trkpt><trkpt lat="42.151159485295736" lon="0.915993413617557"><ele>439.0</ele><time>2026-04-27T13:54:25.002Z</time></trkpt><trkpt lat="42.15126721320002" lon="0.9159552715886847"><ele>439.0</ele><time>2026-04-27T13:54:26.002Z</time></trkpt><trkpt lat="42.1513776252491" lon="0.9159158653344673"><ele>439.0</ele><time>2026-04-27T13:54:27.002Z</time></trkpt><trkpt lat="42.151486496835524" lon="0.9158761171766748"><ele>439.0</ele><time>2026-04-27T13:54:28.002Z</time></trkpt><trkpt lat="42.15159345878645" lon="0.9158340216339999"><ele>439.0</ele><time>2026-04-27T13:54:29.002Z</time></trkpt><trkpt lat="42.15170150405386" lon="0.9157938844734365"><ele>439.0</ele><time>2026-04-27T13:54:30.002Z</time></trkpt><trkpt lat="42.15181056238643" lon="0.9157568045315423"><ele>439.0</ele><time>2026-04-27T13:54:31.002Z</time></trkpt><trkpt lat="42.151917807949" lon="0.9157206331629001"><ele>439.0</ele><time>2026-04-27T13:54:32.002Z</time></trkpt><trkpt lat="42.152026399720235" lon="0.9156796903377902"><ele>439.0</ele><time>2026-04-27T13:54:33.002Z</time></trkpt><trkpt lat="42.152135620069316" lon="0.9156372609241502"><ele>439.0</ele><time>2026-04-27T13:54:34.002Z</time></trkpt><trkpt lat="42.15224391535046" lon="0.9155970189368656"><ele>439.0</ele><time>2026-04-27T13:54:35.002Z</time></trkpt><trkpt lat="42.15235436029891" lon="0.9155602782537086"><ele>439.0</ele><time>2026-04-27T13:54:36.002Z</time></trkpt><trkpt lat="42.15246199851179" lon="0.9155185303342884"><ele>439.0</ele><time>2026-04-27T13:54:37.002Z</time></trkpt><trkpt lat="42.15257219649938" lon="0.9154790317773002"><ele>439.0</ele><time>2026-04-27T13:54:38.002Z</time></trkpt><trkpt lat="42.15268330593723" lon="0.9154392541131473"><ele>440.25</ele><time>2026-04-27T13:54:39.002Z</time></trkpt><trkpt lat="42.15279141782777" lon="0.9154004719669512"><ele>441.5</ele><time>2026-04-27T13:54:40.002Z</time></trkpt><trkpt lat="42.15290198231027" lon="0.9153590190050168"><ele>442.75</ele><time>2026-04-27T13:54:41.002Z</time></trkpt><trkpt lat="42.153009490732856" lon="0.9153152918640857"><ele>444.0</ele><time>2026-04-27T13:54:42.002Z</time></trkpt><trkpt lat="42.15312039297064" lon="0.9152739781151487"><ele>444.25</ele><time>2026-04-27T13:54:43.002Z</time></trkpt><trkpt lat="42.153231973043" lon="0.9152342675616637"><ele>444.5</ele><time>2026-04-27T13:54:44.002Z</time></trkpt><trkpt lat="42.15334593381909" lon="0.9151985962678937"><ele>444.75</ele><time>2026-04-27T13:54:45.002Z</time></trkpt><trkpt lat="42.15345600717751" lon="0.9151578649368631"><ele>445.0</ele><time>2026-04-27T13:54:46.002Z</time></trkpt><trkpt lat="42.15356682426225" lon="0.9151201736957483"><ele>445.0</ele><time>2026-04-27T13:54:47.002Z</time></trkpt><trkpt lat="42.15367655478531" lon="0.9150861304561858"><ele>445.0</ele><time>2026-04-27T13:54:48.002Z</time></trkpt><trkpt lat="42.153789645174726" lon="0.9150536009850164"><ele>445.0</ele><time>2026-04-27T13:54:49.002Z</time></trkpt><trkpt lat="42.15389954271085" lon="0.9150214357492875"><ele>445.0</ele><time>2026-04-27T13:54:50.002Z</time></trkpt><trkpt lat="42.15400853618403" lon="0.9149909381894081"><ele>443.75</ele><time>2026-04-27T13:54:51.002Z</time></trkpt><trkpt lat="42.15411735358095" lon="0.9149601647237342"><ele>442.5</ele><time>2026-04-27T13:54:52.002Z</time></trkpt><trkpt lat="42.15422792097921" lon="0.9149343821829936"><ele>441.25</ele><time>2026-04-27T13:54:53.002Z</time></trkpt><trkpt lat="42.15433944814216" lon="0.91490834772623"><ele>440.0</ele><time>2026-04-27T13:54:54.002Z</time></trkpt><trkpt lat="42.15445215092586" lon="0.9148824433036404"><ele>440.0</ele><time>2026-04-27T13:54:55.003Z</time></trkpt><trkpt lat="42.154564832315074" lon="0.9148581237600989"><ele>440.0</ele><time>2026-04-27T13:54:56.003Z</time></trkpt><trkpt lat="42.1546798426784" lon="0.9148375343691565"><ele>440.0</ele><time>2026-04-27T13:54:57.003Z</time></trkpt><trkpt lat="42.154793735669124" lon="0.9148218169549659"><ele>440.0</ele><time>2026-04-27T13:54:58.003Z</time></trkpt><trkpt lat="42.1549050423805" lon="0.9147926195676136"><ele>440.0</ele><time>2026-04-27T13:54:59.003Z</time></trkpt><trkpt lat="42.15501702357961" lon="0.914768362359193"><ele>440.0</ele><time>2026-04-27T13:55:00.003Z</time></trkpt><trkpt lat="42.15512823710369" lon="0.9147491155205256"><ele>440.0</ele><time>2026-04-27T13:55:01.003Z</time></trkpt><trkpt lat="42.15523849838003" lon="0.9147288300869969"><ele>440.0</ele><time>2026-04-27T13:55:02.003Z</time></trkpt><trkpt lat="42.15534961412301" lon="0.9147094194658332"><ele>440.0</ele><time>2026-04-27T13:55:03.003Z</time></trkpt><trkpt lat="42.155460037981534" lon="0.9146899281862345"><ele>440.0</ele><time>2026-04-27T13:55:04.003Z</time></trkpt><trkpt lat="42.15557177168829" lon="0.9146710818041075"><ele>440.0</ele><time>2026-04-27T13:55:05.003Z</time></trkpt><trkpt lat="42.15568273006886" lon="0.9146525175191755"><ele>440.0</ele><time>2026-04-27T13:55:06.003Z</time></trkpt><trkpt lat="42.15579258500603" lon="0.9146358011045975"><ele>440.0</ele><time>2026-04-27T13:55:07.003Z</time></trkpt><trkpt lat="42.155902383531235" lon="0.9146214919670649"><ele>440.0</ele><time>2026-04-27T13:55:08.003Z</time></trkpt><trkpt lat="42.15601310984245" lon="0.9146107535586183"><ele>440.5</ele><time>2026-04-27T13:55:09.003Z</time></trkpt><trkpt lat="42.15612489284972" lon="0.9146028272624108"><ele>441.0</ele><time>2026-04-27T13:55:10.003Z</time></trkpt><trkpt lat="42.1562371420495" lon="0.9145986499561104"><ele>441.5</ele><time>2026-04-27T13:55:11.003Z</time></trkpt><trkpt lat="42.156350485969526" lon="0.9145974877156521"><ele>442.0</ele><time>2026-04-27T13:55:12.003Z</time></trkpt><trkpt lat="42.156463134042774" lon="0.9145976506458745"><ele>443.20000000000005</ele><time>2026-04-27T13:55:13.003Z</time></trkpt><trkpt lat="42.15657534948059" lon="0.9145954658646493"><ele>444.40000000000003</ele><time>2026-04-27T13:55:14.003Z</time></trkpt><trkpt lat="42.15668729221038" lon="0.9145871761947527"><ele>445.59999999999997</ele><time>2026-04-27T13:55:14.999Z</time></trkpt><trkpt lat="42.15679953105779" lon="0.9145772186011573"><ele>446.79999999999995</ele><time>2026-04-27T13:55:15.999Z</time></trkpt><trkpt lat="42.15691192844396" lon="0.9145665729961161"><ele>448.0</ele><time>2026-04-27T13:55:16.999Z</time></trkpt><trkpt lat="42.15702584195458" lon="0.9145562372146036"><ele>448.0</ele><time>2026-04-27T13:55:17.999Z</time></trkpt><trkpt lat="42.15713979155788" lon="0.9145508649226421"><ele>448.0</ele><time>2026-04-27T13:55:18.999Z</time></trkpt><trkpt lat="42.15725364056932" lon="0.914528735721"><ele>448.0</ele><time>2026-04-27T13:55:19.999Z</time></trkpt><trkpt lat="42.15736679513139" lon="0.9145037774090624"><ele>448.0</ele><time>2026-04-27T13:55:20.999Z</time></trkpt><trkpt lat="42.15747545453883" lon="0.914462912792586"><ele>447.75</ele><time>2026-04-27T13:55:21.999Z</time></trkpt><trkpt lat="42.15758341363823" lon="0.9144107381868148"><ele>447.5</ele><time>2026-04-27T13:55:22.999Z</time></trkpt><trkpt lat="42.157687142510426" lon="0.9143436794918625"><ele>447.25</ele><time>2026-04-27T13:55:23.999Z</time></trkpt><trkpt lat="42.157785714590666" lon="0.9142654623729851"><ele>447.0</ele><time>2026-04-27T13:55:24.999Z</time></trkpt><trkpt lat="42.15787787210091" lon="0.9141798644597604"><ele>446.8</ele><time>2026-04-27T13:55:25.999Z</time></trkpt><trkpt lat="42.15796767941017" lon="0.9140897291588089"><ele>446.6</ele><time>2026-04-27T13:55:26.999Z</time></trkpt><trkpt lat="42.15805174727835" lon="0.9139895742233769"><ele>446.40000000000003</ele><time>2026-04-27T13:55:27.999Z</time></trkpt><trkpt lat="42.15813151977776" lon="0.9138860835185139"><ele>446.20000000000005</ele><time>2026-04-27T13:55:28.999Z</time></trkpt><trkpt lat="42.15820846158972" lon="0.913780122724118"><ele>446.0</ele><time>2026-04-27T13:55:30Z</time></trkpt><trkpt lat="42.15828439164377" lon="0.9136693932086752"><ele>446.0</ele><time>2026-04-27T13:55:31Z</time></trkpt><trkpt lat="42.158358270085486" lon="0.9135590964018997"><ele>446.0</ele><time>2026-04-27T13:55:32Z</time></trkpt><trkpt lat="42.15842942333857" lon="0.9134460513942934"><ele>446.0</ele><time>2026-04-27T13:55:33Z</time></trkpt><trkpt lat="42.15850137840277" lon="0.9133322933039058"><ele>446.0</ele><time>2026-04-27T13:55:34Z</time></trkpt><trkpt lat="42.158574582773234" lon="0.9132171151924551"><ele>446.0</ele><time>2026-04-27T13:55:35Z</time></trkpt><trkpt lat="42.158648631478954" lon="0.9131022265139145"><ele>444.5</ele><time>2026-04-27T13:55:36Z</time></trkpt><trkpt lat="42.15872522974563" lon="0.9129889139748957"><ele>443.0</ele><time>2026-04-27T13:55:37Z</time></trkpt><trkpt lat="42.15880095258766" lon="0.9128757463153311"><ele>441.5</ele><time>2026-04-27T13:55:38Z</time></trkpt><trkpt lat="42.1588761713264" lon="0.9127632519297713"><ele>440.0</ele><time>2026-04-27T13:55:39Z</time></trkpt><trkpt lat="42.15894935665759" lon="0.9126508868250068"><ele>440.2</ele><time>2026-04-27T13:55:40Z</time></trkpt><trkpt lat="42.15902392274067" lon="0.9125352861203896"><ele>440.4</ele><time>2026-04-27T13:55:41Z</time></trkpt><trkpt lat="42.15909563822252" lon="0.912421710635399"><ele>440.6</ele><time>2026-04-27T13:55:42Z</time></trkpt><trkpt lat="42.159165627867985" lon="0.9123077909115069"><ele>440.8</ele><time>2026-04-27T13:55:43Z</time></trkpt><trkpt lat="42.159236982552095" lon="0.9121982053421266"><ele>441.0</ele><time>2026-04-27T13:55:44Z</time></trkpt><trkpt lat="42.1593101913784" lon="0.912085861580582"><ele>441.0</ele><time>2026-04-27T13:55:45Z</time></trkpt><trkpt lat="42.159383649866385" lon="0.9119705282768902"><ele>441.0</ele><time>2026-04-27T13:55:46Z</time></trkpt><trkpt lat="42.15944952766119" lon="0.911853210231931"><ele>441.0</ele><time>2026-04-27T13:55:47Z</time></trkpt><trkpt lat="42.15951230368593" lon="0.9117297999142966"><ele>441.0</ele><time>2026-04-27T13:55:48Z</time></trkpt><trkpt lat="42.159570359404256" lon="0.9116029067582371"><ele>441.0</ele><time>2026-04-27T13:55:49Z</time></trkpt><trkpt lat="42.159629110932975" lon="0.9114777379600456"><ele>439.0</ele><time>2026-04-27T13:55:50Z</time></trkpt><trkpt lat="42.159688187387594" lon="0.911350243697221"><ele>437.0</ele><time>2026-04-27T13:55:51Z</time></trkpt><trkpt lat="42.15974601719779" lon="0.9112206528899406"><ele>435.0</ele><time>2026-04-27T13:55:52Z</time></trkpt><trkpt lat="42.15980285185484" lon="0.9110885974616557"><ele>433.0</ele><time>2026-04-27T13:55:53Z</time></trkpt><trkpt lat="42.15986003205859" lon="0.910955594366903"><ele>433.0</ele><time>2026-04-27T13:55:54.001Z</time></trkpt><trkpt lat="42.15991471779906" lon="0.910822087051284"><ele>433.0</ele><time>2026-04-27T13:55:55.001Z</time></trkpt><trkpt lat="42.159973888691596" lon="0.910687563740188"><ele>433.0</ele><time>2026-04-27T13:55:56.001Z</time></trkpt><trkpt lat="42.1600320042002" lon="0.9105535371371124"><ele>433.0</ele><time>2026-04-27T13:55:57.001Z</time></trkpt><trkpt lat="42.160089947838756" lon="0.9104210502748118"><ele>433.0</ele><time>2026-04-27T13:55:58.001Z</time></trkpt><trkpt lat="42.160148726036596" lon="0.9102920516673098"><ele>432.99999999999994</ele><time>2026-04-27T13:55:59.001Z</time></trkpt><trkpt lat="42.16020921627515" lon="0.9101680528930941"><ele>432.99999999999994</ele><time>2026-04-27T13:56:00.001Z</time></trkpt><trkpt lat="42.160277995654916" lon="0.9100521083638533"><ele>433.0</ele><time>2026-04-27T13:56:01.001Z</time></trkpt><trkpt lat="42.160360277541244" lon="0.9099449794278833"><ele>433.0</ele><time>2026-04-27T13:56:02.001Z</time></trkpt><trkpt lat="42.16045062741554" lon="0.9098512015620929"><ele>432.25</ele><time>2026-04-27T13:56:03.001Z</time></trkpt><trkpt lat="42.160546500060946" lon="0.9097624330697479"><ele>431.5</ele><time>2026-04-27T13:56:04.001Z</time></trkpt><trkpt lat="42.16064672974922" lon="0.9096563624973864"><ele>430.75</ele><time>2026-04-27T13:56:05.001Z</time></trkpt><trkpt lat="42.160769529599676" lon="0.909558046167004"><ele>430.0</ele><time>2026-04-27T13:56:06.001Z</time></trkpt><trkpt lat="42.16083737675229" lon="0.9095123106914835"><ele>430.0</ele><time>2026-04-27T13:56:07.001Z</time></trkpt><trkpt lat="42.16092397883778" lon="0.9094164050695276"><ele>430.0</ele><time>2026-04-27T13:56:08.001Z</time></trkpt><trkpt lat="42.16102069294975" lon="0.9093386808413854"><ele>430.0</ele><time>2026-04-27T13:56:09.001Z</time></trkpt><trkpt lat="42.16111794831459" lon="0.909267101180007"><ele>430.0</ele><time>2026-04-27T13:56:10.001Z</time></trkpt><trkpt lat="42.161219823265114" lon="0.9091980088169279"><ele>430.0</ele><time>2026-04-27T13:56:11.001Z</time></trkpt><trkpt lat="42.16132080228132" lon="0.9091305855868573"><ele>430.0</ele><time>2026-04-27T13:56:12.001Z</time></trkpt><trkpt lat="42.16142079043757" lon="0.9090620083726301"><ele>430.0</ele><time>2026-04-27T13:56:13.001Z</time></trkpt><trkpt lat="42.16151791727762" lon="0.9089907995905443"><ele>430.0</ele><time>2026-04-27T13:56:14.001Z</time></trkpt><trkpt lat="42.161612919079055" lon="0.9089209878216291"><ele>430.0</ele><time>2026-04-27T13:56:15.001Z</time></trkpt><trkpt lat="42.16170947033093" lon="0.9088497657585451"><ele>430.0</ele><time>2026-04-27T13:56:16.001Z</time></trkpt><trkpt lat="42.161806168885164" lon="0.9087783557522889"><ele>430.0</ele><time>2026-04-27T13:56:17.001Z</time></trkpt><trkpt lat="42.161901583347586" lon="0.9087063089523673"><ele>430.0</ele><time>2026-04-27T13:56:18.001Z</time></trkpt><trkpt lat="42.16199908517037" lon="0.9086360448386143"><ele>430.0</ele><time>2026-04-27T13:56:19.001Z</time></trkpt><trkpt lat="42.16209826041789" lon="0.908565754409082"><ele>430.0</ele><time>2026-04-27T13:56:20.001Z</time></trkpt><trkpt lat="42.1621960440878" lon="0.9084934593905688"><ele>430.0</ele><time>2026-04-27T13:56:21.001Z</time></trkpt><trkpt lat="42.16229371137971" lon="0.9084226025489253"><ele>429.4</ele><time>2026-04-27T13:56:22.001Z</time></trkpt><trkpt lat="42.16239184477747" lon="0.90834909590081"><ele>428.8</ele><time>2026-04-27T13:56:23.001Z</time></trkpt><trkpt lat="42.162488968852735" lon="0.9082756719842882"><ele>428.20000000000005</ele><time>2026-04-27T13:56:24.001Z</time></trkpt><trkpt lat="42.16258806991176" lon="0.9082042374897392"><ele>427.6</ele><time>2026-04-27T13:56:25.001Z</time></trkpt><trkpt lat="42.16268822517703" lon="0.9081327912666126"><ele>427.0</ele><time>2026-04-27T13:56:26.002Z</time></trkpt><trkpt lat="42.16278902608192" lon="0.9080592047912419"><ele>427.0</ele><time>2026-04-27T13:56:27.002Z</time></trkpt><trkpt lat="42.162890984116025" lon="0.9079838578799831"><ele>427.0</ele><time>2026-04-27T13:56:28.002Z</time></trkpt><trkpt lat="42.16299110092841" lon="0.9079116633392125"><ele>427.0</ele><time>2026-04-27T13:56:29.002Z</time></trkpt><trkpt lat="42.163092741407596" lon="0.9078423271521125"><ele>427.0</ele><time>2026-04-27T13:56:30.002Z</time></trkpt><trkpt lat="42.163193690395524" lon="0.9077715361177813"><ele>426.5</ele><time>2026-04-27T13:56:31.002Z</time></trkpt><trkpt lat="42.1632993406125" lon="0.9077035834946425"><ele>426.0</ele><time>2026-04-27T13:56:32.002Z</time></trkpt><trkpt lat="42.16340650316011" lon="0.9076401988142735"><ele>425.5</ele><time>2026-04-27T13:56:33.002Z</time></trkpt><trkpt lat="42.163514881022905" lon="0.9075826710643692"><ele>425.0</ele><time>2026-04-27T13:56:34.002Z</time></trkpt><trkpt lat="42.16362882655927" lon="0.9075331289395662"><ele>425.0</ele><time>2026-04-27T13:56:35.002Z</time></trkpt><trkpt lat="42.163743188768706" lon="0.9074891414742101"><ele>425.0</ele><time>2026-04-27T13:56:36.002Z</time></trkpt><trkpt lat="42.16386212705166" lon="0.9074800286024536"><ele>425.0</ele><time>2026-04-27T13:56:37.002Z</time></trkpt><trkpt lat="42.163991794342614" lon="0.9074665849575619"><ele>425.0</ele><time>2026-04-27T13:56:38.002Z</time></trkpt><trkpt lat="42.164103537975926" lon="0.9074590678667249"><ele>425.0</ele><time>2026-04-27T13:56:39.002Z</time></trkpt><trkpt lat="42.164214648069" lon="0.907441109567635"><ele>425.0</ele><time>2026-04-27T13:56:40.002Z</time></trkpt><trkpt lat="42.16432707885889" lon="0.9074437151737856"><ele>425.0</ele><time>2026-04-27T13:56:41.002Z</time></trkpt><trkpt lat="42.164442160320746" lon="0.9074547370695959"><ele>425.0</ele><time>2026-04-27T13:56:42.002Z</time></trkpt><trkpt lat="42.164557593004595" lon="0.9074557358297938"><ele>425.0</ele><time>2026-04-27T13:56:43.002Z</time></trkpt><trkpt lat="42.16467633498841" lon="0.9074637739049836"><ele>425.0</ele><time>2026-04-27T13:56:44.002Z</time></trkpt><trkpt lat="42.16479340148682" lon="0.9074636905958584"><ele>425.0</ele><time>2026-04-27T13:56:45.002Z</time></trkpt><trkpt lat="42.16490736674828" lon="0.9074622517012211"><ele>425.0</ele><time>2026-04-27T13:56:46.002Z</time></trkpt><trkpt lat="42.165025100520296" lon="0.9074681223181964"><ele>425.0</ele><time>2026-04-27T13:56:47.002Z</time></trkpt><trkpt lat="42.16514178640755" lon="0.9074686318458051"><ele>425.0</ele><time>2026-04-27T13:56:48.002Z</time></trkpt><trkpt lat="42.165255690219915" lon="0.9074735738898566"><ele>425.0</ele><time>2026-04-27T13:56:49.002Z</time></trkpt><trkpt lat="42.16537040468994" lon="0.9074726033875532"><ele>425.0</ele><time>2026-04-27T13:56:50.002Z</time></trkpt><trkpt lat="42.16548282984712" lon="0.9074792879165579"><ele>425.0</ele><time>2026-04-27T13:56:51.002Z</time></trkpt><trkpt lat="42.1656123389914" lon="0.9074774892414919"><ele>425.0</ele><time>2026-04-27T13:56:52.002Z</time></trkpt><trkpt lat="42.16572171269651" lon="0.9074880237694389"><ele>425.0</ele><time>2026-04-27T13:56:53.002Z</time></trkpt><trkpt lat="42.16583726646213" lon="0.9074901941412233"><ele>425.0</ele><time>2026-04-27T13:56:54.002Z</time></trkpt><trkpt lat="42.16595338744062" lon="0.9074921063087091"><ele>425.5</ele><time>2026-04-27T13:56:55.002Z</time></trkpt><trkpt lat="42.166070780888" lon="0.9074929182994036"><ele>426.0</ele><time>2026-04-27T13:56:56.002Z</time></trkpt><trkpt lat="42.16618982746842" lon="0.9075008463322786"><ele>426.5</ele><time>2026-04-27T13:56:57.002Z</time></trkpt><trkpt lat="42.166302917345405" lon="0.907502589220469"><ele>427.0</ele><time>2026-04-27T13:56:58.002Z</time></trkpt><trkpt lat="42.16641194839875" lon="0.9075061306195938"><ele>427.0</ele><time>2026-04-27T13:56:59.003Z</time></trkpt><trkpt lat="42.16653085526496" lon="0.9075083584979249"><ele>427.0</ele><time>2026-04-27T13:57:00.003Z</time></trkpt><trkpt lat="42.166646182473606" lon="0.9075092194895756"><ele>427.0</ele><time>2026-04-27T13:57:01.003Z</time></trkpt><trkpt lat="42.16676465679931" lon="0.9075180452863346"><ele>427.0</ele><time>2026-04-27T13:57:02.003Z</time></trkpt><trkpt lat="42.16687757562665" lon="0.9075233638430018"><ele>427.0</ele><time>2026-04-27T13:57:03.003Z</time></trkpt><trkpt lat="42.16699629472405" lon="0.9075252716291083"><ele>427.0</ele><time>2026-04-27T13:57:04.003Z</time></trkpt><trkpt lat="42.16710923512246" lon="0.9075254085195426"><ele>427.0</ele><time>2026-04-27T13:57:05.003Z</time></trkpt><trkpt lat="42.167225776605484" lon="0.9075261991274726"><ele>427.0</ele><time>2026-04-27T13:57:06.003Z</time></trkpt><trkpt lat="42.16733809798015" lon="0.9075322540470142"><ele>427.6</ele><time>2026-04-27T13:57:07.003Z</time></trkpt><trkpt lat="42.1674545108409" lon="0.9075259472501502"><ele>428.20000000000005</ele><time>2026-04-27T13:57:08.003Z</time></trkpt><trkpt lat="42.16756333165348" lon="0.9075275397173251"><ele>428.8</ele><time>2026-04-27T13:57:09.003Z</time></trkpt><trkpt lat="42.16767403084292" lon="0.9075277257891298"><ele>429.4</ele><time>2026-04-27T13:57:10.003Z</time></trkpt><trkpt lat="42.167785122629205" lon="0.9075151970528187"><ele>430.0</ele><time>2026-04-27T13:57:11.003Z</time></trkpt><trkpt lat="42.16789134093912" lon="0.9074853665034108"><ele>430.0</ele><time>2026-04-27T13:57:12.003Z</time></trkpt><trkpt lat="42.16799023587536" lon="0.9074238984223895"><ele>430.0</ele><time>2026-04-27T13:57:13.003Z</time></trkpt><trkpt lat="42.16806264039231" lon="0.9073057415183924"><ele>430.0</ele><time>2026-04-27T13:57:14.003Z</time></trkpt><trkpt lat="42.168107690939166" lon="0.9071711751037944"><ele>430.0</ele><time>2026-04-27T13:57:15.003Z</time></trkpt><trkpt lat="42.16812762999371" lon="0.9070248505161372"><ele>430.0</ele><time>2026-04-27T13:57:16.003Z</time></trkpt><trkpt lat="42.1681246509851" lon="0.9068794237032621"><ele>427.2</ele><time>2026-04-27T13:57:17.003Z</time></trkpt><trkpt lat="42.168124746363034" lon="0.9067308947454401"><ele>424.4</ele><time>2026-04-27T13:57:18.003Z</time></trkpt><trkpt lat="42.16815268589782" lon="0.9065877384929452"><ele>421.6</ele><time>2026-04-27T13:57:19.003Z</time></trkpt><trkpt lat="42.16816495044457" lon="0.9064360756873704"><ele>418.8</ele><time>2026-04-27T13:57:20.003Z</time></trkpt><trkpt lat="42.16817711365246" lon="0.9062855908481426"><ele>416.0</ele><time>2026-04-27T13:57:20.999Z</time></trkpt><trkpt lat="42.168189197220855" lon="0.9061360913896634"><ele>416.0</ele><time>2026-04-27T13:57:21.999Z</time></trkpt><trkpt lat="42.168201447785194" lon="0.9059845258964485"><ele>416.0</ele><time>2026-04-27T13:57:23Z</time></trkpt><trkpt lat="42.16821361468398" lon="0.9058339956605261"><ele>416.0</ele><time>2026-04-27T13:57:24Z</time></trkpt><trkpt lat="42.16822537450855" lon="0.9056883387159597"><ele>416.0</ele><time>2026-04-27T13:57:25Z</time></trkpt><trkpt lat="42.1682371886607" lon="0.9055407220655884"><ele>416.0</ele><time>2026-04-27T13:57:26Z</time></trkpt><trkpt lat="42.16824908757049" lon="0.9053864355209482"><ele>415.8</ele><time>2026-04-27T13:57:27Z</time></trkpt><trkpt lat="42.16826098009265" lon="0.9052392628119686"><ele>415.6</ele><time>2026-04-27T13:57:28Z</time></trkpt><trkpt lat="42.16827319694717" lon="0.9050899719396001"><ele>415.4</ele><time>2026-04-27T13:57:29Z</time></trkpt><trkpt lat="42.1682842623761" lon="0.9049373688852268"><ele>415.2</ele><time>2026-04-27T13:57:30Z</time></trkpt><trkpt lat="42.16828893778476" lon="0.9047842807524173"><ele>415.0</ele><time>2026-04-27T13:57:31Z</time></trkpt><trkpt lat="42.168270948176286" lon="0.9046324687501974"><ele>415.75</ele><time>2026-04-27T13:57:32Z</time></trkpt><trkpt lat="42.16825886261528" lon="0.9044801433918143"><ele>416.5</ele><time>2026-04-27T13:57:33Z</time></trkpt><trkpt lat="42.16823270270849" lon="0.9043330264568916"><ele>417.25</ele><time>2026-04-27T13:57:34Z</time></trkpt><trkpt lat="42.16819867751" lon="0.9041865875733796"><ele>418.0</ele><time>2026-04-27T13:57:35Z</time></trkpt><trkpt lat="42.168150023410256" lon="0.9040494176361832"><ele>418.0</ele><time>2026-04-27T13:57:36Z</time></trkpt><trkpt lat="42.16809149543986" lon="0.9039191843658797"><ele>418.0</ele><time>2026-04-27T13:57:37Z</time></trkpt><trkpt lat="42.168023591139004" lon="0.9037962719905378"><ele>418.0</ele><time>2026-04-27T13:57:38Z</time></trkpt><trkpt lat="42.167947410885574" lon="0.9036815178781735"><ele>418.0</ele><time>2026-04-27T13:57:39Z</time></trkpt><trkpt lat="42.16786279596675" lon="0.9035785694186684"><ele>418.0</ele><time>2026-04-27T13:57:40Z</time></trkpt><trkpt lat="42.1677688318884" lon="0.9034864036639101"><ele>418.0</ele><time>2026-04-27T13:57:41Z</time></trkpt><trkpt lat="42.167674125925565" lon="0.9034034831676704"><ele>418.0</ele><time>2026-04-27T13:57:42Z</time></trkpt><trkpt lat="42.16757713137805" lon="0.903326353453513"><ele>418.0</ele><time>2026-04-27T13:57:43Z</time></trkpt><trkpt lat="42.16748028353137" lon="0.9032514930153323"><ele>418.4</ele><time>2026-04-27T13:57:44Z</time></trkpt><trkpt lat="42.167384983271745" lon="0.9031729420559214"><ele>418.79999999999995</ele><time>2026-04-27T13:57:45Z</time></trkpt><trkpt lat="42.167292819178385" lon="0.9030942119130564"><ele>419.2</ele><time>2026-04-27T13:57:46Z</time></trkpt><trkpt lat="42.167201117616884" lon="0.9030089473647298"><ele>419.6</ele><time>2026-04-27T13:57:47Z</time></trkpt><trkpt lat="42.16710592414347" lon="0.9029291917235447"><ele>420.0</ele><time>2026-04-27T13:57:48Z</time></trkpt><trkpt lat="42.16701201145939" lon="0.9028488710278949"><ele>420.0</ele><time>2026-04-27T13:57:49Z</time></trkpt><trkpt lat="42.16691943443897" lon="0.9027708144975264"><ele>420.0</ele><time>2026-04-27T13:57:50Z</time></trkpt><trkpt lat="42.16682692806237" lon="0.9026934548295059"><ele>420.0</ele><time>2026-04-27T13:57:51Z</time></trkpt><trkpt lat="42.166737801778666" lon="0.9026151107117029"><ele>420.0</ele><time>2026-04-27T13:57:52Z</time></trkpt><trkpt lat="42.16664899774029" lon="0.9025363957343866"><ele>420.0</ele><time>2026-04-27T13:57:53Z</time></trkpt><trkpt lat="42.16655858804222" lon="0.9024629710381626"><ele>420.6</ele><time>2026-04-27T13:57:54.001Z</time></trkpt><trkpt lat="42.1664709926536" lon="0.9023839841453757"><ele>421.2</ele><time>2026-04-27T13:57:55.001Z</time></trkpt><trkpt lat="42.16638472862562" lon="0.9023037525451086"><ele>421.79999999999995</ele><time>2026-04-27T13:57:56.001Z</time></trkpt><trkpt lat="42.166294630179365" lon="0.9022283002486404"><ele>422.4</ele><time>2026-04-27T13:57:57.001Z</time></trkpt><trkpt lat="42.1662073305555" lon="0.9021522411223347"><ele>423.0</ele><time>2026-04-27T13:57:58.001Z</time></trkpt><trkpt lat="42.16611593372199" lon="0.9020776594274005"><ele>423.0</ele><time>2026-04-27T13:57:59.001Z</time></trkpt><trkpt lat="42.16602741419054" lon="0.9020045561126695"><ele>423.0</ele><time>2026-04-27T13:58:00.001Z</time></trkpt><trkpt lat="42.16593593695845" lon="0.9019315878981407"><ele>423.0</ele><time>2026-04-27T13:58:01.001Z</time></trkpt><trkpt lat="42.16584352236856" lon="0.9018561984609413"><ele>423.0</ele><time>2026-04-27T13:58:02.001Z</time></trkpt><trkpt lat="42.16575249026492" lon="0.9017747044707034"><ele>423.0</ele><time>2026-04-27T13:58:03.001Z</time></trkpt><trkpt lat="42.16566182534857" lon="0.9016960726556998"><ele>424.4</ele><time>2026-04-27T13:58:04.001Z</time></trkpt><trkpt lat="42.16557119615623" lon="0.9016174401256571"><ele>425.79999999999995</ele><time>2026-04-27T13:58:05.001Z</time></trkpt><trkpt lat="42.16547964707636" lon="0.9015404441254592"><ele>427.2</ele><time>2026-04-27T13:58:06.001Z</time></trkpt><trkpt lat="42.165393702010924" lon="0.9014646211789791"><ele>428.6</ele><time>2026-04-27T13:58:07.001Z</time></trkpt><trkpt lat="42.1653014165199" lon="0.9013991850397315"><ele>430.0</ele><time>2026-04-27T13:58:08.001Z</time></trkpt><trkpt lat="42.16522429574712" lon="0.9013094379649048"><ele>430.0</ele><time>2026-04-27T13:58:09.001Z</time></trkpt><trkpt lat="42.165127665023505" lon="0.9012553246556897"><ele>430.0</ele><time>2026-04-27T13:58:10.001Z</time></trkpt><trkpt lat="42.165045001469544" lon="0.901183569792324"><ele>430.0</ele><time>2026-04-27T13:58:11.001Z</time></trkpt><trkpt lat="42.164962200444776" lon="0.9011098132615064"><ele>430.0</ele><time>2026-04-27T13:58:12.001Z</time></trkpt><trkpt lat="42.16487711179229" lon="0.9010451861218943"><ele>430.0</ele><time>2026-04-27T13:58:13.001Z</time></trkpt><trkpt lat="42.16479302087418" lon="0.9009767461628554"><ele>431.6</ele><time>2026-04-27T13:58:14.001Z</time></trkpt><trkpt lat="42.16471013994503" lon="0.9009082671733234"><ele>433.2</ele><time>2026-04-27T13:58:15.001Z</time></trkpt><trkpt lat="42.164625545062584" lon="0.900840522979356"><ele>434.79999999999995</ele><time>2026-04-27T13:58:16.001Z</time></trkpt><trkpt lat="42.1645469090686" lon="0.9007700032283742"><ele>436.4</ele><time>2026-04-27T13:58:17.001Z</time></trkpt><trkpt lat="42.164461245503084" lon="0.9007032305613594"><ele>438.0</ele><time>2026-04-27T13:58:18.001Z</time></trkpt><trkpt lat="42.16437927812219" lon="0.9006395545277065"><ele>438.0</ele><time>2026-04-27T13:58:19.001Z</time></trkpt><trkpt lat="42.16429713610983" lon="0.9005677574902667"><ele>437.99999999999994</ele><time>2026-04-27T13:58:20.001Z</time></trkpt><trkpt lat="42.164214806289415" lon="0.900499263631163"><ele>437.99999999999994</ele><time>2026-04-27T13:58:21.001Z</time></trkpt><trkpt lat="42.164133208194585" lon="0.9004317693038233"><ele>438.0</ele><time>2026-04-27T13:58:22.001Z</time></trkpt><trkpt lat="42.16405096642853" lon="0.900371658993979"><ele>438.0</ele><time>2026-04-27T13:58:23.001Z</time></trkpt><trkpt lat="42.163963974549716" lon="0.9003123214114257"><ele>437.2</ele><time>2026-04-27T13:58:24.001Z</time></trkpt><trkpt lat="42.16388662844456" lon="0.9002290183538214"><ele>436.4</ele><time>2026-04-27T13:58:25.002Z</time></trkpt><trkpt lat="42.16381239573193" lon="0.9001466533087804"><ele>435.59999999999997</ele><time>2026-04-27T13:58:26.002Z</time></trkpt><trkpt lat="42.16374744082655" lon="0.9000647232110658"><ele>434.79999999999995</ele><time>2026-04-27T13:58:27.002Z</time></trkpt><trkpt lat="42.16368674957658" lon="0.8999724382327396"><ele>434.0</ele><time>2026-04-27T13:58:28.002Z</time></trkpt><trkpt lat="42.1636362363319" lon="0.899867782660952"><ele>434.0</ele><time>2026-04-27T13:58:29.002Z</time></trkpt><trkpt lat="42.163588553865274" lon="0.8997592601492946"><ele>434.0</ele><time>2026-04-27T13:58:30.002Z</time></trkpt><trkpt lat="42.16355286186291" lon="0.8996447923242386"><ele>434.0</ele><time>2026-04-27T13:58:31.002Z</time></trkpt><trkpt lat="42.16352570416487" lon="0.8995248398221174"><ele>434.0</ele><time>2026-04-27T13:58:32.002Z</time></trkpt><trkpt lat="42.16351072828455" lon="0.8994001594826401"><ele>434.0</ele><time>2026-04-27T13:58:33.002Z</time></trkpt><trkpt lat="42.16350269428359" lon="0.8992729708710759"><ele>435.6</ele><time>2026-04-27T13:58:34.002Z</time></trkpt><trkpt lat="42.16349913853286" lon="0.8991390631806341"><ele>437.2</ele><time>2026-04-27T13:58:35.002Z</time></trkpt><trkpt lat="42.16350137520287" lon="0.899018971723549"><ele>438.80000000000007</ele><time>2026-04-27T13:58:36.002Z</time></trkpt><trkpt lat="42.163501262805006" lon="0.8988757779221981"><ele>440.40000000000003</ele><time>2026-04-27T13:58:37.002Z</time></trkpt><trkpt lat="42.16350568479146" lon="0.8987559479666923"><ele>442.0</ele><time>2026-04-27T13:58:38.002Z</time></trkpt><trkpt lat="42.16350902131534" lon="0.89862089374079"><ele>442.0</ele><time>2026-04-27T13:58:39.002Z</time></trkpt><trkpt lat="42.16350792533644" lon="0.8984873281674362"><ele>442.00000000000006</ele><time>2026-04-27T13:58:40.002Z</time></trkpt><trkpt lat="42.1635049591109" lon="0.8983470679517146"><ele>442.00000000000006</ele><time>2026-04-27T13:58:41.002Z</time></trkpt><trkpt lat="42.16350237436358" lon="0.8982113219941903"><ele>442.0</ele><time>2026-04-27T13:58:42.002Z</time></trkpt><trkpt lat="42.16350361271242" lon="0.8980797499667559"><ele>442.0</ele><time>2026-04-27T13:58:43.002Z</time></trkpt><trkpt lat="42.16350456410891" lon="0.8979419498210718"><ele>443.40000000000003</ele><time>2026-04-27T13:58:44.002Z</time></trkpt><trkpt lat="42.163506527510286" lon="0.8978043688929499"><ele>444.80000000000007</ele><time>2026-04-27T13:58:45.002Z</time></trkpt><trkpt lat="42.16350739056739" lon="0.8976665483576841"><ele>446.2</ele><time>2026-04-27T13:58:46.002Z</time></trkpt><trkpt lat="42.16350733359473" lon="0.8975287413737035"><ele>447.6</ele><time>2026-04-27T13:58:47.002Z</time></trkpt><trkpt lat="42.16351064672921" lon="0.8973914533122663"><ele>449.0</ele><time>2026-04-27T13:58:48.002Z</time></trkpt><trkpt lat="42.16351084787548" lon="0.8972514892749981"><ele>451.0</ele><time>2026-04-27T13:58:49.002Z</time></trkpt><trkpt lat="42.163511011281024" lon="0.8971113630928843"><ele>453.0</ele><time>2026-04-27T13:58:50.002Z</time></trkpt><trkpt lat="42.16350873085539" lon="0.8969697052063876"><ele>455.0</ele><time>2026-04-27T13:58:51.002Z</time></trkpt><trkpt lat="42.16351184424292" lon="0.8968289247265319"><ele>457.0</ele><time>2026-04-27T13:58:52.002Z</time></trkpt><trkpt lat="42.163516793982225" lon="0.8966898047357299"><ele>459.0</ele><time>2026-04-27T13:58:53.002Z</time></trkpt><trkpt lat="42.16352870427857" lon="0.8965521874836423"><ele>459.4</ele><time>2026-04-27T13:58:54.002Z</time></trkpt><trkpt lat="42.16355206568832" lon="0.8964197440496287"><ele>459.79999999999995</ele><time>2026-04-27T13:58:55.002Z</time></trkpt><trkpt lat="42.16357722609239" lon="0.8962882890158866"><ele>460.20000000000005</ele><time>2026-04-27T13:58:56.002Z</time></trkpt><trkpt lat="42.1636068201388" lon="0.8961565184870212"><ele>460.6</ele><time>2026-04-27T13:58:57.002Z</time></trkpt><trkpt lat="42.16363146861492" lon="0.8960302524552383"><ele>461.0</ele><time>2026-04-27T13:58:58.002Z</time></trkpt><trkpt lat="42.16365666400435" lon="0.8959014556046665"><ele>461.0</ele><time>2026-04-27T13:58:59.003Z</time></trkpt><trkpt lat="42.16368072679177" lon="0.8957741099129556"><ele>461.0</ele><time>2026-04-27T13:59:00.003Z</time></trkpt><trkpt lat="42.16370076345341" lon="0.895645614331885"><ele>461.0</ele><time>2026-04-27T13:59:01.003Z</time></trkpt><trkpt lat="42.16371783515892" lon="0.8955276997921062"><ele>461.0</ele><time>2026-04-27T13:59:02.003Z</time></trkpt><trkpt lat="42.1637406749978" lon="0.8954031283580818"><ele>461.0</ele><time>2026-04-27T13:59:03.003Z</time></trkpt><trkpt lat="42.16376243661459" lon="0.895289692187585"><ele>461.0</ele><time>2026-04-27T13:59:04.003Z</time></trkpt><trkpt lat="42.16378647226853" lon="0.8951884477434496"><ele>461.0</ele><time>2026-04-27T13:59:05.003Z</time></trkpt><trkpt lat="42.16380141781152" lon="0.8950868596332735"><ele>461.0</ele><time>2026-04-27T13:59:06.003Z</time></trkpt><trkpt lat="42.16381811837594" lon="0.8950002042878473"><ele>461.0</ele><time>2026-04-27T13:59:07.003Z</time></trkpt><trkpt lat="42.16385301016714" lon="0.8948489288026118"><ele>461.0</ele><time>2026-04-27T13:59:09.003Z</time></trkpt><trkpt lat="42.16394048337691" lon="0.8947431402257661"><ele>461.3333333333333</ele><time>2026-04-27T13:59:11.003Z</time></trkpt><trkpt lat="42.16407583783926" lon="0.8947361787850241"><ele>461.66666666666663</ele><time>2026-04-27T13:59:13.003Z</time></trkpt><trkpt lat="42.16413849876861" lon="0.8947510890131243"><ele>462.0</ele><time>2026-04-27T13:59:14.003Z</time></trkpt><trkpt lat="42.16421095667752" lon="0.894780359050304"><ele>462.33333333333337</ele><time>2026-04-27T13:59:15.003Z</time></trkpt><trkpt lat="42.16427811487482" lon="0.8948142139662153"><ele>462.6666666666667</ele><time>2026-04-27T13:59:16.003Z</time></trkpt><trkpt lat="42.16435379580274" lon="0.8948217824434137"><ele>463.0</ele><time>2026-04-27T13:59:17.003Z</time></trkpt><trkpt lat="42.16443086045717" lon="0.8948460237358803"><ele>463.00000000000006</ele><time>2026-04-27T13:59:18.003Z</time></trkpt><trkpt lat="42.16451716885646" lon="0.8948791243506424"><ele>463.0</ele><time>2026-04-27T13:59:19.003Z</time></trkpt><trkpt lat="42.1646019488769" lon="0.8948967969955441"><ele>463.0</ele><time>2026-04-27T13:59:20.003Z</time></trkpt><trkpt lat="42.16468971956716" lon="0.8949341981079989"><ele>463.0</ele><time>2026-04-27T13:59:21.003Z</time></trkpt><trkpt lat="42.16477561034934" lon="0.8949803634185259"><ele>463.00000000000006</ele><time>2026-04-27T13:59:22.003Z</time></trkpt><trkpt lat="42.16486027813036" lon="0.8950080556798921"><ele>463.0</ele><time>2026-04-27T13:59:23.003Z</time></trkpt><trkpt lat="42.16495445377044" lon="0.8950128943311169"><ele>463.79999999999995</ele><time>2026-04-27T13:59:24.003Z</time></trkpt><trkpt lat="42.16504305949839" lon="0.8950431754946993"><ele>464.59999999999997</ele><time>2026-04-27T13:59:25.003Z</time></trkpt><trkpt lat="42.16511782242499" lon="0.8950741632947075"><ele>465.40000000000003</ele><time>2026-04-27T13:59:26.003Z</time></trkpt><trkpt lat="42.16518914340601" lon="0.8950915727770241"><ele>466.20000000000005</ele><time>2026-04-27T13:59:27Z</time></trkpt><trkpt lat="42.16530710228672" lon="0.8951431051882155"><ele>467.0</ele><time>2026-04-27T13:59:29Z</time></trkpt><trkpt lat="42.16539931616836" lon="0.8951734031092677"><ele>467.3333333333333</ele><time>2026-04-27T13:59:31Z</time></trkpt><trkpt lat="42.16546288328435" lon="0.8951781611450392"><ele>467.66666666666663</ele><time>2026-04-27T13:59:33Z</time></trkpt><trkpt lat="42.16553036334787" lon="0.8952024644717984"><ele>468.0</ele><time>2026-04-27T13:59:37Z</time></trkpt><trkpt lat="42.16559621948136" lon="0.8952234522901694"><ele>468.33333333333337</ele><time>2026-04-27T13:59:39Z</time></trkpt><trkpt lat="42.165697118473176" lon="0.895250478116068"><ele>468.6666666666667</ele><time>2026-04-27T13:59:41Z</time></trkpt><trkpt lat="42.165817529864846" lon="0.8952858744099016"><ele>469.0</ele><time>2026-04-27T13:59:43Z</time></trkpt><trkpt lat="42.16588199554761" lon="0.8953077921345723"><ele>469.50000000000006</ele><time>2026-04-27T13:59:44Z</time></trkpt><trkpt lat="42.165947497783044" lon="0.8953338013876828"><ele>470.0</ele><time>2026-04-27T13:59:45Z</time></trkpt><trkpt lat="42.166012207563895" lon="0.8953787629435711"><ele>470.5</ele><time>2026-04-27T13:59:46Z</time></trkpt><trkpt lat="42.16607700084925" lon="0.8954409828110012"><ele>471.0</ele><time>2026-04-27T13:59:47Z</time></trkpt><trkpt lat="42.1661421909633" lon="0.8955102132670357"><ele>471.50000000000006</ele><time>2026-04-27T13:59:48Z</time></trkpt><trkpt lat="42.16620562652605" lon="0.8955813431441716"><ele>472.0</ele><time>2026-04-27T13:59:49Z</time></trkpt><trkpt lat="42.16626586279857" lon="0.8956563307348265"><ele>472.00000000000006</ele><time>2026-04-27T13:59:50Z</time></trkpt><trkpt lat="42.16632707553141" lon="0.8957379822797351"><ele>472.0</ele><time>2026-04-27T13:59:51Z</time></trkpt><trkpt lat="42.16638881869681" lon="0.8958220044014276"><ele>472.0</ele><time>2026-04-27T13:59:52Z</time></trkpt><trkpt lat="42.166451700049315" lon="0.895905521308774"><ele>472.0</ele><time>2026-04-27T13:59:53Z</time></trkpt><trkpt lat="42.16652270946512" lon="0.8959768531937803"><ele>472.00000000000006</ele><time>2026-04-27T13:59:54Z</time></trkpt><trkpt lat="42.16659639130402" lon="0.8960363377704113"><ele>472.0</ele><time>2026-04-27T13:59:55Z</time></trkpt><trkpt lat="42.16667599915662" lon="0.8960841749435002"><ele>472.83333333333337</ele><time>2026-04-27T13:59:56Z</time></trkpt><trkpt lat="42.166761782639064" lon="0.8961070379346898"><ele>473.6666666666667</ele><time>2026-04-27T13:59:57Z</time></trkpt><trkpt lat="42.166845104161574" lon="0.896127151320209"><ele>474.5</ele><time>2026-04-27T13:59:58Z</time></trkpt><trkpt lat="42.16693299482751" lon="0.8961399432687677"><ele>475.33333333333337</ele><time>2026-04-27T13:59:59Z</time></trkpt><trkpt lat="42.16701789891495" lon="0.8961490455808606"><ele>476.1666666666667</ele><time>2026-04-27T14:00:00Z</time></trkpt><trkpt lat="42.167103481653676" lon="0.8961530610033847"><ele>477.0</ele><time>2026-04-27T14:00:01.001Z</time></trkpt><trkpt lat="42.16718665284245" lon="0.8961507562373229"><ele>477.0</ele><time>2026-04-27T14:00:02.001Z</time></trkpt><trkpt lat="42.1672709937719" lon="0.896161474544629"><ele>477.0</ele><time>2026-04-27T14:00:03.001Z</time></trkpt><trkpt lat="42.16735310089233" lon="0.8961404992712094"><ele>477.0</ele><time>2026-04-27T14:00:04.001Z</time></trkpt><trkpt lat="42.16743590793185" lon="0.8960984670332683"><ele>477.0</ele><time>2026-04-27T14:00:05.001Z</time></trkpt><trkpt lat="42.167511422426315" lon="0.8960328284450837"><ele>477.0</ele><time>2026-04-27T14:00:06.001Z</time></trkpt><trkpt lat="42.167580888279105" lon="0.8959606796263279"><ele>477.0</ele><time>2026-04-27T14:00:07.001Z</time></trkpt><trkpt lat="42.16764650974417" lon="0.8958892155420755"><ele>476.6666666666667</ele><time>2026-04-27T14:00:08.001Z</time></trkpt><trkpt lat="42.16771259570064" lon="0.8958172455659972"><ele>476.33333333333337</ele><time>2026-04-27T14:00:09.001Z</time></trkpt><trkpt lat="42.16777797168591" lon="0.8957460487737152"><ele>476.0</ele><time>2026-04-27T14:00:10.001Z</time></trkpt><trkpt lat="42.167844996371954" lon="0.8956730587756626"><ele>475.6666666666667</ele><time>2026-04-27T14:00:11.001Z</time></trkpt><trkpt lat="42.167910021427346" lon="0.895599813429726"><ele>475.33333333333337</ele><time>2026-04-27T14:00:12.001Z</time></trkpt><trkpt lat="42.167974493577375" lon="0.8955282488819625"><ele>475.0</ele><time>2026-04-27T14:00:13.001Z</time></trkpt><trkpt lat="42.16803836546588" lon="0.8954564910414492"><ele>475.00000000000006</ele><time>2026-04-27T14:00:14.001Z</time></trkpt><trkpt lat="42.168102792705945" lon="0.8953836643079652"><ele>475.0</ele><time>2026-04-27T14:00:15.001Z</time></trkpt><trkpt lat="42.16816714128709" lon="0.8953109264611574"><ele>475.0</ele><time>2026-04-27T14:00:16.001Z</time></trkpt><trkpt lat="42.168230456011976" lon="0.895239357241931"><ele>475.0</ele><time>2026-04-27T14:00:17.001Z</time></trkpt><trkpt lat="42.168294413247594" lon="0.8951670617820853"><ele>475.00000000000006</ele><time>2026-04-27T14:00:18.001Z</time></trkpt><trkpt lat="42.16835055071434" lon="0.8950840149665776"><ele>475.0</ele><time>2026-04-27T14:00:19.001Z</time></trkpt><trkpt lat="42.1684119700265" lon="0.8950151305280395"><ele>475.00000000000006</ele><time>2026-04-27T14:00:20.001Z</time></trkpt><trkpt lat="42.168476138210984" lon="0.8949527781819534"><ele>475.0</ele><time>2026-04-27T14:00:21.001Z</time></trkpt><trkpt lat="42.16854391569465" lon="0.894901430294021"><ele>475.0</ele><time>2026-04-27T14:00:22.001Z</time></trkpt><trkpt lat="42.168620703292746" lon="0.8948782494592553"><ele>475.0</ele><time>2026-04-27T14:00:23.001Z</time></trkpt><trkpt lat="42.16869789953396" lon="0.8948683516922296"><ele>475.00000000000006</ele><time>2026-04-27T14:00:24.001Z</time></trkpt><trkpt lat="42.16877645802818" lon="0.8948726539930203"><ele>475.0</ele><time>2026-04-27T14:00:25.001Z</time></trkpt><trkpt lat="42.16885741119225" lon="0.8948820836769394"><ele>475.0</ele><time>2026-04-27T14:00:26.001Z</time></trkpt><trkpt lat="42.16894358088299" lon="0.8949020757675119"><ele>475.0</ele><time>2026-04-27T14:00:27.001Z</time></trkpt><trkpt lat="42.16902719756685" lon="0.8949126299895416"><ele>475.0</ele><time>2026-04-27T14:00:28.001Z</time></trkpt><trkpt lat="42.16911685887829" lon="0.8949242778635672"><ele>475.0</ele><time>2026-04-27T14:00:29.001Z</time></trkpt><trkpt lat="42.16921194008836" lon="0.8949440356749621"><ele>475.0</ele><time>2026-04-27T14:00:30.001Z</time></trkpt><trkpt lat="42.16930596599593" lon="0.8949606727280349"><ele>474.8</ele><time>2026-04-27T14:00:31.001Z</time></trkpt><trkpt lat="42.169403697871715" lon="0.8949833154234805"><ele>474.6</ele><time>2026-04-27T14:00:32.002Z</time></trkpt><trkpt lat="42.16950570194768" lon="0.8950077274437799"><ele>474.4</ele><time>2026-04-27T14:00:33.002Z</time></trkpt><trkpt lat="42.1696081345819" lon="0.8950325667464444"><ele>474.2</ele><time>2026-04-27T14:00:34.002Z</time></trkpt><trkpt lat="42.169705713083545" lon="0.8950536081942001"><ele>474.0</ele><time>2026-04-27T14:00:35.002Z</time></trkpt><trkpt lat="42.16980341741171" lon="0.8950690572447164"><ele>473.79999999999995</ele><time>2026-04-27T14:00:36.002Z</time></trkpt><trkpt lat="42.16989775091608" lon="0.8950807520770971"><ele>473.59999999999997</ele><time>2026-04-27T14:00:37.002Z</time></trkpt><trkpt lat="42.169996638316945" lon="0.8950947729173463"><ele>473.4</ele><time>2026-04-27T14:00:38.002Z</time></trkpt><trkpt lat="42.17009501796113" lon="0.8951129978796984"><ele>473.2</ele><time>2026-04-27T14:00:39.002Z</time></trkpt><trkpt lat="42.17019040074346" lon="0.8951297278256363"><ele>473.0</ele><time>2026-04-27T14:00:40.002Z</time></trkpt><trkpt lat="42.17028734542329" lon="0.8951525242780728"><ele>471.2</ele><time>2026-04-27T14:00:41.002Z</time></trkpt><trkpt lat="42.17038340476433" lon="0.8951729474072082"><ele>469.4</ele><time>2026-04-27T14:00:42.002Z</time></trkpt><trkpt lat="42.17048373223927" lon="0.8951936933389952"><ele>467.59999999999997</ele><time>2026-04-27T14:00:43.002Z</time></trkpt><trkpt lat="42.17058092103935" lon="0.8952098436626054"><ele>465.79999999999995</ele><time>2026-04-27T14:00:44.002Z</time></trkpt><trkpt lat="42.1706812047893" lon="0.8952309368812695"><ele>464.0</ele><time>2026-04-27T14:00:45.002Z</time></trkpt><trkpt lat="42.17078361280876" lon="0.8952519740367454"><ele>463.99999999999994</ele><time>2026-04-27T14:00:46.002Z</time></trkpt><trkpt lat="42.17088063249649" lon="0.8952729972654724"><ele>464.0</ele><time>2026-04-27T14:00:47.002Z</time></trkpt><trkpt lat="42.17097268793812" lon="0.8952893289851492"><ele>464.0</ele><time>2026-04-27T14:00:48.002Z</time></trkpt><trkpt lat="42.17105805449877" lon="0.8953275179977706"><ele>464.0</ele><time>2026-04-27T14:00:49.002Z</time></trkpt><trkpt lat="42.17114269264897" lon="0.8953425652864363"><ele>463.99999999999994</ele><time>2026-04-27T14:00:50.002Z</time></trkpt><trkpt lat="42.171222924036144" lon="0.8953472267563849"><ele>464.0</ele><time>2026-04-27T14:00:51.002Z</time></trkpt><trkpt lat="42.171298806370956" lon="0.8953329550165362"><ele>463.99999999999994</ele><time>2026-04-27T14:00:52.002Z</time></trkpt><trkpt lat="42.17137623605111" lon="0.895356344443558"><ele>464.0</ele><time>2026-04-27T14:00:53.002Z</time></trkpt><trkpt lat="42.17145351292666" lon="0.8953845866742108"><ele>464.0</ele><time>2026-04-27T14:00:54.002Z</time></trkpt><trkpt lat="42.171533882791934" lon="0.8954122969326136"><ele>464.0</ele><time>2026-04-27T14:00:55.002Z</time></trkpt><trkpt lat="42.17161372538795" lon="0.895436708432043"><ele>463.99999999999994</ele><time>2026-04-27T14:00:56.002Z</time></trkpt><trkpt lat="42.17169300896401" lon="0.8954632088740362"><ele>464.0</ele><time>2026-04-27T14:00:57.002Z</time></trkpt><trkpt lat="42.17177257987587" lon="0.8954915577044842"><ele>465.66666666666663</ele><time>2026-04-27T14:00:58.002Z</time></trkpt><trkpt lat="42.171853259605406" lon="0.8955243678355083"><ele>467.3333333333333</ele><time>2026-04-27T14:00:59.002Z</time></trkpt><trkpt lat="42.171933137240735" lon="0.8955524176472386"><ele>469.0</ele><time>2026-04-27T14:01:00.002Z</time></trkpt><trkpt lat="42.172018196929656" lon="0.895587790270439"><ele>470.66666666666663</ele><time>2026-04-27T14:01:01.002Z</time></trkpt><trkpt lat="42.1721014739936" lon="0.8956212372471081"><ele>472.3333333333333</ele><time>2026-04-27T14:01:02.002Z</time></trkpt><trkpt lat="42.172185635594694" lon="0.8956585257997102"><ele>474.0</ele><time>2026-04-27T14:01:03.002Z</time></trkpt><trkpt lat="42.17226639204223" lon="0.8957018735085154"><ele>474.0</ele><time>2026-04-27T14:01:04.002Z</time></trkpt><trkpt lat="42.17234525767097" lon="0.8957518170667365"><ele>474.0</ele><time>2026-04-27T14:01:05.003Z</time></trkpt><trkpt lat="42.17242391210547" lon="0.8958074029801344"><ele>474.0</ele><time>2026-04-27T14:01:06.003Z</time></trkpt><trkpt lat="42.17250411825341" lon="0.8958633120650364"><ele>474.0</ele><time>2026-04-27T14:01:07.003Z</time></trkpt><trkpt lat="42.17258449389274" lon="0.8959126047742823"><ele>474.0</ele><time>2026-04-27T14:01:08.003Z</time></trkpt><trkpt lat="42.17266617585326" lon="0.8959600311391628"><ele>474.0</ele><time>2026-04-27T14:01:09.003Z</time></trkpt><trkpt lat="42.17274658186841" lon="0.8960088809256933"><ele>474.6666666666667</ele><time>2026-04-27T14:01:10.003Z</time></trkpt><trkpt lat="42.17282643147199" lon="0.89605835337014"><ele>475.33333333333337</ele><time>2026-04-27T14:01:11.003Z</time></trkpt><trkpt lat="42.17290651429239" lon="0.8961100781510876"><ele>476.0</ele><time>2026-04-27T14:01:12.003Z</time></trkpt><trkpt lat="42.17298633253498" lon="0.8961614941743097"><ele>476.6666666666667</ele><time>2026-04-27T14:01:13.003Z</time></trkpt><trkpt lat="42.17306687388455" lon="0.8962113301748195"><ele>477.33333333333337</ele><time>2026-04-27T14:01:14.003Z</time></trkpt><trkpt lat="42.173146606765464" lon="0.8962591397294924"><ele>478.0</ele><time>2026-04-27T14:01:15.003Z</time></trkpt><trkpt lat="42.1732270317666" lon="0.8963083731925945"><ele>478.83333333333337</ele><time>2026-04-27T14:01:16.003Z</time></trkpt><trkpt lat="42.17330494699934" lon="0.8963597882005413"><ele>479.6666666666667</ele><time>2026-04-27T14:01:17.003Z</time></trkpt><trkpt lat="42.173382685713854" lon="0.8964095929814225"><ele>480.5</ele><time>2026-04-27T14:01:18.003Z</time></trkpt><trkpt lat="42.17345994519526" lon="0.8964590857344179"><ele>481.33333333333337</ele><time>2026-04-27T14:01:19.003Z</time></trkpt><trkpt lat="42.17353898952179" lon="0.8965095346581432"><ele>482.1666666666667</ele><time>2026-04-27T14:01:20.003Z</time></trkpt><trkpt lat="42.17361683403428" lon="0.8965582163888266"><ele>483.0</ele><time>2026-04-27T14:01:21.003Z</time></trkpt><trkpt lat="42.17369551325785" lon="0.8966056217650556"><ele>483.0</ele><time>2026-04-27T14:01:22.003Z</time></trkpt><trkpt lat="42.17377317945081" lon="0.8966563659250093"><ele>483.0</ele><time>2026-04-27T14:01:23.003Z</time></trkpt><trkpt lat="42.17384985046738" lon="0.896704908641803"><ele>483.0</ele><time>2026-04-27T14:01:24.003Z</time></trkpt><trkpt lat="42.173926297653146" lon="0.8967518874354562"><ele>483.0</ele><time>2026-04-27T14:01:25.003Z</time></trkpt><trkpt lat="42.17400395507068" lon="0.8967977076648307"><ele>483.0</ele><time>2026-04-27T14:01:26.003Z</time></trkpt><trkpt lat="42.174081571891016" lon="0.8968441093378101"><ele>483.0</ele><time>2026-04-27T14:01:27.003Z</time></trkpt><trkpt lat="42.17415838025229" lon="0.8968937121476178"><ele>483.3333333333333</ele><time>2026-04-27T14:01:28.003Z</time></trkpt><trkpt lat="42.1742342873921" lon="0.8969443593123164"><ele>483.66666666666663</ele><time>2026-04-27T14:01:29.003Z</time></trkpt><trkpt lat="42.17431204650453" lon="0.8969952535082067"><ele>484.0</ele><time>2026-04-27T14:01:30.003Z</time></trkpt><trkpt lat="42.17439052070738" lon="0.8970461999111099"><ele>484.3333333333333</ele><time>2026-04-27T14:01:31.003Z</time></trkpt><trkpt lat="42.17447078407147" lon="0.8970947952064315"><ele>484.66666666666663</ele><time>2026-04-27T14:01:32.003Z</time></trkpt><trkpt lat="42.174552453169866" lon="0.8971427801086604"><ele>485.0</ele><time>2026-04-27T14:01:32.999Z</time></trkpt><trkpt lat="42.174633009133885" lon="0.897189268060167"><ele>485.0</ele><time>2026-04-27T14:01:33.999Z</time></trkpt><trkpt lat="42.1747138093289" lon="0.8972379928755517"><ele>485.0</ele><time>2026-04-27T14:01:34.999Z</time></trkpt><trkpt lat="42.17479678472474" lon="0.897293142729027"><ele>485.0</ele><time>2026-04-27T14:01:35.999Z</time></trkpt><trkpt lat="42.17487762494183" lon="0.8973451758469937"><ele>485.0</ele><time>2026-04-27T14:01:36.999Z</time></trkpt><trkpt lat="42.1749622712769" lon="0.8973974636672324"><ele>485.0</ele><time>2026-04-27T14:01:37.999Z</time></trkpt><trkpt lat="42.17504934676861" lon="0.8974460579869102"><ele>485.0</ele><time>2026-04-27T14:01:38.999Z</time></trkpt><trkpt lat="42.17513736114882" lon="0.8974763551725723"><ele>485.0</ele><time>2026-04-27T14:01:39.999Z</time></trkpt><trkpt lat="42.17522747169824" lon="0.8974774756202287"><ele>485.0</ele><time>2026-04-27T14:01:40.999Z</time></trkpt><trkpt lat="42.175318746807775" lon="0.8974573865448736"><ele>485.0</ele><time>2026-04-27T14:01:41.999Z</time></trkpt><trkpt lat="42.175414714516286" lon="0.8974330997360735"><ele>485.0</ele><time>2026-04-27T14:01:42.999Z</time></trkpt><trkpt lat="42.1754979308517" lon="0.8973682079760612"><ele>485.0</ele><time>2026-04-27T14:01:43.999Z</time></trkpt><trkpt lat="42.17556468358309" lon="0.8972678056469137"><ele>485.0</ele><time>2026-04-27T14:01:44.999Z</time></trkpt><trkpt lat="42.17563441996593" lon="0.8971773323545068"><ele>485.0</ele><time>2026-04-27T14:01:45.999Z</time></trkpt><trkpt lat="42.175701320988715" lon="0.8970814972064689"><ele>485.0</ele><time>2026-04-27T14:01:47Z</time></trkpt><trkpt lat="42.175771949664316" lon="0.8969816673469938"><ele>485.0</ele><time>2026-04-27T14:01:48Z</time></trkpt><trkpt lat="42.175846550416175" lon="0.8968868769066576"><ele>484.0</ele><time>2026-04-27T14:01:49Z</time></trkpt><trkpt lat="42.17592779967671" lon="0.8967980768130149"><ele>483.0</ele><time>2026-04-27T14:01:50Z</time></trkpt><trkpt lat="42.176017823600056" lon="0.8967321925014534"><ele>482.0</ele><time>2026-04-27T14:01:51Z</time></trkpt><trkpt lat="42.176116940764366" lon="0.8966890938828579"><ele>481.0</ele><time>2026-04-27T14:01:52Z</time></trkpt><trkpt lat="42.176218480727584" lon="0.8966730654921189"><ele>480.0</ele><time>2026-04-27T14:01:53Z</time></trkpt><trkpt lat="42.176322900393906" lon="0.8966753754004435"><ele>482.0</ele><time>2026-04-27T14:01:54Z</time></trkpt><trkpt lat="42.176428351174444" lon="0.8966798253846325"><ele>484.0</ele><time>2026-04-27T14:01:55Z</time></trkpt><trkpt lat="42.17653331132417" lon="0.8966810373820773"><ele>486.0</ele><time>2026-04-27T14:01:56Z</time></trkpt><trkpt lat="42.17663716401696" lon="0.8966818268890128"><ele>488.0</ele><time>2026-04-27T14:01:57Z</time></trkpt><trkpt lat="42.1767418649716" lon="0.8966829981894466"><ele>490.0</ele><time>2026-04-27T14:01:58Z</time></trkpt><trkpt lat="42.17684793054727" lon="0.8966856984920866"><ele>490.2</ele><time>2026-04-27T14:01:59Z</time></trkpt><trkpt lat="42.17695495703874" lon="0.8966889929650165"><ele>490.4</ele><time>2026-04-27T14:02:00Z</time></trkpt><trkpt lat="42.177061011578886" lon="0.8966925336812762"><ele>490.6</ele><time>2026-04-27T14:02:01Z</time></trkpt><trkpt lat="42.177167885097575" lon="0.8966961062633437"><ele>490.8</ele><time>2026-04-27T14:02:02Z</time></trkpt><trkpt lat="42.177275510996786" lon="0.8966975343374098"><ele>491.0</ele><time>2026-04-27T14:02:03Z</time></trkpt><trkpt lat="42.177382467953194" lon="0.8966981528516268"><ele>491.6</ele><time>2026-04-27T14:02:04Z</time></trkpt><trkpt lat="42.177489334050144" lon="0.896697452176571"><ele>492.20000000000005</ele><time>2026-04-27T14:02:05Z</time></trkpt><trkpt lat="42.177597488048214" lon="0.896696198464295"><ele>492.79999999999995</ele><time>2026-04-27T14:02:06Z</time></trkpt><trkpt lat="42.177705134946265" lon="0.8966962945820789"><ele>493.4</ele><time>2026-04-27T14:02:07Z</time></trkpt><trkpt lat="42.177813246178495" lon="0.8966993469359581"><ele>494.0</ele><time>2026-04-27T14:02:08Z</time></trkpt><trkpt lat="42.177922132951444" lon="0.8967042639133357"><ele>494.0</ele><time>2026-04-27T14:02:09Z</time></trkpt><trkpt lat="42.17802995070441" lon="0.8967068734285035"><ele>494.0</ele><time>2026-04-27T14:02:10.001Z</time></trkpt><trkpt lat="42.17813975606219" lon="0.8967077489637381"><ele>494.0</ele><time>2026-04-27T14:02:11.001Z</time></trkpt><trkpt lat="42.17824969007882" lon="0.896709341728645"><ele>494.0</ele><time>2026-04-27T14:02:12.001Z</time></trkpt><trkpt lat="42.178358670711454" lon="0.8967100881279898"><ele>494.0</ele><time>2026-04-27T14:02:13.001Z</time></trkpt><trkpt lat="42.178466841459006" lon="0.8967092370749313"><ele>494.6</ele><time>2026-04-27T14:02:14.001Z</time></trkpt><trkpt lat="42.17857531041254" lon="0.8967092104082316"><ele>495.2</ele><time>2026-04-27T14:02:15.001Z</time></trkpt><trkpt lat="42.17868441569393" lon="0.8967110835104763"><ele>495.80000000000007</ele><time>2026-04-27T14:02:16.001Z</time></trkpt><trkpt lat="42.17879262040919" lon="0.896714915262446"><ele>496.40000000000003</ele><time>2026-04-27T14:02:17.001Z</time></trkpt><trkpt lat="42.17889934959122" lon="0.8967204115297196"><ele>497.0</ele><time>2026-04-27T14:02:18.001Z</time></trkpt><trkpt lat="42.17900592718404" lon="0.896728100884872"><ele>497.6</ele><time>2026-04-27T14:02:19.001Z</time></trkpt><trkpt lat="42.17911121380869" lon="0.8967338644214063"><ele>498.20000000000005</ele><time>2026-04-27T14:02:20.001Z</time></trkpt><trkpt lat="42.17921380134084" lon="0.8967396302062351"><ele>498.8</ele><time>2026-04-27T14:02:21.001Z</time></trkpt><trkpt lat="42.17931688649065" lon="0.8967469128792562"><ele>499.4</ele><time>2026-04-27T14:02:22.001Z</time></trkpt><trkpt lat="42.17941410176079" lon="0.8967554902860118"><ele>500.0</ele><time>2026-04-27T14:02:23.001Z</time></trkpt><trkpt lat="42.17950851296512" lon="0.8967677321307559"><ele>495.2</ele><time>2026-04-27T14:02:24.001Z</time></trkpt><trkpt lat="42.17960318060116" lon="0.8967859234580225"><ele>490.4</ele><time>2026-04-27T14:02:25.001Z</time></trkpt><trkpt lat="42.179696437103665" lon="0.8968098076621633"><ele>485.6</ele><time>2026-04-27T14:02:26.001Z</time></trkpt><trkpt lat="42.179786427644025" lon="0.8968389943871472"><ele>480.8</ele><time>2026-04-27T14:02:27.001Z</time></trkpt><trkpt lat="42.17987568515882" lon="0.8968695268433402"><ele>476.0</ele><time>2026-04-27T14:02:28.001Z</time></trkpt><trkpt lat="42.179963610093594" lon="0.8968989148685269"><ele>476.0</ele><time>2026-04-27T14:02:29.001Z</time></trkpt><trkpt lat="42.180049260250385" lon="0.8969332806294509"><ele>476.0</ele><time>2026-04-27T14:02:30.001Z</time></trkpt><trkpt lat="42.18013451378435" lon="0.8969706811260684"><ele>476.0</ele><time>2026-04-27T14:02:31.001Z</time></trkpt><trkpt lat="42.180217984961764" lon="0.8970125693087945"><ele>476.0</ele><time>2026-04-27T14:02:32.001Z</time></trkpt><trkpt lat="42.18030287386569" lon="0.897054250708712"><ele>476.0</ele><time>2026-04-27T14:02:33.001Z</time></trkpt><trkpt lat="42.18038794818583" lon="0.8971003998841968"><ele>476.0</ele><time>2026-04-27T14:02:34.001Z</time></trkpt><trkpt lat="42.18047064053587" lon="0.8971488975831119"><ele>476.0</ele><time>2026-04-27T14:02:35.001Z</time></trkpt><trkpt lat="42.18055436113422" lon="0.8972039309776457"><ele>476.0</ele><time>2026-04-27T14:02:36.001Z</time></trkpt><trkpt lat="42.18064103523239" lon="0.8972610964063573"><ele>476.0</ele><time>2026-04-27T14:02:37.001Z</time></trkpt><trkpt lat="42.18073052575706" lon="0.8973169763622624"><ele>476.0</ele><time>2026-04-27T14:02:38.001Z</time></trkpt><trkpt lat="42.18082041709798" lon="0.8973757632472473"><ele>474.20000000000005</ele><time>2026-04-27T14:02:39.001Z</time></trkpt><trkpt lat="42.180911601904114" lon="0.8974400993015546"><ele>472.40000000000003</ele><time>2026-04-27T14:02:40.002Z</time></trkpt><trkpt lat="42.181001957915775" lon="0.8975119506163208"><ele>470.6</ele><time>2026-04-27T14:02:41.002Z</time></trkpt><trkpt lat="42.1810916889538" lon="0.8975890096915436"><ele>468.8</ele><time>2026-04-27T14:02:42.002Z</time></trkpt><trkpt lat="42.181180445506364" lon="0.8976669454140302"><ele>467.0</ele><time>2026-04-27T14:02:43.002Z</time></trkpt><trkpt lat="42.18126867646058" lon="0.8977504680509472"><ele>467.0</ele><time>2026-04-27T14:02:44.002Z</time></trkpt><trkpt lat="42.18135475322869" lon="0.89784290588569"><ele>467.00000000000006</ele><time>2026-04-27T14:02:45.002Z</time></trkpt><trkpt lat="42.18143734725518" lon="0.8979325116493976"><ele>467.00000000000006</ele><time>2026-04-27T14:02:46.002Z</time></trkpt><trkpt lat="42.18152432682864" lon="0.8980218311273528"><ele>467.0</ele><time>2026-04-27T14:02:47.002Z</time></trkpt><trkpt lat="42.18160865838073" lon="0.8981053266604978"><ele>467.0</ele><time>2026-04-27T14:02:48.002Z</time></trkpt><trkpt lat="42.1816972615259" lon="0.8981859303233143"><ele>468.20000000000005</ele><time>2026-04-27T14:02:49.002Z</time></trkpt><trkpt lat="42.18178413226376" lon="0.8982694644864845"><ele>469.40000000000003</ele><time>2026-04-27T14:02:50.002Z</time></trkpt><trkpt lat="42.181867137774546" lon="0.8983581229231499"><ele>470.59999999999997</ele><time>2026-04-27T14:02:51.002Z</time></trkpt><trkpt lat="42.18195082672503" lon="0.8984503985329171"><ele>471.79999999999995</ele><time>2026-04-27T14:02:52.002Z</time></trkpt><trkpt lat="42.182033056344956" lon="0.898538514968444"><ele>473.0</ele><time>2026-04-27T14:02:53.002Z</time></trkpt><trkpt lat="42.18211428409298" lon="0.8986282584214331"><ele>473.0</ele><time>2026-04-27T14:02:54.002Z</time></trkpt><trkpt lat="42.1821937957773" lon="0.898719958621635"><ele>472.99999999999994</ele><time>2026-04-27T14:02:55.002Z</time></trkpt><trkpt lat="42.18227602238891" lon="0.8988112118078769"><ele>472.99999999999994</ele><time>2026-04-27T14:02:56.002Z</time></trkpt><trkpt lat="42.182355849832035" lon="0.89890124719164"><ele>473.0</ele><time>2026-04-27T14:02:57.002Z</time></trkpt><trkpt lat="42.182434382058446" lon="0.8989956946886708"><ele>473.0</ele><time>2026-04-27T14:02:58.002Z</time></trkpt><trkpt lat="42.18251149897261" lon="0.8990988821518617"><ele>473.79999999999995</ele><time>2026-04-27T14:02:59.002Z</time></trkpt><trkpt lat="42.182582427579504" lon="0.8992113866802911"><ele>474.59999999999997</ele><time>2026-04-27T14:03:00.002Z</time></trkpt><trkpt lat="42.1826498060911" lon="0.8993306870510681"><ele>475.40000000000003</ele><time>2026-04-27T14:03:01.002Z</time></trkpt><trkpt lat="42.182719625917066" lon="0.8994463223966614"><ele>476.20000000000005</ele><time>2026-04-27T14:03:02.002Z</time></trkpt><trkpt lat="42.18279550513581" lon="0.8995568434921064"><ele>477.0</ele><time>2026-04-27T14:03:03.002Z</time></trkpt><trkpt lat="42.1828786843965" lon="0.8996564931645371"><ele>477.0</ele><time>2026-04-27T14:03:04.002Z</time></trkpt><trkpt lat="42.182966004961045" lon="0.899748789543627"><ele>477.00000000000006</ele><time>2026-04-27T14:03:05.002Z</time></trkpt><trkpt lat="42.183052492237344" lon="0.8998357144657521"><ele>477.00000000000006</ele><time>2026-04-27T14:03:06.002Z</time></trkpt><trkpt lat="42.183141728325744" lon="0.8999156747707937"><ele>477.0</ele><time>2026-04-27T14:03:07.002Z</time></trkpt><trkpt lat="42.18323329941472" lon="0.8999914472100768"><ele>477.0</ele><time>2026-04-27T14:03:08.002Z</time></trkpt><trkpt lat="42.18332782504912" lon="0.9000650162231547"><ele>478.20000000000005</ele><time>2026-04-27T14:03:09.002Z</time></trkpt><trkpt lat="42.183418951575725" lon="0.9001402835237139"><ele>479.40000000000003</ele><time>2026-04-27T14:03:10.002Z</time></trkpt><trkpt lat="42.1835058009001" lon="0.900222546848893"><ele>480.59999999999997</ele><time>2026-04-27T14:03:11.002Z</time></trkpt><trkpt lat="42.18358715071322" lon="0.9003143304279746"><ele>481.79999999999995</ele><time>2026-04-27T14:03:12.002Z</time></trkpt><trkpt lat="42.183659257711405" lon="0.9004171309905635"><ele>483.0</ele><time>2026-04-27T14:03:13.003Z</time></trkpt><trkpt lat="42.18372067649313" lon="0.9005293370023237"><ele>483.0</ele><time>2026-04-27T14:03:14.003Z</time></trkpt><trkpt lat="42.18377165711701" lon="0.900648879259761"><ele>482.99999999999994</ele><time>2026-04-27T14:03:15.003Z</time></trkpt><trkpt lat="42.1838129349404" lon="0.9007846456011019"><ele>482.99999999999994</ele><time>2026-04-27T14:03:16.003Z</time></trkpt><trkpt lat="42.1838533054982" lon="0.9009240956403805"><ele>483.0</ele><time>2026-04-27T14:03:17.003Z</time></trkpt><trkpt lat="42.18389492724095" lon="0.901058497052303"><ele>483.0</ele><time>2026-04-27T14:03:18.003Z</time></trkpt><trkpt lat="42.18393559684343" lon="0.9011870490462016"><ele>481.4</ele><time>2026-04-27T14:03:19.003Z</time></trkpt><trkpt lat="42.18397649637726" lon="0.9013152040250304"><ele>479.79999999999995</ele><time>2026-04-27T14:03:20.003Z</time></trkpt><trkpt lat="42.184028193525265" lon="0.9014354369341041"><ele>478.2</ele><time>2026-04-27T14:03:21.003Z</time></trkpt><trkpt lat="42.18409225360163" lon="0.9015449186689533"><ele>476.6</ele><time>2026-04-27T14:03:22.003Z</time></trkpt><trkpt lat="42.184172299280306" lon="0.9016417921634022"><ele>475.0</ele><time>2026-04-27T14:03:23.003Z</time></trkpt><trkpt lat="42.18425952969874" lon="0.9017315559121468"><ele>475.2</ele><time>2026-04-27T14:03:24.003Z</time></trkpt><trkpt lat="42.18434515690875" lon="0.901825355659732"><ele>475.4</ele><time>2026-04-27T14:03:25.003Z</time></trkpt><trkpt lat="42.18443324207661" lon="0.9019150914633988"><ele>475.6</ele><time>2026-04-27T14:03:26.003Z</time></trkpt><trkpt lat="42.1845212226131" lon="0.9020049320393058"><ele>475.8</ele><time>2026-04-27T14:03:27.003Z</time></trkpt><trkpt lat="42.184613493793705" lon="0.902096878782982"><ele>476.0</ele><time>2026-04-27T14:03:28.003Z</time></trkpt><trkpt lat="42.18470504898096" lon="0.9021860096915779"><ele>476.0</ele><time>2026-04-27T14:03:29.003Z</time></trkpt><trkpt lat="42.18479488102832" lon="0.9022725856964319"><ele>476.0</ele><time>2026-04-27T14:03:30.003Z</time></trkpt><trkpt lat="42.184883112957216" lon="0.9023568436129042"><ele>476.0</ele><time>2026-04-27T14:03:31.003Z</time></trkpt><trkpt lat="42.1849721475188" lon="0.902438547540473"><ele>476.0</ele><time>2026-04-27T14:03:32.003Z</time></trkpt><trkpt lat="42.185064366728426" lon="0.9025180176056901"><ele>476.0</ele><time>2026-04-27T14:03:33.003Z</time></trkpt><trkpt lat="42.1851634949882" lon="0.9025908834232922"><ele>474.0</ele><time>2026-04-27T14:03:34.003Z</time></trkpt><trkpt lat="42.185266841146976" lon="0.9026488328328887"><ele>472.0</ele><time>2026-04-27T14:03:35.003Z</time></trkpt><trkpt lat="42.18536972199029" lon="0.9027037482572797"><ele>470.0</ele><time>2026-04-27T14:03:36.003Z</time></trkpt><trkpt lat="42.18547457851329" lon="0.9027562209918031"><ele>468.0</ele><time>2026-04-27T14:03:37.003Z</time></trkpt><trkpt lat="42.1855780133335" lon="0.9028045253899342"><ele>466.0</ele><time>2026-04-27T14:03:38.003Z</time></trkpt><trkpt lat="42.18568283292505" lon="0.9028423602272593"><ele>466.0</ele><time>2026-04-27T14:03:38.999Z</time></trkpt><trkpt lat="42.18579159803237" lon="0.9028626353791225"><ele>466.0</ele><time>2026-04-27T14:03:39.999Z</time></trkpt><trkpt lat="42.18590224163262" lon="0.9028687224343082"><ele>466.0</ele><time>2026-04-27T14:03:40.999Z</time></trkpt><trkpt lat="42.18601069557608" lon="0.9028575869642135"><ele>466.0</ele><time>2026-04-27T14:03:41.999Z</time></trkpt><trkpt lat="42.18612270479143" lon="0.9028627247747981"><ele>466.0</ele><time>2026-04-27T14:03:42.999Z</time></trkpt><trkpt lat="42.186232660169395" lon="0.9028204963509515"><ele>466.0</ele><time>2026-04-27T14:03:43.999Z</time></trkpt><trkpt lat="42.18634303894737" lon="0.9028136556444171"><ele>466.0</ele><time>2026-04-27T14:03:44.999Z</time></trkpt><trkpt lat="42.18645106295718" lon="0.9028149230635478"><ele>466.0</ele><time>2026-04-27T14:03:45.999Z</time></trkpt><trkpt lat="42.186557132203696" lon="0.902840757078766"><ele>466.0</ele><time>2026-04-27T14:03:46.999Z</time></trkpt><trkpt lat="42.18665473123437" lon="0.9029014085814226"><ele>466.0</ele><time>2026-04-27T14:03:47.999Z</time></trkpt><trkpt lat="42.18674438035789" lon="0.9029955521787657"><ele>467.6</ele><time>2026-04-27T14:03:48.999Z</time></trkpt><trkpt lat="42.18682275437651" lon="0.9031013222737718"><ele>469.20000000000005</ele><time>2026-04-27T14:03:49.999Z</time></trkpt><trkpt lat="42.18690108408215" lon="0.9032013243013317"><ele>470.79999999999995</ele><time>2026-04-27T14:03:50.999Z</time></trkpt><trkpt lat="42.18699337552389" lon="0.9032777168528393"><ele>472.4</ele><time>2026-04-27T14:03:51.999Z</time></trkpt><trkpt lat="42.18709712267267" lon="0.9033316733223866"><ele>474.0</ele><time>2026-04-27T14:03:52.999Z</time></trkpt><trkpt lat="42.18720514299571" lon="0.9033634457962538"><ele>474.0</ele><time>2026-04-27T14:03:53.999Z</time></trkpt><trkpt lat="42.187316281522726" lon="0.9033792063340355"><ele>474.0</ele><time>2026-04-27T14:03:55Z</time></trkpt><trkpt lat="42.18742977028424" lon="0.9033882892439843"><ele>474.0</ele><time>2026-04-27T14:03:56Z</time></trkpt><trkpt lat="42.18754377378486" lon="0.9033981790692776"><ele>474.0</ele><time>2026-04-27T14:03:57Z</time></trkpt><trkpt lat="42.18765902230637" lon="0.903405318306653"><ele>475.5</ele><time>2026-04-27T14:03:58Z</time></trkpt><trkpt lat="42.187770762142485" lon="0.9034096583330795"><ele>477.0</ele><time>2026-04-27T14:03:59Z</time></trkpt><trkpt lat="42.187885253898834" lon="0.9034139896343684"><ele>478.5</ele><time>2026-04-27T14:04:00Z</time></trkpt><trkpt lat="42.18799954929379" lon="0.9034156192458781"><ele>480.0</ele><time>2026-04-27T14:04:01Z</time></trkpt><trkpt lat="42.188111224280064" lon="0.9034219062861146"><ele>477.0</ele><time>2026-04-27T14:04:02Z</time></trkpt><trkpt lat="42.18822481517582" lon="0.9034251372059658"><ele>474.0</ele><time>2026-04-27T14:04:03Z</time></trkpt><trkpt lat="42.188337176715756" lon="0.9034433196391609"><ele>471.0</ele><time>2026-04-27T14:04:04Z</time></trkpt><trkpt lat="42.18844321823544" lon="0.9035057186933044"><ele>468.0</ele><time>2026-04-27T14:04:05Z</time></trkpt><trkpt lat="42.18852256460206" lon="0.9036099712125719"><ele>468.0</ele><time>2026-04-27T14:04:06Z</time></trkpt><trkpt lat="42.188569944613896" lon="0.9037411380564425"><ele>467.99999999999994</ele><time>2026-04-27T14:04:07Z</time></trkpt><trkpt lat="42.18858429621297" lon="0.9038875664950674"><ele>467.99999999999994</ele><time>2026-04-27T14:04:08Z</time></trkpt><trkpt lat="42.188576157339256" lon="0.9040361254109095"><ele>468.0</ele><time>2026-04-27T14:04:09Z</time></trkpt><trkpt lat="42.188571191239554" lon="0.9041855320470313"><ele>468.0</ele><time>2026-04-27T14:04:10Z</time></trkpt><trkpt lat="42.18856232000258" lon="0.9043347058249994"><ele>469.4</ele><time>2026-04-27T14:04:11Z</time></trkpt><trkpt lat="42.18853373412226" lon="0.9044799510337678"><ele>470.79999999999995</ele><time>2026-04-27T14:04:12Z</time></trkpt><trkpt lat="42.18848232474655" lon="0.9046162137238275"><ele>472.2</ele><time>2026-04-27T14:04:13Z</time></trkpt><trkpt lat="42.18842290240441" lon="0.9047402084987031"><ele>473.6</ele><time>2026-04-27T14:04:14Z</time></trkpt><trkpt lat="42.18836338336929" lon="0.9048599775587832"><ele>475.0</ele><time>2026-04-27T14:04:15Z</time></trkpt><trkpt lat="42.18830226463207" lon="0.9049747396426635"><ele>475.4</ele><time>2026-04-27T14:04:16.001Z</time></trkpt><trkpt lat="42.188236076982896" lon="0.9050888032925939"><ele>475.8</ele><time>2026-04-27T14:04:17.001Z</time></trkpt><trkpt lat="42.188169892401895" lon="0.9051983465174951"><ele>476.20000000000005</ele><time>2026-04-27T14:04:18.001Z</time></trkpt><trkpt lat="42.188102453542605" lon="0.9053043686649718"><ele>476.6</ele><time>2026-04-27T14:04:19.001Z</time></trkpt><trkpt lat="42.18803358189434" lon="0.905408733340107"><ele>477.0</ele><time>2026-04-27T14:04:20.001Z</time></trkpt><trkpt lat="42.187967672555416" lon="0.905509460803177"><ele>477.0</ele><time>2026-04-27T14:04:21.001Z</time></trkpt><trkpt lat="42.18789920070041" lon="0.905609903118946"><ele>477.00000000000006</ele><time>2026-04-27T14:04:22.001Z</time></trkpt><trkpt lat="42.18783273343288" lon="0.9057084955222928"><ele>477.00000000000006</ele><time>2026-04-27T14:04:23.001Z</time></trkpt><trkpt lat="42.18776175278761" lon="0.905807777195609"><ele>477.0</ele><time>2026-04-27T14:04:24.001Z</time></trkpt><trkpt lat="42.187693415558115" lon="0.9059031856178583"><ele>477.0</ele><time>2026-04-27T14:04:25.001Z</time></trkpt><trkpt lat="42.18763043593555" lon="0.9060006590248838"><ele>477.6</ele><time>2026-04-27T14:04:26.001Z</time></trkpt><trkpt lat="42.18756551194839" lon="0.9060948426006797"><ele>478.20000000000005</ele><time>2026-04-27T14:04:27.001Z</time></trkpt><trkpt lat="42.1874989456463" lon="0.9061888823909584"><ele>478.8</ele><time>2026-04-27T14:04:28.001Z</time></trkpt><trkpt lat="42.18743317398082" lon="0.906282372483875"><ele>479.4</ele><time>2026-04-27T14:04:29.001Z</time></trkpt><trkpt lat="42.18736912091309" lon="0.9063770560000244"><ele>480.0</ele><time>2026-04-27T14:04:30.001Z</time></trkpt><trkpt lat="42.18730592271597" lon="0.9064733679119724"><ele>480.0</ele><time>2026-04-27T14:04:31.001Z</time></trkpt><trkpt lat="42.18724239006609" lon="0.9065673986567523"><ele>480.0</ele><time>2026-04-27T14:04:32.001Z</time></trkpt><trkpt lat="42.18717839934686" lon="0.906660000967664"><ele>480.0</ele><time>2026-04-27T14:04:33.001Z</time></trkpt><trkpt lat="42.18711585574829" lon="0.90675424714259"><ele>480.0</ele><time>2026-04-27T14:04:34.001Z</time></trkpt><trkpt lat="42.18705515070472" lon="0.9068485060208001"><ele>480.0</ele><time>2026-04-27T14:04:35.001Z</time></trkpt><trkpt lat="42.186994039653435" lon="0.9069426038273354"><ele>482.2</ele><time>2026-04-27T14:04:36.001Z</time></trkpt><trkpt lat="42.18693252118388" lon="0.9070373678972063"><ele>484.4</ele><time>2026-04-27T14:04:37.001Z</time></trkpt><trkpt lat="42.18686819928417" lon="0.907130040570868"><ele>486.6</ele><time>2026-04-27T14:04:38.001Z</time></trkpt><trkpt lat="42.186804690514094" lon="0.9072233341904237"><ele>488.8</ele><time>2026-04-27T14:04:39.001Z</time></trkpt><trkpt lat="42.18674459675189" lon="0.9073181878250506"><ele>491.0</ele><time>2026-04-27T14:04:40.001Z</time></trkpt><trkpt lat="42.186681894700165" lon="0.9074123338643635"><ele>491.0</ele><time>2026-04-27T14:04:41.001Z</time></trkpt><trkpt lat="42.18661776424999" lon="0.9075043779516122"><ele>491.0</ele><time>2026-04-27T14:04:42.001Z</time></trkpt><trkpt lat="42.18655327314137" lon="0.9075951554824979"><ele>491.0</ele><time>2026-04-27T14:04:43.001Z</time></trkpt><trkpt lat="42.18649144335105" lon="0.9076890703670991"><ele>491.0</ele><time>2026-04-27T14:04:44.001Z</time></trkpt><trkpt lat="42.18642949081438" lon="0.9077808359667289"><ele>491.0</ele><time>2026-04-27T14:04:45.001Z</time></trkpt><trkpt lat="42.18636790303858" lon="0.9078734192547636"><ele>490.8</ele><time>2026-04-27T14:04:46.002Z</time></trkpt><trkpt lat="42.186305010932585" lon="0.9079637020468354"><ele>490.6</ele><time>2026-04-27T14:04:47.002Z</time></trkpt><trkpt lat="42.18623828455763" lon="0.9080526191807815"><ele>490.4</ele><time>2026-04-27T14:04:48.002Z</time></trkpt><trkpt lat="42.18617217838878" lon="0.9081405841144444"><ele>490.2</ele><time>2026-04-27T14:04:49.002Z</time></trkpt><trkpt lat="42.186106413377026" lon="0.9082282619481893"><ele>490.0</ele><time>2026-04-27T14:04:50.002Z</time></trkpt><trkpt lat="42.18604202856461" lon="0.9083156680646784"><ele>490.0</ele><time>2026-04-27T14:04:51.002Z</time></trkpt><trkpt lat="42.1859753308875" lon="0.9084000254137558"><ele>490.0</ele><time>2026-04-27T14:04:52.002Z</time></trkpt><trkpt lat="42.185907901318245" lon="0.9084867324366034"><ele>490.0</ele><time>2026-04-27T14:04:53.002Z</time></trkpt><trkpt lat="42.18584054733732" lon="0.9085733175256666"><ele>490.0</ele><time>2026-04-27T14:04:54.002Z</time></trkpt><trkpt lat="42.18577219384247" lon="0.9086556755262936"><ele>490.0</ele><time>2026-04-27T14:04:55.002Z</time></trkpt><trkpt lat="42.18570464695696" lon="0.9087375751790354"><ele>490.83333333333337</ele><time>2026-04-27T14:04:56.002Z</time></trkpt><trkpt lat="42.18563664048301" lon="0.9088190799323885"><ele>491.6666666666667</ele><time>2026-04-27T14:04:57.002Z</time></trkpt><trkpt lat="42.18556813445798" lon="0.9088988335927476"><ele>492.5</ele><time>2026-04-27T14:04:58.002Z</time></trkpt><trkpt lat="42.18550143890619" lon="0.9089776575930506"><ele>493.33333333333337</ele><time>2026-04-27T14:04:59.002Z</time></trkpt><trkpt lat="42.185437255734456" lon="0.9090566511376349"><ele>494.1666666666667</ele><time>2026-04-27T14:05:00.002Z</time></trkpt><trkpt lat="42.18537368204296" lon="0.9091363743475523"><ele>495.0</ele><time>2026-04-27T14:05:01.002Z</time></trkpt><trkpt lat="42.18530723400454" lon="0.9092141760350417"><ele>497.0</ele><time>2026-04-27T14:05:02.002Z</time></trkpt><trkpt lat="42.18524052451537" lon="0.9092927737449541"><ele>499.0</ele><time>2026-04-27T14:05:03.002Z</time></trkpt><trkpt lat="42.18517494664402" lon="0.9093746397815639"><ele>501.0</ele><time>2026-04-27T14:05:04.002Z</time></trkpt><trkpt lat="42.18511026999961" lon="0.9094589833802998"><ele>503.0</ele><time>2026-04-27T14:05:05.002Z</time></trkpt><trkpt lat="42.18504828044771" lon="0.9095469241500234"><ele>505.0</ele><time>2026-04-27T14:05:06.002Z</time></trkpt><trkpt lat="42.18498889167915" lon="0.9096357586416192"><ele>507.0</ele><time>2026-04-27T14:05:07.002Z</time></trkpt><trkpt lat="42.184931451843916" lon="0.9097260261178619"><ele>507.0</ele><time>2026-04-27T14:05:08.002Z</time></trkpt><trkpt lat="42.184874359161654" lon="0.9098188321457317"><ele>507.0</ele><time>2026-04-27T14:05:09.002Z</time></trkpt><trkpt lat="42.18481650748618" lon="0.9099114758553487"><ele>507.0</ele><time>2026-04-27T14:05:10.002Z</time></trkpt><trkpt lat="42.18476350424556" lon="0.9100087287919497"><ele>507.0</ele><time>2026-04-27T14:05:11.002Z</time></trkpt><trkpt lat="42.18471458044373" lon="0.9101099180005476"><ele>507.0</ele><time>2026-04-27T14:05:12.002Z</time></trkpt><trkpt lat="42.18466776336525" lon="0.9102145092712298"><ele>507.0</ele><time>2026-04-27T14:05:13.002Z</time></trkpt><trkpt lat="42.18462222169036" lon="0.9103193581062233"><ele>507.20000000000005</ele><time>2026-04-27T14:05:14.002Z</time></trkpt><trkpt lat="42.18457681470808" lon="0.9104255988093665"><ele>507.40000000000003</ele><time>2026-04-27T14:05:15.002Z</time></trkpt><trkpt lat="42.184533343748605" lon="0.9105316568498032"><ele>507.59999999999997</ele><time>2026-04-27T14:05:16.002Z</time></trkpt><trkpt lat="42.18449268174661" lon="0.9106424651410185"><ele>507.79999999999995</ele><time>2026-04-27T14:05:17.002Z</time></trkpt><trkpt lat="42.18445140003997" lon="0.9107558304699718"><ele>508.0</ele><time>2026-04-27T14:05:18.002Z</time></trkpt><trkpt lat="42.184412147041" lon="0.9108716272860871"><ele>509.2</ele><time>2026-04-27T14:05:19.003Z</time></trkpt><trkpt lat="42.1843736326095" lon="0.9109898603465371"><ele>510.4</ele><time>2026-04-27T14:05:20.003Z</time></trkpt><trkpt lat="42.18434022494008" lon="0.9111040014128363"><ele>511.59999999999997</ele><time>2026-04-27T14:05:21.003Z</time></trkpt><trkpt lat="42.18431441451797" lon="0.9112219059704384"><ele>512.8</ele><time>2026-04-27T14:05:22.003Z</time></trkpt><trkpt lat="42.18429056535311" lon="0.911342683499551"><ele>514.0</ele><time>2026-04-27T14:05:23.003Z</time></trkpt><trkpt lat="42.18426954481577" lon="0.9114647575046538"><ele>514.0</ele><time>2026-04-27T14:05:24.003Z</time></trkpt><trkpt lat="42.1842520402928" lon="0.9115917887965739"><ele>514.0</ele><time>2026-04-27T14:05:25.003Z</time></trkpt><trkpt lat="42.18423369448635" lon="0.9117211364570624"><ele>514.0</ele><time>2026-04-27T14:05:26.003Z</time></trkpt><trkpt lat="42.18421761339023" lon="0.9118528555536841"><ele>514.0</ele><time>2026-04-27T14:05:27.003Z</time></trkpt><trkpt lat="42.1842080824339" lon="0.9119870540945638"><ele>514.0</ele><time>2026-04-27T14:05:28.003Z</time></trkpt><trkpt lat="42.1841977933403" lon="0.9121224209982879"><ele>515.2</ele><time>2026-04-27T14:05:29.003Z</time></trkpt><trkpt lat="42.18418617377185" lon="0.91225889208261"><ele>516.4</ele><time>2026-04-27T14:05:30.003Z</time></trkpt><trkpt lat="42.18417564403663" lon="0.9123992321398953"><ele>517.6</ele><time>2026-04-27T14:05:31.003Z</time></trkpt><trkpt lat="42.18416477529592" lon="0.9125416571617219"><ele>518.8</ele><time>2026-04-27T14:05:32.003Z</time></trkpt><trkpt lat="42.18415263442234" lon="0.9126837774635091"><ele>520.0</ele><time>2026-04-27T14:05:33.003Z</time></trkpt><trkpt lat="42.184142357182274" lon="0.9128265286042525"><ele>520.2</ele><time>2026-04-27T14:05:34.003Z</time></trkpt><trkpt lat="42.1841316274135" lon="0.9129702223391626"><ele>520.4</ele><time>2026-04-27T14:05:35.003Z</time></trkpt><trkpt lat="42.18412351989746" lon="0.9131139310322224"><ele>520.6</ele><time>2026-04-27T14:05:36.003Z</time></trkpt><trkpt lat="42.18411395270027" lon="0.9132565671012651"><ele>520.8</ele><time>2026-04-27T14:05:37.003Z</time></trkpt><trkpt lat="42.18410370105154" lon="0.9133989293610727"><ele>521.0</ele><time>2026-04-27T14:05:38.003Z</time></trkpt><trkpt lat="42.18409504649193" lon="0.9135415922991933"><ele>520.4</ele><time>2026-04-27T14:05:39.003Z</time></trkpt><trkpt lat="42.18408456830084" lon="0.9136842116341303"><ele>519.8</ele><time>2026-04-27T14:05:40.003Z</time></trkpt><trkpt lat="42.18407627628671" lon="0.9138269511736096"><ele>519.1999999999999</ele><time>2026-04-27T14:05:41.003Z</time></trkpt><trkpt lat="42.184066740158094" lon="0.9139701314934353"><ele>518.6</ele><time>2026-04-27T14:05:42.003Z</time></trkpt><trkpt lat="42.18405410184096" lon="0.9141122292235292"><ele>518.0</ele><time>2026-04-27T14:05:43.003Z</time></trkpt><trkpt lat="42.1840429272179" lon="0.9142564443774314"><ele>518.0</ele><time>2026-04-27T14:05:44.003Z</time></trkpt><trkpt lat="42.1840318083128" lon="0.9143995411444199"><ele>518.0</ele><time>2026-04-27T14:05:44.998Z</time></trkpt><trkpt lat="42.18402433098142" lon="0.9145402216181372"><ele>518.0</ele><time>2026-04-27T14:05:45.998Z</time></trkpt><trkpt lat="42.184017746729474" lon="0.9146815834604809"><ele>518.0</ele><time>2026-04-27T14:05:46.998Z</time></trkpt><trkpt lat="42.18401201628913" lon="0.9148218142875248"><ele>518.0</ele><time>2026-04-27T14:05:47.998Z</time></trkpt><trkpt lat="42.18400887792894" lon="0.9149632396127677"><ele>519.0</ele><time>2026-04-27T14:05:48.998Z</time></trkpt><trkpt lat="42.18401043968973" lon="0.9151006277189805"><ele>520.0</ele><time>2026-04-27T14:05:49.998Z</time></trkpt><trkpt lat="42.18401662908904" lon="0.915236865093849"><ele>521.0</ele><time>2026-04-27T14:05:50.999Z</time></trkpt><trkpt lat="42.184025938200705" lon="0.9153720299045162"><ele>522.0</ele><time>2026-04-27T14:05:51.999Z</time></trkpt><trkpt lat="42.184039123509876" lon="0.9155063288129556"><ele>523.0</ele><time>2026-04-27T14:05:52.999Z</time></trkpt><trkpt lat="42.18405668292247" lon="0.915639631536499"><ele>523.0</ele><time>2026-04-27T14:05:53.999Z</time></trkpt><trkpt lat="42.184074787650125" lon="0.9157710566566187"><ele>523.0</ele><time>2026-04-27T14:05:54.999Z</time></trkpt><trkpt lat="42.18409649473192" lon="0.9159005734089002"><ele>523.0</ele><time>2026-04-27T14:05:55.999Z</time></trkpt><trkpt lat="42.18412470287243" lon="0.9160227606945404"><ele>523.0</ele><time>2026-04-27T14:05:56.999Z</time></trkpt><trkpt lat="42.18415587867197" lon="0.9161419230308642"><ele>523.0</ele><time>2026-04-27T14:05:57.999Z</time></trkpt><trkpt lat="42.18418904212497" lon="0.9162611744641873"><ele>521.1999999999999</ele><time>2026-04-27T14:05:58.999Z</time></trkpt><trkpt lat="42.18422826852696" lon="0.9163795374661764"><ele>519.4</ele><time>2026-04-27T14:05:59.999Z</time></trkpt><trkpt lat="42.18427156428232" lon="0.9164947293076553"><ele>517.5999999999999</ele><time>2026-04-27T14:06:00.999Z</time></trkpt><trkpt lat="42.184315975873055" lon="0.9166061197732657"><ele>515.8</ele><time>2026-04-27T14:06:01.999Z</time></trkpt><trkpt lat="42.18436357285791" lon="0.9167136106427671"><ele>514.0</ele><time>2026-04-27T14:06:02.999Z</time></trkpt><trkpt lat="42.18441154557415" lon="0.9168189899517992"><ele>511.0</ele><time>2026-04-27T14:06:04Z</time></trkpt><trkpt lat="42.184462899044014" lon="0.9169201890971439"><ele>508.0</ele><time>2026-04-27T14:06:05Z</time></trkpt><trkpt lat="42.18451775091932" lon="0.9170176891027323"><ele>505.0</ele><time>2026-04-27T14:06:06Z</time></trkpt><trkpt lat="42.184575587673216" lon="0.9171121057977414"><ele>502.0</ele><time>2026-04-27T14:06:07Z</time></trkpt><trkpt lat="42.18463288400715" lon="0.91720539901545"><ele>499.0</ele><time>2026-04-27T14:06:08Z</time></trkpt><trkpt lat="42.184694333715775" lon="0.9172958559772862"><ele>499.0</ele><time>2026-04-27T14:06:09Z</time></trkpt><trkpt lat="42.184760928304485" lon="0.9173806631821205"><ele>499.0</ele><time>2026-04-27T14:06:10Z</time></trkpt><trkpt lat="42.18482970641812" lon="0.9174642535637908"><ele>499.0</ele><time>2026-04-27T14:06:11Z</time></trkpt><trkpt lat="42.184899407985746" lon="0.9175461181107208"><ele>499.0</ele><time>2026-04-27T14:06:12Z</time></trkpt><trkpt lat="42.184975313011435" lon="0.9176218242750056"><ele>499.0</ele><time>2026-04-27T14:06:13Z</time></trkpt><trkpt lat="42.1850533748569" lon="0.917698770287291"><ele>500.79999999999995</ele><time>2026-04-27T14:06:14Z</time></trkpt><trkpt lat="42.185134598762765" lon="0.9177758067884145"><ele>502.59999999999997</ele><time>2026-04-27T14:06:15Z</time></trkpt><trkpt lat="42.18521383972922" lon="0.9178471959847647"><ele>504.4</ele><time>2026-04-27T14:06:16Z</time></trkpt><trkpt lat="42.1852962627851" lon="0.9179101372274738"><ele>506.2</ele><time>2026-04-27T14:06:17Z</time></trkpt><trkpt lat="42.18538165632028" lon="0.9179656997228677"><ele>508.0</ele><time>2026-04-27T14:06:18Z</time></trkpt><trkpt lat="42.18546024067682" lon="0.9180086532213299"><ele>508.00000000000006</ele><time>2026-04-27T14:06:19Z</time></trkpt><trkpt lat="42.185532159127675" lon="0.9180527658539204"><ele>508.0</ele><time>2026-04-27T14:06:20Z</time></trkpt><trkpt lat="42.18559167613806" lon="0.9180815736405074"><ele>508.0</ele><time>2026-04-27T14:06:21.001Z</time></trkpt><trkpt lat="42.185647974704295" lon="0.9181569765405442"><ele>508.0</ele><time>2026-04-27T14:06:23.001Z</time></trkpt><trkpt lat="42.185738619194424" lon="0.9181968131647268"><ele>508.00000000000006</ele><time>2026-04-27T14:12:29.999Z</time></trkpt><trkpt lat="42.185817428000426" lon="0.9181864230995683"><ele>508.0</ele><time>2026-04-27T14:12:32Z</time></trkpt><trkpt lat="42.185899079500224" lon="0.9182107439627633"><ele>512.0</ele><time>2026-04-27T14:12:34Z</time></trkpt><trkpt lat="42.185997132315144" lon="0.9182340694499249"><ele>516.0</ele><time>2026-04-27T14:12:36Z</time></trkpt><trkpt lat="42.18610847626466" lon="0.9182529150576523"><ele>520.0</ele><time>2026-04-27T14:12:38Z</time></trkpt><trkpt lat="42.186231166368614" lon="0.918269630613988"><ele>524.0</ele><time>2026-04-27T14:12:40Z</time></trkpt><trkpt lat="42.18629719655922" lon="0.9182796616232164"><ele>528.0</ele><time>2026-04-27T14:12:41Z</time></trkpt><trkpt lat="42.18636509885569" lon="0.9182842782962973"><ele>528.0</ele><time>2026-04-27T14:12:42Z</time></trkpt><trkpt lat="42.18643430058871" lon="0.9182890889646803"><ele>528.0</ele><time>2026-04-27T14:12:43Z</time></trkpt><trkpt lat="42.18650591128217" lon="0.9182911330779304"><ele>528.0</ele><time>2026-04-27T14:12:44Z</time></trkpt><trkpt lat="42.186581307046175" lon="0.9182955052673608"><ele>528.0</ele><time>2026-04-27T14:12:45Z</time></trkpt><trkpt lat="42.18665867367704" lon="0.9183046697425737"><ele>528.0</ele><time>2026-04-27T14:12:46Z</time></trkpt><trkpt lat="42.18673717749951" lon="0.9183129218712288"><ele>528.0</ele><time>2026-04-27T14:12:47Z</time></trkpt><trkpt lat="42.18681905849715" lon="0.918316336534265"><ele>528.5</ele><time>2026-04-27T14:12:48Z</time></trkpt><trkpt lat="42.18690229067104" lon="0.9183216198542918"><ele>529.0</ele><time>2026-04-27T14:12:49Z</time></trkpt><trkpt lat="42.186986880448295" lon="0.9183273369849891"><ele>529.5</ele><time>2026-04-27T14:12:50Z</time></trkpt><trkpt lat="42.18707155952202" lon="0.9183337824355119"><ele>530.0</ele><time>2026-04-27T14:12:51Z</time></trkpt><trkpt lat="42.18715644146552" lon="0.9183430426092869"><ele>530.5</ele><time>2026-04-27T14:12:52.001Z</time></trkpt><trkpt lat="42.18724142618508" lon="0.9183565555960365"><ele>531.0</ele><time>2026-04-27T14:12:53.001Z</time></trkpt><trkpt lat="42.187328677363695" lon="0.9183729511749276"><ele>530.6666666666666</ele><time>2026-04-27T14:12:54.001Z</time></trkpt><trkpt lat="42.18741515366439" lon="0.9183956671622328"><ele>530.3333333333334</ele><time>2026-04-27T14:12:55.001Z</time></trkpt><trkpt lat="42.18750072929796" lon="0.9184245034090919"><ele>530.0</ele><time>2026-04-27T14:12:56.001Z</time></trkpt><trkpt lat="42.18758477421959" lon="0.9184561786624162"><ele>529.6666666666667</ele><time>2026-04-27T14:12:57.001Z</time></trkpt><trkpt lat="42.187669330769154" lon="0.9184941050781984"><ele>529.3333333333334</ele><time>2026-04-27T14:12:58.001Z</time></trkpt><trkpt lat="42.187752947752855" lon="0.9185368649501514"><ele>529.0</ele><time>2026-04-27T14:12:59.001Z</time></trkpt><trkpt lat="42.187834252455424" lon="0.918586721799829"><ele>529.6666666666667</ele><time>2026-04-27T14:13:00.001Z</time></trkpt><trkpt lat="42.18791258986559" lon="0.9186443785349053"><ele>530.3333333333334</ele><time>2026-04-27T14:13:01.001Z</time></trkpt><trkpt lat="42.18798911242654" lon="0.9187048468614063"><ele>531.0</ele><time>2026-04-27T14:13:02.001Z</time></trkpt><trkpt lat="42.188065240651675" lon="0.9187704243853251"><ele>531.6666666666666</ele><time>2026-04-27T14:13:03.001Z</time></trkpt><trkpt lat="42.188137451787426" lon="0.9188418137738051"><ele>532.3333333333333</ele><time>2026-04-27T14:13:04.001Z</time></trkpt><trkpt lat="42.188206644256574" lon="0.9189178963491371"><ele>533.0</ele><time>2026-04-27T14:13:05.001Z</time></trkpt><trkpt lat="42.18827171324628" lon="0.9189993068033601"><ele>533.0</ele><time>2026-04-27T14:13:06.001Z</time></trkpt><trkpt lat="42.188335189554685" lon="0.9190850397052789"><ele>533.0</ele><time>2026-04-27T14:13:07.001Z</time></trkpt><trkpt lat="42.188396189855546" lon="0.9191740047439777"><ele>533.0</ele><time>2026-04-27T14:13:08.001Z</time></trkpt><trkpt lat="42.18845361501418" lon="0.9192687330220247"><ele>533.0</ele><time>2026-04-27T14:13:09.001Z</time></trkpt><trkpt lat="42.18850800256922" lon="0.9193659464302588"><ele>533.0</ele><time>2026-04-27T14:13:10.001Z</time></trkpt><trkpt lat="42.188560870737994" lon="0.919466977961949"><ele>531.0</ele><time>2026-04-27T14:13:11.001Z</time></trkpt><trkpt lat="42.18860783542659" lon="0.9195729524142939"><ele>529.0</ele><time>2026-04-27T14:13:12.001Z</time></trkpt><trkpt lat="42.18865040729079" lon="0.9196829298873335"><ele>527.0</ele><time>2026-04-27T14:13:13.001Z</time></trkpt><trkpt lat="42.188687683299406" lon="0.9197963316896196"><ele>525.0</ele><time>2026-04-27T14:13:14.001Z</time></trkpt><trkpt lat="42.18872261813452" lon="0.9199108961824712"><ele>523.0</ele><time>2026-04-27T14:13:15.001Z</time></trkpt><trkpt lat="42.18875196701842" lon="0.9200269627222687"><ele>522.1999999999999</ele><time>2026-04-27T14:13:16.001Z</time></trkpt><trkpt lat="42.18877664550941" lon="0.9201474535521723"><ele>521.4</ele><time>2026-04-27T14:13:17.001Z</time></trkpt><trkpt lat="42.18879639844491" lon="0.9202671209210492"><ele>520.5999999999999</ele><time>2026-04-27T14:13:18.001Z</time></trkpt><trkpt lat="42.188813496226764" lon="0.9203882549384236"><ele>519.8</ele><time>2026-04-27T14:13:19.001Z</time></trkpt><trkpt lat="42.188827238676176" lon="0.9205106176997933"><ele>519.0</ele><time>2026-04-27T14:13:20.001Z</time></trkpt><trkpt lat="42.18883530262036" lon="0.9206322075668283"><ele>519.0</ele><time>2026-04-27T14:13:21.001Z</time></trkpt><trkpt lat="42.18883941828746" lon="0.9207542351693235"><ele>519.0</ele><time>2026-04-27T14:13:22.002Z</time></trkpt><trkpt lat="42.1888377731804" lon="0.9208771424331614"><ele>519.0</ele><time>2026-04-27T14:13:23.002Z</time></trkpt><trkpt lat="42.188831933128704" lon="0.9210023899423475"><ele>519.0</ele><time>2026-04-27T14:13:24.002Z</time></trkpt><trkpt lat="42.18882204139172" lon="0.9211264395178786"><ele>519.0</ele><time>2026-04-27T14:13:25.002Z</time></trkpt><trkpt lat="42.18880932367532" lon="0.9212496207922485"><ele>520.2</ele><time>2026-04-27T14:13:26.002Z</time></trkpt><trkpt lat="42.18879835721703" lon="0.9213727566443831"><ele>521.4</ele><time>2026-04-27T14:13:27.002Z</time></trkpt><trkpt lat="42.18878468459661" lon="0.9214941701727439"><ele>522.6</ele><time>2026-04-27T14:13:28.002Z</time></trkpt><trkpt lat="42.188766149784534" lon="0.9216144033698791"><ele>523.8</ele><time>2026-04-27T14:13:29.002Z</time></trkpt><trkpt lat="42.18874682106561" lon="0.9217354551514806"><ele>525.0</ele><time>2026-04-27T14:13:30.002Z</time></trkpt><trkpt lat="42.18872682171869" lon="0.9218585684143843"><ele>525.0</ele><time>2026-04-27T14:13:31.002Z</time></trkpt><trkpt lat="42.18871129227008" lon="0.9219827738530314"><ele>525.0</ele><time>2026-04-27T14:13:32.002Z</time></trkpt><trkpt lat="42.18869428653213" lon="0.9221051022582928"><ele>525.0</ele><time>2026-04-27T14:13:33.002Z</time></trkpt><trkpt lat="42.18867276923136" lon="0.9222275125503702"><ele>525.0</ele><time>2026-04-27T14:13:34.002Z</time></trkpt><trkpt lat="42.18865282637872" lon="0.9223519122394574"><ele>525.0</ele><time>2026-04-27T14:13:35.002Z</time></trkpt><trkpt lat="42.18863259310101" lon="0.9224806446541088"><ele>524.4</ele><time>2026-04-27T14:13:36.002Z</time></trkpt><trkpt lat="42.1886142875096" lon="0.922604993058897"><ele>523.8</ele><time>2026-04-27T14:13:37.002Z</time></trkpt><trkpt lat="42.18859760911382" lon="0.9227315573507994"><ele>523.2</ele><time>2026-04-27T14:13:38.002Z</time></trkpt><trkpt lat="42.18858178972127" lon="0.9228592092147964"><ele>522.6</ele><time>2026-04-27T14:13:39.002Z</time></trkpt><trkpt lat="42.18856866480098" lon="0.9229881689002434"><ele>522.0</ele><time>2026-04-27T14:13:40.002Z</time></trkpt><trkpt lat="42.18855710397715" lon="0.9231194864257768"><ele>522.0</ele><time>2026-04-27T14:13:41.002Z</time></trkpt><trkpt lat="42.18854851566462" lon="0.923249338864404"><ele>522.0</ele><time>2026-04-27T14:13:42.002Z</time></trkpt><trkpt lat="42.188543173827995" lon="0.923376985321195"><ele>522.0</ele><time>2026-04-27T14:13:43.002Z</time></trkpt><trkpt lat="42.18853706612607" lon="0.9235077581355539"><ele>522.0</ele><time>2026-04-27T14:13:44.002Z</time></trkpt><trkpt lat="42.188534557825704" lon="0.9236365761324604"><ele>522.0</ele><time>2026-04-27T14:13:45.002Z</time></trkpt><trkpt lat="42.18853946515498" lon="0.9237696022183777"><ele>520.2</ele><time>2026-04-27T14:13:46.002Z</time></trkpt><trkpt lat="42.188543489460315" lon="0.9239036529430074"><ele>518.4000000000001</ele><time>2026-04-27T14:13:47.002Z</time></trkpt><trkpt lat="42.18855420632291" lon="0.9240406335082205"><ele>516.5999999999999</ele><time>2026-04-27T14:13:48.002Z</time></trkpt><trkpt lat="42.18856748531107" lon="0.9241762442608384"><ele>514.8</ele><time>2026-04-27T14:13:49.002Z</time></trkpt><trkpt lat="42.188582326493766" lon="0.9243088551720229"><ele>513.0</ele><time>2026-04-27T14:13:50.002Z</time></trkpt><trkpt lat="42.188602689828755" lon="0.9244428742061848"><ele>510.79999999999995</ele><time>2026-04-27T14:13:51.002Z</time></trkpt><trkpt lat="42.188626517648665" lon="0.9245748736491486"><ele>508.59999999999997</ele><time>2026-04-27T14:13:52.002Z</time></trkpt><trkpt lat="42.18865375885031" lon="0.9247075575625275"><ele>506.40000000000003</ele><time>2026-04-27T14:13:53.002Z</time></trkpt><trkpt lat="42.18868243564634" lon="0.9248395932582546"><ele>504.20000000000005</ele><time>2026-04-27T14:13:54.002Z</time></trkpt><trkpt lat="42.188715268486376" lon="0.9249703492092934"><ele>502.0</ele><time>2026-04-27T14:13:55.003Z</time></trkpt><trkpt lat="42.18875189641528" lon="0.9251028835922074"><ele>500.20000000000005</ele><time>2026-04-27T14:13:56.003Z</time></trkpt><trkpt lat="42.18879275499897" lon="0.925227183291424"><ele>498.40000000000003</ele><time>2026-04-27T14:13:57.003Z</time></trkpt><trkpt lat="42.18883538463851" lon="0.925349792468963"><ele>496.59999999999997</ele><time>2026-04-27T14:13:58.003Z</time></trkpt><trkpt lat="42.18888256279527" lon="0.9254687817910126"><ele>494.79999999999995</ele><time>2026-04-27T14:13:59.003Z</time></trkpt><trkpt lat="42.18893485091413" lon="0.9255877188344542"><ele>493.0</ele><time>2026-04-27T14:14:00.003Z</time></trkpt><trkpt lat="42.188990125830244" lon="0.9257036240603076"><ele>494.59999999999997</ele><time>2026-04-27T14:14:01.003Z</time></trkpt><trkpt lat="42.189051590135485" lon="0.9258061480465142"><ele>496.19999999999993</ele><time>2026-04-27T14:14:02.003Z</time></trkpt><trkpt lat="42.189096443623605" lon="0.92590705438415"><ele>497.8</ele><time>2026-04-27T14:14:03.003Z</time></trkpt><trkpt lat="42.18914802191613" lon="0.9260034821249901"><ele>499.4</ele><time>2026-04-27T14:14:04.003Z</time></trkpt><trkpt lat="42.18924756834947" lon="0.9261399757689313"><ele>501.0</ele><time>2026-04-27T14:14:05.003Z</time></trkpt><trkpt lat="42.18931258085266" lon="0.9262556910974915"><ele>501.0</ele><time>2026-04-27T14:14:06.003Z</time></trkpt><trkpt lat="42.1893798268036" lon="0.9263592028951017"><ele>501.0</ele><time>2026-04-27T14:14:07.003Z</time></trkpt><trkpt lat="42.189450352004194" lon="0.9264572752639598"><ele>501.0</ele><time>2026-04-27T14:14:08.003Z</time></trkpt><trkpt lat="42.189524334453836" lon="0.9265525289469478"><ele>501.0</ele><time>2026-04-27T14:14:08.998Z</time></trkpt><trkpt lat="42.18960179784275" lon="0.9266473842132334"><ele>501.0</ele><time>2026-04-27T14:14:09.998Z</time></trkpt><trkpt lat="42.18968160319626" lon="0.9267373746702525"><ele>501.20000000000005</ele><time>2026-04-27T14:14:10.998Z</time></trkpt><trkpt lat="42.18976502809399" lon="0.9268277987134389"><ele>501.40000000000003</ele><time>2026-04-27T14:14:11.998Z</time></trkpt><trkpt lat="42.189849561669746" lon="0.9269147383697426"><ele>501.6</ele><time>2026-04-27T14:14:12.998Z</time></trkpt><trkpt lat="42.189933759113885" lon="0.9270015253733914"><ele>501.8</ele><time>2026-04-27T14:14:13.999Z</time></trkpt><trkpt lat="42.19002681342228" lon="0.9270898166708043"><ele>502.0</ele><time>2026-04-27T14:14:14.999Z</time></trkpt><trkpt lat="42.19010080889502" lon="0.9271699187791483"><ele>502.0</ele><time>2026-04-27T14:14:15.999Z</time></trkpt><trkpt lat="42.190187130234044" lon="0.9272304536817366"><ele>502.00000000000006</ele><time>2026-04-27T14:14:16.999Z</time></trkpt><trkpt lat="42.19028169173206" lon="0.9272863658363653"><ele>502.00000000000006</ele><time>2026-04-27T14:14:17.999Z</time></trkpt><trkpt lat="42.19037348896702" lon="0.9273321062724378"><ele>502.0</ele><time>2026-04-27T14:14:18.999Z</time></trkpt><trkpt lat="42.19046696183027" lon="0.9273838609605373"><ele>502.0</ele><time>2026-04-27T14:14:19.999Z</time></trkpt><trkpt lat="42.190565967808865" lon="0.9274310503215691"><ele>502.0</ele><time>2026-04-27T14:14:20.999Z</time></trkpt><trkpt lat="42.190662762522315" lon="0.9274710478350856"><ele>502.00000000000006</ele><time>2026-04-27T14:14:21.999Z</time></trkpt><trkpt lat="42.190758800379754" lon="0.9275040946156434"><ele>502.00000000000006</ele><time>2026-04-27T14:14:22.999Z</time></trkpt><trkpt lat="42.19085576834615" lon="0.9275318024197277"><ele>502.0</ele><time>2026-04-27T14:14:23.999Z</time></trkpt><trkpt lat="42.190952479313395" lon="0.9275534329998468"><ele>502.0</ele><time>2026-04-27T14:14:24.999Z</time></trkpt><trkpt lat="42.191049862407205" lon="0.9275694236956248"><ele>500.0</ele><time>2026-04-27T14:14:25.999Z</time></trkpt><trkpt lat="42.19114897942172" lon="0.9275791792854884"><ele>498.00000000000006</ele><time>2026-04-27T14:14:27Z</time></trkpt><trkpt lat="42.1912470618373" lon="0.9275845574769152"><ele>496.00000000000006</ele><time>2026-04-27T14:14:28Z</time></trkpt><trkpt lat="42.19134604316145" lon="0.9275870613515886"><ele>494.0</ele><time>2026-04-27T14:14:29Z</time></trkpt><trkpt lat="42.19144848146475" lon="0.9275792980896306"><ele>492.0</ele><time>2026-04-27T14:14:30Z</time></trkpt><trkpt lat="42.19154881441536" lon="0.9275731531799175"><ele>491.6</ele><time>2026-04-27T14:14:31Z</time></trkpt><trkpt lat="42.191646693706744" lon="0.9275617302461319"><ele>491.20000000000005</ele><time>2026-04-27T14:14:32Z</time></trkpt><trkpt lat="42.19174897029411" lon="0.9275699506485143"><ele>490.8</ele><time>2026-04-27T14:14:33Z</time></trkpt><trkpt lat="42.19184733228588" lon="0.9275562091272995"><ele>490.4</ele><time>2026-04-27T14:14:34Z</time></trkpt><trkpt lat="42.19194595713964" lon="0.9275293194194837"><ele>490.0</ele><time>2026-04-27T14:14:35Z</time></trkpt><trkpt lat="42.19204597169897" lon="0.9275164697521332"><ele>495.2</ele><time>2026-04-27T14:14:36Z</time></trkpt><trkpt lat="42.192149309847416" lon="0.9274975495670322"><ele>500.4</ele><time>2026-04-27T14:14:37Z</time></trkpt><trkpt lat="42.19224925578484" lon="0.9274878247661036"><ele>505.6</ele><time>2026-04-27T14:14:38Z</time></trkpt><trkpt lat="42.192349492746985" lon="0.9274733153337563"><ele>510.8</ele><time>2026-04-27T14:14:39Z</time></trkpt><trkpt lat="42.19244960415264" lon="0.9274625196223623"><ele>516.0</ele><time>2026-04-27T14:14:40Z</time></trkpt><trkpt lat="42.192550390876" lon="0.9274518456360138"><ele>516.0</ele><time>2026-04-27T14:14:41Z</time></trkpt><trkpt lat="42.19265185443446" lon="0.9274404609878709"><ele>516.0</ele><time>2026-04-27T14:14:42Z</time></trkpt><trkpt lat="42.19275033405734" lon="0.9274361836805407"><ele>516.0</ele><time>2026-04-27T14:14:43Z</time></trkpt><trkpt lat="42.19284904907885" lon="0.9274321012979357"><ele>516.0</ele><time>2026-04-27T14:14:44Z</time></trkpt><trkpt lat="42.19294735241842" lon="0.927433205225502"><ele>516.0</ele><time>2026-04-27T14:14:45.001Z</time></trkpt><trkpt lat="42.19304571863817" lon="0.9274286243614968"><ele>516.0</ele><time>2026-04-27T14:14:46.001Z</time></trkpt><trkpt lat="42.19314740461108" lon="0.9274340823111229"><ele>516.0</ele><time>2026-04-27T14:14:47.001Z</time></trkpt><trkpt lat="42.1932487004752" lon="0.9274402216014119"><ele>516.0</ele><time>2026-04-27T14:14:48.001Z</time></trkpt><trkpt lat="42.193347145004395" lon="0.9274467507996385"><ele>516.0</ele><time>2026-04-27T14:14:49.001Z</time></trkpt><trkpt lat="42.19344974756558" lon="0.9274579410035267"><ele>516.0</ele><time>2026-04-27T14:14:50.001Z</time></trkpt><trkpt lat="42.19355042874219" lon="0.9274727394254029"><ele>515.0</ele><time>2026-04-27T14:14:51.001Z</time></trkpt><trkpt lat="42.19365090088762" lon="0.9274901924166655"><ele>514.0</ele><time>2026-04-27T14:14:52.001Z</time></trkpt><trkpt lat="42.19375244417227" lon="0.9275086382889994"><ele>513.0</ele><time>2026-04-27T14:14:53.001Z</time></trkpt><trkpt lat="42.19385098281209" lon="0.9275316584208492"><ele>512.0</ele><time>2026-04-27T14:14:54.001Z</time></trkpt><trkpt lat="42.19394985368984" lon="0.9275442741573685"><ele>511.0</ele><time>2026-04-27T14:14:55.001Z</time></trkpt><trkpt lat="42.1940467876884" lon="0.9275699220525911"><ele>508.4</ele><time>2026-04-27T14:14:56.001Z</time></trkpt><trkpt lat="42.194143293006654" lon="0.9275971927249321"><ele>505.8</ele><time>2026-04-27T14:14:57.001Z</time></trkpt><trkpt lat="42.19423967233734" lon="0.927628875528384"><ele>503.19999999999993</ele><time>2026-04-27T14:14:58.001Z</time></trkpt><trkpt lat="42.19433562725825" lon="0.9276624988386499"><ele>500.59999999999997</ele><time>2026-04-27T14:14:59.001Z</time></trkpt><trkpt lat="42.194429154154825" lon="0.9277047174898531"><ele>498.0</ele><time>2026-04-27T14:15:00.001Z</time></trkpt><trkpt lat="42.194521196319506" lon="0.9277485511773559"><ele>498.0</ele><time>2026-04-27T14:15:01.001Z</time></trkpt><trkpt lat="42.194612849238524" lon="0.9277950783282862"><ele>497.99999999999994</ele><time>2026-04-27T14:15:02.001Z</time></trkpt><trkpt lat="42.19470178481998" lon="0.9278485631909323"><ele>497.99999999999994</ele><time>2026-04-27T14:15:03.001Z</time></trkpt><trkpt lat="42.19478829745277" lon="0.9279066256274451"><ele>498.0</ele><time>2026-04-27T14:15:04.001Z</time></trkpt><trkpt lat="42.19487630556994" lon="0.9279683248830038"><ele>498.0</ele><time>2026-04-27T14:15:05.001Z</time></trkpt><trkpt lat="42.19496114354331" lon="0.9280343451761917"><ele>499.0</ele><time>2026-04-27T14:15:06.001Z</time></trkpt><trkpt lat="42.1950434873091" lon="0.9281040725987693"><ele>499.99999999999994</ele><time>2026-04-27T14:15:07.001Z</time></trkpt><trkpt lat="42.19512485688956" lon="0.9281780903168786"><ele>500.99999999999994</ele><time>2026-04-27T14:15:08.001Z</time></trkpt><trkpt lat="42.195202346165" lon="0.9282581773298278"><ele>502.0</ele><time>2026-04-27T14:15:09.001Z</time></trkpt><trkpt lat="42.19528132813474" lon="0.9283399725283379"><ele>503.0</ele><time>2026-04-27T14:15:10.001Z</time></trkpt><trkpt lat="42.19535549401715" lon="0.9284274244385261"><ele>503.0</ele><time>2026-04-27T14:15:11.001Z</time></trkpt><trkpt lat="42.19543081394463" lon="0.928521250185192"><ele>502.99999999999994</ele><time>2026-04-27T14:15:12.002Z</time></trkpt><trkpt lat="42.19549749786325" lon="0.9286212293019829"><ele>502.99999999999994</ele><time>2026-04-27T14:15:13.002Z</time></trkpt><trkpt lat="42.1955669871506" lon="0.9287209432034532"><ele>503.0</ele><time>2026-04-27T14:15:14.002Z</time></trkpt><trkpt lat="42.19563012921626" lon="0.928824894241212"><ele>503.0</ele><time>2026-04-27T14:15:15.002Z</time></trkpt><trkpt lat="42.19569100068142" lon="0.9289323173290636"><ele>505.59999999999997</ele><time>2026-04-27T14:15:16.002Z</time></trkpt><trkpt lat="42.195748796184965" lon="0.929046859500686"><ele>508.19999999999993</ele><time>2026-04-27T14:15:17.002Z</time></trkpt><trkpt lat="42.19580326505804" lon="0.9291635094567894"><ele>510.8</ele><time>2026-04-27T14:15:18.002Z</time></trkpt><trkpt lat="42.195856230724736" lon="0.9292894421596571"><ele>513.4</ele><time>2026-04-27T14:15:19.002Z</time></trkpt><trkpt lat="42.19590516728328" lon="0.9294077365252437"><ele>516.0</ele><time>2026-04-27T14:15:20.002Z</time></trkpt><trkpt lat="42.195947459630915" lon="0.9295360642553129"><ele>518.2</ele><time>2026-04-27T14:15:21.002Z</time></trkpt><trkpt lat="42.19598908588402" lon="0.9296576691926537"><ele>520.4000000000001</ele><time>2026-04-27T14:15:22.002Z</time></trkpt><trkpt lat="42.196029297718894" lon="0.9297894170792593"><ele>522.6</ele><time>2026-04-27T14:15:23.002Z</time></trkpt><trkpt lat="42.196068217111986" lon="0.9299175063427697"><ele>524.8000000000001</ele><time>2026-04-27T14:15:24.002Z</time></trkpt><trkpt lat="42.19610443889843" lon="0.930043960733636"><ele>527.0</ele><time>2026-04-27T14:15:25.002Z</time></trkpt><trkpt lat="42.196141815098144" lon="0.9301782147249686"><ele>528.5</ele><time>2026-04-27T14:15:26.002Z</time></trkpt><trkpt lat="42.1961813900768" lon="0.93031729384555"><ele>530.0</ele><time>2026-04-27T14:15:27.018Z</time></trkpt><trkpt lat="42.19622089855564" lon="0.9304528148060792"><ele>531.5</ele><time>2026-04-27T14:15:28.026Z</time></trkpt><trkpt lat="42.1962602136579" lon="0.9305975127047843"><ele>533.0</ele><time>2026-04-27T14:15:29.013Z</time></trkpt><trkpt lat="42.19630318125061" lon="0.9307470091314191"><ele>533.0</ele><time>2026-04-27T14:15:30.018Z</time></trkpt><trkpt lat="42.1963477990205" lon="0.9308854429626973"><ele>533.0</ele><time>2026-04-27T14:15:31.023Z</time></trkpt><trkpt lat="42.19674980737474" lon="0.9317608550199603"><ele>526.5</ele><time>2026-04-27T14:15:39.002Z</time></trkpt><trkpt lat="42.196791346273926" lon="0.9318735528954164"><ele>520.0</ele><time>2026-04-27T14:15:40.002Z</time></trkpt><trkpt lat="42.196912645675944" lon="0.9320847861814388"><ele>513.5</ele><time>2026-04-27T14:15:41.002Z</time></trkpt><trkpt lat="42.1970136816135" lon="0.9322151933080374"><ele>507.0</ele><time>2026-04-27T14:15:42.002Z</time></trkpt><trkpt lat="42.197086179583714" lon="0.9322954255229261"><ele>507.0</ele><time>2026-04-27T14:15:43.002Z</time></trkpt><trkpt lat="42.197168579145966" lon="0.9323833156213436"><ele>507.00000000000006</ele><time>2026-04-27T14:15:44.003Z</time></trkpt><trkpt lat="42.197253160887875" lon="0.9324627433004385"><ele>507.00000000000006</ele><time>2026-04-27T14:15:45.003Z</time></trkpt><trkpt lat="42.19734009274481" lon="0.9325377279981578"><ele>507.0</ele><time>2026-04-27T14:15:46.003Z</time></trkpt><trkpt lat="42.19743336746795" lon="0.9326089556458378"><ele>507.0</ele><time>2026-04-27T14:15:47.003Z</time></trkpt><trkpt lat="42.1975274596209" lon="0.932674802093834"><ele>505.8</ele><time>2026-04-27T14:15:48.003Z</time></trkpt><trkpt lat="42.19762608990528" lon="0.9327336246425151"><ele>504.6</ele><time>2026-04-27T14:15:49.003Z</time></trkpt><trkpt lat="42.19772520693364" lon="0.9327843047517429"><ele>503.40000000000003</ele><time>2026-04-27T14:15:50.003Z</time></trkpt><trkpt lat="42.19782686130788" lon="0.9328319588051341"><ele>502.20000000000005</ele><time>2026-04-27T14:15:51.003Z</time></trkpt><trkpt lat="42.19792896294755" lon="0.9328781199549295"><ele>501.0</ele><time>2026-04-27T14:15:52.003Z</time></trkpt><trkpt lat="42.19803257810314" lon="0.9329194847105501"><ele>501.0</ele><time>2026-04-27T14:15:53.003Z</time></trkpt><trkpt lat="42.198142640382834" lon="0.9329619272166154"><ele>501.0</ele><time>2026-04-27T14:15:54.003Z</time></trkpt><trkpt lat="42.198242828431916" lon="0.9329978188155219"><ele>501.0</ele><time>2026-04-27T14:15:55.003Z</time></trkpt><trkpt lat="42.1983542665193" lon="0.9330405100623124"><ele>501.0</ele><time>2026-04-27T14:15:56.003Z</time></trkpt><trkpt lat="42.19845573961152" lon="0.9330748782178375"><ele>501.0</ele><time>2026-04-27T14:15:57.003Z</time></trkpt><trkpt lat="42.19856277366858" lon="0.9331143036376395"><ele>501.20000000000005</ele><time>2026-04-27T14:15:58.003Z</time></trkpt><trkpt lat="42.198673028094575" lon="0.9331581685905869"><ele>501.40000000000003</ele><time>2026-04-27T14:15:59.003Z</time></trkpt><trkpt lat="42.19878298033242" lon="0.9331976937710869"><ele>501.6</ele><time>2026-04-27T14:16:00.003Z</time></trkpt><trkpt lat="42.198884148952224" lon="0.9332282019531644"><ele>501.8</ele><time>2026-04-27T14:16:01.003Z</time></trkpt><trkpt lat="42.19898943596232" lon="0.9332655677287606"><ele>502.0</ele><time>2026-04-27T14:16:02.003Z</time></trkpt><trkpt lat="42.19909793934721" lon="0.9333065520376704"><ele>502.0</ele><time>2026-04-27T14:16:03.003Z</time></trkpt><trkpt lat="42.199200303575594" lon="0.9333423020512475"><ele>502.00000000000006</ele><time>2026-04-27T14:16:04.003Z</time></trkpt><trkpt lat="42.19931356496893" lon="0.9333831255794713"><ele>502.00000000000006</ele><time>2026-04-27T14:16:05.003Z</time></trkpt><trkpt lat="42.19942747054945" lon="0.9334320025929733"><ele>502.0</ele><time>2026-04-27T14:16:06.003Z</time></trkpt><trkpt lat="42.19952866330849" lon="0.9334619970800536"><ele>502.0</ele><time>2026-04-27T14:16:07.003Z</time></trkpt><trkpt lat="42.1996331100117" lon="0.9335161066171597"><ele>500.25</ele><time>2026-04-27T14:16:08.003Z</time></trkpt><trkpt lat="42.19974787365095" lon="0.9335547673492763"><ele>498.5</ele><time>2026-04-27T14:16:09.003Z</time></trkpt><trkpt lat="42.19986126275726" lon="0.9335915073912546"><ele>496.75</ele><time>2026-04-27T14:16:10.003Z</time></trkpt><trkpt lat="42.19996826849253" lon="0.9336297006494783"><ele>495.0</ele><time>2026-04-27T14:16:11.003Z</time></trkpt><trkpt lat="42.200076199878836" lon="0.9336749799264463"><ele>495.0</ele><time>2026-04-27T14:16:12.003Z</time></trkpt><trkpt lat="42.20018851478402" lon="0.9337146417119493"><ele>495.0</ele><time>2026-04-27T14:16:13.003Z</time></trkpt><trkpt lat="42.20029722892543" lon="0.933756410200232"><ele>495.0</ele><time>2026-04-27T14:16:14.003Z</time></trkpt><trkpt lat="42.200389696029035" lon="0.933809407003482"><ele>495.0</ele><time>2026-04-27T14:16:15Z</time></trkpt><trkpt lat="42.20052016182919" lon="0.9338246360652265"><ele>495.0</ele><time>2026-04-27T14:16:16Z</time></trkpt><trkpt lat="42.20063151433564" lon="0.9338672732228128"><ele>495.0</ele><time>2026-04-27T14:16:17Z</time></trkpt><trkpt lat="42.20074448868305" lon="0.9339170229748432"><ele>495.0</ele><time>2026-04-27T14:16:18Z</time></trkpt><trkpt lat="42.20085329786869" lon="0.9339680757870372"><ele>495.0</ele><time>2026-04-27T14:16:19Z</time></trkpt><trkpt lat="42.2009615174492" lon="0.9340133455795998"><ele>499.2</ele><time>2026-04-27T14:16:20Z</time></trkpt><trkpt lat="42.201075585089384" lon="0.9340701655061773"><ele>503.4</ele><time>2026-04-27T14:16:21Z</time></trkpt><trkpt lat="42.20117490241996" lon="0.9340978633245227"><ele>507.6</ele><time>2026-04-27T14:16:22Z</time></trkpt><trkpt lat="42.201284090372134" lon="0.9341535619866853"><ele>511.8</ele><time>2026-04-27T14:16:23Z</time></trkpt><trkpt lat="42.20135401487583" lon="0.9341530401443388"><ele>516.0</ele><time>2026-04-27T14:16:24Z</time></trkpt><trkpt lat="42.20171692488389" lon="0.9343809476576367"><ele>516.0</ele><time>2026-04-27T14:16:27Z</time></trkpt><trkpt lat="42.201817114646616" lon="0.9344482595069233"><ele>516.0</ele><time>2026-04-27T14:16:28Z</time></trkpt><trkpt lat="42.20191773919023" lon="0.9345155607882978"><ele>516.0</ele><time>2026-04-27T14:16:29Z</time></trkpt><trkpt lat="42.20201730153714" lon="0.934585206396926"><ele>516.0</ele><time>2026-04-27T14:16:30Z</time></trkpt><trkpt lat="42.2021120282923" lon="0.9346573330712373"><ele>516.0</ele><time>2026-04-27T14:16:31Z</time></trkpt><trkpt lat="42.2022106364626" lon="0.9347299428072419"><ele>516.0</ele><time>2026-04-27T14:16:32Z</time></trkpt><trkpt lat="42.20230798251105" lon="0.9348075108724704"><ele>516.0</ele><time>2026-04-27T14:16:33Z</time></trkpt><trkpt lat="42.202403219563884" lon="0.934891362633246"><ele>516.0</ele><time>2026-04-27T14:16:34Z</time></trkpt><trkpt lat="42.20249737524006" lon="0.9349826276531322"><ele>516.0</ele><time>2026-04-27T14:16:35Z</time></trkpt><trkpt lat="42.20259372277943" lon="0.9350659240759602"><ele>513.5</ele><time>2026-04-27T14:16:36Z</time></trkpt><trkpt lat="42.20268959258037" lon="0.9351496090929902"><ele>511.0</ele><time>2026-04-27T14:16:37Z</time></trkpt><trkpt lat="42.20278160121727" lon="0.9352335836929672"><ele>508.5</ele><time>2026-04-27T14:16:38Z</time></trkpt><trkpt lat="42.20287669895856" lon="0.9353207317981397"><ele>506.0</ele><time>2026-04-27T14:16:39Z</time></trkpt><trkpt lat="42.20297438352725" lon="0.9354085234051451"><ele>506.0</ele><time>2026-04-27T14:16:40Z</time></trkpt><trkpt lat="42.203070802835086" lon="0.9354989124105235"><ele>506.0</ele><time>2026-04-27T14:16:41Z</time></trkpt><trkpt lat="42.20316997130025" lon="0.9355848599963462"><ele>506.0</ele><time>2026-04-27T14:16:42.001Z</time></trkpt><trkpt lat="42.20326736607614" lon="0.9356712121537295"><ele>506.0</ele><time>2026-04-27T14:16:43.001Z</time></trkpt><trkpt lat="42.20336725304256" lon="0.9357608048992548"><ele>502.75</ele><time>2026-04-27T14:16:44.001Z</time></trkpt><trkpt lat="42.203466481054754" lon="0.9358494795496863"><ele>499.5</ele><time>2026-04-27T14:16:45.001Z</time></trkpt><trkpt lat="42.20356247380589" lon="0.9359404203789736"><ele>496.25</ele><time>2026-04-27T14:16:46.001Z</time></trkpt><trkpt lat="42.203658291727976" lon="0.9360289276274221"><ele>493.0</ele><time>2026-04-27T14:16:47.001Z</time></trkpt><trkpt lat="42.20374897132611" lon="0.9361169468006665"><ele>492.75</ele><time>2026-04-27T14:16:48.001Z</time></trkpt><trkpt lat="42.20384843054839" lon="0.9362084296557587"><ele>492.5</ele><time>2026-04-27T14:16:49.001Z</time></trkpt><trkpt lat="42.20394022536364" lon="0.9362999577933443"><ele>492.25</ele><time>2026-04-27T14:16:50.001Z</time></trkpt><trkpt lat="42.204032168298646" lon="0.936391992628339"><ele>492.0</ele><time>2026-04-27T14:16:51.001Z</time></trkpt><trkpt lat="42.20412695987519" lon="0.9364781137938779"><ele>494.75</ele><time>2026-04-27T14:16:52.001Z</time></trkpt><trkpt lat="42.20422181853674" lon="0.9365641120078828"><ele>497.5</ele><time>2026-04-27T14:16:53.001Z</time></trkpt><trkpt lat="42.204316757110576" lon="0.9366511530342378"><ele>500.25</ele><time>2026-04-27T14:16:54.001Z</time></trkpt><trkpt lat="42.20440953445126" lon="0.9367404371888078"><ele>503.0</ele><time>2026-04-27T14:16:55.001Z</time></trkpt><trkpt lat="42.20450442335622" lon="0.9368264619572445"><ele>505.0</ele><time>2026-04-27T14:16:56.001Z</time></trkpt><trkpt lat="42.204599956809155" lon="0.9369137742854062"><ele>506.99999999999994</ele><time>2026-04-27T14:16:57.001Z</time></trkpt><trkpt lat="42.20468976777162" lon="0.937006598635435"><ele>508.99999999999994</ele><time>2026-04-27T14:16:58.001Z</time></trkpt><trkpt lat="42.20477603956947" lon="0.937102141199288"><ele>511.0</ele><time>2026-04-27T14:16:59.001Z</time></trkpt><trkpt lat="42.20486309830846" lon="0.9371859813795443"><ele>513.0</ele><time>2026-04-27T14:17:00.001Z</time></trkpt><trkpt lat="42.20496324844329" lon="0.93725702007298"><ele>513.8</ele><time>2026-04-27T14:17:01.001Z</time></trkpt><trkpt lat="42.20506676941891" lon="0.9373200461415669"><ele>514.5999999999999</ele><time>2026-04-27T14:17:02.001Z</time></trkpt><trkpt lat="42.205173394984726" lon="0.9373739449716496"><ele>515.4000000000001</ele><time>2026-04-27T14:17:03.001Z</time></trkpt><trkpt lat="42.20527719971707" lon="0.9374260939741245"><ele>516.2</ele><time>2026-04-27T14:17:04.001Z</time></trkpt><trkpt lat="42.20538162893021" lon="0.9374746495095897"><ele>517.0</ele><time>2026-04-27T14:17:05.001Z</time></trkpt><trkpt lat="42.20548741594949" lon="0.9375184933113"><ele>516.75</ele><time>2026-04-27T14:17:06.001Z</time></trkpt><trkpt lat="42.20559301888286" lon="0.9375690084645736"><ele>516.5</ele><time>2026-04-27T14:17:07.001Z</time></trkpt><trkpt lat="42.20570141769108" lon="0.9376150845335673"><ele>516.25</ele><time>2026-04-27T14:17:08.001Z</time></trkpt><trkpt lat="42.205810500140835" lon="0.9376590432375473"><ele>516.0</ele><time>2026-04-27T14:17:09.001Z</time></trkpt><trkpt lat="42.20591985935719" lon="0.937708528443948"><ele>516.0</ele><time>2026-04-27T14:17:10.001Z</time></trkpt><trkpt lat="42.20602823793222" lon="0.937752631922313"><ele>516.0</ele><time>2026-04-27T14:17:11.001Z</time></trkpt><trkpt lat="42.206130952483946" lon="0.9377996255400881"><ele>516.0</ele><time>2026-04-27T14:17:12.001Z</time></trkpt><trkpt lat="42.20623009389286" lon="0.9378519160944265"><ele>516.0</ele><time>2026-04-27T14:17:13.001Z</time></trkpt><trkpt lat="42.206336035636205" lon="0.9378920614451245"><ele>516.0</ele><time>2026-04-27T14:17:14.001Z</time></trkpt><trkpt lat="42.20645544044815" lon="0.9379356767416662"><ele>516.5</ele><time>2026-04-27T14:17:15.001Z</time></trkpt><trkpt lat="42.20656356774649" lon="0.9379764892188867"><ele>517.0</ele><time>2026-04-27T14:17:16.001Z</time></trkpt><trkpt lat="42.206676019848004" lon="0.938012029619716"><ele>517.5</ele><time>2026-04-27T14:17:17.002Z</time></trkpt><trkpt lat="42.20678605776935" lon="0.9380515382817098"><ele>518.0</ele><time>2026-04-27T14:17:18.002Z</time></trkpt><trkpt lat="42.20689621466283" lon="0.93809449801827"><ele>518.0</ele><time>2026-04-27T14:17:19.002Z</time></trkpt><trkpt lat="42.20699701305265" lon="0.9381435116156281"><ele>518.0</ele><time>2026-04-27T14:17:20.002Z</time></trkpt><trkpt lat="42.20711929107263" lon="0.9381870166034931"><ele>518.0</ele><time>2026-04-27T14:17:21.002Z</time></trkpt><trkpt lat="42.20725581953279" lon="0.938230375280063"><ele>518.0</ele><time>2026-04-27T14:17:22.002Z</time></trkpt><trkpt lat="42.20734016100662" lon="0.938282212421665"><ele>517.5</ele><time>2026-04-27T14:17:23.002Z</time></trkpt><trkpt lat="42.20743741774289" lon="0.9383482786818621"><ele>517.0</ele><time>2026-04-27T14:17:24.002Z</time></trkpt><trkpt lat="42.207554364289564" lon="0.9383809187549174"><ele>516.5</ele><time>2026-04-27T14:17:25.002Z</time></trkpt><trkpt lat="42.20766316735401" lon="0.938445653149504"><ele>516.0</ele><time>2026-04-27T14:17:26.002Z</time></trkpt><trkpt lat="42.207762364240565" lon="0.9384957054428041"><ele>516.0</ele><time>2026-04-27T14:17:27.002Z</time></trkpt><trkpt lat="42.20786257450532" lon="0.9385584592735171"><ele>516.0</ele><time>2026-04-27T14:17:28.002Z</time></trkpt><trkpt lat="42.20796982803048" lon="0.9386306344434602"><ele>516.0</ele><time>2026-04-27T14:17:29.002Z</time></trkpt><trkpt lat="42.20807074525018" lon="0.9387079833449409"><ele>516.0</ele><time>2026-04-27T14:17:30.002Z</time></trkpt><trkpt lat="42.20816559302509" lon="0.93879181958088"><ele>518.0</ele><time>2026-04-27T14:17:31.002Z</time></trkpt><trkpt lat="42.208258270596595" lon="0.9388801316023693"><ele>520.0</ele><time>2026-04-27T14:17:32.002Z</time></trkpt><trkpt lat="42.20834753022498" lon="0.9389704327349548"><ele>522.0</ele><time>2026-04-27T14:17:33.002Z</time></trkpt><trkpt lat="42.208435354163164" lon="0.9390661758923318"><ele>524.0</ele><time>2026-04-27T14:17:34.002Z</time></trkpt><trkpt lat="42.208518745770455" lon="0.9391685831788074"><ele>524.0</ele><time>2026-04-27T14:17:35.002Z</time></trkpt><trkpt lat="42.20860025949244" lon="0.9392773583063513"><ele>524.0</ele><time>2026-04-27T14:17:36.002Z</time></trkpt><trkpt lat="42.208678977770866" lon="0.9393852056434833"><ele>524.0</ele><time>2026-04-27T14:17:37.002Z</time></trkpt><trkpt lat="42.20875297926609" lon="0.9395009523468856"><ele>524.0</ele><time>2026-04-27T14:17:38.002Z</time></trkpt><trkpt lat="42.20882377101532" lon="0.9396220481915835"><ele>524.0</ele><time>2026-04-27T14:17:39.002Z</time></trkpt><trkpt lat="42.20889436101219" lon="0.9397545632908397"><ele>524.0</ele><time>2026-04-27T14:17:40.002Z</time></trkpt><trkpt lat="42.208973764657166" lon="0.9399027955175879"><ele>524.0</ele><time>2026-04-27T14:17:41.002Z</time></trkpt><trkpt lat="42.20905629492231" lon="0.9400983205430575"><ele>524.0</ele><time>2026-04-27T14:17:42.002Z</time></trkpt><trkpt lat="42.20910628859506" lon="0.940229422183324"><ele>524.4</ele><time>2026-04-27T14:17:43.002Z</time></trkpt><trkpt lat="42.20913059710581" lon="0.9403129615789346"><ele>524.8</ele><time>2026-04-27T14:17:44.002Z</time></trkpt><trkpt lat="42.20916995563588" lon="0.9404538744384394"><ele>525.2</ele><time>2026-04-27T14:17:45.002Z</time></trkpt><trkpt lat="42.209211008426294" lon="0.9406000014087222"><ele>525.6</ele><time>2026-04-27T14:17:46.002Z</time></trkpt><trkpt lat="42.20925958752378" lon="0.9407459952462606"><ele>526.0</ele><time>2026-04-27T14:17:47.002Z</time></trkpt><trkpt lat="42.20930581728505" lon="0.9409342128291674"><ele>526.0</ele><time>2026-04-27T14:17:48.002Z</time></trkpt><trkpt lat="42.20934256192847" lon="0.9410421969998111"><ele>526.0</ele><time>2026-04-27T14:17:49.002Z</time></trkpt><trkpt lat="42.209374750670655" lon="0.9411937768720424"><ele>526.0</ele><time>2026-04-27T14:17:50.002Z</time></trkpt><trkpt lat="42.20938853275424" lon="0.9413411038573543"><ele>526.0</ele><time>2026-04-27T14:17:51.003Z</time></trkpt><trkpt lat="42.20941569977893" lon="0.9414912056966755"><ele>526.0</ele><time>2026-04-27T14:17:52.003Z</time></trkpt><trkpt lat="42.20947275414679" lon="0.9416483150975775"><ele>525.75</ele><time>2026-04-27T14:17:53.003Z</time></trkpt><trkpt lat="42.20950697101529" lon="0.9417996185572013"><ele>525.5</ele><time>2026-04-27T14:17:54.003Z</time></trkpt><trkpt lat="42.20953802820294" lon="0.9419381660086054"><ele>525.25</ele><time>2026-04-27T14:17:55.003Z</time></trkpt><trkpt lat="42.209559026089856" lon="0.9420769373290153"><ele>525.0</ele><time>2026-04-27T14:17:56.003Z</time></trkpt><trkpt lat="42.20960418829565" lon="0.9422317763581319"><ele>525.0</ele><time>2026-04-27T14:17:57.003Z</time></trkpt><trkpt lat="42.20963735624967" lon="0.9423811824915779"><ele>525.0</ele><time>2026-04-27T14:17:58.003Z</time></trkpt><trkpt lat="42.209668188177304" lon="0.9425314640655604"><ele>525.0</ele><time>2026-04-27T14:17:59.003Z</time></trkpt><trkpt lat="42.209695734822965" lon="0.9426829086531302"><ele>525.0</ele><time>2026-04-27T14:18:00.003Z</time></trkpt><trkpt lat="42.209725965059455" lon="0.9428399236082372"><ele>524.75</ele><time>2026-04-27T14:18:01.003Z</time></trkpt><trkpt lat="42.2097516931153" lon="0.9429956028673444"><ele>524.5</ele><time>2026-04-27T14:18:02.003Z</time></trkpt><trkpt lat="42.20977285645784" lon="0.9431486726563847"><ele>524.25</ele><time>2026-04-27T14:18:03.003Z</time></trkpt><trkpt lat="42.20979010099916" lon="0.9433068382577963"><ele>524.0</ele><time>2026-04-27T14:18:04.003Z</time></trkpt><trkpt lat="42.20980652526833" lon="0.9434495102470336"><ele>526.3333333333333</ele><time>2026-04-27T14:18:05.003Z</time></trkpt><trkpt lat="42.20983633514866" lon="0.9435338650316802"><ele>528.6666666666666</ele><time>2026-04-27T14:18:06.003Z</time></trkpt><trkpt lat="42.209844688382084" lon="0.9439222068052522"><ele>531.0</ele><time>2026-04-27T14:18:08.003Z</time></trkpt><trkpt lat="42.20985760567797" lon="0.9440745349722938"><ele>529.5</ele><time>2026-04-27T14:18:09.003Z</time></trkpt><trkpt lat="42.20988329478612" lon="0.9442266584436452"><ele>528.0</ele><time>2026-04-27T14:18:10.003Z</time></trkpt><trkpt lat="42.20990009309104" lon="0.9443855023833088"><ele>526.5</ele><time>2026-04-27T14:18:11.003Z</time></trkpt><trkpt lat="42.20992709095686" lon="0.9445350776543842"><ele>525.0</ele><time>2026-04-27T14:18:12.003Z</time></trkpt><trkpt lat="42.20995128083464" lon="0.9446841049242516"><ele>525.0</ele><time>2026-04-27T14:18:13.003Z</time></trkpt><trkpt lat="42.20997655878931" lon="0.9448384115286714"><ele>525.0</ele><time>2026-04-27T14:18:14.003Z</time></trkpt><trkpt lat="42.21000749300222" lon="0.9449886439683371"><ele>525.0</ele><time>2026-04-27T14:18:15.003Z</time></trkpt><trkpt lat="42.21003822770185" lon="0.9451393058308182"><ele>525.0</ele><time>2026-04-27T14:18:16.003Z</time></trkpt><trkpt lat="42.2100875974255" lon="0.945277607990626"><ele>524.0</ele><time>2026-04-27T14:18:17.003Z</time></trkpt><trkpt lat="42.21013245629841" lon="0.9454195135693845"><ele>523.0</ele><time>2026-04-27T14:18:18.003Z</time></trkpt><trkpt lat="42.21018934836506" lon="0.9455549939740372"><ele>522.0</ele><time>2026-04-27T14:18:19.003Z</time></trkpt><trkpt lat="42.21024789376814" lon="0.9456946220759426"><ele>521.0</ele><time>2026-04-27T14:18:20.003Z</time></trkpt><trkpt lat="42.210306589014046" lon="0.9458301512036156"><ele>520.3333333333333</ele><time>2026-04-27T14:18:21.001Z</time></trkpt><trkpt lat="42.21043061361961" lon="0.946112380803192"><ele>519.6666666666666</ele><time>2026-04-27T14:18:23.001Z</time></trkpt><trkpt lat="42.21048871927324" lon="0.9462478353104806"><ele>519.0</ele><time>2026-04-27T14:18:24.001Z</time></trkpt><trkpt lat="42.21065085625259" lon="0.9466594066697164"><ele>521.0</ele><time>2026-04-27T14:18:27.001Z</time></trkpt><trkpt lat="42.210708182449586" lon="0.9467917420266032"><ele>523.0</ele><time>2026-04-27T14:18:28.001Z</time></trkpt><trkpt lat="42.210762690141415" lon="0.9469246884083785"><ele>525.0</ele><time>2026-04-27T14:18:29.001Z</time></trkpt><trkpt lat="42.210817251524965" lon="0.9470574837544248"><ele>527.0</ele><time>2026-04-27T14:18:30.001Z</time></trkpt><trkpt lat="42.210876330898444" lon="0.9471914289025898"><ele>527.0</ele><time>2026-04-27T14:18:31Z</time></trkpt><trkpt lat="42.210934490217035" lon="0.947325881745476"><ele>527.0</ele><time>2026-04-27T14:18:32Z</time></trkpt><trkpt lat="42.210992599170815" lon="0.9474642506086712"><ele>527.0</ele><time>2026-04-27T14:18:33Z</time></trkpt><trkpt lat="42.211054090316665" lon="0.9476024082096149"><ele>527.0</ele><time>2026-04-27T14:18:34Z</time></trkpt><trkpt lat="42.21111526552209" lon="0.9477373184380632"><ele>525.5</ele><time>2026-04-27T14:18:35Z</time></trkpt><trkpt lat="42.21117785168619" lon="0.947875350329674"><ele>524.0</ele><time>2026-04-27T14:18:36Z</time></trkpt><trkpt lat="42.211239500242655" lon="0.9480107436166273"><ele>522.5</ele><time>2026-04-27T14:18:37Z</time></trkpt><trkpt lat="42.21130206017706" lon="0.9481441417045602"><ele>521.0</ele><time>2026-04-27T14:18:38Z</time></trkpt><trkpt lat="42.21135979347013" lon="0.9482761075590198"><ele>521.75</ele><time>2026-04-27T14:18:39Z</time></trkpt><trkpt lat="42.21140061232704" lon="0.9484294511631725"><ele>522.5</ele><time>2026-04-27T14:18:40Z</time></trkpt><trkpt lat="42.21146414799919" lon="0.9485511642939468"><ele>523.25</ele><time>2026-04-27T14:18:41Z</time></trkpt><trkpt lat="42.2115219832406" lon="0.9486808983964556"><ele>524.0</ele><time>2026-04-27T14:18:42Z</time></trkpt><trkpt lat="42.21157303310831" lon="0.948819838873831"><ele>524.0</ele><time>2026-04-27T14:18:43.001Z</time></trkpt><trkpt lat="42.211624357068764" lon="0.9489586853641653"><ele>524.0</ele><time>2026-04-27T14:18:44.001Z</time></trkpt><trkpt lat="42.211692445276654" lon="0.9490870341998243"><ele>524.0</ele><time>2026-04-27T14:18:45.001Z</time></trkpt><trkpt lat="42.211755408984466" lon="0.9492227273900569"><ele>524.0</ele><time>2026-04-27T14:18:46.001Z</time></trkpt><trkpt lat="42.211802444674106" lon="0.9493811540664521"><ele>522.5</ele><time>2026-04-27T14:18:47.001Z</time></trkpt><trkpt lat="42.21185221631593" lon="0.9495335055021032"><ele>521.0</ele><time>2026-04-27T14:18:48.001Z</time></trkpt><trkpt lat="42.21191140546471" lon="0.9496746725565929"><ele>519.5</ele><time>2026-04-27T14:18:49.001Z</time></trkpt><trkpt lat="42.212004952917894" lon="0.9497628282801596"><ele>518.0</ele><time>2026-04-27T14:18:50.001Z</time></trkpt><trkpt lat="42.21206373658519" lon="0.949901259021427"><ele>518.0</ele><time>2026-04-27T14:18:51.001Z</time></trkpt><trkpt lat="42.21212230624656" lon="0.9500397863548797"><ele>518.0</ele><time>2026-04-27T14:18:52.001Z</time></trkpt><trkpt lat="42.21217921688924" lon="0.9501780351466691"><ele>518.0</ele><time>2026-04-27T14:18:53.001Z</time></trkpt><trkpt lat="42.21223665039859" lon="0.9503103406745192"><ele>518.0</ele><time>2026-04-27T14:18:54.001Z</time></trkpt><trkpt lat="42.2122966811663" lon="0.9504481517714066"><ele>518.25</ele><time>2026-04-27T14:18:55.001Z</time></trkpt><trkpt lat="42.212358397863774" lon="0.9505769576358565"><ele>518.5</ele><time>2026-04-27T14:18:56.001Z</time></trkpt><trkpt lat="42.21242735625687" lon="0.9507063199777817"><ele>518.75</ele><time>2026-04-27T14:18:57.001Z</time></trkpt><trkpt lat="42.212489454768544" lon="0.9508299517640594"><ele>519.0</ele><time>2026-04-27T14:18:58.001Z</time></trkpt><trkpt lat="42.212561199920025" lon="0.9509512954070602"><ele>519.0</ele><time>2026-04-27T14:18:59.001Z</time></trkpt><trkpt lat="42.212634372559556" lon="0.951070667469909"><ele>519.0</ele><time>2026-04-27T14:19:00.001Z</time></trkpt><trkpt lat="42.21271118850764" lon="0.9511842366839273"><ele>519.0</ele><time>2026-04-27T14:19:01.001Z</time></trkpt><trkpt lat="42.212790486570725" lon="0.951294747864454"><ele>519.0</ele><time>2026-04-27T14:19:02.001Z</time></trkpt><trkpt lat="42.212867950136356" lon="0.9513981072201679"><ele>519.0</ele><time>2026-04-27T14:19:03.001Z</time></trkpt><trkpt lat="42.21295020533151" lon="0.9515036063385965"><ele>519.0</ele><time>2026-04-27T14:19:04.001Z</time></trkpt><trkpt lat="42.21303012603867" lon="0.9516045260050507"><ele>519.0</ele><time>2026-04-27T14:19:05.001Z</time></trkpt><trkpt lat="42.21311007064339" lon="0.9517015890243563"><ele>519.0</ele><time>2026-04-27T14:19:06.001Z</time></trkpt><trkpt lat="42.21319527117318" lon="0.9517980611224562"><ele>519.0</ele><time>2026-04-27T14:19:07.001Z</time></trkpt><trkpt lat="42.2132848166831" lon="0.9518991755683559"><ele>519.75</ele><time>2026-04-27T14:19:08.001Z</time></trkpt><trkpt lat="42.21337416065264" lon="0.9520004857320584"><ele>520.5</ele><time>2026-04-27T14:19:09.001Z</time></trkpt><trkpt lat="42.21346849923595" lon="0.9520927448326528"><ele>521.25</ele><time>2026-04-27T14:19:10.001Z</time></trkpt><trkpt lat="42.21356131170197" lon="0.9522000508269812"><ele>522.0</ele><time>2026-04-27T14:19:11.001Z</time></trkpt><trkpt lat="42.213671245641756" lon="0.9522874492752901"><ele>522.0</ele><time>2026-04-27T14:19:13.001Z</time></trkpt><trkpt lat="42.21385068109551" lon="0.9524619649466932"><ele>522.0</ele><time>2026-04-27T14:19:14.001Z</time></trkpt><trkpt lat="42.213969793726456" lon="0.9526233255858342"><ele>522.0</ele><time>2026-04-27T14:19:15.001Z</time></trkpt><trkpt lat="42.214092952536774" lon="0.9527606698758453"><ele>522.75</ele><time>2026-04-27T14:19:16.001Z</time></trkpt><trkpt lat="42.21422430282659" lon="0.952873403844272"><ele>523.5</ele><time>2026-04-27T14:19:18.001Z</time></trkpt><trkpt lat="42.21431097691439" lon="0.9529745600501561"><ele>524.25</ele><time>2026-04-27T14:19:19.001Z</time></trkpt><trkpt lat="42.214399323391305" lon="0.9530749259816572"><ele>525.0</ele><time>2026-04-27T14:19:20.001Z</time></trkpt><trkpt lat="42.21448998083372" lon="0.9531768803832289"><ele>525.0</ele><time>2026-04-27T14:19:21.001Z</time></trkpt><trkpt lat="42.21458169561629" lon="0.953276582239647"><ele>525.0</ele><time>2026-04-27T14:19:22.001Z</time></trkpt><trkpt lat="42.21467293510447" lon="0.9533742482257328"><ele>525.0</ele><time>2026-04-27T14:19:23.001Z</time></trkpt><trkpt lat="42.21476316441318" lon="0.9534730470788401"><ele>525.0</ele><time>2026-04-27T14:19:24.001Z</time></trkpt><trkpt lat="42.21485649996659" lon="0.9535698055016135"><ele>524.75</ele><time>2026-04-27T14:19:25.001Z</time></trkpt><trkpt lat="42.21494660083471" lon="0.9536692160382751"><ele>524.5</ele><time>2026-04-27T14:19:26.001Z</time></trkpt><trkpt lat="42.21504158430767" lon="0.9537637403422589"><ele>524.25</ele><time>2026-04-27T14:19:27.001Z</time></trkpt><trkpt lat="42.215128736333384" lon="0.9538646291583044"><ele>524.0</ele><time>2026-04-27T14:19:28.002Z</time></trkpt><trkpt lat="42.21523256608681" lon="0.9539612089027564"><ele>524.0</ele><time>2026-04-27T14:19:29.002Z</time></trkpt><trkpt lat="42.2153929715889" lon="0.9540713653427777"><ele>524.0</ele><time>2026-04-27T14:19:30.002Z</time></trkpt><trkpt lat="42.215525221542485" lon="0.954241487501537"><ele>524.0</ele><time>2026-04-27T14:19:31.002Z</time></trkpt><trkpt lat="42.21560003746434" lon="0.9543239901106753"><ele>523.0</ele><time>2026-04-27T14:19:32.002Z</time></trkpt><trkpt lat="42.21569044365665" lon="0.954424471244533"><ele>522.0</ele><time>2026-04-27T14:19:34.002Z</time></trkpt><trkpt lat="42.21585144445528" lon="0.9546365228939705"><ele>521.0</ele><time>2026-04-27T14:19:36.002Z</time></trkpt><trkpt lat="42.21594318880018" lon="0.954736029831426"><ele>521.0</ele><time>2026-04-27T14:19:37.002Z</time></trkpt><trkpt lat="42.21603484327226" lon="0.9548382529648393"><ele>521.0</ele><time>2026-04-27T14:19:38.002Z</time></trkpt><trkpt lat="42.21612930493084" lon="0.9549363772990033"><ele>521.0</ele><time>2026-04-27T14:19:39.002Z</time></trkpt><trkpt lat="42.21622249815336" lon="0.9550335734400504"><ele>521.0</ele><time>2026-04-27T14:19:40.002Z</time></trkpt><trkpt lat="42.21631387520716" lon="0.9551307599837459"><ele>521.5</ele><time>2026-04-27T14:19:41.002Z</time></trkpt><trkpt lat="42.21640614627815" lon="0.9552288725438591"><ele>522.0</ele><time>2026-04-27T14:19:42.002Z</time></trkpt><trkpt lat="42.21649909122845" lon="0.9553255103190211"><ele>522.5</ele><time>2026-04-27T14:19:43.002Z</time></trkpt><trkpt lat="42.21659111098129" lon="0.9554257659593884"><ele>523.0</ele><time>2026-04-27T14:19:44.002Z</time></trkpt><trkpt lat="42.216684082746184" lon="0.9555255343886961"><ele>523.0</ele><time>2026-04-27T14:19:45.002Z</time></trkpt><trkpt lat="42.21677606697049" lon="0.9556281332494463"><ele>523.0</ele><time>2026-04-27T14:19:46.002Z</time></trkpt><trkpt lat="42.21686812283644" lon="0.9557265245964897"><ele>523.0</ele><time>2026-04-27T14:19:47.002Z</time></trkpt><trkpt lat="42.21695826277217" lon="0.9558294867149875"><ele>523.0</ele><time>2026-04-27T14:19:48.002Z</time></trkpt><trkpt lat="42.217053912517216" lon="0.9559355684894334"><ele>522.5</ele><time>2026-04-27T14:19:49.002Z</time></trkpt><trkpt lat="42.21714243936078" lon="0.9560400785946312"><ele>522.0</ele><time>2026-04-27T14:19:50.002Z</time></trkpt><trkpt lat="42.21722679165103" lon="0.9561500037774935"><ele>521.5</ele><time>2026-04-27T14:19:51.002Z</time></trkpt><trkpt lat="42.21731006636965" lon="0.956266389769192"><ele>521.0</ele><time>2026-04-27T14:19:52.002Z</time></trkpt><trkpt lat="42.21738727396974" lon="0.9563852894211111"><ele>521.0</ele><time>2026-04-27T14:19:53.002Z</time></trkpt><trkpt lat="42.21746631982585" lon="0.956509226110156"><ele>521.0</ele><time>2026-04-27T14:19:54.002Z</time></trkpt><trkpt lat="42.217536978767335" lon="0.9566359258637317"><ele>521.0</ele><time>2026-04-27T14:19:55.002Z</time></trkpt><trkpt lat="42.217608931833176" lon="0.9567685752108677"><ele>521.0</ele><time>2026-04-27T14:19:56.002Z</time></trkpt><trkpt lat="42.21767634638136" lon="0.9568984177167612"><ele>519.75</ele><time>2026-04-27T14:19:57.002Z</time></trkpt><trkpt lat="42.21774316800871" lon="0.957033480633923"><ele>518.5</ele><time>2026-04-27T14:19:58.002Z</time></trkpt><trkpt lat="42.21780650900479" lon="0.957174829884217"><ele>517.25</ele><time>2026-04-27T14:19:59.002Z</time></trkpt><trkpt lat="42.217870449624755" lon="0.9573092905696645"><ele>516.0</ele><time>2026-04-27T14:20:00.002Z</time></trkpt><trkpt lat="42.217931903372744" lon="0.9574454502676591"><ele>516.0</ele><time>2026-04-27T14:20:01.002Z</time></trkpt><trkpt lat="42.21799531152553" lon="0.9575801389421916"><ele>516.0</ele><time>2026-04-27T14:20:02.002Z</time></trkpt><trkpt lat="42.21806079526228" lon="0.957711011516582"><ele>516.0</ele><time>2026-04-27T14:20:03.002Z</time></trkpt><trkpt lat="42.218124912279734" lon="0.9578427167819161"><ele>516.0</ele><time>2026-04-27T14:20:04.002Z</time></trkpt><trkpt lat="42.21818779741591" lon="0.9579778276709283"><ele>516.75</ele><time>2026-04-27T14:20:05.002Z</time></trkpt><trkpt lat="42.21824677783338" lon="0.9581136827623553"><ele>517.5</ele><time>2026-04-27T14:20:06.002Z</time></trkpt><trkpt lat="42.21830873969995" lon="0.9582492427096585"><ele>518.25</ele><time>2026-04-27T14:20:07.003Z</time></trkpt><trkpt lat="42.2183715546416" lon="0.9583821855529956"><ele>519.0</ele><time>2026-04-27T14:20:08.003Z</time></trkpt><trkpt lat="42.21843877598603" lon="0.9585032503601918"><ele>519.0</ele><time>2026-04-27T14:20:09.003Z</time></trkpt><trkpt lat="42.21850591554772" lon="0.9586298949655271"><ele>519.0</ele><time>2026-04-27T14:20:10.003Z</time></trkpt><trkpt lat="42.218554038507634" lon="0.9587321682128679"><ele>519.0</ele><time>2026-04-27T14:20:11.003Z</time></trkpt><trkpt lat="42.2186347166382" lon="0.9588840072255468"><ele>519.0</ele><time>2026-04-27T14:20:12.003Z</time></trkpt><trkpt lat="42.21868562410468" lon="0.9590255155530056"><ele>519.0</ele><time>2026-04-27T14:20:13.003Z</time></trkpt><trkpt lat="42.21873820351212" lon="0.9591598084709969"><ele>519.0</ele><time>2026-04-27T14:20:14.003Z</time></trkpt><trkpt lat="42.218809756188506" lon="0.9592903571516267"><ele>519.0</ele><time>2026-04-27T14:20:15.003Z</time></trkpt><trkpt lat="42.218873457091405" lon="0.959421076027169"><ele>519.0</ele><time>2026-04-27T14:20:16.003Z</time></trkpt><trkpt lat="42.218938132567224" lon="0.9595538766388751"><ele>519.0</ele><time>2026-04-27T14:20:17.003Z</time></trkpt><trkpt lat="42.21900185225125" lon="0.9596857373512513"><ele>519.0</ele><time>2026-04-27T14:20:18.003Z</time></trkpt><trkpt lat="42.2190719647551" lon="0.9598140623437046"><ele>519.0</ele><time>2026-04-27T14:20:19.003Z</time></trkpt><trkpt lat="42.21914620494216" lon="0.9599385491029857"><ele>519.0</ele><time>2026-04-27T14:20:20.003Z</time></trkpt><trkpt lat="42.21922435790828" lon="0.9600585515784337"><ele>519.0</ele><time>2026-04-27T14:20:21.003Z</time></trkpt><trkpt lat="42.219305291266245" lon="0.9601784622443331"><ele>519.0</ele><time>2026-04-27T14:20:22.003Z</time></trkpt><trkpt lat="42.21939022276471" lon="0.9602912922629829"><ele>519.0</ele><time>2026-04-27T14:20:23.003Z</time></trkpt><trkpt lat="42.21948153141006" lon="0.9603975245663857"><ele>519.0</ele><time>2026-04-27T14:20:24.003Z</time></trkpt><trkpt lat="42.21957549291899" lon="0.9604957017020556"><ele>519.0</ele><time>2026-04-27T14:20:25.003Z</time></trkpt><trkpt lat="42.219671593471766" lon="0.9605914003345967"><ele>519.0</ele><time>2026-04-27T14:20:26.003Z</time></trkpt><trkpt lat="42.219770039512206" lon="0.9606800162918067"><ele>519.0</ele><time>2026-04-27T14:20:27Z</time></trkpt><trkpt lat="42.21987273881079" lon="0.9607615451616596"><ele>519.0</ele><time>2026-04-27T14:20:28Z</time></trkpt><trkpt lat="42.21997698995117" lon="0.960838727695888"><ele>519.0</ele><time>2026-04-27T14:20:29.001Z</time></trkpt><trkpt lat="42.22008362224547" lon="0.9609097328833877"><ele>519.0</ele><time>2026-04-27T14:20:30Z</time></trkpt><trkpt lat="42.2201955540457" lon="0.9609785891413478"><ele>519.0</ele><time>2026-04-27T14:20:31Z</time></trkpt><trkpt lat="42.22030631497852" lon="0.9610389595516423"><ele>519.0</ele><time>2026-04-27T14:20:32Z</time></trkpt><trkpt lat="42.22041746672499" lon="0.9610990329162901"><ele>519.0</ele><time>2026-04-27T14:20:33Z</time></trkpt><trkpt lat="42.22053140744782" lon="0.9611568470642216"><ele>519.0</ele><time>2026-04-27T14:20:34Z</time></trkpt><trkpt lat="42.220644793575275" lon="0.9612112560995142"><ele>519.0</ele><time>2026-04-27T14:20:35Z</time></trkpt><trkpt lat="42.22075763376903" lon="0.9612652043188251"><ele>519.0</ele><time>2026-04-27T14:20:36Z</time></trkpt><trkpt lat="42.22087007910064" lon="0.9613200786360953"><ele>518.5</ele><time>2026-04-27T14:20:37Z</time></trkpt><trkpt lat="42.22098302298956" lon="0.9613777004644309"><ele>518.0</ele><time>2026-04-27T14:20:38Z</time></trkpt><trkpt lat="42.22109717127587" lon="0.9614368749630957"><ele>517.5</ele><time>2026-04-27T14:20:39Z</time></trkpt><trkpt lat="42.221209460686396" lon="0.9614922614827053"><ele>517.0</ele><time>2026-04-27T14:20:40Z</time></trkpt><trkpt lat="42.22132278082135" lon="0.9615451808357672"><ele>517.0</ele><time>2026-04-27T14:20:41Z</time></trkpt><trkpt lat="42.22143484156684" lon="0.9615974736276157"><ele>517.0</ele><time>2026-04-27T14:20:42Z</time></trkpt><trkpt lat="42.22154457014097" lon="0.9616505871143013"><ele>517.0</ele><time>2026-04-27T14:20:43Z</time></trkpt><trkpt lat="42.22165427948696" lon="0.9617047829399686"><ele>517.0</ele><time>2026-04-27T14:20:44Z</time></trkpt><trkpt lat="42.22176475649327" lon="0.9617574781821836"><ele>514.5</ele><time>2026-04-27T14:20:45Z</time></trkpt><trkpt lat="42.22187531334801" lon="0.9618122452864054"><ele>512.0</ele><time>2026-04-27T14:20:46.001Z</time></trkpt><trkpt lat="42.22198540642378" lon="0.961866750524352"><ele>509.5</ele><time>2026-04-27T14:20:47.001Z</time></trkpt><trkpt lat="42.222095787831364" lon="0.9619237854081464"><ele>507.0</ele><time>2026-04-27T14:20:48.001Z</time></trkpt><trkpt lat="42.22220405137459" lon="0.9619819244290708"><ele>507.0</ele><time>2026-04-27T14:20:49.001Z</time></trkpt><trkpt lat="42.22231153244289" lon="0.9620437289515592"><ele>507.0</ele><time>2026-04-27T14:20:50.001Z</time></trkpt><trkpt lat="42.22241720225453" lon="0.962103134754548"><ele>507.0</ele><time>2026-04-27T14:20:51.001Z</time></trkpt><trkpt lat="42.222521172423534" lon="0.9621699599992352"><ele>507.0</ele><time>2026-04-27T14:20:52.001Z</time></trkpt><trkpt lat="42.222636407650256" lon="0.9622425041259787"><ele>510.66666666666663</ele><time>2026-04-27T14:20:53.001Z</time></trkpt><trkpt lat="42.22282423868694" lon="0.9622998734786473"><ele>514.3333333333333</ele><time>2026-04-27T14:20:54.001Z</time></trkpt><trkpt lat="42.22301361956966" lon="0.9624022622945326"><ele>518.0</ele><time>2026-04-27T14:20:55.001Z</time></trkpt><trkpt lat="42.22294530316767" lon="0.9624023732710141"><ele>518.0</ele><time>2026-04-27T14:20:56.001Z</time></trkpt><trkpt lat="42.22304870376843" lon="0.9624530885994358"><ele>518.0</ele><time>2026-04-27T14:20:57.001Z</time></trkpt><trkpt lat="42.223156129797765" lon="0.9625044771352202"><ele>518.0</ele><time>2026-04-27T14:20:58.001Z</time></trkpt><trkpt lat="42.22326517674719" lon="0.9625568107206832"><ele>518.0</ele><time>2026-04-27T14:20:59.001Z</time></trkpt><trkpt lat="42.22337172182469" lon="0.9626151783952023"><ele>518.1999999999999</ele><time>2026-04-27T14:21:00.001Z</time></trkpt><trkpt lat="42.22347713824581" lon="0.9626628512375026"><ele>518.4</ele><time>2026-04-27T14:21:01.001Z</time></trkpt><trkpt lat="42.22358179632279" lon="0.9627148455915603"><ele>518.5999999999999</ele><time>2026-04-27T14:21:02.001Z</time></trkpt><trkpt lat="42.223680983035564" lon="0.9627694622001479"><ele>518.8</ele><time>2026-04-27T14:21:03.001Z</time></trkpt><trkpt lat="42.223786071450604" lon="0.9628203883642066"><ele>519.0</ele><time>2026-04-27T14:21:04.001Z</time></trkpt><trkpt lat="42.22389006074882" lon="0.9628696416844319"><ele>519.2</ele><time>2026-04-27T14:21:05.001Z</time></trkpt><trkpt lat="42.22399195160172" lon="0.962922942893161"><ele>519.4</ele><time>2026-04-27T14:21:06.001Z</time></trkpt><trkpt lat="42.22409465014392" lon="0.9629683204672247"><ele>519.6</ele><time>2026-04-27T14:21:07.001Z</time></trkpt><trkpt lat="42.22420157647221" lon="0.9630144407095881"><ele>519.8</ele><time>2026-04-27T14:21:08.001Z</time></trkpt><trkpt lat="42.22430944722419" lon="0.9630598328646798"><ele>520.0</ele><time>2026-04-27T14:21:09.001Z</time></trkpt><trkpt lat="42.224411815264816" lon="0.9631004222962296"><ele>520.0</ele><time>2026-04-27T14:21:10.001Z</time></trkpt><trkpt lat="42.22452007112237" lon="0.9631325726530428"><ele>520.0</ele><time>2026-04-27T14:21:11.001Z</time></trkpt><trkpt lat="42.22463079831241" lon="0.9631591585038335"><ele>520.0</ele><time>2026-04-27T14:21:12.001Z</time></trkpt><trkpt lat="42.224744149943064" lon="0.9631837484089131"><ele>520.0</ele><time>2026-04-27T14:21:13.001Z</time></trkpt><trkpt lat="42.22485666866569" lon="0.9632033805710939"><ele>519.5</ele><time>2026-04-27T14:21:14.001Z</time></trkpt><trkpt lat="42.224971714435725" lon="0.9632271826701069"><ele>519.0</ele><time>2026-04-27T14:21:15.001Z</time></trkpt><trkpt lat="42.225087138611" lon="0.9632563073389234"><ele>518.5</ele><time>2026-04-27T14:21:16.001Z</time></trkpt><trkpt lat="42.22520160410626" lon="0.9632772684634042"><ele>518.0</ele><time>2026-04-27T14:21:17.001Z</time></trkpt><trkpt lat="42.22531836942918" lon="0.9632961492859189"><ele>518.0</ele><time>2026-04-27T14:21:18.001Z</time></trkpt><trkpt lat="42.22543899649227" lon="0.9633119832948546"><ele>518.0</ele><time>2026-04-27T14:21:19.001Z</time></trkpt><trkpt lat="42.22555386966134" lon="0.9633239434510312"><ele>518.0</ele><time>2026-04-27T14:21:20.001Z</time></trkpt><trkpt lat="42.22567101069205" lon="0.9633348432369592"><ele>518.0</ele><time>2026-04-27T14:21:21.001Z</time></trkpt><trkpt lat="42.22578691571142" lon="0.9633420593784157"><ele>517.5</ele><time>2026-04-27T14:21:22.001Z</time></trkpt><trkpt lat="42.225905600711556" lon="0.9633471285991075"><ele>517.0</ele><time>2026-04-27T14:21:23.001Z</time></trkpt><trkpt lat="42.22602748098107" lon="0.9633471181403425"><ele>516.5</ele><time>2026-04-27T14:21:24.001Z</time></trkpt><trkpt lat="42.22614832279767" lon="0.9633493107211173"><ele>516.0</ele><time>2026-04-27T14:21:25.001Z</time></trkpt><trkpt lat="42.226268068331315" lon="0.9633531878903411"><ele>516.0</ele><time>2026-04-27T14:21:26.001Z</time></trkpt><trkpt lat="42.22638748540032" lon="0.9633615499216912"><ele>516.0</ele><time>2026-04-27T14:21:27.001Z</time></trkpt><trkpt lat="42.22650894798766" lon="0.9633645527010037"><ele>516.0</ele><time>2026-04-27T14:21:28.001Z</time></trkpt><trkpt lat="42.22662898923101" lon="0.9633662329997585"><ele>516.0</ele><time>2026-04-27T14:21:29.001Z</time></trkpt><trkpt lat="42.22674715797756" lon="0.9633660739088189"><ele>515.75</ele><time>2026-04-27T14:21:30.001Z</time></trkpt><trkpt lat="42.22686783415688" lon="0.9633633546179636"><ele>515.5</ele><time>2026-04-27T14:21:31.001Z</time></trkpt><trkpt lat="42.22698904920161" lon="0.9633634826471532"><ele>515.25</ele><time>2026-04-27T14:21:32.001Z</time></trkpt><trkpt lat="42.227110902081826" lon="0.9633677785868485"><ele>515.0</ele><time>2026-04-27T14:21:33.002Z</time></trkpt><trkpt lat="42.22723008582424" lon="0.9633735668324895"><ele>513.0</ele><time>2026-04-27T14:21:34.002Z</time></trkpt><trkpt lat="42.22734831617489" lon="0.9633875957190696"><ele>511.0</ele><time>2026-04-27T14:21:35.002Z</time></trkpt><trkpt lat="42.22746988699833" lon="0.9633998725113743"><ele>509.0</ele><time>2026-04-27T14:21:36.002Z</time></trkpt><trkpt lat="42.22758827898691" lon="0.9634161395765732"><ele>507.0</ele><time>2026-04-27T14:21:37.002Z</time></trkpt><trkpt lat="42.227705150715686" lon="0.9634336888850467"><ele>507.0</ele><time>2026-04-27T14:21:38.002Z</time></trkpt><trkpt lat="42.227822737932904" lon="0.9634585835763854"><ele>507.0</ele><time>2026-04-27T14:21:39.002Z</time></trkpt><trkpt lat="42.22794017798272" lon="0.9634873841036644"><ele>507.0</ele><time>2026-04-27T14:21:40.002Z</time></trkpt><trkpt lat="42.22805772757356" lon="0.9635181255866414"><ele>507.0</ele><time>2026-04-27T14:21:41.002Z</time></trkpt><trkpt lat="42.228173940184135" lon="0.9635540504133929"><ele>507.5</ele><time>2026-04-27T14:21:42.002Z</time></trkpt><trkpt lat="42.228289609864156" lon="0.9635950238346137"><ele>508.0</ele><time>2026-04-27T14:21:43.002Z</time></trkpt><trkpt lat="42.22840184633896" lon="0.9636368136603075"><ele>508.5</ele><time>2026-04-27T14:21:44.002Z</time></trkpt><trkpt lat="42.2285154984296" lon="0.9636762243266893"><ele>509.0</ele><time>2026-04-27T14:21:45.002Z</time></trkpt><trkpt lat="42.22862824443561" lon="0.9637175655399179"><ele>509.0</ele><time>2026-04-27T14:21:46.002Z</time></trkpt><trkpt lat="42.228741342318465" lon="0.9637571623409387"><ele>509.0</ele><time>2026-04-27T14:21:47.002Z</time></trkpt><trkpt lat="42.22885404606768" lon="0.9637945480334159"><ele>509.0</ele><time>2026-04-27T14:21:48.002Z</time></trkpt><trkpt lat="42.22896576128642" lon="0.9638344032525056"><ele>509.0</ele><time>2026-04-27T14:21:49.002Z</time></trkpt><trkpt lat="42.229075303648536" lon="0.9638742228541872"><ele>509.4</ele><time>2026-04-27T14:21:50.002Z</time></trkpt><trkpt lat="42.22918936758672" lon="0.9639139940665724"><ele>509.79999999999995</ele><time>2026-04-27T14:21:51.002Z</time></trkpt><trkpt lat="42.229296698043164" lon="0.9639520384713277"><ele>510.20000000000005</ele><time>2026-04-27T14:21:52.002Z</time></trkpt><trkpt lat="42.22940221721047" lon="0.9639926437093468"><ele>510.6</ele><time>2026-04-27T14:21:53.002Z</time></trkpt><trkpt lat="42.2295082897135" lon="0.9640273081164416"><ele>511.0</ele><time>2026-04-27T14:21:54.002Z</time></trkpt><trkpt lat="42.229611374016905" lon="0.9640707980497359"><ele>511.0</ele><time>2026-04-27T14:21:55.002Z</time></trkpt><trkpt lat="42.22971718495928" lon="0.964108613675904"><ele>511.0</ele><time>2026-04-27T14:21:56.002Z</time></trkpt><trkpt lat="42.22982476298989" lon="0.9641473428389988"><ele>511.0</ele><time>2026-04-27T14:21:57.002Z</time></trkpt><trkpt lat="42.229931658152125" lon="0.9641849338960888"><ele>511.0</ele><time>2026-04-27T14:21:58.002Z</time></trkpt><trkpt lat="42.23003998786441" lon="0.9642228991718265"><ele>511.0</ele><time>2026-04-27T14:21:59.002Z</time></trkpt><trkpt lat="42.23014872910455" lon="0.9642615265038463"><ele>511.25</ele><time>2026-04-27T14:22:00.002Z</time></trkpt><trkpt lat="42.23025624122749" lon="0.9643027156009722"><ele>511.5</ele><time>2026-04-27T14:22:01.002Z</time></trkpt><trkpt lat="42.23036561636373" lon="0.9643435372503113"><ele>511.75</ele><time>2026-04-27T14:22:02.002Z</time></trkpt><trkpt lat="42.2304777772607" lon="0.9643849318313482"><ele>512.0</ele><time>2026-04-27T14:22:03.002Z</time></trkpt><trkpt lat="42.2305868383313" lon="0.9644228842696768"><ele>512.4</ele><time>2026-04-27T14:22:04.002Z</time></trkpt><trkpt lat="42.23069526499628" lon="0.9644602091849013"><ele>512.8000000000001</ele><time>2026-04-27T14:22:05.002Z</time></trkpt><trkpt lat="42.23080540915587" lon="0.9644954173417726"><ele>513.2</ele><time>2026-04-27T14:22:06.002Z</time></trkpt><trkpt lat="42.23091147282815" lon="0.9645353080989194"><ele>513.6</ele><time>2026-04-27T14:22:07.002Z</time></trkpt><trkpt lat="42.231020644427254" lon="0.9645746367975909"><ele>514.0</ele><time>2026-04-27T14:22:08.002Z</time></trkpt><trkpt lat="42.23113198901562" lon="0.9646150516263817"><ele>514.0</ele><time>2026-04-27T14:22:09.002Z</time></trkpt><trkpt lat="42.231242306258885" lon="0.9646537645617406"><ele>514.0</ele><time>2026-04-27T14:22:10.002Z</time></trkpt><trkpt lat="42.23135359991276" lon="0.9646934195853339"><ele>514.0</ele><time>2026-04-27T14:22:11.002Z</time></trkpt><trkpt lat="42.231461500641934" lon="0.9647369696438033"><ele>514.0</ele><time>2026-04-27T14:22:12.002Z</time></trkpt><trkpt lat="42.2315703729354" lon="0.9647779881080254"><ele>513.75</ele><time>2026-04-27T14:22:13.002Z</time></trkpt><trkpt lat="42.231694994034726" lon="0.9648087796317836"><ele>513.5</ele><time>2026-04-27T14:22:14.003Z</time></trkpt><trkpt lat="42.231840938011814" lon="0.9648607492338263"><ele>513.25</ele><time>2026-04-27T14:22:15.003Z</time></trkpt><trkpt lat="42.2319812637652" lon="0.964911031502902"><ele>513.0</ele><time>2026-04-27T14:22:16.003Z</time></trkpt><trkpt lat="42.2321396406842" lon="0.9649798448790936"><ele>513.0</ele><time>2026-04-27T14:22:18.003Z</time></trkpt><trkpt lat="42.23225404428152" lon="0.9650200702712372"><ele>513.0</ele><time>2026-04-27T14:22:19.003Z</time></trkpt><trkpt lat="42.23236683723337" lon="0.965056660341578"><ele>513.0</ele><time>2026-04-27T14:22:20.003Z</time></trkpt><trkpt lat="42.232482932804054" lon="0.9650969879445958"><ele>513.0</ele><time>2026-04-27T14:22:21.003Z</time></trkpt><trkpt lat="42.23259660890277" lon="0.965134600030605"><ele>511.5</ele><time>2026-04-27T14:22:22.003Z</time></trkpt><trkpt lat="42.23271249794783" lon="0.9651743508749894"><ele>510.0</ele><time>2026-04-27T14:22:23.003Z</time></trkpt><trkpt lat="42.23282448207764" lon="0.9652038297849185"><ele>508.5</ele><time>2026-04-27T14:22:24.003Z</time></trkpt><trkpt lat="42.232943243337985" lon="0.9652283903282165"><ele>507.0</ele><time>2026-04-27T14:22:25.003Z</time></trkpt><trkpt lat="42.23306092325739" lon="0.9652511934527368"><ele>507.5</ele><time>2026-04-27T14:22:26.003Z</time></trkpt><trkpt lat="42.233175600776654" lon="0.9652736047342142"><ele>508.0</ele><time>2026-04-27T14:22:27.003Z</time></trkpt><trkpt lat="42.23329447028003" lon="0.9652775933843938"><ele>508.5</ele><time>2026-04-27T14:22:28.003Z</time></trkpt><trkpt lat="42.233413551289544" lon="0.9652814826258126"><ele>509.0</ele><time>2026-04-27T14:22:29.003Z</time></trkpt><trkpt lat="42.233533240606214" lon="0.965276932159325"><ele>509.0</ele><time>2026-04-27T14:22:30.003Z</time></trkpt><trkpt lat="42.233654127271784" lon="0.9652593753206808"><ele>509.0</ele><time>2026-04-27T14:22:31.003Z</time></trkpt><trkpt lat="42.233775088644634" lon="0.9652355838094712"><ele>509.0</ele><time>2026-04-27T14:22:32.003Z</time></trkpt><trkpt lat="42.23389455177274" lon="0.9652090103813196"><ele>509.0</ele><time>2026-04-27T14:22:33.001Z</time></trkpt><trkpt lat="42.23401283656685" lon="0.965177883389468"><ele>508.75</ele><time>2026-04-27T14:22:34.001Z</time></trkpt><trkpt lat="42.2341329517268" lon="0.9651414546833477"><ele>508.5</ele><time>2026-04-27T14:22:35.001Z</time></trkpt><trkpt lat="42.23424963213217" lon="0.9651028360560993"><ele>508.25</ele><time>2026-04-27T14:22:36.001Z</time></trkpt><trkpt lat="42.23436624108339" lon="0.9650634171400382"><ele>508.0</ele><time>2026-04-27T14:22:37.001Z</time></trkpt><trkpt lat="42.234481175642955" lon="0.9650308691145388"><ele>508.5</ele><time>2026-04-27T14:22:38.001Z</time></trkpt><trkpt lat="42.23459235518956" lon="0.9649966878399315"><ele>509.0</ele><time>2026-04-27T14:22:39.001Z</time></trkpt><trkpt lat="42.23470380758861" lon="0.9649584420468408"><ele>509.5</ele><time>2026-04-27T14:22:40.001Z</time></trkpt><trkpt lat="42.234815835255475" lon="0.9649229951380225"><ele>510.0</ele><time>2026-04-27T14:22:41.001Z</time></trkpt><trkpt lat="42.23492682316231" lon="0.9648909237211347"><ele>509.0</ele><time>2026-04-27T14:22:42.001Z</time></trkpt><trkpt lat="42.23503806054193" lon="0.9648534748337326"><ele>508.0</ele><time>2026-04-27T14:22:43.001Z</time></trkpt><trkpt lat="42.23514810996288" lon="0.964819866164548"><ele>507.0</ele><time>2026-04-27T14:22:44.001Z</time></trkpt><trkpt lat="42.23525741300281" lon="0.9647846251529301"><ele>506.0</ele><time>2026-04-27T14:22:45.001Z</time></trkpt><trkpt lat="42.23536792187169" lon="0.9647594786875919"><ele>506.0</ele><time>2026-04-27T14:22:46.001Z</time></trkpt><trkpt lat="42.23547874031225" lon="0.9647403577632807"><ele>506.0</ele><time>2026-04-27T14:22:47.001Z</time></trkpt><trkpt lat="42.23558865798375" lon="0.9647353746963482"><ele>506.0</ele><time>2026-04-27T14:22:48.001Z</time></trkpt><trkpt lat="42.23569864716262" lon="0.9647271603581186"><ele>506.0</ele><time>2026-04-27T14:22:49.001Z</time></trkpt><trkpt lat="42.23580845817452" lon="0.9647257018051638"><ele>506.0</ele><time>2026-04-27T14:22:50.001Z</time></trkpt><trkpt lat="42.23591645984784" lon="0.9647295323614228"><ele>506.4</ele><time>2026-04-27T14:22:51.001Z</time></trkpt><trkpt lat="42.2360257150426" lon="0.9647394326719689"><ele>506.8</ele><time>2026-04-27T14:22:52.001Z</time></trkpt><trkpt lat="42.23613627558105" lon="0.9647511933415965"><ele>507.19999999999993</ele><time>2026-04-27T14:22:53.001Z</time></trkpt><trkpt lat="42.23624636548146" lon="0.9647843381037423"><ele>507.59999999999997</ele><time>2026-04-27T14:22:54.001Z</time></trkpt><trkpt lat="42.23635312514447" lon="0.9648161311959623"><ele>508.0</ele><time>2026-04-27T14:22:55.001Z</time></trkpt><trkpt lat="42.2364608679791" lon="0.9648500649041739"><ele>508.0</ele><time>2026-04-27T14:22:56.001Z</time></trkpt><trkpt lat="42.236563990344216" lon="0.9648882135735933"><ele>507.99999999999994</ele><time>2026-04-27T14:22:57.001Z</time></trkpt><trkpt lat="42.2366691447519" lon="0.9649316993901791"><ele>507.99999999999994</ele><time>2026-04-27T14:22:58.001Z</time></trkpt><trkpt lat="42.23677132571459" lon="0.9649734328651021"><ele>508.0</ele><time>2026-04-27T14:22:59.001Z</time></trkpt><trkpt lat="42.23687607129222" lon="0.9650185789684289"><ele>508.0</ele><time>2026-04-27T14:23:00.001Z</time></trkpt><trkpt lat="42.23697719995703" lon="0.9650719743167939"><ele>508.0</ele><time>2026-04-27T14:23:01.001Z</time></trkpt><trkpt lat="42.237076573318646" lon="0.9651275509786544"><ele>507.99999999999994</ele><time>2026-04-27T14:23:02.001Z</time></trkpt><trkpt lat="42.23717702978661" lon="0.96518079249201"><ele>507.99999999999994</ele><time>2026-04-27T14:23:03.001Z</time></trkpt><trkpt lat="42.23727664072268" lon="0.9652323559462028"><ele>508.0</ele><time>2026-04-27T14:23:04.001Z</time></trkpt><trkpt lat="42.23737570395015" lon="0.9652790169498171"><ele>508.0</ele><time>2026-04-27T14:23:05.001Z</time></trkpt><trkpt lat="42.23747709744819" lon="0.9653294078319312"><ele>508.0</ele><time>2026-04-27T14:23:06.001Z</time></trkpt><trkpt lat="42.237580103838056" lon="0.9653764504462923"><ele>507.99999999999994</ele><time>2026-04-27T14:23:07.001Z</time></trkpt><trkpt lat="42.23768490859371" lon="0.9654206893917852"><ele>507.99999999999994</ele><time>2026-04-27T14:23:08.001Z</time></trkpt><trkpt lat="42.23779060917155" lon="0.9654585576150975"><ele>508.0</ele><time>2026-04-27T14:23:09.001Z</time></trkpt><trkpt lat="42.23789946097807" lon="0.965484080295042"><ele>508.0</ele><time>2026-04-27T14:23:10.001Z</time></trkpt><trkpt lat="42.23800651038162" lon="0.9655061512353035"><ele>508.0</ele><time>2026-04-27T14:23:11.001Z</time></trkpt><trkpt lat="42.23811699044115" lon="0.9655215167922389"><ele>507.99999999999994</ele><time>2026-04-27T14:23:12.001Z</time></trkpt><trkpt lat="42.23822494120714" lon="0.9655261011665867"><ele>507.99999999999994</ele><time>2026-04-27T14:23:13.001Z</time></trkpt><trkpt lat="42.23833476345919" lon="0.9655255630385391"><ele>508.0</ele><time>2026-04-27T14:23:14.001Z</time></trkpt><trkpt lat="42.23844161368573" lon="0.9655235997395519"><ele>508.0</ele><time>2026-04-27T14:23:15.001Z</time></trkpt><trkpt lat="42.23855035250031" lon="0.9655216423476989"><ele>508.2</ele><time>2026-04-27T14:23:16.001Z</time></trkpt><trkpt lat="42.238657671065326" lon="0.9655245901913437"><ele>508.4</ele><time>2026-04-27T14:23:17.001Z</time></trkpt><trkpt lat="42.23876510577057" lon="0.965528090913733"><ele>508.59999999999997</ele><time>2026-04-27T14:23:18.001Z</time></trkpt><trkpt lat="42.238875051787815" lon="0.9655267970088219"><ele>508.79999999999995</ele><time>2026-04-27T14:23:19.001Z</time></trkpt><trkpt lat="42.238984063681066" lon="0.9655311486449284"><ele>509.0</ele><time>2026-04-27T14:23:20.001Z</time></trkpt><trkpt lat="42.23909350890845" lon="0.965531871396941"><ele>509.4</ele><time>2026-04-27T14:23:21.001Z</time></trkpt><trkpt lat="42.23920341758997" lon="0.9655331224983187"><ele>509.79999999999995</ele><time>2026-04-27T14:23:22.001Z</time></trkpt><trkpt lat="42.23931252547854" lon="0.9655311048586035"><ele>510.20000000000005</ele><time>2026-04-27T14:23:23.001Z</time></trkpt><trkpt lat="42.23942208973724" lon="0.9655353545099148"><ele>510.6</ele><time>2026-04-27T14:23:24.001Z</time></trkpt><trkpt lat="42.23953159614929" lon="0.9655373834701838"><ele>511.0</ele><time>2026-04-27T14:23:25.001Z</time></trkpt><trkpt lat="42.239642887656416" lon="0.9655340105558924"><ele>511.0</ele><time>2026-04-27T14:23:26.001Z</time></trkpt><trkpt lat="42.23975274149386" lon="0.9655346987707463"><ele>511.0</ele><time>2026-04-27T14:23:27.001Z</time></trkpt><trkpt lat="42.239860955197216" lon="0.9655351039429776"><ele>511.0</ele><time>2026-04-27T14:23:28.001Z</time></trkpt><trkpt lat="42.23996546275347" lon="0.965538924350519"><ele>511.0</ele><time>2026-04-27T14:23:29.001Z</time></trkpt><trkpt lat="42.24007534394998" lon="0.9655416442551787"><ele>511.0</ele><time>2026-04-27T14:23:30.001Z</time></trkpt><trkpt lat="42.24018243593786" lon="0.9655423356839826"><ele>511.0</ele><time>2026-04-27T14:23:31.002Z</time></trkpt><trkpt lat="42.24028720192226" lon="0.9655464539990529"><ele>511.0</ele><time>2026-04-27T14:23:32.002Z</time></trkpt><trkpt lat="42.24039486375395" lon="0.9655500008816857"><ele>511.0</ele><time>2026-04-27T14:23:33.002Z</time></trkpt><trkpt lat="42.24050107852276" lon="0.9655491905098345"><ele>511.0</ele><time>2026-04-27T14:23:34.002Z</time></trkpt><trkpt lat="42.24061002611214" lon="0.965549373599321"><ele>511.0</ele><time>2026-04-27T14:23:35.002Z</time></trkpt><trkpt lat="42.24071901081861" lon="0.9655516900644475"><ele>511.20000000000005</ele><time>2026-04-27T14:23:36.002Z</time></trkpt><trkpt lat="42.240828172329216" lon="0.9655524204810082"><ele>511.40000000000003</ele><time>2026-04-27T14:23:37.002Z</time></trkpt><trkpt lat="42.240938531682" lon="0.9655549759949396"><ele>511.6</ele><time>2026-04-27T14:23:38.002Z</time></trkpt><trkpt lat="42.24104724398445" lon="0.9655527351037976"><ele>511.8</ele><time>2026-04-27T14:23:39.002Z</time></trkpt><trkpt lat="42.24115749262888" lon="0.9655569294464725"><ele>512.0</ele><time>2026-04-27T14:23:40.002Z</time></trkpt><trkpt lat="42.241265282303566" lon="0.9655614584179845"><ele>512.0</ele><time>2026-04-27T14:23:41.002Z</time></trkpt><trkpt lat="42.24137008645679" lon="0.9655637112643699"><ele>512.0</ele><time>2026-04-27T14:23:42.002Z</time></trkpt><trkpt lat="42.24147616994367" lon="0.9655597887003743"><ele>512.0</ele><time>2026-04-27T14:23:43.002Z</time></trkpt><trkpt lat="42.241585505843794" lon="0.965564654766264"><ele>512.0</ele><time>2026-04-27T14:23:44.002Z</time></trkpt><trkpt lat="42.24168924925758" lon="0.9655730053829591"><ele>512.0</ele><time>2026-04-27T14:23:45.002Z</time></trkpt><trkpt lat="42.2417935742224" lon="0.9655738796234996"><ele>511.8</ele><time>2026-04-27T14:23:46.002Z</time></trkpt><trkpt lat="42.24189608361562" lon="0.965571918740857"><ele>511.6</ele><time>2026-04-27T14:23:47.002Z</time></trkpt><trkpt lat="42.2420015123137" lon="0.9655741441596865"><ele>511.40000000000003</ele><time>2026-04-27T14:23:48.002Z</time></trkpt><trkpt lat="42.242100266569174" lon="0.9655729924447779"><ele>511.20000000000005</ele><time>2026-04-27T14:23:49.002Z</time></trkpt><trkpt lat="42.242204341593414" lon="0.9655741679225517"><ele>511.0</ele><time>2026-04-27T14:23:50.002Z</time></trkpt><trkpt lat="42.242311183919945" lon="0.9655777419979886"><ele>511.6</ele><time>2026-04-27T14:23:51.002Z</time></trkpt><trkpt lat="42.24241104592523" lon="0.9655836790298347"><ele>512.2</ele><time>2026-04-27T14:23:52.002Z</time></trkpt><trkpt lat="42.24251536024024" lon="0.9655881895590834"><ele>512.8</ele><time>2026-04-27T14:23:53.002Z</time></trkpt><trkpt lat="42.24261747946442" lon="0.9655908749438896"><ele>513.4</ele><time>2026-04-27T14:23:54.002Z</time></trkpt><trkpt lat="42.24271941581416" lon="0.9655928831841702"><ele>514.0</ele><time>2026-04-27T14:23:55.002Z</time></trkpt><trkpt lat="42.242818647590326" lon="0.9655875091640648"><ele>514.0</ele><time>2026-04-27T14:23:56.002Z</time></trkpt><trkpt lat="42.24292543627725" lon="0.9655805074300243"><ele>514.0</ele><time>2026-04-27T14:23:57.002Z</time></trkpt><trkpt lat="42.24302339134089" lon="0.9655819858322388"><ele>514.0</ele><time>2026-04-27T14:23:58.002Z</time></trkpt><trkpt lat="42.24312757343324" lon="0.9655773234308693"><ele>514.0</ele><time>2026-04-27T14:23:59.002Z</time></trkpt><trkpt lat="42.24323582800949" lon="0.9655749959361586"><ele>514.0</ele><time>2026-04-27T14:24:00.002Z</time></trkpt><trkpt lat="42.243338989674115" lon="0.9655644749577091"><ele>514.2</ele><time>2026-04-27T14:24:01.002Z</time></trkpt><trkpt lat="42.243443629957724" lon="0.9655544630642792"><ele>514.4</ele><time>2026-04-27T14:24:02.002Z</time></trkpt><trkpt lat="42.24355117653349" lon="0.9655439940719486"><ele>514.6</ele><time>2026-04-27T14:24:03.002Z</time></trkpt><trkpt lat="42.24365184765583" lon="0.9655177903358976"><ele>514.8</ele><time>2026-04-27T14:24:04.002Z</time></trkpt><trkpt lat="42.243755217446385" lon="0.9654866336713872"><ele>515.0</ele><time>2026-04-27T14:24:05.002Z</time></trkpt><trkpt lat="42.24386454088562" lon="0.9654842966156861"><ele>514.8</ele><time>2026-04-27T14:24:06.002Z</time></trkpt><trkpt lat="42.24396611594151" lon="0.9654564823402348"><ele>514.6</ele><time>2026-04-27T14:24:07.002Z</time></trkpt><trkpt lat="42.24407632564776" lon="0.9654279863845738"><ele>514.4</ele><time>2026-04-27T14:24:08.002Z</time></trkpt><trkpt lat="42.24418607153837" lon="0.9653991369822758"><ele>514.2</ele><time>2026-04-27T14:24:09.002Z</time></trkpt><trkpt lat="42.24428657126579" lon="0.9653744097098141"><ele>514.0</ele><time>2026-04-27T14:24:10.002Z</time></trkpt><trkpt lat="42.24439308992245" lon="0.9653550704425766"><ele>514.0</ele><time>2026-04-27T14:24:11.002Z</time></trkpt><trkpt lat="42.24449547065663" lon="0.9653257868455803"><ele>514.0</ele><time>2026-04-27T14:24:12.002Z</time></trkpt><trkpt lat="42.24460083671412" lon="0.9652947910428428"><ele>514.0</ele><time>2026-04-27T14:24:13.002Z</time></trkpt><trkpt lat="42.244704259873096" lon="0.9652643656312947"><ele>514.0</ele><time>2026-04-27T14:24:14.002Z</time></trkpt><trkpt lat="42.24480465774317" lon="0.9652434815315553"><ele>514.0</ele><time>2026-04-27T14:24:15.002Z</time></trkpt><trkpt lat="42.24489955249601" lon="0.9652188593920273"><ele>513.8</ele><time>2026-04-27T14:24:16.002Z</time></trkpt><trkpt lat="42.24498997186193" lon="0.9651968407467195"><ele>513.5999999999999</ele><time>2026-04-27T14:24:17.002Z</time></trkpt><trkpt lat="42.24507165906077" lon="0.9651652676370309"><ele>513.4</ele><time>2026-04-27T14:24:18.002Z</time></trkpt><trkpt lat="42.245166033924434" lon="0.9652019111744401"><ele>513.1999999999999</ele><time>2026-04-27T14:24:19.002Z</time></trkpt><trkpt lat="42.24524786964025" lon="0.9652610653707183"><ele>513.0</ele><time>2026-04-27T14:24:20.003Z</time></trkpt><trkpt lat="42.24532632079799" lon="0.9653427314406569"><ele>513.0</ele><time>2026-04-27T14:24:21.003Z</time></trkpt><trkpt lat="42.245371103606395" lon="0.9654646070696683"><ele>513.0</ele><time>2026-04-27T14:24:22.003Z</time></trkpt><trkpt lat="42.24543105692482" lon="0.9655785617151166"><ele>513.0</ele><time>2026-04-27T14:24:23.003Z</time></trkpt><trkpt lat="42.245504779688666" lon="0.9656802887465691"><ele>513.0</ele><time>2026-04-27T14:24:24.003Z</time></trkpt><trkpt lat="42.24556585815535" lon="0.965798672229153"><ele>513.0</ele><time>2026-04-27T14:24:25.003Z</time></trkpt><trkpt lat="42.245619848132336" lon="0.9659165403933814"><ele>514.0</ele><time>2026-04-27T14:24:26.003Z</time></trkpt><trkpt lat="42.24568347441681" lon="0.9660340972557121"><ele>515.0</ele><time>2026-04-27T14:24:27.003Z</time></trkpt><trkpt lat="42.24574048164708" lon="0.9661605751975322"><ele>516.0</ele><time>2026-04-27T14:24:28.003Z</time></trkpt><trkpt lat="42.245807755931075" lon="0.9662780896651493"><ele>517.0</ele><time>2026-04-27T14:24:29.003Z</time></trkpt><trkpt lat="42.245868660530974" lon="0.966396570177444"><ele>518.0</ele><time>2026-04-27T14:24:30.003Z</time></trkpt><trkpt lat="42.2459339198463" lon="0.9665186144733593"><ele>518.0</ele><time>2026-04-27T14:24:31.003Z</time></trkpt><trkpt lat="42.24599481801202" lon="0.9666385248986048"><ele>518.0</ele><time>2026-04-27T14:24:32.003Z</time></trkpt><trkpt lat="42.24606143339369" lon="0.9667604480156947"><ele>518.0</ele><time>2026-04-27T14:24:33.003Z</time></trkpt><trkpt lat="42.246125995848836" lon="0.9668802968618154"><ele>518.0</ele><time>2026-04-27T14:24:34.003Z</time></trkpt><trkpt lat="42.24619177800244" lon="0.9670079152104563"><ele>518.0</ele><time>2026-04-27T14:24:35.003Z</time></trkpt><trkpt lat="42.246250520327095" lon="0.9671326686510351"><ele>517.4</ele><time>2026-04-27T14:24:36.003Z</time></trkpt><trkpt lat="42.24631893979743" lon="0.9672488698040713"><ele>516.8</ele><time>2026-04-27T14:24:37.003Z</time></trkpt><trkpt lat="42.24637756135019" lon="0.9673694373127425"><ele>516.2</ele><time>2026-04-27T14:24:38.003Z</time></trkpt><trkpt lat="42.2464389629553" lon="0.9674848192884181"><ele>515.6</ele><time>2026-04-27T14:24:39.002Z</time></trkpt><trkpt lat="42.24649729564112" lon="0.9676000466600967"><ele>515.0</ele><time>2026-04-27T14:24:40.002Z</time></trkpt><trkpt lat="42.246555188787966" lon="0.9677082969950657"><ele>517.1666666666666</ele><time>2026-04-27T14:24:41.002Z</time></trkpt><trkpt lat="42.246614337551925" lon="0.9678184618968563"><ele>519.3333333333333</ele><time>2026-04-27T14:24:42.002Z</time></trkpt><trkpt lat="42.24664843774954" lon="0.9679406254430907"><ele>521.5</ele><time>2026-04-27T14:24:43.002Z</time></trkpt><trkpt lat="42.24669840611257" lon="0.9680330773511576"><ele>523.6666666666666</ele><time>2026-04-27T14:24:44.002Z</time></trkpt><trkpt lat="42.24672970737257" lon="0.9681273491775131"><ele>525.8333333333334</ele><time>2026-04-27T14:24:45.002Z</time></trkpt><trkpt lat="42.246764839776546" lon="0.96821389089924"><ele>528.0</ele><time>2026-04-27T14:24:46.002Z</time></trkpt><trkpt lat="42.24682025457161" lon="0.9682827301136371"><ele>528.0</ele><time>2026-04-27T14:24:47.002Z</time></trkpt><trkpt lat="42.24688993295075" lon="0.9683241984491756"><ele>528.0</ele><time>2026-04-27T14:24:48.002Z</time></trkpt><trkpt lat="42.246922865722865" lon="0.9684353844374689"><ele>528.0</ele><time>2026-04-27T14:24:49.002Z</time></trkpt><trkpt lat="42.24700500483053" lon="0.9683992967707337"><ele>528.0</ele><time>2026-04-27T14:24:50.001Z</time></trkpt><trkpt lat="42.24708803062593" lon="0.968459968575648"><ele>528.0</ele><time>2026-04-27T14:24:52.001Z</time></trkpt><trkpt lat="42.2471853433317" lon="0.9684466485298215"><ele>528.0</ele><time>2026-04-27T14:24:54.001Z</time></trkpt><trkpt lat="42.247266778247734" lon="0.9683334530656432"><ele>529.6</ele><time>2026-04-27T14:24:56.001Z</time></trkpt><trkpt lat="42.24734539702325" lon="0.968194534536553"><ele>531.1999999999999</ele><time>2026-04-27T14:24:58.001Z</time></trkpt><trkpt lat="42.24737814205903" lon="0.968110071573323"><ele>532.8</ele><time>2026-04-27T14:24:59.001Z</time></trkpt><trkpt lat="42.24746915545503" lon="0.9679740307908992"><ele>534.4</ele><time>2026-04-27T14:25:01.001Z</time></trkpt><trkpt lat="42.247508815049294" lon="0.9678998147617535"><ele>536.0</ele><time>2026-04-27T14:25:02.001Z</time></trkpt><trkpt lat="42.24753376335944" lon="0.9678175264016742"><ele>536.0</ele><time>2026-04-27T14:25:03.001Z</time></trkpt><trkpt lat="42.24760312868644" lon="0.9677275516220308"><ele>536.0</ele><time>2026-04-27T14:25:05.001Z</time></trkpt><trkpt lat="42.247676245914654" lon="0.9676882948286444"><ele>536.0</ele><time>2026-04-27T14:25:20.001Z</time></trkpt><trkpt lat="42.24772587017082" lon="0.9676117088464442"><ele>536.0</ele><time>2026-04-27T14:25:28.001Z</time></trkpt><trkpt lat="42.24762792504105" lon="0.9674737968906484"><ele>536.0</ele><time>2026-04-27T14:26:43.002Z</time></trkpt><trkpt lat="42.247683711690335" lon="0.9674281632305015"><ele>536.3333333333333</ele><time>2026-04-27T14:26:51.001Z</time></trkpt><trkpt lat="42.24773473217776" lon="0.9673723268030576"><ele>536.6666666666666</ele><time>2026-04-27T14:26:57.001Z</time></trkpt><trkpt lat="42.247754915531644" lon="0.9672860279414672"><ele>537.0</ele><time>2026-04-27T14:27:55.001Z</time></trkpt><trkpt lat="42.24781141158869" lon="0.9673235532539101"><ele>537.3333333333334</ele><time>2026-04-27T14:29:32.001Z</time></trkpt><trkpt lat="42.24774123888596" lon="0.9673306469721391"><ele>537.6666666666667</ele><time>2026-04-27T14:30:26.001Z</time></trkpt><trkpt lat="42.247598838043885" lon="0.9672252503971821"><ele>538.0</ele><time>2026-04-27T14:42:09Z</time></trkpt><trkpt lat="42.24773675325091" lon="0.9672288922521429"><ele>538.0</ele><time>2026-04-27T14:49:58Z</time></trkpt><trkpt lat="42.24774817000525" lon="0.9673906214654223"><ele>538.0</ele><time>2026-04-27T14:52:01.015Z</time></trkpt><trkpt lat="42.24773254091667" lon="0.9674781277867498"><ele>538.0</ele><time>2026-04-27T14:52:03.001Z</time></trkpt><trkpt lat="42.24770523372506" lon="0.9675795728771202"><ele>538.0</ele><time>2026-04-27T14:52:07.001Z</time></trkpt><trkpt lat="42.24772788245642" lon="0.967485828657132"><ele>538.0</ele><time>2026-04-27T14:52:09Z</time></trkpt><trkpt lat="42.24766478511136" lon="0.9674321892049171"><ele>538.0</ele><time>2026-04-27T14:52:19Z</time></trkpt><trkpt lat="42.24761415216013" lon="0.9674928745269735"><ele>538.0</ele><time>2026-04-27T14:53:26Z</time></trkpt><trkpt lat="42.24760997392163" lon="0.9675907410346506"><ele>538.0</ele><time>2026-04-27T14:53:33.001Z</time></trkpt><trkpt lat="42.24771078408507" lon="0.9674596643528346"><ele>538.0</ele><time>2026-04-27T14:57:59Z</time></trkpt><trkpt lat="42.24775840545623" lon="0.9673956368858494"><ele>538.0</ele><time>2026-04-27T14:58:05Z</time></trkpt><trkpt lat="42.24773493193048" lon="0.9674928725155076"><ele>538.0</ele><time>2026-04-27T14:58:19.001Z</time></trkpt><trkpt lat="42.24769335509414" lon="0.967557353811572"><ele>538.0</ele><time>2026-04-27T14:58:22.001Z</time></trkpt><trkpt lat="42.24764532450821" lon="0.9676472299148692"><ele>537.6</ele><time>2026-04-27T14:58:26.001Z</time></trkpt><trkpt lat="42.24759521258305" lon="0.967747294181294"><ele>537.1999999999999</ele><time>2026-04-27T14:58:28.999Z</time></trkpt><trkpt lat="42.24753834917837" lon="0.9678645185213719"><ele>536.8</ele><time>2026-04-27T14:58:31.999Z</time></trkpt><trkpt lat="42.247479842298205" lon="0.9679554186564667"><ele>536.4</ele><time>2026-04-27T14:58:33.999Z</time></trkpt><trkpt lat="42.247436681753975" lon="0.9680458301171833"><ele>536.0</ele><time>2026-04-27T14:58:35.999Z</time></trkpt><trkpt lat="42.24738429943205" lon="0.9681429936940809"><ele>536.0</ele><time>2026-04-27T14:58:37.999Z</time></trkpt><trkpt lat="42.24732411520328" lon="0.9682506200747246"><ele>536.0</ele><time>2026-04-27T14:58:39.999Z</time></trkpt><trkpt lat="42.24725699176632" lon="0.9683628602180951"><ele>536.0</ele><time>2026-04-27T14:58:41.999Z</time></trkpt><trkpt lat="42.24718975580113" lon="0.9683827833566508"><ele>536.0</ele><time>2026-04-27T14:58:42.999Z</time></trkpt><trkpt lat="42.24711796543148" lon="0.9684296542460042"><ele>536.0</ele><time>2026-04-27T14:58:44.999Z</time></trkpt><trkpt lat="42.24701484210008" lon="0.9683572611901192"><ele>534.8571428571429</ele><time>2026-04-27T14:58:46.999Z</time></trkpt><trkpt lat="42.246961233279194" lon="0.9683118583705236"><ele>533.7142857142857</ele><time>2026-04-27T14:58:47.999Z</time></trkpt><trkpt lat="42.24690406082427" lon="0.9682718557481513"><ele>532.5714285714286</ele><time>2026-04-27T14:58:48.999Z</time></trkpt><trkpt lat="42.24684889662315" lon="0.9682302843482901"><ele>531.4285714285714</ele><time>2026-04-27T14:58:49.999Z</time></trkpt><trkpt lat="42.246794709152155" lon="0.9681743642921602"><ele>530.2857142857143</ele><time>2026-04-27T14:58:51Z</time></trkpt><trkpt lat="42.24674247953941" lon="0.9681085790301966"><ele>529.1428571428571</ele><time>2026-04-27T14:58:52Z</time></trkpt><trkpt lat="42.246704930148894" lon="0.9680256181808141"><ele>528.0</ele><time>2026-04-27T14:58:53Z</time></trkpt><trkpt lat="42.24667725013082" lon="0.9679320777623726"><ele>528.0</ele><time>2026-04-27T14:58:54Z</time></trkpt><trkpt lat="42.246648465738275" lon="0.9678404805426262"><ele>528.0</ele><time>2026-04-27T14:58:55Z</time></trkpt><trkpt lat="42.24661134449922" lon="0.9677455239494913"><ele>528.0</ele><time>2026-04-27T14:58:56Z</time></trkpt><trkpt lat="42.24656564646827" lon="0.967658500316005"><ele>528.0</ele><time>2026-04-27T14:58:57Z</time></trkpt><trkpt lat="42.24651557711637" lon="0.9675704526280945"><ele>528.0</ele><time>2026-04-27T14:58:58Z</time></trkpt><trkpt lat="42.24646940164242" lon="0.9674781705504678"><ele>528.0</ele><time>2026-04-27T14:58:59Z</time></trkpt><trkpt lat="42.246420302283695" lon="0.9673808624990806"><ele>525.4</ele><time>2026-04-27T14:59:00Z</time></trkpt><trkpt lat="42.246368675160475" lon="0.9672865856177124"><ele>522.8</ele><time>2026-04-27T14:59:01Z</time></trkpt><trkpt lat="42.24631827236759" lon="0.9671883556693786"><ele>520.2</ele><time>2026-04-27T14:59:02Z</time></trkpt><trkpt lat="42.24626357498753" lon="0.9670818643810346"><ele>517.6</ele><time>2026-04-27T14:59:03Z</time></trkpt><trkpt lat="42.24620861160302" lon="0.9669750166301161"><ele>515.0</ele><time>2026-04-27T14:59:04Z</time></trkpt><trkpt lat="42.24615338959324" lon="0.9668701133690029"><ele>515.0</ele><time>2026-04-27T14:59:05Z</time></trkpt><trkpt lat="42.246101478491305" lon="0.966768559260034"><ele>515.0</ele><time>2026-04-27T14:59:06Z</time></trkpt><trkpt lat="42.24604596587914" lon="0.9666712590697707"><ele>515.0</ele><time>2026-04-27T14:59:07Z</time></trkpt><trkpt lat="42.24599461969861" lon="0.9665749772357496"><ele>515.0</ele><time>2026-04-27T14:59:08Z</time></trkpt><trkpt lat="42.245943627774864" lon="0.9664764391931701"><ele>515.0</ele><time>2026-04-27T14:59:09Z</time></trkpt><trkpt lat="42.24589434026254" lon="0.9663768533378341"><ele>515.0</ele><time>2026-04-27T14:59:10Z</time></trkpt><trkpt lat="42.24584400176749" lon="0.9662809616779829"><ele>514.6</ele><time>2026-04-27T14:59:11Z</time></trkpt><trkpt lat="42.24579044536263" lon="0.9661858436974923"><ele>514.2</ele><time>2026-04-27T14:59:12Z</time></trkpt><trkpt lat="42.24574185580707" lon="0.9660845394256449"><ele>513.8</ele><time>2026-04-27T14:59:13Z</time></trkpt><trkpt lat="42.24569022403112" lon="0.9659838717344323"><ele>513.4</ele><time>2026-04-27T14:59:14Z</time></trkpt><trkpt lat="42.24563721204089" lon="0.9658841532460456"><ele>513.0</ele><time>2026-04-27T14:59:15Z</time></trkpt><trkpt lat="42.245583780708095" lon="0.9657843910368552"><ele>513.0000000000001</ele><time>2026-04-27T14:59:16Z</time></trkpt><trkpt lat="42.24553445533393" lon="0.9656890781375247"><ele>513.0</ele><time>2026-04-27T14:59:17Z</time></trkpt><trkpt lat="42.24548709266609" lon="0.9655978016525777"><ele>513.0</ele><time>2026-04-27T14:59:18Z</time></trkpt><trkpt lat="42.245443670387594" lon="0.9655130257300976"><ele>513.0</ele><time>2026-04-27T14:59:19Z</time></trkpt><trkpt lat="42.24540423890006" lon="0.9654340845055901"><ele>513.0</ele><time>2026-04-27T14:59:20Z</time></trkpt><trkpt lat="42.24536386218376" lon="0.9653627979731242"><ele>513.0000000000001</ele><time>2026-04-27T14:59:21Z</time></trkpt><trkpt lat="42.245334475776296" lon="0.9652875137372601"><ele>513.0</ele><time>2026-04-27T14:59:22Z</time></trkpt><trkpt lat="42.245325900278665" lon="0.9651967063609697"><ele>513.0</ele><time>2026-04-27T14:59:23Z</time></trkpt><trkpt lat="42.245316509484546" lon="0.9650978425932251"><ele>513.0</ele><time>2026-04-27T14:59:24Z</time></trkpt><trkpt lat="42.24533209439772" lon="0.9649939080385584"><ele>513.0</ele><time>2026-04-27T14:59:25Z</time></trkpt><trkpt lat="42.245410879106956" lon="0.9649161828301462"><ele>513.0</ele><time>2026-04-27T14:59:26Z</time></trkpt><trkpt lat="42.24546341976705" lon="0.9648358203628343"><ele>513.0</ele><time>2026-04-27T14:59:27Z</time></trkpt><trkpt lat="42.24552199795891" lon="0.9647580025516541"><ele>513.0</ele><time>2026-04-27T14:59:28Z</time></trkpt><trkpt lat="42.24557808683028" lon="0.964676634205301"><ele>513.0</ele><time>2026-04-27T14:59:29Z</time></trkpt><trkpt lat="42.24563423733893" lon="0.9645930108305465"><ele>513.0</ele><time>2026-04-27T14:59:30Z</time></trkpt><trkpt lat="42.24569107145966" lon="0.96450714533567"><ele>513.0</ele><time>2026-04-27T14:59:31Z</time></trkpt><trkpt lat="42.24574782913584" lon="0.9644275205477448"><ele>513.0</ele><time>2026-04-27T14:59:32Z</time></trkpt><trkpt lat="42.24580959104465" lon="0.964351216206091"><ele>513.0</ele><time>2026-04-27T14:59:33Z</time></trkpt><trkpt lat="42.245875826435224" lon="0.964278204443774"><ele>513.0</ele><time>2026-04-27T14:59:34Z</time></trkpt><trkpt lat="42.24594570317396" lon="0.9642135294519365"><ele>514.6666666666666</ele><time>2026-04-27T14:59:35Z</time></trkpt><trkpt lat="42.24601716126624" lon="0.9641497209095181"><ele>516.3333333333334</ele><time>2026-04-27T14:59:36Z</time></trkpt><trkpt lat="42.24609067841056" lon="0.9640903964306797"><ele>518.0</ele><time>2026-04-27T14:59:37Z</time></trkpt><trkpt lat="42.24616356469997" lon="0.9640320712858692"><ele>519.6666666666667</ele><time>2026-04-27T14:59:38Z</time></trkpt><trkpt lat="42.24623406708121" lon="0.9639759262685549"><ele>521.3333333333334</ele><time>2026-04-27T14:59:39Z</time></trkpt><trkpt lat="42.246304865793746" lon="0.9639211060384518"><ele>523.0</ele><time>2026-04-27T14:59:40Z</time></trkpt><trkpt lat="42.246378785968865" lon="0.9638613446074282"><ele>523.0</ele><time>2026-04-27T14:59:41Z</time></trkpt><trkpt lat="42.24645453939981" lon="0.9637960501956582"><ele>523.0</ele><time>2026-04-27T14:59:42Z</time></trkpt><trkpt lat="42.246527405896614" lon="0.963727805293385"><ele>523.0</ele><time>2026-04-27T14:59:43Z</time></trkpt><trkpt lat="42.24659649050216" lon="0.9636566608189446"><ele>523.0</ele><time>2026-04-27T14:59:44Z</time></trkpt><trkpt lat="42.24666352417803" lon="0.963583359192852"><ele>523.0</ele><time>2026-04-27T14:59:45Z</time></trkpt><trkpt lat="42.246727706715475" lon="0.9634999526677326"><ele>523.0</ele><time>2026-04-27T14:59:46Z</time></trkpt><trkpt lat="42.24679046533148" lon="0.9634133961053029"><ele>524.8</ele><time>2026-04-27T14:59:47Z</time></trkpt><trkpt lat="42.24685286739756" lon="0.9633280436541273"><ele>526.5999999999999</ele><time>2026-04-27T14:59:48Z</time></trkpt><trkpt lat="42.2469098761243" lon="0.9632355521634753"><ele>528.4000000000001</ele><time>2026-04-27T14:59:49Z</time></trkpt><trkpt lat="42.24696671554988" lon="0.9631419814903179"><ele>530.2</ele><time>2026-04-27T14:59:50Z</time></trkpt><trkpt lat="42.247023852930106" lon="0.9630458959204584"><ele>532.0</ele><time>2026-04-27T14:59:51Z</time></trkpt><trkpt lat="42.24707697762515" lon="0.9629462780937801"><ele>532.0</ele><time>2026-04-27T14:59:52Z</time></trkpt><trkpt lat="42.24712913509321" lon="0.9628467133598941"><ele>532.0</ele><time>2026-04-27T14:59:53.001Z</time></trkpt><trkpt lat="42.247181596308714" lon="0.9627446468733893"><ele>532.0</ele><time>2026-04-27T14:59:54.001Z</time></trkpt><trkpt lat="42.24723503411216" lon="0.962644917044402"><ele>532.0</ele><time>2026-04-27T14:59:55.001Z</time></trkpt><trkpt lat="42.247288609484436" lon="0.9625431074857279"><ele>532.0</ele><time>2026-04-27T14:59:56.001Z</time></trkpt><trkpt lat="42.24734618570347" lon="0.9624449964623064"><ele>531.0</ele><time>2026-04-27T14:59:57.001Z</time></trkpt><trkpt lat="42.24740619328077" lon="0.9623511281112062"><ele>530.0</ele><time>2026-04-27T14:59:58.001Z</time></trkpt><trkpt lat="42.247469874494314" lon="0.9622575548344351"><ele>529.0</ele><time>2026-04-27T14:59:59.001Z</time></trkpt><trkpt lat="42.247533471240985" lon="0.9621626818015748"><ele>528.0</ele><time>2026-04-27T15:00:00.001Z</time></trkpt><trkpt lat="42.247600067801116" lon="0.9620703217596975"><ele>527.0</ele><time>2026-04-27T15:00:01.001Z</time></trkpt><trkpt lat="42.24767741285092" lon="0.9619820530998073"><ele>527.0</ele><time>2026-04-27T15:00:02.001Z</time></trkpt><trkpt lat="42.24775479491299" lon="0.9618971562729262"><ele>527.0</ele><time>2026-04-27T15:00:03.001Z</time></trkpt><trkpt lat="42.24783690844015" lon="0.9618172273210527"><ele>527.0</ele><time>2026-04-27T15:00:04.001Z</time></trkpt><trkpt lat="42.247922044597" lon="0.9617397358055215"><ele>527.0</ele><time>2026-04-27T15:00:05.001Z</time></trkpt><trkpt lat="42.24800973428169" lon="0.9616668876605399"><ele>527.0</ele><time>2026-04-27T15:00:06.001Z</time></trkpt><trkpt lat="42.24809751148966" lon="0.9615976798576127"><ele>527.8000000000001</ele><time>2026-04-27T15:00:07.001Z</time></trkpt><trkpt lat="42.2481865968712" lon="0.9615317833193872"><ele>528.6</ele><time>2026-04-27T15:00:08.001Z</time></trkpt><trkpt lat="42.248278854784594" lon="0.9614721652023269"><ele>529.4000000000001</ele><time>2026-04-27T15:00:09.001Z</time></trkpt><trkpt lat="42.24837169780946" lon="0.9614111891409975"><ele>530.2</ele><time>2026-04-27T15:00:10.001Z</time></trkpt><trkpt lat="42.24846528353362" lon="0.9613525086839364"><ele>531.0</ele><time>2026-04-27T15:00:11.001Z</time></trkpt><trkpt lat="42.248560467715144" lon="0.9612979849956256"><ele>531.0</ele><time>2026-04-27T15:00:12.001Z</time></trkpt><trkpt lat="42.24865480718612" lon="0.9612447038229962"><ele>531.0</ele><time>2026-04-27T15:00:13.001Z</time></trkpt><trkpt lat="42.248749474666006" lon="0.9611893201629677"><ele>531.0</ele><time>2026-04-27T15:00:14.001Z</time></trkpt><trkpt lat="42.2488428198497" lon="0.9611347595469681"><ele>531.0</ele><time>2026-04-27T15:00:15.001Z</time></trkpt><trkpt lat="42.248932386722444" lon="0.9610770807618794"><ele>531.0</ele><time>2026-04-27T15:00:16.001Z</time></trkpt><trkpt lat="42.2490254957474" lon="0.9610229798589202"><ele>531.6</ele><time>2026-04-27T15:00:17.001Z</time></trkpt><trkpt lat="42.24911799166605" lon="0.9609665743603553"><ele>532.2</ele><time>2026-04-27T15:00:18.001Z</time></trkpt><trkpt lat="42.249210172102394" lon="0.9609094985003834"><ele>532.8</ele><time>2026-04-27T15:00:19.001Z</time></trkpt><trkpt lat="42.24930342819172" lon="0.9608501576424007"><ele>533.4</ele><time>2026-04-27T15:00:20.001Z</time></trkpt><trkpt lat="42.249395478128875" lon="0.9607894802324586"><ele>534.0</ele><time>2026-04-27T15:00:21.001Z</time></trkpt><trkpt lat="42.24948550607463" lon="0.9607263464125684"><ele>534.0</ele><time>2026-04-27T15:00:22.001Z</time></trkpt><trkpt lat="42.24957275339034" lon="0.9606591509984174"><ele>534.0</ele><time>2026-04-27T15:00:23.001Z</time></trkpt><trkpt lat="42.249663871232116" lon="0.9605918533319199"><ele>534.0</ele><time>2026-04-27T15:00:24.001Z</time></trkpt><trkpt lat="42.24975096856605" lon="0.960519510736986"><ele>534.0</ele><time>2026-04-27T15:00:25.001Z</time></trkpt><trkpt lat="42.24983706707668" lon="0.9604448119295066"><ele>534.0</ele><time>2026-04-27T15:00:26.001Z</time></trkpt><trkpt lat="42.249922375908255" lon="0.9603672783801104"><ele>535.2</ele><time>2026-04-27T15:00:27.001Z</time></trkpt><trkpt lat="42.25000663642705" lon="0.9602865120628109"><ele>536.4</ele><time>2026-04-27T15:00:28.001Z</time></trkpt><trkpt lat="42.250091087139964" lon="0.9602044412734863"><ele>537.6</ele><time>2026-04-27T15:00:29.001Z</time></trkpt><trkpt lat="42.25017244657551" lon="0.9601173419963995"><ele>538.8</ele><time>2026-04-27T15:00:30.001Z</time></trkpt><trkpt lat="42.250250828639416" lon="0.9600284676383464"><ele>540.0</ele><time>2026-04-27T15:00:31.001Z</time></trkpt><trkpt lat="42.250330146406704" lon="0.9599393137940042"><ele>540.0</ele><time>2026-04-27T15:00:32.001Z</time></trkpt><trkpt lat="42.25040821714907" lon="0.9598455827141233"><ele>540.0</ele><time>2026-04-27T15:00:32.998Z</time></trkpt><trkpt lat="42.250484482132116" lon="0.9597501107012137"><ele>540.0</ele><time>2026-04-27T15:00:33.998Z</time></trkpt><trkpt lat="42.25055655862087" lon="0.959651741830717"><ele>540.0</ele><time>2026-04-27T15:00:34.998Z</time></trkpt><trkpt lat="42.25062866612104" lon="0.9595529753688241"><ele>540.0</ele><time>2026-04-27T15:00:35.998Z</time></trkpt><trkpt lat="42.25070119237731" lon="0.9594519869145596"><ele>539.0</ele><time>2026-04-27T15:00:36.998Z</time></trkpt><trkpt lat="42.25077225218346" lon="0.9593466420723853"><ele>538.0</ele><time>2026-04-27T15:00:37.998Z</time></trkpt><trkpt lat="42.25084161373222" lon="0.9592390119611662"><ele>537.0</ele><time>2026-04-27T15:00:38.998Z</time></trkpt><trkpt lat="42.25091100867512" lon="0.9591301521889498"><ele>536.0</ele><time>2026-04-27T15:00:39.998Z</time></trkpt><trkpt lat="42.250979459263" lon="0.9590192131265678"><ele>535.0</ele><time>2026-04-27T15:00:40.998Z</time></trkpt><trkpt lat="42.25104499922257" lon="0.9589048893387153"><ele>535.0</ele><time>2026-04-27T15:00:41.998Z</time></trkpt><trkpt lat="42.25111061881681" lon="0.9587939251174794"><ele>535.0</ele><time>2026-04-27T15:00:42.998Z</time></trkpt><trkpt lat="42.25118010969344" lon="0.9586836391988546"><ele>535.0</ele><time>2026-04-27T15:00:43.998Z</time></trkpt><trkpt lat="42.251251810054534" lon="0.9585728157178279"><ele>535.0</ele><time>2026-04-27T15:00:44.998Z</time></trkpt><trkpt lat="42.25132336214903" lon="0.9584632821549465"><ele>535.0</ele><time>2026-04-27T15:00:45.998Z</time></trkpt><trkpt lat="42.251396732734214" lon="0.9583557092305025"><ele>535.0</ele><time>2026-04-27T15:00:46.998Z</time></trkpt><trkpt lat="42.25147456224777" lon="0.958251031983218"><ele>535.0</ele><time>2026-04-27T15:00:47.998Z</time></trkpt><trkpt lat="42.25155676626831" lon="0.9581515536566058"><ele>535.0</ele><time>2026-04-27T15:00:48.998Z</time></trkpt><trkpt lat="42.2516413638707" lon="0.9580571653803668"><ele>535.0</ele><time>2026-04-27T15:00:49.998Z</time></trkpt><trkpt lat="42.25172823104238" lon="0.9579658891802562"><ele>535.0</ele><time>2026-04-27T15:00:50.999Z</time></trkpt><trkpt lat="42.2518158789011" lon="0.9578802867731939"><ele>535.0</ele><time>2026-04-27T15:00:51.999Z</time></trkpt><trkpt lat="42.25190629822867" lon="0.9577982416696219"><ele>535.0</ele><time>2026-04-27T15:00:52.999Z</time></trkpt><trkpt lat="42.251997421981535" lon="0.957721122378095"><ele>535.0</ele><time>2026-04-27T15:00:53.999Z</time></trkpt><trkpt lat="42.25209016624661" lon="0.957649789261296"><ele>535.0</ele><time>2026-04-27T15:00:54.999Z</time></trkpt><trkpt lat="42.252183863565406" lon="0.9575802481487463"><ele>535.0</ele><time>2026-04-27T15:00:55.999Z</time></trkpt><trkpt lat="42.252277296255365" lon="0.9575152606756037"><ele>535.0</ele><time>2026-04-27T15:00:56.999Z</time></trkpt><trkpt lat="42.25237192552982" lon="0.9574553475690453"><ele>535.0</ele><time>2026-04-27T15:00:57.999Z</time></trkpt><trkpt lat="42.25246379479831" lon="0.9573966606794927"><ele>535.0</ele><time>2026-04-27T15:00:58.999Z</time></trkpt><trkpt lat="42.25255424599726" lon="0.9573398671600298"><ele>535.0</ele><time>2026-04-27T15:00:59.999Z</time></trkpt><trkpt lat="42.252644162768874" lon="0.9572828006743718"><ele>535.0</ele><time>2026-04-27T15:01:00.999Z</time></trkpt><trkpt lat="42.252733315542386" lon="0.9572229604971937"><ele>535.0</ele><time>2026-04-27T15:01:01.999Z</time></trkpt><trkpt lat="42.252822571707476" lon="0.9571616722776785"><ele>535.0</ele><time>2026-04-27T15:01:02.999Z</time></trkpt><trkpt lat="42.25290759999215" lon="0.9570987744731296"><ele>535.0</ele><time>2026-04-27T15:01:03.999Z</time></trkpt><trkpt lat="42.252993733404544" lon="0.9570290993756766"><ele>535.0</ele><time>2026-04-27T15:01:04.999Z</time></trkpt><trkpt lat="42.25307403159486" lon="0.9569528747581286"><ele>535.0</ele><time>2026-04-27T15:01:05.999Z</time></trkpt><trkpt lat="42.25315277047914" lon="0.9568768710398791"><ele>534.8</ele><time>2026-04-27T15:01:06.999Z</time></trkpt><trkpt lat="42.253229192856615" lon="0.956796851155814"><ele>534.6</ele><time>2026-04-27T15:01:07.999Z</time></trkpt><trkpt lat="42.25330054832761" lon="0.9567160884567986"><ele>534.4</ele><time>2026-04-27T15:01:08.999Z</time></trkpt><trkpt lat="42.25337058918633" lon="0.9566288426035107"><ele>534.2</ele><time>2026-04-27T15:01:09.999Z</time></trkpt><trkpt lat="42.25344089798741" lon="0.9565390532565852"><ele>534.0</ele><time>2026-04-27T15:01:10.999Z</time></trkpt><trkpt lat="42.25351202524452" lon="0.9564504019558038"><ele>536.2</ele><time>2026-04-27T15:01:11.999Z</time></trkpt><trkpt lat="42.25358169607842" lon="0.9563586899592706"><ele>538.4</ele><time>2026-04-27T15:01:12.999Z</time></trkpt><trkpt lat="42.25364800927294" lon="0.9562666783899726"><ele>540.6</ele><time>2026-04-27T15:01:13.999Z</time></trkpt><trkpt lat="42.253713516413484" lon="0.9561759499560856"><ele>542.8</ele><time>2026-04-27T15:01:15Z</time></trkpt><trkpt lat="42.25378071020841" lon="0.9560824377338081"><ele>545.0</ele><time>2026-04-27T15:01:16Z</time></trkpt><trkpt lat="42.25385105702311" lon="0.9559897089446866"><ele>545.0</ele><time>2026-04-27T15:01:17Z</time></trkpt><trkpt lat="42.25392095688372" lon="0.9558946942887621"><ele>545.0</ele><time>2026-04-27T15:01:18Z</time></trkpt><trkpt lat="42.25398979301372" lon="0.9557998072157334"><ele>545.0</ele><time>2026-04-27T15:01:19Z</time></trkpt><trkpt lat="42.25406228105808" lon="0.955705433104317"><ele>545.0</ele><time>2026-04-27T15:01:20Z</time></trkpt><trkpt lat="42.25413294642217" lon="0.9556101722131941"><ele>545.0</ele><time>2026-04-27T15:01:21Z</time></trkpt><trkpt lat="42.25420267376753" lon="0.9555177693641121"><ele>545.4</ele><time>2026-04-27T15:01:22Z</time></trkpt><trkpt lat="42.254269423894385" lon="0.9554238598309402"><ele>545.8</ele><time>2026-04-27T15:01:23Z</time></trkpt><trkpt lat="42.25433932358185" lon="0.9553310083873501"><ele>546.2</ele><time>2026-04-27T15:01:24Z</time></trkpt><trkpt lat="42.25440545384573" lon="0.9552373744141964"><ele>546.6</ele><time>2026-04-27T15:01:25Z</time></trkpt><trkpt lat="42.25447511789928" lon="0.9551439029158787"><ele>547.0</ele><time>2026-04-27T15:01:26Z</time></trkpt><trkpt lat="42.25454454987134" lon="0.9550511910780813"><ele>546.8000000000001</ele><time>2026-04-27T15:01:27Z</time></trkpt><trkpt lat="42.254612466633006" lon="0.9549582067463646"><ele>546.6</ele><time>2026-04-27T15:01:28Z</time></trkpt><trkpt lat="42.254680879110495" lon="0.9548683575623405"><ele>546.4000000000001</ele><time>2026-04-27T15:01:29Z</time></trkpt><trkpt lat="42.2547474039084" lon="0.9547761694379272"><ele>546.2</ele><time>2026-04-27T15:01:30Z</time></trkpt><trkpt lat="42.25481468326934" lon="0.9546837777087438"><ele>546.0</ele><time>2026-04-27T15:01:31Z</time></trkpt><trkpt lat="42.2548844004029" lon="0.9545908737744944"><ele>546.0</ele><time>2026-04-27T15:01:32Z</time></trkpt><trkpt lat="42.25495160350035" lon="0.9544989233917275"><ele>546.0</ele><time>2026-04-27T15:01:33Z</time></trkpt><trkpt lat="42.25501808735234" lon="0.9544040862079557"><ele>546.0</ele><time>2026-04-27T15:01:34Z</time></trkpt><trkpt lat="42.255090667653086" lon="0.9543119782936628"><ele>546.0</ele><time>2026-04-27T15:01:35Z</time></trkpt><trkpt lat="42.255160015465094" lon="0.954218595086716"><ele>546.0</ele><time>2026-04-27T15:01:36Z</time></trkpt><trkpt lat="42.25522869737555" lon="0.9541227172033426"><ele>549.4</ele><time>2026-04-27T15:01:37Z</time></trkpt><trkpt lat="42.25529528638795" lon="0.954030612087453"><ele>552.8</ele><time>2026-04-27T15:01:38Z</time></trkpt><trkpt lat="42.25536459181291" lon="0.9539366715659587"><ele>556.1999999999999</ele><time>2026-04-27T15:01:39Z</time></trkpt><trkpt lat="42.25543374428508" lon="0.9538422149227542"><ele>559.6</ele><time>2026-04-27T15:01:40Z</time></trkpt><trkpt lat="42.25550369745014" lon="0.9537468290310834"><ele>563.0</ele><time>2026-04-27T15:01:41Z</time></trkpt><trkpt lat="42.25557452305112" lon="0.9536518563268833"><ele>562.0</ele><time>2026-04-27T15:01:42Z</time></trkpt><trkpt lat="42.255643873480984" lon="0.9535590592081215"><ele>561.0</ele><time>2026-04-27T15:01:43Z</time></trkpt><trkpt lat="42.25571451338312" lon="0.9534654704091325"><ele>560.0</ele><time>2026-04-27T15:01:44Z</time></trkpt><trkpt lat="42.25578368998474" lon="0.953374044405484"><ele>559.0</ele><time>2026-04-27T15:01:45Z</time></trkpt><trkpt lat="42.25585209411353" lon="0.9532810067939963"><ele>558.0</ele><time>2026-04-27T15:01:46Z</time></trkpt><trkpt lat="42.25591801487169" lon="0.9531895266547484"><ele>558.0</ele><time>2026-04-27T15:01:47Z</time></trkpt><trkpt lat="42.25598265230013" lon="0.9530971535431754"><ele>558.0</ele><time>2026-04-27T15:01:48Z</time></trkpt><trkpt lat="42.25604856373831" lon="0.9530076756247807"><ele>558.0</ele><time>2026-04-27T15:01:49Z</time></trkpt><trkpt lat="42.25611380283197" lon="0.9529181487570798"><ele>558.0</ele><time>2026-04-27T15:01:50Z</time></trkpt><trkpt lat="42.25618176099932" lon="0.9528287062730274"><ele>558.0</ele><time>2026-04-27T15:01:51Z</time></trkpt><trkpt lat="42.25625058112254" lon="0.9527388431375347"><ele>558.0</ele><time>2026-04-27T15:01:52Z</time></trkpt><trkpt lat="42.25631781981701" lon="0.9526491716221781"><ele>558.0</ele><time>2026-04-27T15:01:53Z</time></trkpt><trkpt lat="42.25638603629236" lon="0.9525637169166826"><ele>558.0</ele><time>2026-04-27T15:01:54Z</time></trkpt><trkpt lat="42.256453756541084" lon="0.9524770393833704"><ele>558.0</ele><time>2026-04-27T15:01:55Z</time></trkpt><trkpt lat="42.25652044676875" lon="0.952390028050441"><ele>558.0</ele><time>2026-04-27T15:01:56Z</time></trkpt><trkpt lat="42.25658856938992" lon="0.9523040063170876"><ele>558.1999999999999</ele><time>2026-04-27T15:01:57Z</time></trkpt><trkpt lat="42.2566591460444" lon="0.9522202351844165"><ele>558.4</ele><time>2026-04-27T15:01:58Z</time></trkpt><trkpt lat="42.256731535076035" lon="0.9521399061173101"><ele>558.5999999999999</ele><time>2026-04-27T15:01:59Z</time></trkpt><trkpt lat="42.256804056871175" lon="0.9520609110761993"><ele>558.8</ele><time>2026-04-27T15:02:00.001Z</time></trkpt><trkpt lat="42.25687847797499" lon="0.9519862848869077"><ele>559.0</ele><time>2026-04-27T15:02:01.001Z</time></trkpt><trkpt lat="42.2569538181721" lon="0.9519161694500887"><ele>559.0</ele><time>2026-04-27T15:02:02.001Z</time></trkpt><trkpt lat="42.257029058685276" lon="0.9518468065503619"><ele>559.0</ele><time>2026-04-27T15:02:03.001Z</time></trkpt><trkpt lat="42.25710326914804" lon="0.9517795912108935"><ele>559.0</ele><time>2026-04-27T15:02:04.001Z</time></trkpt><trkpt lat="42.2571787930778" lon="0.9517161714473955"><ele>559.0</ele><time>2026-04-27T15:02:05.001Z</time></trkpt><trkpt lat="42.25725429860336" lon="0.951654090772053"><ele>559.0</ele><time>2026-04-27T15:02:06.001Z</time></trkpt><trkpt lat="42.257330506823955" lon="0.9515919513545363"><ele>559.0</ele><time>2026-04-27T15:02:07.001Z</time></trkpt><trkpt lat="42.25740574065197" lon="0.9515306847454326"><ele>560.8333333333334</ele><time>2026-04-27T15:02:08.001Z</time></trkpt><trkpt lat="42.25748256273962" lon="0.9514699072788853"><ele>562.6666666666667</ele><time>2026-04-27T15:02:09.001Z</time></trkpt><trkpt lat="42.25755891030332" lon="0.9514096697588067"><ele>564.5</ele><time>2026-04-27T15:02:10.001Z</time></trkpt><trkpt lat="42.25763505017529" lon="0.951350570656643"><ele>566.3333333333334</ele><time>2026-04-27T15:02:11.001Z</time></trkpt><trkpt lat="42.25771028428938" lon="0.951288017416372"><ele>568.1666666666666</ele><time>2026-04-27T15:02:12.001Z</time></trkpt><trkpt lat="42.25778380079134" lon="0.9512270102088498"><ele>570.0</ele><time>2026-04-27T15:02:13.001Z</time></trkpt><trkpt lat="42.25785826264959" lon="0.951167680286471"><ele>570.0</ele><time>2026-04-27T15:02:14.001Z</time></trkpt><trkpt lat="42.25793349003055" lon="0.9511082837328224"><ele>570.0</ele><time>2026-04-27T15:02:15.001Z</time></trkpt><trkpt lat="42.25800729514276" lon="0.9510483847193477"><ele>570.0</ele><time>2026-04-27T15:02:16.001Z</time></trkpt><trkpt lat="42.25808085061377" lon="0.9509899360022062"><ele>570.0</ele><time>2026-04-27T15:02:17.001Z</time></trkpt><trkpt lat="42.258153766279555" lon="0.950931523522475"><ele>570.0</ele><time>2026-04-27T15:02:18.001Z</time></trkpt><trkpt lat="42.2582260778255" lon="0.9508722454181013"><ele>570.0</ele><time>2026-04-27T15:02:19.001Z</time></trkpt><trkpt lat="42.25829952933279" lon="0.9508156196527138"><ele>570.3333333333334</ele><time>2026-04-27T15:02:20.001Z</time></trkpt><trkpt lat="42.258373860964724" lon="0.9507580184478195"><ele>570.6666666666666</ele><time>2026-04-27T15:02:21.001Z</time></trkpt><trkpt lat="42.25844757880892" lon="0.9506977124297082"><ele>571.0</ele><time>2026-04-27T15:02:22.001Z</time></trkpt><trkpt lat="42.25852313748104" lon="0.9506427675107866"><ele>571.3333333333333</ele><time>2026-04-27T15:02:23.001Z</time></trkpt><trkpt lat="42.25859700493709" lon="0.9505814219141655"><ele>571.6666666666666</ele><time>2026-04-27T15:02:24.001Z</time></trkpt><trkpt lat="42.258673396646" lon="0.9505252522029737"><ele>572.0</ele><time>2026-04-27T15:02:25.001Z</time></trkpt><trkpt lat="42.258750008229036" lon="0.9504644284772171"><ele>572.0</ele><time>2026-04-27T15:02:26.001Z</time></trkpt><trkpt lat="42.25882778434712" lon="0.9504051420438878"><ele>572.0</ele><time>2026-04-27T15:02:27.001Z</time></trkpt><trkpt lat="42.2589016898442" lon="0.9503423600660599"><ele>572.0</ele><time>2026-04-27T15:02:28.001Z</time></trkpt><trkpt lat="42.258979309752995" lon="0.9502839729700713"><ele>572.0</ele><time>2026-04-27T15:02:29.001Z</time></trkpt><trkpt lat="42.25905571291604" lon="0.9502237699357071"><ele>572.0</ele><time>2026-04-27T15:02:30.001Z</time></trkpt><trkpt lat="42.259132550347445" lon="0.9501693146902989"><ele>572.0</ele><time>2026-04-27T15:02:31.001Z</time></trkpt><trkpt lat="42.25921474080237" lon="0.9501226126054095"><ele>573.5</ele><time>2026-04-27T15:02:32.001Z</time></trkpt><trkpt lat="42.25929696182092" lon="0.9500717644235731"><ele>575.0</ele><time>2026-04-27T15:02:33.001Z</time></trkpt><trkpt lat="42.259377484025016" lon="0.950016177172745"><ele>576.5</ele><time>2026-04-27T15:02:34.001Z</time></trkpt><trkpt lat="42.25945055096928" lon="0.9499538684855146"><ele>578.0</ele><time>2026-04-27T15:02:35.001Z</time></trkpt><trkpt lat="42.25952269888177" lon="0.9498919739996602"><ele>579.5</ele><time>2026-04-27T15:02:36.001Z</time></trkpt><trkpt lat="42.25959526221472" lon="0.9498318403636032"><ele>581.0</ele><time>2026-04-27T15:02:37.001Z</time></trkpt><trkpt lat="42.25966837224695" lon="0.9497705355217615"><ele>581.0</ele><time>2026-04-27T15:02:38.001Z</time></trkpt><trkpt lat="42.25974188549936" lon="0.9497100044465194"><ele>581.0</ele><time>2026-04-27T15:02:38.999Z</time></trkpt><trkpt lat="42.25981556904916" lon="0.9496506398124813"><ele>581.0</ele><time>2026-04-27T15:02:39.999Z</time></trkpt><trkpt lat="42.259889472045366" lon="0.9495928167527882"><ele>581.0</ele><time>2026-04-27T15:02:40.999Z</time></trkpt><trkpt lat="42.25996206437209" lon="0.9495351954230641"><ele>581.0</ele><time>2026-04-27T15:02:41.999Z</time></trkpt><trkpt lat="42.260034995327956" lon="0.9494748209682696"><ele>581.0</ele><time>2026-04-27T15:02:42.999Z</time></trkpt><trkpt lat="42.26010699768077" lon="0.9494137430032712"><ele>579.1666666666666</ele><time>2026-04-27T15:02:43.999Z</time></trkpt><trkpt lat="42.26018195323642" lon="0.9493543234332301"><ele>577.3333333333333</ele><time>2026-04-27T15:02:44.999Z</time></trkpt><trkpt lat="42.260255687745406" lon="0.9492957208064426"><ele>575.5</ele><time>2026-04-27T15:02:45.999Z</time></trkpt><trkpt lat="42.260329576039354" lon="0.9492382822728749"><ele>573.6666666666666</ele><time>2026-04-27T15:02:46.999Z</time></trkpt><trkpt lat="42.26040380691634" lon="0.9491795319095534"><ele>571.8333333333334</ele><time>2026-04-27T15:02:47.999Z</time></trkpt><trkpt lat="42.260476984651405" lon="0.9491196819724164"><ele>570.0</ele><time>2026-04-27T15:02:48.999Z</time></trkpt><trkpt lat="42.260552195758144" lon="0.9490585191782286"><ele>571.0</ele><time>2026-04-27T15:02:49.999Z</time></trkpt><trkpt lat="42.26062774663292" lon="0.948996712879413"><ele>572.0</ele><time>2026-04-27T15:02:50.999Z</time></trkpt><trkpt lat="42.26070463783224" lon="0.9489356931741086"><ele>573.0</ele><time>2026-04-27T15:02:51.999Z</time></trkpt><trkpt lat="42.26078136991942" lon="0.9488748157991774"><ele>574.0</ele><time>2026-04-27T15:02:52.999Z</time></trkpt><trkpt lat="42.260856979465835" lon="0.9488162253223347"><ele>575.0</ele><time>2026-04-27T15:02:53.999Z</time></trkpt><trkpt lat="42.26093256821851" lon="0.9487560830516756"><ele>576.0</ele><time>2026-04-27T15:02:54.999Z</time></trkpt><trkpt lat="42.261007720857585" lon="0.9486944387588472"><ele>576.0</ele><time>2026-04-27T15:02:55.999Z</time></trkpt><trkpt lat="42.26108014068569" lon="0.9486345103224132"><ele>576.0</ele><time>2026-04-27T15:02:56.999Z</time></trkpt><trkpt lat="42.2611541298241" lon="0.9485755896947184"><ele>576.0</ele><time>2026-04-27T15:02:58Z</time></trkpt><trkpt lat="42.26122882618452" lon="0.9485174603923298"><ele>576.0</ele><time>2026-04-27T15:02:59Z</time></trkpt><trkpt lat="42.26130446753899" lon="0.9484618503256627"><ele>576.0</ele><time>2026-04-27T15:03:00Z</time></trkpt><trkpt lat="42.26137957632152" lon="0.9484033210549913"><ele>576.0</ele><time>2026-04-27T15:03:01Z</time></trkpt><trkpt lat="42.261453469095954" lon="0.948343506124085"><ele>579.0</ele><time>2026-04-27T15:03:02Z</time></trkpt><trkpt lat="42.26152677568391" lon="0.9482865318595792"><ele>582.0</ele><time>2026-04-27T15:03:03Z</time></trkpt><trkpt lat="42.2615987298294" lon="0.9482309193117421"><ele>585.0</ele><time>2026-04-27T15:03:04Z</time></trkpt><trkpt lat="42.26167132340858" lon="0.9481735869661138"><ele>588.0</ele><time>2026-04-27T15:03:05Z</time></trkpt><trkpt lat="42.261744701889874" lon="0.9481155700047125"><ele>591.0</ele><time>2026-04-27T15:03:06Z</time></trkpt><trkpt lat="42.261819968323394" lon="0.9480588352392003"><ele>594.0</ele><time>2026-04-27T15:03:07Z</time></trkpt><trkpt lat="42.26189599937721" lon="0.9480017897444395"><ele>594.0</ele><time>2026-04-27T15:03:08Z</time></trkpt><trkpt lat="42.261973953069806" lon="0.947943136539177"><ele>594.0</ele><time>2026-04-27T15:03:09Z</time></trkpt><trkpt lat="42.26205079875394" lon="0.947884764475683"><ele>594.0</ele><time>2026-04-27T15:03:10Z</time></trkpt><trkpt lat="42.26212981393233" lon="0.9478255332382466"><ele>594.0</ele><time>2026-04-27T15:03:11Z</time></trkpt><trkpt lat="42.26220906965107" lon="0.9477649105041892"><ele>594.0</ele><time>2026-04-27T15:03:12Z</time></trkpt><trkpt lat="42.26228857382178" lon="0.9477036098408045"><ele>595.2</ele><time>2026-04-27T15:03:13Z</time></trkpt><trkpt lat="42.262369539473674" lon="0.9476415119343137"><ele>596.4</ele><time>2026-04-27T15:03:14Z</time></trkpt><trkpt lat="42.26245295164234" lon="0.9475792726229166"><ele>597.6</ele><time>2026-04-27T15:03:15Z</time></trkpt><trkpt lat="42.26253920740875" lon="0.947511125165946"><ele>598.8</ele><time>2026-04-27T15:03:16Z</time></trkpt><trkpt lat="42.262627361070145" lon="0.9474496933294897"><ele>600.0</ele><time>2026-04-27T15:03:17Z</time></trkpt><trkpt lat="42.26271510906111" lon="0.9473819352810489"><ele>600.0</ele><time>2026-04-27T15:03:18Z</time></trkpt><trkpt lat="42.2628053819377" lon="0.9473160272094333"><ele>600.0</ele><time>2026-04-27T15:03:19Z</time></trkpt><trkpt lat="42.26289745798182" lon="0.9472473121109128"><ele>600.0</ele><time>2026-04-27T15:03:20Z</time></trkpt><trkpt lat="42.26299041507647" lon="0.9471835959633171"><ele>600.0</ele><time>2026-04-27T15:03:21Z</time></trkpt><trkpt lat="42.26308412137594" lon="0.9471102968825288"><ele>600.0</ele><time>2026-04-27T15:03:22Z</time></trkpt><trkpt lat="42.26318014448456" lon="0.9470403595472903"><ele>601.2</ele><time>2026-04-27T15:03:23Z</time></trkpt><trkpt lat="42.26327503897644" lon="0.9469730081243729"><ele>602.4</ele><time>2026-04-27T15:03:24Z</time></trkpt><trkpt lat="42.26336910331893" lon="0.9469007424556718"><ele>603.6</ele><time>2026-04-27T15:03:25Z</time></trkpt><trkpt lat="42.26346180451406" lon="0.9468325338222678"><ele>604.8</ele><time>2026-04-27T15:03:26Z</time></trkpt><trkpt lat="42.26355537287672" lon="0.9467616346789299"><ele>606.0</ele><time>2026-04-27T15:03:27Z</time></trkpt><trkpt lat="42.263648203157246" lon="0.9466894788713563"><ele>606.0</ele><time>2026-04-27T15:03:28Z</time></trkpt><trkpt lat="42.26373995684433" lon="0.9466200895866546"><ele>606.0</ele><time>2026-04-27T15:03:29Z</time></trkpt><trkpt lat="42.263830867016665" lon="0.9465478652554468"><ele>606.0</ele><time>2026-04-27T15:03:30Z</time></trkpt><trkpt lat="42.263921523815725" lon="0.9464746643819352"><ele>606.0</ele><time>2026-04-27T15:03:31Z</time></trkpt><trkpt lat="42.26401162794572" lon="0.9464050453962976"><ele>606.0</ele><time>2026-04-27T15:03:32Z</time></trkpt><trkpt lat="42.264103281857146" lon="0.9463354925856026"><ele>602.8</ele><time>2026-04-27T15:03:33.001Z</time></trkpt><trkpt lat="42.2641953400497" lon="0.9462638407002842"><ele>599.6</ele><time>2026-04-27T15:03:34.001Z</time></trkpt><trkpt lat="42.26428954467647" lon="0.9461958769680135"><ele>596.4</ele><time>2026-04-27T15:03:35.001Z</time></trkpt><trkpt lat="42.264385092682424" lon="0.9461298499257146"><ele>593.2</ele><time>2026-04-27T15:03:36.001Z</time></trkpt><trkpt lat="42.264481611988494" lon="0.9460658908655263"><ele>590.0</ele><time>2026-04-27T15:03:37.001Z</time></trkpt><trkpt lat="42.264578151220235" lon="0.9460073179136034"><ele>590.0</ele><time>2026-04-27T15:03:38.001Z</time></trkpt><trkpt lat="42.2646745485659" lon="0.9459495624546367"><ele>590.0</ele><time>2026-04-27T15:03:39.001Z</time></trkpt><trkpt lat="42.26477471670204" lon="0.9458968749412391"><ele>590.0</ele><time>2026-04-27T15:03:40.001Z</time></trkpt><trkpt lat="42.26487522676184" lon="0.9458390719711182"><ele>590.0</ele><time>2026-04-27T15:03:41.001Z</time></trkpt><trkpt lat="42.26497544629067" lon="0.9457904163032851"><ele>590.0</ele><time>2026-04-27T15:03:42.001Z</time></trkpt><trkpt lat="42.26507965267293" lon="0.945742335770801"><ele>589.4</ele><time>2026-04-27T15:03:43.001Z</time></trkpt><trkpt lat="42.26518412863135" lon="0.945698256658004"><ele>588.8</ele><time>2026-04-27T15:03:44.001Z</time></trkpt><trkpt lat="42.265289899869835" lon="0.9456625345389255"><ele>588.2</ele><time>2026-04-27T15:03:45.001Z</time></trkpt><trkpt lat="42.26539789870269" lon="0.9456280823664799"><ele>587.6</ele><time>2026-04-27T15:03:46.001Z</time></trkpt><trkpt lat="42.2655068945569" lon="0.9455940151761444"><ele>587.0</ele><time>2026-04-27T15:03:47.001Z</time></trkpt><trkpt lat="42.26561346206854" lon="0.9455623199569886"><ele>587.0</ele><time>2026-04-27T15:03:48.001Z</time></trkpt><trkpt lat="42.26572215942817" lon="0.9455363910392206"><ele>587.0</ele><time>2026-04-27T15:03:49.001Z</time></trkpt><trkpt lat="42.26583062865348" lon="0.9455097141944039"><ele>587.0</ele><time>2026-04-27T15:03:50.001Z</time></trkpt><trkpt lat="42.265940493966944" lon="0.9454874920429104"><ele>587.0</ele><time>2026-04-27T15:03:51.001Z</time></trkpt><trkpt lat="42.2660516238477" lon="0.9454734688305024"><ele>587.0</ele><time>2026-04-27T15:03:52.001Z</time></trkpt><trkpt lat="42.26616276318576" lon="0.9454543493643385"><ele>587.0</ele><time>2026-04-27T15:03:53.001Z</time></trkpt><trkpt lat="42.26627718505379" lon="0.9454355366462305"><ele>587.0</ele><time>2026-04-27T15:03:54.001Z</time></trkpt><trkpt lat="42.26639012182519" lon="0.9454172771224439"><ele>587.0</ele><time>2026-04-27T15:03:55.001Z</time></trkpt><trkpt lat="42.266499404385" lon="0.94540551833403"><ele>587.0</ele><time>2026-04-27T15:03:56.001Z</time></trkpt><trkpt lat="42.2666099314612" lon="0.9453877064313084"><ele>587.2</ele><time>2026-04-27T15:03:57.001Z</time></trkpt><trkpt lat="42.2667204826475" lon="0.9453729040377395"><ele>587.4000000000001</ele><time>2026-04-27T15:03:58.001Z</time></trkpt><trkpt lat="42.266832607761756" lon="0.945356734616171"><ele>587.5999999999999</ele><time>2026-04-27T15:03:59.001Z</time></trkpt><trkpt lat="42.266942299293945" lon="0.9453445045292496"><ele>587.8</ele><time>2026-04-27T15:04:00.001Z</time></trkpt><trkpt lat="42.26705338167722" lon="0.9453257266210213"><ele>588.0</ele><time>2026-04-27T15:04:01.001Z</time></trkpt><trkpt lat="42.26716302632432" lon="0.9453084917635671"><ele>588.0</ele><time>2026-04-27T15:04:02.001Z</time></trkpt><trkpt lat="42.26726760032238" lon="0.9452967571297055"><ele>588.0</ele><time>2026-04-27T15:04:03.001Z</time></trkpt><trkpt lat="42.26737868192285" lon="0.9452798064675507"><ele>588.0</ele><time>2026-04-27T15:04:04.001Z</time></trkpt><trkpt lat="42.267484156139325" lon="0.9452671179331262"><ele>588.0</ele><time>2026-04-27T15:04:05.001Z</time></trkpt><trkpt lat="42.26759447370653" lon="0.9452495735974042"><ele>588.0</ele><time>2026-04-27T15:04:06.001Z</time></trkpt><trkpt lat="42.26770243782957" lon="0.9452327707630015"><ele>587.1999999999999</ele><time>2026-04-27T15:04:07.001Z</time></trkpt><trkpt lat="42.2678125910945" lon="0.9452171188554831"><ele>586.4</ele><time>2026-04-27T15:04:08.001Z</time></trkpt><trkpt lat="42.267922069881394" lon="0.9452021790832188"><ele>585.5999999999999</ele><time>2026-04-27T15:04:09.001Z</time></trkpt><trkpt lat="42.26803153659862" lon="0.94518590741455"><ele>584.8</ele><time>2026-04-27T15:04:10.001Z</time></trkpt><trkpt lat="42.26813665710682" lon="0.945173540276584"><ele>584.0</ele><time>2026-04-27T15:04:11.001Z</time></trkpt><trkpt lat="42.268246388427094" lon="0.9451575681320911"><ele>583.8</ele><time>2026-04-27T15:04:12.001Z</time></trkpt><trkpt lat="42.268354946956755" lon="0.9451412887235793"><ele>583.5999999999999</ele><time>2026-04-27T15:04:13.001Z</time></trkpt><trkpt lat="42.26846315867566" lon="0.9451303621473103"><ele>583.4</ele><time>2026-04-27T15:04:14.001Z</time></trkpt><trkpt lat="42.26857270049936" lon="0.9451148316999175"><ele>583.1999999999999</ele><time>2026-04-27T15:04:15.001Z</time></trkpt><trkpt lat="42.26868362679388" lon="0.945093676616179"><ele>583.0</ele><time>2026-04-27T15:04:16.001Z</time></trkpt><trkpt lat="42.26878716958499" lon="0.9450782321548014"><ele>583.0</ele><time>2026-04-27T15:04:17.001Z</time></trkpt><trkpt lat="42.26889005344177" lon="0.945063625047008"><ele>583.0</ele><time>2026-04-27T15:04:18.001Z</time></trkpt><trkpt lat="42.26899603413626" lon="0.9450492964634067"><ele>583.0</ele><time>2026-04-27T15:04:19.002Z</time></trkpt><trkpt lat="42.26910193841018" lon="0.945034530591539"><ele>583.0</ele><time>2026-04-27T15:04:20.002Z</time></trkpt><trkpt lat="42.269207791412214" lon="0.9450217621104561"><ele>583.0</ele><time>2026-04-27T15:04:21.002Z</time></trkpt><trkpt lat="42.269314560287825" lon="0.9450059713629377"><ele>587.1999999999999</ele><time>2026-04-27T15:04:22.002Z</time></trkpt><trkpt lat="42.269418457002054" lon="0.9449912847407017"><ele>591.4</ele><time>2026-04-27T15:04:23.002Z</time></trkpt><trkpt lat="42.26952197679441" lon="0.9449743626283921"><ele>595.5999999999999</ele><time>2026-04-27T15:04:24.002Z</time></trkpt><trkpt lat="42.269626794416276" lon="0.9449597113532957"><ele>599.8</ele><time>2026-04-27T15:04:25.002Z</time></trkpt><trkpt lat="42.269731433166214" lon="0.9449378283040696"><ele>604.0</ele><time>2026-04-27T15:04:26.002Z</time></trkpt><trkpt lat="42.269834694262684" lon="0.9449134503760068"><ele>604.4</ele><time>2026-04-27T15:04:27.002Z</time></trkpt><trkpt lat="42.26993820138051" lon="0.944891100046585"><ele>604.8</ele><time>2026-04-27T15:04:28.002Z</time></trkpt><trkpt lat="42.27003994882635" lon="0.9448627101983299"><ele>605.2</ele><time>2026-04-27T15:04:29.002Z</time></trkpt><trkpt lat="42.270141659236316" lon="0.9448362439773216"><ele>605.6</ele><time>2026-04-27T15:04:30.002Z</time></trkpt><trkpt lat="42.27024487738732" lon="0.9448010506718144"><ele>606.0</ele><time>2026-04-27T15:04:31.002Z</time></trkpt><trkpt lat="42.27034285685815" lon="0.944772247728071"><ele>606.0</ele><time>2026-04-27T15:04:32.002Z</time></trkpt><trkpt lat="42.27044423366729" lon="0.9447369780771574"><ele>606.0</ele><time>2026-04-27T15:04:33.002Z</time></trkpt><trkpt lat="42.2705464454199" lon="0.9446982784525672"><ele>606.0</ele><time>2026-04-27T15:04:34.002Z</time></trkpt><trkpt lat="42.27065013915441" lon="0.9446575227577503"><ele>606.0</ele><time>2026-04-27T15:04:35.002Z</time></trkpt><trkpt lat="42.270750033609055" lon="0.9446120554142943"><ele>606.0</ele><time>2026-04-27T15:04:36.002Z</time></trkpt><trkpt lat="42.27084856214405" lon="0.9445655787805668"><ele>606.6</ele><time>2026-04-27T15:04:37.002Z</time></trkpt><trkpt lat="42.27094703411986" lon="0.9445190645737421"><ele>607.2</ele><time>2026-04-27T15:04:38.002Z</time></trkpt><trkpt lat="42.27105004501505" lon="0.9444623975865959"><ele>607.8</ele><time>2026-04-27T15:04:39.002Z</time></trkpt><trkpt lat="42.27114726815604" lon="0.9444070370255714"><ele>608.4</ele><time>2026-04-27T15:04:40.002Z</time></trkpt><trkpt lat="42.271244511087026" lon="0.9443475217586852"><ele>609.0</ele><time>2026-04-27T15:04:41.002Z</time></trkpt><trkpt lat="42.27134155982206" lon="0.9442851621931351"><ele>609.0</ele><time>2026-04-27T15:04:42.002Z</time></trkpt><trkpt lat="42.27143184704486" lon="0.9442281294475762"><ele>609.0</ele><time>2026-04-27T15:04:43.002Z</time></trkpt><trkpt lat="42.27152697013299" lon="0.9441600221345481"><ele>609.0</ele><time>2026-04-27T15:04:44.002Z</time></trkpt><trkpt lat="42.27162463345434" lon="0.9440926775060512"><ele>609.0</ele><time>2026-04-27T15:04:45Z</time></trkpt><trkpt lat="42.27171952295262" lon="0.9440226697795948"><ele>609.0</ele><time>2026-04-27T15:04:46Z</time></trkpt><trkpt lat="42.271811969218206" lon="0.9439489299810341"><ele>609.0</ele><time>2026-04-27T15:04:47Z</time></trkpt><trkpt lat="42.27190197730241" lon="0.9438737367236227"><ele>609.0</ele><time>2026-04-27T15:04:48Z</time></trkpt><trkpt lat="42.271993919595864" lon="0.9437979856575186"><ele>609.0</ele><time>2026-04-27T15:04:49Z</time></trkpt><trkpt lat="42.272083099715026" lon="0.9437162474082529"><ele>609.0</ele><time>2026-04-27T15:04:50Z</time></trkpt><trkpt lat="42.27217208789046" lon="0.9436278870891992"><ele>609.0</ele><time>2026-04-27T15:04:51Z</time></trkpt><trkpt lat="42.27225981482778" lon="0.9435416993502578"><ele>608.8</ele><time>2026-04-27T15:04:52Z</time></trkpt><trkpt lat="42.272348711327425" lon="0.9434560123076322"><ele>608.5999999999999</ele><time>2026-04-27T15:04:53Z</time></trkpt><trkpt lat="42.27243669783871" lon="0.9433540104601722"><ele>608.4</ele><time>2026-04-27T15:04:54Z</time></trkpt><trkpt lat="42.272523070613474" lon="0.9432636310375851"><ele>608.1999999999999</ele><time>2026-04-27T15:04:55Z</time></trkpt><trkpt lat="42.27260788304124" lon="0.9431654165375029"><ele>608.0</ele><time>2026-04-27T15:04:56Z</time></trkpt><trkpt lat="42.27268980874869" lon="0.9430619802067219"><ele>608.0</ele><time>2026-04-27T15:04:57Z</time></trkpt><trkpt lat="42.27277006039598" lon="0.9429641226502536"><ele>608.0</ele><time>2026-04-27T15:04:58Z</time></trkpt><trkpt lat="42.272846853465886" lon="0.9428602234198876"><ele>608.0</ele><time>2026-04-27T15:04:59Z</time></trkpt><trkpt lat="42.27292208582025" lon="0.942754227783363"><ele>608.0</ele><time>2026-04-27T15:05:00Z</time></trkpt><trkpt lat="42.272995393605925" lon="0.9426512201080565"><ele>608.0</ele><time>2026-04-27T15:05:01Z</time></trkpt><trkpt lat="42.27306728528589" lon="0.942543453937471"><ele>607.0</ele><time>2026-04-27T15:05:02Z</time></trkpt><trkpt lat="42.27313998599834" lon="0.9424358403450619"><ele>606.0</ele><time>2026-04-27T15:05:03Z</time></trkpt><trkpt lat="42.273208244038166" lon="0.9423210394166678"><ele>605.0</ele><time>2026-04-27T15:05:04Z</time></trkpt><trkpt lat="42.273276949741245" lon="0.9422109420683427"><ele>604.0</ele><time>2026-04-27T15:05:05Z</time></trkpt><trkpt lat="42.27334229699611" lon="0.9420922288018636"><ele>603.0</ele><time>2026-04-27T15:05:06Z</time></trkpt><trkpt lat="42.27340645817598" lon="0.9419746657412531"><ele>603.0</ele><time>2026-04-27T15:05:07Z</time></trkpt><trkpt lat="42.27346892501951" lon="0.9418525852077093"><ele>603.0</ele><time>2026-04-27T15:05:08Z</time></trkpt><trkpt lat="42.27353121601412" lon="0.9417333425933063"><ele>603.0</ele><time>2026-04-27T15:05:09Z</time></trkpt><trkpt lat="42.27359034379481" lon="0.9416078668605634"><ele>603.0</ele><time>2026-04-27T15:05:10Z</time></trkpt><trkpt lat="42.27364653594222" lon="0.9414841501198049"><ele>603.0</ele><time>2026-04-27T15:05:11Z</time></trkpt><trkpt lat="42.27370154553373" lon="0.9413594908608889"><ele>603.6</ele><time>2026-04-27T15:05:12Z</time></trkpt><trkpt lat="42.273755239494726" lon="0.941234142150661"><ele>604.1999999999999</ele><time>2026-04-27T15:05:13Z</time></trkpt><trkpt lat="42.273807142681555" lon="0.9411096777001959"><ele>604.8</ele><time>2026-04-27T15:05:14Z</time></trkpt><trkpt lat="42.27385978306026" lon="0.9409855985067496"><ele>605.4</ele><time>2026-04-27T15:05:15.001Z</time></trkpt><trkpt lat="42.27391187315257" lon="0.9408599690647377"><ele>606.0</ele><time>2026-04-27T15:05:16.001Z</time></trkpt><trkpt lat="42.27396411003676" lon="0.9407334135180739"><ele>606.0</ele><time>2026-04-27T15:05:17.001Z</time></trkpt><trkpt lat="42.274017859560175" lon="0.9406111682140199"><ele>606.0</ele><time>2026-04-27T15:05:18.001Z</time></trkpt><trkpt lat="42.27407108277172" lon="0.940489202779477"><ele>606.0</ele><time>2026-04-27T15:05:19.001Z</time></trkpt><trkpt lat="42.274128396976664" lon="0.9403709942133206"><ele>606.0</ele><time>2026-04-27T15:05:20.001Z</time></trkpt><trkpt lat="42.27418696796032" lon="0.9402540525779882"><ele>606.0</ele><time>2026-04-27T15:05:21.001Z</time></trkpt><trkpt lat="42.27424280109756" lon="0.9401336789955369"><ele>607.2</ele><time>2026-04-27T15:05:22.001Z</time></trkpt><trkpt lat="42.27430135428965" lon="0.9400226280608801"><ele>608.4000000000001</ele><time>2026-04-27T15:05:23.001Z</time></trkpt><trkpt lat="42.27436580662451" lon="0.9399130636756743"><ele>609.6</ele><time>2026-04-27T15:05:24.001Z</time></trkpt><trkpt lat="42.27443484349183" lon="0.9398078970811791"><ele>610.8000000000001</ele><time>2026-04-27T15:05:25.001Z</time></trkpt><trkpt lat="42.274504950689426" lon="0.9397015174293986"><ele>612.0</ele><time>2026-04-27T15:05:26.001Z</time></trkpt><trkpt lat="42.274577259896134" lon="0.9395993655192746"><ele>612.0</ele><time>2026-04-27T15:05:27.001Z</time></trkpt><trkpt lat="42.27465390059562" lon="0.9394981525094247"><ele>612.0</ele><time>2026-04-27T15:05:28.001Z</time></trkpt><trkpt lat="42.274731901472556" lon="0.939398603818882"><ele>612.0</ele><time>2026-04-27T15:05:29.001Z</time></trkpt><trkpt lat="42.274807828062535" lon="0.9393000188078533"><ele>612.0</ele><time>2026-04-27T15:05:30.001Z</time></trkpt><trkpt lat="42.27488281589516" lon="0.9392065853749422"><ele>612.0</ele><time>2026-04-27T15:05:31.001Z</time></trkpt><trkpt lat="42.274966252955764" lon="0.9391198531892447"><ele>611.8000000000001</ele><time>2026-04-27T15:05:32.001Z</time></trkpt><trkpt lat="42.27505187317887" lon="0.9390352820221537"><ele>611.6</ele><time>2026-04-27T15:05:33.001Z</time></trkpt><trkpt lat="42.27513851981613" lon="0.9389534968355666"><ele>611.4000000000001</ele><time>2026-04-27T15:05:34.001Z</time></trkpt><trkpt lat="42.27522862818601" lon="0.9388717691836982"><ele>611.2</ele><time>2026-04-27T15:05:35.001Z</time></trkpt><trkpt lat="42.27531629226399" lon="0.938795931047071"><ele>611.0</ele><time>2026-04-27T15:05:36.001Z</time></trkpt><trkpt lat="42.27540601003099" lon="0.9387246846050317"><ele>611.0</ele><time>2026-04-27T15:05:37.001Z</time></trkpt><trkpt lat="42.27549873573017" lon="0.9386583301595841"><ele>611.0</ele><time>2026-04-27T15:05:38.001Z</time></trkpt><trkpt lat="42.275594668202025" lon="0.9385968952412642"><ele>611.0</ele><time>2026-04-27T15:05:39.001Z</time></trkpt><trkpt lat="42.27568965622121" lon="0.9385377919072273"><ele>611.0</ele><time>2026-04-27T15:05:40.001Z</time></trkpt><trkpt lat="42.27578624011526" lon="0.9384818934117994"><ele>611.0</ele><time>2026-04-27T15:05:41.001Z</time></trkpt><trkpt lat="42.27588183264009" lon="0.9384292787561809"><ele>612.2</ele><time>2026-04-27T15:05:42.001Z</time></trkpt><trkpt lat="42.27597806564058" lon="0.9383821706566334"><ele>613.4000000000001</ele><time>2026-04-27T15:05:43.001Z</time></trkpt><trkpt lat="42.27607600106777" lon="0.9383385048254128"><ele>614.6</ele><time>2026-04-27T15:05:44.001Z</time></trkpt><trkpt lat="42.276172878336126" lon="0.9383006902562225"><ele>615.8000000000001</ele><time>2026-04-27T15:05:45.001Z</time></trkpt><trkpt lat="42.27627013146865" lon="0.9382656468657685"><ele>617.0</ele><time>2026-04-27T15:05:46.001Z</time></trkpt><trkpt lat="42.276363999629204" lon="0.9382331476188845"><ele>616.6</ele><time>2026-04-27T15:05:47.001Z</time></trkpt><trkpt lat="42.27645954902552" lon="0.9382068312451438"><ele>616.2</ele><time>2026-04-27T15:05:48.001Z</time></trkpt><trkpt lat="42.27655854871938" lon="0.9381862398235039"><ele>615.8</ele><time>2026-04-27T15:05:49.001Z</time></trkpt><trkpt lat="42.276648096177524" lon="0.9381700981849105"><ele>615.4</ele><time>2026-04-27T15:05:50.001Z</time></trkpt><trkpt lat="42.27673966229241" lon="0.9381524017682747"><ele>615.0</ele><time>2026-04-27T15:05:51.001Z</time></trkpt><trkpt lat="42.276831823750875" lon="0.9381369274341471"><ele>615.0</ele><time>2026-04-27T15:05:52.001Z</time></trkpt><trkpt lat="42.2769271897007" lon="0.9381274784378365"><ele>615.0</ele><time>2026-04-27T15:05:53.001Z</time></trkpt><trkpt lat="42.27702056112994" lon="0.9381158955812634"><ele>615.0</ele><time>2026-04-27T15:05:54.001Z</time></trkpt><trkpt lat="42.277110657807846" lon="0.9380990989897273"><ele>615.0</ele><time>2026-04-27T15:05:55.001Z</time></trkpt><trkpt lat="42.2772024130333" lon="0.9380869805846579"><ele>615.0</ele><time>2026-04-27T15:05:56.001Z</time></trkpt><trkpt lat="42.27728959884004" lon="0.9380739152121513"><ele>615.4</ele><time>2026-04-27T15:05:57.001Z</time></trkpt><trkpt lat="42.27738036452402" lon="0.9380632282586615"><ele>615.8</ele><time>2026-04-27T15:05:58.001Z</time></trkpt><trkpt lat="42.27747242872469" lon="0.9380541170322847"><ele>616.2</ele><time>2026-04-27T15:05:59.001Z</time></trkpt><trkpt lat="42.2775619185565" lon="0.93804243056763"><ele>616.6</ele><time>2026-04-27T15:06:00.001Z</time></trkpt><trkpt lat="42.277649729213884" lon="0.9380276302998373"><ele>617.0</ele><time>2026-04-27T15:06:01.001Z</time></trkpt><trkpt lat="42.27773701533922" lon="0.938014170694276"><ele>617.0</ele><time>2026-04-27T15:06:02.001Z</time></trkpt><trkpt lat="42.27782425571342" lon="0.9379981715120955"><ele>617.0</ele><time>2026-04-27T15:06:03.001Z</time></trkpt><trkpt lat="42.27791376352116" lon="0.9379840291322387"><ele>617.0</ele><time>2026-04-27T15:06:04.001Z</time></trkpt><trkpt lat="42.278001539575925" lon="0.937968727135046"><ele>617.0</ele><time>2026-04-27T15:06:05.001Z</time></trkpt><trkpt lat="42.278089206845095" lon="0.9379528369418669"><ele>617.0</ele><time>2026-04-27T15:06:06.001Z</time></trkpt><trkpt lat="42.27817632903709" lon="0.9379373484844266"><ele>617.0</ele><time>2026-04-27T15:06:07.002Z</time></trkpt><trkpt lat="42.27826280340607" lon="0.9379190259570508"><ele>617.0</ele><time>2026-04-27T15:06:08.002Z</time></trkpt><trkpt lat="42.27834957696506" lon="0.9379021292420351"><ele>617.0</ele><time>2026-04-27T15:06:09.002Z</time></trkpt><trkpt lat="42.27843529024725" lon="0.9378819537574614"><ele>617.0</ele><time>2026-04-27T15:06:10.002Z</time></trkpt><trkpt lat="42.27852119420943" lon="0.9378619152808181"><ele>617.0</ele><time>2026-04-27T15:06:11.002Z</time></trkpt><trkpt lat="42.27860877222445" lon="0.9378397008093289"><ele>617.0</ele><time>2026-04-27T15:06:12.002Z</time></trkpt><trkpt lat="42.278696479711506" lon="0.9378157339857388"><ele>617.0</ele><time>2026-04-27T15:06:13.002Z</time></trkpt><trkpt lat="42.27878544786803" lon="0.9377881371168947"><ele>617.0</ele><time>2026-04-27T15:06:14.002Z</time></trkpt><trkpt lat="42.27887124837404" lon="0.9377584414904203"><ele>617.0</ele><time>2026-04-27T15:06:15.002Z</time></trkpt><trkpt lat="42.278960087756246" lon="0.9377249528056055"><ele>617.0</ele><time>2026-04-27T15:06:16.002Z</time></trkpt><trkpt lat="42.279046174083035" lon="0.9376908344473478"><ele>617.0</ele><time>2026-04-27T15:06:17.002Z</time></trkpt><trkpt lat="42.27913496110444" lon="0.9376599827639402"><ele>617.0</ele><time>2026-04-27T15:06:18.002Z</time></trkpt><trkpt lat="42.27922315765266" lon="0.9376286054720988"><ele>617.2</ele><time>2026-04-27T15:06:19.002Z</time></trkpt><trkpt lat="42.27931040916598" lon="0.9375956812173909"><ele>617.4000000000001</ele><time>2026-04-27T15:06:20.002Z</time></trkpt><trkpt lat="42.27939909202096" lon="0.9375632174589652"><ele>617.5999999999999</ele><time>2026-04-27T15:06:21.002Z</time></trkpt><trkpt lat="42.27948892923557" lon="0.9375319925316609"><ele>617.8</ele><time>2026-04-27T15:06:22.002Z</time></trkpt><trkpt lat="42.27957590533495" lon="0.9375018646266546"><ele>618.0</ele><time>2026-04-27T15:06:23.002Z</time></trkpt><trkpt lat="42.27965944030645" lon="0.9374642936051192"><ele>619.3333333333334</ele><time>2026-04-27T15:06:24.002Z</time></trkpt><trkpt lat="42.27974357186687" lon="0.9374265543464193"><ele>620.6666666666666</ele><time>2026-04-27T15:06:25.002Z</time></trkpt><trkpt lat="42.27982665910835" lon="0.9373904182622695"><ele>622.0</ele><time>2026-04-27T15:06:26.002Z</time></trkpt><trkpt lat="42.27991162515614" lon="0.9373551450958321"><ele>623.3333333333333</ele><time>2026-04-27T15:06:27.002Z</time></trkpt><trkpt lat="42.279998180013216" lon="0.9373211232108795"><ele>624.6666666666666</ele><time>2026-04-27T15:06:28.002Z</time></trkpt><trkpt lat="42.28008463867047" lon="0.9372877482849447"><ele>626.0</ele><time>2026-04-27T15:06:29.002Z</time></trkpt><trkpt lat="42.2801698740088" lon="0.9372539745694112"><ele>626.0</ele><time>2026-04-27T15:06:30.002Z</time></trkpt><trkpt lat="42.280253672974695" lon="0.9372160049540142"><ele>626.0</ele><time>2026-04-27T15:06:31.002Z</time></trkpt><trkpt lat="42.2803367869445" lon="0.9371777627619818"><ele>626.0</ele><time>2026-04-27T15:06:32.002Z</time></trkpt><trkpt lat="42.28042138840188" lon="0.9371418530630514"><ele>626.0</ele><time>2026-04-27T15:06:33.002Z</time></trkpt><trkpt lat="42.2805044855211" lon="0.9371070270974629"><ele>626.0</ele><time>2026-04-27T15:06:34.002Z</time></trkpt><trkpt lat="42.280589779990294" lon="0.937072459935655"><ele>626.0</ele><time>2026-04-27T15:06:35.002Z</time></trkpt><trkpt lat="42.28067510261643" lon="0.937039770935099"><ele>626.1666666666666</ele><time>2026-04-27T15:06:36.002Z</time></trkpt><trkpt lat="42.28075846201153" lon="0.9370043158284542"><ele>626.3333333333333</ele><time>2026-04-27T15:06:37.002Z</time></trkpt><trkpt lat="42.280842872427456" lon="0.9369686588908026"><ele>626.5</ele><time>2026-04-27T15:06:38.002Z</time></trkpt><trkpt lat="42.28092769472674" lon="0.9369359346282595"><ele>626.6666666666666</ele><time>2026-04-27T15:06:39.002Z</time></trkpt><trkpt lat="42.28101201953389" lon="0.9369035431828634"><ele>626.8333333333334</ele><time>2026-04-27T15:06:40.002Z</time></trkpt><trkpt lat="42.28109666626679" lon="0.9368723750141401"><ele>627.0</ele><time>2026-04-27T15:06:41.002Z</time></trkpt><trkpt lat="42.281182988469574" lon="0.9368396302178497"><ele>627.0</ele><time>2026-04-27T15:06:42.002Z</time></trkpt><trkpt lat="42.281270037737144" lon="0.936808719281169"><ele>627.0</ele><time>2026-04-27T15:06:43.002Z</time></trkpt><trkpt lat="42.281357828852414" lon="0.9367794854122695"><ele>627.0</ele><time>2026-04-27T15:06:44.002Z</time></trkpt><trkpt lat="42.28144440499379" lon="0.9367507943283204"><ele>627.0</ele><time>2026-04-27T15:06:45.002Z</time></trkpt><trkpt lat="42.28153220289079" lon="0.9367239281698225"><ele>627.0</ele><time>2026-04-27T15:06:46.002Z</time></trkpt><trkpt lat="42.281623700072146" lon="0.9366942720252148"><ele>628.4</ele><time>2026-04-27T15:06:47.002Z</time></trkpt><trkpt lat="42.281717682016996" lon="0.936666343538935"><ele>629.8000000000001</ele><time>2026-04-27T15:06:48.002Z</time></trkpt><trkpt lat="42.28180988349708" lon="0.9366409646159398"><ele>631.2</ele><time>2026-04-27T15:06:49.002Z</time></trkpt><trkpt lat="42.28190193678874" lon="0.9366180435777297"><ele>632.6</ele><time>2026-04-27T15:06:50.002Z</time></trkpt><trkpt lat="42.28199839582513" lon="0.9365962503962968"><ele>634.0</ele><time>2026-04-27T15:06:51.001Z</time></trkpt><trkpt lat="42.28209429734708" lon="0.9365747935288906"><ele>634.0</ele><time>2026-04-27T15:06:52.001Z</time></trkpt><trkpt lat="42.282189985054345" lon="0.9365532982776719"><ele>634.0</ele><time>2026-04-27T15:06:53.001Z</time></trkpt><trkpt lat="42.28230102076238" lon="0.9365364596212742"><ele>634.0</ele><time>2026-04-27T15:06:54.001Z</time></trkpt><trkpt lat="42.28241663253607" lon="0.9365204120001369"><ele>634.0</ele><time>2026-04-27T15:06:55.001Z</time></trkpt><trkpt lat="42.28253677077711" lon="0.9365072857176648"><ele>634.0</ele><time>2026-04-27T15:06:56.001Z</time></trkpt><trkpt lat="42.2826607998928" lon="0.9364932810393597"><ele>634.6</ele><time>2026-04-27T15:06:57.001Z</time></trkpt><trkpt lat="42.282786827869295" lon="0.9364766190518037"><ele>635.2</ele><time>2026-04-27T15:06:58.001Z</time></trkpt><trkpt lat="42.282720864718" lon="0.9364175500735021"><ele>635.8000000000001</ele><time>2026-04-27T15:06:59.001Z</time></trkpt><trkpt lat="42.282818875165304" lon="0.9364005024614545"><ele>636.4</ele><time>2026-04-27T15:07:00.001Z</time></trkpt><trkpt lat="42.282913966813126" lon="0.9363789559859942"><ele>637.0</ele><time>2026-04-27T15:07:01.001Z</time></trkpt><trkpt lat="42.28301186843612" lon="0.9363593186204623"><ele>637.8</ele><time>2026-04-27T15:07:02.001Z</time></trkpt><trkpt lat="42.28311027762957" lon="0.9363423581139619"><ele>638.6</ele><time>2026-04-27T15:07:03.001Z</time></trkpt><trkpt lat="42.283206162949924" lon="0.9363288314566481"><ele>639.4</ele><time>2026-04-27T15:07:04.001Z</time></trkpt><trkpt lat="42.28330364834625" lon="0.936318333274783"><ele>640.1999999999999</ele><time>2026-04-27T15:07:05.001Z</time></trkpt><trkpt lat="42.28340258333274" lon="0.9363076084143804"><ele>641.0</ele><time>2026-04-27T15:07:06.001Z</time></trkpt><trkpt lat="42.283502366484704" lon="0.9363001953881588"><ele>641.0</ele><time>2026-04-27T15:07:07.001Z</time></trkpt><trkpt lat="42.28359830069321" lon="0.9362919107863857"><ele>641.0</ele><time>2026-04-27T15:07:08.001Z</time></trkpt><trkpt lat="42.28369573311855" lon="0.9362797880675616"><ele>641.0</ele><time>2026-04-27T15:07:09.001Z</time></trkpt><trkpt lat="42.28379018653768" lon="0.9362685921185836"><ele>641.0</ele><time>2026-04-27T15:07:10.001Z</time></trkpt><trkpt lat="42.28388849089259" lon="0.9362544955024493"><ele>641.0</ele><time>2026-04-27T15:07:11.001Z</time></trkpt><trkpt lat="42.28398746196114" lon="0.9362417173294068"><ele>641.5999999999999</ele><time>2026-04-27T15:07:12.001Z</time></trkpt><trkpt lat="42.28408981464918" lon="0.9362300119631742"><ele>642.2</ele><time>2026-04-27T15:07:13.001Z</time></trkpt><trkpt lat="42.28418787556972" lon="0.9362192493383626"><ele>642.8</ele><time>2026-04-27T15:07:14.001Z</time></trkpt><trkpt lat="42.2842873365347" lon="0.9362076818699885"><ele>643.4000000000001</ele><time>2026-04-27T15:07:15.001Z</time></trkpt><trkpt lat="42.284388262958636" lon="0.9361954781206606"><ele>644.0</ele><time>2026-04-27T15:07:16.001Z</time></trkpt><trkpt lat="42.284487043423745" lon="0.9361847094239667"><ele>644.0</ele><time>2026-04-27T15:07:17.001Z</time></trkpt><trkpt lat="42.28458794793793" lon="0.9361736446411598"><ele>644.0</ele><time>2026-04-27T15:07:18.001Z</time></trkpt><trkpt lat="42.284689119484796" lon="0.9361676641701631"><ele>644.0</ele><time>2026-04-27T15:07:19.001Z</time></trkpt><trkpt lat="42.28479168786108" lon="0.936158785596159"><ele>644.0</ele><time>2026-04-27T15:07:20.001Z</time></trkpt><trkpt lat="42.28489284322989" lon="0.9361479431857606"><ele>644.0</ele><time>2026-04-27T15:07:21.001Z</time></trkpt><trkpt lat="42.284997746806184" lon="0.9361364599187076"><ele>643.2</ele><time>2026-04-27T15:07:22.001Z</time></trkpt><trkpt lat="42.285098966513644" lon="0.9361281735035165"><ele>642.4000000000001</ele><time>2026-04-27T15:07:23.001Z</time></trkpt><trkpt lat="42.28520515541506" lon="0.9361120384549343"><ele>641.6</ele><time>2026-04-27T15:07:24.001Z</time></trkpt><trkpt lat="42.285309112054776" lon="0.9361096521042248"><ele>640.8</ele><time>2026-04-27T15:07:25.001Z</time></trkpt><trkpt lat="42.28540856041848" lon="0.9360899188147151"><ele>640.0</ele><time>2026-04-27T15:07:26.001Z</time></trkpt><trkpt lat="42.285514098816" lon="0.9360777809385102"><ele>638.8</ele><time>2026-04-27T15:07:27.001Z</time></trkpt><trkpt lat="42.28561239162907" lon="0.936065302645285"><ele>637.6</ele><time>2026-04-27T15:07:28.001Z</time></trkpt><trkpt lat="42.28570996039615" lon="0.9360655727467766"><ele>636.4</ele><time>2026-04-27T15:07:29.001Z</time></trkpt><trkpt lat="42.285812718598144" lon="0.9360548302533356"><ele>635.2</ele><time>2026-04-27T15:07:30.001Z</time></trkpt><trkpt lat="42.285915650940495" lon="0.936038564025837"><ele>634.0</ele><time>2026-04-27T15:07:31.001Z</time></trkpt><trkpt lat="42.28601846409971" lon="0.9360272528820317"><ele>634.0</ele><time>2026-04-27T15:07:32.001Z</time></trkpt><trkpt lat="42.28611814222752" lon="0.9360165542931964"><ele>634.0</ele><time>2026-04-27T15:07:33.001Z</time></trkpt><trkpt lat="42.2862197173255" lon="0.9360073943827674"><ele>634.0</ele><time>2026-04-27T15:07:34.001Z</time></trkpt><trkpt lat="42.28632247219731" lon="0.9360003364119117"><ele>634.0</ele><time>2026-04-27T15:07:35.001Z</time></trkpt><trkpt lat="42.2864243351339" lon="0.935990682436488"><ele>634.0</ele><time>2026-04-27T15:07:36.001Z</time></trkpt><trkpt lat="42.28652802308473" lon="0.9359775242082446"><ele>635.4</ele><time>2026-04-27T15:07:37.001Z</time></trkpt><trkpt lat="42.286630801321344" lon="0.9359651018296649"><ele>636.8</ele><time>2026-04-27T15:07:38.001Z</time></trkpt><trkpt lat="42.28673063267198" lon="0.9359564584287506"><ele>638.1999999999999</ele><time>2026-04-27T15:07:39.001Z</time></trkpt><trkpt lat="42.28683176093671" lon="0.9359411776692471"><ele>639.5999999999999</ele><time>2026-04-27T15:07:40.001Z</time></trkpt><trkpt lat="42.28693506372387" lon="0.9359221119627837"><ele>641.0</ele><time>2026-04-27T15:07:41.001Z</time></trkpt><trkpt lat="42.28703552713987" lon="0.9359110900032592"><ele>641.0</ele><time>2026-04-27T15:07:42.001Z</time></trkpt><trkpt lat="42.28713966647552" lon="0.9359039851424922"><ele>641.0</ele><time>2026-04-27T15:07:43.001Z</time></trkpt><trkpt lat="42.28725874960077" lon="0.9358861864559639"><ele>641.0</ele><time>2026-04-27T15:07:44.001Z</time></trkpt><trkpt lat="42.28737378331141" lon="0.9358839623535427"><ele>641.0</ele><time>2026-04-27T15:07:45.001Z</time></trkpt><trkpt lat="42.287503811274995" lon="0.9358733022000105"><ele>651.25</ele><time>2026-04-27T15:07:46.001Z</time></trkpt><trkpt lat="42.287627413335436" lon="0.9358648277634808"><ele>661.5</ele><time>2026-04-27T15:07:47.001Z</time></trkpt><trkpt lat="42.287748500901074" lon="0.935856178113273"><ele>671.75</ele><time>2026-04-27T15:07:48.001Z</time></trkpt><trkpt lat="42.28786228119618" lon="0.935843438171963"><ele>682.0</ele><time>2026-04-27T15:07:49.001Z</time></trkpt><trkpt lat="42.28798431894491" lon="0.9358327848166706"><ele>693.0</ele><time>2026-04-27T15:07:50.001Z</time></trkpt><trkpt lat="42.28810493376385" lon="0.9358205855412368"><ele>704.0</ele><time>2026-04-27T15:07:51.001Z</time></trkpt><trkpt lat="42.288227750197436" lon="0.935810276946091"><ele>715.0</ele><time>2026-04-27T15:07:52.001Z</time></trkpt><trkpt lat="42.288356931328295" lon="0.9358036813086932"><ele>726.0</ele><time>2026-04-27T15:07:53.018Z</time></trkpt><trkpt lat="42.28848101241625" lon="0.9357957467877098"><ele>684.0</ele><time>2026-04-27T15:07:54.013Z</time></trkpt><trkpt lat="42.29281477633528" lon="0.9360947758380359"><ele>684.0</ele><time>2026-04-27T15:08:39.002Z</time></trkpt><trkpt lat="42.29291141820588" lon="0.9361052484123327"><ele>684.0</ele><time>2026-04-27T15:08:40.002Z</time></trkpt><trkpt lat="42.29305319921542" lon="0.9361839145088399"><ele>684.0</ele><time>2026-04-27T15:08:41.002Z</time></trkpt><trkpt lat="42.2931609110139" lon="0.9361917542559597"><ele>684.0</ele><time>2026-04-27T15:08:42.002Z</time></trkpt><trkpt lat="42.293278641801976" lon="0.9362148940532425"><ele>680.6</ele><time>2026-04-27T15:08:43.002Z</time></trkpt><trkpt lat="42.29338406607737" lon="0.9361984289070836"><ele>677.2</ele><time>2026-04-27T15:08:44.002Z</time></trkpt><trkpt lat="42.29349097947002" lon="0.9361967962318384"><ele>673.8000000000001</ele><time>2026-04-27T15:08:45.002Z</time></trkpt><trkpt lat="42.29359239464374" lon="0.9361790422601766"><ele>670.4000000000001</ele><time>2026-04-27T15:08:46.002Z</time></trkpt><trkpt lat="42.29369723632625" lon="0.9361690305964232"><ele>667.0</ele><time>2026-04-27T15:08:47.002Z</time></trkpt><trkpt lat="42.293799739104294" lon="0.9361590168189413"><ele>667.0</ele><time>2026-04-27T15:08:48.002Z</time></trkpt><trkpt lat="42.29390256546706" lon="0.936145625935236"><ele>667.0</ele><time>2026-04-27T15:08:49.002Z</time></trkpt><trkpt lat="42.29401148872879" lon="0.9361228611531853"><ele>667.0</ele><time>2026-04-27T15:08:50.002Z</time></trkpt><trkpt lat="42.29411472217375" lon="0.9361028905157833"><ele>667.0</ele><time>2026-04-27T15:08:51.002Z</time></trkpt><trkpt lat="42.29421974647113" lon="0.9360817289497961"><ele>667.0</ele><time>2026-04-27T15:08:52.002Z</time></trkpt><trkpt lat="42.29432103945383" lon="0.936061137494598"><ele>667.0</ele><time>2026-04-27T15:08:53.002Z</time></trkpt><trkpt lat="42.294423717014155" lon="0.9360348104600625"><ele>667.0</ele><time>2026-04-27T15:08:54.002Z</time></trkpt><trkpt lat="42.29452614118055" lon="0.9360086167334776"><ele>667.0</ele><time>2026-04-27T15:08:55.002Z</time></trkpt><trkpt lat="42.29462583230034" lon="0.9359859702715502"><ele>667.0</ele><time>2026-04-27T15:08:56.002Z</time></trkpt><trkpt lat="42.29472475428293" lon="0.9359577554504454"><ele>667.0</ele><time>2026-04-27T15:08:57.001Z</time></trkpt><trkpt lat="42.294829497875185" lon="0.9359287434506193"><ele>666.4000000000001</ele><time>2026-04-27T15:08:58Z</time></trkpt><trkpt lat="42.29493294026746" lon="0.9359014870668447"><ele>665.8000000000001</ele><time>2026-04-27T15:08:59.001Z</time></trkpt><trkpt lat="42.29503544434871" lon="0.9358787933350365"><ele>665.2</ele><time>2026-04-27T15:09:00Z</time></trkpt><trkpt lat="42.2951394795334" lon="0.9358566641352294"><ele>664.6</ele><time>2026-04-27T15:09:01Z</time></trkpt><trkpt lat="42.29524428110374" lon="0.9358339141998017"><ele>664.0</ele><time>2026-04-27T15:09:02Z</time></trkpt><trkpt lat="42.29534898862331" lon="0.9358124140614452"><ele>665.8000000000001</ele><time>2026-04-27T15:09:03Z</time></trkpt><trkpt lat="42.29545336776279" lon="0.935792543486802"><ele>667.6</ele><time>2026-04-27T15:09:04Z</time></trkpt><trkpt lat="42.29555872552101" lon="0.9357756895897967"><ele>669.4</ele><time>2026-04-27T15:09:05Z</time></trkpt><trkpt lat="42.29566031207907" lon="0.9357668415020761"><ele>671.2</ele><time>2026-04-27T15:09:06Z</time></trkpt><trkpt lat="42.29576625995332" lon="0.9357645310707491"><ele>673.0</ele><time>2026-04-27T15:09:07Z</time></trkpt><trkpt lat="42.295870275944495" lon="0.9357636568646694"><ele>673.0</ele><time>2026-04-27T15:09:08Z</time></trkpt><trkpt lat="42.295972804987684" lon="0.9357629709949677"><ele>673.0</ele><time>2026-04-27T15:09:09Z</time></trkpt><trkpt lat="42.29607583543231" lon="0.9357645777424839"><ele>673.0</ele><time>2026-04-27T15:09:10Z</time></trkpt><trkpt lat="42.29617951837729" lon="0.9357645124665347"><ele>673.0</ele><time>2026-04-27T15:09:11Z</time></trkpt><trkpt lat="42.29628150038385" lon="0.9357692384830325"><ele>673.0</ele><time>2026-04-27T15:09:12Z</time></trkpt><trkpt lat="42.29638367400809" lon="0.935774282583992"><ele>673.8</ele><time>2026-04-27T15:09:13Z</time></trkpt><trkpt lat="42.2964834759362" lon="0.9357842633934798"><ele>674.5999999999999</ele><time>2026-04-27T15:09:14Z</time></trkpt><trkpt lat="42.29658767736166" lon="0.9357915283490317"><ele>675.4000000000001</ele><time>2026-04-27T15:09:15Z</time></trkpt><trkpt lat="42.296687858889534" lon="0.9357991359632113"><ele>676.2</ele><time>2026-04-27T15:09:16Z</time></trkpt><trkpt lat="42.29678962940026" lon="0.9358051012591172"><ele>677.0</ele><time>2026-04-27T15:09:17Z</time></trkpt><trkpt lat="42.29689353853384" lon="0.9358125340511225"><ele>677.0</ele><time>2026-04-27T15:09:18Z</time></trkpt><trkpt lat="42.296995610171756" lon="0.9358218412739144"><ele>677.0</ele><time>2026-04-27T15:09:19Z</time></trkpt><trkpt lat="42.29709513993209" lon="0.9358286996204156"><ele>677.0</ele><time>2026-04-27T15:09:20Z</time></trkpt><trkpt lat="42.297197031974655" lon="0.9358370141353883"><ele>677.0</ele><time>2026-04-27T15:09:21Z</time></trkpt><trkpt lat="42.29729684078045" lon="0.9358453385755582"><ele>677.0</ele><time>2026-04-27T15:09:22Z</time></trkpt><trkpt lat="42.297400599712425" lon="0.9358499556662087"><ele>677.6</ele><time>2026-04-27T15:09:23Z</time></trkpt><trkpt lat="42.29749921332769" lon="0.9358564253336988"><ele>678.2</ele><time>2026-04-27T15:09:24.001Z</time></trkpt><trkpt lat="42.29759973682867" lon="0.9358645605498592"><ele>678.8</ele><time>2026-04-27T15:09:25.001Z</time></trkpt><trkpt lat="42.297700731897095" lon="0.9358758807731972"><ele>679.4</ele><time>2026-04-27T15:09:26.001Z</time></trkpt><trkpt lat="42.29779918316549" lon="0.9358869869321529"><ele>680.0</ele><time>2026-04-27T15:09:27.001Z</time></trkpt><trkpt lat="42.29789566928802" lon="0.9358938603658634"><ele>680.0</ele><time>2026-04-27T15:09:28.001Z</time></trkpt><trkpt lat="42.29799562646692" lon="0.9358996340548908"><ele>680.0</ele><time>2026-04-27T15:09:29.001Z</time></trkpt><trkpt lat="42.29809281854534" lon="0.9359058547659782"><ele>680.0</ele><time>2026-04-27T15:09:30.001Z</time></trkpt><trkpt lat="42.29819084556343" lon="0.9359143900965092"><ele>680.0</ele><time>2026-04-27T15:09:31.001Z</time></trkpt><trkpt lat="42.29828755306037" lon="0.9359180852178063"><ele>680.0</ele><time>2026-04-27T15:09:32.001Z</time></trkpt><trkpt lat="42.29838356570642" lon="0.9359267043851853"><ele>680.0</ele><time>2026-04-27T15:09:33.001Z</time></trkpt><trkpt lat="42.29847791577243" lon="0.9359331704895053"><ele>680.0</ele><time>2026-04-27T15:09:34.001Z</time></trkpt><trkpt lat="42.29857091375186" lon="0.9359368768795968"><ele>680.0</ele><time>2026-04-27T15:09:35.001Z</time></trkpt><trkpt lat="42.29866508090803" lon="0.9359448825905468"><ele>680.0</ele><time>2026-04-27T15:09:36.001Z</time></trkpt><trkpt lat="42.29875790347409" lon="0.9359554462025482"><ele>680.0</ele><time>2026-04-27T15:09:37.001Z</time></trkpt><trkpt lat="42.298850972768214" lon="0.9359627739498788"><ele>679.0</ele><time>2026-04-27T15:09:38.001Z</time></trkpt><trkpt lat="42.298940931835205" lon="0.9359683175357301"><ele>678.0</ele><time>2026-04-27T15:09:39.001Z</time></trkpt><trkpt lat="42.29903298104663" lon="0.9359765005101955"><ele>677.0</ele><time>2026-04-27T15:09:40.001Z</time></trkpt><trkpt lat="42.299124336482016" lon="0.9359841655566941"><ele>676.0</ele><time>2026-04-27T15:09:41.001Z</time></trkpt><trkpt lat="42.299215966968696" lon="0.9359934897525951"><ele>675.0</ele><time>2026-04-27T15:09:42.001Z</time></trkpt><trkpt lat="42.29930701656215" lon="0.936003934048483"><ele>675.0</ele><time>2026-04-27T15:09:43.001Z</time></trkpt><trkpt lat="42.299398032582005" lon="0.9360104096993553"><ele>675.0</ele><time>2026-04-27T15:09:44.001Z</time></trkpt><trkpt lat="42.299487973954264" lon="0.9360199023704578"><ele>675.0</ele><time>2026-04-27T15:09:45.001Z</time></trkpt><trkpt lat="42.299577733203385" lon="0.9360243323530241"><ele>675.0</ele><time>2026-04-27T15:09:46.001Z</time></trkpt><trkpt lat="42.29966815077912" lon="0.9360350926807472"><ele>675.0</ele><time>2026-04-27T15:09:47.001Z</time></trkpt><trkpt lat="42.299759212560794" lon="0.9360431703396727"><ele>675.6666666666666</ele><time>2026-04-27T15:09:48.001Z</time></trkpt><trkpt lat="42.2998492579008" lon="0.9360467724453422"><ele>676.3333333333334</ele><time>2026-04-27T15:09:49.001Z</time></trkpt><trkpt lat="42.299939358371475" lon="0.9360532201201255"><ele>677.0</ele><time>2026-04-27T15:09:50.001Z</time></trkpt><trkpt lat="42.30003046115919" lon="0.9360628559123778"><ele>677.6666666666667</ele><time>2026-04-27T15:09:51.001Z</time></trkpt><trkpt lat="42.300119743330576" lon="0.9360692570591972"><ele>678.3333333333334</ele><time>2026-04-27T15:09:52.001Z</time></trkpt><trkpt lat="42.300206673320716" lon="0.9360798836391672"><ele>679.0</ele><time>2026-04-27T15:09:53.001Z</time></trkpt><trkpt lat="42.30029511485499" lon="0.9360909813279688"><ele>679.0</ele><time>2026-04-27T15:09:54.001Z</time></trkpt><trkpt lat="42.300384424330076" lon="0.9360948524619718"><ele>679.0</ele><time>2026-04-27T15:09:55.001Z</time></trkpt><trkpt lat="42.30047297838905" lon="0.9361021565626384"><ele>679.0</ele><time>2026-04-27T15:09:56.001Z</time></trkpt><trkpt lat="42.300560715433015" lon="0.9361139225121836"><ele>679.0</ele><time>2026-04-27T15:09:57.001Z</time></trkpt><trkpt lat="42.30064992995156" lon="0.9361194950298666"><ele>679.0</ele><time>2026-04-27T15:09:58.001Z</time></trkpt><trkpt lat="42.30073864203504" lon="0.9361273789042183"><ele>679.0</ele><time>2026-04-27T15:09:59.001Z</time></trkpt><trkpt lat="42.300829471945114" lon="0.9361333880370064"><ele>680.0</ele><time>2026-04-27T15:10:00.001Z</time></trkpt><trkpt lat="42.30091994901511" lon="0.9361433548174635"><ele>681.0</ele><time>2026-04-27T15:10:01.001Z</time></trkpt><trkpt lat="42.30101071099649" lon="0.9361530364547017"><ele>682.0</ele><time>2026-04-27T15:10:02.001Z</time></trkpt><trkpt lat="42.30109968270718" lon="0.9361592693932675"><ele>683.0</ele><time>2026-04-27T15:10:03.001Z</time></trkpt><trkpt lat="42.301192434833695" lon="0.9361682374046719"><ele>684.0</ele><time>2026-04-27T15:10:04.001Z</time></trkpt><trkpt lat="42.301284145038736" lon="0.9361747616462477"><ele>684.0</ele><time>2026-04-27T15:10:05.001Z</time></trkpt><trkpt lat="42.301376081755116" lon="0.9361805696876419"><ele>684.0</ele><time>2026-04-27T15:10:06.001Z</time></trkpt><trkpt lat="42.301467256122464" lon="0.9361863146682542"><ele>684.0</ele><time>2026-04-27T15:10:07.001Z</time></trkpt><trkpt lat="42.30155943101332" lon="0.9362008802506926"><ele>684.0</ele><time>2026-04-27T15:10:08.001Z</time></trkpt><trkpt lat="42.3016518359288" lon="0.9362106446922435"><ele>684.0</ele><time>2026-04-27T15:10:09.001Z</time></trkpt><trkpt lat="42.30174398451724" lon="0.9362150897462094"><ele>683.6</ele><time>2026-04-27T15:10:10.001Z</time></trkpt><trkpt lat="42.3018352824942" lon="0.9362245333439002"><ele>683.2</ele><time>2026-04-27T15:10:11.001Z</time></trkpt><trkpt lat="42.30193035355217" lon="0.9362333236929339"><ele>682.8000000000001</ele><time>2026-04-27T15:10:12.001Z</time></trkpt><trkpt lat="42.30202629902355" lon="0.9362430437218565"><ele>682.4000000000001</ele><time>2026-04-27T15:10:13.001Z</time></trkpt><trkpt lat="42.30212205917037" lon="0.9362517594581476"><ele>682.0</ele><time>2026-04-27T15:10:14.001Z</time></trkpt><trkpt lat="42.302214797103886" lon="0.9362608522770373"><ele>682.6</ele><time>2026-04-27T15:10:15.001Z</time></trkpt><trkpt lat="42.30230876165698" lon="0.9362678807014155"><ele>683.2</ele><time>2026-04-27T15:10:16.001Z</time></trkpt><trkpt lat="42.30240197811491" lon="0.936270191170612"><ele>683.8</ele><time>2026-04-27T15:10:17.001Z</time></trkpt><trkpt lat="42.30249917544137" lon="0.9362789841879888"><ele>684.4</ele><time>2026-04-27T15:10:18.001Z</time></trkpt><trkpt lat="42.30259556551118" lon="0.936288327261332"><ele>685.0</ele><time>2026-04-27T15:10:19.001Z</time></trkpt><trkpt lat="42.30269171049886" lon="0.9362990003549946"><ele>685.0</ele><time>2026-04-27T15:10:20.001Z</time></trkpt><trkpt lat="42.302789318270946" lon="0.9363069773173547"><ele>685.0</ele><time>2026-04-27T15:10:21.001Z</time></trkpt><trkpt lat="42.30288615649591" lon="0.9363134104499812"><ele>685.0</ele><time>2026-04-27T15:10:22.001Z</time></trkpt><trkpt lat="42.302982696253785" lon="0.9363152891552923"><ele>685.0</ele><time>2026-04-27T15:10:23.001Z</time></trkpt><trkpt lat="42.303080216215356" lon="0.9363173278080706"><ele>685.0</ele><time>2026-04-27T15:10:24.001Z</time></trkpt><trkpt lat="42.30317820295602" lon="0.9363148619071002"><ele>686.6</ele><time>2026-04-27T15:10:25.001Z</time></trkpt><trkpt lat="42.30327355359874" lon="0.9363065906536172"><ele>688.2</ele><time>2026-04-27T15:10:26.001Z</time></trkpt><trkpt lat="42.303369183673894" lon="0.9363219208348932"><ele>689.8</ele><time>2026-04-27T15:10:27.001Z</time></trkpt><trkpt lat="42.303466041563645" lon="0.9363158074081583"><ele>691.4</ele><time>2026-04-27T15:10:28.001Z</time></trkpt><trkpt lat="42.303560463366196" lon="0.9362806534185769"><ele>693.0</ele><time>2026-04-27T15:10:29.001Z</time></trkpt><trkpt lat="42.303656938140165" lon="0.9362724511737988"><ele>693.0</ele><time>2026-04-27T15:10:30.002Z</time></trkpt><trkpt lat="42.30375268475808" lon="0.9362589339757319"><ele>693.0</ele><time>2026-04-27T15:10:31.002Z</time></trkpt><trkpt lat="42.30384794166641" lon="0.9362442998128488"><ele>693.0</ele><time>2026-04-27T15:10:32.002Z</time></trkpt><trkpt lat="42.30394373949819" lon="0.9362262480338656"><ele>693.0</ele><time>2026-04-27T15:10:33.002Z</time></trkpt><trkpt lat="42.3040378648283" lon="0.9362091159862209"><ele>693.0</ele><time>2026-04-27T15:10:34.002Z</time></trkpt><trkpt lat="42.304131595413594" lon="0.9361846765735652"><ele>693.0</ele><time>2026-04-27T15:10:35.002Z</time></trkpt><trkpt lat="42.30422673583373" lon="0.9361558638552461"><ele>693.0</ele><time>2026-04-27T15:10:36.002Z</time></trkpt><trkpt lat="42.30432245924283" lon="0.9361308408524572"><ele>693.0</ele><time>2026-04-27T15:10:37.002Z</time></trkpt><trkpt lat="42.30441945866822" lon="0.9361025522851893"><ele>693.0</ele><time>2026-04-27T15:10:38.002Z</time></trkpt><trkpt lat="42.3045132628562" lon="0.9360670006874926"><ele>693.0</ele><time>2026-04-27T15:10:39.002Z</time></trkpt><trkpt lat="42.3046112252078" lon="0.9360313403067378"><ele>693.0</ele><time>2026-04-27T15:10:40.002Z</time></trkpt><trkpt lat="42.30471039575839" lon="0.9360001877810579"><ele>693.0</ele><time>2026-04-27T15:10:41.002Z</time></trkpt><trkpt lat="42.30481110215105" lon="0.9359640484538901"><ele>693.0</ele><time>2026-04-27T15:10:42.002Z</time></trkpt><trkpt lat="42.30490653320208" lon="0.9359227242276169"><ele>693.0</ele><time>2026-04-27T15:10:43.002Z</time></trkpt><trkpt lat="42.305001837912265" lon="0.9358779266654325"><ele>693.0</ele><time>2026-04-27T15:10:44.002Z</time></trkpt><trkpt lat="42.305099136654796" lon="0.9358328554455803"><ele>694.2</ele><time>2026-04-27T15:10:45.002Z</time></trkpt><trkpt lat="42.30519591946054" lon="0.9357848932641087"><ele>695.4</ele><time>2026-04-27T15:10:46.002Z</time></trkpt><trkpt lat="42.30529562549694" lon="0.935738441203246"><ele>696.6</ele><time>2026-04-27T15:10:47.002Z</time></trkpt><trkpt lat="42.30539674661972" lon="0.9356893742359613"><ele>697.8000000000001</ele><time>2026-04-27T15:10:48.002Z</time></trkpt><trkpt lat="42.30549667380356" lon="0.9356390565456748"><ele>699.0</ele><time>2026-04-27T15:10:49.002Z</time></trkpt><trkpt lat="42.30559612379377" lon="0.9355867410142944"><ele>699.0</ele><time>2026-04-27T15:10:50.002Z</time></trkpt><trkpt lat="42.305696805054865" lon="0.935535202968998"><ele>699.0</ele><time>2026-04-27T15:10:51.002Z</time></trkpt><trkpt lat="42.30579518043409" lon="0.9354767369677727"><ele>699.0</ele><time>2026-04-27T15:10:52.002Z</time></trkpt><trkpt lat="42.305895307358476" lon="0.9354268967888402"><ele>699.0</ele><time>2026-04-27T15:10:53.002Z</time></trkpt><trkpt lat="42.305996705782206" lon="0.9353751716069785"><ele>699.0</ele><time>2026-04-27T15:10:54.002Z</time></trkpt><trkpt lat="42.3060949831789" lon="0.9353219819188028"><ele>699.0</ele><time>2026-04-27T15:10:55.002Z</time></trkpt><trkpt lat="42.30619388890063" lon="0.9352695066599951"><ele>699.0</ele><time>2026-04-27T15:10:56.002Z</time></trkpt><trkpt lat="42.30629353131504" lon="0.9352180491590988"><ele>699.0</ele><time>2026-04-27T15:10:57.002Z</time></trkpt><trkpt lat="42.30639387895967" lon="0.9351693757105306"><ele>699.0</ele><time>2026-04-27T15:10:58.002Z</time></trkpt><trkpt lat="42.306493343170985" lon="0.9351158019654031"><ele>699.0</ele><time>2026-04-27T15:10:59.002Z</time></trkpt><trkpt lat="42.306594124296396" lon="0.9350625837991661"><ele>700.8000000000001</ele><time>2026-04-27T15:11:00.002Z</time></trkpt><trkpt lat="42.30669397726599" lon="0.935012121921385"><ele>702.6</ele><time>2026-04-27T15:11:01.002Z</time></trkpt><trkpt lat="42.30679431079291" lon="0.9349610705931786"><ele>704.4</ele><time>2026-04-27T15:11:02.002Z</time></trkpt><trkpt lat="42.306896106212974" lon="0.9349120653043878"><ele>706.2</ele><time>2026-04-27T15:11:03.001Z</time></trkpt><trkpt lat="42.306995265346465" lon="0.9348575817207376"><ele>708.0</ele><time>2026-04-27T15:11:04.001Z</time></trkpt><trkpt lat="42.307095473936705" lon="0.9348050533743729"><ele>708.0</ele><time>2026-04-27T15:11:05.001Z</time></trkpt><trkpt lat="42.307195498051975" lon="0.9347535077465672"><ele>708.0</ele><time>2026-04-27T15:11:06.001Z</time></trkpt><trkpt lat="42.30729552651148" lon="0.9347043303204365"><ele>708.0</ele><time>2026-04-27T15:11:07.001Z</time></trkpt><trkpt lat="42.30739489082232" lon="0.9346580647717088"><ele>708.0</ele><time>2026-04-27T15:11:08.001Z</time></trkpt><trkpt lat="42.30749687598074" lon="0.9346176684062969"><ele>708.0</ele><time>2026-04-27T15:11:09.001Z</time></trkpt><trkpt lat="42.30759713290253" lon="0.9345740445385701"><ele>706.2</ele><time>2026-04-27T15:11:10.001Z</time></trkpt><trkpt lat="42.307701238871466" lon="0.9345362726365499"><ele>704.4</ele><time>2026-04-27T15:11:11.001Z</time></trkpt><trkpt lat="42.307805931144905" lon="0.9345042160008905"><ele>702.6</ele><time>2026-04-27T15:11:12.001Z</time></trkpt><trkpt lat="42.307917561081055" lon="0.9344679887792958"><ele>700.8000000000001</ele><time>2026-04-27T15:11:13.001Z</time></trkpt><trkpt lat="42.30802050788598" lon="0.9344508320952983"><ele>699.0</ele><time>2026-04-27T15:11:14.001Z</time></trkpt><trkpt lat="42.308127591975456" lon="0.9344298948012395"><ele>698.8000000000001</ele><time>2026-04-27T15:11:15.001Z</time></trkpt><trkpt lat="42.308236563398445" lon="0.9344121980552188"><ele>698.6</ele><time>2026-04-27T15:11:16.001Z</time></trkpt><trkpt lat="42.308343453275306" lon="0.9344018965867433"><ele>698.4</ele><time>2026-04-27T15:11:17.001Z</time></trkpt><trkpt lat="42.30845287275018" lon="0.9343936100042105"><ele>698.2</ele><time>2026-04-27T15:11:18.001Z</time></trkpt><trkpt lat="42.308560916324815" lon="0.934384947840792"><ele>698.0</ele><time>2026-04-27T15:11:19.001Z</time></trkpt><trkpt lat="42.30866879667883" lon="0.9343868636173289"><ele>698.0</ele><time>2026-04-27T15:11:20.001Z</time></trkpt><trkpt lat="42.30877646947554" lon="0.9343885389750258"><ele>698.0</ele><time>2026-04-27T15:11:21.001Z</time></trkpt><trkpt lat="42.308883671790035" lon="0.9343920012862723"><ele>698.0</ele><time>2026-04-27T15:11:22.001Z</time></trkpt><trkpt lat="42.308990995280126" lon="0.9343901473209071"><ele>698.0</ele><time>2026-04-27T15:11:23.001Z</time></trkpt><trkpt lat="42.30909973200357" lon="0.9343877619876433"><ele>698.0</ele><time>2026-04-27T15:11:24.001Z</time></trkpt><trkpt lat="42.309206360698994" lon="0.9343881729909445"><ele>697.4</ele><time>2026-04-27T15:11:25.001Z</time></trkpt><trkpt lat="42.309311304493335" lon="0.9343844771961319"><ele>696.8</ele><time>2026-04-27T15:11:26.001Z</time></trkpt><trkpt lat="42.30941820887519" lon="0.9343812765772661"><ele>696.2</ele><time>2026-04-27T15:11:27.001Z</time></trkpt><trkpt lat="42.309524569727444" lon="0.9343834218280399"><ele>695.6</ele><time>2026-04-27T15:11:28.001Z</time></trkpt><trkpt lat="42.30963009867383" lon="0.9343870741786597"><ele>695.0</ele><time>2026-04-27T15:11:29.001Z</time></trkpt><trkpt lat="42.309735183079376" lon="0.9343785383142856"><ele>696.8</ele><time>2026-04-27T15:11:30.001Z</time></trkpt><trkpt lat="42.30984119248718" lon="0.9343829047701849"><ele>698.6</ele><time>2026-04-27T15:11:31.001Z</time></trkpt><trkpt lat="42.30994559229417" lon="0.9343731075147188"><ele>700.4000000000001</ele><time>2026-04-27T15:11:32.001Z</time></trkpt><trkpt lat="42.310050392057846" lon="0.9343705027827115"><ele>702.2</ele><time>2026-04-27T15:11:33.001Z</time></trkpt><trkpt lat="42.31015466326049" lon="0.9343699872763525"><ele>704.0</ele><time>2026-04-27T15:11:34.001Z</time></trkpt><trkpt lat="42.310261599250666" lon="0.9343684320899864"><ele>704.0</ele><time>2026-04-27T15:11:35.001Z</time></trkpt><trkpt lat="42.31036565476022" lon="0.9343647388653926"><ele>704.0</ele><time>2026-04-27T15:11:36.001Z</time></trkpt><trkpt lat="42.31047201615507" lon="0.9343594005076947"><ele>704.0</ele><time>2026-04-27T15:11:37.001Z</time></trkpt><trkpt lat="42.31057927922911" lon="0.9343572976886773"><ele>704.0</ele><time>2026-04-27T15:11:38.001Z</time></trkpt><trkpt lat="42.31068445019984" lon="0.934352898228235"><ele>704.0</ele><time>2026-04-27T15:11:39.001Z</time></trkpt><trkpt lat="42.3107906255252" lon="0.934348784850772"><ele>704.6</ele><time>2026-04-27T15:11:40.001Z</time></trkpt><trkpt lat="42.31089682025827" lon="0.9343453382871411"><ele>705.2</ele><time>2026-04-27T15:11:41.001Z</time></trkpt><trkpt lat="42.311005065852974" lon="0.9343413060614828"><ele>705.8000000000001</ele><time>2026-04-27T15:11:42.001Z</time></trkpt><trkpt lat="42.311112288382716" lon="0.9343378200890794"><ele>706.4000000000001</ele><time>2026-04-27T15:11:43.001Z</time></trkpt><trkpt lat="42.31122048087211" lon="0.9343396221954696"><ele>707.0</ele><time>2026-04-27T15:11:44.001Z</time></trkpt><trkpt lat="42.31132679741604" lon="0.9343312884668891"><ele>706.6</ele><time>2026-04-27T15:11:45.001Z</time></trkpt><trkpt lat="42.311435054333145" lon="0.9343320660357548"><ele>706.2</ele><time>2026-04-27T15:11:46.001Z</time></trkpt><trkpt lat="42.31154377723193" lon="0.9343308840350849"><ele>705.8</ele><time>2026-04-27T15:11:47.001Z</time></trkpt><trkpt lat="42.31165280178173" lon="0.9343269340826931"><ele>705.4</ele><time>2026-04-27T15:11:48.001Z</time></trkpt><trkpt lat="42.31176304836558" lon="0.9343224211381688"><ele>705.0</ele><time>2026-04-27T15:11:49.001Z</time></trkpt><trkpt lat="42.31187176050158" lon="0.9343177599393405"><ele>705.0</ele><time>2026-04-27T15:11:50.001Z</time></trkpt><trkpt lat="42.311981554640695" lon="0.9343129682244418"><ele>705.0</ele><time>2026-04-27T15:11:51.001Z</time></trkpt><trkpt lat="42.31208877619786" lon="0.9343100142710045"><ele>705.0</ele><time>2026-04-27T15:11:52.001Z</time></trkpt><trkpt lat="42.31219651889696" lon="0.9343061264944847"><ele>705.0</ele><time>2026-04-27T15:11:53.001Z</time></trkpt><trkpt lat="42.31230578113033" lon="0.934305611186123"><ele>705.0</ele><time>2026-04-27T15:11:54.001Z</time></trkpt><trkpt lat="42.312413367964986" lon="0.9343061501045183"><ele>704.0</ele><time>2026-04-27T15:11:55.001Z</time></trkpt><trkpt lat="42.31252085986656" lon="0.9343015815741619"><ele>703.0</ele><time>2026-04-27T15:11:56.001Z</time></trkpt><trkpt lat="42.31262776029184" lon="0.9342988003370173"><ele>702.0</ele><time>2026-04-27T15:11:57.001Z</time></trkpt><trkpt lat="42.31273448484253" lon="0.9342958704497233"><ele>701.0</ele><time>2026-04-27T15:11:58.001Z</time></trkpt><trkpt lat="42.31283941526612" lon="0.9342944053437245"><ele>700.0</ele><time>2026-04-27T15:11:59.001Z</time></trkpt><trkpt lat="42.31294888146391" lon="0.9342949819145987"><ele>700.0</ele><time>2026-04-27T15:12:00.001Z</time></trkpt><trkpt lat="42.313056961593425" lon="0.9342999929527629"><ele>700.0</ele><time>2026-04-27T15:12:01.001Z</time></trkpt><trkpt lat="42.31316566239328" lon="0.9343085199411646"><ele>700.0</ele><time>2026-04-27T15:12:02.001Z</time></trkpt><trkpt lat="42.31327271526603" lon="0.9343200514289987"><ele>700.0</ele><time>2026-04-27T15:12:03.001Z</time></trkpt><trkpt lat="42.31338252301242" lon="0.934336478246407"><ele>700.0</ele><time>2026-04-27T15:12:04.001Z</time></trkpt><trkpt lat="42.313491684632375" lon="0.9343545929439909"><ele>700.6</ele><time>2026-04-27T15:12:05.001Z</time></trkpt><trkpt lat="42.313599908161656" lon="0.9343770177539925"><ele>701.2</ele><time>2026-04-27T15:12:06.001Z</time></trkpt><trkpt lat="42.313706151045466" lon="0.9344029685544535"><ele>701.8</ele><time>2026-04-27T15:12:07.001Z</time></trkpt><trkpt lat="42.31381073072402" lon="0.9344326492020165"><ele>702.4</ele><time>2026-04-27T15:12:08.001Z</time></trkpt><trkpt lat="42.31391476844508" lon="0.9344654005607284"><ele>703.0</ele><time>2026-04-27T15:12:09.001Z</time></trkpt><trkpt lat="42.31401829641586" lon="0.9345017233192111"><ele>703.4</ele><time>2026-04-27T15:12:10.001Z</time></trkpt><trkpt lat="42.31412265626878" lon="0.9345377750019195"><ele>703.8</ele><time>2026-04-27T15:12:11.001Z</time></trkpt><trkpt lat="42.31422500587163" lon="0.9345808394707458"><ele>704.2</ele><time>2026-04-27T15:12:12.001Z</time></trkpt><trkpt lat="42.314326760025835" lon="0.9346295288806009"><ele>704.6</ele><time>2026-04-27T15:12:13.001Z</time></trkpt><trkpt lat="42.31442818850024" lon="0.9346779433806294"><ele>705.0</ele><time>2026-04-27T15:12:14.001Z</time></trkpt><trkpt lat="42.31452835566641" lon="0.9347278606032585"><ele>705.0</ele><time>2026-04-27T15:12:15.001Z</time></trkpt><trkpt lat="42.314627718264475" lon="0.9347796607629957"><ele>705.0</ele><time>2026-04-27T15:12:16.001Z</time></trkpt><trkpt lat="42.314727856789744" lon="0.9348317670549372"><ele>705.0</ele><time>2026-04-27T15:12:17.001Z</time></trkpt><trkpt lat="42.31482770789829" lon="0.9348786342015065"><ele>705.0</ele><time>2026-04-27T15:12:18.001Z</time></trkpt><trkpt lat="42.31492886040043" lon="0.9349250606072342"><ele>705.0</ele><time>2026-04-27T15:12:19.001Z</time></trkpt><trkpt lat="42.31502834595551" lon="0.9349792735737168"><ele>706.4</ele><time>2026-04-27T15:12:20.001Z</time></trkpt><trkpt lat="42.31512885354672" lon="0.9350275584776584"><ele>707.8</ele><time>2026-04-27T15:12:21.001Z</time></trkpt><trkpt lat="42.31522860723695" lon="0.9350730438304153"><ele>709.2</ele><time>2026-04-27T15:12:22.001Z</time></trkpt><trkpt lat="42.31533055308049" lon="0.9351166336062846"><ele>710.6</ele><time>2026-04-27T15:12:23.001Z</time></trkpt><trkpt lat="42.31543324257273" lon="0.9351559724364054"><ele>712.0</ele><time>2026-04-27T15:12:24.001Z</time></trkpt><trkpt lat="42.315536187370206" lon="0.9351886524941789"><ele>711.8</ele><time>2026-04-27T15:12:25.001Z</time></trkpt><trkpt lat="42.31564107395123" lon="0.9352204010538562"><ele>711.6</ele><time>2026-04-27T15:12:26.001Z</time></trkpt><trkpt lat="42.31574515523754" lon="0.9352474022760779"><ele>711.4</ele><time>2026-04-27T15:12:27.001Z</time></trkpt><trkpt lat="42.31584600446056" lon="0.93527030033029"><ele>711.1999999999999</ele><time>2026-04-27T15:12:28.001Z</time></trkpt><trkpt lat="42.315947156254396" lon="0.9352896655945611"><ele>711.0</ele><time>2026-04-27T15:12:29.001Z</time></trkpt><trkpt lat="42.31604937013058" lon="0.935304453681026"><ele>711.0</ele><time>2026-04-27T15:12:30.001Z</time></trkpt><trkpt lat="42.31615018724155" lon="0.9353119213800476"><ele>711.0</ele><time>2026-04-27T15:12:31.001Z</time></trkpt><trkpt lat="42.316252918732054" lon="0.9353182955281769"><ele>711.0</ele><time>2026-04-27T15:12:32.001Z</time></trkpt><trkpt lat="42.31635869557857" lon="0.935321276420428"><ele>711.0</ele><time>2026-04-27T15:12:33.001Z</time></trkpt><trkpt lat="42.316460296103266" lon="0.9353280056426961"><ele>711.0</ele><time>2026-04-27T15:12:34.001Z</time></trkpt><trkpt lat="42.31656063809466" lon="0.9353251887505887"><ele>710.5999999999999</ele><time>2026-04-27T15:12:35.001Z</time></trkpt><trkpt lat="42.31666233669919" lon="0.935328930431446"><ele>710.2</ele><time>2026-04-27T15:12:36.001Z</time></trkpt><trkpt lat="42.316765341618606" lon="0.9353328871563159"><ele>709.8</ele><time>2026-04-27T15:12:37.002Z</time></trkpt><trkpt lat="42.316868276154516" lon="0.9353282648735655"><ele>709.4000000000001</ele><time>2026-04-27T15:12:38.002Z</time></trkpt><trkpt lat="42.31697185551492" lon="0.9353282566448875"><ele>709.0</ele><time>2026-04-27T15:12:39.002Z</time></trkpt><trkpt lat="42.31707516965927" lon="0.9353251582319746"><ele>709.0</ele><time>2026-04-27T15:12:40.002Z</time></trkpt><trkpt lat="42.317179147312274" lon="0.9353190979296897"><ele>709.0</ele><time>2026-04-27T15:12:41.002Z</time></trkpt><trkpt lat="42.31728286680401" lon="0.93531375351217"><ele>709.0</ele><time>2026-04-27T15:12:42.002Z</time></trkpt><trkpt lat="42.31738597894486" lon="0.9353169980937852"><ele>709.0</ele><time>2026-04-27T15:12:43.002Z</time></trkpt><trkpt lat="42.31748857722761" lon="0.9353132464562188"><ele>709.0</ele><time>2026-04-27T15:12:44.002Z</time></trkpt><trkpt lat="42.31759304914749" lon="0.9353183270932003"><ele>710.2</ele><time>2026-04-27T15:12:45.002Z</time></trkpt><trkpt lat="42.31769309249276" lon="0.935328684073609"><ele>711.4000000000001</ele><time>2026-04-27T15:12:46.002Z</time></trkpt><trkpt lat="42.31779839358851" lon="0.935339840937328"><ele>712.6</ele><time>2026-04-27T15:12:47.002Z</time></trkpt><trkpt lat="42.317898346507256" lon="0.9353535701382157"><ele>713.8</ele><time>2026-04-27T15:12:48.002Z</time></trkpt><trkpt lat="42.31800092934596" lon="0.9353663745122209"><ele>715.0</ele><time>2026-04-27T15:12:49.002Z</time></trkpt><trkpt lat="42.318102623201" lon="0.9353782702934477"><ele>716.6</ele><time>2026-04-27T15:12:50.002Z</time></trkpt><trkpt lat="42.31820484954132" lon="0.9353938479838885"><ele>718.2</ele><time>2026-04-27T15:12:51.002Z</time></trkpt><trkpt lat="42.31830592848207" lon="0.9354122393961339"><ele>719.8</ele><time>2026-04-27T15:12:52.002Z</time></trkpt><trkpt lat="42.3184073143582" lon="0.935432977732066"><ele>721.4</ele><time>2026-04-27T15:12:53.002Z</time></trkpt><trkpt lat="42.31850766238491" lon="0.9354552190564258"><ele>723.0</ele><time>2026-04-27T15:12:54.002Z</time></trkpt><trkpt lat="42.31860773202036" lon="0.9354765848592044"><ele>723.0</ele><time>2026-04-27T15:12:55.002Z</time></trkpt><trkpt lat="42.318706379176376" lon="0.9354989670079862"><ele>723.0</ele><time>2026-04-27T15:12:56.002Z</time></trkpt><trkpt lat="42.31880778519031" lon="0.9355210960179803"><ele>723.0</ele><time>2026-04-27T15:12:57.002Z</time></trkpt><trkpt lat="42.31890903136911" lon="0.9355473821906064"><ele>723.0</ele><time>2026-04-27T15:12:58.002Z</time></trkpt><trkpt lat="42.31900919399334" lon="0.9355733727353932"><ele>723.0</ele><time>2026-04-27T15:12:59.002Z</time></trkpt><trkpt lat="42.31911287867968" lon="0.9355986452673286"><ele>723.5999999999999</ele><time>2026-04-27T15:13:00.002Z</time></trkpt><trkpt lat="42.319212745653694" lon="0.9356235318402394"><ele>724.1999999999999</ele><time>2026-04-27T15:13:01.002Z</time></trkpt><trkpt lat="42.31931474141651" lon="0.9356475865478759"><ele>724.8</ele><time>2026-04-27T15:13:02.002Z</time></trkpt><trkpt lat="42.31941652676986" lon="0.935671051550522"><ele>725.4</ele><time>2026-04-27T15:13:03.002Z</time></trkpt><trkpt lat="42.3195213013904" lon="0.9357002203961345"><ele>726.0</ele><time>2026-04-27T15:13:04.002Z</time></trkpt><trkpt lat="42.319624390153464" lon="0.9357269571078809"><ele>726.0</ele><time>2026-04-27T15:13:05.002Z</time></trkpt><trkpt lat="42.31972653517882" lon="0.9357518297001125"><ele>726.0</ele><time>2026-04-27T15:13:06.002Z</time></trkpt><trkpt lat="42.319831833008614" lon="0.9357769338899447"><ele>726.0</ele><time>2026-04-27T15:13:07.002Z</time></trkpt><trkpt lat="42.31993461143184" lon="0.9358040407893579"><ele>726.0</ele><time>2026-04-27T15:13:08.002Z</time></trkpt><trkpt lat="42.3200416359118" lon="0.9358287332667691"><ele>726.0</ele><time>2026-04-27T15:13:09.001Z</time></trkpt><trkpt lat="42.320147371923476" lon="0.9358552388235098"><ele>726.1999999999999</ele><time>2026-04-27T15:13:10.001Z</time></trkpt><trkpt lat="42.32025205722096" lon="0.9358824774016726"><ele>726.4</ele><time>2026-04-27T15:13:11.001Z</time></trkpt><trkpt lat="42.3203581355822" lon="0.9359079435293404"><ele>726.6</ele><time>2026-04-27T15:13:12.001Z</time></trkpt><trkpt lat="42.32046587436883" lon="0.9359360668756684"><ele>726.8</ele><time>2026-04-27T15:13:13.001Z</time></trkpt><trkpt lat="42.32057237145336" lon="0.9359606269294066"><ele>727.0</ele><time>2026-04-27T15:13:14.001Z</time></trkpt><trkpt lat="42.32068032988705" lon="0.9359913030447076"><ele>726.6</ele><time>2026-04-27T15:13:15.001Z</time></trkpt><trkpt lat="42.32078543083694" lon="0.9360270142671271"><ele>726.2</ele><time>2026-04-27T15:13:16.001Z</time></trkpt><trkpt lat="42.320890940391294" lon="0.936069405825294"><ele>725.8</ele><time>2026-04-27T15:13:17.001Z</time></trkpt><trkpt lat="42.32098692020046" lon="0.9361385955224931"><ele>725.4</ele><time>2026-04-27T15:13:18.001Z</time></trkpt><trkpt lat="42.32108925462167" lon="0.9361757195025585"><ele>725.0</ele><time>2026-04-27T15:13:19.001Z</time></trkpt><trkpt lat="42.321186867800364" lon="0.9362337868040016"><ele>725.0</ele><time>2026-04-27T15:13:20.001Z</time></trkpt><trkpt lat="42.321282743622476" lon="0.9362951514564813"><ele>725.0</ele><time>2026-04-27T15:13:21.001Z</time></trkpt><trkpt lat="42.3213743340575" lon="0.9363574560191047"><ele>725.0</ele><time>2026-04-27T15:13:22.001Z</time></trkpt><trkpt lat="42.321468345838774" lon="0.9364156794778868"><ele>725.0</ele><time>2026-04-27T15:13:23.001Z</time></trkpt><trkpt lat="42.32156516613987" lon="0.9364735257477671"><ele>725.0</ele><time>2026-04-27T15:13:24.001Z</time></trkpt><trkpt lat="42.32166286699863" lon="0.9365222575491211"><ele>726.2</ele><time>2026-04-27T15:13:25.001Z</time></trkpt><trkpt lat="42.32175953346028" lon="0.9365673123311831"><ele>727.4</ele><time>2026-04-27T15:13:26.001Z</time></trkpt><trkpt lat="42.32185773683567" lon="0.9366034837181895"><ele>728.5999999999999</ele><time>2026-04-27T15:13:27.001Z</time></trkpt><trkpt lat="42.32195953766868" lon="0.9366296227384274"><ele>729.8</ele><time>2026-04-27T15:13:28.001Z</time></trkpt><trkpt lat="42.322063338186446" lon="0.9366546580644967"><ele>731.0</ele><time>2026-04-27T15:13:29.001Z</time></trkpt><trkpt lat="42.32216692698212" lon="0.9366725721330762"><ele>732.0</ele><time>2026-04-27T15:13:30.001Z</time></trkpt><trkpt lat="42.32226941124562" lon="0.9366869851301738"><ele>733.0</ele><time>2026-04-27T15:13:31.001Z</time></trkpt><trkpt lat="42.32237356222125" lon="0.9367037380038676"><ele>734.0</ele><time>2026-04-27T15:13:32.001Z</time></trkpt><trkpt lat="42.32247903766469" lon="0.9367132226315646"><ele>735.0</ele><time>2026-04-27T15:13:33.001Z</time></trkpt><trkpt lat="42.3225828753045" lon="0.9367218897036731"><ele>736.0</ele><time>2026-04-27T15:13:34.001Z</time></trkpt><trkpt lat="42.32269071974532" lon="0.9367253593802999"><ele>734.8</ele><time>2026-04-27T15:13:35.001Z</time></trkpt><trkpt lat="42.322797884609244" lon="0.936728047227209"><ele>733.5999999999999</ele><time>2026-04-27T15:13:36.001Z</time></trkpt><trkpt lat="42.322905179461756" lon="0.9367315946307883"><ele>732.4</ele><time>2026-04-27T15:13:37.001Z</time></trkpt><trkpt lat="42.323006688167354" lon="0.9367415905587004"><ele>731.2</ele><time>2026-04-27T15:13:38.001Z</time></trkpt><trkpt lat="42.32310633540394" lon="0.9367542731515328"><ele>730.0</ele><time>2026-04-27T15:13:39.001Z</time></trkpt><trkpt lat="42.323206944639104" lon="0.936767422890825"><ele>730.0</ele><time>2026-04-27T15:13:40.001Z</time></trkpt><trkpt lat="42.323300759123875" lon="0.936779224596922"><ele>730.0</ele><time>2026-04-27T15:13:41.001Z</time></trkpt><trkpt lat="42.32339350847706" lon="0.9367826847675611"><ele>730.0</ele><time>2026-04-27T15:13:42.001Z</time></trkpt><trkpt lat="42.3234847627436" lon="0.9367899982554986"><ele>730.0</ele><time>2026-04-27T15:13:43.001Z</time></trkpt><trkpt lat="42.323568625545725" lon="0.9367811459284855"><ele>730.0</ele><time>2026-04-27T15:13:44.001Z</time></trkpt><trkpt lat="42.32365857188849" lon="0.936761949279839"><ele>730.0</ele><time>2026-04-27T15:13:45.001Z</time></trkpt><trkpt lat="42.32374107210639" lon="0.9367368668865854"><ele>730.0</ele><time>2026-04-27T15:13:46.001Z</time></trkpt><trkpt lat="42.32382376850267" lon="0.9367160122516575"><ele>730.0</ele><time>2026-04-27T15:13:47.001Z</time></trkpt><trkpt lat="42.323905981425796" lon="0.9366968049694898"><ele>730.0</ele><time>2026-04-27T15:13:48.001Z</time></trkpt><trkpt lat="42.3239864022946" lon="0.9366796193974027"><ele>730.0</ele><time>2026-04-27T15:13:49.001Z</time></trkpt><trkpt lat="42.32406280410693" lon="0.9366712448562786"><ele>730.0</ele><time>2026-04-27T15:13:50.001Z</time></trkpt><trkpt lat="42.32413668180738" lon="0.9366657909133426"><ele>731.4</ele><time>2026-04-27T15:13:51.001Z</time></trkpt><trkpt lat="42.32420662162217" lon="0.9366542258772623"><ele>732.8</ele><time>2026-04-27T15:13:52.001Z</time></trkpt><trkpt lat="42.324324173455935" lon="0.9366470793980523"><ele>734.2</ele><time>2026-04-27T15:13:54.001Z</time></trkpt><trkpt lat="42.324405511146566" lon="0.9365984823139785"><ele>735.6</ele><time>2026-04-27T15:13:56.001Z</time></trkpt><trkpt lat="42.32448810580001" lon="0.936521843119013"><ele>737.0</ele><time>2026-04-27T15:13:59.001Z</time></trkpt><trkpt lat="42.3246014185478" lon="0.9364711416330287"><ele>737.0</ele><time>2026-04-27T15:14:01.001Z</time></trkpt><trkpt lat="42.324667599342945" lon="0.93644455027578"><ele>737.0</ele><time>2026-04-27T15:14:02.001Z</time></trkpt><trkpt lat="42.32474139434904" lon="0.936429914670126"><ele>737.0</ele><time>2026-04-27T15:14:03.001Z</time></trkpt><trkpt lat="42.32481105200596" lon="0.9364115987163424"><ele>737.0</ele><time>2026-04-27T15:14:04.001Z</time></trkpt><trkpt lat="42.32488120754655" lon="0.9363984413301308"><ele>737.0</ele><time>2026-04-27T15:14:05.001Z</time></trkpt><trkpt lat="42.32495265018507" lon="0.9364045898581852"><ele>737.0</ele><time>2026-04-27T15:14:06.001Z</time></trkpt><trkpt lat="42.32505586937304" lon="0.9364887767931263"><ele>736.5</ele><time>2026-04-27T15:14:08.001Z</time></trkpt><trkpt lat="42.32511516077357" lon="0.9365563514026852"><ele>736.0</ele><time>2026-04-27T15:14:10.001Z</time></trkpt><trkpt lat="42.32519342884893" lon="0.9366319655875591"><ele>735.5</ele><time>2026-04-27T15:14:12.001Z</time></trkpt><trkpt lat="42.32529348630199" lon="0.9367344507287103"><ele>735.0</ele><time>2026-04-27T15:14:14.001Z</time></trkpt><trkpt lat="42.325344796186684" lon="0.9367928872497979"><ele>734.5</ele><time>2026-04-27T15:14:15.001Z</time></trkpt><trkpt lat="42.32540016335302" lon="0.9368503663913336"><ele>734.0</ele><time>2026-04-27T15:14:16.001Z</time></trkpt><trkpt lat="42.32546050989447" lon="0.9369094828136623"><ele>735.1666666666666</ele><time>2026-04-27T15:14:17.001Z</time></trkpt><trkpt lat="42.32552553023902" lon="0.9369677273640722"><ele>736.3333333333333</ele><time>2026-04-27T15:14:18.001Z</time></trkpt><trkpt lat="42.32559508426052" lon="0.9370187234584122"><ele>737.5</ele><time>2026-04-27T15:14:19.001Z</time></trkpt><trkpt lat="42.325663045868005" lon="0.9370900144716591"><ele>738.6666666666666</ele><time>2026-04-27T15:14:20.001Z</time></trkpt><trkpt lat="42.32575454737155" lon="0.9371186352694398"><ele>739.8333333333334</ele><time>2026-04-27T15:14:21.001Z</time></trkpt><trkpt lat="42.32584647668619" lon="0.9371101511258536"><ele>741.0</ele><time>2026-04-27T15:14:22.001Z</time></trkpt><trkpt lat="42.325934301925955" lon="0.9370696816201528"><ele>742.4</ele><time>2026-04-27T15:14:23.001Z</time></trkpt><trkpt lat="42.326022026645425" lon="0.9370322364168547"><ele>743.8</ele><time>2026-04-27T15:14:24.001Z</time></trkpt><trkpt lat="42.326107231072804" lon="0.9369803588103477"><ele>745.1999999999999</ele><time>2026-04-27T15:14:25.001Z</time></trkpt><trkpt lat="42.32619223663667" lon="0.9369207776717944"><ele>746.5999999999999</ele><time>2026-04-27T15:14:26.001Z</time></trkpt><trkpt lat="42.32627383432297" lon="0.936852768578549"><ele>748.0</ele><time>2026-04-27T15:14:27.001Z</time></trkpt><trkpt lat="42.326354422714246" lon="0.9367792037950402"><ele>746.8</ele><time>2026-04-27T15:14:28.001Z</time></trkpt><trkpt lat="42.32643232036246" lon="0.936697208296422"><ele>745.5999999999999</ele><time>2026-04-27T15:14:29.001Z</time></trkpt><trkpt lat="42.3265070042235" lon="0.9366068283464108"><ele>744.4000000000001</ele><time>2026-04-27T15:14:30.001Z</time></trkpt><trkpt lat="42.32657452435407" lon="0.9365092895444478"><ele>743.2</ele><time>2026-04-27T15:14:31.001Z</time></trkpt><trkpt lat="42.326639221341935" lon="0.9364044289603747"><ele>742.0</ele><time>2026-04-27T15:14:32.001Z</time></trkpt><trkpt lat="42.32669781946266" lon="0.9362918913701511"><ele>742.0</ele><time>2026-04-27T15:14:33.001Z</time></trkpt><trkpt lat="42.3267527706623" lon="0.9361781763598078"><ele>742.0</ele><time>2026-04-27T15:14:34.001Z</time></trkpt><trkpt lat="42.32680450102819" lon="0.9360617612091592"><ele>742.0</ele><time>2026-04-27T15:14:35.001Z</time></trkpt><trkpt lat="42.326854817016645" lon="0.9359473144356604"><ele>742.0</ele><time>2026-04-27T15:14:36.001Z</time></trkpt><trkpt lat="42.32690615566731" lon="0.9358302457087827"><ele>742.0</ele><time>2026-04-27T15:14:37.001Z</time></trkpt><trkpt lat="42.32695899557803" lon="0.9357158668010029"><ele>741.0</ele><time>2026-04-27T15:14:38.001Z</time></trkpt><trkpt lat="42.32700964645753" lon="0.9355996605861502"><ele>740.0</ele><time>2026-04-27T15:14:39.001Z</time></trkpt><trkpt lat="42.32706222294632" lon="0.9354881682447663"><ele>739.0</ele><time>2026-04-27T15:14:40.001Z</time></trkpt><trkpt lat="42.32711482948476" lon="0.9353756263208738"><ele>738.0</ele><time>2026-04-27T15:14:41.001Z</time></trkpt><trkpt lat="42.327165512943026" lon="0.9352631405419574"><ele>737.0</ele><time>2026-04-27T15:14:42.001Z</time></trkpt><trkpt lat="42.32721339871547" lon="0.9351482899794482"><ele>738.4000000000001</ele><time>2026-04-27T15:14:43.001Z</time></trkpt><trkpt lat="42.32725984875375" lon="0.9350351915147401"><ele>739.8000000000001</ele><time>2026-04-27T15:14:44.001Z</time></trkpt><trkpt lat="42.32731133615644" lon="0.9349261549744469"><ele>741.2</ele><time>2026-04-27T15:14:45.001Z</time></trkpt><trkpt lat="42.327370546367554" lon="0.9348124296312631"><ele>742.6</ele><time>2026-04-27T15:14:46.001Z</time></trkpt><trkpt lat="42.32742911343414" lon="0.9347020249545487"><ele>744.0</ele><time>2026-04-27T15:14:47.001Z</time></trkpt><trkpt lat="42.32749012683369" lon="0.9345947387870613"><ele>744.0</ele><time>2026-04-27T15:14:48.001Z</time></trkpt><trkpt lat="42.327551190065904" lon="0.9344910834474467"><ele>744.0</ele><time>2026-04-27T15:14:49.001Z</time></trkpt><trkpt lat="42.3276160296699" lon="0.9343890769826769"><ele>744.0</ele><time>2026-04-27T15:14:50.001Z</time></trkpt><trkpt lat="42.32768038629909" lon="0.9342931086616276"><ele>744.0</ele><time>2026-04-27T15:14:51.001Z</time></trkpt><trkpt lat="42.327745819822255" lon="0.9341971456368154"><ele>744.0</ele><time>2026-04-27T15:14:52.001Z</time></trkpt><trkpt lat="42.32781056037147" lon="0.9341037702178423"><ele>743.4000000000001</ele><time>2026-04-27T15:14:53.001Z</time></trkpt><trkpt lat="42.32788081525039" lon="0.9340127208757296"><ele>742.8</ele><time>2026-04-27T15:14:54.001Z</time></trkpt><trkpt lat="42.327953364976324" lon="0.9339267206970981"><ele>742.2</ele><time>2026-04-27T15:14:55.001Z</time></trkpt><trkpt lat="42.32802853324801" lon="0.9338457565605761"><ele>741.5999999999999</ele><time>2026-04-27T15:14:56.001Z</time></trkpt><trkpt lat="42.328106359562895" lon="0.9337702870199157"><ele>741.0</ele><time>2026-04-27T15:14:57.001Z</time></trkpt><trkpt lat="42.32818584293652" lon="0.9336970181899094"><ele>742.5999999999999</ele><time>2026-04-27T15:14:58.001Z</time></trkpt><trkpt lat="42.32826777088292" lon="0.9336270914491496"><ele>744.2</ele><time>2026-04-27T15:14:59.001Z</time></trkpt><trkpt lat="42.32835105120176" lon="0.933562426467261"><ele>745.8</ele><time>2026-04-27T15:15:00.002Z</time></trkpt><trkpt lat="42.32843604689684" lon="0.9335029719553434"><ele>747.4000000000001</ele><time>2026-04-27T15:15:01.002Z</time></trkpt><trkpt lat="42.32852266504923" lon="0.9334458697607328"><ele>749.0</ele><time>2026-04-27T15:15:02.002Z</time></trkpt><trkpt lat="42.328609443090755" lon="0.9333926454988261"><ele>749.8000000000001</ele><time>2026-04-27T15:15:03.002Z</time></trkpt><trkpt lat="42.32869816526" lon="0.9333426683903407"><ele>750.6</ele><time>2026-04-27T15:15:04.002Z</time></trkpt><trkpt lat="42.3287889645805" lon="0.9332989298895175"><ele>751.4</ele><time>2026-04-27T15:15:05.002Z</time></trkpt><trkpt lat="42.328881584549734" lon="0.9332589485451744"><ele>752.2</ele><time>2026-04-27T15:15:06.002Z</time></trkpt><trkpt lat="42.3289737683651" lon="0.9332245286058983"><ele>753.0</ele><time>2026-04-27T15:15:07.002Z</time></trkpt><trkpt lat="42.32906651259674" lon="0.9331962610761529"><ele>753.0</ele><time>2026-04-27T15:15:08.002Z</time></trkpt><trkpt lat="42.32915917269938" lon="0.9331696605064426"><ele>753.0</ele><time>2026-04-27T15:15:09.002Z</time></trkpt><trkpt lat="42.32925223603922" lon="0.9331451788777356"><ele>753.0</ele><time>2026-04-27T15:15:10.002Z</time></trkpt><trkpt lat="42.329346187225276" lon="0.9331246693275355"><ele>753.0</ele><time>2026-04-27T15:15:11.002Z</time></trkpt><trkpt lat="42.32943996262498" lon="0.9331069404112754"><ele>753.0</ele><time>2026-04-27T15:15:12.002Z</time></trkpt><trkpt lat="42.32953426319554" lon="0.9330897256915237"><ele>753.0</ele><time>2026-04-27T15:15:13.002Z</time></trkpt><trkpt lat="42.32962843751941" lon="0.9330727730223717"><ele>753.0</ele><time>2026-04-27T15:15:14.001Z</time></trkpt><trkpt lat="42.32972174496781" lon="0.9330573411093467"><ele>753.0</ele><time>2026-04-27T15:15:15.001Z</time></trkpt><trkpt lat="42.329815153054106" lon="0.933041230551321"><ele>753.0</ele><time>2026-04-27T15:15:16.001Z</time></trkpt><trkpt lat="42.32990976929793" lon="0.933026992677407"><ele>753.0</ele><time>2026-04-27T15:15:17.001Z</time></trkpt><trkpt lat="42.33000344971652" lon="0.9330111610190852"><ele>754.2</ele><time>2026-04-27T15:15:18.001Z</time></trkpt><trkpt lat="42.330095777859604" lon="0.9329946926802112"><ele>755.4</ele><time>2026-04-27T15:15:19.001Z</time></trkpt><trkpt lat="42.33018833275926" lon="0.9329785032866612"><ele>756.6</ele><time>2026-04-27T15:15:20.001Z</time></trkpt><trkpt lat="42.33028412984977" lon="0.9329637271590043"><ele>757.8000000000001</ele><time>2026-04-27T15:15:21.001Z</time></trkpt><trkpt lat="42.330379590750454" lon="0.9329467603828594"><ele>759.0</ele><time>2026-04-27T15:15:22.001Z</time></trkpt><trkpt lat="42.33047523038235" lon="0.9329300431967257"><ele>760.0</ele><time>2026-04-27T15:15:23.001Z</time></trkpt><trkpt lat="42.330570398281836" lon="0.9329128552450023"><ele>761.0</ele><time>2026-04-27T15:15:24.001Z</time></trkpt><trkpt lat="42.3306661292648" lon="0.9328983997375745"><ele>762.0</ele><time>2026-04-27T15:15:25.001Z</time></trkpt><trkpt lat="42.33076267249522" lon="0.9328851180154424"><ele>763.0</ele><time>2026-04-27T15:15:26.001Z</time></trkpt><trkpt lat="42.33085783725308" lon="0.9328645914300338"><ele>764.0</ele><time>2026-04-27T15:15:27Z</time></trkpt><trkpt lat="42.33095101251761" lon="0.9328405410261067"><ele>764.0</ele><time>2026-04-27T15:15:28Z</time></trkpt><trkpt lat="42.331044335941115" lon="0.9328147712310336"><ele>764.0</ele><time>2026-04-27T15:15:29Z</time></trkpt><trkpt lat="42.33113810115977" lon="0.9327878564488782"><ele>764.0</ele><time>2026-04-27T15:15:30Z</time></trkpt><trkpt lat="42.3312308365225" lon="0.9327550527045065"><ele>764.0</ele><time>2026-04-27T15:15:31Z</time></trkpt><trkpt lat="42.33132341608179" lon="0.9327206837141125"><ele>764.0</ele><time>2026-04-27T15:15:32Z</time></trkpt><trkpt lat="42.33141476294957" lon="0.9326797780244954"><ele>761.6</ele><time>2026-04-27T15:15:33Z</time></trkpt><trkpt lat="42.33150441542455" lon="0.9326354887675371"><ele>759.2</ele><time>2026-04-27T15:15:34Z</time></trkpt><trkpt lat="42.33159163631513" lon="0.932586976839666"><ele>756.8000000000001</ele><time>2026-04-27T15:15:35Z</time></trkpt><trkpt lat="42.33167688399532" lon="0.9325343760948474"><ele>754.4000000000001</ele><time>2026-04-27T15:15:36Z</time></trkpt><trkpt lat="42.331765010836556" lon="0.9324796774169394"><ele>752.0</ele><time>2026-04-27T15:15:37.001Z</time></trkpt><trkpt lat="42.3318501836428" lon="0.9324190028255652"><ele>752.0</ele><time>2026-04-27T15:15:38.001Z</time></trkpt><trkpt lat="42.33193323544204" lon="0.9323530881677033"><ele>752.0</ele><time>2026-04-27T15:15:39.001Z</time></trkpt><trkpt lat="42.332013490488706" lon="0.9322821930103157"><ele>752.0</ele><time>2026-04-27T15:15:40.001Z</time></trkpt><trkpt lat="42.33209311774506" lon="0.9322088137030898"><ele>752.0</ele><time>2026-04-27T15:15:41.001Z</time></trkpt><trkpt lat="42.33216993806082" lon="0.9321308679420846"><ele>752.0</ele><time>2026-04-27T15:15:42.001Z</time></trkpt><trkpt lat="42.33224556910706" lon="0.932050193005463"><ele>753.6</ele><time>2026-04-27T15:15:43.001Z</time></trkpt><trkpt lat="42.33231882573347" lon="0.9319654076929822"><ele>755.2</ele><time>2026-04-27T15:15:44.001Z</time></trkpt><trkpt lat="42.332389411465" lon="0.9318776675345749"><ele>756.8</ele><time>2026-04-27T15:15:45.001Z</time></trkpt><trkpt lat="42.3324587376102" lon="0.9317872653105245"><ele>758.4</ele><time>2026-04-27T15:15:46.001Z</time></trkpt><trkpt lat="42.33252492161701" lon="0.931693011157446"><ele>760.0</ele><time>2026-04-27T15:15:47.001Z</time></trkpt><trkpt lat="42.33258786392879" lon="0.9315948147120305"><ele>760.0</ele><time>2026-04-27T15:15:48.001Z</time></trkpt><trkpt lat="42.33264886146794" lon="0.9314931714518442"><ele>760.0</ele><time>2026-04-27T15:15:49.001Z</time></trkpt><trkpt lat="42.332707682355135" lon="0.9313914690753518"><ele>760.0</ele><time>2026-04-27T15:15:50.001Z</time></trkpt><trkpt lat="42.33276549304615" lon="0.9312883382800033"><ele>760.0</ele><time>2026-04-27T15:15:51.001Z</time></trkpt><trkpt lat="42.332819142521785" lon="0.931181579897"><ele>760.0</ele><time>2026-04-27T15:15:52.001Z</time></trkpt><trkpt lat="42.332868089637536" lon="0.9310692064132181"><ele>760.0</ele><time>2026-04-27T15:15:53.001Z</time></trkpt><trkpt lat="42.33291322878524" lon="0.9309565171945771"><ele>760.0</ele><time>2026-04-27T15:15:54.001Z</time></trkpt><trkpt lat="42.332956227710504" lon="0.9308436905538634"><ele>760.0</ele><time>2026-04-27T15:15:55.001Z</time></trkpt><trkpt lat="42.33300142423462" lon="0.9307327345450463"><ele>760.0</ele><time>2026-04-27T15:15:56.001Z</time></trkpt><trkpt lat="42.33304797885003" lon="0.9306187723800444"><ele>760.0</ele><time>2026-04-27T15:15:57.001Z</time></trkpt><trkpt lat="42.333093157359095" lon="0.9305044322522775"><ele>761.0</ele><time>2026-04-27T15:15:58.001Z</time></trkpt><trkpt lat="42.33313458865196" lon="0.9303858915876636"><ele>762.0</ele><time>2026-04-27T15:15:59.001Z</time></trkpt><trkpt lat="42.33317693467367" lon="0.9302716085874408"><ele>763.0</ele><time>2026-04-27T15:16:00.001Z</time></trkpt><trkpt lat="42.333219685436774" lon="0.9301567253365998"><ele>764.0</ele><time>2026-04-27T15:16:01.001Z</time></trkpt><trkpt lat="42.33326445002898" lon="0.9300430168728178"><ele>765.0</ele><time>2026-04-27T15:16:02.001Z</time></trkpt><trkpt lat="42.33331243147509" lon="0.9299292240486976"><ele>765.0</ele><time>2026-04-27T15:16:03.001Z</time></trkpt><trkpt lat="42.33336285883457" lon="0.9298193183113761"><ele>765.0</ele><time>2026-04-27T15:16:04.001Z</time></trkpt><trkpt lat="42.33341736715314" lon="0.929712193785705"><ele>765.0</ele><time>2026-04-27T15:16:05.001Z</time></trkpt><trkpt lat="42.33347589422305" lon="0.9296072688405066"><ele>765.0</ele><time>2026-04-27T15:16:06.001Z</time></trkpt><trkpt lat="42.33353618060064" lon="0.9295078454045602"><ele>765.0</ele><time>2026-04-27T15:16:07.001Z</time></trkpt><trkpt lat="42.3336002824672" lon="0.92941260740263"><ele>765.0</ele><time>2026-04-27T15:16:08.001Z</time></trkpt><trkpt lat="42.333668673404574" lon="0.9293212731114063"><ele>765.0</ele><time>2026-04-27T15:16:09.001Z</time></trkpt><trkpt lat="42.33373883915824" lon="0.9292303055838805"><ele>765.0</ele><time>2026-04-27T15:16:10.001Z</time></trkpt><trkpt lat="42.33380874373904" lon="0.9291386711889864"><ele>765.0</ele><time>2026-04-27T15:16:11.001Z</time></trkpt><trkpt lat="42.333878856511106" lon="0.9290492961750133"><ele>765.0</ele><time>2026-04-27T15:16:12.001Z</time></trkpt><trkpt lat="42.33395005561757" lon="0.9289581666715973"><ele>768.4</ele><time>2026-04-27T15:16:13.001Z</time></trkpt><trkpt lat="42.33402233757494" lon="0.9288679237211621"><ele>771.8</ele><time>2026-04-27T15:16:14.001Z</time></trkpt><trkpt lat="42.33409598995635" lon="0.9287777574585173"><ele>775.2</ele><time>2026-04-27T15:16:15.001Z</time></trkpt><trkpt lat="42.334168636457626" lon="0.9286855469677122"><ele>778.6</ele><time>2026-04-27T15:16:16.001Z</time></trkpt><trkpt lat="42.334237222065944" lon="0.928592006305317"><ele>782.0</ele><time>2026-04-27T15:16:17.001Z</time></trkpt><trkpt lat="42.33430266069683" lon="0.9284939077430115"><ele>778.2</ele><time>2026-04-27T15:16:18.001Z</time></trkpt><trkpt lat="42.33436757587878" lon="0.9283917662280972"><ele>774.4000000000001</ele><time>2026-04-27T15:16:19.001Z</time></trkpt><trkpt lat="42.33443142578381" lon="0.9282898941762051"><ele>770.5999999999999</ele><time>2026-04-27T15:16:20.001Z</time></trkpt><trkpt lat="42.3344929597488" lon="0.9281831539571233"><ele>766.8</ele><time>2026-04-27T15:16:21.001Z</time></trkpt><trkpt lat="42.33455268300796" lon="0.9280730272162311"><ele>763.0</ele><time>2026-04-27T15:16:22.001Z</time></trkpt><trkpt lat="42.33461069873139" lon="0.9279611661976757"><ele>763.0</ele><time>2026-04-27T15:16:23.001Z</time></trkpt><trkpt lat="42.33466622858606" lon="0.9278464470658955"><ele>763.0</ele><time>2026-04-27T15:16:24.001Z</time></trkpt><trkpt lat="42.33471941259558" lon="0.9277294567049384"><ele>763.0</ele><time>2026-04-27T15:16:25.001Z</time></trkpt><trkpt lat="42.334767869446395" lon="0.9276094840498293"><ele>763.0</ele><time>2026-04-27T15:16:26.001Z</time></trkpt><trkpt lat="42.33481586264267" lon="0.9274873923219267"><ele>763.0</ele><time>2026-04-27T15:16:27.001Z</time></trkpt><trkpt lat="42.334857776576136" lon="0.9273661520115611"><ele>764.4</ele><time>2026-04-27T15:16:28.001Z</time></trkpt><trkpt lat="42.334899265530574" lon="0.9272431425605002"><ele>765.8</ele><time>2026-04-27T15:16:29.001Z</time></trkpt><trkpt lat="42.33493749532963" lon="0.927118292271532"><ele>767.2</ele><time>2026-04-27T15:16:30.001Z</time></trkpt><trkpt lat="42.3349736541782" lon="0.9269941365832057"><ele>768.6</ele><time>2026-04-27T15:16:31.001Z</time></trkpt><trkpt lat="42.335008443485" lon="0.9268685852641715"><ele>770.0</ele><time>2026-04-27T15:16:32.001Z</time></trkpt><trkpt lat="42.33504182438133" lon="0.9267391406253536"><ele>769.6</ele><time>2026-04-27T15:16:33.001Z</time></trkpt><trkpt lat="42.335074679882204" lon="0.9266112328321037"><ele>769.2</ele><time>2026-04-27T15:16:34.001Z</time></trkpt><trkpt lat="42.335109175431356" lon="0.9264818124050076"><ele>768.8</ele><time>2026-04-27T15:16:35.001Z</time></trkpt><trkpt lat="42.335140754167504" lon="0.9263542468570577"><ele>768.4</ele><time>2026-04-27T15:16:36.001Z</time></trkpt><trkpt lat="42.335171655884665" lon="0.9262277090653119"><ele>768.0</ele><time>2026-04-27T15:16:37.001Z</time></trkpt><trkpt lat="42.33520339695277" lon="0.9261023826585411"><ele>768.0</ele><time>2026-04-27T15:16:38.001Z</time></trkpt><trkpt lat="42.33523805575483" lon="0.9259769539643299"><ele>768.0</ele><time>2026-04-27T15:16:39.001Z</time></trkpt><trkpt lat="42.33527335396274" lon="0.9258489028996162"><ele>768.0</ele><time>2026-04-27T15:16:40.001Z</time></trkpt><trkpt lat="42.335311639887664" lon="0.9257239963912786"><ele>768.0</ele><time>2026-04-27T15:16:41.001Z</time></trkpt><trkpt lat="42.335351020846595" lon="0.9256007848994244"><ele>768.0</ele><time>2026-04-27T15:16:42.001Z</time></trkpt><trkpt lat="42.33539409967931" lon="0.9254763942518262"><ele>768.0</ele><time>2026-04-27T15:16:43.001Z</time></trkpt><trkpt lat="42.33544092080596" lon="0.9253540754149924"><ele>768.0</ele><time>2026-04-27T15:16:44.001Z</time></trkpt><trkpt lat="42.33548946806226" lon="0.9252325600341522"><ele>768.0</ele><time>2026-04-27T15:16:45.001Z</time></trkpt><trkpt lat="42.33554072910631" lon="0.9251130170089541"><ele>768.0</ele><time>2026-04-27T15:16:46.001Z</time></trkpt><trkpt lat="42.33559063025573" lon="0.9249942384206812"><ele>768.0</ele><time>2026-04-27T15:16:47.001Z</time></trkpt><trkpt lat="42.33564279136514" lon="0.924876943539071"><ele>771.4</ele><time>2026-04-27T15:16:48.001Z</time></trkpt><trkpt lat="42.33570021803006" lon="0.9247653875226939"><ele>774.8</ele><time>2026-04-27T15:16:49.001Z</time></trkpt><trkpt lat="42.33575696254109" lon="0.9246546544579525"><ele>778.2</ele><time>2026-04-27T15:16:50.001Z</time></trkpt><trkpt lat="42.33581907725872" lon="0.9245460318647044"><ele>781.6</ele><time>2026-04-27T15:16:51.001Z</time></trkpt><trkpt lat="42.335882200367514" lon="0.9244374978778828"><ele>785.0</ele><time>2026-04-27T15:16:52.001Z</time></trkpt><trkpt lat="42.33594821921384" lon="0.9243327918428487"><ele>785.0</ele><time>2026-04-27T15:16:53.001Z</time></trkpt><trkpt lat="42.33601590132353" lon="0.9242317257125446"><ele>785.0</ele><time>2026-04-27T15:16:54.001Z</time></trkpt><trkpt lat="42.33608789160385" lon="0.9241332656550786"><ele>785.0</ele><time>2026-04-27T15:16:55.001Z</time></trkpt><trkpt lat="42.336162118399855" lon="0.9240353723630788"><ele>785.0</ele><time>2026-04-27T15:16:56.001Z</time></trkpt><trkpt lat="42.33623756060382" lon="0.9239392350536262"><ele>785.0</ele><time>2026-04-27T15:16:57.001Z</time></trkpt><trkpt lat="42.336311930313805" lon="0.9238475281040265"><ele>789.0</ele><time>2026-04-27T15:16:58.001Z</time></trkpt><trkpt lat="42.33639018200193" lon="0.9237580971168096"><ele>793.0</ele><time>2026-04-27T15:16:59.001Z</time></trkpt><trkpt lat="42.3364681599979" lon="0.9236716383326119"><ele>797.0</ele><time>2026-04-27T15:17:00.001Z</time></trkpt><trkpt lat="42.336548003110416" lon="0.9235860809106066"><ele>801.0</ele><time>2026-04-27T15:17:01.001Z</time></trkpt><trkpt lat="42.33662955367984" lon="0.9235081449942797"><ele>805.0</ele><time>2026-04-27T15:17:02.001Z</time></trkpt><trkpt lat="42.33671300896597" lon="0.9234313037108571"><ele>799.4</ele><time>2026-04-27T15:17:03.001Z</time></trkpt><trkpt lat="42.336798797607884" lon="0.9233559235065004"><ele>793.8</ele><time>2026-04-27T15:17:04.001Z</time></trkpt><trkpt lat="42.33688335130336" lon="0.9232834837786368"><ele>788.2</ele><time>2026-04-27T15:17:05.001Z</time></trkpt><trkpt lat="42.336969791664664" lon="0.9232167907261444"><ele>782.6</ele><time>2026-04-27T15:17:06.001Z</time></trkpt><trkpt lat="42.33705964654801" lon="0.9231512961858828"><ele>777.0</ele><time>2026-04-27T15:17:07.001Z</time></trkpt><trkpt lat="42.3371489762009" lon="0.9230928749267745"><ele>781.4000000000001</ele><time>2026-04-27T15:17:08.001Z</time></trkpt><trkpt lat="42.33724075143699" lon="0.9230370327268129"><ele>785.8000000000001</ele><time>2026-04-27T15:17:09.001Z</time></trkpt><trkpt lat="42.33732987869711" lon="0.922980747465559"><ele>790.2</ele><time>2026-04-27T15:17:10.001Z</time></trkpt><trkpt lat="42.337421656787804" lon="0.9229303035762286"><ele>794.6</ele><time>2026-04-27T15:17:11.001Z</time></trkpt><trkpt lat="42.33751554271192" lon="0.9228819118532492"><ele>799.0</ele><time>2026-04-27T15:17:12.001Z</time></trkpt><trkpt lat="42.33761050194953" lon="0.9228380358090467"><ele>799.0</ele><time>2026-04-27T15:17:13.001Z</time></trkpt><trkpt lat="42.33770504818683" lon="0.9227967255426127"><ele>799.0</ele><time>2026-04-27T15:17:14.001Z</time></trkpt><trkpt lat="42.33779670204134" lon="0.9227551126240375"><ele>799.0</ele><time>2026-04-27T15:17:15.001Z</time></trkpt><trkpt lat="42.337889514898414" lon="0.9227132195567178"><ele>799.0</ele><time>2026-04-27T15:17:16.001Z</time></trkpt><trkpt lat="42.33798360973388" lon="0.9226730516879772"><ele>799.0</ele><time>2026-04-27T15:17:17.001Z</time></trkpt><trkpt lat="42.33807880198643" lon="0.9226400796958882"><ele>799.4000000000001</ele><time>2026-04-27T15:17:18.001Z</time></trkpt><trkpt lat="42.33817099193229" lon="0.9226009332306715"><ele>799.8</ele><time>2026-04-27T15:17:19.001Z</time></trkpt><trkpt lat="42.33826124744218" lon="0.9225602922767399"><ele>800.2</ele><time>2026-04-27T15:17:20Z</time></trkpt><trkpt lat="42.338347813309134" lon="0.9225161969011944"><ele>800.5999999999999</ele><time>2026-04-27T15:17:21Z</time></trkpt><trkpt lat="42.33843863133955" lon="0.9224780281946191"><ele>801.0</ele><time>2026-04-27T15:17:22Z</time></trkpt><trkpt lat="42.338528111950254" lon="0.9224364558351706"><ele>799.8</ele><time>2026-04-27T15:17:23Z</time></trkpt><trkpt lat="42.33861720741575" lon="0.9223896745578062"><ele>798.5999999999999</ele><time>2026-04-27T15:17:24Z</time></trkpt><trkpt lat="42.338704080816804" lon="0.9223400511440926"><ele>797.4</ele><time>2026-04-27T15:17:25Z</time></trkpt><trkpt lat="42.338790429691315" lon="0.9222857594849859"><ele>796.2</ele><time>2026-04-27T15:17:26Z</time></trkpt><trkpt lat="42.338875577467654" lon="0.9222306886058338"><ele>795.0</ele><time>2026-04-27T15:17:27Z</time></trkpt><trkpt lat="42.33895952429184" lon="0.9221680455594348"><ele>795.0</ele><time>2026-04-27T15:17:28Z</time></trkpt><trkpt lat="42.33904259905582" lon="0.9221036977096791"><ele>795.0</ele><time>2026-04-27T15:17:29Z</time></trkpt><trkpt lat="42.33912459133858" lon="0.9220387219260312"><ele>795.0</ele><time>2026-04-27T15:17:30Z</time></trkpt><trkpt lat="42.3392048322177" lon="0.9219691433423342"><ele>795.0</ele><time>2026-04-27T15:17:31Z</time></trkpt><trkpt lat="42.33928365228908" lon="0.921896392824945"><ele>795.0</ele><time>2026-04-27T15:17:32Z</time></trkpt><trkpt lat="42.33936122754593" lon="0.9218180132639519"><ele>795.0</ele><time>2026-04-27T15:17:33Z</time></trkpt><trkpt lat="42.33943678788355" lon="0.9217384680471892"><ele>795.0</ele><time>2026-04-27T15:17:34Z</time></trkpt><trkpt lat="42.33951068054669" lon="0.9216558296779473"><ele>795.0</ele><time>2026-04-27T15:17:35Z</time></trkpt><trkpt lat="42.339582270745886" lon="0.9215699029061362"><ele>795.0</ele><time>2026-04-27T15:17:36Z</time></trkpt><trkpt lat="42.33965357852741" lon="0.9214812431917201"><ele>795.0</ele><time>2026-04-27T15:17:37Z</time></trkpt><trkpt lat="42.33972166380715" lon="0.9213897066790364"><ele>795.8</ele><time>2026-04-27T15:17:38Z</time></trkpt><trkpt lat="42.339787829238894" lon="0.9212967535362722"><ele>796.6</ele><time>2026-04-27T15:17:39Z</time></trkpt><trkpt lat="42.33985135852101" lon="0.921199030671766"><ele>797.4000000000001</ele><time>2026-04-27T15:17:40Z</time></trkpt><trkpt lat="42.33991221143969" lon="0.9210996118016737"><ele>798.2</ele><time>2026-04-27T15:17:41Z</time></trkpt><trkpt lat="42.33997048802603" lon="0.920999113657744"><ele>799.0</ele><time>2026-04-27T15:17:42Z</time></trkpt><trkpt lat="42.340026423600605" lon="0.920893742902591"><ele>797.0</ele><time>2026-04-27T15:17:43Z</time></trkpt><trkpt lat="42.34007968279868" lon="0.9207883508030863"><ele>795.0</ele><time>2026-04-27T15:17:44Z</time></trkpt><trkpt lat="42.34013027378133" lon="0.9206794359462688"><ele>793.0</ele><time>2026-04-27T15:17:45Z</time></trkpt><trkpt lat="42.34017971229185" lon="0.9205676050405371"><ele>791.0</ele><time>2026-04-27T15:17:46Z</time></trkpt><trkpt lat="42.34022987403051" lon="0.920450903616946"><ele>789.0</ele><time>2026-04-27T15:17:47Z</time></trkpt><trkpt lat="42.34027748517934" lon="0.9203366027682448"><ele>789.0</ele><time>2026-04-27T15:17:48Z</time></trkpt><trkpt lat="42.34032377920081" lon="0.9202217623095988"><ele>789.0</ele><time>2026-04-27T15:17:49Z</time></trkpt><trkpt lat="42.3403670600924" lon="0.9201052310515083"><ele>789.0</ele><time>2026-04-27T15:17:50Z</time></trkpt><trkpt lat="42.34040956788995" lon="0.9199879820864953"><ele>789.0</ele><time>2026-04-27T15:17:51Z</time></trkpt><trkpt lat="42.34045124097784" lon="0.9198723230508926"><ele>789.0</ele><time>2026-04-27T15:17:52Z</time></trkpt><trkpt lat="42.3404914589097" lon="0.9197560896386339"><ele>788.8000000000001</ele><time>2026-04-27T15:17:53Z</time></trkpt><trkpt lat="42.34053280038509" lon="0.9196410076286916"><ele>788.6</ele><time>2026-04-27T15:17:54Z</time></trkpt><trkpt lat="42.340573645704765" lon="0.9195254147850664"><ele>788.4</ele><time>2026-04-27T15:17:55Z</time></trkpt><trkpt lat="42.34061502761377" lon="0.919407804844391"><ele>788.2</ele><time>2026-04-27T15:17:56Z</time></trkpt><trkpt lat="42.34065814956651" lon="0.9192932291054036"><ele>788.0</ele><time>2026-04-27T15:17:57Z</time></trkpt><trkpt lat="42.34070234793794" lon="0.919177777895163"><ele>790.4</ele><time>2026-04-27T15:17:58Z</time></trkpt><trkpt lat="42.340747687556956" lon="0.9190640300198898"><ele>792.8</ele><time>2026-04-27T15:17:59Z</time></trkpt><trkpt lat="42.34079274646422" lon="0.9189491634684597"><ele>795.2</ele><time>2026-04-27T15:18:00Z</time></trkpt><trkpt lat="42.34083663045078" lon="0.9188375179864686"><ele>797.6</ele><time>2026-04-27T15:18:01Z</time></trkpt><trkpt lat="42.34088263096502" lon="0.9187244099757138"><ele>800.0</ele><time>2026-04-27T15:18:02Z</time></trkpt><trkpt lat="42.3409307361576" lon="0.918614237895091"><ele>800.0</ele><time>2026-04-27T15:18:03Z</time></trkpt><trkpt lat="42.340980541379516" lon="0.9185042327568582"><ele>800.0</ele><time>2026-04-27T15:18:04Z</time></trkpt><trkpt lat="42.341032268609766" lon="0.9183934069143893"><ele>800.0</ele><time>2026-04-27T15:18:05.001Z</time></trkpt><trkpt lat="42.34108888473675" lon="0.9182866754270692"><ele>800.0</ele><time>2026-04-27T15:18:06.001Z</time></trkpt><trkpt lat="42.34114152024625" lon="0.9181718807199739"><ele>800.0</ele><time>2026-04-27T15:18:07.001Z</time></trkpt><trkpt lat="42.34120107081534" lon="0.9180636954692487"><ele>799.0</ele><time>2026-04-27T15:18:08.001Z</time></trkpt><trkpt lat="42.34125711211566" lon="0.917954204775276"><ele>798.0</ele><time>2026-04-27T15:18:09.001Z</time></trkpt><trkpt lat="42.341317014807444" lon="0.9178465604499044"><ele>797.0</ele><time>2026-04-27T15:18:10.001Z</time></trkpt><trkpt lat="42.34137834457664" lon="0.9177408579735543"><ele>796.0</ele><time>2026-04-27T15:18:11.001Z</time></trkpt><trkpt lat="42.34144432987091" lon="0.9176346919481209"><ele>795.0</ele><time>2026-04-27T15:18:12.001Z</time></trkpt><trkpt lat="42.341510626449235" lon="0.9175326195115736"><ele>797.2</ele><time>2026-04-27T15:18:13.001Z</time></trkpt><trkpt lat="42.34157677097496" lon="0.917430843520501"><ele>799.4</ele><time>2026-04-27T15:18:14.001Z</time></trkpt><trkpt lat="42.34164555565475" lon="0.9173306481518053"><ele>801.5999999999999</ele><time>2026-04-27T15:18:15.001Z</time></trkpt><trkpt lat="42.341716707478064" lon="0.917231551194518"><ele>803.8</ele><time>2026-04-27T15:18:16.001Z</time></trkpt><trkpt lat="42.3417887619902" lon="0.9171338083284322"><ele>806.0</ele><time>2026-04-27T15:18:17.001Z</time></trkpt><trkpt lat="42.34186224255619" lon="0.917034249283778"><ele>806.0</ele><time>2026-04-27T15:18:18.001Z</time></trkpt><trkpt lat="42.341936447953486" lon="0.9169360395476861"><ele>806.0</ele><time>2026-04-27T15:18:19.001Z</time></trkpt><trkpt lat="42.342012817639784" lon="0.9168389773851042"><ele>806.0</ele><time>2026-04-27T15:18:20.001Z</time></trkpt><trkpt lat="42.342088702435305" lon="0.916741411183803"><ele>806.0</ele><time>2026-04-27T15:18:21.001Z</time></trkpt><trkpt lat="42.342163632551724" lon="0.9166451290280899"><ele>806.0</ele><time>2026-04-27T15:18:22.001Z</time></trkpt><trkpt lat="42.342239040091805" lon="0.9165477258811566"><ele>807.1999999999999</ele><time>2026-04-27T15:18:23.001Z</time></trkpt><trkpt lat="42.342313858163315" lon="0.9164514614907338"><ele>808.4</ele><time>2026-04-27T15:18:24.001Z</time></trkpt><trkpt lat="42.34238908714634" lon="0.9163550418773602"><ele>809.6</ele><time>2026-04-27T15:18:25.001Z</time></trkpt><trkpt lat="42.34246416257948" lon="0.9162591201493789"><ele>810.8</ele><time>2026-04-27T15:18:26.001Z</time></trkpt><trkpt lat="42.34253737837997" lon="0.9161609777034623"><ele>812.0</ele><time>2026-04-27T15:18:27.001Z</time></trkpt><trkpt lat="42.34261136144589" lon="0.9160625948731341"><ele>812.0</ele><time>2026-04-27T15:18:28.001Z</time></trkpt><trkpt lat="42.342680396779805" lon="0.91596304340112"><ele>812.0</ele><time>2026-04-27T15:18:29.001Z</time></trkpt><trkpt lat="42.34274850990955" lon="0.9158575812589921"><ele>812.0</ele><time>2026-04-27T15:18:30.001Z</time></trkpt><trkpt lat="42.34281243908135" lon="0.915753615163594"><ele>812.0</ele><time>2026-04-27T15:18:31.001Z</time></trkpt><trkpt lat="42.3428783579134" lon="0.9156473449887861"><ele>812.0</ele><time>2026-04-27T15:18:32.001Z</time></trkpt><trkpt lat="42.3429449558187" lon="0.9155399958701876"><ele>812.4000000000001</ele><time>2026-04-27T15:18:33.001Z</time></trkpt><trkpt lat="42.34300855221728" lon="0.9154324598780507"><ele>812.8000000000001</ele><time>2026-04-27T15:18:34.001Z</time></trkpt><trkpt lat="42.34307126230272" lon="0.9153222796094037"><ele>813.2</ele><time>2026-04-27T15:18:35.001Z</time></trkpt><trkpt lat="42.34313383345596" lon="0.915211127868029"><ele>813.6</ele><time>2026-04-27T15:18:36.001Z</time></trkpt><trkpt lat="42.34319483466713" lon="0.9150979951532662"><ele>814.0</ele><time>2026-04-27T15:18:37.001Z</time></trkpt><trkpt lat="42.343254452553396" lon="0.9149836576876937"><ele>814.0</ele><time>2026-04-27T15:18:38.001Z</time></trkpt><trkpt lat="42.34331224842255" lon="0.9148640010868234"><ele>814.0</ele><time>2026-04-27T15:18:39.001Z</time></trkpt><trkpt lat="42.34336793799944" lon="0.9147442279285894"><ele>814.0</ele><time>2026-04-27T15:18:40.001Z</time></trkpt><trkpt lat="42.34342321375586" lon="0.914623394512351"><ele>814.0</ele><time>2026-04-27T15:18:41.001Z</time></trkpt><trkpt lat="42.343478920396926" lon="0.9145019920395168"><ele>814.0</ele><time>2026-04-27T15:18:42.001Z</time></trkpt><trkpt lat="42.343536191660995" lon="0.9143836248692159"><ele>814.0</ele><time>2026-04-27T15:18:43.001Z</time></trkpt><trkpt lat="42.34359082980651" lon="0.9142614039429269"><ele>814.0</ele><time>2026-04-27T15:18:44.001Z</time></trkpt><trkpt lat="42.343643015470846" lon="0.9141401789152085"><ele>814.0</ele><time>2026-04-27T15:18:45.001Z</time></trkpt><trkpt lat="42.343691050271374" lon="0.9140155316102387"><ele>814.0</ele><time>2026-04-27T15:18:46.001Z</time></trkpt><trkpt lat="42.343737342364875" lon="0.9138929272839436"><ele>814.0</ele><time>2026-04-27T15:18:47.001Z</time></trkpt><trkpt lat="42.3437848512681" lon="0.9137709661328313"><ele>815.6</ele><time>2026-04-27T15:18:48.001Z</time></trkpt><trkpt lat="42.34383340002315" lon="0.9136465179499573"><ele>817.2</ele><time>2026-04-27T15:18:49.001Z</time></trkpt><trkpt lat="42.343881559370615" lon="0.9135227288424826"><ele>818.8000000000001</ele><time>2026-04-27T15:18:50.001Z</time></trkpt><trkpt lat="42.343926008395584" lon="0.9133932078995859"><ele>820.4000000000001</ele><time>2026-04-27T15:18:51.001Z</time></trkpt><trkpt lat="42.3439694671054" lon="0.9132682589983604"><ele>822.0</ele><time>2026-04-27T15:18:52.001Z</time></trkpt><trkpt lat="42.344009948546" lon="0.913138099052008"><ele>822.0</ele><time>2026-04-27T15:18:53.001Z</time></trkpt><trkpt lat="42.34405535967349" lon="0.9130126372128631"><ele>822.0</ele><time>2026-04-27T15:18:54.001Z</time></trkpt><trkpt lat="42.34409910041237" lon="0.9128851195820931"><ele>822.0</ele><time>2026-04-27T15:18:55.001Z</time></trkpt><trkpt lat="42.344140806276116" lon="0.9127562260934298"><ele>822.0</ele><time>2026-04-27T15:18:56.001Z</time></trkpt><trkpt lat="42.344178503989305" lon="0.9126290602521823"><ele>822.0</ele><time>2026-04-27T15:18:57.001Z</time></trkpt><trkpt lat="42.34422010826658" lon="0.9125004702619935"><ele>820.4000000000001</ele><time>2026-04-27T15:18:58.001Z</time></trkpt><trkpt lat="42.344257524047414" lon="0.9123686755152925"><ele>818.8000000000001</ele><time>2026-04-27T15:18:59.001Z</time></trkpt><trkpt lat="42.34429337533792" lon="0.9122382499086724"><ele>817.2</ele><time>2026-04-27T15:19:00.001Z</time></trkpt><trkpt lat="42.34432961816531" lon="0.9121071125505474"><ele>815.6</ele><time>2026-04-27T15:19:01.001Z</time></trkpt><trkpt lat="42.34436245752982" lon="0.9119734014567226"><ele>814.0</ele><time>2026-04-27T15:19:02.001Z</time></trkpt><trkpt lat="42.344398152919716" lon="0.9118440036256713"><ele>813.4000000000001</ele><time>2026-04-27T15:19:03.001Z</time></trkpt><trkpt lat="42.34443318887504" lon="0.9117121200611669"><ele>812.8</ele><time>2026-04-27T15:19:04.001Z</time></trkpt><trkpt lat="42.344467927618766" lon="0.9115797892774977"><ele>812.2</ele><time>2026-04-27T15:19:05.001Z</time></trkpt><trkpt lat="42.34450093455893" lon="0.9114461311054958"><ele>811.5999999999999</ele><time>2026-04-27T15:19:06.001Z</time></trkpt><trkpt lat="42.34453475602476" lon="0.911314156689673"><ele>811.0</ele><time>2026-04-27T15:19:07.001Z</time></trkpt><trkpt lat="42.344564546838996" lon="0.9111778470378397"><ele>811.0</ele><time>2026-04-27T15:19:08.001Z</time></trkpt><trkpt lat="42.34459242194489" lon="0.9110440617876593"><ele>811.0</ele><time>2026-04-27T15:19:09.001Z</time></trkpt><trkpt lat="42.34461951271405" lon="0.9109075516689272"><ele>811.0</ele><time>2026-04-27T15:19:10.001Z</time></trkpt><trkpt lat="42.34464519586908" lon="0.9107732934587294"><ele>811.0</ele><time>2026-04-27T15:19:11.001Z</time></trkpt><trkpt lat="42.3446700904341" lon="0.9106376590047859"><ele>811.0</ele><time>2026-04-27T15:19:12.001Z</time></trkpt><trkpt lat="42.344694161105245" lon="0.9105066348719494"><ele>814.4</ele><time>2026-04-27T15:19:13.001Z</time></trkpt><trkpt lat="42.34471833541155" lon="0.9103708013197662"><ele>817.8</ele><time>2026-04-27T15:19:14.001Z</time></trkpt><trkpt lat="42.34474465074572" lon="0.9102364520453237"><ele>821.1999999999999</ele><time>2026-04-27T15:19:15.001Z</time></trkpt><trkpt lat="42.34476653006233" lon="0.9100961302085776"><ele>824.5999999999999</ele><time>2026-04-27T15:19:16.001Z</time></trkpt><trkpt lat="42.344788452687766" lon="0.9099563833211106"><ele>828.0</ele><time>2026-04-27T15:19:17.001Z</time></trkpt><trkpt lat="42.344813480696466" lon="0.9098212951073542"><ele>828.0</ele><time>2026-04-27T15:19:18.001Z</time></trkpt><trkpt lat="42.3448377228634" lon="0.9096850387516289"><ele>828.0</ele><time>2026-04-27T15:19:19.001Z</time></trkpt><trkpt lat="42.34486237819587" lon="0.9095488422312413"><ele>828.0</ele><time>2026-04-27T15:19:20.001Z</time></trkpt><trkpt lat="42.34488487261651" lon="0.9094132187083729"><ele>828.0</ele><time>2026-04-27T15:19:21.001Z</time></trkpt><trkpt lat="42.34490914495642" lon="0.9092781146757121"><ele>828.0</ele><time>2026-04-27T15:19:22.001Z</time></trkpt><trkpt lat="42.344935262325265" lon="0.9091425560853706"><ele>826.8</ele><time>2026-04-27T15:19:23.001Z</time></trkpt><trkpt lat="42.344963441268675" lon="0.9090070452557334"><ele>825.5999999999999</ele><time>2026-04-27T15:19:24.001Z</time></trkpt><trkpt lat="42.344993205986206" lon="0.9088700306135267"><ele>824.4000000000001</ele><time>2026-04-27T15:19:25.001Z</time></trkpt><trkpt lat="42.345023596665925" lon="0.9087374215440968"><ele>823.2</ele><time>2026-04-27T15:19:26Z</time></trkpt><trkpt lat="42.34505528077614" lon="0.9086058510293994"><ele>822.0</ele><time>2026-04-27T15:19:27Z</time></trkpt><trkpt lat="42.345087013290346" lon="0.9084754348855751"><ele>821.0</ele><time>2026-04-27T15:19:28Z</time></trkpt><trkpt lat="42.345121550470544" lon="0.9083444542023645"><ele>820.0</ele><time>2026-04-27T15:19:29Z</time></trkpt><trkpt lat="42.34515825331262" lon="0.9082155646742155"><ele>819.0</ele><time>2026-04-27T15:19:30Z</time></trkpt><trkpt lat="42.34519540199392" lon="0.9080869810578881"><ele>818.0</ele><time>2026-04-27T15:19:31Z</time></trkpt><trkpt lat="42.34523278969328" lon="0.9079573399756949"><ele>817.0</ele><time>2026-04-27T15:19:32Z</time></trkpt><trkpt lat="42.345271066970085" lon="0.9078299760099068"><ele>817.0</ele><time>2026-04-27T15:19:33Z</time></trkpt><trkpt lat="42.345316380391566" lon="0.9077039862242875"><ele>817.0</ele><time>2026-04-27T15:19:34Z</time></trkpt><trkpt lat="42.345359998485975" lon="0.9075785999947067"><ele>817.0</ele><time>2026-04-27T15:19:35Z</time></trkpt><trkpt lat="42.34540499353214" lon="0.9074545807434268"><ele>817.0</ele><time>2026-04-27T15:19:36Z</time></trkpt><trkpt lat="42.34545444573066" lon="0.9073331235715478"><ele>817.0</ele><time>2026-04-27T15:19:37Z</time></trkpt><trkpt lat="42.34550428995338" lon="0.9072095359538344"><ele>817.8</ele><time>2026-04-27T15:19:38Z</time></trkpt><trkpt lat="42.34555580999385" lon="0.9070841735501257"><ele>818.6</ele><time>2026-04-27T15:19:39Z</time></trkpt><trkpt lat="42.345610448631376" lon="0.9069618248254983"><ele>819.4</ele><time>2026-04-27T15:19:40Z</time></trkpt><trkpt lat="42.3456645338302" lon="0.9068389941437498"><ele>820.1999999999999</ele><time>2026-04-27T15:19:41Z</time></trkpt><trkpt lat="42.3457228283829" lon="0.9067208622584599"><ele>821.0</ele><time>2026-04-27T15:19:42Z</time></trkpt><trkpt lat="42.345781380768315" lon="0.9066021472455197"><ele>821.0</ele><time>2026-04-27T15:19:43Z</time></trkpt><trkpt lat="42.34583920806264" lon="0.9064830373298736"><ele>821.0</ele><time>2026-04-27T15:19:44Z</time></trkpt><trkpt lat="42.345899818585785" lon="0.906370781576114"><ele>821.0</ele><time>2026-04-27T15:19:45Z</time></trkpt><trkpt lat="42.345962916215946" lon="0.9062598486517044"><ele>821.0</ele><time>2026-04-27T15:19:46Z</time></trkpt><trkpt lat="42.346027039958734" lon="0.9061478205481616"><ele>821.0</ele><time>2026-04-27T15:19:47Z</time></trkpt><trkpt lat="42.34609310259295" lon="0.9060401717640771"><ele>821.0</ele><time>2026-04-27T15:19:48Z</time></trkpt><trkpt lat="42.34615903438551" lon="0.905931276638018"><ele>821.0</ele><time>2026-04-27T15:19:49Z</time></trkpt><trkpt lat="42.34622653288023" lon="0.9058238648073272"><ele>821.0</ele><time>2026-04-27T15:19:50Z</time></trkpt><trkpt lat="42.34629563861834" lon="0.905719126259376"><ele>821.0</ele><time>2026-04-27T15:19:51Z</time></trkpt><trkpt lat="42.346365181981284" lon="0.9056154390810365"><ele>821.0</ele><time>2026-04-27T15:19:52Z</time></trkpt><trkpt lat="42.34643711372007" lon="0.9055180487765141"><ele>821.1999999999999</ele><time>2026-04-27T15:19:53Z</time></trkpt><trkpt lat="42.34651082007748" lon="0.9054200073490042"><ele>821.4</ele><time>2026-04-27T15:19:54Z</time></trkpt><trkpt lat="42.346585173610066" lon="0.9053232654672357"><ele>821.6</ele><time>2026-04-27T15:19:55Z</time></trkpt><trkpt lat="42.34666051983894" lon="0.9052290815167774"><ele>821.8</ele><time>2026-04-27T15:19:56Z</time></trkpt><trkpt lat="42.34673786913732" lon="0.9051386639776424"><ele>822.0</ele><time>2026-04-27T15:19:57Z</time></trkpt><trkpt lat="42.34681351230713" lon="0.9050488110028874"><ele>822.0</ele><time>2026-04-27T15:19:58Z</time></trkpt><trkpt lat="42.34688827400562" lon="0.9049611439219445"><ele>822.0</ele><time>2026-04-27T15:19:59Z</time></trkpt><trkpt lat="42.34696390892243" lon="0.9048698358617157"><ele>822.0</ele><time>2026-04-27T15:20:00Z</time></trkpt><trkpt lat="42.34704111448066" lon="0.9047829184924159"><ele>822.0</ele><time>2026-04-27T15:20:01Z</time></trkpt><trkpt lat="42.34711512028254" lon="0.9046967120232827"><ele>822.0</ele><time>2026-04-27T15:20:02Z</time></trkpt><trkpt lat="42.347193225686425" lon="0.9046159166225346"><ele>822.4000000000001</ele><time>2026-04-27T15:20:03Z</time></trkpt><trkpt lat="42.34727244597833" lon="0.904535607907983"><ele>822.8000000000001</ele><time>2026-04-27T15:20:04Z</time></trkpt><trkpt lat="42.34734957330074" lon="0.9044515584349354"><ele>823.2</ele><time>2026-04-27T15:20:05Z</time></trkpt><trkpt lat="42.347426799400985" lon="0.9043660979868451"><ele>823.6</ele><time>2026-04-27T15:20:06Z</time></trkpt><trkpt lat="42.34750329214644" lon="0.9042817493540583"><ele>824.0</ele><time>2026-04-27T15:20:07Z</time></trkpt><trkpt lat="42.347578614257415" lon="0.9041980583247253"><ele>824.0</ele><time>2026-04-27T15:20:08Z</time></trkpt><trkpt lat="42.347655706997806" lon="0.9041156250126864"><ele>824.0</ele><time>2026-04-27T15:20:09Z</time></trkpt><trkpt lat="42.34773094685037" lon="0.9040341147645191"><ele>824.0</ele><time>2026-04-27T15:20:10Z</time></trkpt><trkpt lat="42.347806140409126" lon="0.9039543262130307"><ele>824.0</ele><time>2026-04-27T15:20:11Z</time></trkpt><trkpt lat="42.34788103882817" lon="0.9038771748983704"><ele>824.0</ele><time>2026-04-27T15:20:12Z</time></trkpt><trkpt lat="42.34795624508382" lon="0.9037950622339215"><ele>824.0</ele><time>2026-04-27T15:20:13Z</time></trkpt><trkpt lat="42.348031651074905" lon="0.9037143666833233"><ele>824.0</ele><time>2026-04-27T15:20:14Z</time></trkpt><trkpt lat="42.34810436610597" lon="0.9036333716782471"><ele>824.0</ele><time>2026-04-27T15:20:15Z</time></trkpt><trkpt lat="42.34817818471745" lon="0.9035531656819784"><ele>824.0</ele><time>2026-04-27T15:20:16Z</time></trkpt><trkpt lat="42.34825261001157" lon="0.9034725162791717"><ele>824.0</ele><time>2026-04-27T15:20:17Z</time></trkpt><trkpt lat="42.34832682167875" lon="0.9033930101473961"><ele>824.8000000000001</ele><time>2026-04-27T15:20:18Z</time></trkpt><trkpt lat="42.348400141576036" lon="0.9033094153342565"><ele>825.6</ele><time>2026-04-27T15:20:19Z</time></trkpt><trkpt lat="42.34847676077357" lon="0.9032335125897972"><ele>826.4</ele><time>2026-04-27T15:20:20Z</time></trkpt><trkpt lat="42.348551886179685" lon="0.9031558562981213"><ele>827.2</ele><time>2026-04-27T15:20:21Z</time></trkpt><trkpt lat="42.348625408868166" lon="0.9030762728621645"><ele>828.0</ele><time>2026-04-27T15:20:22Z</time></trkpt><trkpt lat="42.3486975808066" lon="0.9029945735263599"><ele>828.0</ele><time>2026-04-27T15:20:23Z</time></trkpt><trkpt lat="42.34876767797497" lon="0.9029096994531928"><ele>828.0</ele><time>2026-04-27T15:20:24Z</time></trkpt><trkpt lat="42.34883577185045" lon="0.902827639371437"><ele>828.0</ele><time>2026-04-27T15:20:25Z</time></trkpt><trkpt lat="42.34890813510132" lon="0.9027547948432176"><ele>828.0</ele><time>2026-04-27T15:20:26Z</time></trkpt><trkpt lat="42.348984300256866" lon="0.9026748491962189"><ele>828.0</ele><time>2026-04-27T15:20:27Z</time></trkpt><trkpt lat="42.349060264437945" lon="0.9025979682455106"><ele>828.8</ele><time>2026-04-27T15:20:28Z</time></trkpt><trkpt lat="42.34913728293472" lon="0.9025193686319233"><ele>829.5999999999999</ele><time>2026-04-27T15:20:29Z</time></trkpt><trkpt lat="42.34921111879708" lon="0.9024399791270782"><ele>830.4000000000001</ele><time>2026-04-27T15:20:30Z</time></trkpt><trkpt lat="42.34928337001335" lon="0.9023608142183156"><ele>831.2</ele><time>2026-04-27T15:20:31Z</time></trkpt><trkpt lat="42.349358284623385" lon="0.9022852877530425"><ele>832.0</ele><time>2026-04-27T15:20:32.001Z</time></trkpt><trkpt lat="42.34943349652432" lon="0.9022071880892394"><ele>832.0</ele><time>2026-04-27T15:20:33.001Z</time></trkpt><trkpt lat="42.34950787292065" lon="0.9021314548721355"><ele>832.0</ele><time>2026-04-27T15:20:34.001Z</time></trkpt><trkpt lat="42.34958359600058" lon="0.9020554516383483"><ele>832.0</ele><time>2026-04-27T15:20:35.001Z</time></trkpt><trkpt lat="42.3496626500534" lon="0.9019827962577289"><ele>832.0</ele><time>2026-04-27T15:20:36.001Z</time></trkpt><trkpt lat="42.3497413575456" lon="0.9019096130765252"><ele>832.0</ele><time>2026-04-27T15:20:37.001Z</time></trkpt><trkpt lat="42.349817063750855" lon="0.9018344351313325"><ele>834.0</ele><time>2026-04-27T15:20:38.001Z</time></trkpt><trkpt lat="42.34989391653628" lon="0.9017577835070594"><ele>836.0</ele><time>2026-04-27T15:20:39.001Z</time></trkpt><trkpt lat="42.34997317304769" lon="0.9016856955388699"><ele>838.0</ele><time>2026-04-27T15:20:40.001Z</time></trkpt><trkpt lat="42.35005050381787" lon="0.9016135616303724"><ele>840.0</ele><time>2026-04-27T15:20:41.001Z</time></trkpt><trkpt lat="42.35012942035456" lon="0.9015424645478513"><ele>842.0</ele><time>2026-04-27T15:20:42.001Z</time></trkpt><trkpt lat="42.35021113439604" lon="0.9014756782683301"><ele>842.0</ele><time>2026-04-27T15:20:43.001Z</time></trkpt><trkpt lat="42.35029284816402" lon="0.9014084529176403"><ele>842.0</ele><time>2026-04-27T15:20:44.001Z</time></trkpt><trkpt lat="42.350372615734884" lon="0.9013364266707257"><ele>842.0</ele><time>2026-04-27T15:20:45.001Z</time></trkpt><trkpt lat="42.35045317188286" lon="0.9012737085938403"><ele>842.0</ele><time>2026-04-27T15:20:46.001Z</time></trkpt><trkpt lat="42.350531267809274" lon="0.9012101256109531"><ele>842.0</ele><time>2026-04-27T15:20:47.001Z</time></trkpt><trkpt lat="42.350609137873036" lon="0.9011453304178789"><ele>843.0</ele><time>2026-04-27T15:20:48.001Z</time></trkpt><trkpt lat="42.350687544157445" lon="0.9010837482186606"><ele>844.0</ele><time>2026-04-27T15:20:49.001Z</time></trkpt><trkpt lat="42.35076715971546" lon="0.9010231467923256"><ele>845.0</ele><time>2026-04-27T15:20:50.001Z</time></trkpt><trkpt lat="42.350846768920796" lon="0.9009613200505179"><ele>846.0</ele><time>2026-04-27T15:20:51.001Z</time></trkpt><trkpt lat="42.35092709555535" lon="0.9009020391071839"><ele>847.0</ele><time>2026-04-27T15:20:52.001Z</time></trkpt><trkpt lat="42.35100874308038" lon="0.9008433423847761"><ele>847.0</ele><time>2026-04-27T15:20:53.001Z</time></trkpt><trkpt lat="42.35109059754379" lon="0.9007852102949144"><ele>847.0</ele><time>2026-04-27T15:20:54.001Z</time></trkpt><trkpt lat="42.35117312688423" lon="0.9007284073960765"><ele>847.0</ele><time>2026-04-27T15:20:55.001Z</time></trkpt><trkpt lat="42.35125363760358" lon="0.9006708115814426"><ele>847.0</ele><time>2026-04-27T15:20:56.001Z</time></trkpt><trkpt lat="42.35133613409186" lon="0.9006143919713574"><ele>847.0</ele><time>2026-04-27T15:20:57.001Z</time></trkpt><trkpt lat="42.351417564250404" lon="0.9005552040691918"><ele>851.4000000000001</ele><time>2026-04-27T15:20:58.001Z</time></trkpt><trkpt lat="42.351500898917564" lon="0.9004963883595414"><ele>855.8000000000001</ele><time>2026-04-27T15:20:59.001Z</time></trkpt><trkpt lat="42.35158244836258" lon="0.9004386668381895"><ele>860.2</ele><time>2026-04-27T15:21:00.001Z</time></trkpt><trkpt lat="42.35166666356899" lon="0.9003824138024316"><ele>864.6</ele><time>2026-04-27T15:21:01.001Z</time></trkpt><trkpt lat="42.35174890333232" lon="0.9003245354342378"><ele>869.0</ele><time>2026-04-27T15:21:02.001Z</time></trkpt><trkpt lat="42.35183409654642" lon="0.9002692943039058"><ele>869.0</ele><time>2026-04-27T15:21:03.001Z</time></trkpt><trkpt lat="42.351916575699605" lon="0.9002156902975367"><ele>869.0000000000001</ele><time>2026-04-27T15:21:04.001Z</time></trkpt><trkpt lat="42.35199915196159" lon="0.9001551414958773"><ele>869.0000000000001</ele><time>2026-04-27T15:21:05.001Z</time></trkpt><trkpt lat="42.352083329893226" lon="0.9000948624617866"><ele>869.0</ele><time>2026-04-27T15:21:06.001Z</time></trkpt><trkpt lat="42.35216438405772" lon="0.900031614939186"><ele>869.0</ele><time>2026-04-27T15:21:07.001Z</time></trkpt><trkpt lat="42.35224556976114" lon="0.8999665518542858"><ele>868.4000000000001</ele><time>2026-04-27T15:21:08.001Z</time></trkpt><trkpt lat="42.35232556993894" lon="0.8998996999992768"><ele>867.8000000000001</ele><time>2026-04-27T15:21:09.001Z</time></trkpt><trkpt lat="42.35240606271984" lon="0.8998339076707458"><ele>867.1999999999999</ele><time>2026-04-27T15:21:10.001Z</time></trkpt><trkpt lat="42.35248506930158" lon="0.8997647317362886"><ele>866.5999999999999</ele><time>2026-04-27T15:21:11.001Z</time></trkpt><trkpt lat="42.352563722066854" lon="0.8996943154441663"><ele>866.0</ele><time>2026-04-27T15:21:12.001Z</time></trkpt><trkpt lat="42.35263975739885" lon="0.8996190068964947"><ele>866.0</ele><time>2026-04-27T15:21:13.001Z</time></trkpt><trkpt lat="42.35271581353882" lon="0.8995419645845442"><ele>865.9999999999999</ele><time>2026-04-27T15:21:14.001Z</time></trkpt><trkpt lat="42.35279390062381" lon="0.8994664769337387"><ele>865.9999999999999</ele><time>2026-04-27T15:21:15.001Z</time></trkpt><trkpt lat="42.35286804668031" lon="0.8993885997033352"><ele>866.0</ele><time>2026-04-27T15:21:16.001Z</time></trkpt><trkpt lat="42.35294110846931" lon="0.8993085851959659"><ele>866.0</ele><time>2026-04-27T15:21:17.001Z</time></trkpt><trkpt lat="42.35301408014695" lon="0.8992239020984641"><ele>866.1999999999999</ele><time>2026-04-27T15:21:18.001Z</time></trkpt><trkpt lat="42.35308850160035" lon="0.8991388379510651"><ele>866.3999999999999</ele><time>2026-04-27T15:21:19.001Z</time></trkpt><trkpt lat="42.353161753318936" lon="0.8990526203296397"><ele>866.6</ele><time>2026-04-27T15:21:20.001Z</time></trkpt><trkpt lat="42.35323587928022" lon="0.8989647137943528"><ele>866.8</ele><time>2026-04-27T15:21:21.001Z</time></trkpt><trkpt lat="42.353311151096854" lon="0.8988756045058273"><ele>867.0</ele><time>2026-04-27T15:21:22.001Z</time></trkpt><trkpt lat="42.35338505776206" lon="0.8987836581676236"><ele>867.0</ele><time>2026-04-27T15:21:23.001Z</time></trkpt><trkpt lat="42.35345854787662" lon="0.8986935405198077"><ele>867.0</ele><time>2026-04-27T15:21:24.001Z</time></trkpt><trkpt lat="42.35353220048089" lon="0.8986047474051844"><ele>867.0</ele><time>2026-04-27T15:21:25.001Z</time></trkpt><trkpt lat="42.35360673260389" lon="0.8985140589340725"><ele>867.0</ele><time>2026-04-27T15:21:26.001Z</time></trkpt><trkpt lat="42.35367973422515" lon="0.898424850576522"><ele>867.0</ele><time>2026-04-27T15:21:27.001Z</time></trkpt><trkpt lat="42.35375147840542" lon="0.8983342850045539"><ele>867.8</ele><time>2026-04-27T15:21:28.001Z</time></trkpt><trkpt lat="42.353823719013874" lon="0.8982451537596168"><ele>868.6</ele><time>2026-04-27T15:21:29.001Z</time></trkpt><trkpt lat="42.35389830157218" lon="0.8981565751710501"><ele>869.3999999999999</ele><time>2026-04-27T15:21:30.001Z</time></trkpt><trkpt lat="42.35397375518379" lon="0.8980722289250159"><ele>870.1999999999999</ele><time>2026-04-27T15:21:31.001Z</time></trkpt><trkpt lat="42.35404779649478" lon="0.8979868581059194"><ele>871.0</ele><time>2026-04-27T15:21:32Z</time></trkpt><trkpt lat="42.354120336367224" lon="0.8978990280068021"><ele>871.0</ele><time>2026-04-27T15:21:33Z</time></trkpt><trkpt lat="42.35419137502681" lon="0.8978081666409176"><ele>870.9999999999999</ele><time>2026-04-27T15:21:34Z</time></trkpt><trkpt lat="42.35426508397691" lon="0.8977199249529744"><ele>870.9999999999999</ele><time>2026-04-27T15:21:35Z</time></trkpt><trkpt lat="42.35433854530509" lon="0.8976309790978448"><ele>871.0</ele><time>2026-04-27T15:21:36Z</time></trkpt><trkpt lat="42.35441362751929" lon="0.8975412052879695"><ele>871.0</ele><time>2026-04-27T15:21:37Z</time></trkpt><trkpt lat="42.35449080305531" lon="0.8974522265562076"><ele>870.1999999999999</ele><time>2026-04-27T15:21:38Z</time></trkpt><trkpt lat="42.35456632441348" lon="0.897359579395181"><ele>869.3999999999999</ele><time>2026-04-27T15:21:39Z</time></trkpt><trkpt lat="42.354641379957144" lon="0.8972653251426271"><ele>868.6</ele><time>2026-04-27T15:21:40Z</time></trkpt><trkpt lat="42.35471677777488" lon="0.8971757889586991"><ele>867.8</ele><time>2026-04-27T15:21:41Z</time></trkpt><trkpt lat="42.3547912135995" lon="0.897085677418255"><ele>867.0</ele><time>2026-04-27T15:21:42Z</time></trkpt><trkpt lat="42.35486582435996" lon="0.8969954915131868"><ele>867.0</ele><time>2026-04-27T15:21:43Z</time></trkpt><trkpt lat="42.35494098154493" lon="0.89690638102616"><ele>867.0</ele><time>2026-04-27T15:21:44Z</time></trkpt><trkpt lat="42.3550153613571" lon="0.8968145260964655"><ele>867.0</ele><time>2026-04-27T15:21:45Z</time></trkpt><trkpt lat="42.35509015034819" lon="0.8967226021909621"><ele>867.0</ele><time>2026-04-27T15:21:46Z</time></trkpt><trkpt lat="42.35516381683279" lon="0.8966315257379385"><ele>867.0</ele><time>2026-04-27T15:21:47Z</time></trkpt><trkpt lat="42.3552369796234" lon="0.8965390454913617"><ele>866.2</ele><time>2026-04-27T15:21:48Z</time></trkpt><trkpt lat="42.35531187350638" lon="0.8964486940259149"><ele>865.4000000000001</ele><time>2026-04-27T15:21:49Z</time></trkpt><trkpt lat="42.3553815494395" lon="0.8963578883330827"><ele>864.5999999999999</ele><time>2026-04-27T15:21:50Z</time></trkpt><trkpt lat="42.355453921231465" lon="0.8962678033154764"><ele>863.8</ele><time>2026-04-27T15:21:51Z</time></trkpt><trkpt lat="42.355522125882096" lon="0.8961762557006904"><ele>863.0</ele><time>2026-04-27T15:21:52Z</time></trkpt><trkpt lat="42.35558870974287" lon="0.8960817885538808"><ele>863.0</ele><time>2026-04-27T15:21:53Z</time></trkpt><trkpt lat="42.35565279366645" lon="0.8959835785492357"><ele>863.0</ele><time>2026-04-27T15:21:54Z</time></trkpt><trkpt lat="42.35571606299789" lon="0.8958854346883881"><ele>863.0</ele><time>2026-04-27T15:21:55Z</time></trkpt><trkpt lat="42.355775249985776" lon="0.8957826274153613"><ele>863.0</ele><time>2026-04-27T15:21:56Z</time></trkpt><trkpt lat="42.35583255756767" lon="0.8956775546559509"><ele>863.0</ele><time>2026-04-27T15:21:57Z</time></trkpt><trkpt lat="42.355887955455486" lon="0.8955703053885312"><ele>863.5999999999999</ele><time>2026-04-27T15:21:58Z</time></trkpt><trkpt lat="42.35594080730494" lon="0.8954640719810555"><ele>864.1999999999999</ele><time>2026-04-27T15:21:59Z</time></trkpt><trkpt lat="42.35599039433859" lon="0.8953526399028638"><ele>864.8</ele><time>2026-04-27T15:22:00Z</time></trkpt><trkpt lat="42.356037747102974" lon="0.8952397055906035"><ele>865.4</ele><time>2026-04-27T15:22:01Z</time></trkpt><trkpt lat="42.356083815921096" lon="0.8951281677404663"><ele>866.0</ele><time>2026-04-27T15:22:02Z</time></trkpt><trkpt lat="42.35612743759606" lon="0.8950159189506923"><ele>868.0</ele><time>2026-04-27T15:22:03Z</time></trkpt><trkpt lat="42.356168965536966" lon="0.8949030930990909"><ele>869.9999999999999</ele><time>2026-04-27T15:22:04Z</time></trkpt><trkpt lat="42.35620983103751" lon="0.8947910055020108"><ele>871.9999999999999</ele><time>2026-04-27T15:22:05Z</time></trkpt><trkpt lat="42.35624789947362" lon="0.8946757065476133"><ele>874.0</ele><time>2026-04-27T15:22:06Z</time></trkpt><trkpt lat="42.35628200661241" lon="0.8945607067422213"><ele>876.0</ele><time>2026-04-27T15:22:07Z</time></trkpt><trkpt lat="42.35631799455271" lon="0.8944493587542086"><ele>876.0</ele><time>2026-04-27T15:22:08Z</time></trkpt><trkpt lat="42.3563541709043" lon="0.8943372550449264"><ele>876.0</ele><time>2026-04-27T15:22:09Z</time></trkpt><trkpt lat="42.356388400490715" lon="0.8942232836253805"><ele>876.0</ele><time>2026-04-27T15:22:10Z</time></trkpt><trkpt lat="42.35642154332046" lon="0.8941120283189108"><ele>876.0</ele><time>2026-04-27T15:22:11Z</time></trkpt><trkpt lat="42.35645601008421" lon="0.894001932441764"><ele>876.0</ele><time>2026-04-27T15:22:12Z</time></trkpt><trkpt lat="42.356492097060176" lon="0.8938916369358663"><ele>876.0</ele><time>2026-04-27T15:22:13Z</time></trkpt><trkpt lat="42.35652960144936" lon="0.8937826434108391"><ele>876.0</ele><time>2026-04-27T15:22:14Z</time></trkpt><trkpt lat="42.3565666185783" lon="0.893673449578317"><ele>876.0</ele><time>2026-04-27T15:22:15Z</time></trkpt><trkpt lat="42.35660566936669" lon="0.893568083309471"><ele>876.0</ele><time>2026-04-27T15:22:16Z</time></trkpt><trkpt lat="42.356646900527565" lon="0.8934646893026901"><ele>876.0</ele><time>2026-04-27T15:22:17Z</time></trkpt><trkpt lat="42.35668986209934" lon="0.8933637192772416"><ele>876.0</ele><time>2026-04-27T15:22:18Z</time></trkpt><trkpt lat="42.356734112912896" lon="0.893264453029241"><ele>876.0</ele><time>2026-04-27T15:22:19Z</time></trkpt><trkpt lat="42.35678041174946" lon="0.8931690043051247"><ele>876.0</ele><time>2026-04-27T15:22:20Z</time></trkpt><trkpt lat="42.35682779284895" lon="0.8930767063233412"><ele>876.0</ele><time>2026-04-27T15:22:21Z</time></trkpt><trkpt lat="42.35687694964222" lon="0.89298368771818"><ele>876.0</ele><time>2026-04-27T15:22:22Z</time></trkpt><trkpt lat="42.35693142359037" lon="0.892899783395481"><ele>876.0</ele><time>2026-04-27T15:22:23Z</time></trkpt><trkpt lat="42.356987615871375" lon="0.8928166311223447"><ele>876.0</ele><time>2026-04-27T15:22:24Z</time></trkpt><trkpt lat="42.35704438561368" lon="0.8927333317060544"><ele>876.0</ele><time>2026-04-27T15:22:25Z</time></trkpt><trkpt lat="42.35710312945678" lon="0.8926542156514637"><ele>876.5</ele><time>2026-04-27T15:22:26Z</time></trkpt><trkpt lat="42.357161179087306" lon="0.8925753406357289"><ele>877.0</ele><time>2026-04-27T15:22:27Z</time></trkpt><trkpt lat="42.35722079746846" lon="0.892498331516054"><ele>877.5</ele><time>2026-04-27T15:22:28Z</time></trkpt><trkpt lat="42.35728303202476" lon="0.8924245148838738"><ele>878.0</ele><time>2026-04-27T15:22:29Z</time></trkpt><trkpt lat="42.357348090845264" lon="0.8923560642372993"><ele>878.5</ele><time>2026-04-27T15:22:30Z</time></trkpt><trkpt lat="42.35741268392922" lon="0.8922885070434606"><ele>879.0</ele><time>2026-04-27T15:22:31Z</time></trkpt><trkpt lat="42.35747836423782" lon="0.8922234095179811"><ele>880.8333333333334</ele><time>2026-04-27T15:22:32Z</time></trkpt><trkpt lat="42.35754424143591" lon="0.8921571294132757"><ele>882.6666666666667</ele><time>2026-04-27T15:22:33Z</time></trkpt><trkpt lat="42.357611171801246" lon="0.8920945335850567"><ele>884.5</ele><time>2026-04-27T15:22:34Z</time></trkpt><trkpt lat="42.35767675986837" lon="0.8920295275910932"><ele>886.3333333333334</ele><time>2026-04-27T15:22:35Z</time></trkpt><trkpt lat="42.357742966781856" lon="0.891966077099415"><ele>888.1666666666667</ele><time>2026-04-27T15:22:36Z</time></trkpt><trkpt lat="42.3578103454044" lon="0.8919031977152589"><ele>890.0</ele><time>2026-04-27T15:22:37Z</time></trkpt><trkpt lat="42.3578762100691" lon="0.891838915293197"><ele>890.0000000000001</ele><time>2026-04-27T15:22:38Z</time></trkpt><trkpt lat="42.35794219381861" lon="0.8917750461216779"><ele>890.0</ele><time>2026-04-27T15:22:39Z</time></trkpt><trkpt lat="42.358006591333776" lon="0.8917077834234246"><ele>890.0</ele><time>2026-04-27T15:22:40Z</time></trkpt><trkpt lat="42.35807215664755" lon="0.8916405960784552"><ele>890.0</ele><time>2026-04-27T15:22:41Z</time></trkpt><trkpt lat="42.35813746638981" lon="0.8915700618481688"><ele>890.0000000000001</ele><time>2026-04-27T15:22:42Z</time></trkpt><trkpt lat="42.35819985925055" lon="0.8914976443637159"><ele>890.0</ele><time>2026-04-27T15:22:43.001Z</time></trkpt><trkpt lat="42.35826219685799" lon="0.8914236283079475"><ele>891.1666666666667</ele><time>2026-04-27T15:22:44.001Z</time></trkpt><trkpt lat="42.358324398767834" lon="0.8913490794932588"><ele>892.3333333333334</ele><time>2026-04-27T15:22:45.001Z</time></trkpt><trkpt lat="42.35838496353093" lon="0.8912716712799386"><ele>893.5</ele><time>2026-04-27T15:22:46.001Z</time></trkpt><trkpt lat="42.358444113985264" lon="0.891191280914617"><ele>894.6666666666667</ele><time>2026-04-27T15:22:47.001Z</time></trkpt><trkpt lat="42.35850300847437" lon="0.8911093177881159"><ele>895.8333333333334</ele><time>2026-04-27T15:22:48.001Z</time></trkpt><trkpt lat="42.35855926747123" lon="0.8910220891014621"><ele>897.0</ele><time>2026-04-27T15:22:49.001Z</time></trkpt><trkpt lat="42.3586136401697" lon="0.890934994262352"><ele>895.5</ele><time>2026-04-27T15:22:50.001Z</time></trkpt><trkpt lat="42.35866524062541" lon="0.890843407943033"><ele>894.0</ele><time>2026-04-27T15:22:51.001Z</time></trkpt><trkpt lat="42.35872221282666" lon="0.8907512127069988"><ele>892.5</ele><time>2026-04-27T15:22:52.001Z</time></trkpt><trkpt lat="42.35877745679689" lon="0.8906569795661622"><ele>891.0</ele><time>2026-04-27T15:22:53.001Z</time></trkpt><trkpt lat="42.35882904114942" lon="0.8905622348500429"><ele>889.5</ele><time>2026-04-27T15:22:54.001Z</time></trkpt><trkpt lat="42.35887818836935" lon="0.8904624806004313"><ele>888.0</ele><time>2026-04-27T15:22:55.001Z</time></trkpt><trkpt lat="42.358923889691724" lon="0.8903573125496232"><ele>891.5999999999999</ele><time>2026-04-27T15:22:56.001Z</time></trkpt><trkpt lat="42.358970961396494" lon="0.8902525871991717"><ele>895.1999999999999</ele><time>2026-04-27T15:22:57.001Z</time></trkpt><trkpt lat="42.35901514388015" lon="0.8901479887782432"><ele>898.8</ele><time>2026-04-27T15:22:58.001Z</time></trkpt><trkpt lat="42.359059266292995" lon="0.8900383812941263"><ele>902.4</ele><time>2026-04-27T15:22:59.001Z</time></trkpt><trkpt lat="42.3590995457444" lon="0.8899271881525881"><ele>906.0</ele><time>2026-04-27T15:23:00.001Z</time></trkpt><trkpt lat="42.3591404675749" lon="0.8898150360328343"><ele>906.0</ele><time>2026-04-27T15:23:01.001Z</time></trkpt><trkpt lat="42.35917790331631" lon="0.8897015646330629"><ele>905.9999999999999</ele><time>2026-04-27T15:23:02.001Z</time></trkpt><trkpt lat="42.359215104835656" lon="0.8895886085358577"><ele>905.9999999999999</ele><time>2026-04-27T15:23:03.001Z</time></trkpt><trkpt lat="42.35924594027954" lon="0.8894714859545155"><ele>906.0</ele><time>2026-04-27T15:23:04.001Z</time></trkpt><trkpt lat="42.359279728172744" lon="0.8893505801587709"><ele>906.0</ele><time>2026-04-27T15:23:05.001Z</time></trkpt><trkpt lat="42.35930976313186" lon="0.8892292574577372"><ele>904.5999999999999</ele><time>2026-04-27T15:23:06.001Z</time></trkpt><trkpt lat="42.359339279998906" lon="0.8891092982456236"><ele>903.1999999999999</ele><time>2026-04-27T15:23:07.001Z</time></trkpt><trkpt lat="42.35936848506835" lon="0.8889864744824482"><ele>901.8000000000001</ele><time>2026-04-27T15:23:08.001Z</time></trkpt><trkpt lat="42.35939725511251" lon="0.8888640566758597"><ele>900.4000000000001</ele><time>2026-04-27T15:23:09.001Z</time></trkpt><trkpt lat="42.35941974430844" lon="0.8887412065260284"><ele>899.0</ele><time>2026-04-27T15:23:10.001Z</time></trkpt><trkpt lat="42.35943876397696" lon="0.8886130525408349"><ele>899.0</ele><time>2026-04-27T15:23:11.001Z</time></trkpt><trkpt lat="42.35945561364784" lon="0.8884891911464512"><ele>899.0000000000001</ele><time>2026-04-27T15:23:12.001Z</time></trkpt><trkpt lat="42.35947084460803" lon="0.8883623531165337"><ele>899.0000000000001</ele><time>2026-04-27T15:23:13.001Z</time></trkpt><trkpt lat="42.35948332122758" lon="0.888232914411603"><ele>899.0</ele><time>2026-04-27T15:23:14.001Z</time></trkpt><trkpt lat="42.359493336511356" lon="0.8881004321417398"><ele>899.0</ele><time>2026-04-27T15:23:15.001Z</time></trkpt><trkpt lat="42.3594992118269" lon="0.8879658844072184"><ele>898.2</ele><time>2026-04-27T15:23:16.001Z</time></trkpt><trkpt lat="42.35949689533121" lon="0.8878297674660858"><ele>897.4000000000001</ele><time>2026-04-27T15:23:17.001Z</time></trkpt><trkpt lat="42.359490993668395" lon="0.887695267281662"><ele>896.6</ele><time>2026-04-27T15:23:18.001Z</time></trkpt><trkpt lat="42.35948320031877" lon="0.8875613992729938"><ele>895.8</ele><time>2026-04-27T15:23:19.001Z</time></trkpt><trkpt lat="42.35947151219291" lon="0.8874289996387755"><ele>895.0</ele><time>2026-04-27T15:23:20.001Z</time></trkpt><trkpt lat="42.35946113861161" lon="0.8872941637988564"><ele>894.8</ele><time>2026-04-27T15:23:21.001Z</time></trkpt><trkpt lat="42.35944922056962" lon="0.8871605452415918"><ele>894.6</ele><time>2026-04-27T15:23:22.001Z</time></trkpt><trkpt lat="42.359433218997815" lon="0.8870280055534052"><ele>894.4000000000001</ele><time>2026-04-27T15:23:23.001Z</time></trkpt><trkpt lat="42.3594166925958" lon="0.8868974687530704"><ele>894.2</ele><time>2026-04-27T15:23:24.001Z</time></trkpt><trkpt lat="42.35939635910541" lon="0.8867676422551376"><ele>894.0</ele><time>2026-04-27T15:23:25.001Z</time></trkpt><trkpt lat="42.359370632013935" lon="0.8866391286984661"><ele>895.4000000000001</ele><time>2026-04-27T15:23:26.001Z</time></trkpt><trkpt lat="42.359346699603755" lon="0.8865104426843986"><ele>896.8000000000001</ele><time>2026-04-27T15:23:27.001Z</time></trkpt><trkpt lat="42.35931764167436" lon="0.8863845046099189"><ele>898.1999999999999</ele><time>2026-04-27T15:23:28.001Z</time></trkpt><trkpt lat="42.35928814774671" lon="0.8862601574271282"><ele>899.5999999999999</ele><time>2026-04-27T15:23:29.001Z</time></trkpt><trkpt lat="42.359257063831286" lon="0.8861342335513024"><ele>901.0</ele><time>2026-04-27T15:23:30.001Z</time></trkpt><trkpt lat="42.359225190561524" lon="0.8860085671544046"><ele>903.0</ele><time>2026-04-27T15:23:31.001Z</time></trkpt><trkpt lat="42.359191191266866" lon="0.8858834980215667"><ele>904.9999999999999</ele><time>2026-04-27T15:23:32.001Z</time></trkpt><trkpt lat="42.35915566301431" lon="0.8857540193140323"><ele>906.9999999999999</ele><time>2026-04-27T15:23:33.001Z</time></trkpt><trkpt lat="42.359119233129704" lon="0.8856284249091417"><ele>909.0</ele><time>2026-04-27T15:23:34.001Z</time></trkpt><trkpt lat="42.35908314673712" lon="0.8855012324638117"><ele>911.0</ele><time>2026-04-27T15:23:35.001Z</time></trkpt><trkpt lat="42.359043108142814" lon="0.8853767252626605"><ele>911.0</ele><time>2026-04-27T15:23:36.001Z</time></trkpt><trkpt lat="42.35900605991053" lon="0.8852505291262831"><ele>910.9999999999999</ele><time>2026-04-27T15:23:37.001Z</time></trkpt><trkpt lat="42.35896762264724" lon="0.8851243306678082"><ele>910.9999999999999</ele><time>2026-04-27T15:23:38Z</time></trkpt><trkpt lat="42.35892963596573" lon="0.8849981639327532"><ele>911.0</ele><time>2026-04-27T15:23:39Z</time></trkpt><trkpt lat="42.358892749994986" lon="0.8848720034291683"><ele>911.0</ele><time>2026-04-27T15:23:40Z</time></trkpt><trkpt lat="42.358855486851894" lon="0.884743791953865"><ele>910.0</ele><time>2026-04-27T15:23:41Z</time></trkpt><trkpt lat="42.35881618839558" lon="0.8846157032756822"><ele>908.9999999999999</ele><time>2026-04-27T15:23:42Z</time></trkpt><trkpt lat="42.35877643927417" lon="0.8844872640127045"><ele>907.9999999999999</ele><time>2026-04-27T15:23:43Z</time></trkpt><trkpt lat="42.35873914367706" lon="0.8843569347185969"><ele>907.0</ele><time>2026-04-27T15:23:44Z</time></trkpt><trkpt lat="42.358702586587185" lon="0.8842294676421747"><ele>906.0</ele><time>2026-04-27T15:23:45Z</time></trkpt><trkpt lat="42.35866655837751" lon="0.8841031808226516"><ele>906.0</ele><time>2026-04-27T15:23:46Z</time></trkpt><trkpt lat="42.358627346557476" lon="0.8839803767083763"><ele>905.9999999999999</ele><time>2026-04-27T15:23:47Z</time></trkpt><trkpt lat="42.3585939587705" lon="0.8838522694413912"><ele>905.9999999999999</ele><time>2026-04-27T15:23:48Z</time></trkpt><trkpt lat="42.358560652325885" lon="0.8837228493927264"><ele>906.0</ele><time>2026-04-27T15:23:49Z</time></trkpt><trkpt lat="42.35852638759848" lon="0.8835983820978358"><ele>906.0</ele><time>2026-04-27T15:23:50Z</time></trkpt><trkpt lat="42.35849084900119" lon="0.8834800226209044"><ele>908.8333333333334</ele><time>2026-04-27T15:23:51Z</time></trkpt><trkpt lat="42.358454929358956" lon="0.8833591288182591"><ele>911.6666666666667</ele><time>2026-04-27T15:23:52Z</time></trkpt><trkpt lat="42.358424268799794" lon="0.8832465786726724"><ele>914.5</ele><time>2026-04-27T15:23:53Z</time></trkpt><trkpt lat="42.35839738230275" lon="0.8831395963025706"><ele>917.3333333333334</ele><time>2026-04-27T15:23:54Z</time></trkpt><trkpt lat="42.3583683172848" lon="0.883032524142208"><ele>920.1666666666667</ele><time>2026-04-27T15:23:55Z</time></trkpt><trkpt lat="42.358338797497034" lon="0.8829241423819784"><ele>923.0</ele><time>2026-04-27T15:23:56.015Z</time></trkpt><trkpt lat="42.35831137044207" lon="0.8828137506990374"><ele>923.0000000000001</ele><time>2026-04-27T15:23:57.025Z</time></trkpt><trkpt lat="42.35827906099714" lon="0.8827090902112968"><ele>923.0</ele><time>2026-04-27T15:23:58.016Z</time></trkpt><trkpt lat="42.358245917147066" lon="0.8825997915108665"><ele>923.0</ele><time>2026-04-27T15:23:59.022Z</time></trkpt><trkpt lat="42.35821156944127" lon="0.8824898622010686"><ele>923.0</ele><time>2026-04-27T15:24:00.029Z</time></trkpt><trkpt lat="42.358186143218184" lon="0.8823797124265136"><ele>923.0000000000001</ele><time>2026-04-27T15:24:01Z</time></trkpt><trkpt lat="42.358162544418896" lon="0.8822582962138541"><ele>923.0</ele><time>2026-04-27T15:24:02Z</time></trkpt><trkpt lat="42.35814583715935" lon="0.8820968216581173"><ele>926.1666666666667</ele><time>2026-04-27T15:24:03Z</time></trkpt><trkpt lat="42.35813433210241" lon="0.8819810635779146"><ele>929.3333333333334</ele><time>2026-04-27T15:24:04Z</time></trkpt><trkpt lat="42.35813202247084" lon="0.8818621192402779"><ele>932.5</ele><time>2026-04-27T15:24:05Z</time></trkpt><trkpt lat="42.35812101415201" lon="0.881748000148785"><ele>935.6666666666667</ele><time>2026-04-27T15:24:06Z</time></trkpt><trkpt lat="42.35811495078373" lon="0.8816319900219205"><ele>938.8333333333334</ele><time>2026-04-27T15:24:07Z</time></trkpt><trkpt lat="42.35811399727206" lon="0.8815163559734939"><ele>942.0</ele><time>2026-04-27T15:24:08Z</time></trkpt><trkpt lat="42.358114873375534" lon="0.8813978393743683"><ele>942.5</ele><time>2026-04-27T15:24:09Z</time></trkpt><trkpt lat="42.35811706704373" lon="0.8812830475992804"><ele>943.0</ele><time>2026-04-27T15:24:10Z</time></trkpt><trkpt lat="42.35812081135315" lon="0.8811648462939732"><ele>943.5</ele><time>2026-04-27T15:24:11Z</time></trkpt><trkpt lat="42.35812650433924" lon="0.8810518456468378"><ele>944.0</ele><time>2026-04-27T15:24:12Z</time></trkpt><trkpt lat="42.3581325587255" lon="0.8809382872292211"><ele>944.5</ele><time>2026-04-27T15:24:13Z</time></trkpt><trkpt lat="42.35814179326827" lon="0.8808261749808161"><ele>945.0</ele><time>2026-04-27T15:24:14Z</time></trkpt><trkpt lat="42.35815329229717" lon="0.8807143843494344"><ele>943.6666666666666</ele><time>2026-04-27T15:24:15Z</time></trkpt><trkpt lat="42.35816779796932" lon="0.8806033904878369"><ele>942.3333333333333</ele><time>2026-04-27T15:24:16Z</time></trkpt><trkpt lat="42.35818284273635" lon="0.8804927990873531"><ele>941.0</ele><time>2026-04-27T15:24:17Z</time></trkpt><trkpt lat="42.35820027365217" lon="0.8803825057737616"><ele>939.6666666666666</ele><time>2026-04-27T15:24:18Z</time></trkpt><trkpt lat="42.358217202678794" lon="0.880271634515964"><ele>938.3333333333333</ele><time>2026-04-27T15:24:19Z</time></trkpt><trkpt lat="42.35823723887993" lon="0.8801610196167826"><ele>937.0</ele><time>2026-04-27T15:24:20Z</time></trkpt><trkpt lat="42.35825795674355" lon="0.8800497360474177"><ele>935.1666666666666</ele><time>2026-04-27T15:24:21Z</time></trkpt><trkpt lat="42.358281642386736" lon="0.8799415818877597"><ele>933.3333333333333</ele><time>2026-04-27T15:24:22Z</time></trkpt><trkpt lat="42.35830683880033" lon="0.8798320192391687"><ele>931.5</ele><time>2026-04-27T15:24:23Z</time></trkpt><trkpt lat="42.35833477697782" lon="0.8797244381181202"><ele>929.6666666666667</ele><time>2026-04-27T15:24:24Z</time></trkpt><trkpt lat="42.358364133169864" lon="0.8796176900172329"><ele>927.8333333333334</ele><time>2026-04-27T15:24:25Z</time></trkpt><trkpt lat="42.3583915853256" lon="0.8795088112101519"><ele>926.0</ele><time>2026-04-27T15:24:26Z</time></trkpt><trkpt lat="42.35842368866143" lon="0.8794031112203511"><ele>926.0000000000001</ele><time>2026-04-27T15:24:27Z</time></trkpt><trkpt lat="42.35845498849025" lon="0.8792963561406336"><ele>926.0</ele><time>2026-04-27T15:24:28Z</time></trkpt><trkpt lat="42.35849047119873" lon="0.8791900496108946"><ele>926.0</ele><time>2026-04-27T15:24:29Z</time></trkpt><trkpt lat="42.35852876829354" lon="0.8790934236834026"><ele>926.0</ele><time>2026-04-27T15:24:30Z</time></trkpt><trkpt lat="42.35856552841371" lon="0.8789900483558801"><ele>926.0000000000001</ele><time>2026-04-27T15:24:31Z</time></trkpt><trkpt lat="42.35860495186295" lon="0.8788886950732685"><ele>926.0</ele><time>2026-04-27T15:24:32Z</time></trkpt><trkpt lat="42.35864498247812" lon="0.878789275263843"><ele>925.3333333333334</ele><time>2026-04-27T15:24:33Z</time></trkpt><trkpt lat="42.35868447570705" lon="0.8786918617658936"><ele>924.6666666666667</ele><time>2026-04-27T15:24:34Z</time></trkpt><trkpt lat="42.358727551564265" lon="0.87859426261254"><ele>924.0</ele><time>2026-04-27T15:24:35Z</time></trkpt><trkpt lat="42.35877002483025" lon="0.8784983213195379"><ele>923.3333333333333</ele><time>2026-04-27T15:24:36Z</time></trkpt><trkpt lat="42.35881411361829" lon="0.8784027230638598"><ele>922.6666666666666</ele><time>2026-04-27T15:24:37Z</time></trkpt><trkpt lat="42.35885872090924" lon="0.8783067437388594"><ele>922.0</ele><time>2026-04-27T15:24:38Z</time></trkpt><trkpt lat="42.35890283950395" lon="0.8782115608500992"><ele>926.1666666666666</ele><time>2026-04-27T15:24:39Z</time></trkpt><trkpt lat="42.35894559456065" lon="0.878119268033731"><ele>930.3333333333333</ele><time>2026-04-27T15:24:40Z</time></trkpt><trkpt lat="42.35898822885788" lon="0.87802583502361"><ele>934.5</ele><time>2026-04-27T15:24:41Z</time></trkpt><trkpt lat="42.359030503050455" lon="0.877929898673261"><ele>938.6666666666667</ele><time>2026-04-27T15:24:42Z</time></trkpt><trkpt lat="42.359073247372834" lon="0.8778381285004754"><ele>942.8333333333334</ele><time>2026-04-27T15:24:43.001Z</time></trkpt><trkpt lat="42.35911533481208" lon="0.8777437512337457"><ele>947.0</ele><time>2026-04-27T15:24:44.001Z</time></trkpt><trkpt lat="42.359157016496425" lon="0.8776506485833192"><ele>945.6666666666667</ele><time>2026-04-27T15:24:45.001Z</time></trkpt><trkpt lat="42.35919736871642" lon="0.8775547576229623"><ele>944.3333333333334</ele><time>2026-04-27T15:24:46.001Z</time></trkpt><trkpt lat="42.35923463500196" lon="0.8774599672757475"><ele>943.0</ele><time>2026-04-27T15:24:47.001Z</time></trkpt><trkpt lat="42.35927274945495" lon="0.8773620322420451"><ele>941.6666666666667</ele><time>2026-04-27T15:24:48.001Z</time></trkpt><trkpt lat="42.35931031277476" lon="0.8772657517465561"><ele>940.3333333333334</ele><time>2026-04-27T15:24:49.001Z</time></trkpt><trkpt lat="42.359346582416585" lon="0.8771653283716696"><ele>939.0</ele><time>2026-04-27T15:24:50.001Z</time></trkpt><trkpt lat="42.35938128976919" lon="0.8770668724915137"><ele>939.0</ele><time>2026-04-27T15:24:51.001Z</time></trkpt><trkpt lat="42.359412480302886" lon="0.8769647317724502"><ele>939.0</ele><time>2026-04-27T15:24:52.001Z</time></trkpt><trkpt lat="42.35944298930338" lon="0.8768638547916554"><ele>939.0</ele><time>2026-04-27T15:24:53.001Z</time></trkpt><trkpt lat="42.35947485987382" lon="0.8767671520113746"><ele>939.0</ele><time>2026-04-27T15:24:54.001Z</time></trkpt><trkpt lat="42.35950526521864" lon="0.876665642883438"><ele>939.0</ele><time>2026-04-27T15:24:55.001Z</time></trkpt><trkpt lat="42.35953445227504" lon="0.8765623827455598"><ele>939.0</ele><time>2026-04-27T15:24:56.001Z</time></trkpt><trkpt lat="42.3595625553788" lon="0.8764577974767197"><ele>938.1666666666666</ele><time>2026-04-27T15:24:57.001Z</time></trkpt><trkpt lat="42.35958888409483" lon="0.8763522421948146"><ele>937.3333333333333</ele><time>2026-04-27T15:24:58.001Z</time></trkpt><trkpt lat="42.359616992637704" lon="0.8762479652695044"><ele>936.5</ele><time>2026-04-27T15:24:59.001Z</time></trkpt><trkpt lat="42.35964455299464" lon="0.8761431448501636"><ele>935.6666666666666</ele><time>2026-04-27T15:25:00.001Z</time></trkpt><trkpt lat="42.35967354088982" lon="0.8760381660470203"><ele>934.8333333333333</ele><time>2026-04-27T15:25:01.001Z</time></trkpt><trkpt lat="42.359698303102654" lon="0.8759312023197618"><ele>934.0</ele><time>2026-04-27T15:25:02.001Z</time></trkpt><trkpt lat="42.35972780502825" lon="0.8758250407444861"><ele>937.3333333333333</ele><time>2026-04-27T15:25:03.001Z</time></trkpt><trkpt lat="42.35975419828111" lon="0.8757209752179952"><ele>940.6666666666666</ele><time>2026-04-27T15:25:04.001Z</time></trkpt><trkpt lat="42.359783988137764" lon="0.8756158225852588"><ele>944.0</ele><time>2026-04-27T15:25:05.001Z</time></trkpt><trkpt lat="42.35981184477073" lon="0.8755090636517943"><ele>947.3333333333333</ele><time>2026-04-27T15:25:06.001Z</time></trkpt><trkpt lat="42.359843344857104" lon="0.8754054303085583"><ele>950.6666666666666</ele><time>2026-04-27T15:25:07.001Z</time></trkpt><trkpt lat="42.35987096852262" lon="0.875306546892097"><ele>954.0</ele><time>2026-04-27T15:25:08.001Z</time></trkpt><trkpt lat="42.35989642226057" lon="0.8752049743988312"><ele>954.0</ele><time>2026-04-27T15:25:09.001Z</time></trkpt><trkpt lat="42.35992184487452" lon="0.8751040640251898"><ele>953.9999999999999</ele><time>2026-04-27T15:25:10.001Z</time></trkpt><trkpt lat="42.35996265360365" lon="0.8750179102346176"><ele>954.0</ele><time>2026-04-27T15:25:11.001Z</time></trkpt><trkpt lat="42.359989741442256" lon="0.8749300948298047"><ele>954.0</ele><time>2026-04-27T15:25:12.001Z</time></trkpt><trkpt lat="42.36001717768141" lon="0.8748401851792156"><ele>953.9999999999999</ele><time>2026-04-27T15:25:13.001Z</time></trkpt><trkpt lat="42.360044071256695" lon="0.8747583960454723"><ele>954.0</ele><time>2026-04-27T15:25:14.001Z</time></trkpt><trkpt lat="42.360069645177695" lon="0.8746776384863258"><ele>954.0</ele><time>2026-04-27T15:25:15.001Z</time></trkpt><trkpt lat="42.36011421087384" lon="0.8745869909299936"><ele>954.0</ele><time>2026-04-27T15:25:16.001Z</time></trkpt><trkpt lat="42.36014761216966" lon="0.8744920218264539"><ele>954.0</ele><time>2026-04-27T15:25:17.001Z</time></trkpt><trkpt lat="42.360264498441175" lon="0.8742084994062437"><ele>954.0</ele><time>2026-04-27T15:25:19.001Z</time></trkpt><trkpt lat="42.36031657076873" lon="0.8740871968287688"><ele>954.0</ele><time>2026-04-27T15:25:20.001Z</time></trkpt><trkpt lat="42.36036660215511" lon="0.8739850464179295"><ele>953.6666666666666</ele><time>2026-04-27T15:25:21.001Z</time></trkpt><trkpt lat="42.36041647508072" lon="0.8738828206391867"><ele>953.3333333333333</ele><time>2026-04-27T15:25:22.001Z</time></trkpt><trkpt lat="42.36046821521167" lon="0.8737859622216751"><ele>953.0</ele><time>2026-04-27T15:25:23.001Z</time></trkpt><trkpt lat="42.36052172625602" lon="0.8736922549056333"><ele>952.6666666666666</ele><time>2026-04-27T15:25:24.001Z</time></trkpt><trkpt lat="42.36057501805895" lon="0.8736002280023425"><ele>952.3333333333333</ele><time>2026-04-27T15:25:25.001Z</time></trkpt><trkpt lat="42.36063045168047" lon="0.8735086459286646"><ele>952.0</ele><time>2026-04-27T15:25:26.001Z</time></trkpt><trkpt lat="42.36068635399229" lon="0.8734158279472753"><ele>951.6666666666666</ele><time>2026-04-27T15:25:27.001Z</time></trkpt><trkpt lat="42.36074260510536" lon="0.8733257735294973"><ele>951.3333333333333</ele><time>2026-04-27T15:25:28.001Z</time></trkpt><trkpt lat="42.360799683512056" lon="0.8732371112212709"><ele>951.0</ele><time>2026-04-27T15:25:29.001Z</time></trkpt><trkpt lat="42.36085766515461" lon="0.8731479535091626"><ele>950.6666666666667</ele><time>2026-04-27T15:25:30.001Z</time></trkpt><trkpt lat="42.36091738465597" lon="0.8730597442917485"><ele>950.3333333333334</ele><time>2026-04-27T15:25:31.001Z</time></trkpt><trkpt lat="42.360977407150614" lon="0.872974267171529"><ele>950.0</ele><time>2026-04-27T15:25:32.001Z</time></trkpt><trkpt lat="42.36103820591445" lon="0.8728899704921365"><ele>950.0000000000001</ele><time>2026-04-27T15:25:33.001Z</time></trkpt><trkpt lat="42.36110189861714" lon="0.8728057864067792"><ele>950.0</ele><time>2026-04-27T15:25:34.001Z</time></trkpt><trkpt lat="42.36116676248536" lon="0.8727205955794757"><ele>950.0</ele><time>2026-04-27T15:25:35.001Z</time></trkpt><trkpt lat="42.36123173450327" lon="0.8726371750208791"><ele>950.0</ele><time>2026-04-27T15:25:36.001Z</time></trkpt><trkpt lat="42.36129784853369" lon="0.8725532407453547"><ele>950.0000000000001</ele><time>2026-04-27T15:25:37.001Z</time></trkpt><trkpt lat="42.361364492143636" lon="0.8724738717864777"><ele>950.0</ele><time>2026-04-27T15:25:38.001Z</time></trkpt><trkpt lat="42.36143268186235" lon="0.8723923380541527"><ele>949.8</ele><time>2026-04-27T15:25:39.001Z</time></trkpt><trkpt lat="42.36150250914515" lon="0.8723136455327225"><ele>949.6</ele><time>2026-04-27T15:25:40.001Z</time></trkpt><trkpt lat="42.36158001338412" lon="0.8722366308387289"><ele>949.4000000000001</ele><time>2026-04-27T15:25:41.001Z</time></trkpt><trkpt lat="42.36165566872965" lon="0.8721618888889514"><ele>949.2</ele><time>2026-04-27T15:25:42.001Z</time></trkpt><trkpt lat="42.361731456006545" lon="0.8720869100293824"><ele>949.0</ele><time>2026-04-27T15:25:43.001Z</time></trkpt><trkpt lat="42.36180877303353" lon="0.8720102329716156"><ele>949.0</ele><time>2026-04-27T15:25:44Z</time></trkpt><trkpt lat="42.361885739222934" lon="0.8719362549177814"><ele>949.0000000000001</ele><time>2026-04-27T15:25:45Z</time></trkpt><trkpt lat="42.36196164820631" lon="0.8718634051702822"><ele>949.0000000000001</ele><time>2026-04-27T15:25:46Z</time></trkpt><trkpt lat="42.36203922717754" lon="0.8717916368395319"><ele>949.0</ele><time>2026-04-27T15:25:47Z</time></trkpt><trkpt lat="42.36211618661744" lon="0.8717144826453345"><ele>949.0</ele><time>2026-04-27T15:25:48Z</time></trkpt><trkpt lat="42.36219626216989" lon="0.8716412149922452"><ele>950.0</ele><time>2026-04-27T15:25:49Z</time></trkpt><trkpt lat="42.362277014971205" lon="0.8715658956883598"><ele>951.0000000000001</ele><time>2026-04-27T15:25:50Z</time></trkpt><trkpt lat="42.36236020817501" lon="0.8714883121112373"><ele>952.0000000000001</ele><time>2026-04-27T15:25:51Z</time></trkpt><trkpt lat="42.36244008579436" lon="0.8714071716542179"><ele>953.0</ele><time>2026-04-27T15:25:52Z</time></trkpt><trkpt lat="42.36251853978515" lon="0.8713244012013858"><ele>954.0</ele><time>2026-04-27T15:25:53Z</time></trkpt><trkpt lat="42.36259607318134" lon="0.8712379212215342"><ele>954.0</ele><time>2026-04-27T15:25:54Z</time></trkpt><trkpt lat="42.36267230500276" lon="0.8711498123511047"><ele>954.0000000000001</ele><time>2026-04-27T15:25:55Z</time></trkpt><trkpt lat="42.36274548620367" lon="0.871058104708089"><ele>954.0000000000001</ele><time>2026-04-27T15:25:56Z</time></trkpt><trkpt lat="42.36281678493308" lon="0.8709638962943941"><ele>954.0</ele><time>2026-04-27T15:25:57Z</time></trkpt><trkpt lat="42.36288616346172" lon="0.8708653427339318"><ele>954.0</ele><time>2026-04-27T15:25:58Z</time></trkpt><trkpt lat="42.3629532805285" lon="0.8707641696117661"><ele>955.0</ele><time>2026-04-27T15:25:59Z</time></trkpt><trkpt lat="42.36301761617537" lon="0.870659714183309"><ele>956.0000000000001</ele><time>2026-04-27T15:26:00Z</time></trkpt><trkpt lat="42.36308003815006" lon="0.8705522700153565"><ele>957.0000000000001</ele><time>2026-04-27T15:26:01Z</time></trkpt><trkpt lat="42.363139489040506" lon="0.8704439969111819"><ele>958.0</ele><time>2026-04-27T15:26:02Z</time></trkpt><trkpt lat="42.3631963502177" lon="0.8703325581180585"><ele>959.0</ele><time>2026-04-27T15:26:03Z</time></trkpt><trkpt lat="42.36324916569027" lon="0.8702188405211084"><ele>961.6</ele><time>2026-04-27T15:26:04Z</time></trkpt><trkpt lat="42.36329798038303" lon="0.8701082183554592"><ele>964.2</ele><time>2026-04-27T15:26:05Z</time></trkpt><trkpt lat="42.36334280110774" lon="0.8699896050147569"><ele>966.8000000000001</ele><time>2026-04-27T15:26:06Z</time></trkpt><trkpt lat="42.36338349908649" lon="0.8698673787464146"><ele>969.4000000000001</ele><time>2026-04-27T15:26:07Z</time></trkpt><trkpt lat="42.363431234102876" lon="0.869747515370587"><ele>972.0</ele><time>2026-04-27T15:26:08Z</time></trkpt><trkpt lat="42.36347511771585" lon="0.8696297415763493"><ele>972.0</ele><time>2026-04-27T15:26:09Z</time></trkpt><trkpt lat="42.363512358326915" lon="0.8695096199933915"><ele>972.0</ele><time>2026-04-27T15:26:10Z</time></trkpt><trkpt lat="42.3635493789123" lon="0.8693866901632763"><ele>972.0</ele><time>2026-04-27T15:26:11Z</time></trkpt><trkpt lat="42.36358442134423" lon="0.8692623317307433"><ele>972.0</ele><time>2026-04-27T15:26:12Z</time></trkpt><trkpt lat="42.36361826294014" lon="0.8691403044296043"><ele>972.0</ele><time>2026-04-27T15:26:13Z</time></trkpt><trkpt lat="42.36365107311791" lon="0.8690158449486121"><ele>974.8</ele><time>2026-04-27T15:26:14Z</time></trkpt><trkpt lat="42.36368610018757" lon="0.8688943576700556"><ele>977.6</ele><time>2026-04-27T15:26:15Z</time></trkpt><trkpt lat="42.363723216940095" lon="0.8687760291581751"><ele>980.3999999999999</ele><time>2026-04-27T15:26:16Z</time></trkpt><trkpt lat="42.36375861524646" lon="0.8686635101101087"><ele>983.1999999999999</ele><time>2026-04-27T15:26:17Z</time></trkpt><trkpt lat="42.36379768501641" lon="0.8685511129951198"><ele>986.0</ele><time>2026-04-27T15:26:18Z</time></trkpt><trkpt lat="42.36383770487558" lon="0.8684444387361259"><ele>983.1666666666667</ele><time>2026-04-27T15:26:19Z</time></trkpt><trkpt lat="42.36389111898518" lon="0.8683437802979587"><ele>980.3333333333334</ele><time>2026-04-27T15:26:20Z</time></trkpt><trkpt lat="42.36395731479499" lon="0.8682635374464295"><ele>977.5</ele><time>2026-04-27T15:26:21Z</time></trkpt><trkpt lat="42.36403073706813" lon="0.8681993603031687"><ele>974.6666666666667</ele><time>2026-04-27T15:26:22Z</time></trkpt><trkpt lat="42.36410195317383" lon="0.8681473876627374"><ele>971.8333333333334</ele><time>2026-04-27T15:26:23Z</time></trkpt><trkpt lat="42.36416148212486" lon="0.86809999515851"><ele>969.0</ele><time>2026-04-27T15:26:24Z</time></trkpt><trkpt lat="42.36422551218036" lon="0.8679646449522096"><ele>969.0</ele><time>2026-04-27T15:26:26Z</time></trkpt><trkpt lat="42.36417076208062" lon="0.8678373044622071"><ele>969.0000000000001</ele><time>2026-04-27T15:26:28Z</time></trkpt><trkpt lat="42.36405423217498" lon="0.8678447379805638"><ele>969.0000000000001</ele><time>2026-04-27T15:26:30Z</time></trkpt><trkpt lat="42.36395502606235" lon="0.8679464848458799"><ele>969.0</ele><time>2026-04-27T15:26:32Z</time></trkpt><trkpt lat="42.36390729231533" lon="0.868003926595459"><ele>969.0</ele><time>2026-04-27T15:26:33Z</time></trkpt><trkpt lat="42.363856852325576" lon="0.868062817809821"><ele>969.0</ele><time>2026-04-27T15:26:34Z</time></trkpt><trkpt lat="42.363796765332694" lon="0.8680983899328986"><ele>969.0000000000001</ele><time>2026-04-27T15:26:35Z</time></trkpt><trkpt lat="42.3636926683848" lon="0.868044154223272"><ele>969.0000000000001</ele><time>2026-04-27T15:26:37Z</time></trkpt><trkpt lat="42.363697365027186" lon="0.8679030032522473"><ele>969.0</ele><time>2026-04-27T15:26:39Z</time></trkpt><trkpt lat="42.3638019012686" lon="0.8678342184170267"><ele>969.0</ele><time>2026-04-27T15:26:41Z</time></trkpt><trkpt lat="42.36391205724102" lon="0.8677863510600784"><ele>969.0</ele><time>2026-04-27T15:26:43Z</time></trkpt><trkpt lat="42.36402901915789" lon="0.8677107892934617"><ele>969.0</ele><time>2026-04-27T15:26:45Z</time></trkpt><trkpt lat="42.36408665855707" lon="0.8676603987329694"><ele>969.0</ele><time>2026-04-27T15:26:46Z</time></trkpt><trkpt lat="42.36414125249112" lon="0.8676015837738208"><ele>969.0</ele><time>2026-04-27T15:26:47Z</time></trkpt><trkpt lat="42.36419073560322" lon="0.8675326743218976"><ele>969.0</ele><time>2026-04-27T15:26:48Z</time></trkpt><trkpt lat="42.36423461616158" lon="0.8674561981709747"><ele>969.0</ele><time>2026-04-27T15:26:49Z</time></trkpt><trkpt lat="42.36426885271433" lon="0.8673747273172098"><ele>971.142857142857</ele><time>2026-04-27T15:26:50Z</time></trkpt><trkpt lat="42.36429979487334" lon="0.8672902133609814"><ele>973.2857142857142</ele><time>2026-04-27T15:26:51.001Z</time></trkpt><trkpt lat="42.364322400526575" lon="0.8672028168191571"><ele>975.4285714285714</ele><time>2026-04-27T15:26:52.001Z</time></trkpt><trkpt lat="42.364343093803484" lon="0.8671128937890924"><ele>977.5714285714286</ele><time>2026-04-27T15:26:53.001Z</time></trkpt><trkpt lat="42.36436256279433" lon="0.8670219820856143"><ele>979.7142857142858</ele><time>2026-04-27T15:26:54.001Z</time></trkpt><trkpt lat="42.36438207719431" lon="0.8669330502817065"><ele>981.857142857143</ele><time>2026-04-27T15:26:55.001Z</time></trkpt><trkpt lat="42.36439870374339" lon="0.8668427199779167"><ele>984.0000000000001</ele><time>2026-04-27T15:26:56.001Z</time></trkpt><trkpt lat="42.36441729854503" lon="0.8667551942768775"><ele>987.0000000000001</ele><time>2026-04-27T15:26:57.001Z</time></trkpt><trkpt lat="42.36443493576621" lon="0.866667783035219"><ele>990.0</ele><time>2026-04-27T15:26:58.001Z</time></trkpt><trkpt lat="42.3644555287495" lon="0.8665812085084075"><ele>993.0000000000001</ele><time>2026-04-27T15:26:59.001Z</time></trkpt><trkpt lat="42.36447894741721" lon="0.8664928314060211"><ele>996.0000000000001</ele><time>2026-04-27T15:27:00.001Z</time></trkpt><trkpt lat="42.364506981144395" lon="0.8664054100144529"><ele>999.0</ele><time>2026-04-27T15:27:01.001Z</time></trkpt><trkpt lat="42.3645402525937" lon="0.8663196694207764"><ele>1002.0000000000001</ele><time>2026-04-27T15:27:02.001Z</time></trkpt><trkpt lat="42.36457972539974" lon="0.866238932337751"><ele>1005.0000000000001</ele><time>2026-04-27T15:27:03.001Z</time></trkpt><trkpt lat="42.36461789411184" lon="0.8661598546134571"><ele>1005.0000000000001</ele><time>2026-04-27T15:27:04.001Z</time></trkpt><trkpt lat="42.364656513404945" lon="0.8660800057620265"><ele>1005.0</ele><time>2026-04-27T15:27:05.001Z</time></trkpt><trkpt lat="42.364692901284485" lon="0.8659975942257179"><ele>1005.0000000000001</ele><time>2026-04-27T15:27:06.001Z</time></trkpt><trkpt lat="42.36473016378939" lon="0.8659110420921523"><ele>1005.0000000000001</ele><time>2026-04-27T15:27:07.001Z</time></trkpt><trkpt lat="42.364767659177204" lon="0.8658262783455497"><ele>1005.0</ele><time>2026-04-27T15:27:08.001Z</time></trkpt><trkpt lat="42.36480348219938" lon="0.8657409200109449"><ele>1005.0000000000001</ele><time>2026-04-27T15:27:09.001Z</time></trkpt><trkpt lat="42.364841060363496" lon="0.8656564003094559"><ele>1005.0000000000001</ele><time>2026-04-27T15:27:10.001Z</time></trkpt><trkpt lat="42.36488051240203" lon="0.8655717907587815"><ele>1003.5714285714287</ele><time>2026-04-27T15:27:11.001Z</time></trkpt><trkpt lat="42.36491955983113" lon="0.8654874003905457"><ele>1002.1428571428571</ele><time>2026-04-27T15:27:12.001Z</time></trkpt><trkpt lat="42.36495815348336" lon="0.8654016767974834"><ele>1000.7142857142858</ele><time>2026-04-27T15:27:13.001Z</time></trkpt><trkpt lat="42.36499736718365" lon="0.865318900908607"><ele>999.2857142857143</ele><time>2026-04-27T15:27:14.001Z</time></trkpt><trkpt lat="42.36505472598952" lon="0.865252401899181"><ele>997.8571428571429</ele><time>2026-04-27T15:27:15.001Z</time></trkpt><trkpt lat="42.36510046037662" lon="0.8651757805326823"><ele>996.4285714285714</ele><time>2026-04-27T15:27:16.001Z</time></trkpt><trkpt lat="42.36514814909562" lon="0.8651025273438978"><ele>995.0</ele><time>2026-04-27T15:27:17.001Z</time></trkpt><trkpt lat="42.36518957257735" lon="0.865017703365848"><ele>997.0</ele><time>2026-04-27T15:27:18.001Z</time></trkpt><trkpt lat="42.36524701372301" lon="0.8649574050247317"><ele>999.0</ele><time>2026-04-27T15:27:19.001Z</time></trkpt><trkpt lat="42.365314282182325" lon="0.86491166724223"><ele>1001.0</ele><time>2026-04-27T15:27:20.001Z</time></trkpt><trkpt lat="42.36538488722554" lon="0.8648847768382665"><ele>1003.0</ele><time>2026-04-27T15:27:21.001Z</time></trkpt><trkpt lat="42.36545599811005" lon="0.8648665967281073"><ele>1005.0</ele><time>2026-04-27T15:27:22.001Z</time></trkpt><trkpt lat="42.365526709633926" lon="0.8648512896923087"><ele>1007.0</ele><time>2026-04-27T15:27:23.001Z</time></trkpt><trkpt lat="42.365595982157046" lon="0.8648316400609303"><ele>1009.0</ele><time>2026-04-27T15:27:24.001Z</time></trkpt><trkpt lat="42.365668966109276" lon="0.8648098225150791"><ele>1009.0</ele><time>2026-04-27T15:27:25.001Z</time></trkpt><trkpt lat="42.365730626145826" lon="0.8647503494264889"><ele>1009.0</ele><time>2026-04-27T15:27:26.001Z</time></trkpt><trkpt lat="42.36577098511475" lon="0.8646614932152854"><ele>1009.0</ele><time>2026-04-27T15:27:27.001Z</time></trkpt><trkpt lat="42.36582332916619" lon="0.8645897491628529"><ele>1009.0</ele><time>2026-04-27T15:27:28.001Z</time></trkpt><trkpt lat="42.36587645599412" lon="0.8645172342502832"><ele>1009.0</ele><time>2026-04-27T15:27:29.001Z</time></trkpt><trkpt lat="42.365924333122436" lon="0.8644423488582833"><ele>1009.0</ele><time>2026-04-27T15:27:30.001Z</time></trkpt><trkpt lat="42.36597045711785" lon="0.8643656390750603"><ele>1009.0</ele><time>2026-04-27T15:27:31.001Z</time></trkpt><trkpt lat="42.36601552852478" lon="0.8642885974026916"><ele>1011.0</ele><time>2026-04-27T15:27:32.001Z</time></trkpt><trkpt lat="42.36605981601721" lon="0.8642091381429317"><ele>1013.0</ele><time>2026-04-27T15:27:33.001Z</time></trkpt><trkpt lat="42.36610464606186" lon="0.8641318746494376"><ele>1015.0</ele><time>2026-04-27T15:27:34.001Z</time></trkpt><trkpt lat="42.366150725409774" lon="0.8640540718857455"><ele>1017.0</ele><time>2026-04-27T15:27:35.001Z</time></trkpt><trkpt lat="42.36619652899787" lon="0.8639765416042586"><ele>1019.0</ele><time>2026-04-27T15:27:36.001Z</time></trkpt><trkpt lat="42.36624248173755" lon="0.8638969832615694"><ele>1021.0</ele><time>2026-04-27T15:27:37.001Z</time></trkpt><trkpt lat="42.36628825903968" lon="0.8638165450811859"><ele>1023.0</ele><time>2026-04-27T15:27:38.001Z</time></trkpt><trkpt lat="42.36633524827179" lon="0.8637381009520605"><ele>1023.4285714285714</ele><time>2026-04-27T15:27:39.001Z</time></trkpt><trkpt lat="42.36638682304814" lon="0.8636635185203655"><ele>1023.8571428571429</ele><time>2026-04-27T15:27:40.001Z</time></trkpt><trkpt lat="42.36643351178817" lon="0.8635859267817406"><ele>1024.2857142857142</ele><time>2026-04-27T15:27:41.001Z</time></trkpt><trkpt lat="42.36647872491383" lon="0.8635066426952446"><ele>1024.7142857142858</ele><time>2026-04-27T15:27:42.001Z</time></trkpt><trkpt lat="42.36652394439223" lon="0.8634275872984783"><ele>1025.142857142857</ele><time>2026-04-27T15:27:43.001Z</time></trkpt><trkpt lat="42.366562379398104" lon="0.8633451520825408"><ele>1025.5714285714287</ele><time>2026-04-27T15:27:44.001Z</time></trkpt><trkpt lat="42.366589832302786" lon="0.8632561713608303"><ele>1026.0</ele><time>2026-04-27T15:27:45.001Z</time></trkpt><trkpt lat="42.36661102969759" lon="0.8631664580277051"><ele>1026.0000000000002</ele><time>2026-04-27T15:27:46.001Z</time></trkpt><trkpt lat="42.36662524551937" lon="0.8630750820413278"><ele>1026.0</ele><time>2026-04-27T15:27:47.001Z</time></trkpt><trkpt lat="42.36662887068564" lon="0.8629816543784516"><ele>1026.0</ele><time>2026-04-27T15:27:48.001Z</time></trkpt><trkpt lat="42.366627210459875" lon="0.862885349863283"><ele>1026.0</ele><time>2026-04-27T15:27:49.001Z</time></trkpt><trkpt lat="42.366624343204336" lon="0.8627896692413423"><ele>1026.0</ele><time>2026-04-27T15:27:50Z</time></trkpt><trkpt lat="42.36662055123437" lon="0.8626945806140264"><ele>1026.0000000000002</ele><time>2026-04-27T15:27:51Z</time></trkpt><trkpt lat="42.36661584410764" lon="0.8625987908596046"><ele>1026.0</ele><time>2026-04-27T15:27:52Z</time></trkpt><trkpt lat="42.366607983896856" lon="0.862503522977669"><ele>1026.7142857142858</ele><time>2026-04-27T15:27:53Z</time></trkpt><trkpt lat="42.36659910425285" lon="0.8624057554855131"><ele>1027.4285714285716</ele><time>2026-04-27T15:27:54Z</time></trkpt><trkpt lat="42.366586286475105" lon="0.8623080843556749"><ele>1028.142857142857</ele><time>2026-04-27T15:27:55Z</time></trkpt><trkpt lat="42.36656510466555" lon="0.8622154136293303"><ele>1028.857142857143</ele><time>2026-04-27T15:27:56Z</time></trkpt><trkpt lat="42.36654273137037" lon="0.8621237652094084"><ele>1029.5714285714284</ele><time>2026-04-27T15:27:57Z</time></trkpt><trkpt lat="42.36651751780765" lon="0.8620320737565792"><ele>1030.2857142857142</ele><time>2026-04-27T15:27:58Z</time></trkpt><trkpt lat="42.36649080617854" lon="0.8619410458962988"><ele>1031.0</ele><time>2026-04-27T15:27:59Z</time></trkpt><trkpt lat="42.3664607331349" lon="0.8618522379495648"><ele>1032.857142857143</ele><time>2026-04-27T15:28:00Z</time></trkpt><trkpt lat="42.3664280753635" lon="0.8617623452071055"><ele>1034.7142857142856</ele><time>2026-04-27T15:28:01Z</time></trkpt><trkpt lat="42.366395674864016" lon="0.8616710254622875"><ele>1036.5714285714284</ele><time>2026-04-27T15:28:02Z</time></trkpt><trkpt lat="42.36636335035514" lon="0.8615834096993322"><ele>1038.4285714285713</ele><time>2026-04-27T15:28:03Z</time></trkpt><trkpt lat="42.36633576850241" lon="0.8614892124724851"><ele>1040.2857142857142</ele><time>2026-04-27T15:28:04Z</time></trkpt><trkpt lat="42.36631001159079" lon="0.8613950299142522"><ele>1042.142857142857</ele><time>2026-04-27T15:28:05Z</time></trkpt><trkpt lat="42.3662876457232" lon="0.8613001446328072"><ele>1044.0</ele><time>2026-04-27T15:28:06Z</time></trkpt><trkpt lat="42.36626762679488" lon="0.8612046058519843"><ele>1044.0</ele><time>2026-04-27T15:28:07Z</time></trkpt><trkpt lat="42.36624696669143" lon="0.8611107843898637"><ele>1044.0</ele><time>2026-04-27T15:28:08Z</time></trkpt><trkpt lat="42.36622336143087" lon="0.8610186536614124"><ele>1044.0</ele><time>2026-04-27T15:28:09Z</time></trkpt><trkpt lat="42.36619249821113" lon="0.8609303391262374"><ele>1044.0</ele><time>2026-04-27T15:28:10Z</time></trkpt><trkpt lat="42.36615663967888" lon="0.8608436770354093"><ele>1044.0</ele><time>2026-04-27T15:28:11Z</time></trkpt><trkpt lat="42.366119037929636" lon="0.8607600474658923"><ele>1044.0</ele><time>2026-04-27T15:28:12Z</time></trkpt><trkpt lat="42.366079032925754" lon="0.860679532215244"><ele>1044.0</ele><time>2026-04-27T15:28:13Z</time></trkpt><trkpt lat="42.36603673273477" lon="0.8606017700037908"><ele>1044.0</ele><time>2026-04-27T15:28:14Z</time></trkpt><trkpt lat="42.36599498653858" lon="0.860523267325695"><ele>1044.0</ele><time>2026-04-27T15:28:15Z</time></trkpt><trkpt lat="42.365952074202845" lon="0.8604492988734838"><ele>1044.0</ele><time>2026-04-27T15:28:16Z</time></trkpt><trkpt lat="42.36592895780904" lon="0.860364870783048"><ele>1044.0</ele><time>2026-04-27T15:28:17Z</time></trkpt><trkpt lat="42.36589966770804" lon="0.8602360915346642"><ele>1044.0</ele><time>2026-04-27T15:28:19Z</time></trkpt><trkpt lat="42.36598312267543" lon="0.860174992400293"><ele>1044.0</ele><time>2026-04-27T15:28:21Z</time></trkpt><trkpt lat="42.36606209135029" lon="0.8602673502262318"><ele>1044.0</ele><time>2026-04-27T15:28:23Z</time></trkpt><trkpt lat="42.366112030893106" lon="0.8603963479175031"><ele>1044.0</ele><time>2026-04-27T15:28:25Z</time></trkpt><trkpt lat="42.36618313767706" lon="0.8605279653634594"><ele>1044.0</ele><time>2026-04-27T15:28:27Z</time></trkpt><trkpt lat="42.36622621553345" lon="0.8605943766614456"><ele>1044.0</ele><time>2026-04-27T15:28:28Z</time></trkpt><trkpt lat="42.36626921397159" lon="0.860663828510534"><ele>1044.0</ele><time>2026-04-27T15:28:29Z</time></trkpt><trkpt lat="42.36631177353449" lon="0.8607384512246908"><ele>1044.0</ele><time>2026-04-27T15:28:30Z</time></trkpt><trkpt lat="42.36635286885718" lon="0.8608176103132871"><ele>1044.0</ele><time>2026-04-27T15:28:31Z</time></trkpt><trkpt lat="42.36639484033561" lon="0.8608972285575127"><ele>1044.0</ele><time>2026-04-27T15:28:32Z</time></trkpt><trkpt lat="42.366441965040714" lon="0.8609741088892113"><ele>1044.0</ele><time>2026-04-27T15:28:33Z</time></trkpt><trkpt lat="42.36648984262733" lon="0.8610519350112308"><ele>1044.0</ele><time>2026-04-27T15:28:34Z</time></trkpt><trkpt lat="42.36653405886381" lon="0.8611339680118714"><ele>1044.0</ele><time>2026-04-27T15:28:35Z</time></trkpt><trkpt lat="42.36657578162147" lon="0.8612204270883901"><ele>1044.0</ele><time>2026-04-27T15:28:36Z</time></trkpt><trkpt lat="42.366613371243396" lon="0.8613090791603472"><ele>1044.0</ele><time>2026-04-27T15:28:37Z</time></trkpt><trkpt lat="42.366647896586755" lon="0.8614010288181188"><ele>1044.0</ele><time>2026-04-27T15:28:38Z</time></trkpt><trkpt lat="42.36668094531606" lon="0.8614943808698692"><ele>1044.0</ele><time>2026-04-27T15:28:39Z</time></trkpt><trkpt lat="42.366716484748274" lon="0.861583632598916"><ele>1044.0</ele><time>2026-04-27T15:28:40Z</time></trkpt><trkpt lat="42.36675489009243" lon="0.8616729502128466"><ele>1044.0</ele><time>2026-04-27T15:28:41Z</time></trkpt><trkpt lat="42.36679513869197" lon="0.8617595204118101"><ele>1044.0</ele><time>2026-04-27T15:28:42Z</time></trkpt><trkpt lat="42.36683620463363" lon="0.8618456906474485"><ele>1044.0</ele><time>2026-04-27T15:28:43Z</time></trkpt><trkpt lat="42.366880365999535" lon="0.8619263108344146"><ele>1044.0</ele><time>2026-04-27T15:28:44Z</time></trkpt><trkpt lat="42.36692408820946" lon="0.8620060925674751"><ele>1044.0</ele><time>2026-04-27T15:28:45Z</time></trkpt><trkpt lat="42.36696579146011" lon="0.8620877633738897"><ele>1044.0</ele><time>2026-04-27T15:28:46Z</time></trkpt><trkpt lat="42.36700526322406" lon="0.8621717723533818"><ele>1044.0</ele><time>2026-04-27T15:28:47Z</time></trkpt><trkpt lat="42.36704811022342" lon="0.8622523493649614"><ele>1044.0</ele><time>2026-04-27T15:28:48Z</time></trkpt><trkpt lat="42.36709655977841" lon="0.8623205711751097"><ele>1044.0</ele><time>2026-04-27T15:28:49Z</time></trkpt><trkpt lat="42.36721072960495" lon="0.8623753263613091"><ele>1044.0</ele><time>2026-04-27T15:28:51Z</time></trkpt><trkpt lat="42.36727566129163" lon="0.8623444449214398"><ele>1044.0</ele><time>2026-04-27T15:28:52Z</time></trkpt><trkpt lat="42.367326248771946" lon="0.8622890351804284"><ele>1044.0</ele><time>2026-04-27T15:28:53Z</time></trkpt><trkpt lat="42.36736483645785" lon="0.862219656841114"><ele>1044.0</ele><time>2026-04-27T15:28:54.001Z</time></trkpt><trkpt lat="42.367397198326024" lon="0.8621446198771466"><ele>1044.0</ele><time>2026-04-27T15:28:55Z</time></trkpt><trkpt lat="42.36742665097315" lon="0.8620688951152085"><ele>1044.0</ele><time>2026-04-27T15:28:56Z</time></trkpt><trkpt lat="42.36745286648621" lon="0.8619909644844114"><ele>1044.0</ele><time>2026-04-27T15:28:57Z</time></trkpt><trkpt lat="42.36749121855018" lon="0.8618380349706825"><ele>1046.5</ele><time>2026-04-27T15:28:59.001Z</time></trkpt><trkpt lat="42.36749910362091" lon="0.8616818557500128"><ele>1049.0</ele><time>2026-04-27T15:29:01.001Z</time></trkpt><trkpt lat="42.36749562029676" lon="0.861520964422283"><ele>1051.5</ele><time>2026-04-27T15:29:03.001Z</time></trkpt><trkpt lat="42.36749758897267" lon="0.8613564043110324"><ele>1054.0</ele><time>2026-04-27T15:29:05.001Z</time></trkpt><trkpt lat="42.367509736309536" lon="0.8611914708038244"><ele>1054.0</ele><time>2026-04-27T15:29:07.001Z</time></trkpt><trkpt lat="42.36753681826371" lon="0.8611119446519363"><ele>1054.0</ele><time>2026-04-27T15:29:08.001Z</time></trkpt><trkpt lat="42.36756768135096" lon="0.8610373734827945"><ele>1054.0</ele><time>2026-04-27T15:29:09.001Z</time></trkpt><trkpt lat="42.367606900735595" lon="0.8609652362786508"><ele>1054.0</ele><time>2026-04-27T15:29:10.001Z</time></trkpt><trkpt lat="42.36764880130223" lon="0.8608983577038818"><ele>1054.0</ele><time>2026-04-27T15:29:11.001Z</time></trkpt><trkpt lat="42.367704033789764" lon="0.8607459949288386"><ele>1054.0</ele><time>2026-04-27T15:29:13.001Z</time></trkpt><trkpt lat="42.3676992545496" lon="0.8606569195945853"><ele>1055.7142857142858</ele><time>2026-04-27T15:29:14.001Z</time></trkpt><trkpt lat="42.3676681477848" lon="0.860578631581461"><ele>1057.4285714285716</ele><time>2026-04-27T15:29:15.001Z</time></trkpt><trkpt lat="42.367616225097905" lon="0.8605239128488987"><ele>1059.142857142857</ele><time>2026-04-27T15:29:16.001Z</time></trkpt><trkpt lat="42.3675540319113" lon="0.8605075455846857"><ele>1060.857142857143</ele><time>2026-04-27T15:29:17.001Z</time></trkpt><trkpt lat="42.36748866488554" lon="0.860531547035231"><ele>1062.5714285714284</ele><time>2026-04-27T15:29:18.001Z</time></trkpt><trkpt lat="42.36743403310218" lon="0.8606019773624247"><ele>1064.2857142857142</ele><time>2026-04-27T15:29:19.001Z</time></trkpt><trkpt lat="42.36739693374557" lon="0.8606883247407251"><ele>1066.0</ele><time>2026-04-27T15:29:20.001Z</time></trkpt><trkpt lat="42.367374821744995" lon="0.8607857164307732"><ele>1066.0</ele><time>2026-04-27T15:29:21.001Z</time></trkpt><trkpt lat="42.367362224961795" lon="0.8608936879562175"><ele>1066.0</ele><time>2026-04-27T15:29:22.001Z</time></trkpt><trkpt lat="42.36735466614116" lon="0.8609997537442783"><ele>1066.0</ele><time>2026-04-27T15:29:23.001Z</time></trkpt><trkpt lat="42.36732221541825" lon="0.8610971352417258"><ele>1066.0</ele><time>2026-04-27T15:29:24.001Z</time></trkpt><trkpt lat="42.367303093845884" lon="0.861196823228789"><ele>1066.0</ele><time>2026-04-27T15:29:25.001Z</time></trkpt><trkpt lat="42.367285012489475" lon="0.861281173386591"><ele>1066.0</ele><time>2026-04-27T15:29:26.001Z</time></trkpt><trkpt lat="42.367181199296375" lon="0.8613181997931826"><ele>1064.2</ele><time>2026-04-27T15:29:28.001Z</time></trkpt><trkpt lat="42.36712061139934" lon="0.8611872949288045"><ele>1062.3999999999999</ele><time>2026-04-27T15:29:30.001Z</time></trkpt><trkpt lat="42.367115091937556" lon="0.8610302690035901"><ele>1060.6</ele><time>2026-04-27T15:29:32.001Z</time></trkpt><trkpt lat="42.36710770573327" lon="0.8608711756861819"><ele>1058.8</ele><time>2026-04-27T15:29:34.001Z</time></trkpt><trkpt lat="42.36710347227718" lon="0.8607856996093539"><ele>1057.0</ele><time>2026-04-27T15:29:35.001Z</time></trkpt><trkpt lat="42.36709985919906" lon="0.8606986998491556"><ele>1057.0</ele><time>2026-04-27T15:29:36.001Z</time></trkpt><trkpt lat="42.36710412049841" lon="0.8606083538623505"><ele>1057.0</ele><time>2026-04-27T15:29:37.001Z</time></trkpt><trkpt lat="42.367110752880826" lon="0.8605143790724511"><ele>1057.0</ele><time>2026-04-27T15:29:38.001Z</time></trkpt><trkpt lat="42.36712272344915" lon="0.8604194407403093"><ele>1057.0</ele><time>2026-04-27T15:29:39.001Z</time></trkpt><trkpt lat="42.36714632504761" lon="0.8603282368347817"><ele>1057.0</ele><time>2026-04-27T15:29:40.001Z</time></trkpt><trkpt lat="42.36718760341601" lon="0.8602479293511569"><ele>1057.0</ele><time>2026-04-27T15:29:41.001Z</time></trkpt><trkpt lat="42.36724260240525" lon="0.8601855313788844"><ele>1057.0</ele><time>2026-04-27T15:29:42.001Z</time></trkpt><trkpt lat="42.36730529235163" lon="0.860145477488345"><ele>1061.6666666666665</ele><time>2026-04-27T15:29:43.001Z</time></trkpt><trkpt lat="42.36737044083851" lon="0.8601160766834195"><ele>1066.3333333333333</ele><time>2026-04-27T15:29:44.001Z</time></trkpt><trkpt lat="42.36743413191006" lon="0.8600828157097345"><ele>1071.0</ele><time>2026-04-27T15:29:45.001Z</time></trkpt><trkpt lat="42.367497887791416" lon="0.8600487174717503"><ele>1075.6666666666667</ele><time>2026-04-27T15:29:46.001Z</time></trkpt><trkpt lat="42.36755998823507" lon="0.8600110868777835"><ele>1080.3333333333335</ele><time>2026-04-27T15:29:47.001Z</time></trkpt><trkpt lat="42.36761593134065" lon="0.859960728838674"><ele>1085.0</ele><time>2026-04-27T15:29:48.001Z</time></trkpt><trkpt lat="42.36765773467222" lon="0.859800144452831"><ele>1085.0</ele><time>2026-04-27T15:29:50.001Z</time></trkpt><trkpt lat="42.36763693467344" lon="0.8597154761911188"><ele>1085.0</ele><time>2026-04-27T15:29:51.001Z</time></trkpt><trkpt lat="42.36759518637297" lon="0.859645038537798"><ele>1085.0</ele><time>2026-04-27T15:29:52.001Z</time></trkpt><trkpt lat="42.36753964804904" lon="0.8595979692043183"><ele>1085.0</ele><time>2026-04-27T15:29:53.001Z</time></trkpt><trkpt lat="42.36748150592742" lon="0.8595639130516308"><ele>1085.0</ele><time>2026-04-27T15:29:54.001Z</time></trkpt><trkpt lat="42.36742002687722" lon="0.8595434733597089"><ele>1085.0</ele><time>2026-04-27T15:29:55.001Z</time></trkpt><trkpt lat="42.367355685973024" lon="0.8595270710774536"><ele>1085.0</ele><time>2026-04-27T15:29:56Z</time></trkpt><trkpt lat="42.36729288814962" lon="0.85950843707694"><ele>1085.0</ele><time>2026-04-27T15:29:57Z</time></trkpt><trkpt lat="42.36723556504838" lon="0.8594682138796715"><ele>1085.0</ele><time>2026-04-27T15:29:58Z</time></trkpt><trkpt lat="42.367131705620245" lon="0.8594201000476569"><ele>1085.0</ele><time>2026-04-27T15:30:00Z</time></trkpt><trkpt lat="42.36705709072675" lon="0.8593837525157333"><ele>1085.0</ele><time>2026-04-27T15:30:03Z</time></trkpt><trkpt lat="42.36699349209395" lon="0.8593480975333676"><ele>1085.0</ele><time>2026-04-27T15:35:14Z</time></trkpt><trkpt lat="42.36693344682383" lon="0.8593147778532629"><ele>1085.0</ele><time>2026-04-27T15:35:16Z</time></trkpt><trkpt lat="42.36685422918132" lon="0.859264636176514"><ele>1087.0</ele><time>2026-04-27T15:35:18Z</time></trkpt><trkpt lat="42.3667737172076" lon="0.8591750080132667"><ele>1089.0</ele><time>2026-04-27T15:35:20Z</time></trkpt><trkpt lat="42.36669369233217" lon="0.8590638820811068"><ele>1091.0</ele><time>2026-04-27T15:35:22Z</time></trkpt><trkpt lat="42.366620391451875" lon="0.8589323913175038"><ele>1093.0</ele><time>2026-04-27T15:35:24Z</time></trkpt><trkpt lat="42.366561121208484" lon="0.8587832665192767"><ele>1093.0</ele><time>2026-04-27T15:35:26Z</time></trkpt><trkpt lat="42.36650882209416" lon="0.8586295657492022"><ele>1093.0</ele><time>2026-04-27T15:35:28Z</time></trkpt><trkpt lat="42.3664849282143" lon="0.8585491697349265"><ele>1093.0</ele><time>2026-04-27T15:35:29Z</time></trkpt><trkpt lat="42.36646076191652" lon="0.8584666277493977"><ele>1093.0</ele><time>2026-04-27T15:35:30Z</time></trkpt><trkpt lat="42.36643496187717" lon="0.8583865035966517"><ele>1093.0</ele><time>2026-04-27T15:35:31Z</time></trkpt><trkpt lat="42.36640995053114" lon="0.858306209314594"><ele>1093.0</ele><time>2026-04-27T15:35:32Z</time></trkpt><trkpt lat="42.366382727070686" lon="0.8582261876750853"><ele>1093.0</ele><time>2026-04-27T15:35:33Z</time></trkpt><trkpt lat="42.36635598022122" lon="0.8581442716119869"><ele>1094.0</ele><time>2026-04-27T15:35:34Z</time></trkpt><trkpt lat="42.36632853506074" lon="0.8580627681522438"><ele>1095.0</ele><time>2026-04-27T15:35:35Z</time></trkpt><trkpt lat="42.366299255849775" lon="0.857981628251953"><ele>1096.0</ele><time>2026-04-27T15:35:36Z</time></trkpt><trkpt lat="42.36627068150393" lon="0.8579005953647216"><ele>1097.0</ele><time>2026-04-27T15:35:37Z</time></trkpt><trkpt lat="42.36624167477297" lon="0.8578185844090336"><ele>1098.0</ele><time>2026-04-27T15:35:38Z</time></trkpt><trkpt lat="42.36621066577031" lon="0.8577365339404815"><ele>1099.0</ele><time>2026-04-27T15:35:39Z</time></trkpt><trkpt lat="42.36617826853265" lon="0.8576530024852442"><ele>1100.0</ele><time>2026-04-27T15:35:40Z</time></trkpt><trkpt lat="42.36614560853641" lon="0.8575702324145567"><ele>1100.0</ele><time>2026-04-27T15:35:41Z</time></trkpt><trkpt lat="42.36610657673937" lon="0.857490286239959"><ele>1100.0</ele><time>2026-04-27T15:35:42Z</time></trkpt><trkpt lat="42.36606500255951" lon="0.8574098812400351"><ele>1100.0</ele><time>2026-04-27T15:35:43Z</time></trkpt><trkpt lat="42.36604300383542" lon="0.8573156736418888"><ele>1100.0</ele><time>2026-04-27T15:35:44Z</time></trkpt><trkpt lat="42.36601331873149" lon="0.8572303015335693"><ele>1100.0</ele><time>2026-04-27T15:35:45Z</time></trkpt><trkpt lat="42.36601916048106" lon="0.8570974797768276"><ele>1100.0</ele><time>2026-04-27T15:35:47Z</time></trkpt><trkpt lat="42.36611764595984" lon="0.8570630778295966"><ele>1100.0</ele><time>2026-04-27T15:35:49Z</time></trkpt><trkpt lat="42.366199890774794" lon="0.8571678153753423"><ele>1100.0</ele><time>2026-04-27T15:35:51Z</time></trkpt><trkpt lat="42.36624953811799" lon="0.8573095155767242"><ele>1100.0</ele><time>2026-04-27T15:35:53Z</time></trkpt><trkpt lat="42.36627845529898" lon="0.8573872306641458"><ele>1100.0</ele><time>2026-04-27T15:35:54Z</time></trkpt><trkpt lat="42.36631408777799" lon="0.8574641758628697"><ele>1100.0</ele><time>2026-04-27T15:35:55Z</time></trkpt><trkpt lat="42.36635381418038" lon="0.8575444473333842"><ele>1100.0</ele><time>2026-04-27T15:35:56Z</time></trkpt><trkpt lat="42.36637805531282" lon="0.8576424451357347"><ele>1101.8333333333335</ele><time>2026-04-27T15:35:57Z</time></trkpt><trkpt lat="42.36642006352925" lon="0.8577314738202935"><ele>1103.6666666666667</ele><time>2026-04-27T15:35:58Z</time></trkpt><trkpt lat="42.36647997949304" lon="0.8578025928702898"><ele>1105.5</ele><time>2026-04-27T15:35:59Z</time></trkpt><trkpt lat="42.366527252591176" lon="0.8578907921611029"><ele>1107.3333333333333</ele><time>2026-04-27T15:36:00Z</time></trkpt><trkpt lat="42.36657658088455" lon="0.8579766752702608"><ele>1109.1666666666665</ele><time>2026-04-27T15:36:01Z</time></trkpt><trkpt lat="42.366628862935094" lon="0.8580635868349482"><ele>1111.0</ele><time>2026-04-27T15:36:02Z</time></trkpt><trkpt lat="42.366685629537365" lon="0.858142806477049"><ele>1111.0</ele><time>2026-04-27T15:36:03Z</time></trkpt><trkpt lat="42.3667493556044" lon="0.8582085939929706"><ele>1111.0</ele><time>2026-04-27T15:36:04Z</time></trkpt><trkpt lat="42.36682201713823" lon="0.8582561317763033"><ele>1111.0</ele><time>2026-04-27T15:36:05Z</time></trkpt><trkpt lat="42.366899196674176" lon="0.8582792318708586"><ele>1111.0</ele><time>2026-04-27T15:36:06Z</time></trkpt><trkpt lat="42.36697844088127" lon="0.8583064809056712"><ele>1111.0</ele><time>2026-04-27T15:36:07Z</time></trkpt><trkpt lat="42.367059795863035" lon="0.8582972736325859"><ele>1111.0</ele><time>2026-04-27T15:36:08Z</time></trkpt><trkpt lat="42.367129128333005" lon="0.8582555406273213"><ele>1111.0</ele><time>2026-04-27T15:36:09Z</time></trkpt><trkpt lat="42.36722631040899" lon="0.8581690694615693"><ele>1111.0</ele><time>2026-04-27T15:36:11.001Z</time></trkpt><trkpt lat="42.367241364689534" lon="0.8580797990878167"><ele>1111.0</ele><time>2026-04-27T15:36:12.001Z</time></trkpt><trkpt lat="42.3672229367651" lon="0.8579952463811955"><ele>1111.0</ele><time>2026-04-27T15:36:13.001Z</time></trkpt><trkpt lat="42.36717654933528" lon="0.8579310310768038"><ele>1111.0</ele><time>2026-04-27T15:36:14Z</time></trkpt><trkpt lat="42.36711505598619" lon="0.8578937024995573"><ele>1111.0</ele><time>2026-04-27T15:36:15Z</time></trkpt><trkpt lat="42.36704919896935" lon="0.8578923345939817"><ele>1111.0</ele><time>2026-04-27T15:36:16Z</time></trkpt><trkpt lat="42.36698242180777" lon="0.8579128501075739"><ele>1111.0</ele><time>2026-04-27T15:36:17Z</time></trkpt><trkpt lat="42.36691510664863" lon="0.8579196626704708"><ele>1111.0</ele><time>2026-04-27T15:36:18Z</time></trkpt><trkpt lat="42.366848872511184" lon="0.8578872818729809"><ele>1111.0</ele><time>2026-04-27T15:36:19Z</time></trkpt><trkpt lat="42.366792817744646" lon="0.8578279294806803"><ele>1111.0</ele><time>2026-04-27T15:36:20Z</time></trkpt><trkpt lat="42.36675252427241" lon="0.8577547833666779"><ele>1111.0</ele><time>2026-04-27T15:36:21Z</time></trkpt><trkpt lat="42.366716175185225" lon="0.8576762324136825"><ele>1111.0</ele><time>2026-04-27T15:36:22Z</time></trkpt><trkpt lat="42.36668309668632" lon="0.8575936578240392"><ele>1111.0</ele><time>2026-04-27T15:36:23Z</time></trkpt><trkpt lat="42.36665131103765" lon="0.8575091398736879"><ele>1113.0</ele><time>2026-04-27T15:36:24Z</time></trkpt><trkpt lat="42.366619956404456" lon="0.8574233263167564"><ele>1115.0</ele><time>2026-04-27T15:36:25Z</time></trkpt><trkpt lat="42.36659293323056" lon="0.8573371480675127"><ele>1117.0</ele><time>2026-04-27T15:36:26Z</time></trkpt><trkpt lat="42.36656623246557" lon="0.8572497472046113"><ele>1119.0</ele><time>2026-04-27T15:36:27Z</time></trkpt><trkpt lat="42.3665423530739" lon="0.8571603436153835"><ele>1121.0</ele><time>2026-04-27T15:36:28Z</time></trkpt><trkpt lat="42.366520384893754" lon="0.8570711840360372"><ele>1123.0</ele><time>2026-04-27T15:36:29Z</time></trkpt><trkpt lat="42.36649476331025" lon="0.8569826981061015"><ele>1125.0</ele><time>2026-04-27T15:36:30Z</time></trkpt><trkpt lat="42.3664634233898" lon="0.8568963603037134"><ele>1125.0</ele><time>2026-04-27T15:36:31Z</time></trkpt><trkpt lat="42.36642558706041" lon="0.856814898499242"><ele>1125.0</ele><time>2026-04-27T15:36:32Z</time></trkpt><trkpt lat="42.366381392306465" lon="0.8567387974696012"><ele>1125.0</ele><time>2026-04-27T15:36:33Z</time></trkpt><trkpt lat="42.366329496634236" lon="0.8566731902463285"><ele>1125.0</ele><time>2026-04-27T15:36:34Z</time></trkpt><trkpt lat="42.36627584764779" lon="0.8566098290120473"><ele>1125.0</ele><time>2026-04-27T15:36:35Z</time></trkpt><trkpt lat="42.36622291159662" lon="0.8565485001816494"><ele>1125.0</ele><time>2026-04-27T15:36:36Z</time></trkpt><trkpt lat="42.36616916047743" lon="0.8564871236870236"><ele>1125.0</ele><time>2026-04-27T15:36:37Z</time></trkpt><trkpt lat="42.36611628422706" lon="0.8564297447889081"><ele>1124.4285714285716</ele><time>2026-04-27T15:36:38Z</time></trkpt><trkpt lat="42.366062985893" lon="0.8563731512480197"><ele>1123.857142857143</ele><time>2026-04-27T15:36:39Z</time></trkpt><trkpt lat="42.36601197376633" lon="0.8563133921985661"><ele>1123.2857142857142</ele><time>2026-04-27T15:36:40Z</time></trkpt><trkpt lat="42.36596217542097" lon="0.8562521368978319"><ele>1122.7142857142858</ele><time>2026-04-27T15:36:41Z</time></trkpt><trkpt lat="42.36591693379165" lon="0.856188155612973"><ele>1122.142857142857</ele><time>2026-04-27T15:36:42Z</time></trkpt><trkpt lat="42.36587804731336" lon="0.8561190543487589"><ele>1121.5714285714287</ele><time>2026-04-27T15:36:43Z</time></trkpt><trkpt lat="42.36584944974091" lon="0.8560397889691732"><ele>1121.0</ele><time>2026-04-27T15:36:44Z</time></trkpt><trkpt lat="42.36583007813289" lon="0.8559526607216713"><ele>1123.857142857143</ele><time>2026-04-27T15:36:45Z</time></trkpt><trkpt lat="42.36581168744774" lon="0.8558674506937304"><ele>1126.7142857142858</ele><time>2026-04-27T15:36:46Z</time></trkpt><trkpt lat="42.36578838775782" lon="0.8557810607089215"><ele>1129.5714285714284</ele><time>2026-04-27T15:36:47Z</time></trkpt><trkpt lat="42.36576701532913" lon="0.8556939383308859"><ele>1132.4285714285716</ele><time>2026-04-27T15:36:48Z</time></trkpt><trkpt lat="42.36574807007907" lon="0.8556068290859075"><ele>1135.2857142857142</ele><time>2026-04-27T15:36:49Z</time></trkpt><trkpt lat="42.3657306171112" lon="0.8555165230354371"><ele>1138.142857142857</ele><time>2026-04-27T15:36:50Z</time></trkpt><trkpt lat="42.365712890148984" lon="0.8554239125822835"><ele>1141.0</ele><time>2026-04-27T15:36:51Z</time></trkpt><trkpt lat="42.3656934530213" lon="0.8553315048459388"><ele>1141.0</ele><time>2026-04-27T15:36:52Z</time></trkpt><trkpt lat="42.365673399614415" lon="0.8552378447514083"><ele>1141.0</ele><time>2026-04-27T15:36:53Z</time></trkpt><trkpt lat="42.36565170720744" lon="0.8551439645197872"><ele>1141.0</ele><time>2026-04-27T15:36:54Z</time></trkpt><trkpt lat="42.36562269058741" lon="0.855054714358829"><ele>1141.0</ele><time>2026-04-27T15:36:55Z</time></trkpt><trkpt lat="42.36558328257064" lon="0.8549690353439813"><ele>1141.0</ele><time>2026-04-27T15:36:56Z</time></trkpt><trkpt lat="42.36552971368832" lon="0.8548917549607471"><ele>1141.0</ele><time>2026-04-27T15:36:57Z</time></trkpt><trkpt lat="42.36547025328895" lon="0.8548220697770287"><ele>1141.0</ele><time>2026-04-27T15:36:58Z</time></trkpt><trkpt lat="42.36540483952451" lon="0.8547605501633769"><ele>1139.3333333333333</ele><time>2026-04-27T15:36:59Z</time></trkpt><trkpt lat="42.36533320604077" lon="0.854706576566535"><ele>1137.6666666666665</ele><time>2026-04-27T15:37:00Z</time></trkpt><trkpt lat="42.36525765641342" lon="0.8546632023996384"><ele>1136.0</ele><time>2026-04-27T15:37:01Z</time></trkpt><trkpt lat="42.365181812449876" lon="0.8546096186717123"><ele>1134.3333333333333</ele><time>2026-04-27T15:37:02Z</time></trkpt><trkpt lat="42.365115879833965" lon="0.854536299061528"><ele>1132.6666666666667</ele><time>2026-04-27T15:37:03Z</time></trkpt><trkpt lat="42.365060560421696" lon="0.8544503206775931"><ele>1131.0</ele><time>2026-04-27T15:37:04Z</time></trkpt><trkpt lat="42.365009387354355" lon="0.8543620172697362"><ele>1131.3333333333333</ele><time>2026-04-27T15:37:05Z</time></trkpt><trkpt lat="42.36495805466098" lon="0.8542754752020858"><ele>1131.6666666666667</ele><time>2026-04-27T15:37:06Z</time></trkpt><trkpt lat="42.364900253689626" lon="0.8541996089828368"><ele>1132.0</ele><time>2026-04-27T15:37:07Z</time></trkpt><trkpt lat="42.364834551117" lon="0.8541349547023519"><ele>1132.3333333333335</ele><time>2026-04-27T15:37:08Z</time></trkpt><trkpt lat="42.36476934084987" lon="0.8540715179482619"><ele>1132.6666666666667</ele><time>2026-04-27T15:37:09Z</time></trkpt><trkpt lat="42.36470770064451" lon="0.8540044921616998"><ele>1133.0</ele><time>2026-04-27T15:37:10Z</time></trkpt><trkpt lat="42.364654658181855" lon="0.8539259837672957"><ele>1133.0</ele><time>2026-04-27T15:37:11Z</time></trkpt><trkpt lat="42.364610048954034" lon="0.8538382899833404"><ele>1133.0</ele><time>2026-04-27T15:37:12Z</time></trkpt><trkpt lat="42.36457051832427" lon="0.853747814624854"><ele>1133.0</ele><time>2026-04-27T15:37:13Z</time></trkpt><trkpt lat="42.36453164701261" lon="0.853656702425828"><ele>1133.0</ele><time>2026-04-27T15:37:14Z</time></trkpt><trkpt lat="42.36449508254813" lon="0.8535647762491949"><ele>1133.0</ele><time>2026-04-27T15:37:15Z</time></trkpt><trkpt lat="42.36445728080918" lon="0.8534734465348398"><ele>1133.0</ele><time>2026-04-27T15:37:16Z</time></trkpt><trkpt lat="42.36441723212203" lon="0.8533817801405971"><ele>1136.0</ele><time>2026-04-27T15:37:17Z</time></trkpt><trkpt lat="42.36437800695348" lon="0.8532892568442729"><ele>1139.0</ele><time>2026-04-27T15:37:18Z</time></trkpt><trkpt lat="42.36433879735893" lon="0.8531962439024123"><ele>1142.0</ele><time>2026-04-27T15:37:19Z</time></trkpt><trkpt lat="42.36429916290625" lon="0.8531013686129013"><ele>1145.0</ele><time>2026-04-27T15:37:20Z</time></trkpt><trkpt lat="42.3642594514107" lon="0.8530065460110308"><ele>1148.0</ele><time>2026-04-27T15:37:21Z</time></trkpt><trkpt lat="42.36421905290022" lon="0.8529132574985971"><ele>1151.0</ele><time>2026-04-27T15:37:22Z</time></trkpt><trkpt lat="42.36417787352894" lon="0.8528208301527197"><ele>1151.0</ele><time>2026-04-27T15:37:23Z</time></trkpt><trkpt lat="42.36413887393692" lon="0.8527278518090388"><ele>1151.0</ele><time>2026-04-27T15:37:24Z</time></trkpt><trkpt lat="42.36409962747883" lon="0.8526356181336775"><ele>1151.0</ele><time>2026-04-27T15:37:25Z</time></trkpt><trkpt lat="42.36406245469398" lon="0.8525436019793527"><ele>1151.0</ele><time>2026-04-27T15:37:26Z</time></trkpt><trkpt lat="42.36402929099894" lon="0.8524502678040984"><ele>1151.0</ele><time>2026-04-27T15:37:27Z</time></trkpt><trkpt lat="42.36399846548365" lon="0.8523577318711362"><ele>1151.0</ele><time>2026-04-27T15:37:28Z</time></trkpt><trkpt lat="42.36396793052389" lon="0.8522676896448961"><ele>1150.8571428571427</ele><time>2026-04-27T15:37:29Z</time></trkpt><trkpt lat="42.36393899401532" lon="0.8521781188528458"><ele>1150.7142857142858</ele><time>2026-04-27T15:37:30Z</time></trkpt><trkpt lat="42.363916113629934" lon="0.8520868185164346"><ele>1150.5714285714284</ele><time>2026-04-27T15:37:31Z</time></trkpt><trkpt lat="42.36389462845836" lon="0.851996150215366"><ele>1150.4285714285713</ele><time>2026-04-27T15:37:32Z</time></trkpt><trkpt lat="42.36387586146646" lon="0.8519068787649275"><ele>1150.2857142857142</ele><time>2026-04-27T15:37:33Z</time></trkpt><trkpt lat="42.36385584939614" lon="0.851819736795045"><ele>1150.142857142857</ele><time>2026-04-27T15:37:34Z</time></trkpt><trkpt lat="42.36383744545485" lon="0.8517317238072891"><ele>1150.0</ele><time>2026-04-27T15:37:35Z</time></trkpt><trkpt lat="42.36381773558368" lon="0.8516453269419512"><ele>1151.857142857143</ele><time>2026-04-27T15:37:36Z</time></trkpt><trkpt lat="42.3637982394097" lon="0.8515602723192383"><ele>1153.7142857142856</ele><time>2026-04-27T15:37:37Z</time></trkpt><trkpt lat="42.36378259226783" lon="0.8514761399306741"><ele>1155.5714285714284</ele><time>2026-04-27T15:37:38Z</time></trkpt><trkpt lat="42.363770381968365" lon="0.8513905586521054"><ele>1157.4285714285713</ele><time>2026-04-27T15:37:39Z</time></trkpt><trkpt lat="42.3637578713771" lon="0.8513049525593773"><ele>1159.2857142857142</ele><time>2026-04-27T15:37:40Z</time></trkpt><trkpt lat="42.3637436858105" lon="0.8512193050166593"><ele>1161.142857142857</ele><time>2026-04-27T15:37:41Z</time></trkpt><trkpt lat="42.36372505591332" lon="0.8511350759063988"><ele>1163.0</ele><time>2026-04-27T15:37:42Z</time></trkpt><trkpt lat="42.36370264647049" lon="0.8510545549544901"><ele>1163.0</ele><time>2026-04-27T15:37:43Z</time></trkpt><trkpt lat="42.363675147939624" lon="0.8509763089727678"><ele>1163.0</ele><time>2026-04-27T15:37:44Z</time></trkpt><trkpt lat="42.36364268793258" lon="0.8509026595883116"><ele>1163.0</ele><time>2026-04-27T15:37:45Z</time></trkpt><trkpt lat="42.36360232610895" lon="0.8508357244122702"><ele>1163.0</ele><time>2026-04-27T15:37:46Z</time></trkpt><trkpt lat="42.363558146531126" lon="0.8507719801361523"><ele>1163.0</ele><time>2026-04-27T15:37:47Z</time></trkpt><trkpt lat="42.363510463475514" lon="0.8507115348441453"><ele>1163.0</ele><time>2026-04-27T15:37:48Z</time></trkpt><trkpt lat="42.363461580482735" lon="0.8506518511005294"><ele>1163.0</ele><time>2026-04-27T15:37:49Z</time></trkpt><trkpt lat="42.36341137781399" lon="0.8505925415708646"><ele>1165.142857142857</ele><time>2026-04-27T15:37:50Z</time></trkpt><trkpt lat="42.36336151347942" lon="0.8505352603544174"><ele>1167.2857142857142</ele><time>2026-04-27T15:37:51Z</time></trkpt><trkpt lat="42.36331166633902" lon="0.8504761912324273"><ele>1169.4285714285713</ele><time>2026-04-27T15:37:52Z</time></trkpt><trkpt lat="42.3632625368701" lon="0.850416863832099"><ele>1171.5714285714284</ele><time>2026-04-27T15:37:53Z</time></trkpt><trkpt lat="42.36321360425686" lon="0.8503576716407155"><ele>1173.7142857142856</ele><time>2026-04-27T15:37:54Z</time></trkpt><trkpt lat="42.363162845063734" lon="0.8502995945081919"><ele>1175.857142857143</ele><time>2026-04-27T15:37:55Z</time></trkpt><trkpt lat="42.36310970814681" lon="0.8502451361487144"><ele>1178.0</ele><time>2026-04-27T15:37:56Z</time></trkpt><trkpt lat="42.363055807899975" lon="0.8501964566076389"><ele>1179.2857142857142</ele><time>2026-04-27T15:37:57Z</time></trkpt><trkpt lat="42.362993427005385" lon="0.8501628065722365"><ele>1180.5714285714284</ele><time>2026-04-27T15:37:58Z</time></trkpt><trkpt lat="42.36292659405492" lon="0.850131972326675"><ele>1181.857142857143</ele><time>2026-04-27T15:37:59Z</time></trkpt><trkpt lat="42.362850922782634" lon="0.8501528070019267"><ele>1183.142857142857</ele><time>2026-04-27T15:38:00Z</time></trkpt><trkpt lat="42.36278595681761" lon="0.8502111735364709"><ele>1184.4285714285716</ele><time>2026-04-27T15:38:01Z</time></trkpt><trkpt lat="42.3627511359354" lon="0.8503059775483632"><ele>1185.7142857142858</ele><time>2026-04-27T15:38:02Z</time></trkpt><trkpt lat="42.36271967959302" lon="0.8503917563686029"><ele>1187.0</ele><time>2026-04-27T15:38:03Z</time></trkpt><trkpt lat="42.362697697467404" lon="0.8504835355267836"><ele>1187.0000000000002</ele><time>2026-04-27T15:38:04Z</time></trkpt><trkpt lat="42.36268005657785" lon="0.8505764392589262"><ele>1187.0</ele><time>2026-04-27T15:38:05Z</time></trkpt><trkpt lat="42.362665773677314" lon="0.8506728468782201"><ele>1187.0</ele><time>2026-04-27T15:38:06Z</time></trkpt><trkpt lat="42.36265276191353" lon="0.8507702216139801"><ele>1187.0</ele><time>2026-04-27T15:38:07Z</time></trkpt><trkpt lat="42.362638372980165" lon="0.8508686106818016"><ele>1187.0</ele><time>2026-04-27T15:38:08Z</time></trkpt><trkpt lat="42.36262425953634" lon="0.8509709870205461"><ele>1187.0000000000002</ele><time>2026-04-27T15:38:09Z</time></trkpt><trkpt lat="42.3626124273724" lon="0.8510726587321863"><ele>1187.0</ele><time>2026-04-27T15:38:10Z</time></trkpt><trkpt lat="42.36260121543329" lon="0.8511744806813624"><ele>1185.5714285714287</ele><time>2026-04-27T15:38:11Z</time></trkpt><trkpt lat="42.36258371923943" lon="0.8512670929361171"><ele>1184.142857142857</ele><time>2026-04-27T15:38:12Z</time></trkpt><trkpt lat="42.36254985237878" lon="0.8513395626325744"><ele>1182.7142857142858</ele><time>2026-04-27T15:38:13Z</time></trkpt><trkpt lat="42.36244118942156" lon="0.851415046013765"><ele>1181.2857142857142</ele><time>2026-04-27T15:38:15Z</time></trkpt><trkpt lat="42.36237824647286" lon="0.8514046684440719"><ele>1179.857142857143</ele><time>2026-04-27T15:38:16Z</time></trkpt><trkpt lat="42.36232002222088" lon="0.8513678931212977"><ele>1178.4285714285716</ele><time>2026-04-27T15:38:17Z</time></trkpt><trkpt lat="42.36228163986148" lon="0.8512967863505027"><ele>1177.0</ele><time>2026-04-27T15:38:18Z</time></trkpt><trkpt lat="42.362266243820656" lon="0.8512131383237312"><ele>1177.0</ele><time>2026-04-27T15:38:19Z</time></trkpt><trkpt lat="42.36227619909191" lon="0.8511268148184887"><ele>1177.0</ele><time>2026-04-27T15:38:20Z</time></trkpt><trkpt lat="42.36232357695395" lon="0.8510581299813896"><ele>1177.0</ele><time>2026-04-27T15:38:21Z</time></trkpt><trkpt lat="42.362345133541396" lon="0.8509690350205263"><ele>1177.0</ele><time>2026-04-27T15:38:22Z</time></trkpt><trkpt lat="42.36238245880312" lon="0.8508926833178886"><ele>1177.0</ele><time>2026-04-27T15:38:23Z</time></trkpt><trkpt lat="42.36241133153222" lon="0.8508103621569065"><ele>1177.0</ele><time>2026-04-27T15:38:24Z</time></trkpt><trkpt lat="42.36244741924402" lon="0.8507244850602205"><ele>1177.0</ele><time>2026-04-27T15:38:25Z</time></trkpt><trkpt lat="42.36245327974679" lon="0.8506210737137773"><ele>1178.4285714285716</ele><time>2026-04-27T15:38:26Z</time></trkpt><trkpt lat="42.36243526532201" lon="0.8505218543347352"><ele>1179.857142857143</ele><time>2026-04-27T15:38:27Z</time></trkpt><trkpt lat="42.36242918150921" lon="0.8504256863042542"><ele>1181.2857142857142</ele><time>2026-04-27T15:38:28Z</time></trkpt><trkpt lat="42.36241840386466" lon="0.8503304978233512"><ele>1182.7142857142858</ele><time>2026-04-27T15:38:29Z</time></trkpt><trkpt lat="42.362408269713086" lon="0.8502347283427906"><ele>1184.142857142857</ele><time>2026-04-27T15:38:30Z</time></trkpt><trkpt lat="42.362397678665154" lon="0.8501402887856411"><ele>1185.5714285714287</ele><time>2026-04-27T15:38:31Z</time></trkpt><trkpt lat="42.36239003360946" lon="0.8500457289467421"><ele>1187.0</ele><time>2026-04-27T15:38:32Z</time></trkpt><trkpt lat="42.36238931571512" lon="0.8499505809743899"><ele>1188.0000000000002</ele><time>2026-04-27T15:38:33Z</time></trkpt><trkpt lat="42.36239905108201" lon="0.8498555121784277"><ele>1189.0</ele><time>2026-04-27T15:38:34Z</time></trkpt><trkpt lat="42.362413564565536" lon="0.8497619592624198"><ele>1190.0</ele><time>2026-04-27T15:38:35Z</time></trkpt><trkpt lat="42.36242970348024" lon="0.8496683266141037"><ele>1191.0</ele><time>2026-04-27T15:38:36Z</time></trkpt><trkpt lat="42.36244252735589" lon="0.8495745863050476"><ele>1192.0</ele><time>2026-04-27T15:38:37Z</time></trkpt><trkpt lat="42.36246094648196" lon="0.8494824276585239"><ele>1193.0000000000002</ele><time>2026-04-27T15:38:38Z</time></trkpt><trkpt lat="42.36248217042457" lon="0.8493909012940918"><ele>1194.0</ele><time>2026-04-27T15:38:39Z</time></trkpt><trkpt lat="42.36251838114352" lon="0.8493050639851435"><ele>1195.8333333333333</ele><time>2026-04-27T15:38:40Z</time></trkpt><trkpt lat="42.36254459196144" lon="0.8492162396551254"><ele>1197.6666666666667</ele><time>2026-04-27T15:38:41Z</time></trkpt><trkpt lat="42.36257831502947" lon="0.849124803069777"><ele>1199.5</ele><time>2026-04-27T15:38:42Z</time></trkpt><trkpt lat="42.36262468051045" lon="0.8490438036831998"><ele>1201.3333333333335</ele><time>2026-04-27T15:38:43Z</time></trkpt><trkpt lat="42.36267917942919" lon="0.8489589457211101"><ele>1203.1666666666667</ele><time>2026-04-27T15:38:44Z</time></trkpt><trkpt lat="42.362765228375906" lon="0.8489259802331243"><ele>1205.0</ele><time>2026-04-27T15:38:45Z</time></trkpt><trkpt lat="42.36285539435652" lon="0.8489415731031744"><ele>1205.0</ele><time>2026-04-27T15:38:46Z</time></trkpt><trkpt lat="42.362935679928164" lon="0.849000138499206"><ele>1205.0</ele><time>2026-04-27T15:38:47Z</time></trkpt><trkpt lat="42.363006609920035" lon="0.849075796849897"><ele>1205.0</ele><time>2026-04-27T15:38:48Z</time></trkpt><trkpt lat="42.36307509345139" lon="0.8491561029439499"><ele>1205.0</ele><time>2026-04-27T15:38:49Z</time></trkpt><trkpt lat="42.36314658408948" lon="0.8492373735499076"><ele>1205.0</ele><time>2026-04-27T15:38:50Z</time></trkpt><trkpt lat="42.363220042800485" lon="0.8493179754979561"><ele>1202.6</ele><time>2026-04-27T15:38:51Z</time></trkpt><trkpt lat="42.36329639752059" lon="0.849394669570396"><ele>1200.2</ele><time>2026-04-27T15:38:52Z</time></trkpt><trkpt lat="42.363372309377056" lon="0.8494695538940497"><ele>1197.8</ele><time>2026-04-27T15:38:53Z</time></trkpt><trkpt lat="42.3634495099862" lon="0.8495455032428941"><ele>1195.4</ele><time>2026-04-27T15:38:54Z</time></trkpt><trkpt lat="42.3635265440451" lon="0.8496268934928802"><ele>1193.0</ele><time>2026-04-27T15:38:55Z</time></trkpt><trkpt lat="42.36360414219066" lon="0.8497111678748019"><ele>1193.0</ele><time>2026-04-27T15:38:56Z</time></trkpt><trkpt lat="42.36368106384112" lon="0.8497937764610187"><ele>1193.0</ele><time>2026-04-27T15:38:57Z</time></trkpt><trkpt lat="42.36375980445799" lon="0.8498744797546512"><ele>1193.0</ele><time>2026-04-27T15:38:58Z</time></trkpt><trkpt lat="42.36383958677151" lon="0.849956182693928"><ele>1193.0</ele><time>2026-04-27T15:38:59Z</time></trkpt><trkpt lat="42.363905978737165" lon="0.8500591591933281"><ele>1193.0</ele><time>2026-04-27T15:39:00Z</time></trkpt><trkpt lat="42.363979610219445" lon="0.8501547438198261"><ele>1194.2</ele><time>2026-04-27T15:39:01Z</time></trkpt><trkpt lat="42.36406221650323" lon="0.8502400160856995"><ele>1195.4</ele><time>2026-04-27T15:39:02Z</time></trkpt><trkpt lat="42.364131411134764" lon="0.8503448675569609"><ele>1196.6000000000001</ele><time>2026-04-27T15:39:03Z</time></trkpt><trkpt lat="42.3641992271066" lon="0.8504503462529599"><ele>1197.8</ele><time>2026-04-27T15:39:04Z</time></trkpt><trkpt lat="42.36426715324483" lon="0.8505570986452756"><ele>1199.0</ele><time>2026-04-27T15:39:05Z</time></trkpt><trkpt lat="42.36433736798746" lon="0.8506596483663408"><ele>1199.0</ele><time>2026-04-27T15:39:06Z</time></trkpt><trkpt lat="42.36440485337084" lon="0.8507604733653884"><ele>1199.0</ele><time>2026-04-27T15:39:07Z</time></trkpt><trkpt lat="42.364469531442175" lon="0.8508611904235439"><ele>1199.0</ele><time>2026-04-27T15:39:08Z</time></trkpt><trkpt lat="42.364533506170496" lon="0.8509638722411871"><ele>1199.0</ele><time>2026-04-27T15:39:09Z</time></trkpt><trkpt lat="42.364594693834256" lon="0.8510649746563079"><ele>1199.0</ele><time>2026-04-27T15:39:10Z</time></trkpt><trkpt lat="42.36465785041164" lon="0.8511639182232609"><ele>1201.2</ele><time>2026-04-27T15:39:11Z</time></trkpt><trkpt lat="42.36471928963445" lon="0.8512655868401452"><ele>1203.4</ele><time>2026-04-27T15:39:12Z</time></trkpt><trkpt lat="42.36478056728777" lon="0.8513660508952987"><ele>1205.6</ele><time>2026-04-27T15:39:13Z</time></trkpt><trkpt lat="42.364839379074226" lon="0.8514634383323866"><ele>1207.8</ele><time>2026-04-27T15:39:14Z</time></trkpt><trkpt lat="42.36489792123623" lon="0.8515620545826412"><ele>1210.0</ele><time>2026-04-27T15:39:15Z</time></trkpt><trkpt lat="42.36495891789017" lon="0.8516595400850029"><ele>1210.0</ele><time>2026-04-27T15:39:16Z</time></trkpt><trkpt lat="42.36501850024369" lon="0.8517613304971887"><ele>1210.0</ele><time>2026-04-27T15:39:17Z</time></trkpt><trkpt lat="42.36507776402134" lon="0.8518636866925051"><ele>1210.0</ele><time>2026-04-27T15:39:18Z</time></trkpt><trkpt lat="42.365138824448586" lon="0.8519688666933874"><ele>1210.0</ele><time>2026-04-27T15:39:19Z</time></trkpt><trkpt lat="42.36520067476403" lon="0.852074071988057"><ele>1210.0</ele><time>2026-04-27T15:39:20Z</time></trkpt><trkpt lat="42.365264275806986" lon="0.8521784628961434"><ele>1208.0</ele><time>2026-04-27T15:39:21Z</time></trkpt><trkpt lat="42.36532440919857" lon="0.8522878352316788"><ele>1206.0</ele><time>2026-04-27T15:39:22Z</time></trkpt><trkpt lat="42.36538281942725" lon="0.8523955929687639"><ele>1204.0</ele><time>2026-04-27T15:39:23Z</time></trkpt><trkpt lat="42.36544240353124" lon="0.8524981105058415"><ele>1202.0</ele><time>2026-04-27T15:39:24Z</time></trkpt><trkpt lat="42.36550125682493" lon="0.8526008934057965"><ele>1200.0</ele><time>2026-04-27T15:39:25Z</time></trkpt><trkpt lat="42.36556072586492" lon="0.8527013380895857"><ele>1200.0</ele><time>2026-04-27T15:39:26Z</time></trkpt><trkpt lat="42.36561560133236" lon="0.852794072914411"><ele>1200.0</ele><time>2026-04-27T15:39:27Z</time></trkpt><trkpt lat="42.365666868495786" lon="0.8528768557127292"><ele>1200.0</ele><time>2026-04-27T15:39:28Z</time></trkpt><trkpt lat="42.365724586827355" lon="0.8529386555127686"><ele>1200.0</ele><time>2026-04-27T15:39:29Z</time></trkpt><trkpt lat="42.36578162727506" lon="0.8529987468008728"><ele>1200.0</ele><time>2026-04-27T15:39:30Z</time></trkpt><trkpt lat="42.36585801228789" lon="0.8529877180980788"><ele>1200.0</ele><time>2026-04-27T15:39:31Z</time></trkpt><trkpt lat="42.36592275670125" lon="0.852961867565297"><ele>1199.9999999999998</ele><time>2026-04-27T15:39:32Z</time></trkpt><trkpt lat="42.36597643487451" lon="0.8528947639827223"><ele>1200.0</ele><time>2026-04-27T15:39:33Z</time></trkpt><trkpt lat="42.36600791367389" lon="0.8528019960183779"><ele>1200.0</ele><time>2026-04-27T15:39:34Z</time></trkpt><trkpt lat="42.366030445986915" lon="0.8527059305338983"><ele>1200.0</ele><time>2026-04-27T15:39:35Z</time></trkpt><trkpt lat="42.36603976350606" lon="0.8526066774780503"><ele>1200.0</ele><time>2026-04-27T15:39:36Z</time></trkpt><trkpt lat="42.366046047353684" lon="0.8525056773519244"><ele>1199.9999999999998</ele><time>2026-04-27T15:39:37Z</time></trkpt><trkpt lat="42.36604972911315" lon="0.8524027895702613"><ele>1200.0</ele><time>2026-04-27T15:39:38Z</time></trkpt><trkpt lat="42.36604891724549" lon="0.8523002981727743"><ele>1202.1666666666667</ele><time>2026-04-27T15:39:39Z</time></trkpt><trkpt lat="42.36604481063289" lon="0.8521992584263178"><ele>1204.3333333333333</ele><time>2026-04-27T15:39:40Z</time></trkpt><trkpt lat="42.36603644237877" lon="0.8520979704023559"><ele>1206.5</ele><time>2026-04-27T15:39:41Z</time></trkpt><trkpt lat="42.366018675069974" lon="0.8519980838427885"><ele>1208.6666666666665</ele><time>2026-04-27T15:39:42Z</time></trkpt><trkpt lat="42.36599158545167" lon="0.8518990717563725"><ele>1210.8333333333333</ele><time>2026-04-27T15:39:43Z</time></trkpt><trkpt lat="42.36595780138798" lon="0.8518049289603621"><ele>1213.0</ele><time>2026-04-27T15:39:44Z</time></trkpt><trkpt lat="42.3659167788214" lon="0.8517102191750133"><ele>1213.8333333333333</ele><time>2026-04-27T15:39:45Z</time></trkpt><trkpt lat="42.365868020415746" lon="0.8516213267289893"><ele>1214.6666666666665</ele><time>2026-04-27T15:39:46Z</time></trkpt><trkpt lat="42.36581436198336" lon="0.8515380253118385"><ele>1215.5</ele><time>2026-04-27T15:39:47Z</time></trkpt><trkpt lat="42.36575697708589" lon="0.8514578435204996"><ele>1216.3333333333333</ele><time>2026-04-27T15:39:48Z</time></trkpt><trkpt lat="42.365691853937335" lon="0.851385911990983"><ele>1217.1666666666667</ele><time>2026-04-27T15:39:49Z</time></trkpt><trkpt lat="42.36562362779102" lon="0.8513191453962602"><ele>1218.0</ele><time>2026-04-27T15:39:50Z</time></trkpt><trkpt lat="42.365556972254986" lon="0.851246691620257"><ele>1218.1666666666667</ele><time>2026-04-27T15:39:51Z</time></trkpt><trkpt lat="42.365495218686256" lon="0.8511651398091398"><ele>1218.3333333333333</ele><time>2026-04-27T15:39:52Z</time></trkpt><trkpt lat="42.365438061122774" lon="0.8510778384964244"><ele>1218.5</ele><time>2026-04-27T15:39:53Z</time></trkpt><trkpt lat="42.36538439681269" lon="0.8509914760891628"><ele>1218.6666666666665</ele><time>2026-04-27T15:39:54Z</time></trkpt><trkpt lat="42.365329876222184" lon="0.8509054548594299"><ele>1218.8333333333333</ele><time>2026-04-27T15:39:55Z</time></trkpt><trkpt lat="42.365275972968945" lon="0.850820964946791"><ele>1219.0</ele><time>2026-04-27T15:39:56Z</time></trkpt><trkpt lat="42.365222703129994" lon="0.8507367025299043"><ele>1219.0</ele><time>2026-04-27T15:39:57Z</time></trkpt><trkpt lat="42.365170076716495" lon="0.850652824970132"><ele>1219.0</ele><time>2026-04-27T15:39:58Z</time></trkpt><trkpt lat="42.36511856562091" lon="0.8505693323368817"><ele>1219.0</ele><time>2026-04-27T15:39:59Z</time></trkpt><trkpt lat="42.36506696986892" lon="0.8504882048339198"><ele>1219.0</ele><time>2026-04-27T15:40:00Z</time></trkpt><trkpt lat="42.365016914534614" lon="0.8504077222986881"><ele>1219.0</ele><time>2026-04-27T15:40:01Z</time></trkpt><trkpt lat="42.364967385489706" lon="0.8503268581370867"><ele>1219.0</ele><time>2026-04-27T15:40:02Z</time></trkpt><trkpt lat="42.36491822744378" lon="0.8502486642085446"><ele>1219.0</ele><time>2026-04-27T15:40:03Z</time></trkpt><trkpt lat="42.36486955258017" lon="0.850170683882313"><ele>1219.0</ele><time>2026-04-27T15:40:04Z</time></trkpt><trkpt lat="42.36482166571644" lon="0.8500945764975228"><ele>1219.0</ele><time>2026-04-27T15:40:05Z</time></trkpt><trkpt lat="42.36477464840429" lon="0.8500186782456819"><ele>1219.0</ele><time>2026-04-27T15:40:06Z</time></trkpt><trkpt lat="42.364729721199375" lon="0.8499425832952916"><ele>1219.0</ele><time>2026-04-27T15:40:07Z</time></trkpt><trkpt lat="42.36468739205586" lon="0.8498648558919553"><ele>1219.0</ele><time>2026-04-27T15:40:08Z</time></trkpt><trkpt lat="42.36465278585985" lon="0.8497806520182143"><ele>1219.0</ele><time>2026-04-27T15:40:09Z</time></trkpt><trkpt lat="42.36462798423862" lon="0.8496864482147947"><ele>1218.2857142857142</ele><time>2026-04-27T15:40:10Z</time></trkpt><trkpt lat="42.36461639585783" lon="0.849586086065272"><ele>1217.5714285714284</ele><time>2026-04-27T15:40:11Z</time></trkpt><trkpt lat="42.36461203441765" lon="0.8494855136004996"><ele>1216.8571428571427</ele><time>2026-04-27T15:40:12Z</time></trkpt><trkpt lat="42.36461101891661" lon="0.8493862250035147"><ele>1216.142857142857</ele><time>2026-04-27T15:40:13Z</time></trkpt><trkpt lat="42.364612580388574" lon="0.8492870845952746"><ele>1215.4285714285713</ele><time>2026-04-27T15:40:14Z</time></trkpt><trkpt lat="42.36461740681579" lon="0.8491891506154366"><ele>1214.7142857142856</ele><time>2026-04-27T15:40:15Z</time></trkpt><trkpt lat="42.3646225384952" lon="0.8490898210003892"><ele>1214.0</ele><time>2026-04-27T15:40:16Z</time></trkpt><trkpt lat="42.364627235110945" lon="0.8489928871630907"><ele>1216.5714285714284</ele><time>2026-04-27T15:40:17Z</time></trkpt><trkpt lat="42.36463283884935" lon="0.8488986716436148"><ele>1219.142857142857</ele><time>2026-04-27T15:40:18Z</time></trkpt><trkpt lat="42.36463689332697" lon="0.8488034419357794"><ele>1221.7142857142858</ele><time>2026-04-27T15:40:19Z</time></trkpt><trkpt lat="42.36464415250652" lon="0.8487086847555755"><ele>1224.2857142857142</ele><time>2026-04-27T15:40:20Z</time></trkpt><trkpt lat="42.36465675013064" lon="0.8486165636617803"><ele>1226.857142857143</ele><time>2026-04-27T15:40:21Z</time></trkpt><trkpt lat="42.36467768808692" lon="0.8485241154777133"><ele>1229.4285714285713</ele><time>2026-04-27T15:40:22Z</time></trkpt><trkpt lat="42.3647157948628" lon="0.8484391725113263"><ele>1232.0</ele><time>2026-04-27T15:40:23Z</time></trkpt><trkpt lat="42.36477052916374" lon="0.8483675732341317"><ele>1233.4285714285713</ele><time>2026-04-27T15:40:24Z</time></trkpt><trkpt lat="42.364838860614896" lon="0.8483224741086621"><ele>1234.857142857143</ele><time>2026-04-27T15:40:25Z</time></trkpt><trkpt lat="42.3649148599908" lon="0.8482926376795871"><ele>1236.2857142857142</ele><time>2026-04-27T15:40:26Z</time></trkpt><trkpt lat="42.364987094156675" lon="0.8482604299653432"><ele>1237.7142857142858</ele><time>2026-04-27T15:40:27Z</time></trkpt><trkpt lat="42.365049924335985" lon="0.8482107800921262"><ele>1239.142857142857</ele><time>2026-04-27T15:40:28Z</time></trkpt><trkpt lat="42.36509188653965" lon="0.848143499048858"><ele>1240.5714285714284</ele><time>2026-04-27T15:40:29Z</time></trkpt><trkpt lat="42.365101210516656" lon="0.8480586567164752"><ele>1242.0</ele><time>2026-04-27T15:40:30Z</time></trkpt><trkpt lat="42.365077358638324" lon="0.8479777430687114"><ele>1241.9999999999998</ele><time>2026-04-27T15:40:31Z</time></trkpt><trkpt lat="42.36502881703296" lon="0.8479202778854189"><ele>1242.0</ele><time>2026-04-27T15:40:32Z</time></trkpt><trkpt lat="42.364963334472456" lon="0.8478973073553805"><ele>1242.0</ele><time>2026-04-27T15:40:33Z</time></trkpt><trkpt lat="42.3648942679195" lon="0.8479151690564798"><ele>1242.0</ele><time>2026-04-27T15:40:34Z</time></trkpt><trkpt lat="42.364826661753966" lon="0.8479619014138301"><ele>1242.0</ele><time>2026-04-27T15:40:35Z</time></trkpt><trkpt lat="42.364762770732625" lon="0.8480212864320276"><ele>1241.9999999999998</ele><time>2026-04-27T15:40:36Z</time></trkpt><trkpt lat="42.36469720444385" lon="0.8480806334073434"><ele>1242.0</ele><time>2026-04-27T15:40:37Z</time></trkpt><trkpt lat="42.36463167549729" lon="0.8481436661322246"><ele>1243.0</ele><time>2026-04-27T15:40:38Z</time></trkpt><trkpt lat="42.36457426845523" lon="0.8482207909051677"><ele>1244.0</ele><time>2026-04-27T15:40:39Z</time></trkpt><trkpt lat="42.36451376650687" lon="0.8483000110215259"><ele>1245.0</ele><time>2026-04-27T15:40:40Z</time></trkpt><trkpt lat="42.364471047087676" lon="0.8483928821603542"><ele>1246.0</ele><time>2026-04-27T15:40:41Z</time></trkpt><trkpt lat="42.36443290982745" lon="0.8484780305514271"><ele>1247.0</ele><time>2026-04-27T15:40:42Z</time></trkpt><trkpt lat="42.36436848528815" lon="0.8485101353165102"><ele>1248.0</ele><time>2026-04-27T15:40:43Z</time></trkpt><trkpt lat="42.36430016156052" lon="0.8485004347459904"><ele>1248.0</ele><time>2026-04-27T15:40:44Z</time></trkpt><trkpt lat="42.36424374293436" lon="0.8484487588400812"><ele>1248.0</ele><time>2026-04-27T15:40:45Z</time></trkpt><trkpt lat="42.364226492545406" lon="0.8482886076523201"><ele>1248.0</ele><time>2026-04-27T15:40:47Z</time></trkpt><trkpt lat="42.36425803320732" lon="0.8482116889261462"><ele>1248.0</ele><time>2026-04-27T15:40:48Z</time></trkpt><trkpt lat="42.36430031291952" lon="0.8481447528456019"><ele>1248.0</ele><time>2026-04-27T15:40:49Z</time></trkpt><trkpt lat="42.36434798836383" lon="0.8480821826511608"><ele>1248.0</ele><time>2026-04-27T15:40:50Z</time></trkpt><trkpt lat="42.36439290851513" lon="0.8480122963392704"><ele>1248.0</ele><time>2026-04-27T15:40:51Z</time></trkpt><trkpt lat="42.36444111688927" lon="0.8479376783116251"><ele>1248.0</ele><time>2026-04-27T15:40:52Z</time></trkpt><trkpt lat="42.36449256945073" lon="0.8478659270797879"><ele>1248.0</ele><time>2026-04-27T15:40:53Z</time></trkpt><trkpt lat="42.364554098281964" lon="0.8478044526803978"><ele>1248.0</ele><time>2026-04-27T15:40:54Z</time></trkpt><trkpt lat="42.3646210148046" lon="0.847759560698592"><ele>1248.0</ele><time>2026-04-27T15:40:55Z</time></trkpt><trkpt lat="42.36469285000545" lon="0.8477308620490429"><ele>1248.0</ele><time>2026-04-27T15:40:56Z</time></trkpt><trkpt lat="42.36476707808052" lon="0.8477082909604383"><ele>1248.0</ele><time>2026-04-27T15:40:57Z</time></trkpt><trkpt lat="42.364840935751594" lon="0.8476820832677818"><ele>1247.0</ele><time>2026-04-27T15:40:58Z</time></trkpt><trkpt lat="42.36491347582829" lon="0.8476529084415789"><ele>1246.0</ele><time>2026-04-27T15:40:59Z</time></trkpt><trkpt lat="42.36498578470547" lon="0.847622096343815"><ele>1245.0</ele><time>2026-04-27T15:41:00Z</time></trkpt><trkpt lat="42.36505548989843" lon="0.8475761284856989"><ele>1244.0</ele><time>2026-04-27T15:41:01Z</time></trkpt><trkpt lat="42.36511414957445" lon="0.8475067901780248"><ele>1243.0</ele><time>2026-04-27T15:41:02Z</time></trkpt><trkpt lat="42.365144116999346" lon="0.8474178664963468"><ele>1242.0</ele><time>2026-04-27T15:41:03Z</time></trkpt><trkpt lat="42.3651443632651" lon="0.8473167892960841"><ele>1244.4285714285713</ele><time>2026-04-27T15:41:04Z</time></trkpt><trkpt lat="42.36511580990663" lon="0.8472268525699881"><ele>1246.857142857143</ele><time>2026-04-27T15:41:05Z</time></trkpt><trkpt lat="42.36506757111117" lon="0.8471583356210751"><ele>1249.2857142857142</ele><time>2026-04-27T15:41:06Z</time></trkpt><trkpt lat="42.36500432107601" lon="0.8471177013843308"><ele>1251.7142857142858</ele><time>2026-04-27T15:41:07Z</time></trkpt><trkpt lat="42.36493328019838" lon="0.8471109194178919"><ele>1254.142857142857</ele><time>2026-04-27T15:41:08Z</time></trkpt><trkpt lat="42.36486252261647" lon="0.8471368514284118"><ele>1256.5714285714284</ele><time>2026-04-27T15:41:09Z</time></trkpt><trkpt lat="42.364798131494" lon="0.8471839954671481"><ele>1259.0</ele><time>2026-04-27T15:41:10Z</time></trkpt><trkpt lat="42.36473313346997" lon="0.8472274583447925"><ele>1259.6666666666667</ele><time>2026-04-27T15:41:11Z</time></trkpt><trkpt lat="42.36466308088429" lon="0.8472583272727261"><ele>1260.3333333333335</ele><time>2026-04-27T15:41:12Z</time></trkpt><trkpt lat="42.364587735329486" lon="0.8472734207534783"><ele>1261.0</ele><time>2026-04-27T15:41:13Z</time></trkpt><trkpt lat="42.36451083070781" lon="0.847279967855825"><ele>1261.6666666666667</ele><time>2026-04-27T15:41:14Z</time></trkpt><trkpt lat="42.36443539862475" lon="0.8472830482772011"><ele>1262.3333333333333</ele><time>2026-04-27T15:41:15Z</time></trkpt><trkpt lat="42.36436156912815" lon="0.8472859345783151"><ele>1263.0</ele><time>2026-04-27T15:41:16Z</time></trkpt><trkpt lat="42.364286058906714" lon="0.8472788948005118"><ele>1262.9999999999998</ele><time>2026-04-27T15:41:17Z</time></trkpt><trkpt lat="42.36421129556813" lon="0.8472693082469679"><ele>1263.0</ele><time>2026-04-27T15:41:18Z</time></trkpt><trkpt lat="42.364136660688175" lon="0.8472638537187588"><ele>1263.0</ele><time>2026-04-27T15:41:19Z</time></trkpt><trkpt lat="42.36406396498783" lon="0.8472520529850219"><ele>1263.0</ele><time>2026-04-27T15:41:20Z</time></trkpt><trkpt lat="42.36399325419527" lon="0.847225859959398"><ele>1263.0</ele><time>2026-04-27T15:41:21Z</time></trkpt><trkpt lat="42.36392478765768" lon="0.8471853016347363"><ele>1262.9999999999998</ele><time>2026-04-27T15:41:22Z</time></trkpt><trkpt lat="42.363859783427095" lon="0.8471367484845311"><ele>1263.0</ele><time>2026-04-27T15:41:23Z</time></trkpt><trkpt lat="42.36380009625011" lon="0.8470816544711078"><ele>1264.4285714285713</ele><time>2026-04-27T15:41:24Z</time></trkpt><trkpt lat="42.36374213979314" lon="0.8470226455491323"><ele>1265.857142857143</ele><time>2026-04-27T15:41:25Z</time></trkpt><trkpt lat="42.363684475782655" lon="0.846965367863484"><ele>1267.2857142857142</ele><time>2026-04-27T15:41:26Z</time></trkpt><trkpt lat="42.36362790727001" lon="0.8469080401839536"><ele>1268.7142857142858</ele><time>2026-04-27T15:41:27Z</time></trkpt><trkpt lat="42.36357154414443" lon="0.8468536503377073"><ele>1270.142857142857</ele><time>2026-04-27T15:41:28Z</time></trkpt><trkpt lat="42.363514850668764" lon="0.846797998749162"><ele>1271.5714285714284</ele><time>2026-04-27T15:41:29Z</time></trkpt><trkpt lat="42.36345803817939" lon="0.8467445111069696"><ele>1273.0</ele><time>2026-04-27T15:41:30Z</time></trkpt><trkpt lat="42.36339957405181" lon="0.8466944075799498"><ele>1273.0</ele><time>2026-04-27T15:41:31Z</time></trkpt><trkpt lat="42.36333748729018" lon="0.8466548396222544"><ele>1273.0</ele><time>2026-04-27T15:41:32Z</time></trkpt><trkpt lat="42.36327137866072" lon="0.8466291854457223"><ele>1273.0</ele><time>2026-04-27T15:41:33Z</time></trkpt><trkpt lat="42.36320337000136" lon="0.8466084635904791"><ele>1273.0</ele><time>2026-04-27T15:41:34Z</time></trkpt><trkpt lat="42.36313289528447" lon="0.8465943230768603"><ele>1273.0</ele><time>2026-04-27T15:41:35Z</time></trkpt><trkpt lat="42.36305994930938" lon="0.8465844450709222"><ele>1273.0</ele><time>2026-04-27T15:41:36Z</time></trkpt><trkpt lat="42.36298748122673" lon="0.8465740070043923"><ele>1273.0</ele><time>2026-04-27T15:41:37Z</time></trkpt><trkpt lat="42.36291489874127" lon="0.8465663839679385"><ele>1272.7142857142858</ele><time>2026-04-27T15:41:38Z</time></trkpt><trkpt lat="42.36284270831275" lon="0.8465587586154685"><ele>1272.4285714285716</ele><time>2026-04-27T15:41:39Z</time></trkpt><trkpt lat="42.362771164305876" lon="0.8465508284969799"><ele>1272.1428571428573</ele><time>2026-04-27T15:41:40Z</time></trkpt><trkpt lat="42.3626995396281" lon="0.8465414216410533"><ele>1271.857142857143</ele><time>2026-04-27T15:41:41Z</time></trkpt><trkpt lat="42.36262703588902" lon="0.8465312462127708"><ele>1271.5714285714287</ele><time>2026-04-27T15:41:42Z</time></trkpt><trkpt lat="42.36255589900806" lon="0.8465139280010583"><ele>1271.2857142857144</ele><time>2026-04-27T15:41:43Z</time></trkpt><trkpt lat="42.36248899371652" lon="0.8464836487229015"><ele>1271.0</ele><time>2026-04-27T15:41:44Z</time></trkpt><trkpt lat="42.362428796117726" lon="0.8464351802250808"><ele>1271.0000000000002</ele><time>2026-04-27T15:41:45Z</time></trkpt><trkpt lat="42.362380931138226" lon="0.846369536573904"><ele>1271.0</ele><time>2026-04-27T15:41:46Z</time></trkpt><trkpt lat="42.362344440149265" lon="0.8462932636131909"><ele>1271.0</ele><time>2026-04-27T15:41:47Z</time></trkpt><trkpt lat="42.36231673419912" lon="0.8462132457517754"><ele>1271.0</ele><time>2026-04-27T15:41:48Z</time></trkpt><trkpt lat="42.36229480361281" lon="0.8461292863325472"><ele>1271.0</ele><time>2026-04-27T15:41:49Z</time></trkpt><trkpt lat="42.36227760687188" lon="0.8460441231669805"><ele>1271.0000000000002</ele><time>2026-04-27T15:41:50Z</time></trkpt><trkpt lat="42.362260397978076" lon="0.8459593170875929"><ele>1271.0</ele><time>2026-04-27T15:41:51Z</time></trkpt><trkpt lat="42.36224304911825" lon="0.8458755147248468"><ele>1269.5714285714287</ele><time>2026-04-27T15:41:52Z</time></trkpt><trkpt lat="42.36222793865857" lon="0.8457908333173874"><ele>1268.142857142857</ele><time>2026-04-27T15:41:53Z</time></trkpt><trkpt lat="42.36221514078073" lon="0.8457029235353857"><ele>1266.7142857142858</ele><time>2026-04-27T15:41:54Z</time></trkpt><trkpt lat="42.36220326531013" lon="0.8456154223499858"><ele>1265.2857142857142</ele><time>2026-04-27T15:41:55Z</time></trkpt><trkpt lat="42.36218890613924" lon="0.8455287532671244"><ele>1263.857142857143</ele><time>2026-04-27T15:41:56Z</time></trkpt><trkpt lat="42.362173168743944" lon="0.8454407559213388"><ele>1262.4285714285716</ele><time>2026-04-27T15:41:57Z</time></trkpt><trkpt lat="42.36215762720074" lon="0.8453531764388778"><ele>1261.0</ele><time>2026-04-27T15:41:58Z</time></trkpt><trkpt lat="42.362141634742166" lon="0.8452643874695032"><ele>1261.0</ele><time>2026-04-27T15:41:59Z</time></trkpt><trkpt lat="42.36212474160249" lon="0.8451773733672531"><ele>1261.0</ele><time>2026-04-27T15:42:00Z</time></trkpt><trkpt lat="42.36210650293242" lon="0.8450906554551196"><ele>1261.0</ele><time>2026-04-27T15:42:01Z</time></trkpt><trkpt lat="42.362089283406995" lon="0.8450019578945304"><ele>1261.0</ele><time>2026-04-27T15:42:02Z</time></trkpt><trkpt lat="42.362073694159506" lon="0.8449156662858206"><ele>1261.0</ele><time>2026-04-27T15:42:03Z</time></trkpt><trkpt lat="42.36205940174384" lon="0.8448269617315088"><ele>1261.0</ele><time>2026-04-27T15:42:04Z</time></trkpt><trkpt lat="42.36204454097778" lon="0.8447378592748731"><ele>1261.0</ele><time>2026-04-27T15:42:05Z</time></trkpt><trkpt lat="42.362028351677864" lon="0.8446501617563843"><ele>1262.7142857142858</ele><time>2026-04-27T15:42:06Z</time></trkpt><trkpt lat="42.36201042304873" lon="0.844561779792638"><ele>1264.4285714285713</ele><time>2026-04-27T15:42:07Z</time></trkpt><trkpt lat="42.36199095507844" lon="0.8444754744144513"><ele>1266.142857142857</ele><time>2026-04-27T15:42:08Z</time></trkpt><trkpt lat="42.3619689243697" lon="0.8443887070625645"><ele>1267.857142857143</ele><time>2026-04-27T15:42:09Z</time></trkpt><trkpt lat="42.36194538469468" lon="0.8443038931830701"><ele>1269.5714285714287</ele><time>2026-04-27T15:42:10Z</time></trkpt><trkpt lat="42.36192078881478" lon="0.844219055142796"><ele>1271.2857142857142</ele><time>2026-04-27T15:42:11Z</time></trkpt><trkpt lat="42.361894105586565" lon="0.844135647995263"><ele>1273.0</ele><time>2026-04-27T15:42:12Z</time></trkpt><trkpt lat="42.36186334193169" lon="0.8440535538179792"><ele>1275.142857142857</ele><time>2026-04-27T15:42:13Z</time></trkpt><trkpt lat="42.36183005509692" lon="0.8439742266152769"><ele>1277.2857142857142</ele><time>2026-04-27T15:42:14Z</time></trkpt><trkpt lat="42.36179580426971" lon="0.8438945872933228"><ele>1279.4285714285716</ele><time>2026-04-27T15:42:15Z</time></trkpt><trkpt lat="42.36176207993161" lon="0.8438153005610035"><ele>1281.5714285714284</ele><time>2026-04-27T15:42:16Z</time></trkpt><trkpt lat="42.361733504630784" lon="0.8437324635705942"><ele>1283.7142857142858</ele><time>2026-04-27T15:42:17Z</time></trkpt><trkpt lat="42.361713162351485" lon="0.8436427729917098"><ele>1285.857142857143</ele><time>2026-04-27T15:42:18Z</time></trkpt><trkpt lat="42.36169553657849" lon="0.8435505854451407"><ele>1288.0</ele><time>2026-04-27T15:42:19Z</time></trkpt><trkpt lat="42.361681740338454" lon="0.8434586661491716"><ele>1289.7142857142858</ele><time>2026-04-27T15:42:20Z</time></trkpt><trkpt lat="42.36167040237909" lon="0.8433661272221493"><ele>1291.4285714285716</ele><time>2026-04-27T15:42:21Z</time></trkpt><trkpt lat="42.36165951354383" lon="0.8432738100802747"><ele>1293.142857142857</ele><time>2026-04-27T15:42:22Z</time></trkpt><trkpt lat="42.36164808739095" lon="0.8431813798717387"><ele>1294.857142857143</ele><time>2026-04-27T15:42:23Z</time></trkpt><trkpt lat="42.36163518379283" lon="0.8430921118980383"><ele>1296.5714285714287</ele><time>2026-04-27T15:42:24Z</time></trkpt><trkpt lat="42.361618033648796" lon="0.8430020552301074"><ele>1298.2857142857142</ele><time>2026-04-27T15:42:25Z</time></trkpt><trkpt lat="42.36159377961551" lon="0.8429175154353754"><ele>1300.0</ele><time>2026-04-27T15:42:26Z</time></trkpt><trkpt lat="42.36156263635906" lon="0.8428329295578819"><ele>1300.0</ele><time>2026-04-27T15:42:27Z</time></trkpt><trkpt lat="42.36152467353815" lon="0.8427532687082184"><ele>1300.0</ele><time>2026-04-27T15:42:28Z</time></trkpt><trkpt lat="42.36148281130589" lon="0.8426740532173583"><ele>1300.0</ele><time>2026-04-27T15:42:29Z</time></trkpt><trkpt lat="42.361439520324524" lon="0.8425985395993295"><ele>1300.0</ele><time>2026-04-27T15:42:30Z</time></trkpt><trkpt lat="42.36139577753589" lon="0.8425227702947915"><ele>1300.0</ele><time>2026-04-27T15:42:31Z</time></trkpt><trkpt lat="42.361349009690706" lon="0.8424508234480169"><ele>1300.0</ele><time>2026-04-27T15:42:32Z</time></trkpt><trkpt lat="42.36130183125814" lon="0.8423830915447801"><ele>1300.0</ele><time>2026-04-27T15:42:33Z</time></trkpt><trkpt lat="42.361251774363105" lon="0.8423197877478719"><ele>1300.2857142857142</ele><time>2026-04-27T15:42:34Z</time></trkpt><trkpt lat="42.36119795923836" lon="0.8422615725597458"><ele>1300.5714285714287</ele><time>2026-04-27T15:42:35Z</time></trkpt><trkpt lat="42.36114265742339" lon="0.8422143994079705"><ele>1300.857142857143</ele><time>2026-04-27T15:42:36Z</time></trkpt><trkpt lat="42.36108321382283" lon="0.842174491952086"><ele>1301.142857142857</ele><time>2026-04-27T15:42:37Z</time></trkpt><trkpt lat="42.3610204404118" lon="0.8421390482901334"><ele>1301.4285714285716</ele><time>2026-04-27T15:42:38Z</time></trkpt><trkpt lat="42.3609539094789" lon="0.8421126131178553"><ele>1301.7142857142858</ele><time>2026-04-27T15:42:39Z</time></trkpt><trkpt lat="42.36088352878902" lon="0.8420978388052456"><ele>1302.0</ele><time>2026-04-27T15:42:40Z</time></trkpt><trkpt lat="42.36081170940508" lon="0.8420875022475685"><ele>1302.0</ele><time>2026-04-27T15:42:41Z</time></trkpt><trkpt lat="42.360738318374665" lon="0.84208529301612"><ele>1302.0</ele><time>2026-04-27T15:42:42Z</time></trkpt><trkpt lat="42.360665846675595" lon="0.8420805277157871"><ele>1302.0</ele><time>2026-04-27T15:42:43Z</time></trkpt><trkpt lat="42.36059599415895" lon="0.842066115303384"><ele>1302.0</ele><time>2026-04-27T15:42:44Z</time></trkpt><trkpt lat="42.360528684694806" lon="0.8420367270716719"><ele>1302.0</ele><time>2026-04-27T15:42:45Z</time></trkpt><trkpt lat="42.3604696998811" lon="0.8419835426101769"><ele>1302.0</ele><time>2026-04-27T15:42:46Z</time></trkpt><trkpt lat="42.360420591881216" lon="0.8419290732417362"><ele>1302.0</ele><time>2026-04-27T15:42:47Z</time></trkpt><trkpt lat="42.36033481627349" lon="0.8418171797832422"><ele>1302.5</ele><time>2026-04-27T15:42:49Z</time></trkpt><trkpt lat="42.36022998682799" lon="0.8417496428838736"><ele>1303.0</ele><time>2026-04-27T15:42:51Z</time></trkpt><trkpt lat="42.3601103051241" lon="0.8417401100784838"><ele>1303.5</ele><time>2026-04-27T15:42:53Z</time></trkpt><trkpt lat="42.359990316526954" lon="0.8417621311532625"><ele>1304.0</ele><time>2026-04-27T15:42:55Z</time></trkpt><trkpt lat="42.359875583354786" lon="0.841814416512519"><ele>1304.0</ele><time>2026-04-27T15:42:57Z</time></trkpt><trkpt lat="42.35976789283004" lon="0.8419003414249633"><ele>1304.0</ele><time>2026-04-27T15:42:59Z</time></trkpt><trkpt lat="42.35971411188028" lon="0.8419485988496987"><ele>1304.0</ele><time>2026-04-27T15:43:00Z</time></trkpt><trkpt lat="42.359661837474356" lon="0.8420010738943259"><ele>1304.0</ele><time>2026-04-27T15:43:01Z</time></trkpt><trkpt lat="42.35960410532807" lon="0.8420471095337084"><ele>1304.0</ele><time>2026-04-27T15:43:02Z</time></trkpt><trkpt lat="42.35954466426991" lon="0.8420863587178035"><ele>1304.0</ele><time>2026-04-27T15:43:03Z</time></trkpt><trkpt lat="42.35948229922298" lon="0.8421162322153447"><ele>1306.4285714285716</ele><time>2026-04-27T15:43:04Z</time></trkpt><trkpt lat="42.359419112548636" lon="0.8421406342534123"><ele>1308.8571428571427</ele><time>2026-04-27T15:43:05Z</time></trkpt><trkpt lat="42.35935402775758" lon="0.8421619508142852"><ele>1311.2857142857142</ele><time>2026-04-27T15:43:06Z</time></trkpt><trkpt lat="42.35928877250401" lon="0.8421798627869987"><ele>1313.7142857142858</ele><time>2026-04-27T15:43:07Z</time></trkpt><trkpt lat="42.359221257144185" lon="0.8421968558657864"><ele>1316.1428571428573</ele><time>2026-04-27T15:43:08Z</time></trkpt><trkpt lat="42.35915422679873" lon="0.842212152516512"><ele>1318.5714285714284</ele><time>2026-04-27T15:43:09Z</time></trkpt><trkpt lat="42.35908541936035" lon="0.8422287810334642"><ele>1321.0</ele><time>2026-04-27T15:43:10Z</time></trkpt><trkpt lat="42.35901666152542" lon="0.8422474626799029"><ele>1321.0</ele><time>2026-04-27T15:43:11Z</time></trkpt><trkpt lat="42.358948351033185" lon="0.8422664183625205"><ele>1321.0</ele><time>2026-04-27T15:43:12Z</time></trkpt><trkpt lat="42.35887961224242" lon="0.8422839021289967"><ele>1321.0</ele><time>2026-04-27T15:43:13Z</time></trkpt><trkpt lat="42.35881032286376" lon="0.8423049930514642"><ele>1321.0</ele><time>2026-04-27T15:43:14Z</time></trkpt><trkpt lat="42.358741681166165" lon="0.8423290959265619"><ele>1321.0</ele><time>2026-04-27T15:43:15Z</time></trkpt><trkpt lat="42.35867286037679" lon="0.8423530895677025"><ele>1321.0</ele><time>2026-04-27T15:43:16Z</time></trkpt><trkpt lat="42.35860283583943" lon="0.8423725834047839"><ele>1321.0</ele><time>2026-04-27T15:43:17Z</time></trkpt><trkpt lat="42.358532889695056" lon="0.8423886915399152"><ele>1322.4285714285713</ele><time>2026-04-27T15:43:18Z</time></trkpt><trkpt lat="42.35846441668832" lon="0.8424007713398265"><ele>1323.857142857143</ele><time>2026-04-27T15:43:19Z</time></trkpt><trkpt lat="42.35839426503454" lon="0.8424035146103629"><ele>1325.2857142857142</ele><time>2026-04-27T15:43:20Z</time></trkpt><trkpt lat="42.35832297608376" lon="0.8424032264541216"><ele>1326.7142857142858</ele><time>2026-04-27T15:43:21Z</time></trkpt><trkpt lat="42.35825081404351" lon="0.8424033904614139"><ele>1328.142857142857</ele><time>2026-04-27T15:43:22Z</time></trkpt><trkpt lat="42.35817912723007" lon="0.8423940480601317"><ele>1329.5714285714287</ele><time>2026-04-27T15:43:23Z</time></trkpt><trkpt lat="42.358108869072936" lon="0.8423755440571691"><ele>1331.0</ele><time>2026-04-27T15:43:24Z</time></trkpt><trkpt lat="42.3580422218205" lon="0.842345040437699"><ele>1332.1666666666667</ele><time>2026-04-27T15:43:25Z</time></trkpt><trkpt lat="42.357977104336754" lon="0.8423067031927111"><ele>1333.3333333333335</ele><time>2026-04-27T15:43:26Z</time></trkpt><trkpt lat="42.35791413489221" lon="0.8422567105981783"><ele>1334.5</ele><time>2026-04-27T15:43:27Z</time></trkpt><trkpt lat="42.35785149062132" lon="0.8421995577861308"><ele>1335.6666666666667</ele><time>2026-04-27T15:43:28Z</time></trkpt><trkpt lat="42.35778822141729" lon="0.8421353982369816"><ele>1336.8333333333333</ele><time>2026-04-27T15:43:29Z</time></trkpt><trkpt lat="42.3577297348707" lon="0.8420600497431264"><ele>1338.0</ele><time>2026-04-27T15:43:30Z</time></trkpt><trkpt lat="42.35767361313727" lon="0.8419771451825749"><ele>1338.0</ele><time>2026-04-27T15:43:31Z</time></trkpt><trkpt lat="42.35762620962743" lon="0.841883356184315"><ele>1338.0</ele><time>2026-04-27T15:43:32Z</time></trkpt><trkpt lat="42.35758356042834" lon="0.8417733832119944"><ele>1338.0</ele><time>2026-04-27T15:43:33Z</time></trkpt><trkpt lat="42.35754999303074" lon="0.8416526734794305"><ele>1338.0</ele><time>2026-04-27T15:43:34Z</time></trkpt><trkpt lat="42.35752211949412" lon="0.8415267651289642"><ele>1338.0</ele><time>2026-04-27T15:43:35Z</time></trkpt><trkpt lat="42.35749881083932" lon="0.8413970032241754"><ele>1337.8000000000002</ele><time>2026-04-27T15:43:36Z</time></trkpt><trkpt lat="42.35747831942149" lon="0.8412627755138516"><ele>1337.6</ele><time>2026-04-27T15:43:37Z</time></trkpt><trkpt lat="42.3574529960281" lon="0.8411237032862022"><ele>1337.4</ele><time>2026-04-27T15:43:38Z</time></trkpt><trkpt lat="42.35742441077643" lon="0.840984420236831"><ele>1337.1999999999998</ele><time>2026-04-27T15:43:39Z</time></trkpt><trkpt lat="42.35739662087482" lon="0.8408406200890635"><ele>1337.0</ele><time>2026-04-27T15:43:40Z</time></trkpt><trkpt lat="42.357367928471994" lon="0.8406983706815097"><ele>1336.0</ele><time>2026-04-27T15:43:41Z</time></trkpt><trkpt lat="42.357337651879874" lon="0.8405545416955412"><ele>1335.0</ele><time>2026-04-27T15:43:42Z</time></trkpt><trkpt lat="42.35731015146145" lon="0.8404119133546687"><ele>1334.0</ele><time>2026-04-27T15:43:43Z</time></trkpt><trkpt lat="42.357284626829944" lon="0.8402691065587758"><ele>1333.0</ele><time>2026-04-27T15:43:44Z</time></trkpt><trkpt lat="42.35725885036021" lon="0.8401251232258248"><ele>1332.0</ele><time>2026-04-27T15:43:45Z</time></trkpt><trkpt lat="42.357234220765704" lon="0.8399790905274193"><ele>1330.8</ele><time>2026-04-27T15:43:46Z</time></trkpt><trkpt lat="42.357207051576" lon="0.8398335113564617"><ele>1329.6</ele><time>2026-04-27T15:43:47Z</time></trkpt><trkpt lat="42.357180856541504" lon="0.8396881866011383"><ele>1328.3999999999999</ele><time>2026-04-27T15:43:48Z</time></trkpt><trkpt lat="42.3571563092779" lon="0.8395381166290415"><ele>1327.1999999999998</ele><time>2026-04-27T15:43:49Z</time></trkpt><trkpt lat="42.35713593803772" lon="0.8393897400602712"><ele>1326.0</ele><time>2026-04-27T15:43:50Z</time></trkpt><trkpt lat="42.35712302222065" lon="0.8392408899089967"><ele>1322.4</ele><time>2026-04-27T15:43:51Z</time></trkpt><trkpt lat="42.35711808038231" lon="0.8390896219900745"><ele>1318.8</ele><time>2026-04-27T15:43:52Z</time></trkpt><trkpt lat="42.35712305249803" lon="0.8389368857879772"><ele>1315.2</ele><time>2026-04-27T15:43:53Z</time></trkpt><trkpt lat="42.357132136984916" lon="0.838788107799625"><ele>1311.6000000000001</ele><time>2026-04-27T15:43:54Z</time></trkpt><trkpt lat="42.35714001292027" lon="0.838640692341861"><ele>1308.0</ele><time>2026-04-27T15:43:55Z</time></trkpt><trkpt lat="42.35714934210183" lon="0.8384915827150007"><ele>1307.25</ele><time>2026-04-27T15:43:56Z</time></trkpt><trkpt lat="42.357164576252124" lon="0.8383370542907701"><ele>1306.5</ele><time>2026-04-27T15:43:57Z</time></trkpt><trkpt lat="42.357192140434194" lon="0.8381899989908833"><ele>1305.75</ele><time>2026-04-27T15:43:58Z</time></trkpt><trkpt lat="42.35722564590532" lon="0.838044841652658"><ele>1305.0</ele><time>2026-04-27T15:43:59Z</time></trkpt><trkpt lat="42.35726864302891" lon="0.837906233162388"><ele>1305.75</ele><time>2026-04-27T15:44:00Z</time></trkpt><trkpt lat="42.35731292434979" lon="0.8377607601295233"><ele>1306.5</ele><time>2026-04-27T15:44:01Z</time></trkpt><trkpt lat="42.35736444331768" lon="0.8376198257060299"><ele>1307.25</ele><time>2026-04-27T15:44:02Z</time></trkpt><trkpt lat="42.35740805137785" lon="0.8374760790861003"><ele>1308.0</ele><time>2026-04-27T15:44:03Z</time></trkpt><trkpt lat="42.35745150672656" lon="0.8373361413342163"><ele>1308.0</ele><time>2026-04-27T15:44:04Z</time></trkpt><trkpt lat="42.357497909982094" lon="0.8371996362896711"><ele>1308.0</ele><time>2026-04-27T15:44:05Z</time></trkpt><trkpt lat="42.357544269190726" lon="0.8370654783853096"><ele>1308.0</ele><time>2026-04-27T15:44:06Z</time></trkpt><trkpt lat="42.35759045183467" lon="0.8369321844766567"><ele>1308.0</ele><time>2026-04-27T15:44:07Z</time></trkpt><trkpt lat="42.35763632247344" lon="0.8368004492319708"><ele>1308.0</ele><time>2026-04-27T15:44:08Z</time></trkpt><trkpt lat="42.35767903468941" lon="0.8366706701300539"><ele>1306.4</ele><time>2026-04-27T15:44:09Z</time></trkpt><trkpt lat="42.3577126653971" lon="0.8365377937588473"><ele>1304.8000000000002</ele><time>2026-04-27T15:44:10Z</time></trkpt><trkpt lat="42.35772690758902" lon="0.8364001643122786"><ele>1303.2</ele><time>2026-04-27T15:44:11Z</time></trkpt><trkpt lat="42.35772872400699" lon="0.8362642685074155"><ele>1301.6</ele><time>2026-04-27T15:44:12Z</time></trkpt><trkpt lat="42.35770352520695" lon="0.8361314702805549"><ele>1300.0</ele><time>2026-04-27T15:44:13Z</time></trkpt><trkpt lat="42.357652137913696" lon="0.8360132645927856"><ele>1299.4</ele><time>2026-04-27T15:44:14Z</time></trkpt><trkpt lat="42.35758709696315" lon="0.8359066417069696"><ele>1298.8</ele><time>2026-04-27T15:44:15Z</time></trkpt><trkpt lat="42.35751589651264" lon="0.8358124666703559"><ele>1298.1999999999998</ele><time>2026-04-27T15:44:16Z</time></trkpt><trkpt lat="42.35743800207202" lon="0.8357289030866575"><ele>1297.6</ele><time>2026-04-27T15:44:17Z</time></trkpt><trkpt lat="42.35735662473242" lon="0.835652013410973"><ele>1297.0</ele><time>2026-04-27T15:44:18Z</time></trkpt><trkpt lat="42.35727600703794" lon="0.8355724797671684"><ele>1297.0</ele><time>2026-04-27T15:44:19Z</time></trkpt><trkpt lat="42.357206097824125" lon="0.835479410497397"><ele>1297.0</ele><time>2026-04-27T15:44:20Z</time></trkpt><trkpt lat="42.35715292485165" lon="0.8353678275259194"><ele>1297.0</ele><time>2026-04-27T15:44:21Z</time></trkpt><trkpt lat="42.35711514696784" lon="0.835240842143877"><ele>1297.0</ele><time>2026-04-27T15:44:22Z</time></trkpt><trkpt lat="42.35708646119525" lon="0.8351111432378995"><ele>1297.0</ele><time>2026-04-27T15:44:23Z</time></trkpt><trkpt lat="42.35706608312578" lon="0.8349780159580333"><ele>1293.8</ele><time>2026-04-27T15:44:24Z</time></trkpt><trkpt lat="42.357047628071726" lon="0.834841324352482"><ele>1290.6</ele><time>2026-04-27T15:44:25Z</time></trkpt><trkpt lat="42.35703051900906" lon="0.834699470099561"><ele>1287.3999999999999</ele><time>2026-04-27T15:44:26Z</time></trkpt><trkpt lat="42.35702050417874" lon="0.8345544945849253"><ele>1284.1999999999998</ele><time>2026-04-27T15:44:27Z</time></trkpt><trkpt lat="42.35701496115646" lon="0.8344148823559139"><ele>1281.0</ele><time>2026-04-27T15:44:28Z</time></trkpt><trkpt lat="42.35701105755106" lon="0.8342751014502242"><ele>1280.6</ele><time>2026-04-27T15:44:29Z</time></trkpt><trkpt lat="42.3570062792375" lon="0.8341305839024323"><ele>1280.1999999999998</ele><time>2026-04-27T15:44:30Z</time></trkpt><trkpt lat="42.35700257695053" lon="0.833985384314585"><ele>1279.8000000000002</ele><time>2026-04-27T15:44:31Z</time></trkpt><trkpt lat="42.3570063877655" lon="0.8338447959219517"><ele>1279.4</ele><time>2026-04-27T15:44:32Z</time></trkpt><trkpt lat="42.357023434354744" lon="0.8337066263208038"><ele>1279.0</ele><time>2026-04-27T15:44:33Z</time></trkpt><trkpt lat="42.35705432134031" lon="0.8335740775828344"><ele>1279.8333333333333</ele><time>2026-04-27T15:44:34Z</time></trkpt><trkpt lat="42.357103190129884" lon="0.8334543644857112"><ele>1280.6666666666665</ele><time>2026-04-27T15:44:35Z</time></trkpt><trkpt lat="42.35715551237351" lon="0.8333499018585554"><ele>1281.5</ele><time>2026-04-27T15:44:36Z</time></trkpt><trkpt lat="42.35719633522134" lon="0.8332448743405052"><ele>1282.3333333333333</ele><time>2026-04-27T15:44:37Z</time></trkpt><trkpt lat="42.35720952542791" lon="0.8331356146488793"><ele>1283.1666666666667</ele><time>2026-04-27T15:44:38Z</time></trkpt><trkpt lat="42.35720705136215" lon="0.8330354506388069"><ele>1284.0</ele><time>2026-04-27T15:44:39Z</time></trkpt><trkpt lat="42.357189191335955" lon="0.8329056456293216"><ele>1281.8</ele><time>2026-04-27T15:44:41Z</time></trkpt><trkpt lat="42.35712071513724" lon="0.8328279265463286"><ele>1279.6000000000001</ele><time>2026-04-27T15:45:06Z</time></trkpt><trkpt lat="42.357041545624845" lon="0.8327555948449702"><ele>1277.4</ele><time>2026-04-27T15:45:08Z</time></trkpt><trkpt lat="42.35691782243245" lon="0.832696674031901"><ele>1275.2</ele><time>2026-04-27T15:45:10Z</time></trkpt><trkpt lat="42.356842847092494" lon="0.8326792293426026"><ele>1273.0</ele><time>2026-04-27T15:45:11Z</time></trkpt><trkpt lat="42.35676165246659" lon="0.8326668808516494"><ele>1273.0</ele><time>2026-04-27T15:45:12Z</time></trkpt><trkpt lat="42.356677848483194" lon="0.8326534835747994"><ele>1273.0</ele><time>2026-04-27T15:45:13Z</time></trkpt><trkpt lat="42.35659269798651" lon="0.8326349502097992"><ele>1273.0</ele><time>2026-04-27T15:45:14Z</time></trkpt><trkpt lat="42.35650419777417" lon="0.8326124971306305"><ele>1273.0</ele><time>2026-04-27T15:45:15Z</time></trkpt><trkpt lat="42.35641627735152" lon="0.8325803471826699"><ele>1273.0</ele><time>2026-04-27T15:45:16Z</time></trkpt><trkpt lat="42.35633182325389" lon="0.8325284685724469"><ele>1273.0</ele><time>2026-04-27T15:45:17Z</time></trkpt><trkpt lat="42.35625165041628" lon="0.8324545214667958"><ele>1271.0</ele><time>2026-04-27T15:45:18Z</time></trkpt><trkpt lat="42.35617765199522" lon="0.8323658884662657"><ele>1269.0</ele><time>2026-04-27T15:45:19Z</time></trkpt><trkpt lat="42.356102533708174" lon="0.8322730723034343"><ele>1267.0</ele><time>2026-04-27T15:45:20Z</time></trkpt><trkpt lat="42.35602958942169" lon="0.8321821907412028"><ele>1265.0</ele><time>2026-04-27T15:45:21Z</time></trkpt><trkpt lat="42.35595277074408" lon="0.8320977129615668"><ele>1263.0</ele><time>2026-04-27T15:45:22Z</time></trkpt><trkpt lat="42.35586878643108" lon="0.832027345307508"><ele>1263.0</ele><time>2026-04-27T15:45:23Z</time></trkpt><trkpt lat="42.35577464605513" lon="0.8319824019622512"><ele>1263.0</ele><time>2026-04-27T15:45:24Z</time></trkpt><trkpt lat="42.35567619353419" lon="0.8319649067292182"><ele>1263.0</ele><time>2026-04-27T15:45:25Z</time></trkpt><trkpt lat="42.355577995775235" lon="0.8319487435490932"><ele>1263.0</ele><time>2026-04-27T15:45:26Z</time></trkpt><trkpt lat="42.355481579808824" lon="0.8319081598435873"><ele>1263.0</ele><time>2026-04-27T15:45:27Z</time></trkpt><trkpt lat="42.355389000456164" lon="0.8318406020919175"><ele>1262.2</ele><time>2026-04-27T15:45:28Z</time></trkpt><trkpt lat="42.35530413750067" lon="0.8317620769588425"><ele>1261.4</ele><time>2026-04-27T15:45:29Z</time></trkpt><trkpt lat="42.35522377475285" lon="0.8316785407004323"><ele>1260.6000000000001</ele><time>2026-04-27T15:45:30Z</time></trkpt><trkpt lat="42.3551442418748" lon="0.8315994479963631"><ele>1259.8</ele><time>2026-04-27T15:45:31Z</time></trkpt><trkpt lat="42.35505930710945" lon="0.8315355771551425"><ele>1259.0</ele><time>2026-04-27T15:45:32Z</time></trkpt><trkpt lat="42.354964805269006" lon="0.8314955640558824"><ele>1259.0</ele><time>2026-04-27T15:45:33Z</time></trkpt><trkpt lat="42.35486173950389" lon="0.8314741211193808"><ele>1259.0</ele><time>2026-04-27T15:45:34Z</time></trkpt><trkpt lat="42.35475645192537" lon="0.8314716679122615"><ele>1259.0</ele><time>2026-04-27T15:45:35Z</time></trkpt><trkpt lat="42.35465409064554" lon="0.8314844129240929"><ele>1259.0</ele><time>2026-04-27T15:45:36Z</time></trkpt><trkpt lat="42.35455044232049" lon="0.8314856752191606"><ele>1259.0</ele><time>2026-04-27T15:45:37Z</time></trkpt><trkpt lat="42.35444763095729" lon="0.8314655009471235"><ele>1258.6000000000001</ele><time>2026-04-27T15:45:38Z</time></trkpt><trkpt lat="42.354347714749984" lon="0.8314242699355282"><ele>1258.2</ele><time>2026-04-27T15:45:39Z</time></trkpt><trkpt lat="42.35425286913745" lon="0.8313590011253726"><ele>1257.8000000000002</ele><time>2026-04-27T15:45:40Z</time></trkpt><trkpt lat="42.354172202116445" lon="0.8312700771582908"><ele>1257.4</ele><time>2026-04-27T15:45:41Z</time></trkpt><trkpt lat="42.35409767910078" lon="0.8311676251224862"><ele>1257.0</ele><time>2026-04-27T15:45:42Z</time></trkpt><trkpt lat="42.354024501846496" lon="0.8310577548936742"><ele>1257.6</ele><time>2026-04-27T15:45:43Z</time></trkpt><trkpt lat="42.35395216801156" lon="0.8309472760036897"><ele>1258.2</ele><time>2026-04-27T15:45:44Z</time></trkpt><trkpt lat="42.35387841241105" lon="0.8308384945724395"><ele>1258.8</ele><time>2026-04-27T15:45:45Z</time></trkpt><trkpt lat="42.353804624285246" lon="0.8307312847783124"><ele>1259.4</ele><time>2026-04-27T15:45:46Z</time></trkpt><trkpt lat="42.353733628543715" lon="0.8306250961505667"><ele>1260.0</ele><time>2026-04-27T15:45:47Z</time></trkpt><trkpt lat="42.35366763220603" lon="0.830513728904898"><ele>1258.6</ele><time>2026-04-27T15:45:48Z</time></trkpt><trkpt lat="42.3536103467561" lon="0.8303907116291936"><ele>1257.2</ele><time>2026-04-27T15:45:49Z</time></trkpt><trkpt lat="42.35357065881441" lon="0.8302600170657141"><ele>1255.8</ele><time>2026-04-27T15:45:50Z</time></trkpt><trkpt lat="42.353549879880866" lon="0.830121312517428"><ele>1254.4</ele><time>2026-04-27T15:45:51Z</time></trkpt><trkpt lat="42.353531961358534" lon="0.8299847278981107"><ele>1253.0</ele><time>2026-04-27T15:45:52Z</time></trkpt><trkpt lat="42.35350630041272" lon="0.8298464386645145"><ele>1251.6</ele><time>2026-04-27T15:45:53Z</time></trkpt><trkpt lat="42.35346666285929" lon="0.8297152192291448"><ele>1250.1999999999998</ele><time>2026-04-27T15:45:54Z</time></trkpt><trkpt lat="42.35341176884297" lon="0.8295953015814845"><ele>1248.8</ele><time>2026-04-27T15:45:55Z</time></trkpt><trkpt lat="42.353342062976736" lon="0.8294917940598105"><ele>1247.3999999999999</ele><time>2026-04-27T15:45:56Z</time></trkpt><trkpt lat="42.35326907972567" lon="0.8293890832231497"><ele>1246.0</ele><time>2026-04-27T15:45:57Z</time></trkpt><trkpt lat="42.35320439626928" lon="0.8292775382139266"><ele>1246.0</ele><time>2026-04-27T15:45:58Z</time></trkpt><trkpt lat="42.353149777791344" lon="0.8291573753920864"><ele>1246.0</ele><time>2026-04-27T15:45:59Z</time></trkpt><trkpt lat="42.35310462762111" lon="0.8290315362034698"><ele>1246.0</ele><time>2026-04-27T15:46:00Z</time></trkpt><trkpt lat="42.353068025527975" lon="0.828899033735742"><ele>1246.0</ele><time>2026-04-27T15:46:01Z</time></trkpt><trkpt lat="42.35304361810345" lon="0.8287559058982181"><ele>1246.0</ele><time>2026-04-27T15:46:02Z</time></trkpt><trkpt lat="42.35303061114328" lon="0.8286097206442324"><ele>1245.6</ele><time>2026-04-27T15:46:03Z</time></trkpt><trkpt lat="42.353029717773055" lon="0.8284653485959071"><ele>1245.1999999999998</ele><time>2026-04-27T15:46:04Z</time></trkpt><trkpt lat="42.35303968687945" lon="0.8283256144549792"><ele>1244.8000000000002</ele><time>2026-04-27T15:46:05Z</time></trkpt><trkpt lat="42.353059917929876" lon="0.8281831466207888"><ele>1244.4</ele><time>2026-04-27T15:46:06Z</time></trkpt><trkpt lat="42.35309139829705" lon="0.8280434024607961"><ele>1244.0</ele><time>2026-04-27T15:46:07Z</time></trkpt><trkpt lat="42.35313281060912" lon="0.8279023417086402"><ele>1244.0</ele><time>2026-04-27T15:46:08Z</time></trkpt><trkpt lat="42.353181502483125" lon="0.827766016598516"><ele>1244.0</ele><time>2026-04-27T15:46:09Z</time></trkpt><trkpt lat="42.35323848483975" lon="0.8276353556174315"><ele>1244.0</ele><time>2026-04-27T15:46:10Z</time></trkpt><trkpt lat="42.35330342960961" lon="0.8275107089729914"><ele>1244.0</ele><time>2026-04-27T15:46:11Z</time></trkpt><trkpt lat="42.35337351263717" lon="0.8273913330097261"><ele>1244.0</ele><time>2026-04-27T15:46:12Z</time></trkpt><trkpt lat="42.35344776058192" lon="0.8272747726190437"><ele>1239.25</ele><time>2026-04-27T15:46:13Z</time></trkpt><trkpt lat="42.35352130876983" lon="0.8271591287733671"><ele>1234.5</ele><time>2026-04-27T15:46:14Z</time></trkpt><trkpt lat="42.35359478332889" lon="0.8270433989380911"><ele>1229.75</ele><time>2026-04-27T15:46:15Z</time></trkpt><trkpt lat="42.35366851974544" lon="0.8269242151116838"><ele>1225.0</ele><time>2026-04-27T15:46:16Z</time></trkpt><trkpt lat="42.35374044124637" lon="0.8268026620318483"><ele>1227.0</ele><time>2026-04-27T15:46:17Z</time></trkpt><trkpt lat="42.35382142438515" lon="0.8266775663077304"><ele>1229.0</ele><time>2026-04-27T15:46:18Z</time></trkpt><trkpt lat="42.353886227683" lon="0.8265542285142329"><ele>1231.0</ele><time>2026-04-27T15:46:19Z</time></trkpt><trkpt lat="42.3539528413479" lon="0.826433673696992"><ele>1233.0</ele><time>2026-04-27T15:46:20Z</time></trkpt><trkpt lat="42.3539824844791" lon="0.8263071153234367"><ele>1235.0</ele><time>2026-04-27T15:46:21Z</time></trkpt><trkpt lat="42.35403570361049" lon="0.8261896332584514"><ele>1235.0</ele><time>2026-04-27T15:46:22Z</time></trkpt><trkpt lat="42.35408572494761" lon="0.8260807439462898"><ele>1235.0</ele><time>2026-04-27T15:46:23Z</time></trkpt><trkpt lat="42.35413778164738" lon="0.8259763998771453"><ele>1235.0</ele><time>2026-04-27T15:46:24Z</time></trkpt><trkpt lat="42.35420586531212" lon="0.8258578678009896"><ele>1235.0</ele><time>2026-04-27T15:46:25Z</time></trkpt><trkpt lat="42.35433968026238" lon="0.8256486229444369"><ele>1228.25</ele><time>2026-04-27T15:46:26Z</time></trkpt><trkpt lat="42.35440378508333" lon="0.825515907319622"><ele>1221.5</ele><time>2026-04-27T15:46:27Z</time></trkpt><trkpt lat="42.35447524970368" lon="0.8253861220120202"><ele>1214.75</ele><time>2026-04-27T15:46:28Z</time></trkpt><trkpt lat="42.35454440366919" lon="0.8252632955226205"><ele>1208.0</ele><time>2026-04-27T15:46:29Z</time></trkpt><trkpt lat="42.354622231067886" lon="0.8251461828419238"><ele>1207.25</ele><time>2026-04-27T15:46:30Z</time></trkpt><trkpt lat="42.35470341309415" lon="0.8250474049288677"><ele>1206.5</ele><time>2026-04-27T15:46:31Z</time></trkpt><trkpt lat="42.354805038676346" lon="0.8249696478602242"><ele>1205.75</ele><time>2026-04-27T15:46:32Z</time></trkpt><trkpt lat="42.35490555032809" lon="0.8248894805378801"><ele>1205.0</ele><time>2026-04-27T15:46:33Z</time></trkpt><trkpt lat="42.355007539084234" lon="0.8248122637465586"><ele>1205.0</ele><time>2026-04-27T15:46:34Z</time></trkpt><trkpt lat="42.35510953822848" lon="0.8247364653261484"><ele>1205.0</ele><time>2026-04-27T15:46:35Z</time></trkpt><trkpt lat="42.35520938029805" lon="0.8246589190720867"><ele>1205.0</ele><time>2026-04-27T15:46:36Z</time></trkpt><trkpt lat="42.355311089560026" lon="0.8245832483023072"><ele>1205.0</ele><time>2026-04-27T15:46:37Z</time></trkpt><trkpt lat="42.355414746662106" lon="0.8245051280154627"><ele>1205.0</ele><time>2026-04-27T15:46:38Z</time></trkpt><trkpt lat="42.355517889667375" lon="0.8244317950932162"><ele>1205.0</ele><time>2026-04-27T15:46:39.001Z</time></trkpt><trkpt lat="42.35561595702964" lon="0.8243635303944652"><ele>1205.0</ele><time>2026-04-27T15:46:40.001Z</time></trkpt><trkpt lat="42.355719518482985" lon="0.8242958287307632"><ele>1205.0</ele><time>2026-04-27T15:46:41.001Z</time></trkpt><trkpt lat="42.35582906321886" lon="0.8242315254269484"><ele>1201.0</ele><time>2026-04-27T15:46:42.001Z</time></trkpt><trkpt lat="42.355938690122755" lon="0.8241767196137187"><ele>1197.0</ele><time>2026-04-27T15:46:43.001Z</time></trkpt><trkpt lat="42.35604698571204" lon="0.824121897895179"><ele>1193.0</ele><time>2026-04-27T15:46:44Z</time></trkpt><trkpt lat="42.35615421357069" lon="0.8240692303718717"><ele>1189.0</ele><time>2026-04-27T15:46:45Z</time></trkpt><trkpt lat="42.356258644710685" lon="0.8240194467084421"><ele>1189.0</ele><time>2026-04-27T15:46:46Z</time></trkpt><trkpt lat="42.356363412969856" lon="0.8239633489257527"><ele>1189.0</ele><time>2026-04-27T15:46:47Z</time></trkpt><trkpt lat="42.35647377430114" lon="0.823907223941211"><ele>1189.0</ele><time>2026-04-27T15:46:48Z</time></trkpt><trkpt lat="42.35658588774225" lon="0.8238645306214507"><ele>1189.0</ele><time>2026-04-27T15:46:49Z</time></trkpt><trkpt lat="42.3567007719311" lon="0.8238199438729558"><ele>1189.2</ele><time>2026-04-27T15:46:50Z</time></trkpt><trkpt lat="42.35679404792194" lon="0.8237734565502773"><ele>1189.4</ele><time>2026-04-27T15:46:51Z</time></trkpt><trkpt lat="42.35690949247682" lon="0.8237192203558565"><ele>1189.6</ele><time>2026-04-27T15:46:52Z</time></trkpt><trkpt lat="42.357012401298405" lon="0.8236825923487423"><ele>1189.8</ele><time>2026-04-27T15:46:53Z</time></trkpt><trkpt lat="42.35711557864219" lon="0.8236526070842582"><ele>1190.0</ele><time>2026-04-27T15:46:54Z</time></trkpt><trkpt lat="42.35721639549472" lon="0.8236444681737108"><ele>1190.0</ele><time>2026-04-27T15:46:55Z</time></trkpt><trkpt lat="42.35732254320916" lon="0.8236552681497071"><ele>1190.0</ele><time>2026-04-27T15:46:56Z</time></trkpt><trkpt lat="42.35743080674541" lon="0.8236673931236593"><ele>1190.0</ele><time>2026-04-27T15:46:57Z</time></trkpt><trkpt lat="42.357540284586996" lon="0.8236692414133888"><ele>1190.0</ele><time>2026-04-27T15:46:58Z</time></trkpt><trkpt lat="42.35763712072836" lon="0.8236316800682028"><ele>1190.0</ele><time>2026-04-27T15:46:59Z</time></trkpt><trkpt lat="42.35772694853531" lon="0.8235499757243943"><ele>1190.0</ele><time>2026-04-27T15:47:00Z</time></trkpt><trkpt lat="42.35781771739589" lon="0.8234899287330111"><ele>1190.0</ele><time>2026-04-27T15:47:01Z</time></trkpt><trkpt lat="42.3579037514433" lon="0.8233990549833237"><ele>1190.0</ele><time>2026-04-27T15:47:02Z</time></trkpt><trkpt lat="42.357988012086984" lon="0.8233311936257613"><ele>1190.0</ele><time>2026-04-27T15:47:03Z</time></trkpt><trkpt lat="42.3580618919752" lon="0.823255136340571"><ele>1190.0</ele><time>2026-04-27T15:47:04Z</time></trkpt><trkpt lat="42.358118598062866" lon="0.823163823287694"><ele>1188.6</ele><time>2026-04-27T15:47:05Z</time></trkpt><trkpt lat="42.35815189035658" lon="0.8230529406189159"><ele>1187.2</ele><time>2026-04-27T15:47:06Z</time></trkpt><trkpt lat="42.358158290462804" lon="0.8229264916346907"><ele>1185.8</ele><time>2026-04-27T15:47:07Z</time></trkpt><trkpt lat="42.358137943539305" lon="0.8228012190606966"><ele>1184.4</ele><time>2026-04-27T15:47:08Z</time></trkpt><trkpt lat="42.35810004421823" lon="0.8226817492589794"><ele>1183.0</ele><time>2026-04-27T15:47:09Z</time></trkpt><trkpt lat="42.35804797823228" lon="0.8225691577094002"><ele>1181.8</ele><time>2026-04-27T15:47:10Z</time></trkpt><trkpt lat="42.357975013266355" lon="0.8224818740594697"><ele>1180.6</ele><time>2026-04-27T15:47:11Z</time></trkpt><trkpt lat="42.35791489551321" lon="0.8223806797642687"><ele>1179.4</ele><time>2026-04-27T15:47:12Z</time></trkpt><trkpt lat="42.35785011806337" lon="0.8222817466970223"><ele>1178.2</ele><time>2026-04-27T15:47:13Z</time></trkpt><trkpt lat="42.35780305882853" lon="0.8221626720897331"><ele>1177.0</ele><time>2026-04-27T15:47:14Z</time></trkpt><trkpt lat="42.35774811733373" lon="0.8220535388404338"><ele>1177.0</ele><time>2026-04-27T15:47:15Z</time></trkpt><trkpt lat="42.35770248034237" lon="0.8219435517990743"><ele>1177.0</ele><time>2026-04-27T15:47:16Z</time></trkpt><trkpt lat="42.35766194758015" lon="0.8218293418192538"><ele>1177.0</ele><time>2026-04-27T15:47:17Z</time></trkpt><trkpt lat="42.3576558818583" lon="0.8216958711694409"><ele>1177.0</ele><time>2026-04-27T15:47:18Z</time></trkpt><trkpt lat="42.357696202734" lon="0.8215747423681778"><ele>1177.0</ele><time>2026-04-27T15:47:19Z</time></trkpt><trkpt lat="42.357735208593695" lon="0.8214536535673728"><ele>1178.4</ele><time>2026-04-27T15:47:20Z</time></trkpt><trkpt lat="42.35777181722341" lon="0.821336178358379"><ele>1179.8000000000002</ele><time>2026-04-27T15:47:21Z</time></trkpt><trkpt lat="42.35780960680565" lon="0.8212119091530964"><ele>1181.2</ele><time>2026-04-27T15:47:22Z</time></trkpt><trkpt lat="42.35784431820464" lon="0.8210942800823562"><ele>1182.6000000000001</ele><time>2026-04-27T15:47:23Z</time></trkpt><trkpt lat="42.357877469856085" lon="0.8209816862669523"><ele>1184.0</ele><time>2026-04-27T15:47:24Z</time></trkpt><trkpt lat="42.357898547974486" lon="0.8208684399095814"><ele>1184.8333333333335</ele><time>2026-04-27T15:47:25Z</time></trkpt><trkpt lat="42.357932149675165" lon="0.8207564581120979"><ele>1185.6666666666667</ele><time>2026-04-27T15:47:26Z</time></trkpt><trkpt lat="42.3579687520481" lon="0.8206442050473575"><ele>1186.5</ele><time>2026-04-27T15:47:27Z</time></trkpt><trkpt lat="42.358001006231085" lon="0.8205380766704782"><ele>1187.3333333333333</ele><time>2026-04-27T15:47:28Z</time></trkpt><trkpt lat="42.35803915452484" lon="0.8204286295957246"><ele>1188.1666666666665</ele><time>2026-04-27T15:47:29Z</time></trkpt><trkpt lat="42.35807410560331" lon="0.820320972701418"><ele>1189.0</ele><time>2026-04-27T15:47:30Z</time></trkpt><trkpt lat="42.35810969480582" lon="0.820214576508935"><ele>1189.1666666666665</ele><time>2026-04-27T15:47:31Z</time></trkpt><trkpt lat="42.35814888758017" lon="0.8201086238294191"><ele>1189.3333333333333</ele><time>2026-04-27T15:47:32Z</time></trkpt><trkpt lat="42.358189604488715" lon="0.8200030067337438"><ele>1189.5</ele><time>2026-04-27T15:47:33Z</time></trkpt><trkpt lat="42.35823186478864" lon="0.819896325705187"><ele>1189.6666666666667</ele><time>2026-04-27T15:47:34Z</time></trkpt><trkpt lat="42.358272967438175" lon="0.8197941478689128"><ele>1189.8333333333335</ele><time>2026-04-27T15:47:35Z</time></trkpt><trkpt lat="42.35832223419895" lon="0.819693807891631"><ele>1190.0</ele><time>2026-04-27T15:47:36Z</time></trkpt><trkpt lat="42.35836678483686" lon="0.8195883871171419"><ele>1190.0</ele><time>2026-04-27T15:47:37Z</time></trkpt><trkpt lat="42.3584063664423" lon="0.8194859620772492"><ele>1190.0</ele><time>2026-04-27T15:47:38Z</time></trkpt><trkpt lat="42.358449676914994" lon="0.8193692864512333"><ele>1190.0</ele><time>2026-04-27T15:47:39Z</time></trkpt><trkpt lat="42.358498543855944" lon="0.8192569570209407"><ele>1190.0</ele><time>2026-04-27T15:47:40Z</time></trkpt><trkpt lat="42.35854694596192" lon="0.8191491171624631"><ele>1190.0</ele><time>2026-04-27T15:47:41Z</time></trkpt><trkpt lat="42.35860482028441" lon="0.8190506604552565"><ele>1190.8</ele><time>2026-04-27T15:47:42Z</time></trkpt><trkpt lat="42.3586717540938" lon="0.818957591597443"><ele>1191.6</ele><time>2026-04-27T15:47:43Z</time></trkpt><trkpt lat="42.35875035342603" lon="0.8188807644821781"><ele>1192.4</ele><time>2026-04-27T15:47:44Z</time></trkpt><trkpt lat="42.35883683448786" lon="0.8188249531341352"><ele>1193.2</ele><time>2026-04-27T15:47:45Z</time></trkpt><trkpt lat="42.35893811300141" lon="0.8188230970808368"><ele>1194.0</ele><time>2026-04-27T15:47:46Z</time></trkpt><trkpt lat="42.359033182067336" lon="0.8187908719865887"><ele>1192.4</ele><time>2026-04-27T15:47:47Z</time></trkpt><trkpt lat="42.359124738359554" lon="0.8187535904322153"><ele>1190.8000000000002</ele><time>2026-04-27T15:47:48Z</time></trkpt><trkpt lat="42.35921919940461" lon="0.8187121882311327"><ele>1189.1999999999998</ele><time>2026-04-27T15:47:49Z</time></trkpt><trkpt lat="42.359312442615284" lon="0.8186634602769972"><ele>1187.6</ele><time>2026-04-27T15:47:50Z</time></trkpt><trkpt lat="42.35940224683975" lon="0.8185968304103697"><ele>1186.0</ele><time>2026-04-27T15:47:51Z</time></trkpt><trkpt lat="42.35948478782153" lon="0.8185058235311566"><ele>1186.3999999999999</ele><time>2026-04-27T15:47:52Z</time></trkpt><trkpt lat="42.35955961752904" lon="0.8184228686542275"><ele>1186.8</ele><time>2026-04-27T15:47:53Z</time></trkpt><trkpt lat="42.35963660023121" lon="0.8183357873411083"><ele>1187.1999999999998</ele><time>2026-04-27T15:47:54Z</time></trkpt><trkpt lat="42.35971678815576" lon="0.8182495496967461"><ele>1187.6</ele><time>2026-04-27T15:47:55Z</time></trkpt><trkpt lat="42.35979954629393" lon="0.8181726371152646"><ele>1188.0</ele><time>2026-04-27T15:47:56Z</time></trkpt><trkpt lat="42.359886854992226" lon="0.8181085183961234"><ele>1188.0</ele><time>2026-04-27T15:47:57Z</time></trkpt><trkpt lat="42.35997497285071" lon="0.8180536282925815"><ele>1188.0</ele><time>2026-04-27T15:47:58Z</time></trkpt><trkpt lat="42.36006897468479" lon="0.818003946554576"><ele>1188.0</ele><time>2026-04-27T15:47:59Z</time></trkpt><trkpt lat="42.36016938347987" lon="0.8179653787662913"><ele>1188.0</ele><time>2026-04-27T15:48:00Z</time></trkpt><trkpt lat="42.36026231459675" lon="0.8179024309919402"><ele>1188.0</ele><time>2026-04-27T15:48:01Z</time></trkpt><trkpt lat="42.360352154186785" lon="0.8178321157309117"><ele>1188.0</ele><time>2026-04-27T15:48:02Z</time></trkpt><trkpt lat="42.36044207640194" lon="0.8177619674008075"><ele>1188.0</ele><time>2026-04-27T15:48:03Z</time></trkpt><trkpt lat="42.36053124839874" lon="0.8176968445073732"><ele>1188.0</ele><time>2026-04-27T15:48:04Z</time></trkpt><trkpt lat="42.36061087469776" lon="0.8176003382901122"><ele>1188.0</ele><time>2026-04-27T15:48:05Z</time></trkpt><trkpt lat="42.3607126147966" lon="0.8175686379268288"><ele>1188.0</ele><time>2026-04-27T15:48:06Z</time></trkpt><trkpt lat="42.3608165278165" lon="0.8175545522261662"><ele>1189.0</ele><time>2026-04-27T15:48:07Z</time></trkpt><trkpt lat="42.360921361309614" lon="0.8175483253851953"><ele>1190.0</ele><time>2026-04-27T15:48:08Z</time></trkpt><trkpt lat="42.361025762775235" lon="0.817593018865175"><ele>1191.0</ele><time>2026-04-27T15:48:09Z</time></trkpt><trkpt lat="42.361129942641426" lon="0.8175893574876497"><ele>1192.0</ele><time>2026-04-27T15:48:10Z</time></trkpt><trkpt lat="42.36123204263241" lon="0.8175863354822929"><ele>1193.0</ele><time>2026-04-27T15:48:11Z</time></trkpt><trkpt lat="42.361337628386764" lon="0.817583409822088"><ele>1192.6</ele><time>2026-04-27T15:48:12Z</time></trkpt><trkpt lat="42.36144196417482" lon="0.8175794270664116"><ele>1192.1999999999998</ele><time>2026-04-27T15:48:13Z</time></trkpt><trkpt lat="42.36154720404111" lon="0.8175723572875301"><ele>1191.8</ele><time>2026-04-27T15:48:14Z</time></trkpt><trkpt lat="42.36165047746314" lon="0.8175552802243206"><ele>1191.3999999999999</ele><time>2026-04-27T15:48:15Z</time></trkpt><trkpt lat="42.36175419729132" lon="0.817516514539805"><ele>1191.0</ele><time>2026-04-27T15:48:16Z</time></trkpt><trkpt lat="42.361855339658796" lon="0.8174436141721272"><ele>1191.0</ele><time>2026-04-27T15:48:17Z</time></trkpt><trkpt lat="42.361932768322525" lon="0.8173427736398768"><ele>1191.0</ele><time>2026-04-27T15:48:18Z</time></trkpt><trkpt lat="42.36201430347594" lon="0.8172531476925041"><ele>1191.0</ele><time>2026-04-27T15:48:19Z</time></trkpt><trkpt lat="42.36209582729329" lon="0.8171667436829307"><ele>1191.0</ele><time>2026-04-27T15:48:20Z</time></trkpt><trkpt lat="42.36218146358789" lon="0.8170876519397938"><ele>1191.0</ele><time>2026-04-27T15:48:21Z</time></trkpt><trkpt lat="42.36227102689449" lon="0.8170207789102618"><ele>1189.6</ele><time>2026-04-27T15:48:22Z</time></trkpt><trkpt lat="42.36236562588702" lon="0.8169567267721582"><ele>1188.1999999999998</ele><time>2026-04-27T15:48:23Z</time></trkpt><trkpt lat="42.362456766513134" lon="0.8169003269111054"><ele>1186.8000000000002</ele><time>2026-04-27T15:48:24Z</time></trkpt><trkpt lat="42.36255313091347" lon="0.8168473692367977"><ele>1185.4</ele><time>2026-04-27T15:48:25Z</time></trkpt><trkpt lat="42.3626489875008" lon="0.8167981014434743"><ele>1184.0</ele><time>2026-04-27T15:48:26Z</time></trkpt><trkpt lat="42.36274599438429" lon="0.8167433673424406"><ele>1184.4</ele><time>2026-04-27T15:48:27Z</time></trkpt><trkpt lat="42.362839271917395" lon="0.8166781426997701"><ele>1184.8000000000002</ele><time>2026-04-27T15:48:28Z</time></trkpt><trkpt lat="42.36292952113633" lon="0.8166079979200023"><ele>1185.1999999999998</ele><time>2026-04-27T15:48:29Z</time></trkpt><trkpt lat="42.3630161874514" lon="0.8165364753534118"><ele>1185.6</ele><time>2026-04-27T15:48:30Z</time></trkpt><trkpt lat="42.36310046403935" lon="0.8164596813531568"><ele>1186.0</ele><time>2026-04-27T15:48:31Z</time></trkpt><trkpt lat="42.363182123395546" lon="0.8163750173879114"><ele>1186.0</ele><time>2026-04-27T15:48:32Z</time></trkpt><trkpt lat="42.36324808176687" lon="0.8162552709680354"><ele>1186.0</ele><time>2026-04-27T15:48:33Z</time></trkpt><trkpt lat="42.363285589511676" lon="0.8161159208830601"><ele>1186.0</ele><time>2026-04-27T15:48:34Z</time></trkpt><trkpt lat="42.36330260345294" lon="0.8159761721570828"><ele>1186.0</ele><time>2026-04-27T15:48:35Z</time></trkpt><trkpt lat="42.363306874571464" lon="0.8158450623179961"><ele>1186.0</ele><time>2026-04-27T15:48:36Z</time></trkpt><trkpt lat="42.3633201523977" lon="0.8157112148310639"><ele>1187.2</ele><time>2026-04-27T15:48:37Z</time></trkpt><trkpt lat="42.3633385175595" lon="0.8155808675943957"><ele>1188.3999999999999</ele><time>2026-04-27T15:48:38Z</time></trkpt><trkpt lat="42.36337209939368" lon="0.8154636193215703"><ele>1189.6</ele><time>2026-04-27T15:48:39Z</time></trkpt><trkpt lat="42.36343374940419" lon="0.815375502904626"><ele>1190.8</ele><time>2026-04-27T15:48:40Z</time></trkpt><trkpt lat="42.3635025119733" lon="0.8152861735605024"><ele>1192.0</ele><time>2026-04-27T15:48:41Z</time></trkpt><trkpt lat="42.36357017592876" lon="0.8151897469538093"><ele>1194.0</ele><time>2026-04-27T15:48:42Z</time></trkpt><trkpt lat="42.36362372189543" lon="0.8150721000215663"><ele>1196.0</ele><time>2026-04-27T15:48:43Z</time></trkpt><trkpt lat="42.363644513166385" lon="0.8149284824201635"><ele>1198.0</ele><time>2026-04-27T15:48:44Z</time></trkpt><trkpt lat="42.363634020755065" lon="0.81479003442958"><ele>1200.0</ele><time>2026-04-27T15:48:45Z</time></trkpt><trkpt lat="42.363625303626925" lon="0.8146505295484223"><ele>1202.0</ele><time>2026-04-27T15:48:46Z</time></trkpt><trkpt lat="42.36363258779163" lon="0.8145152316569435"><ele>1202.0</ele><time>2026-04-27T15:48:47Z</time></trkpt><trkpt lat="42.36362268106434" lon="0.814384392845117"><ele>1202.0</ele><time>2026-04-27T15:48:48.001Z</time></trkpt><trkpt lat="42.363617051484994" lon="0.8142556676706101"><ele>1202.0</ele><time>2026-04-27T15:48:49.001Z</time></trkpt><trkpt lat="42.36362541028118" lon="0.8141227304805696"><ele>1202.0</ele><time>2026-04-27T15:48:50Z</time></trkpt><trkpt lat="42.3636590947888" lon="0.8140029790902241"><ele>1202.0</ele><time>2026-04-27T15:48:51Z</time></trkpt><trkpt lat="42.36369552979653" lon="0.8138779512688695"><ele>1202.8</ele><time>2026-04-27T15:48:52Z</time></trkpt><trkpt lat="42.36373608437247" lon="0.8137534181847393"><ele>1203.6</ele><time>2026-04-27T15:48:53Z</time></trkpt><trkpt lat="42.3637777802186" lon="0.8136289492635256"><ele>1204.3999999999999</ele><time>2026-04-27T15:48:54Z</time></trkpt><trkpt lat="42.3638205235069" lon="0.813503194155477"><ele>1205.2</ele><time>2026-04-27T15:48:55Z</time></trkpt><trkpt lat="42.363869809101175" lon="0.813381838099473"><ele>1206.0</ele><time>2026-04-27T15:48:56Z</time></trkpt><trkpt lat="42.36392258661876" lon="0.8132672657005178"><ele>1203.8</ele><time>2026-04-27T15:48:57Z</time></trkpt><trkpt lat="42.36399103825828" lon="0.813174693082096"><ele>1201.6</ele><time>2026-04-27T15:48:58Z</time></trkpt><trkpt lat="42.36407015982704" lon="0.8130897610055247"><ele>1199.4</ele><time>2026-04-27T15:48:59Z</time></trkpt><trkpt lat="42.36415137627134" lon="0.8130163335150763"><ele>1197.2</ele><time>2026-04-27T15:49:00Z</time></trkpt><trkpt lat="42.36423710587114" lon="0.8129566279369635"><ele>1195.0</ele><time>2026-04-27T15:49:01Z</time></trkpt><trkpt lat="42.364325229215325" lon="0.8128968209536651"><ele>1195.0</ele><time>2026-04-27T15:49:02Z</time></trkpt><trkpt lat="42.36440467520246" lon="0.8128203388950827"><ele>1195.0</ele><time>2026-04-27T15:49:03Z</time></trkpt><trkpt lat="42.36449381311254" lon="0.8127694355600729"><ele>1195.0</ele><time>2026-04-27T15:49:04Z</time></trkpt><trkpt lat="42.36457992409953" lon="0.8127079141705978"><ele>1195.0</ele><time>2026-04-27T15:49:05Z</time></trkpt><trkpt lat="42.364676259247645" lon="0.812683932761761"><ele>1195.0</ele><time>2026-04-27T15:49:06Z</time></trkpt><trkpt lat="42.36476606470885" lon="0.8126515570227155"><ele>1196.8</ele><time>2026-04-27T15:49:07Z</time></trkpt><trkpt lat="42.364860137536" lon="0.8126051523534958"><ele>1198.6</ele><time>2026-04-27T15:49:08Z</time></trkpt><trkpt lat="42.3649534672753" lon="0.8125919415596706"><ele>1200.4</ele><time>2026-04-27T15:49:09Z</time></trkpt><trkpt lat="42.365049705564154" lon="0.8125666400497629"><ele>1202.2</ele><time>2026-04-27T15:49:10Z</time></trkpt><trkpt lat="42.36514397212133" lon="0.8125432134408519"><ele>1204.0</ele><time>2026-04-27T15:49:11Z</time></trkpt><trkpt lat="42.365239251270424" lon="0.8125234791364474"><ele>1204.0</ele><time>2026-04-27T15:49:12Z</time></trkpt><trkpt lat="42.365329908949484" lon="0.8124842907171728"><ele>1204.0</ele><time>2026-04-27T15:49:13Z</time></trkpt><trkpt lat="42.36542364941583" lon="0.8124394803475683"><ele>1204.0</ele><time>2026-04-27T15:49:14Z</time></trkpt><trkpt lat="42.36550427818758" lon="0.81237773525051"><ele>1204.0</ele><time>2026-04-27T15:49:15Z</time></trkpt><trkpt lat="42.36558260333727" lon="0.8123057651445339"><ele>1204.0</ele><time>2026-04-27T15:49:16Z</time></trkpt><trkpt lat="42.36565430639087" lon="0.8122296934613752"><ele>1203.0</ele><time>2026-04-27T15:49:17Z</time></trkpt><trkpt lat="42.36572569453457" lon="0.8121477446130843"><ele>1202.0</ele><time>2026-04-27T15:49:18Z</time></trkpt><trkpt lat="42.36579156288176" lon="0.8120635633808712"><ele>1201.0</ele><time>2026-04-27T15:49:19Z</time></trkpt><trkpt lat="42.36585534408207" lon="0.8119763795647666"><ele>1200.0</ele><time>2026-04-27T15:49:20Z</time></trkpt><trkpt lat="42.365923807171" lon="0.8118976461432342"><ele>1199.0</ele><time>2026-04-27T15:49:21Z</time></trkpt><trkpt lat="42.36599802889765" lon="0.8118298811426665"><ele>1199.6666666666667</ele><time>2026-04-27T15:49:22Z</time></trkpt><trkpt lat="42.36607711102376" lon="0.8117681652329966"><ele>1200.3333333333335</ele><time>2026-04-27T15:49:23Z</time></trkpt><trkpt lat="42.36615415297976" lon="0.811713807242047"><ele>1201.0</ele><time>2026-04-27T15:49:24Z</time></trkpt><trkpt lat="42.36622477427271" lon="0.8116567736287714"><ele>1201.6666666666667</ele><time>2026-04-27T15:49:25Z</time></trkpt><trkpt lat="42.366290887739254" lon="0.8115876956555615"><ele>1202.3333333333333</ele><time>2026-04-27T15:49:26Z</time></trkpt><trkpt lat="42.3663457137562" lon="0.8114970977116048"><ele>1203.0</ele><time>2026-04-27T15:49:27Z</time></trkpt><trkpt lat="42.3663925720816" lon="0.8114014683701491"><ele>1203.0</ele><time>2026-04-27T15:49:28Z</time></trkpt><trkpt lat="42.36642727875039" lon="0.811300044146862"><ele>1203.0</ele><time>2026-04-27T15:49:29Z</time></trkpt><trkpt lat="42.36646036360164" lon="0.8111971954999292"><ele>1203.0</ele><time>2026-04-27T15:49:30Z</time></trkpt><trkpt lat="42.366497142048125" lon="0.8110916351640427"><ele>1203.0</ele><time>2026-04-27T15:49:31Z</time></trkpt><trkpt lat="42.366533645245404" lon="0.8109925702873938"><ele>1203.0</ele><time>2026-04-27T15:49:32Z</time></trkpt><trkpt lat="42.36656912926374" lon="0.8108923058177985"><ele>1203.0</ele><time>2026-04-27T15:49:33Z</time></trkpt><trkpt lat="42.36660432879698" lon="0.8107890830623411"><ele>1204.3333333333333</ele><time>2026-04-27T15:49:34Z</time></trkpt><trkpt lat="42.3666375373227" lon="0.8106897316112288"><ele>1205.6666666666667</ele><time>2026-04-27T15:49:35Z</time></trkpt><trkpt lat="42.366672115209155" lon="0.8105878075499131"><ele>1207.0</ele><time>2026-04-27T15:49:36Z</time></trkpt><trkpt lat="42.36670280275731" lon="0.8104844305881406"><ele>1208.3333333333335</ele><time>2026-04-27T15:49:37Z</time></trkpt><trkpt lat="42.36673537200013" lon="0.810382683340145"><ele>1209.6666666666667</ele><time>2026-04-27T15:49:38Z</time></trkpt><trkpt lat="42.36676881261504" lon="0.8102778988389202"><ele>1211.0</ele><time>2026-04-27T15:49:39Z</time></trkpt><trkpt lat="42.3667999936724" lon="0.8101768314157572"><ele>1212.5</ele><time>2026-04-27T15:49:40Z</time></trkpt><trkpt lat="42.36683181382617" lon="0.81007313504955"><ele>1214.0</ele><time>2026-04-27T15:49:41Z</time></trkpt><trkpt lat="42.36688282450384" lon="0.8099773486052607"><ele>1215.5</ele><time>2026-04-27T15:49:42Z</time></trkpt><trkpt lat="42.366958104114836" lon="0.8099268562377064"><ele>1217.0</ele><time>2026-04-27T15:49:43Z</time></trkpt><trkpt lat="42.367035055849975" lon="0.8098984253628512"><ele>1218.5</ele><time>2026-04-27T15:49:44Z</time></trkpt><trkpt lat="42.36711372913426" lon="0.8099126364122107"><ele>1220.0</ele><time>2026-04-27T15:49:45Z</time></trkpt><trkpt lat="42.36719226516544" lon="0.8099455544846182"><ele>1219.5</ele><time>2026-04-27T15:49:46Z</time></trkpt><trkpt lat="42.367257686857535" lon="0.8100107651332079"><ele>1219.0</ele><time>2026-04-27T15:49:47Z</time></trkpt><trkpt lat="42.36731963339861" lon="0.8100956163085848"><ele>1218.5</ele><time>2026-04-27T15:49:48Z</time></trkpt><trkpt lat="42.367397864350785" lon="0.8101581163607144"><ele>1218.0</ele><time>2026-04-27T15:49:49Z</time></trkpt><trkpt lat="42.36746119784758" lon="0.8102412226133131"><ele>1217.5</ele><time>2026-04-27T15:49:50Z</time></trkpt><trkpt lat="42.36754808254331" lon="0.8102867954080054"><ele>1217.0</ele><time>2026-04-27T15:49:51Z</time></trkpt><trkpt lat="42.367647217667056" lon="0.8102958731421338"><ele>1217.0</ele><time>2026-04-27T15:49:52Z</time></trkpt><trkpt lat="42.36774180093826" lon="0.810274887717143"><ele>1217.0</ele><time>2026-04-27T15:49:53Z</time></trkpt><trkpt lat="42.36782664571227" lon="0.8102085963914403"><ele>1217.0</ele><time>2026-04-27T15:49:54Z</time></trkpt><trkpt lat="42.36791185612175" lon="0.810153437591136"><ele>1217.0</ele><time>2026-04-27T15:49:55Z</time></trkpt><trkpt lat="42.36799396657315" lon="0.8100936709229168"><ele>1217.0</ele><time>2026-04-27T15:49:56Z</time></trkpt><trkpt lat="42.36807830934157" lon="0.8100373290878964"><ele>1217.6</ele><time>2026-04-27T15:49:57Z</time></trkpt><trkpt lat="42.3681621624485" lon="0.8099844413154795"><ele>1218.2</ele><time>2026-04-27T15:49:58Z</time></trkpt><trkpt lat="42.36824954284576" lon="0.8099426351567143"><ele>1218.8</ele><time>2026-04-27T15:49:59Z</time></trkpt><trkpt lat="42.36833766913264" lon="0.8099078510588843"><ele>1219.4</ele><time>2026-04-27T15:50:00Z</time></trkpt><trkpt lat="42.36842807214737" lon="0.809887026407758"><ele>1220.0</ele><time>2026-04-27T15:50:01Z</time></trkpt><trkpt lat="42.36851782338183" lon="0.8099096900089141"><ele>1220.0</ele><time>2026-04-27T15:50:02Z</time></trkpt><trkpt lat="42.368607509362164" lon="0.8098911386890854"><ele>1220.0</ele><time>2026-04-27T15:50:03Z</time></trkpt><trkpt lat="42.36869610202775" lon="0.8098983736894195"><ele>1220.0</ele><time>2026-04-27T15:50:04Z</time></trkpt><trkpt lat="42.36878544764371" lon="0.8099052862141317"><ele>1220.0</ele><time>2026-04-27T15:50:05Z</time></trkpt><trkpt lat="42.36887218506446" lon="0.8099191696185776"><ele>1220.0</ele><time>2026-04-27T15:50:06Z</time></trkpt><trkpt lat="42.36895653915468" lon="0.8099281948202189"><ele>1220.0</ele><time>2026-04-27T15:50:07Z</time></trkpt><trkpt lat="42.36903809008521" lon="0.809931941422133"><ele>1220.8333333333335</ele><time>2026-04-27T15:50:08Z</time></trkpt><trkpt lat="42.3691188774975" lon="0.8099364046568289"><ele>1221.6666666666667</ele><time>2026-04-27T15:50:09Z</time></trkpt><trkpt lat="42.369199245529956" lon="0.8099397954379816"><ele>1222.5</ele><time>2026-04-27T15:50:10Z</time></trkpt><trkpt lat="42.369278350032666" lon="0.8099462194921625"><ele>1223.3333333333333</ele><time>2026-04-27T15:50:11Z</time></trkpt><trkpt lat="42.36935738869966" lon="0.8099527383298387"><ele>1224.1666666666665</ele><time>2026-04-27T15:50:12Z</time></trkpt><trkpt lat="42.36943506898899" lon="0.8099566370174693"><ele>1225.0</ele><time>2026-04-27T15:50:13Z</time></trkpt><trkpt lat="42.369513759468695" lon="0.8099622923776378"><ele>1225.0</ele><time>2026-04-27T15:50:14Z</time></trkpt><trkpt lat="42.36959123409558" lon="0.80996484572487"><ele>1225.0</ele><time>2026-04-27T15:50:15Z</time></trkpt><trkpt lat="42.36966655096523" lon="0.8099580733127352"><ele>1225.0</ele><time>2026-04-27T15:50:16Z</time></trkpt><trkpt lat="42.36974191607161" lon="0.8099452441411958"><ele>1225.0</ele><time>2026-04-27T15:50:17Z</time></trkpt><trkpt lat="42.369817456764174" lon="0.8099393118750421"><ele>1225.0</ele><time>2026-04-27T15:50:18Z</time></trkpt><trkpt lat="42.369884138464286" lon="0.8098726496660369"><ele>1225.0</ele><time>2026-04-27T15:50:19Z</time></trkpt><trkpt lat="42.369956448246796" lon="0.8098258244648173"><ele>1226.6</ele><time>2026-04-27T15:50:20Z</time></trkpt><trkpt lat="42.3700312118601" lon="0.8097757191430481"><ele>1228.2</ele><time>2026-04-27T15:50:21Z</time></trkpt><trkpt lat="42.370108970680576" lon="0.8097204783460548"><ele>1229.8</ele><time>2026-04-27T15:50:22Z</time></trkpt><trkpt lat="42.37018920123696" lon="0.8096637735226245"><ele>1231.4</ele><time>2026-04-27T15:50:23Z</time></trkpt><trkpt lat="42.370274190636586" lon="0.8096087677485441"><ele>1233.0</ele><time>2026-04-27T15:50:24Z</time></trkpt><trkpt lat="42.370357331474686" lon="0.8095500947767519"><ele>1233.0</ele><time>2026-04-27T15:50:25Z</time></trkpt><trkpt lat="42.370440294466654" lon="0.8094864747848542"><ele>1233.0</ele><time>2026-04-27T15:50:26Z</time></trkpt><trkpt lat="42.37052133882644" lon="0.809414884020824"><ele>1233.0</ele><time>2026-04-27T15:50:27Z</time></trkpt><trkpt lat="42.37059926641411" lon="0.8093351421183499"><ele>1233.0</ele><time>2026-04-27T15:50:28Z</time></trkpt><trkpt lat="42.37068237651171" lon="0.8092671524285937"><ele>1233.0</ele><time>2026-04-27T15:50:29Z</time></trkpt><trkpt lat="42.37075028710427" lon="0.809169379003489"><ele>1230.4</ele><time>2026-04-27T15:50:30Z</time></trkpt><trkpt lat="42.370806632464074" lon="0.809067194372069"><ele>1227.8</ele><time>2026-04-27T15:50:31Z</time></trkpt><trkpt lat="42.37084439747371" lon="0.8089439488022587"><ele>1225.2</ele><time>2026-04-27T15:50:32Z</time></trkpt><trkpt lat="42.37088664533652" lon="0.8088253531966183"><ele>1222.6</ele><time>2026-04-27T15:50:33Z</time></trkpt><trkpt lat="42.37092328038651" lon="0.8086999034121094"><ele>1220.0</ele><time>2026-04-27T15:50:34Z</time></trkpt><trkpt lat="42.370957746261396" lon="0.8085709368259565"><ele>1221.4</ele><time>2026-04-27T15:50:35Z</time></trkpt><trkpt lat="42.37098904712401" lon="0.8084415897517621"><ele>1222.8</ele><time>2026-04-27T15:50:36Z</time></trkpt><trkpt lat="42.371021369838914" lon="0.8083113705005182"><ele>1224.2</ele><time>2026-04-27T15:50:37Z</time></trkpt><trkpt lat="42.371058115567344" lon="0.8081833262033875"><ele>1225.6</ele><time>2026-04-27T15:50:38Z</time></trkpt><trkpt lat="42.371090465474495" lon="0.8080553332153169"><ele>1227.0</ele><time>2026-04-27T15:50:39Z</time></trkpt><trkpt lat="42.37112047926316" lon="0.8079280879151357"><ele>1227.0</ele><time>2026-04-27T15:50:40Z</time></trkpt><trkpt lat="42.371130063802376" lon="0.8077989579672024"><ele>1227.0</ele><time>2026-04-27T15:50:41Z</time></trkpt><trkpt lat="42.371129039856285" lon="0.8076683534893089"><ele>1227.0</ele><time>2026-04-27T15:50:42Z</time></trkpt><trkpt lat="42.371120109261284" lon="0.8075378160728149"><ele>1227.0</ele><time>2026-04-27T15:50:43Z</time></trkpt><trkpt lat="42.37111898430132" lon="0.8074072594656608"><ele>1227.0</ele><time>2026-04-27T15:50:44Z</time></trkpt><trkpt lat="42.371146357867474" lon="0.8072823619304423"><ele>1228.0</ele><time>2026-04-27T15:50:45Z</time></trkpt><trkpt lat="42.37119305028611" lon="0.8071663990360929"><ele>1229.0</ele><time>2026-04-27T15:50:46Z</time></trkpt><trkpt lat="42.37126279964053" lon="0.8070714829053547"><ele>1230.0</ele><time>2026-04-27T15:50:47.001Z</time></trkpt><trkpt lat="42.37132136372349" lon="0.8069620596222141"><ele>1231.0</ele><time>2026-04-27T15:50:48.001Z</time></trkpt><trkpt lat="42.37139052357911" lon="0.8068598356301365"><ele>1232.0</ele><time>2026-04-27T15:50:49.001Z</time></trkpt><trkpt lat="42.37145690443936" lon="0.8067571856988154"><ele>1225.8</ele><time>2026-04-27T15:50:50.001Z</time></trkpt><trkpt lat="42.37151579486399" lon="0.8066490003020269"><ele>1219.6</ele><time>2026-04-27T15:50:51.001Z</time></trkpt><trkpt lat="42.37156318930526" lon="0.8065311624542284"><ele>1213.3999999999999</ele><time>2026-04-27T15:50:52.001Z</time></trkpt><trkpt lat="42.37159538724095" lon="0.8064046378896733"><ele>1207.2</ele><time>2026-04-27T15:50:53.001Z</time></trkpt><trkpt lat="42.371623841570376" lon="0.8062776634870623"><ele>1201.0</ele><time>2026-04-27T15:50:54.001Z</time></trkpt><trkpt lat="42.37165814582275" lon="0.8061535106210878"><ele>1201.0</ele><time>2026-04-27T15:50:55.001Z</time></trkpt><trkpt lat="42.37169175076638" lon="0.8060326336917479"><ele>1201.0</ele><time>2026-04-27T15:50:56Z</time></trkpt><trkpt lat="42.37172666691135" lon="0.8059095564397772"><ele>1201.0</ele><time>2026-04-27T15:50:57Z</time></trkpt><trkpt lat="42.37177238671114" lon="0.8057919449721526"><ele>1201.0</ele><time>2026-04-27T15:50:58Z</time></trkpt><trkpt lat="42.37183314113212" lon="0.8056921519643921"><ele>1201.0</ele><time>2026-04-27T15:50:59Z</time></trkpt><trkpt lat="42.37190978331788" lon="0.8056073095631321"><ele>1197.6</ele><time>2026-04-27T15:51:00Z</time></trkpt><trkpt lat="42.37199464929074" lon="0.8055324294827896"><ele>1194.1999999999998</ele><time>2026-04-27T15:51:01Z</time></trkpt><trkpt lat="42.37208750163442" lon="0.8054657895246045"><ele>1190.8000000000002</ele><time>2026-04-27T15:51:02Z</time></trkpt><trkpt lat="42.37218793176227" lon="0.8054134585516158"><ele>1187.4</ele><time>2026-04-27T15:51:03Z</time></trkpt><trkpt lat="42.372288098650095" lon="0.8053707977780455"><ele>1184.0</ele><time>2026-04-27T15:51:04Z</time></trkpt><trkpt lat="42.37238814957817" lon="0.8053390644491079"><ele>1184.0</ele><time>2026-04-27T15:51:05Z</time></trkpt><trkpt lat="42.372487484409234" lon="0.8053359118129553"><ele>1184.0</ele><time>2026-04-27T15:51:06Z</time></trkpt><trkpt lat="42.37258433098369" lon="0.8053090638146323"><ele>1184.0</ele><time>2026-04-27T15:51:07Z</time></trkpt><trkpt lat="42.37267668194346" lon="0.8052634989514195"><ele>1184.0</ele><time>2026-04-27T15:51:08Z</time></trkpt><trkpt lat="42.37276200173612" lon="0.8051959593966078"><ele>1184.0</ele><time>2026-04-27T15:51:09Z</time></trkpt><trkpt lat="42.372827539660065" lon="0.8050949837167619"><ele>1180.8</ele><time>2026-04-27T15:51:10Z</time></trkpt><trkpt lat="42.372888263780105" lon="0.8049921846886142"><ele>1177.6000000000001</ele><time>2026-04-27T15:51:11Z</time></trkpt><trkpt lat="42.3729471275116" lon="0.8048882337950033"><ele>1174.4</ele><time>2026-04-27T15:51:12Z</time></trkpt><trkpt lat="42.37300505439842" lon="0.8047712794233927"><ele>1171.2</ele><time>2026-04-27T15:51:13Z</time></trkpt><trkpt lat="42.37305784514052" lon="0.8046506931946372"><ele>1168.0</ele><time>2026-04-27T15:51:14Z</time></trkpt><trkpt lat="42.37311141673927" lon="0.8045275589328676"><ele>1168.0</ele><time>2026-04-27T15:51:15Z</time></trkpt><trkpt lat="42.37316007446642" lon="0.8043984917083965"><ele>1168.0</ele><time>2026-04-27T15:51:16Z</time></trkpt><trkpt lat="42.37320661534788" lon="0.8042732828171898"><ele>1168.0</ele><time>2026-04-27T15:51:17Z</time></trkpt><trkpt lat="42.37326120487162" lon="0.8041554081909968"><ele>1168.0</ele><time>2026-04-27T15:51:18Z</time></trkpt><trkpt lat="42.373321888642884" lon="0.8040435368272861"><ele>1168.0</ele><time>2026-04-27T15:51:19Z</time></trkpt><trkpt lat="42.37338855615462" lon="0.8039444468337551"><ele>1172.0</ele><time>2026-04-27T15:51:20Z</time></trkpt><trkpt lat="42.37345427825592" lon="0.8038520968612459"><ele>1176.0</ele><time>2026-04-27T15:51:21Z</time></trkpt><trkpt lat="42.37351375089353" lon="0.8037603423318272"><ele>1180.0</ele><time>2026-04-27T15:51:22Z</time></trkpt><trkpt lat="42.37355695103386" lon="0.8036508124587124"><ele>1184.0</ele><time>2026-04-27T15:51:23Z</time></trkpt><trkpt lat="42.37360426996065" lon="0.8035312775592137"><ele>1188.0</ele><time>2026-04-27T15:51:24Z</time></trkpt><trkpt lat="42.37360088343916" lon="0.8033932113886588"><ele>1190.0</ele><time>2026-04-27T15:51:25Z</time></trkpt><trkpt lat="42.37359675666406" lon="0.8032580140039822"><ele>1192.0</ele><time>2026-04-27T15:51:26Z</time></trkpt><trkpt lat="42.37358247366491" lon="0.8031215668954915"><ele>1194.0</ele><time>2026-04-27T15:51:27Z</time></trkpt><trkpt lat="42.373573313076" lon="0.8029795648782783"><ele>1196.0</ele><time>2026-04-27T15:51:28Z</time></trkpt><trkpt lat="42.37357080081921" lon="0.8028407491374746"><ele>1198.0</ele><time>2026-04-27T15:51:29Z</time></trkpt><trkpt lat="42.37357325277884" lon="0.8027011944220867"><ele>1198.6</ele><time>2026-04-27T15:51:30Z</time></trkpt><trkpt lat="42.37357465181427" lon="0.8025633046103982"><ele>1199.1999999999998</ele><time>2026-04-27T15:51:31Z</time></trkpt><trkpt lat="42.37357623991079" lon="0.8024216422917081"><ele>1199.8</ele><time>2026-04-27T15:51:32Z</time></trkpt><trkpt lat="42.37358782029938" lon="0.8022828181044058"><ele>1200.3999999999999</ele><time>2026-04-27T15:51:33Z</time></trkpt><trkpt lat="42.37359635614355" lon="0.8021401057815987"><ele>1201.0</ele><time>2026-04-27T15:51:34Z</time></trkpt><trkpt lat="42.373597229967096" lon="0.8019938112684454"><ele>1201.0</ele><time>2026-04-27T15:51:35Z</time></trkpt><trkpt lat="42.37359714315526" lon="0.8018456913398905"><ele>1201.0</ele><time>2026-04-27T15:51:36Z</time></trkpt><trkpt lat="42.373594756034635" lon="0.8016963702480875"><ele>1201.0</ele><time>2026-04-27T15:51:37Z</time></trkpt><trkpt lat="42.37358954754505" lon="0.8015514600012543"><ele>1201.0</ele><time>2026-04-27T15:51:38Z</time></trkpt><trkpt lat="42.373573262620184" lon="0.8014098620644284"><ele>1201.0</ele><time>2026-04-27T15:51:39Z</time></trkpt><trkpt lat="42.373566538075764" lon="0.8012717265456871"><ele>1199.8</ele><time>2026-04-27T15:51:40Z</time></trkpt><trkpt lat="42.37350885429202" lon="0.8011476743991074"><ele>1198.6</ele><time>2026-04-27T15:51:41Z</time></trkpt><trkpt lat="42.373457747087876" lon="0.8010280188938564"><ele>1197.4</ele><time>2026-04-27T15:51:42Z</time></trkpt><trkpt lat="42.37339545380466" lon="0.8009116797729234"><ele>1196.2</ele><time>2026-04-27T15:51:43Z</time></trkpt><trkpt lat="42.373328040041066" lon="0.8007998255660199"><ele>1195.0</ele><time>2026-04-27T15:51:44Z</time></trkpt><trkpt lat="42.37326013221924" lon="0.8006981880208246"><ele>1191.2</ele><time>2026-04-27T15:51:45Z</time></trkpt><trkpt lat="42.37318413604555" lon="0.8006073605339008"><ele>1187.4</ele><time>2026-04-27T15:51:46Z</time></trkpt><trkpt lat="42.37310862366332" lon="0.8005170048751912"><ele>1183.6</ele><time>2026-04-27T15:51:47Z</time></trkpt><trkpt lat="42.373039057002" lon="0.8004288822227409"><ele>1179.8</ele><time>2026-04-27T15:51:48Z</time></trkpt><trkpt lat="42.37298018301028" lon="0.8003426260885037"><ele>1176.0</ele><time>2026-04-27T15:51:49Z</time></trkpt><trkpt lat="42.37293121489595" lon="0.800256573022195"><ele>1174.1666666666667</ele><time>2026-04-27T15:51:50Z</time></trkpt><trkpt lat="42.372901133067586" lon="0.8001628752072453"><ele>1172.3333333333333</ele><time>2026-04-27T15:51:51Z</time></trkpt><trkpt lat="42.37289446223017" lon="0.8000646303225116"><ele>1170.5</ele><time>2026-04-27T15:51:52Z</time></trkpt><trkpt lat="42.37291372139942" lon="0.7999680943667906"><ele>1168.6666666666665</ele><time>2026-04-27T15:51:53Z</time></trkpt><trkpt lat="42.372978239006265" lon="0.7999054912821267"><ele>1166.8333333333333</ele><time>2026-04-27T15:51:54Z</time></trkpt><trkpt lat="42.37304446406208" lon="0.7998479468256775"><ele>1165.0</ele><time>2026-04-27T15:51:55Z</time></trkpt><trkpt lat="42.37312895037073" lon="0.7998040299848127"><ele>1165.0</ele><time>2026-04-27T15:51:56Z</time></trkpt><trkpt lat="42.37321424317168" lon="0.7997400413079613"><ele>1165.0</ele><time>2026-04-27T15:51:57Z</time></trkpt><trkpt lat="42.37328363176975" lon="0.7996440892380606"><ele>1165.0</ele><time>2026-04-27T15:51:58Z</time></trkpt><trkpt lat="42.37335859403491" lon="0.7995591728402291"><ele>1165.0</ele><time>2026-04-27T15:51:59Z</time></trkpt><trkpt lat="42.37342918025067" lon="0.7994664522127714"><ele>1165.0</ele><time>2026-04-27T15:52:00Z</time></trkpt><trkpt lat="42.37349454446541" lon="0.7993702608768035"><ele>1168.6</ele><time>2026-04-27T15:52:01Z</time></trkpt><trkpt lat="42.37355254147796" lon="0.799259810374445"><ele>1172.2</ele><time>2026-04-27T15:52:02Z</time></trkpt><trkpt lat="42.37360218761444" lon="0.7991383031760392"><ele>1175.8</ele><time>2026-04-27T15:52:03Z</time></trkpt><trkpt lat="42.37364136195343" lon="0.7990104101207831"><ele>1179.4</ele><time>2026-04-27T15:52:04Z</time></trkpt><trkpt lat="42.37367407440773" lon="0.7988738515287639"><ele>1183.0</ele><time>2026-04-27T15:52:05Z</time></trkpt><trkpt lat="42.37370424985333" lon="0.7987329938991728"><ele>1183.0</ele><time>2026-04-27T15:52:06Z</time></trkpt><trkpt lat="42.373731160107056" lon="0.7985898806252575"><ele>1183.0</ele><time>2026-04-27T15:52:07Z</time></trkpt><trkpt lat="42.373760777776695" lon="0.7984516724359959"><ele>1183.0</ele><time>2026-04-27T15:52:08Z</time></trkpt><trkpt lat="42.373798323235924" lon="0.7983211070821967"><ele>1183.0</ele><time>2026-04-27T15:52:09Z</time></trkpt><trkpt lat="42.37385221700962" lon="0.7982005598461276"><ele>1183.0</ele><time>2026-04-27T15:52:10Z</time></trkpt><trkpt lat="42.37392480009504" lon="0.7980974137263984"><ele>1177.4</ele><time>2026-04-27T15:52:11Z</time></trkpt><trkpt lat="42.37400989236553" lon="0.7980097604057981"><ele>1171.8</ele><time>2026-04-27T15:52:12Z</time></trkpt><trkpt lat="42.374106400572465" lon="0.797934072283768"><ele>1166.2</ele><time>2026-04-27T15:52:13Z</time></trkpt><trkpt lat="42.374207703660964" lon="0.7978676070430183"><ele>1160.6</ele><time>2026-04-27T15:52:14Z</time></trkpt><trkpt lat="42.3743080884903" lon="0.7978072291638265"><ele>1155.0</ele><time>2026-04-27T15:52:15Z</time></trkpt><trkpt lat="42.3744031285784" lon="0.7977329723808808"><ele>1151.0</ele><time>2026-04-27T15:52:16Z</time></trkpt><trkpt lat="42.37449341812551" lon="0.7976465289481778"><ele>1147.0</ele><time>2026-04-27T15:52:17Z</time></trkpt><trkpt lat="42.374577398993964" lon="0.7975472885342203"><ele>1143.0</ele><time>2026-04-27T15:52:18Z</time></trkpt><trkpt lat="42.374657542687835" lon="0.7974423349972011"><ele>1139.0</ele><time>2026-04-27T15:52:19Z</time></trkpt><trkpt lat="42.37473374634238" lon="0.7973325274688114"><ele>1135.0</ele><time>2026-04-27T15:52:20Z</time></trkpt><trkpt lat="42.37480687273905" lon="0.7972142394985167"><ele>1135.0</ele><time>2026-04-27T15:52:21Z</time></trkpt><trkpt lat="42.37487831620046" lon="0.7970931981317089"><ele>1135.0</ele><time>2026-04-27T15:52:22Z</time></trkpt><trkpt lat="42.374948422330625" lon="0.7969726939486365"><ele>1135.0</ele><time>2026-04-27T15:52:23Z</time></trkpt><trkpt lat="42.375019761354615" lon="0.7968515902024748"><ele>1135.0</ele><time>2026-04-27T15:52:24Z</time></trkpt><trkpt lat="42.37509022426327" lon="0.7967289504346489"><ele>1142.0</ele><time>2026-04-27T15:52:25Z</time></trkpt><trkpt lat="42.3751609960803" lon="0.7966051724399308"><ele>1149.0</ele><time>2026-04-27T15:52:26Z</time></trkpt><trkpt lat="42.37522994544489" lon="0.7964834571050685"><ele>1156.0</ele><time>2026-04-27T15:52:27Z</time></trkpt><trkpt lat="42.375300319469844" lon="0.7963585376761748"><ele>1163.0</ele><time>2026-04-27T15:52:28Z</time></trkpt><trkpt lat="42.37536621417132" lon="0.7962335095371366"><ele>1163.0</ele><time>2026-04-27T15:52:29Z</time></trkpt><trkpt lat="42.37542796585974" lon="0.796104785183263"><ele>1163.0</ele><time>2026-04-27T15:52:30Z</time></trkpt><trkpt lat="42.375493306595885" lon="0.7959771779756574"><ele>1163.0</ele><time>2026-04-27T15:52:31Z</time></trkpt><trkpt lat="42.37555227951115" lon="0.7958455685248856"><ele>1163.0</ele><time>2026-04-27T15:52:32Z</time></trkpt><trkpt lat="42.37561214386605" lon="0.7957132145445656"><ele>1156.5</ele><time>2026-04-27T15:52:33Z</time></trkpt><trkpt lat="42.37567155656716" lon="0.7955796285253073"><ele>1150.0</ele><time>2026-04-27T15:52:34Z</time></trkpt><trkpt lat="42.37573201376181" lon="0.7954443548483442"><ele>1143.5</ele><time>2026-04-27T15:52:35Z</time></trkpt><trkpt lat="42.375795723881275" lon="0.7953101959736079"><ele>1137.0</ele><time>2026-04-27T15:52:36Z</time></trkpt><trkpt lat="42.37585468605501" lon="0.7951753645909411"><ele>1140.75</ele><time>2026-04-27T15:52:37Z</time></trkpt><trkpt lat="42.375914469499236" lon="0.7950441643158845"><ele>1144.5</ele><time>2026-04-27T15:52:38Z</time></trkpt><trkpt lat="42.37597451754729" lon="0.7949079088350968"><ele>1148.25</ele><time>2026-04-27T15:52:39Z</time></trkpt><trkpt lat="42.376034945805486" lon="0.7947753341821098"><ele>1152.0</ele><time>2026-04-27T15:52:40Z</time></trkpt><trkpt lat="42.376098072281955" lon="0.7946475904733766"><ele>1152.0</ele><time>2026-04-27T15:52:41Z</time></trkpt><trkpt lat="42.37616231439701" lon="0.7945203688588652"><ele>1152.0</ele><time>2026-04-27T15:52:42Z</time></trkpt><trkpt lat="42.376228200683556" lon="0.7943963540504957"><ele>1152.0</ele><time>2026-04-27T15:52:43Z</time></trkpt><trkpt lat="42.37629841807499" lon="0.7942754163274786"><ele>1152.0</ele><time>2026-04-27T15:52:44Z</time></trkpt><trkpt lat="42.37637427639756" lon="0.7941597048557286"><ele>1147.8</ele><time>2026-04-27T15:52:45.001Z</time></trkpt><trkpt lat="42.37644605822347" lon="0.7940470402573869"><ele>1143.6</ele><time>2026-04-27T15:52:46.001Z</time></trkpt><trkpt lat="42.37652341972508" lon="0.7939418530787564"><ele>1139.3999999999999</ele><time>2026-04-27T15:52:47.001Z</time></trkpt><trkpt lat="42.37660572534103" lon="0.7938467604184721"><ele>1135.2</ele><time>2026-04-27T15:52:48.001Z</time></trkpt><trkpt lat="42.376692214898405" lon="0.7937649379929792"><ele>1131.0</ele><time>2026-04-27T15:52:49.001Z</time></trkpt><trkpt lat="42.376785165237116" lon="0.7937018415526352"><ele>1131.0</ele><time>2026-04-27T15:52:50.001Z</time></trkpt><trkpt lat="42.37687368422584" lon="0.7936425137429792"><ele>1131.0</ele><time>2026-04-27T15:52:51.001Z</time></trkpt><trkpt lat="42.376958198116995" lon="0.7935781130072729"><ele>1131.0</ele><time>2026-04-27T15:52:52.001Z</time></trkpt><trkpt lat="42.377032359005774" lon="0.7934931708832237"><ele>1131.0</ele><time>2026-04-27T15:52:53.001Z</time></trkpt><trkpt lat="42.37709331801697" lon="0.7933891165647616"><ele>1131.0</ele><time>2026-04-27T15:52:54.001Z</time></trkpt><trkpt lat="42.37713294631582" lon="0.7932702209871506"><ele>1133.6</ele><time>2026-04-27T15:52:55.001Z</time></trkpt><trkpt lat="42.37715397234453" lon="0.7931418286259192"><ele>1136.1999999999998</ele><time>2026-04-27T15:52:56.001Z</time></trkpt><trkpt lat="42.37715517333677" lon="0.7930081864442226"><ele>1138.8000000000002</ele><time>2026-04-27T15:52:57.001Z</time></trkpt><trkpt lat="42.37714430721506" lon="0.7928745832656134"><ele>1141.4</ele><time>2026-04-27T15:52:58.001Z</time></trkpt><trkpt lat="42.37713372400256" lon="0.7927414513222599"><ele>1144.0</ele><time>2026-04-27T15:52:59.001Z</time></trkpt><trkpt lat="42.37713435961879" lon="0.7926321925596641"><ele>1146.6000000000001</ele><time>2026-04-27T15:53:00.001Z</time></trkpt><trkpt lat="42.377167132845415" lon="0.7925353309235973"><ele>1149.2</ele><time>2026-04-27T15:53:01.001Z</time></trkpt><trkpt lat="42.37719662576436" lon="0.7924375172681116"><ele>1151.8000000000002</ele><time>2026-04-27T15:53:02Z</time></trkpt><trkpt lat="42.377254144205445" lon="0.7923803353224074"><ele>1154.4</ele><time>2026-04-27T15:53:03Z</time></trkpt><trkpt lat="42.37736717875505" lon="0.7923833571290495"><ele>1157.0</ele><time>2026-04-27T15:53:05Z</time></trkpt><trkpt lat="42.37749705452318" lon="0.7924611680087612"><ele>1151.5</ele><time>2026-04-27T15:53:07Z</time></trkpt><trkpt lat="42.37756096389737" lon="0.7925222249068716"><ele>1146.0</ele><time>2026-04-27T15:53:08Z</time></trkpt><trkpt lat="42.3776235520888" lon="0.7925905290896319"><ele>1140.5</ele><time>2026-04-27T15:53:09Z</time></trkpt><trkpt lat="42.37768276988169" lon="0.7926603862964658"><ele>1135.0</ele><time>2026-04-27T15:53:10Z</time></trkpt><trkpt lat="42.37773278728955" lon="0.7927228654942574"><ele>1129.5</ele><time>2026-04-27T15:53:11Z</time></trkpt><trkpt lat="42.37780356410899" lon="0.7928131137088029"><ele>1124.0</ele><time>2026-04-27T15:53:13Z</time></trkpt><trkpt lat="42.37786536110177" lon="0.7928907853609518"><ele>1122.6666666666667</ele><time>2026-04-27T15:54:39Z</time></trkpt><trkpt lat="42.377930891264405" lon="0.7929512105617236"><ele>1121.3333333333335</ele><time>2026-04-27T15:54:41Z</time></trkpt><trkpt lat="42.37800523122979" lon="0.7930570293624327"><ele>1120.0</ele><time>2026-04-27T15:54:43Z</time></trkpt><trkpt lat="42.37803327688595" lon="0.7931474976474108"><ele>1118.6666666666667</ele><time>2026-04-27T15:54:44Z</time></trkpt><trkpt lat="42.378059946851074" lon="0.7932359673698086"><ele>1117.3333333333333</ele><time>2026-04-27T15:54:45Z</time></trkpt><trkpt lat="42.37807360807347" lon="0.7933499662051153"><ele>1116.0</ele><time>2026-04-27T15:54:46Z</time></trkpt><trkpt lat="42.37810641613317" lon="0.7934477827906934"><ele>1112.5714285714284</ele><time>2026-04-27T15:54:47Z</time></trkpt><trkpt lat="42.37815219079711" lon="0.793538771330383"><ele>1109.142857142857</ele><time>2026-04-27T15:54:48Z</time></trkpt><trkpt lat="42.37817897271391" lon="0.7936360903432428"><ele>1105.7142857142858</ele><time>2026-04-27T15:54:49Z</time></trkpt><trkpt lat="42.378187352211484" lon="0.7937252018290962"><ele>1102.2857142857142</ele><time>2026-04-27T15:54:50Z</time></trkpt><trkpt lat="42.37821532555253" lon="0.7938059927550565"><ele>1098.857142857143</ele><time>2026-04-27T15:54:51Z</time></trkpt><trkpt lat="42.37825350460098" lon="0.7938861763924605"><ele>1095.4285714285713</ele><time>2026-04-27T15:54:52Z</time></trkpt><trkpt lat="42.378299927531884" lon="0.7939532123897116"><ele>1092.0</ele><time>2026-04-27T15:54:53Z</time></trkpt><trkpt lat="42.378357012619" lon="0.7940069085442587"><ele>1092.0</ele><time>2026-04-27T15:54:54Z</time></trkpt><trkpt lat="42.378424556340754" lon="0.7940411018069186"><ele>1092.0</ele><time>2026-04-27T15:54:55Z</time></trkpt><trkpt lat="42.37853698260874" lon="0.7940716587151336"><ele>1092.0</ele><time>2026-04-27T15:54:57.001Z</time></trkpt><trkpt lat="42.378633419292456" lon="0.7941081937376873"><ele>1092.0</ele><time>2026-04-27T15:54:59.001Z</time></trkpt><trkpt lat="42.37876280042782" lon="0.7939566162280596"><ele>1092.0</ele><time>2026-04-27T15:55:01.001Z</time></trkpt><trkpt lat="42.378844168602896" lon="0.7936385120927599"><ele>1092.0</ele><time>2026-04-27T15:55:02.001Z</time></trkpt><trkpt lat="42.378891181767194" lon="0.7935438149456516"><ele>1092.0</ele><time>2026-04-27T15:55:03.001Z</time></trkpt><trkpt lat="42.37893313427966" lon="0.7934248260375187"><ele>1092.0</ele><time>2026-04-27T15:55:04.001Z</time></trkpt><trkpt lat="42.37899645040052" lon="0.7933416172040775"><ele>1090.0</ele><time>2026-04-27T15:55:05.001Z</time></trkpt><trkpt lat="42.3790412433324" lon="0.793231327943139"><ele>1088.0</ele><time>2026-04-27T15:55:06.001Z</time></trkpt><trkpt lat="42.37909972338615" lon="0.7931373551387935"><ele>1086.0</ele><time>2026-04-27T15:55:07.001Z</time></trkpt><trkpt lat="42.37916252222316" lon="0.7930493286009398"><ele>1084.0</ele><time>2026-04-27T15:55:08Z</time></trkpt><trkpt lat="42.37923551240266" lon="0.7929744256022596"><ele>1082.0</ele><time>2026-04-27T15:55:09Z</time></trkpt><trkpt lat="42.379325875173414" lon="0.7929460031129154"><ele>1082.0</ele><time>2026-04-27T15:55:10Z</time></trkpt><trkpt lat="42.379413935623646" lon="0.7929298230973604"><ele>1082.0</ele><time>2026-04-27T15:55:11Z</time></trkpt><trkpt lat="42.379498356203705" lon="0.7929099375972576"><ele>1082.0</ele><time>2026-04-27T15:55:12Z</time></trkpt><trkpt lat="42.37958730684871" lon="0.792890890545081"><ele>1082.0</ele><time>2026-04-27T15:55:13Z</time></trkpt><trkpt lat="42.37965227563386" lon="0.7928374888971719"><ele>1082.0</ele><time>2026-04-27T15:55:14Z</time></trkpt><trkpt lat="42.37972651353752" lon="0.7928005959177717"><ele>1082.0</ele><time>2026-04-27T15:55:15Z</time></trkpt><trkpt lat="42.37978494812978" lon="0.7927157600153701"><ele>1080.6</ele><time>2026-04-27T15:55:16Z</time></trkpt><trkpt lat="42.37980970622932" lon="0.7925898935263535"><ele>1079.2</ele><time>2026-04-27T15:55:17Z</time></trkpt><trkpt lat="42.37984970758524" lon="0.792475442482745"><ele>1077.8</ele><time>2026-04-27T15:55:18Z</time></trkpt><trkpt lat="42.379896211373946" lon="0.7923540588597858"><ele>1076.4</ele><time>2026-04-27T15:55:19Z</time></trkpt><trkpt lat="42.379976099863725" lon="0.7922803692494568"><ele>1075.0</ele><time>2026-04-27T15:55:20Z</time></trkpt><trkpt lat="42.3800544371795" lon="0.792181218679579"><ele>1075.0</ele><time>2026-04-27T15:55:21Z</time></trkpt><trkpt lat="42.380130440208625" lon="0.7920792818160983"><ele>1075.0</ele><time>2026-04-27T15:55:22Z</time></trkpt><trkpt lat="42.38020221180768" lon="0.7919670588765396"><ele>1075.0</ele><time>2026-04-27T15:55:23Z</time></trkpt><trkpt lat="42.38026859013674" lon="0.7918513015602392"><ele>1075.0</ele><time>2026-04-27T15:55:24Z</time></trkpt><trkpt lat="42.380329021282655" lon="0.791720122940164"><ele>1075.0</ele><time>2026-04-27T15:55:25Z</time></trkpt><trkpt lat="42.38039035013917" lon="0.7915999309775233"><ele>1072.75</ele><time>2026-04-27T15:55:26Z</time></trkpt><trkpt lat="42.38046968277914" lon="0.7914874635502458"><ele>1070.5</ele><time>2026-04-27T15:55:27Z</time></trkpt><trkpt lat="42.3805493210779" lon="0.7913847423185316"><ele>1068.25</ele><time>2026-04-27T15:55:28Z</time></trkpt><trkpt lat="42.380632372436125" lon="0.7912802862565607"><ele>1066.0</ele><time>2026-04-27T15:55:29Z</time></trkpt><trkpt lat="42.380725179086795" lon="0.7911931006633066"><ele>1066.0</ele><time>2026-04-27T15:55:30Z</time></trkpt><trkpt lat="42.38080337395858" lon="0.7911167192042086"><ele>1066.0</ele><time>2026-04-27T15:55:31Z</time></trkpt><trkpt lat="42.380886423315765" lon="0.7910522976402495"><ele>1066.0</ele><time>2026-04-27T15:55:32Z</time></trkpt><trkpt lat="42.38099245554042" lon="0.7910188963245283"><ele>1066.0</ele><time>2026-04-27T15:55:33Z</time></trkpt><trkpt lat="42.38108679882101" lon="0.7910107438495142"><ele>1066.0</ele><time>2026-04-27T15:55:34Z</time></trkpt><trkpt lat="42.38117877237383" lon="0.7910101469873302"><ele>1066.0</ele><time>2026-04-27T15:55:35Z</time></trkpt><trkpt lat="42.381276977586225" lon="0.7910212260586826"><ele>1066.0</ele><time>2026-04-27T15:55:36Z</time></trkpt><trkpt lat="42.381352344483666" lon="0.7910796714648533"><ele>1066.0</ele><time>2026-04-27T15:55:37Z</time></trkpt><trkpt lat="42.38144694178724" lon="0.7911439129151475"><ele>1066.0</ele><time>2026-04-27T15:55:38Z</time></trkpt><trkpt lat="42.38152662492012" lon="0.7911917536427429"><ele>1066.0</ele><time>2026-04-27T15:55:39Z</time></trkpt><trkpt lat="42.381664384653064" lon="0.7912349667705653"><ele>1060.2</ele><time>2026-04-27T15:55:40Z</time></trkpt><trkpt lat="42.38178266770472" lon="0.7912298126702363"><ele>1054.3999999999999</ele><time>2026-04-27T15:55:41Z</time></trkpt><trkpt lat="42.381881194259265" lon="0.7912185826509376"><ele>1048.6</ele><time>2026-04-27T15:55:42Z</time></trkpt><trkpt lat="42.3819772559347" lon="0.7911859046399518"><ele>1042.8</ele><time>2026-04-27T15:55:43Z</time></trkpt><trkpt lat="42.3820777451592" lon="0.7911390449941387"><ele>1037.0</ele><time>2026-04-27T15:55:44Z</time></trkpt><trkpt lat="42.382184246699865" lon="0.791099091805678"><ele>1032.8</ele><time>2026-04-27T15:55:45Z</time></trkpt><trkpt lat="42.38228394544352" lon="0.79101715798552"><ele>1028.6</ele><time>2026-04-27T15:55:46Z</time></trkpt><trkpt lat="42.38236581594315" lon="0.7909232029923113"><ele>1024.3999999999999</ele><time>2026-04-27T15:55:47Z</time></trkpt><trkpt lat="42.38244778031456" lon="0.79081755182054"><ele>1020.1999999999999</ele><time>2026-04-27T15:55:48Z</time></trkpt><trkpt lat="42.382528510434234" lon="0.7907299815121476"><ele>1016.0</ele><time>2026-04-27T15:55:49Z</time></trkpt><trkpt lat="42.382620883375054" lon="0.7906905043110749"><ele>1017.0</ele><time>2026-04-27T15:55:50Z</time></trkpt><trkpt lat="42.382730217836915" lon="0.7906567061969475"><ele>1017.9999999999999</ele><time>2026-04-27T15:55:51Z</time></trkpt><trkpt lat="42.38282893132574" lon="0.7906186469469657"><ele>1018.9999999999999</ele><time>2026-04-27T15:55:52Z</time></trkpt><trkpt lat="42.3829274642465" lon="0.7905723491236898"><ele>1020.0</ele><time>2026-04-27T15:55:53Z</time></trkpt><trkpt lat="42.38302627103592" lon="0.7905053447901724"><ele>1021.0</ele><time>2026-04-27T15:55:54Z</time></trkpt><trkpt lat="42.38311752929222" lon="0.7904349418365066"><ele>1021.0</ele><time>2026-04-27T15:55:55Z</time></trkpt><trkpt lat="42.383202419994156" lon="0.7903483260535875"><ele>1020.9999999999999</ele><time>2026-04-27T15:55:56Z</time></trkpt><trkpt lat="42.38326832413911" lon="0.790244089649086"><ele>1020.9999999999999</ele><time>2026-04-27T15:55:57Z</time></trkpt><trkpt lat="42.38329817490891" lon="0.7901089112874792"><ele>1021.0</ele><time>2026-04-27T15:55:58Z</time></trkpt><trkpt lat="42.38332550486672" lon="0.7899805760878684"><ele>1021.0</ele><time>2026-04-27T15:55:59Z</time></trkpt><trkpt lat="42.38334799186307" lon="0.7898572111664711"><ele>1027.1666666666665</ele><time>2026-04-27T15:56:00Z</time></trkpt><trkpt lat="42.383378114738775" lon="0.7897319695345237"><ele>1033.3333333333333</ele><time>2026-04-27T15:56:01Z</time></trkpt><trkpt lat="42.3834117378279" lon="0.7896244282329413"><ele>1039.5</ele><time>2026-04-27T15:56:02Z</time></trkpt><trkpt lat="42.383448631982034" lon="0.7895300885100329"><ele>1045.6666666666667</ele><time>2026-04-27T15:56:03Z</time></trkpt><trkpt lat="42.383497127082094" lon="0.7894475993224653"><ele>1051.8333333333335</ele><time>2026-04-27T15:56:04Z</time></trkpt><trkpt lat="42.383559629066106" lon="0.7893984960466499"><ele>1058.0</ele><time>2026-04-27T15:56:05Z</time></trkpt><trkpt lat="42.38362787300552" lon="0.7893855173435486"><ele>1058.0</ele><time>2026-04-27T15:56:06Z</time></trkpt><trkpt lat="42.383692890205424" lon="0.7894369641781644"><ele>1058.0</ele><time>2026-04-27T15:56:07Z</time></trkpt><trkpt lat="42.38374708765784" lon="0.7895005606451959"><ele>1058.0</ele><time>2026-04-27T15:56:08Z</time></trkpt><trkpt lat="42.3838118643828" lon="0.7895635260688046"><ele>1058.0</ele><time>2026-04-27T15:56:09Z</time></trkpt><trkpt lat="42.383875154843786" lon="0.7896425608409713"><ele>1058.0</ele><time>2026-04-27T15:56:10Z</time></trkpt><trkpt lat="42.38393915240331" lon="0.7897212720595225"><ele>1058.0</ele><time>2026-04-27T15:56:11Z</time></trkpt><trkpt lat="42.38400680924925" lon="0.7898005648891961"><ele>1054.5</ele><time>2026-04-27T15:56:12Z</time></trkpt><trkpt lat="42.384090193473085" lon="0.7898499084751407"><ele>1051.0</ele><time>2026-04-27T15:56:13Z</time></trkpt><trkpt lat="42.38416418261792" lon="0.7899101853779628"><ele>1047.5</ele><time>2026-04-27T15:56:14Z</time></trkpt><trkpt lat="42.3842391805133" lon="0.7899483001725355"><ele>1044.0</ele><time>2026-04-27T15:56:15Z</time></trkpt><trkpt lat="42.38430885114625" lon="0.7899662156770884"><ele>1040.5</ele><time>2026-04-27T15:56:16Z</time></trkpt><trkpt lat="42.38439358909068" lon="0.7899529041938981"><ele>1037.0</ele><time>2026-04-27T15:56:17Z</time></trkpt><trkpt lat="42.38448008987861" lon="0.789905330167048"><ele>1037.0</ele><time>2026-04-27T15:56:18Z</time></trkpt><trkpt lat="42.38455035787551" lon="0.7898238736042188"><ele>1037.0</ele><time>2026-04-27T15:56:19Z</time></trkpt><trkpt lat="42.3845895899647" lon="0.7897067323483115"><ele>1037.0</ele><time>2026-04-27T15:56:20Z</time></trkpt><trkpt lat="42.38464439419666" lon="0.7896048465838237"><ele>1037.0</ele><time>2026-04-27T15:56:21Z</time></trkpt><trkpt lat="42.384697712308714" lon="0.7895028391227547"><ele>1037.0</ele><time>2026-04-27T15:56:22Z</time></trkpt><trkpt lat="42.38475764407449" lon="0.7894016933322598"><ele>1039.4</ele><time>2026-04-27T15:56:23Z</time></trkpt><trkpt lat="42.38483335434896" lon="0.7893176262267483"><ele>1041.8000000000002</ele><time>2026-04-27T15:56:24Z</time></trkpt><trkpt lat="42.38493532328336" lon="0.7892779291956682"><ele>1044.2</ele><time>2026-04-27T15:56:25Z</time></trkpt><trkpt lat="42.38501821854609" lon="0.7891880113255683"><ele>1046.6000000000001</ele><time>2026-04-27T15:56:26Z</time></trkpt><trkpt lat="42.385121664003194" lon="0.7891362161649735"><ele>1049.0</ele><time>2026-04-27T15:56:27Z</time></trkpt><trkpt lat="42.38521622715102" lon="0.7890658841602767"><ele>1049.0</ele><time>2026-04-27T15:56:28Z</time></trkpt><trkpt lat="42.385312490304976" lon="0.7890022021732302"><ele>1049.0</ele><time>2026-04-27T15:56:29Z</time></trkpt><trkpt lat="42.385413180550515" lon="0.7889543941655068"><ele>1049.0</ele><time>2026-04-27T15:56:30Z</time></trkpt><trkpt lat="42.38550890063088" lon="0.7889211453235976"><ele>1049.0</ele><time>2026-04-27T15:56:31Z</time></trkpt><trkpt lat="42.385604706832964" lon="0.7889172849680985"><ele>1049.0</ele><time>2026-04-27T15:56:32Z</time></trkpt><trkpt lat="42.38570374119697" lon="0.7888802845360975"><ele>1049.4</ele><time>2026-04-27T15:56:33Z</time></trkpt><trkpt lat="42.38580163563893" lon="0.7888196886349095"><ele>1049.8000000000002</ele><time>2026-04-27T15:56:34Z</time></trkpt><trkpt lat="42.38589475069596" lon="0.7887324077542421"><ele>1050.1999999999998</ele><time>2026-04-27T15:56:35Z</time></trkpt><trkpt lat="42.38598084068858" lon="0.7886279423447002"><ele>1050.6</ele><time>2026-04-27T15:56:36Z</time></trkpt><trkpt lat="42.38605394033263" lon="0.7885251925895712"><ele>1051.0</ele><time>2026-04-27T15:56:37Z</time></trkpt><trkpt lat="42.38612323861691" lon="0.7884144116231773"><ele>1051.0</ele><time>2026-04-27T15:56:38Z</time></trkpt><trkpt lat="42.38620055407031" lon="0.7883079465849567"><ele>1051.0</ele><time>2026-04-27T15:56:39Z</time></trkpt><trkpt lat="42.386281300147814" lon="0.7882088258561954"><ele>1051.0</ele><time>2026-04-27T15:56:40Z</time></trkpt><trkpt lat="42.38637165126592" lon="0.7881206027278657"><ele>1051.0</ele><time>2026-04-27T15:56:41Z</time></trkpt><trkpt lat="42.386466100349416" lon="0.7880539570259195"><ele>1051.0</ele><time>2026-04-27T15:56:42Z</time></trkpt><trkpt lat="42.386566293160804" lon="0.7880015631538663"><ele>1044.3999999999999</ele><time>2026-04-27T15:56:43Z</time></trkpt><trkpt lat="42.38666908320651" lon="0.7879572070629199"><ele>1037.8</ele><time>2026-04-27T15:56:44Z</time></trkpt><trkpt lat="42.38677288121098" lon="0.787914840684299"><ele>1031.1999999999998</ele><time>2026-04-27T15:56:45Z</time></trkpt><trkpt lat="42.38688021767681" lon="0.7878888731605109"><ele>1024.6</ele><time>2026-04-27T15:56:46Z</time></trkpt><trkpt lat="42.38697238035109" lon="0.7877914121743668"><ele>1018.0</ele><time>2026-04-27T15:56:47Z</time></trkpt><trkpt lat="42.38707307858145" lon="0.7877170566663387"><ele>1018.75</ele><time>2026-04-27T15:56:48Z</time></trkpt><trkpt lat="42.387173508131596" lon="0.7876466407573843"><ele>1019.5</ele><time>2026-04-27T15:56:49Z</time></trkpt><trkpt lat="42.38728170158002" lon="0.7875903940690012"><ele>1020.25</ele><time>2026-04-27T15:56:50Z</time></trkpt><trkpt lat="42.38738558818637" lon="0.7875420269270605"><ele>1021.0</ele><time>2026-04-27T15:56:51Z</time></trkpt><trkpt lat="42.38749625426582" lon="0.7874931216595902"><ele>1021.0</ele><time>2026-04-27T15:56:52Z</time></trkpt><trkpt lat="42.38760809705462" lon="0.7874548949888712"><ele>1021.0</ele><time>2026-04-27T15:56:53Z</time></trkpt><trkpt lat="42.38773328616217" lon="0.7874184656334193"><ele>1021.0</ele><time>2026-04-27T15:56:54Z</time></trkpt><trkpt lat="42.3878486691855" lon="0.7873589768678754"><ele>1021.0</ele><time>2026-04-27T15:56:55Z</time></trkpt><trkpt lat="42.38794706627571" lon="0.7872988121386568"><ele>1015.0</ele><time>2026-04-27T15:56:56Z</time></trkpt><trkpt lat="42.38804815135611" lon="0.7872206075876474"><ele>1009.0</ele><time>2026-04-27T15:56:57Z</time></trkpt><trkpt lat="42.388138203118785" lon="0.7871210440421615"><ele>1003.0</ele><time>2026-04-27T15:56:58Z</time></trkpt><trkpt lat="42.38822984074436" lon="0.7870253024475058"><ele>997.0</ele><time>2026-04-27T15:56:59Z</time></trkpt><trkpt lat="42.388317036705935" lon="0.7869382842620691"><ele>996.9999999999999</ele><time>2026-04-27T15:57:00Z</time></trkpt><trkpt lat="42.38839267662782" lon="0.7868732686298827"><ele>997.0</ele><time>2026-04-27T15:57:01Z</time></trkpt><trkpt lat="42.38845825171125" lon="0.7868207890045621"><ele>997.0</ele><time>2026-04-27T15:57:02Z</time></trkpt><trkpt lat="42.388522946329154" lon="0.7867928206167808"><ele>997.0</ele><time>2026-04-27T15:57:03Z</time></trkpt><trkpt lat="42.388642133076075" lon="0.7868095189890059"><ele>996.9999999999999</ele><time>2026-04-27T15:57:05Z</time></trkpt><trkpt lat="42.38869173272491" lon="0.7868656445551219"><ele>997.0</ele><time>2026-04-27T15:57:06Z</time></trkpt><trkpt lat="42.38873111760744" lon="0.7870022668370392"><ele>997.0</ele><time>2026-04-27T15:57:08Z</time></trkpt><trkpt lat="42.38865107373239" lon="0.7871284245980009"><ele>997.0</ele><time>2026-04-27T15:57:10Z</time></trkpt><trkpt lat="42.38856386770113" lon="0.7871726381026201"><ele>997.0</ele><time>2026-04-27T15:57:11Z</time></trkpt><trkpt lat="42.388461548037746" lon="0.7871832289621936"><ele>997.0</ele><time>2026-04-27T15:57:12Z</time></trkpt><trkpt lat="42.38837270679706" lon="0.7872030315467818"><ele>997.0</ele><time>2026-04-27T15:57:13Z</time></trkpt><trkpt lat="42.38827938494463" lon="0.7872434644974905"><ele>997.0</ele><time>2026-04-27T15:57:14Z</time></trkpt><trkpt lat="42.3881844333868" lon="0.7873140684337326"><ele>997.0</ele><time>2026-04-27T15:57:15Z</time></trkpt><trkpt lat="42.38809189422093" lon="0.7873828259647893"><ele>997.0</ele><time>2026-04-27T15:57:16Z</time></trkpt><trkpt lat="42.38799908853471" lon="0.7874605848458185"><ele>997.0</ele><time>2026-04-27T15:57:17Z</time></trkpt><trkpt lat="42.38792135142916" lon="0.7875723999157043"><ele>997.0</ele><time>2026-04-27T15:57:18Z</time></trkpt><trkpt lat="42.38782747582805" lon="0.7876583777936095"><ele>995.4000000000001</ele><time>2026-04-27T15:57:19Z</time></trkpt><trkpt lat="42.38774228309009" lon="0.787741318451969"><ele>993.8000000000001</ele><time>2026-04-27T15:57:20Z</time></trkpt><trkpt lat="42.387648906983486" lon="0.7878221013902378"><ele>992.2</ele><time>2026-04-27T15:57:21Z</time></trkpt><trkpt lat="42.38755367862773" lon="0.787928066021847"><ele>990.6</ele><time>2026-04-27T15:57:22Z</time></trkpt><trkpt lat="42.38747606214008" lon="0.7880301076706023"><ele>989.0</ele><time>2026-04-27T15:57:23Z</time></trkpt><trkpt lat="42.38736732140721" lon="0.7881097240700715"><ele>989.0</ele><time>2026-04-27T15:57:24Z</time></trkpt><trkpt lat="42.38729345049677" lon="0.7882237522151675"><ele>989.0</ele><time>2026-04-27T15:57:25Z</time></trkpt><trkpt lat="42.38718429605815" lon="0.7883212308440293"><ele>989.0</ele><time>2026-04-27T15:57:26Z</time></trkpt><trkpt lat="42.38708597899561" lon="0.7884071922159979"><ele>989.0</ele><time>2026-04-27T15:57:27Z</time></trkpt><trkpt lat="42.38700178047932" lon="0.7885000260874294"><ele>988.5000000000001</ele><time>2026-04-27T15:57:28Z</time></trkpt><trkpt lat="42.38692859841383" lon="0.7885848640518437"><ele>988.0</ele><time>2026-04-27T15:57:29Z</time></trkpt><trkpt lat="42.386848337714326" lon="0.7886561359098642"><ele>987.5</ele><time>2026-04-27T15:57:30Z</time></trkpt><trkpt lat="42.386777325346024" lon="0.7886974129776309"><ele>987.0</ele><time>2026-04-27T15:57:31Z</time></trkpt><trkpt lat="42.38672368746142" lon="0.7887548385160604"><ele>986.5000000000001</ele><time>2026-04-27T15:57:32Z</time></trkpt><trkpt lat="42.386683243406445" lon="0.7888463051527118"><ele>986.0</ele><time>2026-04-27T15:57:33Z</time></trkpt><trkpt lat="42.38663832170487" lon="0.7889236992765134"><ele>986.0</ele><time>2026-04-27T15:57:34Z</time></trkpt><trkpt lat="42.38662915279493" lon="0.7890105930062754"><ele>986.0</ele><time>2026-04-27T15:57:35Z</time></trkpt><trkpt lat="42.38665642698729" lon="0.7891036415358492"><ele>986.0</ele><time>2026-04-27T15:57:36Z</time></trkpt><trkpt lat="42.38669624200081" lon="0.7891818477911486"><ele>986.0</ele><time>2026-04-27T15:57:37Z</time></trkpt><trkpt lat="42.38676339311739" lon="0.7892210974913366"><ele>986.0</ele><time>2026-04-27T15:57:38Z</time></trkpt><trkpt lat="42.3868363097323" lon="0.789224582338273"><ele>986.0</ele><time>2026-04-27T15:57:39Z</time></trkpt><trkpt lat="42.38690940170742" lon="0.7891731195710564"><ele>986.0</ele><time>2026-04-27T15:57:40Z</time></trkpt><trkpt lat="42.38698317249999" lon="0.7891074357497637"><ele>986.0</ele><time>2026-04-27T15:57:41Z</time></trkpt><trkpt lat="42.38703750813892" lon="0.7890205618940708"><ele>985.9999999999999</ele><time>2026-04-27T15:57:42Z</time></trkpt><trkpt lat="42.38709296821875" lon="0.7889154629924048"><ele>985.9999999999999</ele><time>2026-04-27T15:57:43Z</time></trkpt><trkpt lat="42.38714673363495" lon="0.7888171462434547"><ele>986.0</ele><time>2026-04-27T15:57:44Z</time></trkpt><trkpt lat="42.387222250435656" lon="0.7887383153325359"><ele>986.0</ele><time>2026-04-27T15:57:45Z</time></trkpt><trkpt lat="42.387322124407646" lon="0.7887283467912911"><ele>986.75</ele><time>2026-04-27T15:57:46Z</time></trkpt><trkpt lat="42.38741980292587" lon="0.788668477080837"><ele>987.5</ele><time>2026-04-27T15:57:47Z</time></trkpt><trkpt lat="42.38751481114056" lon="0.788581811050112"><ele>988.25</ele><time>2026-04-27T15:57:48Z</time></trkpt><trkpt lat="42.387614019913705" lon="0.7884796032102993"><ele>989.0</ele><time>2026-04-27T15:57:49Z</time></trkpt><trkpt lat="42.387699612104925" lon="0.7883814346623842"><ele>989.0</ele><time>2026-04-27T15:57:50Z</time></trkpt><trkpt lat="42.38780847248623" lon="0.7883174836890866"><ele>989.0000000000001</ele><time>2026-04-27T15:57:51Z</time></trkpt><trkpt lat="42.387907543569526" lon="0.7882568290437113"><ele>989.0000000000001</ele><time>2026-04-27T15:57:52Z</time></trkpt><trkpt lat="42.3880156695995" lon="0.7882298689964822"><ele>989.0</ele><time>2026-04-27T15:57:53Z</time></trkpt><trkpt lat="42.388103340207664" lon="0.788210256892912"><ele>989.0</ele><time>2026-04-27T15:57:54Z</time></trkpt><trkpt lat="42.38821523154216" lon="0.7882106627342068"><ele>985.2</ele><time>2026-04-27T15:57:55Z</time></trkpt><trkpt lat="42.38830148847178" lon="0.7882467494430639"><ele>981.4000000000001</ele><time>2026-04-27T15:57:56Z</time></trkpt><trkpt lat="42.38837379315399" lon="0.7882894677121822"><ele>977.6</ele><time>2026-04-27T15:57:57Z</time></trkpt><trkpt lat="42.388490388540106" lon="0.7883384043434657"><ele>973.8</ele><time>2026-04-27T15:57:58Z</time></trkpt><trkpt lat="42.38857997785936" lon="0.7883915206293324"><ele>970.0</ele><time>2026-04-27T15:57:59Z</time></trkpt><trkpt lat="42.388682212627735" lon="0.7883989316473617"><ele>970.0</ele><time>2026-04-27T15:58:00Z</time></trkpt><trkpt lat="42.3887825220738" lon="0.7883869590607742"><ele>970.0</ele><time>2026-04-27T15:58:01Z</time></trkpt><trkpt lat="42.38887001867454" lon="0.7882934970148956"><ele>970.0</ele><time>2026-04-27T15:58:02Z</time></trkpt><trkpt lat="42.38895989354713" lon="0.7882183130589031"><ele>970.0</ele><time>2026-04-27T15:58:03Z</time></trkpt><trkpt lat="42.389062601496136" lon="0.7881386844883775"><ele>970.0</ele><time>2026-04-27T15:58:04Z</time></trkpt><trkpt lat="42.389150554410584" lon="0.7880587236921563"><ele>966.0</ele><time>2026-04-27T15:58:05Z</time></trkpt><trkpt lat="42.3892460065321" lon="0.7879734674968866"><ele>962.0</ele><time>2026-04-27T15:58:06Z</time></trkpt><trkpt lat="42.38933240687928" lon="0.787897250824019"><ele>958.0</ele><time>2026-04-27T15:58:07Z</time></trkpt><trkpt lat="42.38942077567982" lon="0.7878224199963879"><ele>954.0</ele><time>2026-04-27T15:58:08Z</time></trkpt><trkpt lat="42.38950433724925" lon="0.7877537775886015"><ele>950.0</ele><time>2026-04-27T15:58:09Z</time></trkpt><trkpt lat="42.389583697016164" lon="0.7876960288647985"><ele>948.4</ele><time>2026-04-27T15:58:10Z</time></trkpt><trkpt lat="42.38966769917542" lon="0.7876234253170566"><ele>946.8</ele><time>2026-04-27T15:58:11Z</time></trkpt><trkpt lat="42.38976757084798" lon="0.7876165607222635"><ele>945.2</ele><time>2026-04-27T15:58:12Z</time></trkpt><trkpt lat="42.389877646465536" lon="0.7876384744006221"><ele>943.6</ele><time>2026-04-27T15:58:13Z</time></trkpt><trkpt lat="42.389960457530265" lon="0.7876592196953127"><ele>942.0</ele><time>2026-04-27T15:58:14Z</time></trkpt><trkpt lat="42.39005442201817" lon="0.7876907781900865"><ele>942.0</ele><time>2026-04-27T15:58:15Z</time></trkpt><trkpt lat="42.39015297837873" lon="0.7877107466389356"><ele>942.0</ele><time>2026-04-27T15:58:16Z</time></trkpt><trkpt lat="42.39025629418275" lon="0.7877258333653124"><ele>942.0</ele><time>2026-04-27T15:58:17Z</time></trkpt><trkpt lat="42.39035134737532" lon="0.7877047683480612"><ele>942.0</ele><time>2026-04-27T15:58:18Z</time></trkpt><trkpt lat="42.39043616287189" lon="0.7876448942329687"><ele>942.0</ele><time>2026-04-27T15:58:19Z</time></trkpt><trkpt lat="42.39051198889396" lon="0.7875816928546123"><ele>942.6</ele><time>2026-04-27T15:58:20Z</time></trkpt><trkpt lat="42.39058215266622" lon="0.7874854908729921"><ele>943.2</ele><time>2026-04-27T15:58:21Z</time></trkpt><trkpt lat="42.3906382211105" lon="0.7873797158868421"><ele>943.8</ele><time>2026-04-27T15:58:22Z</time></trkpt><trkpt lat="42.39070439834662" lon="0.7872939797156164"><ele>944.4</ele><time>2026-04-27T15:58:23Z</time></trkpt><trkpt lat="42.390783567927265" lon="0.7872384050489912"><ele>945.0</ele><time>2026-04-27T15:58:24Z</time></trkpt><trkpt lat="42.39087323136704" lon="0.7872044086780682"><ele>945.0</ele><time>2026-04-27T15:58:25Z</time></trkpt><trkpt lat="42.39095437790976" lon="0.7871723608573182"><ele>945.0</ele><time>2026-04-27T15:58:26Z</time></trkpt><trkpt lat="42.39103868704822" lon="0.7871667568346206"><ele>945.0</ele><time>2026-04-27T15:58:27Z</time></trkpt><trkpt lat="42.391126548504694" lon="0.7871163715713635"><ele>945.0</ele><time>2026-04-27T15:58:28Z</time></trkpt><trkpt lat="42.391200147883175" lon="0.787023284224165"><ele>945.0</ele><time>2026-04-27T15:58:29Z</time></trkpt><trkpt lat="42.391238324502304" lon="0.7868950043672572"><ele>945.6</ele><time>2026-04-27T15:58:30Z</time></trkpt><trkpt lat="42.391277759983346" lon="0.7867748802372003"><ele>946.2</ele><time>2026-04-27T15:58:31Z</time></trkpt><trkpt lat="42.39132246266215" lon="0.7866512553766329"><ele>946.8</ele><time>2026-04-27T15:58:32Z</time></trkpt><trkpt lat="42.391387784540946" lon="0.78654302097699"><ele>947.4</ele><time>2026-04-27T15:58:33Z</time></trkpt><trkpt lat="42.39145077778459" lon="0.7864348260203854"><ele>948.0</ele><time>2026-04-27T15:58:34Z</time></trkpt><trkpt lat="42.39151111895383" lon="0.786311139947891"><ele>946.5</ele><time>2026-04-27T15:58:35Z</time></trkpt><trkpt lat="42.391587653243754" lon="0.7862031090879698"><ele>945.0</ele><time>2026-04-27T15:58:36Z</time></trkpt><trkpt lat="42.39166161367963" lon="0.7860860370804884"><ele>943.5</ele><time>2026-04-27T15:58:37Z</time></trkpt><trkpt lat="42.391739386812" lon="0.7859719932281304"><ele>942.0</ele><time>2026-04-27T15:58:38Z</time></trkpt><trkpt lat="42.391820215368995" lon="0.7858650810639115"><ele>941.4000000000001</ele><time>2026-04-27T15:58:39Z</time></trkpt><trkpt lat="42.391914081410185" lon="0.785763318695813"><ele>940.8000000000001</ele><time>2026-04-27T15:58:40Z</time></trkpt><trkpt lat="42.39200854553418" lon="0.7856822949594329"><ele>940.2</ele><time>2026-04-27T15:58:41Z</time></trkpt><trkpt lat="42.39210270187838" lon="0.7856248602526634"><ele>939.6</ele><time>2026-04-27T15:58:42Z</time></trkpt><trkpt lat="42.39220592771817" lon="0.7855824489639164"><ele>939.0</ele><time>2026-04-27T15:58:43Z</time></trkpt><trkpt lat="42.392312035454346" lon="0.7855488632757177"><ele>939.0</ele><time>2026-04-27T15:58:44Z</time></trkpt><trkpt lat="42.39241766419191" lon="0.7855210592816969"><ele>939.0000000000001</ele><time>2026-04-27T15:58:45Z</time></trkpt><trkpt lat="42.39251997737886" lon="0.7855018466892156"><ele>939.0000000000001</ele><time>2026-04-27T15:58:46Z</time></trkpt><trkpt lat="42.39263136605047" lon="0.785485723127695"><ele>939.0</ele><time>2026-04-27T15:58:47Z</time></trkpt><trkpt lat="42.39274056016089" lon="0.7854747737765418"><ele>939.0</ele><time>2026-04-27T15:58:48Z</time></trkpt><trkpt lat="42.39285710020444" lon="0.7854779345459967"><ele>939.0</ele><time>2026-04-27T15:58:49Z</time></trkpt><trkpt lat="42.39296502944289" lon="0.7854747795382966"><ele>939.0000000000001</ele><time>2026-04-27T15:58:50Z</time></trkpt><trkpt lat="42.393073703028875" lon="0.7854687157671394"><ele>939.0000000000001</ele><time>2026-04-27T15:58:51Z</time></trkpt><trkpt lat="42.39318274878169" lon="0.7854667078675784"><ele>939.0</ele><time>2026-04-27T15:58:52Z</time></trkpt><trkpt lat="42.393293220759006" lon="0.7854675389648726"><ele>939.0</ele><time>2026-04-27T15:58:53Z</time></trkpt><trkpt lat="42.39340054694696" lon="0.7854678884243178"><ele>938.1666666666666</ele><time>2026-04-27T15:58:54Z</time></trkpt><trkpt lat="42.39350393569627" lon="0.7854690480634399"><ele>937.3333333333333</ele><time>2026-04-27T15:58:55Z</time></trkpt><trkpt lat="42.39359891672211" lon="0.7854742212186491"><ele>936.5</ele><time>2026-04-27T15:58:56Z</time></trkpt><trkpt lat="42.39369006340272" lon="0.7854717582727782"><ele>935.6666666666666</ele><time>2026-04-27T15:58:57Z</time></trkpt><trkpt lat="42.39377065194848" lon="0.785464192531372"><ele>934.8333333333333</ele><time>2026-04-27T15:58:58Z</time></trkpt><trkpt lat="42.39384360358786" lon="0.7854262783430834"><ele>934.0</ele><time>2026-04-27T15:58:59Z</time></trkpt><trkpt lat="42.39390440824582" lon="0.7852992057607615"><ele>935.6</ele><time>2026-04-27T15:59:00Z</time></trkpt><trkpt lat="42.39391971299641" lon="0.7851775732993413"><ele>937.2</ele><time>2026-04-27T15:59:01Z</time></trkpt><trkpt lat="42.393943623524315" lon="0.7850562757018147"><ele>938.8000000000001</ele><time>2026-04-27T15:59:02Z</time></trkpt><trkpt lat="42.39396654662164" lon="0.7849322785651164"><ele>940.4000000000001</ele><time>2026-04-27T15:59:03Z</time></trkpt><trkpt lat="42.39398464549883" lon="0.7848062925320469"><ele>942.0</ele><time>2026-04-27T15:59:04Z</time></trkpt><trkpt lat="42.393997797740916" lon="0.7846765411382831"><ele>942.0</ele><time>2026-04-27T15:59:05Z</time></trkpt><trkpt lat="42.39401628752107" lon="0.7845507172847653"><ele>942.0</ele><time>2026-04-27T15:59:06Z</time></trkpt><trkpt lat="42.39403846749217" lon="0.7844184237545091"><ele>942.0</ele><time>2026-04-27T15:59:07Z</time></trkpt><trkpt lat="42.39406078655713" lon="0.784277360737675"><ele>942.0</ele><time>2026-04-27T15:59:08Z</time></trkpt><trkpt lat="42.39407490735082" lon="0.7841356500125246"><ele>942.0</ele><time>2026-04-27T15:59:09Z</time></trkpt><trkpt lat="42.39409487180579" lon="0.7839939307981627"><ele>939.4000000000001</ele><time>2026-04-27T15:59:10Z</time></trkpt><trkpt lat="42.39411328488203" lon="0.7838517605043327"><ele>936.8000000000001</ele><time>2026-04-27T15:59:11Z</time></trkpt><trkpt lat="42.39413815699788" lon="0.7837070462154673"><ele>934.2</ele><time>2026-04-27T15:59:12Z</time></trkpt><trkpt lat="42.394160389721044" lon="0.7835577986322522"><ele>931.6</ele><time>2026-04-27T15:59:13Z</time></trkpt><trkpt lat="42.394189638162864" lon="0.7834153987767837"><ele>929.0</ele><time>2026-04-27T15:59:14Z</time></trkpt><trkpt lat="42.39422948274519" lon="0.7832799800571784"><ele>927.4000000000001</ele><time>2026-04-27T15:59:15Z</time></trkpt><trkpt lat="42.3942758391927" lon="0.7831492140684507"><ele>925.8000000000001</ele><time>2026-04-27T15:59:16Z</time></trkpt><trkpt lat="42.394329211716304" lon="0.7830162102294802"><ele>924.1999999999999</ele><time>2026-04-27T15:59:17Z</time></trkpt><trkpt lat="42.394395994579256" lon="0.7828964825549014"><ele>922.5999999999999</ele><time>2026-04-27T15:59:18Z</time></trkpt><trkpt lat="42.39446234329922" lon="0.7827758685954751"><ele>921.0</ele><time>2026-04-27T15:59:19Z</time></trkpt><trkpt lat="42.39452147110095" lon="0.7826599370759026"><ele>920.4</ele><time>2026-04-27T15:59:19.999Z</time></trkpt><trkpt lat="42.39458503924412" lon="0.782537328175778"><ele>919.8</ele><time>2026-04-27T15:59:21Z</time></trkpt><trkpt lat="42.39463608550993" lon="0.7824080044787215"><ele>919.1999999999999</ele><time>2026-04-27T15:59:22Z</time></trkpt><trkpt lat="42.39467677963774" lon="0.78227073908275"><ele>918.5999999999999</ele><time>2026-04-27T15:59:23Z</time></trkpt><trkpt lat="42.39469687799687" lon="0.7821249922921949"><ele>918.0</ele><time>2026-04-27T15:59:24Z</time></trkpt><trkpt lat="42.39470360683212" lon="0.7819797473642631"><ele>919.5999999999999</ele><time>2026-04-27T15:59:25Z</time></trkpt><trkpt lat="42.394700118649666" lon="0.7818323510841569"><ele>921.1999999999999</ele><time>2026-04-27T15:59:26Z</time></trkpt><trkpt lat="42.39469020658046" lon="0.7816849709902737"><ele>922.8</ele><time>2026-04-27T15:59:27Z</time></trkpt><trkpt lat="42.39468608267268" lon="0.7815342973456483"><ele>924.4</ele><time>2026-04-27T15:59:28Z</time></trkpt><trkpt lat="42.39467559834857" lon="0.7813861324097282"><ele>926.0</ele><time>2026-04-27T15:59:29Z</time></trkpt><trkpt lat="42.39466753612867" lon="0.781232239128539"><ele>926.0</ele><time>2026-04-27T15:59:30Z</time></trkpt><trkpt lat="42.394654543297236" lon="0.7810787717261763"><ele>925.9999999999999</ele><time>2026-04-27T15:59:31Z</time></trkpt><trkpt lat="42.39463438113373" lon="0.7809306105879563"><ele>925.9999999999999</ele><time>2026-04-27T15:59:32Z</time></trkpt><trkpt lat="42.39462169313762" lon="0.7807948238714832"><ele>926.0</ele><time>2026-04-27T15:59:33Z</time></trkpt><trkpt lat="42.394614340128506" lon="0.7806476504281485"><ele>926.0</ele><time>2026-04-27T15:59:34Z</time></trkpt><trkpt lat="42.394610531450155" lon="0.7804987668462979"><ele>926.1999999999999</ele><time>2026-04-27T15:59:35Z</time></trkpt><trkpt lat="42.39460345822743" lon="0.780361853954264"><ele>926.3999999999999</ele><time>2026-04-27T15:59:36Z</time></trkpt><trkpt lat="42.39460472351628" lon="0.7802181954549404"><ele>926.6</ele><time>2026-04-27T15:59:37Z</time></trkpt><trkpt lat="42.39460039042689" lon="0.7800792042048383"><ele>926.8</ele><time>2026-04-27T15:59:38Z</time></trkpt><trkpt lat="42.394597276359754" lon="0.7799413922816273"><ele>927.0</ele><time>2026-04-27T15:59:39Z</time></trkpt><trkpt lat="42.39460104471357" lon="0.7797949267488177"><ele>928.0</ele><time>2026-04-27T15:59:40Z</time></trkpt><trkpt lat="42.39459382308632" lon="0.7796363886011987"><ele>929.0</ele><time>2026-04-27T15:59:41Z</time></trkpt><trkpt lat="42.39458907800536" lon="0.7794834470182382"><ele>930.0</ele><time>2026-04-27T15:59:42Z</time></trkpt><trkpt lat="42.394590149891776" lon="0.7793380449121184"><ele>931.0</ele><time>2026-04-27T15:59:43Z</time></trkpt><trkpt lat="42.39459528569404" lon="0.7791791156909035"><ele>931.8</ele><time>2026-04-27T15:59:44Z</time></trkpt><trkpt lat="42.39460339974394" lon="0.77902544361334"><ele>932.5999999999999</ele><time>2026-04-27T15:59:45Z</time></trkpt><trkpt lat="42.394613526995656" lon="0.778882519591857"><ele>933.4</ele><time>2026-04-27T15:59:46Z</time></trkpt><trkpt lat="42.39462278178612" lon="0.7787408182027922"><ele>934.2</ele><time>2026-04-27T15:59:47Z</time></trkpt><trkpt lat="42.39463687210807" lon="0.7785937819554906"><ele>935.0</ele><time>2026-04-27T15:59:48Z</time></trkpt><trkpt lat="42.39463479299701" lon="0.77845092540497"><ele>936.0</ele><time>2026-04-27T15:59:49Z</time></trkpt><trkpt lat="42.394640475311796" lon="0.7783045240738293"><ele>937.0</ele><time>2026-04-27T15:59:50Z</time></trkpt><trkpt lat="42.394641477239304" lon="0.7781557749673484"><ele>938.0</ele><time>2026-04-27T15:59:51Z</time></trkpt><trkpt lat="42.39465727723225" lon="0.7780017379917906"><ele>939.0</ele><time>2026-04-27T15:59:52Z</time></trkpt><trkpt lat="42.39468668059598" lon="0.7778635396191099"><ele>940.0</ele><time>2026-04-27T15:59:53Z</time></trkpt><trkpt lat="42.3947247676361" lon="0.7777339653365642"><ele>937.4</ele><time>2026-04-27T15:59:54Z</time></trkpt><trkpt lat="42.39477035598226" lon="0.7776003578326138"><ele>934.8</ele><time>2026-04-27T15:59:55Z</time></trkpt><trkpt lat="42.39481910235905" lon="0.7774654813761295"><ele>932.2</ele><time>2026-04-27T15:59:56Z</time></trkpt><trkpt lat="42.39485409689469" lon="0.7773400201207464"><ele>929.6</ele><time>2026-04-27T15:59:57Z</time></trkpt><trkpt lat="42.3948972684572" lon="0.7772112936763008"><ele>927.0</ele><time>2026-04-27T15:59:58Z</time></trkpt><trkpt lat="42.39492350407812" lon="0.7770875887939854"><ele>927.0</ele><time>2026-04-27T15:59:59Z</time></trkpt><trkpt lat="42.39494695215059" lon="0.7769530836254402"><ele>927.0</ele><time>2026-04-27T16:00:00Z</time></trkpt><trkpt lat="42.39492650269637" lon="0.7768123128969685"><ele>927.0</ele><time>2026-04-27T16:00:01Z</time></trkpt><trkpt lat="42.394888654729066" lon="0.7766808574753846"><ele>927.0</ele><time>2026-04-27T16:00:02Z</time></trkpt><trkpt lat="42.394830733093336" lon="0.7765553105040581"><ele>927.0</ele><time>2026-04-27T16:00:03Z</time></trkpt><trkpt lat="42.39478024513384" lon="0.7764350225328089"><ele>927.2</ele><time>2026-04-27T16:00:04Z</time></trkpt><trkpt lat="42.3947475749842" lon="0.7763059456869789"><ele>927.4000000000001</ele><time>2026-04-27T16:00:05Z</time></trkpt><trkpt lat="42.39472598305345" lon="0.7761717769506687"><ele>927.5999999999999</ele><time>2026-04-27T16:00:06Z</time></trkpt><trkpt lat="42.39470803953802" lon="0.7760384328849198"><ele>927.8</ele><time>2026-04-27T16:00:07Z</time></trkpt><trkpt lat="42.39470281179939" lon="0.7759111957064829"><ele>928.0</ele><time>2026-04-27T16:00:08Z</time></trkpt><trkpt lat="42.39469209864828" lon="0.7757794532980047"><ele>932.5999999999999</ele><time>2026-04-27T16:00:09Z</time></trkpt><trkpt lat="42.39465782718858" lon="0.7756519410506991"><ele>937.1999999999999</ele><time>2026-04-27T16:00:10Z</time></trkpt><trkpt lat="42.394607009247025" lon="0.7755345273490515"><ele>941.8</ele><time>2026-04-27T16:00:11Z</time></trkpt><trkpt lat="42.39455272640356" lon="0.7754233800022979"><ele>946.4</ele><time>2026-04-27T16:00:12Z</time></trkpt><trkpt lat="42.394458856492186" lon="0.7753347534203348"><ele>951.0</ele><time>2026-04-27T16:00:13Z</time></trkpt><trkpt lat="42.39439218699842" lon="0.7752298647735186"><ele>948.5</ele><time>2026-04-27T16:00:14Z</time></trkpt><trkpt lat="42.394370460442886" lon="0.775116641171247"><ele>946.0</ele><time>2026-04-27T16:00:15Z</time></trkpt><trkpt lat="42.394365505575315" lon="0.774992257857301"><ele>943.5</ele><time>2026-04-27T16:00:16Z</time></trkpt><trkpt lat="42.394374137320234" lon="0.7748806996960047"><ele>941.0</ele><time>2026-04-27T16:00:17Z</time></trkpt><trkpt lat="42.39440505030235" lon="0.7747532210717474"><ele>938.5</ele><time>2026-04-27T16:00:18Z</time></trkpt><trkpt lat="42.39444525426177" lon="0.77464668197066"><ele>936.0</ele><time>2026-04-27T16:00:19Z</time></trkpt><trkpt lat="42.39449810053784" lon="0.7745204724490409"><ele>936.0</ele><time>2026-04-27T16:00:20Z</time></trkpt><trkpt lat="42.39454279929975" lon="0.7743803879073001"><ele>935.9999999999999</ele><time>2026-04-27T16:00:21Z</time></trkpt><trkpt lat="42.39457164738575" lon="0.7742462521165053"><ele>935.9999999999999</ele><time>2026-04-27T16:00:22Z</time></trkpt><trkpt lat="42.39463221784332" lon="0.7741146243533322"><ele>936.0</ele><time>2026-04-27T16:00:23Z</time></trkpt><trkpt lat="42.39465707467404" lon="0.7739908912995472"><ele>936.0</ele><time>2026-04-27T16:00:24Z</time></trkpt><trkpt lat="42.39468213288332" lon="0.7738710894797064"><ele>936.0</ele><time>2026-04-27T16:00:25Z</time></trkpt><trkpt lat="42.394705660225824" lon="0.7737332257036363"><ele>935.9999999999999</ele><time>2026-04-27T16:00:26Z</time></trkpt><trkpt lat="42.39470898433962" lon="0.7736002087751216"><ele>935.9999999999999</ele><time>2026-04-27T16:00:27Z</time></trkpt><trkpt lat="42.394695017466724" lon="0.7734665202995508"><ele>936.0</ele><time>2026-04-27T16:00:28Z</time></trkpt><trkpt lat="42.3946723354381" lon="0.7733218092249281"><ele>936.0</ele><time>2026-04-27T16:00:29Z</time></trkpt><trkpt lat="42.39465164715031" lon="0.7731680476122336"><ele>932.0</ele><time>2026-04-27T16:00:30Z</time></trkpt><trkpt lat="42.39463247684348" lon="0.7730143484002858"><ele>927.9999999999999</ele><time>2026-04-27T16:00:31Z</time></trkpt><trkpt lat="42.394609050564945" lon="0.772863912128709"><ele>923.9999999999999</ele><time>2026-04-27T16:00:32Z</time></trkpt><trkpt lat="42.394576559163" lon="0.7727239769565727"><ele>920.0</ele><time>2026-04-27T16:00:33Z</time></trkpt><trkpt lat="42.39453822215914" lon="0.7725846993167168"><ele>916.0</ele><time>2026-04-27T16:00:34Z</time></trkpt><trkpt lat="42.3944967097355" lon="0.7724481249578268"><ele>914.1999999999999</ele><time>2026-04-27T16:00:35Z</time></trkpt><trkpt lat="42.39445015758519" lon="0.7723210005008931"><ele>912.3999999999999</ele><time>2026-04-27T16:00:36Z</time></trkpt><trkpt lat="42.394424063278414" lon="0.7721744764207553"><ele>910.6</ele><time>2026-04-27T16:00:37Z</time></trkpt><trkpt lat="42.394367695128224" lon="0.7720364847363685"><ele>908.8</ele><time>2026-04-27T16:00:38Z</time></trkpt><trkpt lat="42.394310773122356" lon="0.7719145710960885"><ele>907.0</ele><time>2026-04-27T16:00:39Z</time></trkpt><trkpt lat="42.39426325638802" lon="0.7717865331820138"><ele>907.0</ele><time>2026-04-27T16:00:40Z</time></trkpt><trkpt lat="42.39421728538659" lon="0.7716635303393087"><ele>907.0</ele><time>2026-04-27T16:00:41Z</time></trkpt><trkpt lat="42.39419001285754" lon="0.7715312927614398"><ele>907.0</ele><time>2026-04-27T16:00:42Z</time></trkpt><trkpt lat="42.39417157443269" lon="0.771388240688031"><ele>907.0</ele><time>2026-04-27T16:00:43Z</time></trkpt><trkpt lat="42.394158178003856" lon="0.7712507331515266"><ele>907.0</ele><time>2026-04-27T16:00:44Z</time></trkpt><trkpt lat="42.394146394837904" lon="0.7711192223351726"><ele>907.6</ele><time>2026-04-27T16:00:45Z</time></trkpt><trkpt lat="42.39416749412074" lon="0.7709875906215851"><ele>908.2</ele><time>2026-04-27T16:00:46Z</time></trkpt><trkpt lat="42.39417272015479" lon="0.7708478299014371"><ele>908.8</ele><time>2026-04-27T16:00:47Z</time></trkpt><trkpt lat="42.394140598681055" lon="0.770705229886025"><ele>909.4</ele><time>2026-04-27T16:00:48Z</time></trkpt><trkpt lat="42.394116913003586" lon="0.7705657490674058"><ele>910.0</ele><time>2026-04-27T16:00:49Z</time></trkpt><trkpt lat="42.394077217480444" lon="0.7704411748690945"><ele>910.0</ele><time>2026-04-27T16:00:50Z</time></trkpt><trkpt lat="42.394033777879784" lon="0.7703151362596065"><ele>910.0</ele><time>2026-04-27T16:00:51Z</time></trkpt><trkpt lat="42.39400654873732" lon="0.7701642708887207"><ele>910.0</ele><time>2026-04-27T16:00:52Z</time></trkpt><trkpt lat="42.393947861428984" lon="0.7700523951664419"><ele>910.0</ele><time>2026-04-27T16:00:53Z</time></trkpt><trkpt lat="42.393889096771254" lon="0.7699450396108227"><ele>910.0</ele><time>2026-04-27T16:00:54Z</time></trkpt><trkpt lat="42.393820553406364" lon="0.7698619173184458"><ele>909.8333333333333</ele><time>2026-04-27T16:00:55Z</time></trkpt><trkpt lat="42.393783076093705" lon="0.7697468895685873"><ele>909.6666666666666</ele><time>2026-04-27T16:00:56Z</time></trkpt><trkpt lat="42.393777567225285" lon="0.7696303832627027"><ele>909.5</ele><time>2026-04-27T16:00:57Z</time></trkpt><trkpt lat="42.39378972309987" lon="0.7695045973719269"><ele>909.3333333333333</ele><time>2026-04-27T16:00:58Z</time></trkpt><trkpt lat="42.3938062288593" lon="0.7693907522225691"><ele>909.1666666666666</ele><time>2026-04-27T16:00:59Z</time></trkpt><trkpt lat="42.393827473329075" lon="0.7692759591972239"><ele>909.0</ele><time>2026-04-27T16:01:00Z</time></trkpt><trkpt lat="42.39385933144795" lon="0.7691439946171684"><ele>909.0</ele><time>2026-04-27T16:01:01Z</time></trkpt><trkpt lat="42.393896233187135" lon="0.7690026552155832"><ele>909.0000000000001</ele><time>2026-04-27T16:01:02Z</time></trkpt><trkpt lat="42.393944515503904" lon="0.76887036501421"><ele>909.0000000000001</ele><time>2026-04-27T16:01:03Z</time></trkpt><trkpt lat="42.393990731934586" lon="0.7687416218655755"><ele>909.0</ele><time>2026-04-27T16:01:04Z</time></trkpt><trkpt lat="42.39402319713215" lon="0.768607656122926"><ele>909.0</ele><time>2026-04-27T16:01:05Z</time></trkpt><trkpt lat="42.39404231583238" lon="0.7684645310465279"><ele>909.0</ele><time>2026-04-27T16:01:06Z</time></trkpt><trkpt lat="42.39403641381828" lon="0.7683204750445098"><ele>909.0000000000001</ele><time>2026-04-27T16:01:07Z</time></trkpt><trkpt lat="42.394013380834785" lon="0.7681859662103404"><ele>909.0000000000001</ele><time>2026-04-27T16:01:08Z</time></trkpt><trkpt lat="42.39397540776007" lon="0.7680595589400718"><ele>909.0</ele><time>2026-04-27T16:01:09Z</time></trkpt><trkpt lat="42.393924405406594" lon="0.7679364182933435"><ele>909.0</ele><time>2026-04-27T16:01:10Z</time></trkpt><trkpt lat="42.39386076136992" lon="0.7678207297564027"><ele>908.6</ele><time>2026-04-27T16:01:11Z</time></trkpt><trkpt lat="42.39379839745428" lon="0.7676925474485011"><ele>908.2</ele><time>2026-04-27T16:01:12Z</time></trkpt><trkpt lat="42.393721864102886" lon="0.7675988770629738"><ele>907.8000000000001</ele><time>2026-04-27T16:01:13Z</time></trkpt><trkpt lat="42.39366716654703" lon="0.7674899622871743"><ele>907.4000000000001</ele><time>2026-04-27T16:01:14Z</time></trkpt><trkpt lat="42.39362129414863" lon="0.7673824720918622"><ele>907.0</ele><time>2026-04-27T16:01:15Z</time></trkpt><trkpt lat="42.393596767129495" lon="0.7672665601791542"><ele>907.0</ele><time>2026-04-27T16:01:16Z</time></trkpt><trkpt lat="42.393585386884986" lon="0.7671475660265129"><ele>907.0</ele><time>2026-04-27T16:01:17Z</time></trkpt><trkpt lat="42.393611662022636" lon="0.7670211482663414"><ele>907.0</ele><time>2026-04-27T16:01:18Z</time></trkpt><trkpt lat="42.39366341455736" lon="0.7669087311910481"><ele>907.0</ele><time>2026-04-27T16:01:19Z</time></trkpt><trkpt lat="42.39371157896135" lon="0.7667968498511494"><ele>907.0</ele><time>2026-04-27T16:01:20Z</time></trkpt><trkpt lat="42.3937508045156" lon="0.766682023647024"><ele>907.2</ele><time>2026-04-27T16:01:21Z</time></trkpt><trkpt lat="42.39376442075302" lon="0.7665431159705344"><ele>907.4000000000001</ele><time>2026-04-27T16:01:22Z</time></trkpt><trkpt lat="42.39376920010742" lon="0.7664069535676751"><ele>907.5999999999999</ele><time>2026-04-27T16:01:23Z</time></trkpt><trkpt lat="42.39376066615374" lon="0.7662632464888279"><ele>907.8</ele><time>2026-04-27T16:01:24Z</time></trkpt><trkpt lat="42.393749919455445" lon="0.766119858906459"><ele>908.0</ele><time>2026-04-27T16:01:25Z</time></trkpt><trkpt lat="42.393736698274125" lon="0.7659732641623351"><ele>906.5</ele><time>2026-04-27T16:01:25.999Z</time></trkpt><trkpt lat="42.39372645788496" lon="0.765823295153764"><ele>905.0</ele><time>2026-04-27T16:01:26.999Z</time></trkpt><trkpt lat="42.39373063081185" lon="0.7656763192205288"><ele>903.5</ele><time>2026-04-27T16:01:27.999Z</time></trkpt><trkpt lat="42.39373604301928" lon="0.7655198424562744"><ele>902.0</ele><time>2026-04-27T16:01:28.999Z</time></trkpt><trkpt lat="42.393766643203726" lon="0.7653686914034583"><ele>902.0</ele><time>2026-04-27T16:01:29.999Z</time></trkpt><trkpt lat="42.393790011593275" lon="0.7652238623114748"><ele>902.0</ele><time>2026-04-27T16:01:30.999Z</time></trkpt><trkpt lat="42.39382365549569" lon="0.7650869649222571"><ele>902.0</ele><time>2026-04-27T16:01:31.999Z</time></trkpt><trkpt lat="42.393870373860615" lon="0.7649744130699146"><ele>902.0</ele><time>2026-04-27T16:01:32.999Z</time></trkpt><trkpt lat="42.3939213046775" lon="0.7648414628748336"><ele>902.0</ele><time>2026-04-27T16:01:33.999Z</time></trkpt><trkpt lat="42.39400189802042" lon="0.7647752637242542"><ele>899.2</ele><time>2026-04-27T16:01:34.999Z</time></trkpt><trkpt lat="42.39407217289524" lon="0.7647020540023467"><ele>896.4000000000001</ele><time>2026-04-27T16:01:35.999Z</time></trkpt><trkpt lat="42.394148856091284" lon="0.7646096729462155"><ele>893.5999999999999</ele><time>2026-04-27T16:01:36.999Z</time></trkpt><trkpt lat="42.39419882662057" lon="0.7644601312772772"><ele>890.8</ele><time>2026-04-27T16:01:37.999Z</time></trkpt><trkpt lat="42.394241880569936" lon="0.7643303334630897"><ele>888.0</ele><time>2026-04-27T16:01:38.999Z</time></trkpt><trkpt lat="42.39428953100179" lon="0.7642038142885731"><ele>886.2</ele><time>2026-04-27T16:01:39.999Z</time></trkpt><trkpt lat="42.3943293418784" lon="0.7640681886304727"><ele>884.4</ele><time>2026-04-27T16:01:41Z</time></trkpt><trkpt lat="42.39440304313116" lon="0.7639539818967584"><ele>882.6000000000001</ele><time>2026-04-27T16:01:42Z</time></trkpt><trkpt lat="42.39444931722989" lon="0.7638142308143073"><ele>880.8000000000001</ele><time>2026-04-27T16:01:43Z</time></trkpt><trkpt lat="42.394487713842864" lon="0.7636747518096979"><ele>879.0</ele><time>2026-04-27T16:01:44Z</time></trkpt><trkpt lat="42.39452386349803" lon="0.7635416691850914"><ele>878.2</ele><time>2026-04-27T16:01:45Z</time></trkpt><trkpt lat="42.394555988384006" lon="0.7634028466644163"><ele>877.4000000000001</ele><time>2026-04-27T16:01:46Z</time></trkpt><trkpt lat="42.39457089943577" lon="0.7632582083379528"><ele>876.6</ele><time>2026-04-27T16:01:47Z</time></trkpt><trkpt lat="42.39458091187289" lon="0.7631166857833577"><ele>875.8</ele><time>2026-04-27T16:01:48Z</time></trkpt><trkpt lat="42.39458626899771" lon="0.7629845444647633"><ele>875.0</ele><time>2026-04-27T16:01:49Z</time></trkpt><trkpt lat="42.394573867538675" lon="0.7628479014608581"><ele>875.0</ele><time>2026-04-27T16:01:50Z</time></trkpt><trkpt lat="42.394538006204364" lon="0.76271799388464"><ele>875.0</ele><time>2026-04-27T16:01:51Z</time></trkpt><trkpt lat="42.394476020194425" lon="0.762597492007628"><ele>875.0</ele><time>2026-04-27T16:01:52Z</time></trkpt><trkpt lat="42.39440924984554" lon="0.7624800899140041"><ele>875.0</ele><time>2026-04-27T16:01:53Z</time></trkpt><trkpt lat="42.39432965636295" lon="0.7623782427715693"><ele>875.0</ele><time>2026-04-27T16:01:54Z</time></trkpt><trkpt lat="42.39425519903526" lon="0.7622662571164193"><ele>875.25</ele><time>2026-04-27T16:01:55Z</time></trkpt><trkpt lat="42.39417908221905" lon="0.7621594524441263"><ele>875.5</ele><time>2026-04-27T16:01:56Z</time></trkpt><trkpt lat="42.394103938041305" lon="0.7620481188338092"><ele>875.75</ele><time>2026-04-27T16:01:57Z</time></trkpt><trkpt lat="42.394028797932286" lon="0.7619316464899932"><ele>876.0</ele><time>2026-04-27T16:01:58Z</time></trkpt><trkpt lat="42.39395499031192" lon="0.7618126183091011"><ele>876.0</ele><time>2026-04-27T16:01:59Z</time></trkpt><trkpt lat="42.393893280301796" lon="0.7616899697548062"><ele>875.9999999999999</ele><time>2026-04-27T16:02:00Z</time></trkpt><trkpt lat="42.39384547412825" lon="0.7615580035956082"><ele>875.9999999999999</ele><time>2026-04-27T16:02:01Z</time></trkpt><trkpt lat="42.393801034615294" lon="0.7614179962821439"><ele>876.0</ele><time>2026-04-27T16:02:02Z</time></trkpt><trkpt lat="42.39377465743237" lon="0.7612812163602878"><ele>876.0</ele><time>2026-04-27T16:02:03Z</time></trkpt><trkpt lat="42.39376740835182" lon="0.7611254476246487"><ele>873.5999999999999</ele><time>2026-04-27T16:02:04Z</time></trkpt><trkpt lat="42.39376232615373" lon="0.76096716472376"><ele>871.1999999999999</ele><time>2026-04-27T16:02:05Z</time></trkpt><trkpt lat="42.39375733181998" lon="0.7608150707247011"><ele>868.8000000000001</ele><time>2026-04-27T16:02:06Z</time></trkpt><trkpt lat="42.39373817977271" lon="0.7606726024825611"><ele>866.4000000000001</ele><time>2026-04-27T16:02:07Z</time></trkpt><trkpt lat="42.39370078700583" lon="0.7605298337699773"><ele>864.0</ele><time>2026-04-27T16:02:08Z</time></trkpt><trkpt lat="42.393663426759666" lon="0.7603904324745493"><ele>864.0</ele><time>2026-04-27T16:02:09Z</time></trkpt><trkpt lat="42.3936236073068" lon="0.760244341497047"><ele>864.0</ele><time>2026-04-27T16:02:10Z</time></trkpt><trkpt lat="42.39358777255783" lon="0.7600905868353562"><ele>864.0</ele><time>2026-04-27T16:02:11Z</time></trkpt><trkpt lat="42.393537493427786" lon="0.7599542142620237"><ele>864.0</ele><time>2026-04-27T16:02:12Z</time></trkpt><trkpt lat="42.39349602730907" lon="0.7598123138174018"><ele>864.4000000000001</ele><time>2026-04-27T16:02:13Z</time></trkpt><trkpt lat="42.39345032819208" lon="0.7596744208225745"><ele>864.8000000000001</ele><time>2026-04-27T16:02:14Z</time></trkpt><trkpt lat="42.39339958360772" lon="0.7595432910741261"><ele>865.1999999999999</ele><time>2026-04-27T16:02:15Z</time></trkpt><trkpt lat="42.3933562081235" lon="0.7594031993733097"><ele>865.5999999999999</ele><time>2026-04-27T16:02:16Z</time></trkpt><trkpt lat="42.39331157729951" lon="0.7592700602999144"><ele>866.0</ele><time>2026-04-27T16:02:17Z</time></trkpt><trkpt lat="42.39325933878874" lon="0.7591396457023316"><ele>866.0</ele><time>2026-04-27T16:02:18Z</time></trkpt><trkpt lat="42.39321041632046" lon="0.7590074508125487"><ele>865.9999999999999</ele><time>2026-04-27T16:02:19Z</time></trkpt><trkpt lat="42.3931634982642" lon="0.7588779423246096"><ele>865.9999999999999</ele><time>2026-04-27T16:02:20Z</time></trkpt><trkpt lat="42.39311709254173" lon="0.7587502230032847"><ele>866.0</ele><time>2026-04-27T16:02:21Z</time></trkpt><trkpt lat="42.393058584062324" lon="0.7586421615605845"><ele>866.0</ele><time>2026-04-27T16:02:22Z</time></trkpt><trkpt lat="42.392980265206106" lon="0.7585630019029891"><ele>864.5999999999999</ele><time>2026-04-27T16:02:23Z</time></trkpt><trkpt lat="42.39289278241635" lon="0.7584789526288059"><ele>863.1999999999999</ele><time>2026-04-27T16:02:24Z</time></trkpt><trkpt lat="42.39278892425441" lon="0.7584292360063487"><ele>861.8000000000001</ele><time>2026-04-27T16:02:25Z</time></trkpt><trkpt lat="42.39270237158088" lon="0.7583392594849724"><ele>860.4000000000001</ele><time>2026-04-27T16:02:26Z</time></trkpt><trkpt lat="42.392606028423984" lon="0.7582734581325139"><ele>859.0</ele><time>2026-04-27T16:02:27Z</time></trkpt><trkpt lat="42.392515358959194" lon="0.758201525837269"><ele>859.0</ele><time>2026-04-27T16:02:28Z</time></trkpt><trkpt lat="42.3924291613216" lon="0.7581178482323225"><ele>859.0</ele><time>2026-04-27T16:02:29Z</time></trkpt><trkpt lat="42.39235164942865" lon="0.7580040899747371"><ele>859.0</ele><time>2026-04-27T16:02:30Z</time></trkpt><trkpt lat="42.392281317737" lon="0.7578820222772024"><ele>859.0</ele><time>2026-04-27T16:02:31Z</time></trkpt><trkpt lat="42.392218498597956" lon="0.7577493968757929"><ele>858.6</ele><time>2026-04-27T16:02:32Z</time></trkpt><trkpt lat="42.39216154528699" lon="0.7576202605378608"><ele>858.2</ele><time>2026-04-27T16:02:33Z</time></trkpt><trkpt lat="42.392104137276405" lon="0.7574925974488106"><ele>857.8000000000001</ele><time>2026-04-27T16:02:34Z</time></trkpt><trkpt lat="42.39203795983669" lon="0.7573662779204116"><ele>857.4000000000001</ele><time>2026-04-27T16:02:35Z</time></trkpt><trkpt lat="42.39197732812911" lon="0.7572388319815625"><ele>857.0</ele><time>2026-04-27T16:02:36Z</time></trkpt><trkpt lat="42.39191822315195" lon="0.7571117287370197"><ele>857.0</ele><time>2026-04-27T16:02:37Z</time></trkpt><trkpt lat="42.3918524165481" lon="0.7569815889493741"><ele>857.0</ele><time>2026-04-27T16:02:38Z</time></trkpt><trkpt lat="42.39178963863642" lon="0.756850494452203"><ele>857.0</ele><time>2026-04-27T16:02:39Z</time></trkpt><trkpt lat="42.391730406586554" lon="0.7567230605257425"><ele>857.0</ele><time>2026-04-27T16:02:40Z</time></trkpt><trkpt lat="42.391670946791926" lon="0.7565947113129446"><ele>856.8</ele><time>2026-04-27T16:02:41Z</time></trkpt><trkpt lat="42.39161045936166" lon="0.7564806682634908"><ele>856.6</ele><time>2026-04-27T16:02:42Z</time></trkpt><trkpt lat="42.39153465321471" lon="0.7563741979053727"><ele>856.3999999999999</ele><time>2026-04-27T16:02:43Z</time></trkpt><trkpt lat="42.391451946995126" lon="0.7562728173568904"><ele>856.1999999999999</ele><time>2026-04-27T16:02:44Z</time></trkpt><trkpt lat="42.39135343237857" lon="0.7561970647259383"><ele>856.0</ele><time>2026-04-27T16:02:45Z</time></trkpt><trkpt lat="42.39125326476008" lon="0.75612982552189"><ele>856.4</ele><time>2026-04-27T16:02:46Z</time></trkpt><trkpt lat="42.39114715519797" lon="0.7560819823504173"><ele>856.8</ele><time>2026-04-27T16:02:47Z</time></trkpt><trkpt lat="42.39104299343353" lon="0.756045772493862"><ele>857.1999999999999</ele><time>2026-04-27T16:02:48Z</time></trkpt><trkpt lat="42.390932100770705" lon="0.7560073409717566"><ele>857.5999999999999</ele><time>2026-04-27T16:02:49Z</time></trkpt><trkpt lat="42.39082414128344" lon="0.7560041174644735"><ele>858.0</ele><time>2026-04-27T16:02:50Z</time></trkpt><trkpt lat="42.39071599759223" lon="0.7560235227358074"><ele>858.0</ele><time>2026-04-27T16:02:51Z</time></trkpt><trkpt lat="42.39060898562284" lon="0.756058309008618"><ele>858.0</ele><time>2026-04-27T16:02:52Z</time></trkpt><trkpt lat="42.390502681164094" lon="0.7560977975124632"><ele>858.0</ele><time>2026-04-27T16:02:53Z</time></trkpt><trkpt lat="42.39040296349663" lon="0.7561420371116662"><ele>858.0</ele><time>2026-04-27T16:02:54Z</time></trkpt><trkpt lat="42.39029444901699" lon="0.7561365909853396"><ele>858.0</ele><time>2026-04-27T16:02:55Z</time></trkpt><trkpt lat="42.39020603527188" lon="0.7561799738571522"><ele>858.0</ele><time>2026-04-27T16:02:56Z</time></trkpt><trkpt lat="42.39012727059224" lon="0.7562131167298747"><ele>858.0</ele><time>2026-04-27T16:02:57Z</time></trkpt><trkpt lat="42.39005624449067" lon="0.7562273541665062"><ele>858.0</ele><time>2026-04-27T16:02:58Z</time></trkpt><trkpt lat="42.38997797023178" lon="0.7562201709155301"><ele>858.0</ele><time>2026-04-27T16:02:59Z</time></trkpt><trkpt lat="42.389903959962325" lon="0.7561886836889213"><ele>858.0</ele><time>2026-04-27T16:03:00Z</time></trkpt><trkpt lat="42.389836948286124" lon="0.7561256580845397"><ele>858.0</ele><time>2026-04-27T16:03:01Z</time></trkpt><trkpt lat="42.3897991260451" lon="0.7560402551908952"><ele>856.2</ele><time>2026-04-27T16:03:02Z</time></trkpt><trkpt lat="42.38978544595516" lon="0.7559378024378003"><ele>854.4</ele><time>2026-04-27T16:03:03Z</time></trkpt><trkpt lat="42.38979660763817" lon="0.7558247830098584"><ele>852.6</ele><time>2026-04-27T16:03:04Z</time></trkpt><trkpt lat="42.389823577408855" lon="0.7557053291693395"><ele>850.8000000000001</ele><time>2026-04-27T16:03:05Z</time></trkpt><trkpt lat="42.38985689946683" lon="0.755563299184992"><ele>849.0</ele><time>2026-04-27T16:03:06Z</time></trkpt><trkpt lat="42.38989219118112" lon="0.7554335469515628"><ele>849.0</ele><time>2026-04-27T16:03:07Z</time></trkpt><trkpt lat="42.38994489274846" lon="0.755324531570631"><ele>849.0</ele><time>2026-04-27T16:03:08Z</time></trkpt><trkpt lat="42.38998282060598" lon="0.7551797620219177"><ele>849.0</ele><time>2026-04-27T16:03:09Z</time></trkpt><trkpt lat="42.39004940735536" lon="0.7550616076688728"><ele>849.0</ele><time>2026-04-27T16:03:10Z</time></trkpt><trkpt lat="42.39014276466024" lon="0.7549588499754675"><ele>849.0</ele><time>2026-04-27T16:03:11Z</time></trkpt><trkpt lat="42.390219341894216" lon="0.7548563499493058"><ele>848.8000000000001</ele><time>2026-04-27T16:03:12Z</time></trkpt><trkpt lat="42.390301634799826" lon="0.7547709168701291"><ele>848.6</ele><time>2026-04-27T16:03:13Z</time></trkpt><trkpt lat="42.39037539441461" lon="0.7546752698291402"><ele>848.4</ele><time>2026-04-27T16:03:14Z</time></trkpt><trkpt lat="42.390482585809615" lon="0.7546012944482957"><ele>848.2</ele><time>2026-04-27T16:03:15Z</time></trkpt><trkpt lat="42.39055895497199" lon="0.7545096547257226"><ele>848.0</ele><time>2026-04-27T16:03:16Z</time></trkpt><trkpt lat="42.390623198000945" lon="0.7544154922128334"><ele>848.2</ele><time>2026-04-27T16:03:17Z</time></trkpt><trkpt lat="42.39069447595451" lon="0.7543064318005398"><ele>848.4</ele><time>2026-04-27T16:03:18Z</time></trkpt><trkpt lat="42.39074530674423" lon="0.7541827999261981"><ele>848.6</ele><time>2026-04-27T16:03:19Z</time></trkpt><trkpt lat="42.39078163548212" lon="0.754051853494072"><ele>848.8000000000001</ele><time>2026-04-27T16:03:20Z</time></trkpt><trkpt lat="42.3908033788757" lon="0.7539158274676299"><ele>849.0</ele><time>2026-04-27T16:03:21Z</time></trkpt><trkpt lat="42.39081262538136" lon="0.7537757023960431"><ele>849.0</ele><time>2026-04-27T16:03:22Z</time></trkpt><trkpt lat="42.390816733681106" lon="0.7536309072214065"><ele>849.0</ele><time>2026-04-27T16:03:23Z</time></trkpt><trkpt lat="42.390805040966434" lon="0.7534861781502352"><ele>849.0</ele><time>2026-04-27T16:03:24Z</time></trkpt><trkpt lat="42.390773734918554" lon="0.753358788825463"><ele>849.0</ele><time>2026-04-27T16:03:25Z</time></trkpt><trkpt lat="42.390735310193335" lon="0.7532235318627789"><ele>849.0</ele><time>2026-04-27T16:03:26Z</time></trkpt><trkpt lat="42.3906625630869" lon="0.7531232077877055"><ele>849.75</ele><time>2026-04-27T16:03:27Z</time></trkpt><trkpt lat="42.39056827750658" lon="0.7530433384135585"><ele>850.5</ele><time>2026-04-27T16:03:28Z</time></trkpt><trkpt lat="42.39047092132193" lon="0.7529616935994362"><ele>851.25</ele><time>2026-04-27T16:03:29Z</time></trkpt><trkpt lat="42.39036730648178" lon="0.7528902464798485"><ele>852.0</ele><time>2026-04-27T16:03:30Z</time></trkpt><trkpt lat="42.39026605947401" lon="0.7528174658224591"><ele>848.75</ele><time>2026-04-27T16:03:31Z</time></trkpt><trkpt lat="42.39016478810577" lon="0.752742968983532"><ele>845.5</ele><time>2026-04-27T16:03:31.999Z</time></trkpt><trkpt lat="42.39006725061241" lon="0.7526592900018597"><ele>842.25</ele><time>2026-04-27T16:03:32.999Z</time></trkpt><trkpt lat="42.389975844485626" lon="0.752569692934182"><ele>839.0</ele><time>2026-04-27T16:03:33.999Z</time></trkpt><trkpt lat="42.38988855549579" lon="0.7524653620106918"><ele>838.6</ele><time>2026-04-27T16:03:34.999Z</time></trkpt><trkpt lat="42.38980782594279" lon="0.7523517229926389"><ele>838.2</ele><time>2026-04-27T16:03:35.999Z</time></trkpt><trkpt lat="42.38973764132167" lon="0.7522279190377558"><ele>837.8000000000001</ele><time>2026-04-27T16:03:36.999Z</time></trkpt><trkpt lat="42.389684399384244" lon="0.7521051893915001"><ele>837.4000000000001</ele><time>2026-04-27T16:03:37.999Z</time></trkpt><trkpt lat="42.389648966237985" lon="0.7519741753999248"><ele>837.0</ele><time>2026-04-27T16:03:38.999Z</time></trkpt><trkpt lat="42.38962117997874" lon="0.7518350660222933"><ele>835.8</ele><time>2026-04-27T16:03:39.999Z</time></trkpt><trkpt lat="42.38960628256807" lon="0.7516989828590916"><ele>834.6</ele><time>2026-04-27T16:03:40.999Z</time></trkpt><trkpt lat="42.3896038580946" lon="0.7515537100812225"><ele>833.4</ele><time>2026-04-27T16:03:42Z</time></trkpt><trkpt lat="42.389619333047214" lon="0.7514116089304438"><ele>832.1999999999999</ele><time>2026-04-27T16:03:43Z</time></trkpt><trkpt lat="42.389645857959934" lon="0.7512767141511452"><ele>831.0</ele><time>2026-04-27T16:03:44Z</time></trkpt><trkpt lat="42.38970004866963" lon="0.7511242093978523"><ele>833.4</ele><time>2026-04-27T16:03:45Z</time></trkpt><trkpt lat="42.38974042829344" lon="0.7509908781148218"><ele>835.8</ele><time>2026-04-27T16:03:46Z</time></trkpt><trkpt lat="42.38978348653924" lon="0.7508503162946482"><ele>838.1999999999999</ele><time>2026-04-27T16:03:47Z</time></trkpt><trkpt lat="42.38981929351099" lon="0.7507051187832716"><ele>840.5999999999999</ele><time>2026-04-27T16:03:48Z</time></trkpt><trkpt lat="42.38985384803561" lon="0.7505663397339449"><ele>843.0</ele><time>2026-04-27T16:03:49Z</time></trkpt><trkpt lat="42.38989577263591" lon="0.7504285690264854"><ele>843.0</ele><time>2026-04-27T16:03:50Z</time></trkpt><trkpt lat="42.389926227567805" lon="0.7502876716986387"><ele>843.0</ele><time>2026-04-27T16:03:51Z</time></trkpt><trkpt lat="42.38995071708252" lon="0.7501468619728157"><ele>843.0</ele><time>2026-04-27T16:03:52Z</time></trkpt><trkpt lat="42.38996418089696" lon="0.7500064625653646"><ele>843.0</ele><time>2026-04-27T16:03:53Z</time></trkpt><trkpt lat="42.389955102047544" lon="0.7498687104940945"><ele>843.0</ele><time>2026-04-27T16:03:54Z</time></trkpt><trkpt lat="42.389923764590655" lon="0.7497315339000702"><ele>843.5999999999999</ele><time>2026-04-27T16:03:55Z</time></trkpt><trkpt lat="42.389881183376325" lon="0.7495982855420606"><ele>844.1999999999999</ele><time>2026-04-27T16:03:56Z</time></trkpt><trkpt lat="42.3898165718747" lon="0.7494809950480803"><ele>844.8</ele><time>2026-04-27T16:03:57Z</time></trkpt><trkpt lat="42.38974479529286" lon="0.7493730201420181"><ele>845.4</ele><time>2026-04-27T16:03:58Z</time></trkpt><trkpt lat="42.3896650276208" lon="0.7492807083834361"><ele>846.0</ele><time>2026-04-27T16:03:59Z</time></trkpt><trkpt lat="42.38957428890628" lon="0.7492111464242187"><ele>842.4</ele><time>2026-04-27T16:04:00Z</time></trkpt><trkpt lat="42.389490318913296" lon="0.7491236061603173"><ele>838.8</ele><time>2026-04-27T16:04:01Z</time></trkpt><trkpt lat="42.38940581361007" lon="0.7490415781547474"><ele>835.1999999999999</ele><time>2026-04-27T16:04:02Z</time></trkpt><trkpt lat="42.38932520115727" lon="0.7489656454062871"><ele>831.5999999999999</ele><time>2026-04-27T16:04:03Z</time></trkpt><trkpt lat="42.38924318661594" lon="0.7488777722778602"><ele>828.0</ele><time>2026-04-27T16:04:04Z</time></trkpt><trkpt lat="42.38916873808502" lon="0.7487784424995352"><ele>828.0</ele><time>2026-04-27T16:04:05Z</time></trkpt><trkpt lat="42.38910063910062" lon="0.7486589358097675"><ele>828.0</ele><time>2026-04-27T16:04:06Z</time></trkpt><trkpt lat="42.3890495840975" lon="0.748530455707364"><ele>828.0</ele><time>2026-04-27T16:04:07Z</time></trkpt><trkpt lat="42.389013655885776" lon="0.7483966921925729"><ele>828.0</ele><time>2026-04-27T16:04:08Z</time></trkpt><trkpt lat="42.38900041544551" lon="0.7482536675946099"><ele>828.0</ele><time>2026-04-27T16:04:09Z</time></trkpt><trkpt lat="42.3889971979211" lon="0.7481090825899752"><ele>829.5999999999999</ele><time>2026-04-27T16:04:10Z</time></trkpt><trkpt lat="42.389004763910606" lon="0.7479653173858467"><ele>831.1999999999999</ele><time>2026-04-27T16:04:11Z</time></trkpt><trkpt lat="42.38902103960263" lon="0.7478174923374911"><ele>832.8</ele><time>2026-04-27T16:04:12Z</time></trkpt><trkpt lat="42.389039261535466" lon="0.7476812869457511"><ele>834.4</ele><time>2026-04-27T16:04:13Z</time></trkpt><trkpt lat="42.389056462489265" lon="0.7475501288675113"><ele>836.0</ele><time>2026-04-27T16:04:14Z</time></trkpt><trkpt lat="42.389074412937376" lon="0.7474140024587602"><ele>838.1999999999999</ele><time>2026-04-27T16:04:15Z</time></trkpt><trkpt lat="42.38908926313078" lon="0.7472752469612284"><ele>840.4</ele><time>2026-04-27T16:04:16Z</time></trkpt><trkpt lat="42.389100739822645" lon="0.7471392997963638"><ele>842.6</ele><time>2026-04-27T16:04:17Z</time></trkpt><trkpt lat="42.38910815430292" lon="0.7470137401772526"><ele>844.8</ele><time>2026-04-27T16:04:18Z</time></trkpt><trkpt lat="42.38911910600753" lon="0.7468804757048568"><ele>847.0</ele><time>2026-04-27T16:04:19Z</time></trkpt><trkpt lat="42.389143621309486" lon="0.7467449683159293"><ele>849.6</ele><time>2026-04-27T16:04:20Z</time></trkpt><trkpt lat="42.38917329781566" lon="0.7466097948758309"><ele>852.2</ele><time>2026-04-27T16:04:21Z</time></trkpt><trkpt lat="42.3892123864979" lon="0.7464730222936422"><ele>854.8</ele><time>2026-04-27T16:04:22.022Z</time></trkpt><trkpt lat="42.38925838097608" lon="0.7463462454787229"><ele>857.4</ele><time>2026-04-27T16:04:23.019Z</time></trkpt><trkpt lat="42.389313533691904" lon="0.7462236193508838"><ele>860.0</ele><time>2026-04-27T16:04:24.02Z</time></trkpt><trkpt lat="42.38938014475923" lon="0.7461078330819381"><ele>860.3333333333334</ele><time>2026-04-27T16:04:25.023Z</time></trkpt><trkpt lat="42.38945594083386" lon="0.7460012835506595"><ele>860.6666666666667</ele><time>2026-04-27T16:04:26.023Z</time></trkpt><trkpt lat="42.38953965542823" lon="0.7458992562070197"><ele>861.0</ele><time>2026-04-27T16:04:27.019Z</time></trkpt><trkpt lat="42.389921536303255" lon="0.7456708178541805"><ele>861.0</ele><time>2026-04-27T16:04:30.826Z</time></trkpt><trkpt lat="42.39002920225485" lon="0.7454646751291542"><ele>861.0</ele><time>2026-04-27T16:04:37Z</time></trkpt><trkpt lat="42.39078660699245" lon="0.7458386404726022"><ele>854.75</ele><time>2026-04-27T16:04:39Z</time></trkpt><trkpt lat="42.390891490430946" lon="0.7458525252352076"><ele>848.5</ele><time>2026-04-27T16:04:40Z</time></trkpt><trkpt lat="42.39100484556346" lon="0.7458994761411474"><ele>842.25</ele><time>2026-04-27T16:04:41Z</time></trkpt><trkpt lat="42.39110872328724" lon="0.7459782913513943"><ele>836.0</ele><time>2026-04-27T16:04:42Z</time></trkpt><trkpt lat="42.39122073195173" lon="0.7460196664567278"><ele>837.5999999999999</ele><time>2026-04-27T16:04:43Z</time></trkpt><trkpt lat="42.39132186837146" lon="0.7460550293917797"><ele>839.2</ele><time>2026-04-27T16:04:44Z</time></trkpt><trkpt lat="42.39142889684422" lon="0.7460852919484705"><ele>840.8</ele><time>2026-04-27T16:04:45Z</time></trkpt><trkpt lat="42.39152733384838" lon="0.7461225518877264"><ele>842.4000000000001</ele><time>2026-04-27T16:04:46Z</time></trkpt><trkpt lat="42.391624100361916" lon="0.7461785701764274"><ele>844.0</ele><time>2026-04-27T16:04:47Z</time></trkpt><trkpt lat="42.39171057825889" lon="0.7462413747888619"><ele>844.0</ele><time>2026-04-27T16:04:48Z</time></trkpt><trkpt lat="42.39179020824255" lon="0.7463128391096392"><ele>844.0</ele><time>2026-04-27T16:04:49Z</time></trkpt><trkpt lat="42.39187584354146" lon="0.746398604706999"><ele>844.0</ele><time>2026-04-27T16:04:50Z</time></trkpt><trkpt lat="42.39196845623706" lon="0.7464807996016087"><ele>844.0</ele><time>2026-04-27T16:04:51Z</time></trkpt><trkpt lat="42.39204657625585" lon="0.7465754883560364"><ele>844.0</ele><time>2026-04-27T16:04:52Z</time></trkpt><trkpt lat="42.39215436996138" lon="0.7466344085526984"><ele>842.0</ele><time>2026-04-27T16:04:53Z</time></trkpt><trkpt lat="42.39226346404014" lon="0.7466765445978759"><ele>840.0</ele><time>2026-04-27T16:04:54Z</time></trkpt><trkpt lat="42.39237505903528" lon="0.746702249171046"><ele>838.0</ele><time>2026-04-27T16:04:55Z</time></trkpt><trkpt lat="42.39248763766696" lon="0.7467154419440354"><ele>836.0</ele><time>2026-04-27T16:04:56Z</time></trkpt><trkpt lat="42.39259297546349" lon="0.7467323633669831"><ele>834.0</ele><time>2026-04-27T16:04:57Z</time></trkpt><trkpt lat="42.392701952912255" lon="0.7467384905213201"><ele>834.0</ele><time>2026-04-27T16:04:58Z</time></trkpt><trkpt lat="42.392808304380644" lon="0.7467416563400098"><ele>834.0</ele><time>2026-04-27T16:04:59Z</time></trkpt><trkpt lat="42.39292016547622" lon="0.7467581035876715"><ele>834.0</ele><time>2026-04-27T16:05:00Z</time></trkpt><trkpt lat="42.39302850086533" lon="0.7467800185230603"><ele>834.0</ele><time>2026-04-27T16:05:01Z</time></trkpt><trkpt lat="42.39313815741455" lon="0.7467928585149579"><ele>834.0</ele><time>2026-04-27T16:05:02Z</time></trkpt><trkpt lat="42.39324131130135" lon="0.7468303202546266"><ele>833.5</ele><time>2026-04-27T16:05:03Z</time></trkpt><trkpt lat="42.3933568944854" lon="0.746850228312941"><ele>833.0</ele><time>2026-04-27T16:05:04Z</time></trkpt><trkpt lat="42.39346378048039" lon="0.7468677180971609"><ele>832.5</ele><time>2026-04-27T16:05:05Z</time></trkpt><trkpt lat="42.39357450395747" lon="0.7468858358106575"><ele>832.0</ele><time>2026-04-27T16:05:06Z</time></trkpt><trkpt lat="42.393688476535246" lon="0.7469044851791774"><ele>836.4000000000001</ele><time>2026-04-27T16:05:07Z</time></trkpt><trkpt lat="42.393801092406676" lon="0.7469229125503686"><ele>840.8000000000001</ele><time>2026-04-27T16:05:08Z</time></trkpt><trkpt lat="42.39390903801856" lon="0.7469332777259193"><ele>845.2</ele><time>2026-04-27T16:05:09Z</time></trkpt><trkpt lat="42.394019109488625" lon="0.7469559389193806"><ele>849.6</ele><time>2026-04-27T16:05:10Z</time></trkpt><trkpt lat="42.39413000433764" lon="0.7469688877507177"><ele>854.0</ele><time>2026-04-27T16:05:11Z</time></trkpt><trkpt lat="42.39424108030942" lon="0.7470054858081028"><ele>854.4000000000001</ele><time>2026-04-27T16:05:12Z</time></trkpt><trkpt lat="42.39434195339399" lon="0.7470062256899462"><ele>854.8000000000001</ele><time>2026-04-27T16:05:13Z</time></trkpt><trkpt lat="42.39445219352665" lon="0.747004169873273"><ele>855.1999999999999</ele><time>2026-04-27T16:05:14Z</time></trkpt><trkpt lat="42.3945550288099" lon="0.7469789485389967"><ele>855.5999999999999</ele><time>2026-04-27T16:05:15Z</time></trkpt><trkpt lat="42.39465570846713" lon="0.7469260404554471"><ele>856.0</ele><time>2026-04-27T16:05:16Z</time></trkpt><trkpt lat="42.394758188439745" lon="0.746865221251552"><ele>851.5999999999999</ele><time>2026-04-27T16:05:17Z</time></trkpt><trkpt lat="42.39485782871877" lon="0.7468069912185802"><ele>847.1999999999999</ele><time>2026-04-27T16:05:18Z</time></trkpt><trkpt lat="42.394953072732434" lon="0.7467448018249244"><ele>842.8</ele><time>2026-04-27T16:05:19Z</time></trkpt><trkpt lat="42.39505010304627" lon="0.7466808323904199"><ele>838.4000000000001</ele><time>2026-04-27T16:05:20Z</time></trkpt><trkpt lat="42.3951493634517" lon="0.7466229715380901"><ele>834.0</ele><time>2026-04-27T16:05:21Z</time></trkpt><trkpt lat="42.39524300169029" lon="0.7465623502639024"><ele>834.0</ele><time>2026-04-27T16:05:22Z</time></trkpt><trkpt lat="42.39533092243823" lon="0.74650154105273"><ele>834.0</ele><time>2026-04-27T16:05:23Z</time></trkpt><trkpt lat="42.395443577301165" lon="0.746465088735459"><ele>834.0</ele><time>2026-04-27T16:05:24.001Z</time></trkpt><trkpt lat="42.39553082087509" lon="0.7463962904142737"><ele>834.0</ele><time>2026-04-27T16:05:25.001Z</time></trkpt><trkpt lat="42.39562943428642" lon="0.7463258187284129"><ele>834.0</ele><time>2026-04-27T16:05:26.001Z</time></trkpt><trkpt lat="42.395743076503976" lon="0.7462821343275505"><ele>833.4000000000001</ele><time>2026-04-27T16:05:27.001Z</time></trkpt><trkpt lat="42.3958374170168" lon="0.7462184248435131"><ele>832.8</ele><time>2026-04-27T16:05:28.001Z</time></trkpt><trkpt lat="42.39593002994896" lon="0.7461455849722273"><ele>832.2</ele><time>2026-04-27T16:05:29.001Z</time></trkpt><trkpt lat="42.39601902191204" lon="0.7460713745643589"><ele>831.5999999999999</ele><time>2026-04-27T16:05:30.001Z</time></trkpt><trkpt lat="42.396105182035406" lon="0.745987928265725"><ele>831.0</ele><time>2026-04-27T16:05:31.001Z</time></trkpt><trkpt lat="42.39618427886017" lon="0.745903126266033"><ele>831.0</ele><time>2026-04-27T16:05:32.001Z</time></trkpt><trkpt lat="42.39626780011757" lon="0.7458177907869167"><ele>831.0</ele><time>2026-04-27T16:05:33.001Z</time></trkpt><trkpt lat="42.396348735793254" lon="0.74572857157438"><ele>831.0</ele><time>2026-04-27T16:05:34.001Z</time></trkpt><trkpt lat="42.39644739909812" lon="0.7456574237648294"><ele>831.0</ele><time>2026-04-27T16:05:35.001Z</time></trkpt><trkpt lat="42.396531381350414" lon="0.7455688299648062"><ele>831.0</ele><time>2026-04-27T16:05:36.001Z</time></trkpt><trkpt lat="42.396615056206485" lon="0.745479308195761"><ele>831.1999999999999</ele><time>2026-04-27T16:05:37.001Z</time></trkpt><trkpt lat="42.3966961021257" lon="0.745391527902656"><ele>831.4</ele><time>2026-04-27T16:05:37.999Z</time></trkpt><trkpt lat="42.39677956245828" lon="0.745298020371498"><ele>831.6</ele><time>2026-04-27T16:05:38.999Z</time></trkpt><trkpt lat="42.39686592979393" lon="0.7452048283846554"><ele>831.8</ele><time>2026-04-27T16:05:39.999Z</time></trkpt><trkpt lat="42.396953410851424" lon="0.7451112265419607"><ele>832.0</ele><time>2026-04-27T16:05:40.999Z</time></trkpt><trkpt lat="42.3970422361744" lon="0.745023057288122"><ele>832.0</ele><time>2026-04-27T16:05:41.999Z</time></trkpt><trkpt lat="42.397123624335926" lon="0.7449340594081991"><ele>832.0</ele><time>2026-04-27T16:05:43Z</time></trkpt><trkpt lat="42.39720824735087" lon="0.7448487773400093"><ele>832.0</ele><time>2026-04-27T16:05:44Z</time></trkpt><trkpt lat="42.39728241843582" lon="0.7447744025967772"><ele>832.0</ele><time>2026-04-27T16:05:45Z</time></trkpt><trkpt lat="42.39735668669726" lon="0.7446919349491239"><ele>832.0</ele><time>2026-04-27T16:05:46Z</time></trkpt><trkpt lat="42.397436151442" lon="0.7446107587835586"><ele>830.8</ele><time>2026-04-27T16:05:47Z</time></trkpt><trkpt lat="42.397518373013895" lon="0.7445304984057205"><ele>829.6</ele><time>2026-04-27T16:05:48Z</time></trkpt><trkpt lat="42.39759897856013" lon="0.7444445439746372"><ele>828.4</ele><time>2026-04-27T16:05:49Z</time></trkpt><trkpt lat="42.39768097493594" lon="0.7443565792113417"><ele>827.1999999999999</ele><time>2026-04-27T16:05:50Z</time></trkpt><trkpt lat="42.39776485863078" lon="0.7442686810729572"><ele>826.0</ele><time>2026-04-27T16:05:51Z</time></trkpt><trkpt lat="42.39785125796301" lon="0.7441799418075302"><ele>826.0</ele><time>2026-04-27T16:05:52Z</time></trkpt><trkpt lat="42.39793550646774" lon="0.7440922737538609"><ele>826.0</ele><time>2026-04-27T16:05:53Z</time></trkpt><trkpt lat="42.39802438140492" lon="0.7440060473951474"><ele>826.0</ele><time>2026-04-27T16:05:54Z</time></trkpt><trkpt lat="42.39811160963053" lon="0.7439236454307852"><ele>826.0</ele><time>2026-04-27T16:05:55Z</time></trkpt><trkpt lat="42.398205543755346" lon="0.7438405729344192"><ele>826.0</ele><time>2026-04-27T16:05:56Z</time></trkpt><trkpt lat="42.398289522873675" lon="0.7437620369267145"><ele>826.1999999999999</ele><time>2026-04-27T16:05:57Z</time></trkpt><trkpt lat="42.398380699111236" lon="0.7436919600986488"><ele>826.4</ele><time>2026-04-27T16:05:58Z</time></trkpt><trkpt lat="42.398480228559755" lon="0.7436324719033975"><ele>826.6</ele><time>2026-04-27T16:05:59Z</time></trkpt><trkpt lat="42.398576160089874" lon="0.7435808896955319"><ele>826.8</ele><time>2026-04-27T16:06:00Z</time></trkpt><trkpt lat="42.398668968949984" lon="0.7435335849883304"><ele>827.0</ele><time>2026-04-27T16:06:01Z</time></trkpt><trkpt lat="42.398769775008944" lon="0.7435196583199449"><ele>827.2</ele><time>2026-04-27T16:06:02Z</time></trkpt><trkpt lat="42.398874806420814" lon="0.7434814233188916"><ele>827.4000000000001</ele><time>2026-04-27T16:06:03Z</time></trkpt><trkpt lat="42.39897667532037" lon="0.7434459116081147"><ele>827.5999999999999</ele><time>2026-04-27T16:06:04Z</time></trkpt><trkpt lat="42.39908026938851" lon="0.7434091917946316"><ele>827.8</ele><time>2026-04-27T16:06:05Z</time></trkpt><trkpt lat="42.399179291221564" lon="0.7433520956621875"><ele>828.0</ele><time>2026-04-27T16:06:06Z</time></trkpt><trkpt lat="42.39929521379974" lon="0.7433344663360181"><ele>828.0</ele><time>2026-04-27T16:06:07Z</time></trkpt><trkpt lat="42.39939350436049" lon="0.7432919451367531"><ele>828.0</ele><time>2026-04-27T16:06:08Z</time></trkpt><trkpt lat="42.39949730556712" lon="0.7432509772319069"><ele>828.0</ele><time>2026-04-27T16:06:09Z</time></trkpt><trkpt lat="42.39959578187529" lon="0.7432034855549708"><ele>828.0</ele><time>2026-04-27T16:06:10Z</time></trkpt><trkpt lat="42.39969920889591" lon="0.7431612141426763"><ele>828.0</ele><time>2026-04-27T16:06:11Z</time></trkpt><trkpt lat="42.39980160343075" lon="0.7431240188898168"><ele>829.0</ele><time>2026-04-27T16:06:12Z</time></trkpt><trkpt lat="42.39990061921879" lon="0.7430883410846729"><ele>830.0</ele><time>2026-04-27T16:06:13Z</time></trkpt><trkpt lat="42.39999518160319" lon="0.7430520326376937"><ele>831.0</ele><time>2026-04-27T16:06:14Z</time></trkpt><trkpt lat="42.40009361044041" lon="0.743014327247208"><ele>832.0</ele><time>2026-04-27T16:06:15Z</time></trkpt><trkpt lat="42.400190920203755" lon="0.7429796962957119"><ele>833.0</ele><time>2026-04-27T16:06:16Z</time></trkpt><trkpt lat="42.40028210104388" lon="0.7429434832180868"><ele>833.0</ele><time>2026-04-27T16:06:17Z</time></trkpt><trkpt lat="42.40037188773098" lon="0.7429097770675511"><ele>833.0</ele><time>2026-04-27T16:06:18Z</time></trkpt><trkpt lat="42.40046809882917" lon="0.742878732957599"><ele>833.0</ele><time>2026-04-27T16:06:19Z</time></trkpt><trkpt lat="42.40055590374214" lon="0.7428451101087414"><ele>833.0</ele><time>2026-04-27T16:06:20Z</time></trkpt><trkpt lat="42.40064918448744" lon="0.7428109767993923"><ele>833.0</ele><time>2026-04-27T16:06:21Z</time></trkpt><trkpt lat="42.40073191200063" lon="0.7427757401416786"><ele>832.8333333333334</ele><time>2026-04-27T16:06:22Z</time></trkpt><trkpt lat="42.400815793525084" lon="0.7427361748863851"><ele>832.6666666666667</ele><time>2026-04-27T16:06:23Z</time></trkpt><trkpt lat="42.400903025958975" lon="0.7427008600257564"><ele>832.5</ele><time>2026-04-27T16:06:24Z</time></trkpt><trkpt lat="42.40098613311743" lon="0.7426648337548943"><ele>832.3333333333333</ele><time>2026-04-27T16:06:25Z</time></trkpt><trkpt lat="42.40107008710412" lon="0.7426222034074457"><ele>832.1666666666666</ele><time>2026-04-27T16:06:26Z</time></trkpt><trkpt lat="42.401143825672555" lon="0.7425499119587297"><ele>832.0</ele><time>2026-04-27T16:06:27Z</time></trkpt><trkpt lat="42.401219226440354" lon="0.7425422841373166"><ele>833.6</ele><time>2026-04-27T16:06:28Z</time></trkpt><trkpt lat="42.401337913079985" lon="0.7424769454447016"><ele>835.2</ele><time>2026-04-27T16:06:30Z</time></trkpt><trkpt lat="42.401432009647706" lon="0.7424327931347047"><ele>836.8</ele><time>2026-04-27T16:06:32Z</time></trkpt><trkpt lat="42.40151520027773" lon="0.7423770591595592"><ele>838.4</ele><time>2026-04-27T16:07:40.001Z</time></trkpt><trkpt lat="42.40161754729248" lon="0.7423756606107705"><ele>840.0</ele><time>2026-04-27T16:07:42.001Z</time></trkpt><trkpt lat="42.401740550745565" lon="0.742358970580305"><ele>840.0</ele><time>2026-04-27T16:07:43.999Z</time></trkpt><trkpt lat="42.401807355155995" lon="0.7423494741193319"><ele>840.0</ele><time>2026-04-27T16:07:44.999Z</time></trkpt><trkpt lat="42.401875281186626" lon="0.7423446373085775"><ele>840.0</ele><time>2026-04-27T16:07:45.999Z</time></trkpt><trkpt lat="42.40194350011853" lon="0.7423405331256027"><ele>840.0</ele><time>2026-04-27T16:07:47Z</time></trkpt><trkpt lat="42.4020145916616" lon="0.7423319132403325"><ele>840.0</ele><time>2026-04-27T16:07:48Z</time></trkpt><trkpt lat="42.40208789637312" lon="0.742325133090726"><ele>840.0</ele><time>2026-04-27T16:07:49Z</time></trkpt><trkpt lat="42.40216426021238" lon="0.7423187961117712"><ele>840.0</ele><time>2026-04-27T16:07:50Z</time></trkpt><trkpt lat="42.40223943240068" lon="0.7423112502922691"><ele>840.5</ele><time>2026-04-27T16:07:51Z</time></trkpt><trkpt lat="42.40231451284877" lon="0.7423032749844487"><ele>841.0</ele><time>2026-04-27T16:07:52Z</time></trkpt><trkpt lat="42.40239081915605" lon="0.7422937050767229"><ele>841.5</ele><time>2026-04-27T16:07:53Z</time></trkpt><trkpt lat="42.402468017459825" lon="0.7422833123613635"><ele>842.0</ele><time>2026-04-27T16:07:54Z</time></trkpt><trkpt lat="42.40254651958595" lon="0.7422745797676623"><ele>842.5</ele><time>2026-04-27T16:07:55Z</time></trkpt><trkpt lat="42.40262623047098" lon="0.7422683034070571"><ele>843.0</ele><time>2026-04-27T16:07:56Z</time></trkpt><trkpt lat="42.40270902739295" lon="0.7422568728741264"><ele>843.0</ele><time>2026-04-27T16:07:57Z</time></trkpt><trkpt lat="42.40279343550284" lon="0.742244416428945"><ele>843.0</ele><time>2026-04-27T16:07:58Z</time></trkpt><trkpt lat="42.40287969090308" lon="0.7422337017042346"><ele>843.0</ele><time>2026-04-27T16:07:59Z</time></trkpt><trkpt lat="42.402966184170175" lon="0.7422216155545344"><ele>843.0</ele><time>2026-04-27T16:08:00Z</time></trkpt><trkpt lat="42.40305618636151" lon="0.7422119331197363"><ele>843.0</ele><time>2026-04-27T16:08:01Z</time></trkpt><trkpt lat="42.403146625096156" lon="0.7422243696377993"><ele>843.0</ele><time>2026-04-27T16:08:02Z</time></trkpt><trkpt lat="42.403238828525" lon="0.7422154260765753"><ele>844.0</ele><time>2026-04-27T16:08:03Z</time></trkpt><trkpt lat="42.403332646338704" lon="0.7422039355344993"><ele>845.0</ele><time>2026-04-27T16:08:04Z</time></trkpt><trkpt lat="42.40342638869667" lon="0.7421707615851617"><ele>846.0</ele><time>2026-04-27T16:08:05Z</time></trkpt><trkpt lat="42.40351690601345" lon="0.7421624789926186"><ele>847.0</ele><time>2026-04-27T16:08:06Z</time></trkpt><trkpt lat="42.40360428914465" lon="0.7421556935943368"><ele>848.0</ele><time>2026-04-27T16:08:07Z</time></trkpt><trkpt lat="42.403685420140285" lon="0.7421504343437765"><ele>848.0000000000001</ele><time>2026-04-27T16:08:08Z</time></trkpt><trkpt lat="42.40376149546561" lon="0.7421470249271576"><ele>848.0</ele><time>2026-04-27T16:08:09Z</time></trkpt><trkpt lat="42.4038287191579" lon="0.742159426838943"><ele>848.0</ele><time>2026-04-27T16:08:10Z</time></trkpt><trkpt lat="42.40393358606352" lon="0.7422384230644731"><ele>848.0</ele><time>2026-04-27T16:08:12Z</time></trkpt><trkpt lat="42.40400399833312" lon="0.7423458567866869"><ele>848.0000000000001</ele><time>2026-04-27T16:08:14Z</time></trkpt><trkpt lat="42.40407417933171" lon="0.7423328053938951"><ele>848.0</ele><time>2026-04-27T16:08:15Z</time></trkpt><trkpt lat="42.40417283859775" lon="0.7423751142488456"><ele>847.1666666666667</ele><time>2026-04-27T16:08:17Z</time></trkpt><trkpt lat="42.40424746722394" lon="0.7424119854647107"><ele>846.3333333333334</ele><time>2026-04-27T16:08:19Z</time></trkpt><trkpt lat="42.40430337570731" lon="0.7424569194381192"><ele>845.5</ele><time>2026-04-27T16:08:22Z</time></trkpt><trkpt lat="42.40437728807301" lon="0.7424446872977001"><ele>844.6666666666667</ele><time>2026-04-27T16:08:56Z</time></trkpt><trkpt lat="42.4044474764128" lon="0.742430517654314"><ele>843.8333333333334</ele><time>2026-04-27T16:08:58Z</time></trkpt><trkpt lat="42.4045300716544" lon="0.742390599599526"><ele>843.0</ele><time>2026-04-27T16:09:00Z</time></trkpt><trkpt lat="42.404632342713775" lon="0.7423712948151292"><ele>843.5714285714286</ele><time>2026-04-27T16:09:02Z</time></trkpt><trkpt lat="42.40469284442581" lon="0.7424143643171407"><ele>844.1428571428571</ele><time>2026-04-27T16:09:03Z</time></trkpt><trkpt lat="42.40476192585517" lon="0.7424241148494896"><ele>844.7142857142858</ele><time>2026-04-27T16:09:04.001Z</time></trkpt><trkpt lat="42.404834727453625" lon="0.7424285042198114"><ele>845.2857142857142</ele><time>2026-04-27T16:09:05.001Z</time></trkpt><trkpt lat="42.404909578962034" lon="0.7424267715151754"><ele>845.8571428571429</ele><time>2026-04-27T16:09:06.001Z</time></trkpt><trkpt lat="42.40498503991702" lon="0.7424091104211454"><ele>846.4285714285714</ele><time>2026-04-27T16:09:07.001Z</time></trkpt><trkpt lat="42.40506260798254" lon="0.7423930637304089"><ele>847.0</ele><time>2026-04-27T16:09:08.001Z</time></trkpt><trkpt lat="42.40513986836823" lon="0.7423530624701675"><ele>846.9999999999999</ele><time>2026-04-27T16:09:09.001Z</time></trkpt><trkpt lat="42.40522165057295" lon="0.7423361707038139"><ele>847.0</ele><time>2026-04-27T16:09:10.001Z</time></trkpt><trkpt lat="42.40530357544033" lon="0.7423169559630973"><ele>847.0</ele><time>2026-04-27T16:09:11.001Z</time></trkpt><trkpt lat="42.40538592129959" lon="0.7422950187637524"><ele>847.0</ele><time>2026-04-27T16:09:12.001Z</time></trkpt><trkpt lat="42.40547130750313" lon="0.742278107693765"><ele>846.9999999999999</ele><time>2026-04-27T16:09:13.001Z</time></trkpt><trkpt lat="42.40555654130716" lon="0.7422580888995667"><ele>847.0</ele><time>2026-04-27T16:09:14.001Z</time></trkpt><trkpt lat="42.40564134047614" lon="0.7422348153243881"><ele>848.1666666666666</ele><time>2026-04-27T16:09:15.001Z</time></trkpt><trkpt lat="42.405725673047385" lon="0.7422132177102936"><ele>849.3333333333333</ele><time>2026-04-27T16:09:16.001Z</time></trkpt><trkpt lat="42.40580970344733" lon="0.7421930253271487"><ele>850.5</ele><time>2026-04-27T16:09:17.001Z</time></trkpt><trkpt lat="42.405894558223466" lon="0.742182410712156"><ele>851.6666666666667</ele><time>2026-04-27T16:09:18.001Z</time></trkpt><trkpt lat="42.4059814862585" lon="0.7421885674935347"><ele>852.8333333333334</ele><time>2026-04-27T16:09:19.001Z</time></trkpt><trkpt lat="42.40606590321862" lon="0.742211128608815"><ele>854.0</ele><time>2026-04-27T16:09:20.001Z</time></trkpt><trkpt lat="42.40614314598248" lon="0.742265830727768"><ele>854.0</ele><time>2026-04-27T16:09:21.001Z</time></trkpt><trkpt lat="42.40622660007768" lon="0.7422998208136439"><ele>854.0000000000001</ele><time>2026-04-27T16:09:22.001Z</time></trkpt><trkpt lat="42.406315529196945" lon="0.7423133714738446"><ele>854.0000000000001</ele><time>2026-04-27T16:09:23.001Z</time></trkpt><trkpt lat="42.40639645296273" lon="0.7423770748825783"><ele>854.0</ele><time>2026-04-27T16:09:24.001Z</time></trkpt><trkpt lat="42.4064830433014" lon="0.7424176143169176"><ele>854.0</ele><time>2026-04-27T16:09:25.001Z</time></trkpt><trkpt lat="42.40657120144798" lon="0.7424588873821589"><ele>853.6</ele><time>2026-04-27T16:09:26.001Z</time></trkpt><trkpt lat="42.40665889282048" lon="0.7424997965851746"><ele>853.2</ele><time>2026-04-27T16:09:27.001Z</time></trkpt><trkpt lat="42.406747377324564" lon="0.7425409683876129"><ele>852.8000000000001</ele><time>2026-04-27T16:09:28.001Z</time></trkpt><trkpt lat="42.4068360393241" lon="0.7425822237433456"><ele>852.4000000000001</ele><time>2026-04-27T16:09:29.001Z</time></trkpt><trkpt lat="42.406926667195336" lon="0.742620623430862"><ele>852.0</ele><time>2026-04-27T16:09:30.001Z</time></trkpt><trkpt lat="42.40701763221744" lon="0.7426591619839883"><ele>852.0</ele><time>2026-04-27T16:09:31.001Z</time></trkpt><trkpt lat="42.40710786498122" lon="0.7426957176287887"><ele>852.0</ele><time>2026-04-27T16:09:32.001Z</time></trkpt><trkpt lat="42.407189719173175" lon="0.7427253888765797"><ele>852.0</ele><time>2026-04-27T16:09:33.001Z</time></trkpt><trkpt lat="42.40727164263414" lon="0.7427407575731941"><ele>852.0</ele><time>2026-04-27T16:09:34.001Z</time></trkpt><trkpt lat="42.40734679367287" lon="0.7427502898126036"><ele>852.0</ele><time>2026-04-27T16:09:35.001Z</time></trkpt><trkpt lat="42.40742690665816" lon="0.7427445664945508"><ele>852.0</ele><time>2026-04-27T16:09:36.001Z</time></trkpt><trkpt lat="42.40750877157731" lon="0.7427166057633683"><ele>851.8</ele><time>2026-04-27T16:09:37.001Z</time></trkpt><trkpt lat="42.40758795033708" lon="0.7426548326722505"><ele>851.6</ele><time>2026-04-27T16:09:38.001Z</time></trkpt><trkpt lat="42.40765861767508" lon="0.7425812169687016"><ele>851.4</ele><time>2026-04-27T16:09:39.001Z</time></trkpt><trkpt lat="42.40772332808411" lon="0.7424977888645167"><ele>851.1999999999999</ele><time>2026-04-27T16:09:40.001Z</time></trkpt><trkpt lat="42.407798031917686" lon="0.7424288431461159"><ele>851.0</ele><time>2026-04-27T16:09:41.001Z</time></trkpt><trkpt lat="42.407872218287594" lon="0.7423587861111437"><ele>851.0000000000001</ele><time>2026-04-27T16:09:42.001Z</time></trkpt><trkpt lat="42.40794409660382" lon="0.7422908132818883"><ele>851.0</ele><time>2026-04-27T16:09:43.001Z</time></trkpt><trkpt lat="42.40801326891334" lon="0.7422219651717172"><ele>851.0</ele><time>2026-04-27T16:09:44.001Z</time></trkpt><trkpt lat="42.40808189183986" lon="0.7421531869398706"><ele>851.0</ele><time>2026-04-27T16:09:45.001Z</time></trkpt><trkpt lat="42.408149622899856" lon="0.742084927346936"><ele>851.0000000000001</ele><time>2026-04-27T16:09:46.001Z</time></trkpt><trkpt lat="42.40822892304703" lon="0.7420343009665987"><ele>851.0</ele><time>2026-04-27T16:09:47.001Z</time></trkpt><trkpt lat="42.4082956998602" lon="0.7419690006280558"><ele>851.6666666666667</ele><time>2026-04-27T16:09:48.001Z</time></trkpt><trkpt lat="42.408361010620304" lon="0.7419051249550216"><ele>852.3333333333334</ele><time>2026-04-27T16:09:49.001Z</time></trkpt><trkpt lat="42.40842437507602" lon="0.7418431528029863"><ele>853.0</ele><time>2026-04-27T16:09:50Z</time></trkpt><trkpt lat="42.40848801014344" lon="0.7417809172418023"><ele>853.6666666666667</ele><time>2026-04-27T16:09:51Z</time></trkpt><trkpt lat="42.408553327407965" lon="0.7417182818603985"><ele>854.3333333333334</ele><time>2026-04-27T16:09:52Z</time></trkpt><trkpt lat="42.408622132235635" lon="0.7416512182620265"><ele>855.0</ele><time>2026-04-27T16:09:53Z</time></trkpt><trkpt lat="42.40869232168282" lon="0.7415828050816"><ele>855.4</ele><time>2026-04-27T16:09:54Z</time></trkpt><trkpt lat="42.408763003987445" lon="0.7415139115803003"><ele>855.8</ele><time>2026-04-27T16:09:55Z</time></trkpt><trkpt lat="42.40883611346808" lon="0.7414426522347697"><ele>856.2</ele><time>2026-04-27T16:09:56Z</time></trkpt><trkpt lat="42.4089101852047" lon="0.7413704550288489"><ele>856.6</ele><time>2026-04-27T16:09:57Z</time></trkpt><trkpt lat="42.40898524410805" lon="0.7412972968826189"><ele>857.0</ele><time>2026-04-27T16:09:58Z</time></trkpt><trkpt lat="42.409061002612155" lon="0.74122423059346"><ele>857.0</ele><time>2026-04-27T16:09:59Z</time></trkpt><trkpt lat="42.40913683491833" lon="0.7411514464409437"><ele>857.0</ele><time>2026-04-27T16:10:00Z</time></trkpt><trkpt lat="42.40921168248754" lon="0.7410796074549009"><ele>857.0</ele><time>2026-04-27T16:10:01Z</time></trkpt><trkpt lat="42.40928595933123" lon="0.7410083174597951"><ele>857.0</ele><time>2026-04-27T16:10:02Z</time></trkpt><trkpt lat="42.40935919159375" lon="0.7409372220803475"><ele>857.0</ele><time>2026-04-27T16:10:03Z</time></trkpt><trkpt lat="42.409431466046854" lon="0.740867360701894"><ele>857.0000000000001</ele><time>2026-04-27T16:10:04Z</time></trkpt><trkpt lat="42.4095023637756" lon="0.7407996785011794"><ele>857.0</ele><time>2026-04-27T16:10:05Z</time></trkpt><trkpt lat="42.40957532200417" lon="0.740733014085091"><ele>857.0</ele><time>2026-04-27T16:10:06Z</time></trkpt><trkpt lat="42.40965026105638" lon="0.7406749568454629"><ele>857.0</ele><time>2026-04-27T16:10:07Z</time></trkpt><trkpt lat="42.40972231691346" lon="0.7406025770916799"><ele>857.0000000000001</ele><time>2026-04-27T16:10:08Z</time></trkpt><trkpt lat="42.40980649316028" lon="0.7405599618659368"><ele>857.0</ele><time>2026-04-27T16:10:09Z</time></trkpt><trkpt lat="42.4098960315877" lon="0.7405257994823058"><ele>857.4000000000001</ele><time>2026-04-27T16:10:10Z</time></trkpt><trkpt lat="42.40998899101375" lon="0.7404997324496191"><ele>857.8000000000001</ele><time>2026-04-27T16:10:11Z</time></trkpt><trkpt lat="42.410080291509274" lon="0.7404767394740522"><ele>858.2</ele><time>2026-04-27T16:10:12Z</time></trkpt><trkpt lat="42.41017391826391" lon="0.7404540594936014"><ele>858.6</ele><time>2026-04-27T16:10:13Z</time></trkpt><trkpt lat="42.41026926889788" lon="0.7404350855488772"><ele>859.0</ele><time>2026-04-27T16:10:14Z</time></trkpt><trkpt lat="42.41036355972261" lon="0.740417759651182"><ele>859.0</ele><time>2026-04-27T16:10:15Z</time></trkpt><trkpt lat="42.41045920224845" lon="0.7404022712459095"><ele>859.0000000000001</ele><time>2026-04-27T16:10:16Z</time></trkpt><trkpt lat="42.41055923237413" lon="0.7403908791070191"><ele>859.0000000000001</ele><time>2026-04-27T16:10:17Z</time></trkpt><trkpt lat="42.41065595559334" lon="0.7403739193373865"><ele>859.0</ele><time>2026-04-27T16:10:18Z</time></trkpt><trkpt lat="42.4107543391927" lon="0.7403588462268376"><ele>859.0</ele><time>2026-04-27T16:10:19Z</time></trkpt><trkpt lat="42.410847464763435" lon="0.7403477111539796"><ele>859.8333333333333</ele><time>2026-04-27T16:10:20Z</time></trkpt><trkpt lat="42.410938754029225" lon="0.7403575516186899"><ele>860.6666666666666</ele><time>2026-04-27T16:10:21Z</time></trkpt><trkpt lat="42.41101916406038" lon="0.7403207505106915"><ele>861.5</ele><time>2026-04-27T16:10:22Z</time></trkpt><trkpt lat="42.41110033300954" lon="0.7403066993678613"><ele>862.3333333333333</ele><time>2026-04-27T16:10:23Z</time></trkpt><trkpt lat="42.41117900822029" lon="0.7402920958224019"><ele>863.1666666666666</ele><time>2026-04-27T16:10:24Z</time></trkpt><trkpt lat="42.41125843863123" lon="0.7402783205701278"><ele>864.0</ele><time>2026-04-27T16:10:25Z</time></trkpt><trkpt lat="42.41133781705112" lon="0.7402614658356582"><ele>863.3333333333334</ele><time>2026-04-27T16:10:26Z</time></trkpt><trkpt lat="42.41141943879237" lon="0.7402443826488557"><ele>862.6666666666667</ele><time>2026-04-27T16:10:27Z</time></trkpt><trkpt lat="42.411501012054075" lon="0.7402533062212995"><ele>862.0</ele><time>2026-04-27T16:10:28Z</time></trkpt><trkpt lat="42.41158141191997" lon="0.7402162349695967"><ele>861.3333333333334</ele><time>2026-04-27T16:10:29Z</time></trkpt><trkpt lat="42.41166834295906" lon="0.7402213724879095"><ele>860.6666666666667</ele><time>2026-04-27T16:10:30Z</time></trkpt><trkpt lat="42.41175297562351" lon="0.7401822776952377"><ele>860.0</ele><time>2026-04-27T16:10:31Z</time></trkpt><trkpt lat="42.41184026978314" lon="0.7401679431879531"><ele>860.0</ele><time>2026-04-27T16:10:32Z</time></trkpt><trkpt lat="42.411928708839596" lon="0.7401543765326631"><ele>860.0</ele><time>2026-04-27T16:10:33Z</time></trkpt><trkpt lat="42.412017581065186" lon="0.7401343040424329"><ele>860.0</ele><time>2026-04-27T16:10:34Z</time></trkpt><trkpt lat="42.412110476402454" lon="0.7401124312681541"><ele>860.0</ele><time>2026-04-27T16:10:35Z</time></trkpt><trkpt lat="42.412204800822195" lon="0.740095695384816"><ele>860.0</ele><time>2026-04-27T16:10:36Z</time></trkpt><trkpt lat="42.4123036633014" lon="0.7400948352983594"><ele>861.2</ele><time>2026-04-27T16:10:37Z</time></trkpt><trkpt lat="42.41240151129496" lon="0.7400740417111693"><ele>862.4</ele><time>2026-04-27T16:10:38Z</time></trkpt><trkpt lat="42.41249594586104" lon="0.740048590481171"><ele>863.5999999999999</ele><time>2026-04-27T16:10:39Z</time></trkpt><trkpt lat="42.41258674488477" lon="0.7400151073713926"><ele>864.8</ele><time>2026-04-27T16:10:40Z</time></trkpt><trkpt lat="42.41268228185486" lon="0.7399696388088318"><ele>866.0</ele><time>2026-04-27T16:10:41Z</time></trkpt><trkpt lat="42.412772473120114" lon="0.7399028298051151"><ele>866.0</ele><time>2026-04-27T16:10:42Z</time></trkpt><trkpt lat="42.412852140080766" lon="0.7398143859982366"><ele>865.9999999999999</ele><time>2026-04-27T16:10:43Z</time></trkpt><trkpt lat="42.41290652244895" lon="0.7396914703002575"><ele>865.9999999999999</ele><time>2026-04-27T16:10:44Z</time></trkpt><trkpt lat="42.412950000785116" lon="0.7395719289603757"><ele>866.0</ele><time>2026-04-27T16:10:45Z</time></trkpt><trkpt lat="42.412984796543114" lon="0.7394484739297114"><ele>866.0</ele><time>2026-04-27T16:10:46Z</time></trkpt><trkpt lat="42.41300438931375" lon="0.7393175392679598"><ele>866.8</ele><time>2026-04-27T16:10:47Z</time></trkpt><trkpt lat="42.41301425525272" lon="0.7391842600928827"><ele>867.5999999999999</ele><time>2026-04-27T16:10:48Z</time></trkpt><trkpt lat="42.41302181818547" lon="0.7390508419804629"><ele>868.4</ele><time>2026-04-27T16:10:49Z</time></trkpt><trkpt lat="42.4130434876491" lon="0.7389228946002838"><ele>869.2</ele><time>2026-04-27T16:10:50Z</time></trkpt><trkpt lat="42.41307622544197" lon="0.7387998833566318"><ele>870.0</ele><time>2026-04-27T16:10:51Z</time></trkpt><trkpt lat="42.41312142514195" lon="0.7386831369519443"><ele>870.0</ele><time>2026-04-27T16:10:52Z</time></trkpt><trkpt lat="42.41317709742488" lon="0.7385733699128713"><ele>870.0</ele><time>2026-04-27T16:10:53Z</time></trkpt><trkpt lat="42.41324183480962" lon="0.738478617660233"><ele>870.0</ele><time>2026-04-27T16:10:54Z</time></trkpt><trkpt lat="42.413314241461336" lon="0.7383898761337658"><ele>870.0</ele><time>2026-04-27T16:10:55Z</time></trkpt><trkpt lat="42.413387805461696" lon="0.7383029227794556"><ele>870.0</ele><time>2026-04-27T16:10:56.001Z</time></trkpt><trkpt lat="42.41346271016994" lon="0.7382217098894613"><ele>870.8</ele><time>2026-04-27T16:10:57.001Z</time></trkpt><trkpt lat="42.413541959632795" lon="0.7381434909091072"><ele>871.6</ele><time>2026-04-27T16:10:58.001Z</time></trkpt><trkpt lat="42.413623092099506" lon="0.7380665901825033"><ele>872.4000000000001</ele><time>2026-04-27T16:10:59.001Z</time></trkpt><trkpt lat="42.413706022686746" lon="0.7379926893145773"><ele>873.2</ele><time>2026-04-27T16:11:00.001Z</time></trkpt><trkpt lat="42.413793250905606" lon="0.7379284601841053"><ele>874.0</ele><time>2026-04-27T16:11:01.001Z</time></trkpt><trkpt lat="42.413884557080856" lon="0.7378737009190139"><ele>874.0</ele><time>2026-04-27T16:11:02.001Z</time></trkpt><trkpt lat="42.41397874303301" lon="0.7378288878539425"><ele>874.0000000000001</ele><time>2026-04-27T16:11:03.001Z</time></trkpt><trkpt lat="42.41407578124223" lon="0.7377858123810584"><ele>874.0000000000001</ele><time>2026-04-27T16:11:04.001Z</time></trkpt><trkpt lat="42.41417413985187" lon="0.7377484125258237"><ele>874.0</ele><time>2026-04-27T16:11:05.001Z</time></trkpt><trkpt lat="42.414270228420364" lon="0.7377121278167653"><ele>874.0</ele><time>2026-04-27T16:11:06.001Z</time></trkpt><trkpt lat="42.414367473158904" lon="0.7376810944496915"><ele>873.2</ele><time>2026-04-27T16:11:07.001Z</time></trkpt><trkpt lat="42.4144658660621" lon="0.7376549858291754"><ele>872.4000000000001</ele><time>2026-04-27T16:11:08.001Z</time></trkpt><trkpt lat="42.414569073359736" lon="0.7376609168720065"><ele>871.6</ele><time>2026-04-27T16:11:09.001Z</time></trkpt><trkpt lat="42.41466572361961" lon="0.7376028830719864"><ele>870.8</ele><time>2026-04-27T16:11:10.001Z</time></trkpt><trkpt lat="42.41476184605226" lon="0.7375684604354057"><ele>870.0</ele><time>2026-04-27T16:11:11.001Z</time></trkpt><trkpt lat="42.41485696185655" lon="0.7375256450465351"><ele>870.0</ele><time>2026-04-27T16:11:12.001Z</time></trkpt><trkpt lat="42.41494555902893" lon="0.737468546912457"><ele>870.0</ele><time>2026-04-27T16:11:13.001Z</time></trkpt><trkpt lat="42.415039394006826" lon="0.737410414842431"><ele>870.0</ele><time>2026-04-27T16:11:14.001Z</time></trkpt><trkpt lat="42.41513067360661" lon="0.7373478743977012"><ele>870.0</ele><time>2026-04-27T16:11:15.001Z</time></trkpt><trkpt lat="42.41522189699326" lon="0.7372797462324374"><ele>870.0</ele><time>2026-04-27T16:11:16.001Z</time></trkpt><trkpt lat="42.41531300350571" lon="0.7372122385927999"><ele>870.0</ele><time>2026-04-27T16:11:17.001Z</time></trkpt><trkpt lat="42.41540493516582" lon="0.7371425674243374"><ele>870.0</ele><time>2026-04-27T16:11:18.001Z</time></trkpt><trkpt lat="42.415497371737246" lon="0.7370712256815211"><ele>870.0</ele><time>2026-04-27T16:11:19.001Z</time></trkpt><trkpt lat="42.415588432871466" lon="0.7370026979057404"><ele>870.0</ele><time>2026-04-27T16:11:20.001Z</time></trkpt><trkpt lat="42.41568210481476" lon="0.7369364074787692"><ele>870.0</ele><time>2026-04-27T16:11:21.001Z</time></trkpt><trkpt lat="42.41577348595012" lon="0.7368647080384845"><ele>867.6</ele><time>2026-04-27T16:11:22.001Z</time></trkpt><trkpt lat="42.41586558691166" lon="0.7367901256060179"><ele>865.2</ele><time>2026-04-27T16:11:23.001Z</time></trkpt><trkpt lat="42.4159606803315" lon="0.7367225830535867"><ele>862.8</ele><time>2026-04-27T16:11:24.001Z</time></trkpt><trkpt lat="42.416055794138295" lon="0.7366525180111305"><ele>860.4</ele><time>2026-04-27T16:11:25.001Z</time></trkpt><trkpt lat="42.41615441276255" lon="0.7365896621866728"><ele>858.0</ele><time>2026-04-27T16:11:26.001Z</time></trkpt><trkpt lat="42.416252797644844" lon="0.7365250756651546"><ele>862.0</ele><time>2026-04-27T16:11:27.001Z</time></trkpt><trkpt lat="42.416351409299686" lon="0.7364595363451766"><ele>866.0</ele><time>2026-04-27T16:11:28.001Z</time></trkpt><trkpt lat="42.41645143641724" lon="0.736400999157561"><ele>870.0</ele><time>2026-04-27T16:11:29.001Z</time></trkpt><trkpt lat="42.41655028343674" lon="0.7363407481215342"><ele>874.0</ele><time>2026-04-27T16:11:30.001Z</time></trkpt><trkpt lat="42.41664829485555" lon="0.7362777508345171"><ele>878.0</ele><time>2026-04-27T16:11:31.001Z</time></trkpt><trkpt lat="42.416747010065535" lon="0.7362192653130686"><ele>878.0</ele><time>2026-04-27T16:11:32.001Z</time></trkpt><trkpt lat="42.416846394331436" lon="0.7361600590447313"><ele>878.0</ele><time>2026-04-27T16:11:33.001Z</time></trkpt><trkpt lat="42.416945359656594" lon="0.7360995642075472"><ele>878.0</ele><time>2026-04-27T16:11:34.001Z</time></trkpt><trkpt lat="42.41704617917851" lon="0.73604041376033"><ele>878.0</ele><time>2026-04-27T16:11:35.001Z</time></trkpt><trkpt lat="42.41714778590696" lon="0.7359779483565486"><ele>878.0</ele><time>2026-04-27T16:11:36.001Z</time></trkpt><trkpt lat="42.41724708685188" lon="0.7359137264890263"><ele>875.5999999999999</ele><time>2026-04-27T16:11:37.001Z</time></trkpt><trkpt lat="42.41735076125276" lon="0.7358739069835152"><ele>873.1999999999999</ele><time>2026-04-27T16:11:38.001Z</time></trkpt><trkpt lat="42.41744927254156" lon="0.7358128763962171"><ele>870.8</ele><time>2026-04-27T16:11:39.001Z</time></trkpt><trkpt lat="42.41754715480356" lon="0.7357502707467538"><ele>868.4</ele><time>2026-04-27T16:11:40.001Z</time></trkpt><trkpt lat="42.417643178980846" lon="0.7356765226306393"><ele>866.0</ele><time>2026-04-27T16:11:41.001Z</time></trkpt><trkpt lat="42.41774809490916" lon="0.7356322476371236"><ele>866.0</ele><time>2026-04-27T16:11:42.001Z</time></trkpt><trkpt lat="42.417857244716586" lon="0.7356088852559011"><ele>865.9999999999999</ele><time>2026-04-27T16:11:43.001Z</time></trkpt><trkpt lat="42.41796790173904" lon="0.73559692426069"><ele>865.9999999999999</ele><time>2026-04-27T16:11:44.001Z</time></trkpt><trkpt lat="42.41807893792263" lon="0.7356068742183267"><ele>866.0</ele><time>2026-04-27T16:11:45.001Z</time></trkpt><trkpt lat="42.41818572636241" lon="0.7356427595425684"><ele>866.0</ele><time>2026-04-27T16:11:46.001Z</time></trkpt><trkpt lat="42.41829734012056" lon="0.7356461447391467"><ele>865.8</ele><time>2026-04-27T16:11:47.001Z</time></trkpt><trkpt lat="42.41840511171435" lon="0.7356901627404778"><ele>865.5999999999999</ele><time>2026-04-27T16:11:48.001Z</time></trkpt><trkpt lat="42.418512613574606" lon="0.7357103834627816"><ele>865.4</ele><time>2026-04-27T16:11:49.001Z</time></trkpt><trkpt lat="42.4186245399515" lon="0.7357201741045076"><ele>865.2</ele><time>2026-04-27T16:11:50.001Z</time></trkpt><trkpt lat="42.41873372183099" lon="0.7357122915833932"><ele>865.0</ele><time>2026-04-27T16:11:51.001Z</time></trkpt><trkpt lat="42.41884279285767" lon="0.735686209717536"><ele>862.6</ele><time>2026-04-27T16:11:52.001Z</time></trkpt><trkpt lat="42.418949604871706" lon="0.7356378227121496"><ele>860.2</ele><time>2026-04-27T16:11:53.001Z</time></trkpt><trkpt lat="42.41905004740523" lon="0.7355746515530696"><ele>857.8</ele><time>2026-04-27T16:11:54.001Z</time></trkpt><trkpt lat="42.419152088077205" lon="0.7355262165749848"><ele>855.4</ele><time>2026-04-27T16:11:55.001Z</time></trkpt><trkpt lat="42.4192584507267" lon="0.7354794691065824"><ele>853.0</ele><time>2026-04-27T16:11:56Z</time></trkpt><trkpt lat="42.41936438096648" lon="0.7354374028019359"><ele>853.0</ele><time>2026-04-27T16:11:57Z</time></trkpt><trkpt lat="42.41946872859292" lon="0.7353899642064107"><ele>853.0</ele><time>2026-04-27T16:11:58Z</time></trkpt><trkpt lat="42.41957453087158" lon="0.7353423814234573"><ele>853.0</ele><time>2026-04-27T16:11:59Z</time></trkpt><trkpt lat="42.41967977348739" lon="0.7352954512813812"><ele>853.0</ele><time>2026-04-27T16:12:00Z</time></trkpt><trkpt lat="42.419784144960964" lon="0.7352457509164078"><ele>853.0</ele><time>2026-04-27T16:12:01Z</time></trkpt><trkpt lat="42.419887990713086" lon="0.7351952200889078"><ele>852.8</ele><time>2026-04-27T16:12:02Z</time></trkpt><trkpt lat="42.41999036868201" lon="0.735146735568157"><ele>852.5999999999999</ele><time>2026-04-27T16:12:03Z</time></trkpt><trkpt lat="42.4200971573258" lon="0.7351162070153113"><ele>852.4000000000001</ele><time>2026-04-27T16:12:04Z</time></trkpt><trkpt lat="42.420197794553914" lon="0.7350652491221166"><ele>852.2</ele><time>2026-04-27T16:12:05Z</time></trkpt><trkpt lat="42.42029562237431" lon="0.7350167825181605"><ele>852.0</ele><time>2026-04-27T16:12:06Z</time></trkpt><trkpt lat="42.42039025745659" lon="0.734949033151167"><ele>852.6</ele><time>2026-04-27T16:12:07Z</time></trkpt><trkpt lat="42.420489741856834" lon="0.7349070901921025"><ele>853.2</ele><time>2026-04-27T16:12:08Z</time></trkpt><trkpt lat="42.42058840862213" lon="0.7348598439592328"><ele>853.8</ele><time>2026-04-27T16:12:09Z</time></trkpt><trkpt lat="42.42068532741351" lon="0.7348089178779217"><ele>854.4</ele><time>2026-04-27T16:12:10Z</time></trkpt><trkpt lat="42.42078150781021" lon="0.7347573250987653"><ele>855.0</ele><time>2026-04-27T16:12:11Z</time></trkpt><trkpt lat="42.420878906819894" lon="0.734706454772266"><ele>855.0</ele><time>2026-04-27T16:12:12Z</time></trkpt><trkpt lat="42.4209769707489" lon="0.7346539705521634"><ele>855.0</ele><time>2026-04-27T16:12:13Z</time></trkpt><trkpt lat="42.42107442891647" lon="0.7346007359242654"><ele>855.0</ele><time>2026-04-27T16:12:14Z</time></trkpt><trkpt lat="42.42117295517558" lon="0.7345485397553058"><ele>855.0</ele><time>2026-04-27T16:12:15Z</time></trkpt><trkpt lat="42.421271042815114" lon="0.7344937158243899"><ele>855.0</ele><time>2026-04-27T16:12:16Z</time></trkpt><trkpt lat="42.4213704909006" lon="0.7344363543155298"><ele>855.6</ele><time>2026-04-27T16:12:17Z</time></trkpt><trkpt lat="42.4214686206363" lon="0.7343799449653652"><ele>856.2</ele><time>2026-04-27T16:12:18Z</time></trkpt><trkpt lat="42.421568029206604" lon="0.7343242583391068"><ele>856.8</ele><time>2026-04-27T16:12:19Z</time></trkpt><trkpt lat="42.421662738626786" lon="0.7342672993660762"><ele>857.4</ele><time>2026-04-27T16:12:20Z</time></trkpt><trkpt lat="42.421759754148034" lon="0.7342074229042435"><ele>858.0</ele><time>2026-04-27T16:12:21Z</time></trkpt><trkpt lat="42.421858470337206" lon="0.7341491778519282"><ele>858.0</ele><time>2026-04-27T16:12:22Z</time></trkpt><trkpt lat="42.42195741276823" lon="0.7340912088943534"><ele>858.0</ele><time>2026-04-27T16:12:23Z</time></trkpt><trkpt lat="42.42205596216081" lon="0.7340317243750094"><ele>858.0</ele><time>2026-04-27T16:12:24Z</time></trkpt><trkpt lat="42.42215170962585" lon="0.7339682699918431"><ele>858.0</ele><time>2026-04-27T16:12:25Z</time></trkpt><trkpt lat="42.42224620417902" lon="0.7339047360997516"><ele>858.0</ele><time>2026-04-27T16:12:26Z</time></trkpt><trkpt lat="42.42233561756053" lon="0.7338335265018242"><ele>858.0</ele><time>2026-04-27T16:12:27Z</time></trkpt><trkpt lat="42.4224250312692" lon="0.7337596655921915"><ele>858.0</ele><time>2026-04-27T16:12:28Z</time></trkpt><trkpt lat="42.42251417200213" lon="0.733681950557295"><ele>858.0</ele><time>2026-04-27T16:12:29Z</time></trkpt><trkpt lat="42.42260384501913" lon="0.7336046483420383"><ele>858.0</ele><time>2026-04-27T16:12:30Z</time></trkpt><trkpt lat="42.42269566741761" lon="0.7335291847629651"><ele>858.0</ele><time>2026-04-27T16:12:31Z</time></trkpt><trkpt lat="42.422788100071216" lon="0.7334577014448247"><ele>858.0</ele><time>2026-04-27T16:12:32Z</time></trkpt><trkpt lat="42.42288080369092" lon="0.733391399047027"><ele>858.0</ele><time>2026-04-27T16:12:33Z</time></trkpt><trkpt lat="42.42297703614507" lon="0.7333269528663803"><ele>858.0</ele><time>2026-04-27T16:12:34Z</time></trkpt><trkpt lat="42.423073904353096" lon="0.733263689298808"><ele>858.0</ele><time>2026-04-27T16:12:35Z</time></trkpt><trkpt lat="42.42317053319898" lon="0.7332051340951584"><ele>858.0</ele><time>2026-04-27T16:12:36Z</time></trkpt><trkpt lat="42.42326643590299" lon="0.733143207580087"><ele>859.8</ele><time>2026-04-27T16:12:37Z</time></trkpt><trkpt lat="42.423362962301105" lon="0.7330868450177687"><ele>861.5999999999999</ele><time>2026-04-27T16:12:38Z</time></trkpt><trkpt lat="42.42345939279272" lon="0.7330336675214708"><ele>863.4000000000001</ele><time>2026-04-27T16:12:39Z</time></trkpt><trkpt lat="42.42355433241143" lon="0.7329778194664854"><ele>865.2</ele><time>2026-04-27T16:12:40Z</time></trkpt><trkpt lat="42.42364795768554" lon="0.732924232704958"><ele>867.0</ele><time>2026-04-27T16:12:41Z</time></trkpt><trkpt lat="42.42373985719407" lon="0.7328708213613079"><ele>866.8</ele><time>2026-04-27T16:12:42Z</time></trkpt><trkpt lat="42.423832892958764" lon="0.7328216188106322"><ele>866.6</ele><time>2026-04-27T16:12:43Z</time></trkpt><trkpt lat="42.4239253942327" lon="0.7327718792603579"><ele>866.3999999999999</ele><time>2026-04-27T16:12:44Z</time></trkpt><trkpt lat="42.42401661631494" lon="0.7327261068583641"><ele>866.1999999999999</ele><time>2026-04-27T16:12:45Z</time></trkpt><trkpt lat="42.42410897623081" lon="0.7326828207959143"><ele>866.0</ele><time>2026-04-27T16:12:46Z</time></trkpt><trkpt lat="42.4242005726807" lon="0.7326419011757969"><ele>866.0</ele><time>2026-04-27T16:12:47Z</time></trkpt><trkpt lat="42.42429357835034" lon="0.7326074333148159"><ele>865.9999999999999</ele><time>2026-04-27T16:12:48Z</time></trkpt><trkpt lat="42.42438489855886" lon="0.7325754226889578"><ele>865.9999999999999</ele><time>2026-04-27T16:12:49.001Z</time></trkpt><trkpt lat="42.424479287846296" lon="0.7325498260755395"><ele>866.0</ele><time>2026-04-27T16:12:50.001Z</time></trkpt><trkpt lat="42.42457345283308" lon="0.7325243840746765"><ele>866.0</ele><time>2026-04-27T16:12:51.001Z</time></trkpt><trkpt lat="42.424666532756866" lon="0.7324836102104036"><ele>865.8</ele><time>2026-04-27T16:12:52.001Z</time></trkpt><trkpt lat="42.42476663414506" lon="0.7324545198739432"><ele>865.5999999999999</ele><time>2026-04-27T16:12:53.001Z</time></trkpt><trkpt lat="42.42486406098145" lon="0.7324225308804515"><ele>865.4</ele><time>2026-04-27T16:12:54.001Z</time></trkpt><trkpt lat="42.42496681855316" lon="0.7323919126532757"><ele>865.2</ele><time>2026-04-27T16:12:55.001Z</time></trkpt><trkpt lat="42.425069509705416" lon="0.7323520244159316"><ele>865.0</ele><time>2026-04-27T16:12:56.001Z</time></trkpt><trkpt lat="42.4251714889965" lon="0.7323082892419703"><ele>865.0</ele><time>2026-04-27T16:12:57.001Z</time></trkpt><trkpt lat="42.425272160080375" lon="0.7322619342602629"><ele>865.0</ele><time>2026-04-27T16:12:58.001Z</time></trkpt><trkpt lat="42.4253687198669" lon="0.73220523838812"><ele>865.0</ele><time>2026-04-27T16:12:59.001Z</time></trkpt><trkpt lat="42.42546162971694" lon="0.7321413242696596"><ele>865.0</ele><time>2026-04-27T16:13:00.001Z</time></trkpt><trkpt lat="42.42555772868613" lon="0.7320758958189839"><ele>865.0</ele><time>2026-04-27T16:13:01.001Z</time></trkpt><trkpt lat="42.42565475217327" lon="0.7320085530056109"><ele>865.6</ele><time>2026-04-27T16:13:02.001Z</time></trkpt><trkpt lat="42.42574928261867" lon="0.731937408255148"><ele>866.2</ele><time>2026-04-27T16:13:03.001Z</time></trkpt><trkpt lat="42.425842894144296" lon="0.7318609788676652"><ele>866.8</ele><time>2026-04-27T16:13:04.001Z</time></trkpt><trkpt lat="42.425934828110286" lon="0.7317877822861145"><ele>867.4</ele><time>2026-04-27T16:13:05.001Z</time></trkpt><trkpt lat="42.426026448215524" lon="0.7317170000194739"><ele>868.0</ele><time>2026-04-27T16:13:06.001Z</time></trkpt><trkpt lat="42.42611819726893" lon="0.7316441215176673"><ele>868.0</ele><time>2026-04-27T16:13:07.001Z</time></trkpt><trkpt lat="42.426211074950686" lon="0.7315649814655298"><ele>868.0</ele><time>2026-04-27T16:13:08.001Z</time></trkpt><trkpt lat="42.42629905048219" lon="0.731485274013108"><ele>868.0</ele><time>2026-04-27T16:13:09.001Z</time></trkpt><trkpt lat="42.42638428995172" lon="0.7313928697758316"><ele>868.0</ele><time>2026-04-27T16:13:10.001Z</time></trkpt><trkpt lat="42.42645914731869" lon="0.7312927600816315"><ele>868.0</ele><time>2026-04-27T16:13:11.001Z</time></trkpt><trkpt lat="42.426519043669295" lon="0.7311752591613041"><ele>869.4</ele><time>2026-04-27T16:13:12.001Z</time></trkpt><trkpt lat="42.426561946984165" lon="0.7310414473339644"><ele>870.8</ele><time>2026-04-27T16:13:13.001Z</time></trkpt><trkpt lat="42.42659152515626" lon="0.7309053707385822"><ele>872.2</ele><time>2026-04-27T16:13:14.001Z</time></trkpt><trkpt lat="42.426619907770245" lon="0.7307682499947218"><ele>873.6</ele><time>2026-04-27T16:13:15.001Z</time></trkpt><trkpt lat="42.426650478278894" lon="0.7306312815068589"><ele>875.0</ele><time>2026-04-27T16:13:16.001Z</time></trkpt><trkpt lat="42.426683958349294" lon="0.7304970234322335"><ele>875.0</ele><time>2026-04-27T16:13:17.001Z</time></trkpt><trkpt lat="42.42671504009422" lon="0.7303599951686148"><ele>875.0</ele><time>2026-04-27T16:13:18.001Z</time></trkpt><trkpt lat="42.426745873279806" lon="0.7302251160998764"><ele>875.0</ele><time>2026-04-27T16:13:19.001Z</time></trkpt><trkpt lat="42.42677476030742" lon="0.7300905587575565"><ele>875.0</ele><time>2026-04-27T16:13:20.001Z</time></trkpt><trkpt lat="42.426803762793185" lon="0.7299543786035501"><ele>875.0</ele><time>2026-04-27T16:13:21.001Z</time></trkpt><trkpt lat="42.42683702931131" lon="0.7298226524321748"><ele>874.4</ele><time>2026-04-27T16:13:22.001Z</time></trkpt><trkpt lat="42.42687164835417" lon="0.7296879022984292"><ele>873.8</ele><time>2026-04-27T16:13:23.001Z</time></trkpt><trkpt lat="42.42690583968875" lon="0.7295569804415721"><ele>873.2</ele><time>2026-04-27T16:13:24.001Z</time></trkpt><trkpt lat="42.426941115232715" lon="0.7294219251384987"><ele>872.6</ele><time>2026-04-27T16:13:25.001Z</time></trkpt><trkpt lat="42.42697916042083" lon="0.7292905056506263"><ele>872.0</ele><time>2026-04-27T16:13:26.001Z</time></trkpt><trkpt lat="42.42701601578182" lon="0.7291577249538336"><ele>871.2</ele><time>2026-04-27T16:13:27.001Z</time></trkpt><trkpt lat="42.427054840382134" lon="0.7290247250811693"><ele>870.4000000000001</ele><time>2026-04-27T16:13:28.001Z</time></trkpt><trkpt lat="42.4270938986397" lon="0.728891208029008"><ele>869.5999999999999</ele><time>2026-04-27T16:13:29.001Z</time></trkpt><trkpt lat="42.42713259136443" lon="0.7287607882339917"><ele>868.8</ele><time>2026-04-27T16:13:30.001Z</time></trkpt><trkpt lat="42.4271718327577" lon="0.72862465049143"><ele>868.0</ele><time>2026-04-27T16:13:31.001Z</time></trkpt><trkpt lat="42.427213332195784" lon="0.7284955681782903"><ele>870.8</ele><time>2026-04-27T16:13:32.001Z</time></trkpt><trkpt lat="42.42725385445773" lon="0.728361622212178"><ele>873.5999999999999</ele><time>2026-04-27T16:13:33.001Z</time></trkpt><trkpt lat="42.427294660458976" lon="0.7282276656089985"><ele>876.4000000000001</ele><time>2026-04-27T16:13:34.001Z</time></trkpt><trkpt lat="42.427335547033536" lon="0.7280927907144253"><ele>879.2</ele><time>2026-04-27T16:13:35.001Z</time></trkpt><trkpt lat="42.42737735253412" lon="0.7279601346636602"><ele>882.0</ele><time>2026-04-27T16:13:36.001Z</time></trkpt><trkpt lat="42.427418060431165" lon="0.7278277190359688"><ele>880.2</ele><time>2026-04-27T16:13:37.001Z</time></trkpt><trkpt lat="42.42746057304783" lon="0.7276951740550506"><ele>878.4000000000001</ele><time>2026-04-27T16:13:38.001Z</time></trkpt><trkpt lat="42.42750079799556" lon="0.7275626094770483"><ele>876.5999999999999</ele><time>2026-04-27T16:13:39.001Z</time></trkpt><trkpt lat="42.42754083421238" lon="0.7274297940292365"><ele>874.8</ele><time>2026-04-27T16:13:40.001Z</time></trkpt><trkpt lat="42.42758326537561" lon="0.7272995883175294"><ele>873.0</ele><time>2026-04-27T16:13:41.001Z</time></trkpt><trkpt lat="42.427626604723656" lon="0.7271723340287064"><ele>873.0</ele><time>2026-04-27T16:13:42.001Z</time></trkpt><trkpt lat="42.42767113982786" lon="0.7270466485843732"><ele>873.0</ele><time>2026-04-27T16:13:43.001Z</time></trkpt><trkpt lat="42.42772167940192" lon="0.7269182096628883"><ele>873.0</ele><time>2026-04-27T16:13:44.001Z</time></trkpt><trkpt lat="42.427779789948474" lon="0.7268029839811447"><ele>873.0</ele><time>2026-04-27T16:13:45.001Z</time></trkpt><trkpt lat="42.42784356180018" lon="0.7266897065802309"><ele>873.0</ele><time>2026-04-27T16:13:46.001Z</time></trkpt><trkpt lat="42.42791316018359" lon="0.7265810494288012"><ele>873.4</ele><time>2026-04-27T16:13:47.001Z</time></trkpt><trkpt lat="42.427985771937045" lon="0.7264771752780823"><ele>873.8</ele><time>2026-04-27T16:13:48.001Z</time></trkpt><trkpt lat="42.428059557510814" lon="0.7263775757238835"><ele>874.2</ele><time>2026-04-27T16:13:49.001Z</time></trkpt><trkpt lat="42.42813329890277" lon="0.7262655182694546"><ele>874.6</ele><time>2026-04-27T16:13:50.001Z</time></trkpt><trkpt lat="42.428207328829735" lon="0.726165130710252"><ele>875.0</ele><time>2026-04-27T16:13:51.001Z</time></trkpt><trkpt lat="42.42828091926331" lon="0.7260599257976945"><ele>875.0</ele><time>2026-04-27T16:13:52.001Z</time></trkpt><trkpt lat="42.42835444184321" lon="0.7259540011002362"><ele>875.0</ele><time>2026-04-27T16:13:53.001Z</time></trkpt><trkpt lat="42.428429376611994" lon="0.7258507272995266"><ele>875.0</ele><time>2026-04-27T16:13:54.001Z</time></trkpt><trkpt lat="42.42850418451717" lon="0.7257486622636738"><ele>875.0</ele><time>2026-04-27T16:13:55.001Z</time></trkpt><trkpt lat="42.42857807269126" lon="0.7256440102796466"><ele>875.0</ele><time>2026-04-27T16:13:56.001Z</time></trkpt><trkpt lat="42.42865126488012" lon="0.7255387668441289"><ele>875.0</ele><time>2026-04-27T16:13:57.001Z</time></trkpt><trkpt lat="42.42872614720619" lon="0.7254344736346297"><ele>875.0</ele><time>2026-04-27T16:13:58.001Z</time></trkpt><trkpt lat="42.428801168114845" lon="0.7253307496044226"><ele>875.0</ele><time>2026-04-27T16:13:59.001Z</time></trkpt><trkpt lat="42.428877697409305" lon="0.7252257120955388"><ele>875.0</ele><time>2026-04-27T16:14:00.001Z</time></trkpt><trkpt lat="42.428953201972" lon="0.7251240723064489"><ele>875.0</ele><time>2026-04-27T16:14:01.001Z</time></trkpt><trkpt lat="42.429036097410446" lon="0.7250347458575206"><ele>875.8</ele><time>2026-04-27T16:14:02.001Z</time></trkpt><trkpt lat="42.42912369764386" lon="0.7249595159979261"><ele>876.6</ele><time>2026-04-27T16:14:03.001Z</time></trkpt><trkpt lat="42.42921453510173" lon="0.7248951737248007"><ele>877.4000000000001</ele><time>2026-04-27T16:14:04.001Z</time></trkpt><trkpt lat="42.42930754070734" lon="0.7248431763675384"><ele>878.2</ele><time>2026-04-27T16:14:05.001Z</time></trkpt><trkpt lat="42.429401145449056" lon="0.7247962798167067"><ele>879.0</ele><time>2026-04-27T16:14:06.001Z</time></trkpt><trkpt lat="42.42949168702135" lon="0.7247541038197861"><ele>879.0</ele><time>2026-04-27T16:14:07.001Z</time></trkpt><trkpt lat="42.42958319214825" lon="0.7247084415735137"><ele>879.0000000000001</ele><time>2026-04-27T16:14:08.001Z</time></trkpt><trkpt lat="42.42967172296187" lon="0.724666940575447"><ele>879.0000000000001</ele><time>2026-04-27T16:14:09.001Z</time></trkpt><trkpt lat="42.42975939164588" lon="0.7246262888140826"><ele>879.0</ele><time>2026-04-27T16:14:10.001Z</time></trkpt><trkpt lat="42.42984289713709" lon="0.7245833779516858"><ele>879.0</ele><time>2026-04-27T16:14:11.001Z</time></trkpt><trkpt lat="42.42992323800123" lon="0.724536475963514"><ele>879.3333333333334</ele><time>2026-04-27T16:14:12.001Z</time></trkpt><trkpt lat="42.42999871112514" lon="0.7244859614149897"><ele>879.6666666666667</ele><time>2026-04-27T16:14:13.001Z</time></trkpt><trkpt lat="42.430068745394514" lon="0.7244294561979063"><ele>880.0</ele><time>2026-04-27T16:14:14.001Z</time></trkpt><trkpt lat="42.43013150346373" lon="0.724360870963885"><ele>880.3333333333334</ele><time>2026-04-27T16:14:15.001Z</time></trkpt><trkpt lat="42.43018934773656" lon="0.7242875448732656"><ele>880.6666666666667</ele><time>2026-04-27T16:14:16.001Z</time></trkpt><trkpt lat="42.43024065479749" lon="0.7242038537407328"><ele>881.0</ele><time>2026-04-27T16:14:17.001Z</time></trkpt><trkpt lat="42.43028504869663" lon="0.7241143207065073"><ele>881.0000000000001</ele><time>2026-04-27T16:14:18.001Z</time></trkpt><trkpt lat="42.4303254810536" lon="0.7240211936432263"><ele>881.0</ele><time>2026-04-27T16:14:19.001Z</time></trkpt><trkpt lat="42.43036291196438" lon="0.7239216874612324"><ele>881.0</ele><time>2026-04-27T16:14:20.001Z</time></trkpt><trkpt lat="42.430397976540085" lon="0.7238206048323266"><ele>881.0</ele><time>2026-04-27T16:14:21.001Z</time></trkpt><trkpt lat="42.430433012273824" lon="0.7237176387341236"><ele>881.0000000000001</ele><time>2026-04-27T16:14:22.001Z</time></trkpt><trkpt lat="42.43046816701435" lon="0.7236113096614869"><ele>881.0</ele><time>2026-04-27T16:14:23Z</time></trkpt><trkpt lat="42.430502898337316" lon="0.7235042679704531"><ele>883.1999999999999</ele><time>2026-04-27T16:14:24Z</time></trkpt><trkpt lat="42.43053978540312" lon="0.723393737663258"><ele>885.3999999999999</ele><time>2026-04-27T16:14:25Z</time></trkpt><trkpt lat="42.43057457931298" lon="0.7232797720318327"><ele>887.6</ele><time>2026-04-27T16:14:26Z</time></trkpt><trkpt lat="42.43061023399321" lon="0.7231640135802836"><ele>889.8</ele><time>2026-04-27T16:14:27Z</time></trkpt><trkpt lat="42.430647481512295" lon="0.7230461001849864"><ele>892.0</ele><time>2026-04-27T16:14:28Z</time></trkpt><trkpt lat="42.43068462655862" lon="0.7229259212800194"><ele>892.0</ele><time>2026-04-27T16:14:29Z</time></trkpt><trkpt lat="42.43072246142666" lon="0.722808481683089"><ele>892.0</ele><time>2026-04-27T16:14:30Z</time></trkpt><trkpt lat="42.43076007280328" lon="0.7226875316476972"><ele>892.0</ele><time>2026-04-27T16:14:31Z</time></trkpt><trkpt lat="42.430796500164014" lon="0.7225682348607199"><ele>892.0</ele><time>2026-04-27T16:14:32Z</time></trkpt><trkpt lat="42.43083652133403" lon="0.7224472745054653"><ele>892.0</ele><time>2026-04-27T16:14:33.001Z</time></trkpt><trkpt lat="42.43087599153502" lon="0.722324278484197"><ele>891.0</ele><time>2026-04-27T16:14:34.001Z</time></trkpt><trkpt lat="42.43091565091668" lon="0.7221990880103312"><ele>890.0</ele><time>2026-04-27T16:14:35.001Z</time></trkpt><trkpt lat="42.430956698127204" lon="0.722072784954659"><ele>889.0</ele><time>2026-04-27T16:14:36.001Z</time></trkpt><trkpt lat="42.430997282542826" lon="0.7219519002088646"><ele>888.0</ele><time>2026-04-27T16:14:37.001Z</time></trkpt><trkpt lat="42.431037449028125" lon="0.7218226633059727"><ele>887.0</ele><time>2026-04-27T16:14:38.001Z</time></trkpt><trkpt lat="42.43107706616556" lon="0.7216931009326197"><ele>886.6</ele><time>2026-04-27T16:14:39.001Z</time></trkpt><trkpt lat="42.431117557960675" lon="0.7215637527259203"><ele>886.2</ele><time>2026-04-27T16:14:40.001Z</time></trkpt><trkpt lat="42.43115913649349" lon="0.7214321952416695"><ele>885.8</ele><time>2026-04-27T16:14:41.001Z</time></trkpt><trkpt lat="42.43120085359182" lon="0.7213026372608359"><ele>885.4</ele><time>2026-04-27T16:14:42.001Z</time></trkpt><trkpt lat="42.43124271723172" lon="0.7211738691562787"><ele>885.0</ele><time>2026-04-27T16:14:43.001Z</time></trkpt><trkpt lat="42.43128353668102" lon="0.7210456497014799"><ele>887.0</ele><time>2026-04-27T16:14:44.001Z</time></trkpt><trkpt lat="42.43132559785415" lon="0.7209178298250666"><ele>889.0</ele><time>2026-04-27T16:14:45.001Z</time></trkpt><trkpt lat="42.43136519293187" lon="0.7207906508950386"><ele>891.0</ele><time>2026-04-27T16:14:46.001Z</time></trkpt><trkpt lat="42.43140567587442" lon="0.720661933569629"><ele>893.0</ele><time>2026-04-27T16:14:47.001Z</time></trkpt><trkpt lat="42.431446613299364" lon="0.7205345818490859"><ele>895.0</ele><time>2026-04-27T16:14:48.001Z</time></trkpt><trkpt lat="42.431488009351355" lon="0.7204076451083679"><ele>895.0</ele><time>2026-04-27T16:14:49.001Z</time></trkpt><trkpt lat="42.43152624600549" lon="0.7202745117197803"><ele>895.0</ele><time>2026-04-27T16:14:50.001Z</time></trkpt><trkpt lat="42.431565772793356" lon="0.7201434774858582"><ele>895.0</ele><time>2026-04-27T16:14:51.001Z</time></trkpt><trkpt lat="42.431607698854855" lon="0.7200101835623055"><ele>895.0</ele><time>2026-04-27T16:14:52.001Z</time></trkpt><trkpt lat="42.43164993445699" lon="0.7198798087040411"><ele>895.0</ele><time>2026-04-27T16:14:53.001Z</time></trkpt><trkpt lat="42.431694058316" lon="0.7197498798334985"><ele>894.2</ele><time>2026-04-27T16:14:54.001Z</time></trkpt><trkpt lat="42.431740590287205" lon="0.7196211881130248"><ele>893.4</ele><time>2026-04-27T16:14:55.001Z</time></trkpt><trkpt lat="42.43179289662711" lon="0.7194923115520397"><ele>892.5999999999999</ele><time>2026-04-27T16:14:56.001Z</time></trkpt><trkpt lat="42.43185135453585" lon="0.7193679069103174"><ele>891.8</ele><time>2026-04-27T16:14:57.001Z</time></trkpt><trkpt lat="42.43191265310217" lon="0.7192464496822437"><ele>891.0</ele><time>2026-04-27T16:14:58.001Z</time></trkpt><trkpt lat="42.43197565785377" lon="0.7191237971715997"><ele>891.1999999999999</ele><time>2026-04-27T16:14:59.001Z</time></trkpt><trkpt lat="42.432038323532886" lon="0.7190032988157511"><ele>891.3999999999999</ele><time>2026-04-27T16:15:00.001Z</time></trkpt><trkpt lat="42.43210048592979" lon="0.7188825183492404"><ele>891.6</ele><time>2026-04-27T16:15:01.001Z</time></trkpt><trkpt lat="42.43216242502221" lon="0.7187623339587779"><ele>891.8</ele><time>2026-04-27T16:15:02.001Z</time></trkpt><trkpt lat="42.43222583757159" lon="0.718641967847339"><ele>892.0</ele><time>2026-04-27T16:15:03.001Z</time></trkpt><trkpt lat="42.43228998019744" lon="0.7185223395458332"><ele>892.0</ele><time>2026-04-27T16:15:04.001Z</time></trkpt><trkpt lat="42.43235315706034" lon="0.7184047147687922"><ele>892.0</ele><time>2026-04-27T16:15:05.001Z</time></trkpt><trkpt lat="42.43241618434674" lon="0.7182861368514869"><ele>892.0</ele><time>2026-04-27T16:15:06.001Z</time></trkpt><trkpt lat="42.4324786174207" lon="0.7181674990115149"><ele>892.0</ele><time>2026-04-27T16:15:07.001Z</time></trkpt><trkpt lat="42.432541238471124" lon="0.718048699149077"><ele>892.0</ele><time>2026-04-27T16:15:08.001Z</time></trkpt><trkpt lat="42.43260290919037" lon="0.7179260045193758"><ele>892.0</ele><time>2026-04-27T16:15:09.001Z</time></trkpt><trkpt lat="42.432664080650206" lon="0.7178049971176153"><ele>892.0</ele><time>2026-04-27T16:15:10.001Z</time></trkpt><trkpt lat="42.43272345869171" lon="0.7176799595509735"><ele>892.0</ele><time>2026-04-27T16:15:11.001Z</time></trkpt><trkpt lat="42.43277281193424" lon="0.7175507094806808"><ele>892.0</ele><time>2026-04-27T16:15:12.001Z</time></trkpt><trkpt lat="42.432815045573314" lon="0.7174155467463723"><ele>892.0</ele><time>2026-04-27T16:15:13.001Z</time></trkpt><trkpt lat="42.43285661631272" lon="0.7172794557292858"><ele>893.2</ele><time>2026-04-27T16:15:14.001Z</time></trkpt><trkpt lat="42.43289298386905" lon="0.7171373276762267"><ele>894.4000000000001</ele><time>2026-04-27T16:15:15.001Z</time></trkpt><trkpt lat="42.43293037309901" lon="0.7169950956477495"><ele>895.5999999999999</ele><time>2026-04-27T16:15:16.001Z</time></trkpt><trkpt lat="42.4329702145937" lon="0.7168538159148736"><ele>896.8</ele><time>2026-04-27T16:15:17.001Z</time></trkpt><trkpt lat="42.433009409241826" lon="0.7167138368910221"><ele>898.0</ele><time>2026-04-27T16:15:18.001Z</time></trkpt><trkpt lat="42.4330478642431" lon="0.7165755661288595"><ele>898.0</ele><time>2026-04-27T16:15:19.001Z</time></trkpt><trkpt lat="42.43308737225779" lon="0.7164359067379398"><ele>898.0</ele><time>2026-04-27T16:15:20.001Z</time></trkpt><trkpt lat="42.43312675446805" lon="0.7162960836260337"><ele>898.0</ele><time>2026-04-27T16:15:21.001Z</time></trkpt><trkpt lat="42.43316468289639" lon="0.716156763591892"><ele>898.0</ele><time>2026-04-27T16:15:22.001Z</time></trkpt><trkpt lat="42.43320566306799" lon="0.7160173508631448"><ele>898.0</ele><time>2026-04-27T16:15:23.001Z</time></trkpt><trkpt lat="42.433248676633795" lon="0.7158794736147576"><ele>896.5999999999999</ele><time>2026-04-27T16:15:24.001Z</time></trkpt><trkpt lat="42.4332977338245" lon="0.7157449532764002"><ele>895.1999999999999</ele><time>2026-04-27T16:15:25.001Z</time></trkpt><trkpt lat="42.433355388131275" lon="0.7156159739111615"><ele>893.8</ele><time>2026-04-27T16:15:26.001Z</time></trkpt><trkpt lat="42.43342175670244" lon="0.7154931861366346"><ele>892.4</ele><time>2026-04-27T16:15:27.001Z</time></trkpt><trkpt lat="42.43349393900051" lon="0.715380058603293"><ele>891.0</ele><time>2026-04-27T16:15:28.001Z</time></trkpt><trkpt lat="42.433573079575204" lon="0.7152755344103594"><ele>890.0</ele><time>2026-04-27T16:15:29.001Z</time></trkpt><trkpt lat="42.43365455176242" lon="0.7151751371114414"><ele>888.9999999999999</ele><time>2026-04-27T16:15:30.001Z</time></trkpt><trkpt lat="42.43374291626355" lon="0.71508880468654"><ele>887.9999999999999</ele><time>2026-04-27T16:15:31.001Z</time></trkpt><trkpt lat="42.433836759083896" lon="0.7150128743264107"><ele>887.0</ele><time>2026-04-27T16:15:32.001Z</time></trkpt><trkpt lat="42.43393483426678" lon="0.7149494918989927"><ele>886.0</ele><time>2026-04-27T16:15:33.001Z</time></trkpt><trkpt lat="42.43403665188435" lon="0.7148988648681498"><ele>888.8</ele><time>2026-04-27T16:15:34.001Z</time></trkpt><trkpt lat="42.434139692084614" lon="0.7148560129554432"><ele>891.5999999999999</ele><time>2026-04-27T16:15:35.001Z</time></trkpt><trkpt lat="42.43424411781414" lon="0.71482466733297"><ele>894.4</ele><time>2026-04-27T16:15:36.001Z</time></trkpt><trkpt lat="42.43434966804957" lon="0.714797983018344"><ele>897.2</ele><time>2026-04-27T16:15:37.001Z</time></trkpt><trkpt lat="42.43445151382535" lon="0.7147737157568096"><ele>900.0</ele><time>2026-04-27T16:15:38.001Z</time></trkpt><trkpt lat="42.43455629937953" lon="0.7147481746404669"><ele>902.8</ele><time>2026-04-27T16:15:39.001Z</time></trkpt><trkpt lat="42.43465744618199" lon="0.71472763007773"><ele>905.6</ele><time>2026-04-27T16:15:40.001Z</time></trkpt><trkpt lat="42.43475853179644" lon="0.7147078026170314"><ele>908.4000000000001</ele><time>2026-04-27T16:15:41.001Z</time></trkpt><trkpt lat="42.434861266147976" lon="0.7146853889987055"><ele>911.2</ele><time>2026-04-27T16:15:42.001Z</time></trkpt><trkpt lat="42.43495928347017" lon="0.7146591534514911"><ele>914.0</ele><time>2026-04-27T16:15:43.001Z</time></trkpt><trkpt lat="42.43505780639759" lon="0.7146344927863731"><ele>914.0</ele><time>2026-04-27T16:15:44.001Z</time></trkpt><trkpt lat="42.43515711229528" lon="0.7146128777545656"><ele>914.0000000000001</ele><time>2026-04-27T16:15:45.001Z</time></trkpt><trkpt lat="42.4352563408039" lon="0.7145946733458785"><ele>914.0000000000001</ele><time>2026-04-27T16:15:46.001Z</time></trkpt><trkpt lat="42.43535270544857" lon="0.7145823541874556"><ele>914.0</ele><time>2026-04-27T16:15:47.001Z</time></trkpt><trkpt lat="42.43544860210738" lon="0.7145636202591553"><ele>914.0</ele><time>2026-04-27T16:15:48.001Z</time></trkpt><trkpt lat="42.435540971253005" lon="0.7145358836639332"><ele>913.0</ele><time>2026-04-27T16:15:49.001Z</time></trkpt><trkpt lat="42.43563056651635" lon="0.7145014276213784"><ele>912.0000000000001</ele><time>2026-04-27T16:15:50.001Z</time></trkpt><trkpt lat="42.43571862749272" lon="0.7144581190931659"><ele>911.0000000000001</ele><time>2026-04-27T16:15:51.001Z</time></trkpt><trkpt lat="42.43580630138843" lon="0.7144016048477492"><ele>910.0</ele><time>2026-04-27T16:15:52.001Z</time></trkpt><trkpt lat="42.43589316782842" lon="0.7143510366144343"><ele>909.0</ele><time>2026-04-27T16:15:53.001Z</time></trkpt><trkpt lat="42.43597704605659" lon="0.7142917850614159"><ele>907.0</ele><time>2026-04-27T16:15:54.001Z</time></trkpt><trkpt lat="42.43605962610233" lon="0.714233511065141"><ele>905.0000000000001</ele><time>2026-04-27T16:15:55.001Z</time></trkpt><trkpt lat="42.436143925424496" lon="0.7141739030906954"><ele>903.0000000000001</ele><time>2026-04-27T16:15:56.001Z</time></trkpt><trkpt lat="42.43622579871123" lon="0.7141113127721989"><ele>901.0</ele><time>2026-04-27T16:15:57.001Z</time></trkpt><trkpt lat="42.436307439208996" lon="0.714051261694092"><ele>899.0</ele><time>2026-04-27T16:15:58.001Z</time></trkpt><trkpt lat="42.4363863372309" lon="0.7139883646678694"><ele>899.0</ele><time>2026-04-27T16:15:59.001Z</time></trkpt><trkpt lat="42.436470043301654" lon="0.7139299178324169"><ele>899.0000000000001</ele><time>2026-04-27T16:16:00.001Z</time></trkpt><trkpt lat="42.436553686423366" lon="0.7138704621897145"><ele>899.0000000000001</ele><time>2026-04-27T16:16:01.001Z</time></trkpt><trkpt lat="42.436634597251555" lon="0.7138116508573863"><ele>899.0</ele><time>2026-04-27T16:16:02.001Z</time></trkpt><trkpt lat="42.4367145083428" lon="0.7137503089949693"><ele>899.0</ele><time>2026-04-27T16:16:03.001Z</time></trkpt><trkpt lat="42.43679831903313" lon="0.7136897522663977"><ele>899.0</ele><time>2026-04-27T16:16:04.001Z</time></trkpt><trkpt lat="42.43687923411724" lon="0.7136259052258374"><ele>899.0000000000001</ele><time>2026-04-27T16:16:05.001Z</time></trkpt><trkpt lat="42.43696212971337" lon="0.7135673324653613"><ele>899.0000000000001</ele><time>2026-04-27T16:16:06.001Z</time></trkpt><trkpt lat="42.43704481251662" lon="0.713503833960209"><ele>899.0</ele><time>2026-04-27T16:16:07.001Z</time></trkpt><trkpt lat="42.43712753318849" lon="0.7134446334782713"><ele>899.0</ele><time>2026-04-27T16:16:08.001Z</time></trkpt><trkpt lat="42.437213670213445" lon="0.713385033636062"><ele>899.2</ele><time>2026-04-27T16:16:09.001Z</time></trkpt><trkpt lat="42.437303856787146" lon="0.7133338539208164"><ele>899.4000000000001</ele><time>2026-04-27T16:16:10.001Z</time></trkpt><trkpt lat="42.437396288172174" lon="0.713287182440334"><ele>899.6</ele><time>2026-04-27T16:16:11.001Z</time></trkpt><trkpt lat="42.43749300257122" lon="0.7132487644996877"><ele>899.8</ele><time>2026-04-27T16:16:12.001Z</time></trkpt><trkpt lat="42.43758772836877" lon="0.7132090984226228"><ele>900.0</ele><time>2026-04-27T16:16:13.001Z</time></trkpt><trkpt lat="42.43768326651358" lon="0.713182193562282"><ele>900.0</ele><time>2026-04-27T16:16:14.001Z</time></trkpt><trkpt lat="42.43778233851025" lon="0.7131443118638203"><ele>900.0</ele><time>2026-04-27T16:16:15.001Z</time></trkpt><trkpt lat="42.437882372506195" lon="0.7131085421009186"><ele>900.0</ele><time>2026-04-27T16:16:16.001Z</time></trkpt><trkpt lat="42.437981465431385" lon="0.7130760005598498"><ele>900.0</ele><time>2026-04-27T16:16:17.001Z</time></trkpt><trkpt lat="42.43808132572991" lon="0.7130411689895819"><ele>900.0</ele><time>2026-04-27T16:16:18.001Z</time></trkpt><trkpt lat="42.43818355128629" lon="0.7130044483583022"><ele>900.4</ele><time>2026-04-27T16:16:19.001Z</time></trkpt><trkpt lat="42.43828565854171" lon="0.7129686924204416"><ele>900.8</ele><time>2026-04-27T16:16:20.001Z</time></trkpt><trkpt lat="42.438389949265826" lon="0.7129341926016562"><ele>901.2</ele><time>2026-04-27T16:16:21.001Z</time></trkpt><trkpt lat="42.43849450595059" lon="0.7128973440264545"><ele>901.6</ele><time>2026-04-27T16:16:22.001Z</time></trkpt><trkpt lat="42.43859939508467" lon="0.7128603564070696"><ele>902.0</ele><time>2026-04-27T16:16:23.001Z</time></trkpt><trkpt lat="42.438703665056316" lon="0.7128239149828146"><ele>902.2</ele><time>2026-04-27T16:16:24.001Z</time></trkpt><trkpt lat="42.438807893812225" lon="0.7127875987330513"><ele>902.4000000000001</ele><time>2026-04-27T16:16:25.001Z</time></trkpt><trkpt lat="42.43891400873254" lon="0.712751377654954"><ele>902.5999999999999</ele><time>2026-04-27T16:16:26.001Z</time></trkpt><trkpt lat="42.43901972803749" lon="0.7127174262909264"><ele>902.8</ele><time>2026-04-27T16:16:27.001Z</time></trkpt><trkpt lat="42.43912485871452" lon="0.712673857765261"><ele>903.0</ele><time>2026-04-27T16:16:28.001Z</time></trkpt><trkpt lat="42.43922697436119" lon="0.7126372161494862"><ele>903.2</ele><time>2026-04-27T16:16:29.001Z</time></trkpt><trkpt lat="42.4393322011251" lon="0.7126004296501597"><ele>903.4</ele><time>2026-04-27T16:16:30.001Z</time></trkpt><trkpt lat="42.439436753462886" lon="0.7125661650503486"><ele>903.6000000000001</ele><time>2026-04-27T16:16:31.001Z</time></trkpt><trkpt lat="42.43953820011945" lon="0.7125295115107091"><ele>903.8000000000001</ele><time>2026-04-27T16:16:32.001Z</time></trkpt><trkpt lat="42.439641251920115" lon="0.7124907183015216"><ele>904.0</ele><time>2026-04-27T16:16:33.001Z</time></trkpt><trkpt lat="42.43974461664106" lon="0.7124526770838759"><ele>904.4000000000001</ele><time>2026-04-27T16:16:34.001Z</time></trkpt><trkpt lat="42.43984757352428" lon="0.7124176242367469"><ele>904.8000000000001</ele><time>2026-04-27T16:16:35.001Z</time></trkpt><trkpt lat="42.43995166884869" lon="0.7123817694885155"><ele>905.1999999999999</ele><time>2026-04-27T16:16:36.001Z</time></trkpt><trkpt lat="42.440052727712896" lon="0.7123457532125214"><ele>905.5999999999999</ele><time>2026-04-27T16:16:37.001Z</time></trkpt><trkpt lat="42.44015358815467" lon="0.7123061921364502"><ele>906.0</ele><time>2026-04-27T16:16:38.001Z</time></trkpt><trkpt lat="42.44025518173394" lon="0.7122677155277566"><ele>906.0</ele><time>2026-04-27T16:16:39.001Z</time></trkpt><trkpt lat="42.44035833972625" lon="0.712226760828943"><ele>905.9999999999999</ele><time>2026-04-27T16:16:40.001Z</time></trkpt><trkpt lat="42.440461868599364" lon="0.712193837808236"><ele>905.9999999999999</ele><time>2026-04-27T16:16:41.001Z</time></trkpt><trkpt lat="42.44056284241842" lon="0.7121607410896138"><ele>906.0</ele><time>2026-04-27T16:16:42.001Z</time></trkpt><trkpt lat="42.440667370972925" lon="0.712121674541846"><ele>906.0</ele><time>2026-04-27T16:16:43.001Z</time></trkpt><trkpt lat="42.440771418075016" lon="0.7120855217324916"><ele>906.1999999999999</ele><time>2026-04-27T16:16:44.001Z</time></trkpt><trkpt lat="42.440877090310686" lon="0.7120495067631681"><ele>906.3999999999999</ele><time>2026-04-27T16:16:45.001Z</time></trkpt><trkpt lat="42.44098227848039" lon="0.7120132919594521"><ele>906.6</ele><time>2026-04-27T16:16:46.001Z</time></trkpt><trkpt lat="42.44108677861242" lon="0.7119774632134785"><ele>906.8</ele><time>2026-04-27T16:16:47.001Z</time></trkpt><trkpt lat="42.44119191129234" lon="0.7119367449373021"><ele>907.0</ele><time>2026-04-27T16:16:48.001Z</time></trkpt><trkpt lat="42.44129398727132" lon="0.7118966160808489"><ele>907.6</ele><time>2026-04-27T16:16:49.001Z</time></trkpt><trkpt lat="42.44139704738199" lon="0.711854952524103"><ele>908.2</ele><time>2026-04-27T16:16:50.001Z</time></trkpt><trkpt lat="42.44150547626073" lon="0.7118381295229131"><ele>908.8</ele><time>2026-04-27T16:16:51.001Z</time></trkpt><trkpt lat="42.44160344724779" lon="0.7117815509647949"><ele>909.4</ele><time>2026-04-27T16:16:52.001Z</time></trkpt><trkpt lat="42.44170708241357" lon="0.711753317318942"><ele>910.0</ele><time>2026-04-27T16:16:53.001Z</time></trkpt><trkpt lat="42.44180996108912" lon="0.7117228366326162"><ele>910.0</ele><time>2026-04-27T16:16:54.001Z</time></trkpt><trkpt lat="42.441913486412155" lon="0.7116853171807334"><ele>910.0</ele><time>2026-04-27T16:16:55.001Z</time></trkpt><trkpt lat="42.44201893575501" lon="0.7116473647756969"><ele>910.0</ele><time>2026-04-27T16:16:56.001Z</time></trkpt><trkpt lat="42.44212414385907" lon="0.7116113093531896"><ele>910.0</ele><time>2026-04-27T16:16:57.001Z</time></trkpt><trkpt lat="42.44223052610107" lon="0.7115703018615401"><ele>910.0</ele><time>2026-04-27T16:16:58.001Z</time></trkpt><trkpt lat="42.44233756558714" lon="0.7115348892368275"><ele>910.6</ele><time>2026-04-27T16:16:59.001Z</time></trkpt><trkpt lat="42.44244639735031" lon="0.711500006770247"><ele>911.2</ele><time>2026-04-27T16:17:00.001Z</time></trkpt><trkpt lat="42.4425532421294" lon="0.7114641499824245"><ele>911.8</ele><time>2026-04-27T16:17:01.001Z</time></trkpt><trkpt lat="42.44265995363172" lon="0.7114282271015301"><ele>912.4</ele><time>2026-04-27T16:17:02.001Z</time></trkpt><trkpt lat="42.44276522578124" lon="0.7113912523951296"><ele>913.0</ele><time>2026-04-27T16:17:03.001Z</time></trkpt><trkpt lat="42.44287138425213" lon="0.7113533752181391"><ele>913.4</ele><time>2026-04-27T16:17:04.001Z</time></trkpt><trkpt lat="42.44297705827622" lon="0.7113172572530239"><ele>913.8</ele><time>2026-04-27T16:17:05.001Z</time></trkpt><trkpt lat="42.44308156191856" lon="0.7112786240262894"><ele>914.2</ele><time>2026-04-27T16:17:06.001Z</time></trkpt><trkpt lat="42.44318431742715" lon="0.7112333042614847"><ele>914.6</ele><time>2026-04-27T16:17:07.001Z</time></trkpt><trkpt lat="42.443283526305315" lon="0.7111792729700549"><ele>915.0</ele><time>2026-04-27T16:17:08.001Z</time></trkpt><trkpt lat="42.443379855393204" lon="0.7111202332009308"><ele>914.8</ele><time>2026-04-27T16:17:09.001Z</time></trkpt><trkpt lat="42.44347545644439" lon="0.7110585952364878"><ele>914.6</ele><time>2026-04-27T16:17:10.001Z</time></trkpt><trkpt lat="42.443570060671114" lon="0.7109921680388334"><ele>914.4000000000001</ele><time>2026-04-27T16:17:11.001Z</time></trkpt><trkpt lat="42.44366615321748" lon="0.7109291287428908"><ele>914.2</ele><time>2026-04-27T16:17:12.001Z</time></trkpt><trkpt lat="42.44376064917914" lon="0.7108637362662774"><ele>914.0</ele><time>2026-04-27T16:17:13.001Z</time></trkpt><trkpt lat="42.44385503385961" lon="0.710803768241543"><ele>914.0</ele><time>2026-04-27T16:17:14.001Z</time></trkpt><trkpt lat="42.44394968224111" lon="0.7107497200486321"><ele>914.0000000000001</ele><time>2026-04-27T16:17:15.001Z</time></trkpt><trkpt lat="42.444050461855035" lon="0.7107120817097025"><ele>914.0000000000001</ele><time>2026-04-27T16:17:16.001Z</time></trkpt><trkpt lat="42.44414769948225" lon="0.7106632335970807"><ele>914.0</ele><time>2026-04-27T16:17:17.001Z</time></trkpt><trkpt lat="42.44424251384405" lon="0.7106150979045501"><ele>914.0</ele><time>2026-04-27T16:17:18.001Z</time></trkpt><trkpt lat="42.44433350152736" lon="0.7105466962539566"><ele>914.0</ele><time>2026-04-27T16:17:19.001Z</time></trkpt><trkpt lat="42.44442890243606" lon="0.7104976023262861"><ele>914.0000000000001</ele><time>2026-04-27T16:17:20.001Z</time></trkpt><trkpt lat="42.44452574085406" lon="0.7104503596758978"><ele>914.0000000000001</ele><time>2026-04-27T16:17:21.001Z</time></trkpt><trkpt lat="42.44462376026053" lon="0.7104019961758138"><ele>914.0</ele><time>2026-04-27T16:17:22.001Z</time></trkpt><trkpt lat="42.44472273170117" lon="0.7103504929861935"><ele>914.0</ele><time>2026-04-27T16:17:23.001Z</time></trkpt><trkpt lat="42.44482116884183" lon="0.7102988425404917"><ele>913.8000000000001</ele><time>2026-04-27T16:17:24.001Z</time></trkpt><trkpt lat="42.444920217932314" lon="0.7102460432778639"><ele>913.6000000000001</ele><time>2026-04-27T16:17:25.001Z</time></trkpt><trkpt lat="42.44501960716903" lon="0.7101937509140583"><ele>913.4</ele><time>2026-04-27T16:17:26.001Z</time></trkpt><trkpt lat="42.44512030328456" lon="0.7101438187513089"><ele>913.2</ele><time>2026-04-27T16:17:27.001Z</time></trkpt><trkpt lat="42.44522150059339" lon="0.7101053269326847"><ele>913.0</ele><time>2026-04-27T16:17:28.001Z</time></trkpt><trkpt lat="42.44532661994357" lon="0.7100889459545138"><ele>913.0</ele><time>2026-04-27T16:17:29.001Z</time></trkpt><trkpt lat="42.44543424171036" lon="0.7100823155198472"><ele>913.0</ele><time>2026-04-27T16:17:30.001Z</time></trkpt><trkpt lat="42.44554057934483" lon="0.7100797224146352"><ele>913.0</ele><time>2026-04-27T16:17:31.001Z</time></trkpt><trkpt lat="42.44564823863184" lon="0.7100696901830907"><ele>913.0</ele><time>2026-04-27T16:17:32.001Z</time></trkpt><trkpt lat="42.445752555472005" lon="0.7100662191963684"><ele>913.0</ele><time>2026-04-27T16:17:33.001Z</time></trkpt><trkpt lat="42.445857625756545" lon="0.7100593962887699"><ele>914.5999999999999</ele><time>2026-04-27T16:17:34.001Z</time></trkpt><trkpt lat="42.44595898842537" lon="0.710060818414398"><ele>916.1999999999999</ele><time>2026-04-27T16:17:35.001Z</time></trkpt><trkpt lat="42.44605710293361" lon="0.7100593992439665"><ele>917.8</ele><time>2026-04-27T16:17:36.001Z</time></trkpt><trkpt lat="42.44615819640426" lon="0.7100648178127529"><ele>919.4</ele><time>2026-04-27T16:17:37.001Z</time></trkpt><trkpt lat="42.446258688350795" lon="0.7100700233690254"><ele>921.0</ele><time>2026-04-27T16:17:38.001Z</time></trkpt><trkpt lat="42.44635621905696" lon="0.7100724787308945"><ele>921.1999999999999</ele><time>2026-04-27T16:17:39.001Z</time></trkpt><trkpt lat="42.446454243066995" lon="0.7100734935829609"><ele>921.3999999999999</ele><time>2026-04-27T16:17:40.001Z</time></trkpt><trkpt lat="42.446549909237255" lon="0.7100727212780422"><ele>921.6</ele><time>2026-04-27T16:17:41.001Z</time></trkpt><trkpt lat="42.44664439351132" lon="0.7100745040335351"><ele>921.8</ele><time>2026-04-27T16:17:42.001Z</time></trkpt><trkpt lat="42.446741207164145" lon="0.7100798427511658"><ele>922.0</ele><time>2026-04-27T16:17:43.001Z</time></trkpt><trkpt lat="42.446837903166056" lon="0.7100852087445889"><ele>922.0</ele><time>2026-04-27T16:17:44.001Z</time></trkpt><trkpt lat="42.44693662730063" lon="0.7100935195163478"><ele>922.0</ele><time>2026-04-27T16:17:45.001Z</time></trkpt><trkpt lat="42.447032273184924" lon="0.7100986328277966"><ele>922.0</ele><time>2026-04-27T16:17:46.001Z</time></trkpt><trkpt lat="42.447126832311945" lon="0.7101011068414267"><ele>922.0</ele><time>2026-04-27T16:17:47.001Z</time></trkpt><trkpt lat="42.44722137545412" lon="0.7101057032112397"><ele>922.0</ele><time>2026-04-27T16:17:48.001Z</time></trkpt><trkpt lat="42.447316621322855" lon="0.7101120638582112"><ele>922.4000000000001</ele><time>2026-04-27T16:17:49.001Z</time></trkpt><trkpt lat="42.44741410302495" lon="0.7101197974407437"><ele>922.8000000000001</ele><time>2026-04-27T16:17:50.001Z</time></trkpt><trkpt lat="42.4475093178656" lon="0.710122701932379"><ele>923.2</ele><time>2026-04-27T16:17:51.001Z</time></trkpt><trkpt lat="42.447606080354504" lon="0.7101269014230869"><ele>923.6</ele><time>2026-04-27T16:17:52.001Z</time></trkpt><trkpt lat="42.44770417119102" lon="0.7101302139087258"><ele>924.0</ele><time>2026-04-27T16:17:53.001Z</time></trkpt><trkpt lat="42.44779932168564" lon="0.7101355812458752"><ele>924.0</ele><time>2026-04-27T16:17:54.001Z</time></trkpt><trkpt lat="42.447897261425574" lon="0.7101415324675687"><ele>924.0000000000001</ele><time>2026-04-27T16:17:55.001Z</time></trkpt><trkpt lat="42.447993892844934" lon="0.710150040399631"><ele>924.0000000000001</ele><time>2026-04-27T16:17:56.001Z</time></trkpt><trkpt lat="42.448092897886355" lon="0.7101560462993455"><ele>924.0</ele><time>2026-04-27T16:17:57.001Z</time></trkpt><trkpt lat="42.448189911816165" lon="0.7101600395757077"><ele>924.0</ele><time>2026-04-27T16:17:58.001Z</time></trkpt><trkpt lat="42.44828657645687" lon="0.7101626403432779"><ele>924.6</ele><time>2026-04-27T16:17:59.001Z</time></trkpt><trkpt lat="42.44838239246094" lon="0.7101681283780937"><ele>925.2</ele><time>2026-04-27T16:18:00.001Z</time></trkpt><trkpt lat="42.44847982087363" lon="0.7101729963049617"><ele>925.8000000000001</ele><time>2026-04-27T16:18:01.001Z</time></trkpt><trkpt lat="42.44857955649909" lon="0.7101798354323252"><ele>926.4000000000001</ele><time>2026-04-27T16:18:02.001Z</time></trkpt><trkpt lat="42.44867620812455" lon="0.7101823047973638"><ele>927.0</ele><time>2026-04-27T16:18:03.001Z</time></trkpt><trkpt lat="42.44876739858172" lon="0.7101796208478374"><ele>928.0</ele><time>2026-04-27T16:18:04.001Z</time></trkpt><trkpt lat="42.448859878720505" lon="0.7101745769497614"><ele>929.0</ele><time>2026-04-27T16:18:05.001Z</time></trkpt><trkpt lat="42.448951757134864" lon="0.7101598871927882"><ele>930.0</ele><time>2026-04-27T16:18:06.001Z</time></trkpt><trkpt lat="42.4490421749189" lon="0.7101379672839263"><ele>931.0</ele><time>2026-04-27T16:18:07.001Z</time></trkpt><trkpt lat="42.44913334487087" lon="0.7101115588415855"><ele>932.0</ele><time>2026-04-27T16:18:08.001Z</time></trkpt><trkpt lat="42.449224769076984" lon="0.7100872736644728"><ele>932.0</ele><time>2026-04-27T16:18:09.001Z</time></trkpt><trkpt lat="42.44931695100953" lon="0.7100599878655708"><ele>932.0</ele><time>2026-04-27T16:18:10.001Z</time></trkpt><trkpt lat="42.44940969389986" lon="0.7100312286924221"><ele>932.0</ele><time>2026-04-27T16:18:11.001Z</time></trkpt><trkpt lat="42.44950349841989" lon="0.7100014173218755"><ele>932.0</ele><time>2026-04-27T16:18:12.001Z</time></trkpt><trkpt lat="42.449598284950284" lon="0.7099724891583165"><ele>932.0</ele><time>2026-04-27T16:18:13.001Z</time></trkpt><trkpt lat="42.44969182074328" lon="0.7099427698433449"><ele>932.8</ele><time>2026-04-27T16:18:14.001Z</time></trkpt><trkpt lat="42.44978393582061" lon="0.7099124146186675"><ele>933.6</ele><time>2026-04-27T16:18:15.001Z</time></trkpt><trkpt lat="42.44987917855483" lon="0.7098848341029899"><ele>934.3999999999999</ele><time>2026-04-27T16:18:16.001Z</time></trkpt><trkpt lat="42.44997166803449" lon="0.7098578593107038"><ele>935.1999999999999</ele><time>2026-04-27T16:18:17.001Z</time></trkpt><trkpt lat="42.45006367322247" lon="0.7098300822548208"><ele>936.0</ele><time>2026-04-27T16:18:18.001Z</time></trkpt><trkpt lat="42.450157815222234" lon="0.7098007190312354"><ele>936.0</ele><time>2026-04-27T16:18:19.001Z</time></trkpt><trkpt lat="42.45025257164638" lon="0.709771055701614"><ele>935.9999999999999</ele><time>2026-04-27T16:18:20.001Z</time></trkpt><trkpt lat="42.45034744557254" lon="0.7097437662672633"><ele>935.9999999999999</ele><time>2026-04-27T16:18:21.001Z</time></trkpt><trkpt lat="42.45044405438724" lon="0.7097145979664573"><ele>936.0</ele><time>2026-04-27T16:18:22.001Z</time></trkpt><trkpt lat="42.45054248535122" lon="0.709684403586435"><ele>936.0</ele><time>2026-04-27T16:18:23.001Z</time></trkpt><trkpt lat="42.45064078076725" lon="0.7096549771687406"><ele>937.0</ele><time>2026-04-27T16:18:24.001Z</time></trkpt><trkpt lat="42.45074118746188" lon="0.7096261128622903"><ele>937.9999999999999</ele><time>2026-04-27T16:18:25.001Z</time></trkpt><trkpt lat="42.45084119349024" lon="0.7096010019828929"><ele>938.9999999999999</ele><time>2026-04-27T16:18:26Z</time></trkpt><trkpt lat="42.4509431811605" lon="0.7095713352078608"><ele>940.0</ele><time>2026-04-27T16:18:27Z</time></trkpt><trkpt lat="42.451044690820574" lon="0.7095401607306928"><ele>941.0</ele><time>2026-04-27T16:18:28Z</time></trkpt><trkpt lat="42.45114969887288" lon="0.7095081393248232"><ele>941.0</ele><time>2026-04-27T16:18:29Z</time></trkpt><trkpt lat="42.45125539241749" lon="0.7094832372340958"><ele>940.9999999999999</ele><time>2026-04-27T16:18:30Z</time></trkpt><trkpt lat="42.451364458572684" lon="0.7094589013879113"><ele>940.9999999999999</ele><time>2026-04-27T16:18:31Z</time></trkpt><trkpt lat="42.4514729301089" lon="0.709433171927722"><ele>941.0</ele><time>2026-04-27T16:18:32Z</time></trkpt><trkpt lat="42.45158172354854" lon="0.7094105872780786"><ele>941.0</ele><time>2026-04-27T16:18:33Z</time></trkpt><trkpt lat="42.45168942076881" lon="0.7093878041145119"><ele>939.5999999999999</ele><time>2026-04-27T16:18:34Z</time></trkpt><trkpt lat="42.45179884502006" lon="0.7093616335446212"><ele>938.1999999999999</ele><time>2026-04-27T16:18:35Z</time></trkpt><trkpt lat="42.45190897058907" lon="0.7093359588037633"><ele>936.8000000000001</ele><time>2026-04-27T16:18:36Z</time></trkpt><trkpt lat="42.4520186955429" lon="0.7093112358220004"><ele>935.4000000000001</ele><time>2026-04-27T16:18:37Z</time></trkpt><trkpt lat="42.4521275866538" lon="0.7092858059973175"><ele>934.0</ele><time>2026-04-27T16:18:38Z</time></trkpt><trkpt lat="42.452236830252986" lon="0.7092575376385699"><ele>933.6</ele><time>2026-04-27T16:18:39Z</time></trkpt><trkpt lat="42.45234363468481" lon="0.7092320791153336"><ele>933.2</ele><time>2026-04-27T16:18:40Z</time></trkpt><trkpt lat="42.45244950063045" lon="0.7092076959950785"><ele>932.8000000000001</ele><time>2026-04-27T16:18:41Z</time></trkpt><trkpt lat="42.452556886269925" lon="0.7091829131923688"><ele>932.4000000000001</ele><time>2026-04-27T16:18:42Z</time></trkpt><trkpt lat="42.45266299625261" lon="0.7091623850695752"><ele>932.0</ele><time>2026-04-27T16:18:43Z</time></trkpt><trkpt lat="42.45277054096994" lon="0.7091273584320518"><ele>932.0</ele><time>2026-04-27T16:18:44Z</time></trkpt><trkpt lat="42.4528755324921" lon="0.709095864149795"><ele>932.0</ele><time>2026-04-27T16:18:45Z</time></trkpt><trkpt lat="42.45297986992916" lon="0.7090681926925128"><ele>932.0</ele><time>2026-04-27T16:18:46Z</time></trkpt><trkpt lat="42.45308559497997" lon="0.7090382745773003"><ele>932.0</ele><time>2026-04-27T16:18:47Z</time></trkpt><trkpt lat="42.453188010607015" lon="0.7090087331197478"><ele>932.0</ele><time>2026-04-27T16:18:48Z</time></trkpt><trkpt lat="42.4532941384189" lon="0.7089816114563557"><ele>933.8</ele><time>2026-04-27T16:18:49Z</time></trkpt><trkpt lat="42.45340038515555" lon="0.7089635897366019"><ele>935.6</ele><time>2026-04-27T16:18:50Z</time></trkpt><trkpt lat="42.45351000537892" lon="0.708952876095316"><ele>937.3999999999999</ele><time>2026-04-27T16:18:51Z</time></trkpt><trkpt lat="42.453620794139496" lon="0.7089444390455695"><ele>939.1999999999999</ele><time>2026-04-27T16:18:52Z</time></trkpt><trkpt lat="42.45373067928612" lon="0.708934839907799"><ele>941.0</ele><time>2026-04-27T16:18:53Z</time></trkpt><trkpt lat="42.45383982114047" lon="0.7089285829717918"><ele>943.0</ele><time>2026-04-27T16:18:54Z</time></trkpt><trkpt lat="42.453951822155844" lon="0.7089158747921628"><ele>944.9999999999999</ele><time>2026-04-27T16:18:55Z</time></trkpt><trkpt lat="42.45406291839488" lon="0.7088986231415475"><ele>946.9999999999999</ele><time>2026-04-27T16:18:56Z</time></trkpt><trkpt lat="42.454171514244074" lon="0.7088793407088341"><ele>949.0</ele><time>2026-04-27T16:18:57Z</time></trkpt><trkpt lat="42.4542802559763" lon="0.7088591841416431"><ele>951.0</ele><time>2026-04-27T16:18:58Z</time></trkpt><trkpt lat="42.45438776454102" lon="0.708842673229277"><ele>951.0</ele><time>2026-04-27T16:18:59Z</time></trkpt><trkpt lat="42.454496889069986" lon="0.7088245955912993"><ele>950.9999999999999</ele><time>2026-04-27T16:19:00Z</time></trkpt><trkpt lat="42.454607419410195" lon="0.7088053628364559"><ele>950.9999999999999</ele><time>2026-04-27T16:19:01Z</time></trkpt><trkpt lat="42.454717358077914" lon="0.7087887652335898"><ele>951.0</ele><time>2026-04-27T16:19:02Z</time></trkpt><trkpt lat="42.45482647287232" lon="0.7087573249775752"><ele>951.0</ele><time>2026-04-27T16:19:03Z</time></trkpt><trkpt lat="42.4549355030404" lon="0.7087243936678194"><ele>948.5999999999999</ele><time>2026-04-27T16:19:04Z</time></trkpt><trkpt lat="42.45504189036967" lon="0.7086863422285887"><ele>946.1999999999999</ele><time>2026-04-27T16:19:05Z</time></trkpt><trkpt lat="42.45514533335852" lon="0.7086494949502168"><ele>943.8000000000001</ele><time>2026-04-27T16:19:06Z</time></trkpt><trkpt lat="42.455250436011255" lon="0.7086098147054606"><ele>941.4000000000001</ele><time>2026-04-27T16:19:07Z</time></trkpt><trkpt lat="42.455353396781504" lon="0.7085721780884002"><ele>939.0</ele><time>2026-04-27T16:19:08Z</time></trkpt><trkpt lat="42.45545671673317" lon="0.7085317080279925"><ele>939.0</ele><time>2026-04-27T16:19:09Z</time></trkpt><trkpt lat="42.45555876573872" lon="0.7084944762027562"><ele>939.0000000000001</ele><time>2026-04-27T16:19:10Z</time></trkpt><trkpt lat="42.45566182072442" lon="0.7084575157955997"><ele>939.0000000000001</ele><time>2026-04-27T16:19:11.001Z</time></trkpt><trkpt lat="42.455767260756396" lon="0.7084292410758193"><ele>939.0</ele><time>2026-04-27T16:19:12.001Z</time></trkpt><trkpt lat="42.455873952733874" lon="0.7084064739922983"><ele>939.0</ele><time>2026-04-27T16:19:13.001Z</time></trkpt><trkpt lat="42.4559843567812" lon="0.7084103869375151"><ele>939.0</ele><time>2026-04-27T16:19:14.001Z</time></trkpt><trkpt lat="42.456094107807154" lon="0.7083921647822295"><ele>939.0000000000001</ele><time>2026-04-27T16:19:15.001Z</time></trkpt><trkpt lat="42.45620271543071" lon="0.7083705094969823"><ele>939.0000000000001</ele><time>2026-04-27T16:19:16.001Z</time></trkpt><trkpt lat="42.456310118121806" lon="0.7083490944748028"><ele>939.0</ele><time>2026-04-27T16:19:17.001Z</time></trkpt><trkpt lat="42.456415758802706" lon="0.7083099998377579"><ele>939.0</ele><time>2026-04-27T16:19:18.001Z</time></trkpt><trkpt lat="42.4565260742436" lon="0.7083014253437306"><ele>938.4000000000001</ele><time>2026-04-27T16:19:19.001Z</time></trkpt><trkpt lat="42.45663512010994" lon="0.7083074575642094"><ele>937.8000000000001</ele><time>2026-04-27T16:19:20.001Z</time></trkpt><trkpt lat="42.45674556700382" lon="0.708323063186865"><ele>937.1999999999999</ele><time>2026-04-27T16:19:21.001Z</time></trkpt><trkpt lat="42.45685410266895" lon="0.7083542043901784"><ele>936.5999999999999</ele><time>2026-04-27T16:19:22.001Z</time></trkpt><trkpt lat="42.45695904120464" lon="0.7083976360999953"><ele>936.0</ele><time>2026-04-27T16:19:23.001Z</time></trkpt><trkpt lat="42.457064960540535" lon="0.7084437361730435"><ele>936.1999999999999</ele><time>2026-04-27T16:19:24.001Z</time></trkpt><trkpt lat="42.45716990404956" lon="0.708493752820501"><ele>936.3999999999999</ele><time>2026-04-27T16:19:25.001Z</time></trkpt><trkpt lat="42.457273245522074" lon="0.7085464364639937"><ele>936.6</ele><time>2026-04-27T16:19:26.001Z</time></trkpt><trkpt lat="42.45736183428557" lon="0.7086328014558149"><ele>936.8</ele><time>2026-04-27T16:19:27.001Z</time></trkpt><trkpt lat="42.45745646782735" lon="0.7087065933105674"><ele>937.0</ele><time>2026-04-27T16:19:28.001Z</time></trkpt><trkpt lat="42.45755895067277" lon="0.7087694199464113"><ele>938.2</ele><time>2026-04-27T16:19:29.001Z</time></trkpt><trkpt lat="42.457652611309214" lon="0.7088558183418799"><ele>939.4000000000001</ele><time>2026-04-27T16:19:30.001Z</time></trkpt><trkpt lat="42.457744999630265" lon="0.7089337177944603"><ele>940.5999999999999</ele><time>2026-04-27T16:19:31.001Z</time></trkpt><trkpt lat="42.457838030068785" lon="0.7090092591289193"><ele>941.8</ele><time>2026-04-27T16:19:32.001Z</time></trkpt><trkpt lat="42.45791689602446" lon="0.7091055612273707"><ele>943.0</ele><time>2026-04-27T16:19:33.001Z</time></trkpt><trkpt lat="42.458007238500365" lon="0.7091835900716233"><ele>943.0</ele><time>2026-04-27T16:19:34.001Z</time></trkpt><trkpt lat="42.45810069764185" lon="0.7092606195219479"><ele>943.0</ele><time>2026-04-27T16:19:35.001Z</time></trkpt><trkpt lat="42.45819323019914" lon="0.7093368852448644"><ele>943.0</ele><time>2026-04-27T16:19:36.001Z</time></trkpt><trkpt lat="42.458285320174674" lon="0.7094123453961131"><ele>943.0</ele><time>2026-04-27T16:19:37.001Z</time></trkpt><trkpt lat="42.45838418757089" lon="0.7094710253120178"><ele>943.0</ele><time>2026-04-27T16:19:38.001Z</time></trkpt><trkpt lat="42.45847461965256" lon="0.7095474873175843"><ele>942.5999999999999</ele><time>2026-04-27T16:19:39.001Z</time></trkpt><trkpt lat="42.458565146175324" lon="0.709620473757296"><ele>942.1999999999999</ele><time>2026-04-27T16:19:40.001Z</time></trkpt><trkpt lat="42.45865490275081" lon="0.7096926897961547"><ele>941.8</ele><time>2026-04-27T16:19:41.001Z</time></trkpt><trkpt lat="42.45874645483585" lon="0.7097608894933567"><ele>941.4</ele><time>2026-04-27T16:19:42.001Z</time></trkpt><trkpt lat="42.45883942507451" lon="0.7098304539236505"><ele>941.0</ele><time>2026-04-27T16:19:43.001Z</time></trkpt><trkpt lat="42.45893207432368" lon="0.7099027723657032"><ele>941.0</ele><time>2026-04-27T16:19:44.001Z</time></trkpt><trkpt lat="42.45902401135943" lon="0.7099784534955419"><ele>940.9999999999999</ele><time>2026-04-27T16:19:45.001Z</time></trkpt><trkpt lat="42.45911856014757" lon="0.7100503142840762"><ele>940.9999999999999</ele><time>2026-04-27T16:19:46.001Z</time></trkpt><trkpt lat="42.459211861572214" lon="0.7101266177067764"><ele>941.0</ele><time>2026-04-27T16:19:47.001Z</time></trkpt><trkpt lat="42.45930500628276" lon="0.7101988549362653"><ele>941.0</ele><time>2026-04-27T16:19:48.001Z</time></trkpt><trkpt lat="42.4593974586894" lon="0.7102703819684202"><ele>941.8</ele><time>2026-04-27T16:19:49.001Z</time></trkpt><trkpt lat="42.459492789603274" lon="0.7103447875480983"><ele>942.5999999999999</ele><time>2026-04-27T16:19:50.001Z</time></trkpt><trkpt lat="42.459587568020254" lon="0.7104124492467551"><ele>943.4</ele><time>2026-04-27T16:19:51.001Z</time></trkpt><trkpt lat="42.45968334067412" lon="0.7104811724972224"><ele>944.2</ele><time>2026-04-27T16:19:52.001Z</time></trkpt><trkpt lat="42.459781141693" lon="0.7105495643058827"><ele>945.0</ele><time>2026-04-27T16:19:53.001Z</time></trkpt><trkpt lat="42.45987518478949" lon="0.7106221294958646"><ele>945.0</ele><time>2026-04-27T16:19:54.001Z</time></trkpt><trkpt lat="42.45996694087011" lon="0.7106974133505144"><ele>945.0</ele><time>2026-04-27T16:19:55.001Z</time></trkpt><trkpt lat="42.460053471853655" lon="0.7107619004107506"><ele>945.0</ele><time>2026-04-27T16:19:56.001Z</time></trkpt><trkpt lat="42.460146736466584" lon="0.7108397632302879"><ele>945.0</ele><time>2026-04-27T16:19:57.001Z</time></trkpt><trkpt lat="42.46023430759343" lon="0.7109056401007747"><ele>945.0</ele><time>2026-04-27T16:19:58.001Z</time></trkpt><trkpt lat="42.46032013391126" lon="0.7109752611699297"><ele>945.0</ele><time>2026-04-27T16:19:59.001Z</time></trkpt><trkpt lat="42.460406755736734" lon="0.7110400318308093"><ele>945.0</ele><time>2026-04-27T16:20:00.001Z</time></trkpt><trkpt lat="42.46049027009417" lon="0.7111068988930715"><ele>945.0</ele><time>2026-04-27T16:20:01.001Z</time></trkpt><trkpt lat="42.46057398504906" lon="0.7111645002315351"><ele>945.0</ele><time>2026-04-27T16:20:02.001Z</time></trkpt><trkpt lat="42.46064178798422" lon="0.7112327721524792"><ele>945.0</ele><time>2026-04-27T16:20:03.001Z</time></trkpt><trkpt lat="42.46072384957307" lon="0.7112956723783811"><ele>947.2</ele><time>2026-04-27T16:20:04.001Z</time></trkpt><trkpt lat="42.46081124724163" lon="0.7113508495482727"><ele>949.4</ele><time>2026-04-27T16:20:05.001Z</time></trkpt><trkpt lat="42.46089418221751" lon="0.7114124428464176"><ele>951.5999999999999</ele><time>2026-04-27T16:20:06.001Z</time></trkpt><trkpt lat="42.46097393416244" lon="0.7114708449364374"><ele>953.8</ele><time>2026-04-27T16:20:07.001Z</time></trkpt><trkpt lat="42.461052974663616" lon="0.7115266149559152"><ele>956.0</ele><time>2026-04-27T16:20:08.001Z</time></trkpt><trkpt lat="42.461136197045285" lon="0.7115707649026287"><ele>956.0000000000001</ele><time>2026-04-27T16:20:09.001Z</time></trkpt><trkpt lat="42.46122105465905" lon="0.7115984589637956"><ele>956.0</ele><time>2026-04-27T16:20:10.001Z</time></trkpt><trkpt lat="42.46130259356156" lon="0.7116333771122559"><ele>956.0</ele><time>2026-04-27T16:20:11.001Z</time></trkpt><trkpt lat="42.46139001413784" lon="0.7116679587376963"><ele>956.0</ele><time>2026-04-27T16:20:12.001Z</time></trkpt><trkpt lat="42.461472582478436" lon="0.7117059633057363"><ele>956.0000000000001</ele><time>2026-04-27T16:20:13.001Z</time></trkpt><trkpt lat="42.46155850708589" lon="0.7117195668180646"><ele>956.0</ele><time>2026-04-27T16:20:14.001Z</time></trkpt><trkpt lat="42.46164806900032" lon="0.7117089480246401"><ele>956.0000000000001</ele><time>2026-04-27T16:20:15.001Z</time></trkpt><trkpt lat="42.46173530133636" lon="0.711722722583245"><ele>956.0</ele><time>2026-04-27T16:20:16.001Z</time></trkpt><trkpt lat="42.46182367460732" lon="0.7117231799226132"><ele>956.0</ele><time>2026-04-27T16:20:17.001Z</time></trkpt><trkpt lat="42.46190960535165" lon="0.7117210350045677"><ele>956.0</ele><time>2026-04-27T16:20:18.001Z</time></trkpt><trkpt lat="42.461996863369144" lon="0.7117217430386328"><ele>956.0000000000001</ele><time>2026-04-27T16:20:19.001Z</time></trkpt><trkpt lat="42.46208363937059" lon="0.7117204240516088"><ele>956.0</ele><time>2026-04-27T16:20:20Z</time></trkpt><trkpt lat="42.46216843926856" lon="0.7117222540346002"><ele>956.0000000000001</ele><time>2026-04-27T16:20:21Z</time></trkpt><trkpt lat="42.462253692902244" lon="0.7117264698104195"><ele>956.0</ele><time>2026-04-27T16:20:22Z</time></trkpt><trkpt lat="42.46233873353835" lon="0.7117305850705761"><ele>956.0</ele><time>2026-04-27T16:20:23Z</time></trkpt><trkpt lat="42.462423889257096" lon="0.7117365540651831"><ele>956.0</ele><time>2026-04-27T16:20:24Z</time></trkpt><trkpt lat="42.462509789539446" lon="0.7117421171436149"><ele>956.0000000000001</ele><time>2026-04-27T16:20:25Z</time></trkpt><trkpt lat="42.46259378762101" lon="0.7117524097985577"><ele>956.0</ele><time>2026-04-27T16:20:26Z</time></trkpt><trkpt lat="42.46267789124838" lon="0.7117643396472239"><ele>956.0000000000001</ele><time>2026-04-27T16:20:27Z</time></trkpt><trkpt lat="42.46276067674559" lon="0.711783461951298"><ele>956.0</ele><time>2026-04-27T16:20:28Z</time></trkpt><trkpt lat="42.462843288483214" lon="0.7118056471149956"><ele>956.0</ele><time>2026-04-27T16:20:29Z</time></trkpt><trkpt lat="42.46292456969186" lon="0.7118312232417908"><ele>956.0</ele><time>2026-04-27T16:20:30Z</time></trkpt><trkpt lat="42.46300441168807" lon="0.7118645898596497"><ele>956.0000000000001</ele><time>2026-04-27T16:20:31Z</time></trkpt><trkpt lat="42.46307666908303" lon="0.7119022522681453"><ele>956.0</ele><time>2026-04-27T16:20:32Z</time></trkpt><trkpt lat="42.4631516378808" lon="0.7119704012868708"><ele>958.3333333333334</ele><time>2026-04-27T16:20:33Z</time></trkpt><trkpt lat="42.463222714218254" lon="0.7120303843147199"><ele>960.6666666666667</ele><time>2026-04-27T16:20:34Z</time></trkpt><trkpt lat="42.463289005276295" lon="0.7120972792271943"><ele>963.0</ele><time>2026-04-27T16:20:35Z</time></trkpt><trkpt lat="42.46334987653297" lon="0.7121727296928991"><ele>965.3333333333333</ele><time>2026-04-27T16:20:36Z</time></trkpt><trkpt lat="42.463407634257265" lon="0.7122538047774088"><ele>967.6666666666666</ele><time>2026-04-27T16:20:37Z</time></trkpt><trkpt lat="42.46346596092755" lon="0.712333378775516"><ele>970.0</ele><time>2026-04-27T16:20:38Z</time></trkpt><trkpt lat="42.46352686169143" lon="0.7124144065139689"><ele>969.9999999999999</ele><time>2026-04-27T16:20:39Z</time></trkpt><trkpt lat="42.46358575633053" lon="0.7124962092729743"><ele>970.0</ele><time>2026-04-27T16:20:40Z</time></trkpt><trkpt lat="42.46364598967959" lon="0.7125783844914904"><ele>970.0</ele><time>2026-04-27T16:20:41Z</time></trkpt><trkpt lat="42.46370618275018" lon="0.7126631764036816"><ele>970.0</ele><time>2026-04-27T16:20:42Z</time></trkpt><trkpt lat="42.463765366861935" lon="0.7127480927020682"><ele>969.9999999999999</ele><time>2026-04-27T16:20:43Z</time></trkpt><trkpt lat="42.46382561577397" lon="0.7128284664089557"><ele>970.0</ele><time>2026-04-27T16:20:44Z</time></trkpt><trkpt lat="42.4638826633119" lon="0.7129107308612482"><ele>970.3333333333333</ele><time>2026-04-27T16:20:45Z</time></trkpt><trkpt lat="42.46393995341065" lon="0.7129915248051207"><ele>970.6666666666666</ele><time>2026-04-27T16:20:46Z</time></trkpt><trkpt lat="42.463995303609046" lon="0.7130719174909991"><ele>971.0</ele><time>2026-04-27T16:20:47Z</time></trkpt><trkpt lat="42.464049721055595" lon="0.7131510007703094"><ele>971.3333333333333</ele><time>2026-04-27T16:20:48Z</time></trkpt><trkpt lat="42.46410743615847" lon="0.7132304301844625"><ele>971.6666666666666</ele><time>2026-04-27T16:20:49Z</time></trkpt><trkpt lat="42.46416592417851" lon="0.7133055206307355"><ele>972.0</ele><time>2026-04-27T16:20:50Z</time></trkpt><trkpt lat="42.46422926401209" lon="0.7133784531335616"><ele>972.0</ele><time>2026-04-27T16:20:51Z</time></trkpt><trkpt lat="42.4642929055264" lon="0.7134461824465227"><ele>972.0</ele><time>2026-04-27T16:20:52Z</time></trkpt><trkpt lat="42.4643618251912" lon="0.7135075532015244"><ele>972.0</ele><time>2026-04-27T16:20:53Z</time></trkpt><trkpt lat="42.46443392261809" lon="0.7135637843805194"><ele>972.0</ele><time>2026-04-27T16:20:54Z</time></trkpt><trkpt lat="42.46451005292984" lon="0.7136087624233947"><ele>972.0</ele><time>2026-04-27T16:20:55Z</time></trkpt><trkpt lat="42.46458704651539" lon="0.7136473744984134"><ele>972.0</ele><time>2026-04-27T16:20:56Z</time></trkpt><trkpt lat="42.464668834640044" lon="0.7136817779129456"><ele>974.6666666666666</ele><time>2026-04-27T16:20:57Z</time></trkpt><trkpt lat="42.46475368027508" lon="0.7137069878269837"><ele>977.3333333333333</ele><time>2026-04-27T16:20:58Z</time></trkpt><trkpt lat="42.46483725791908" lon="0.7137267857489867"><ele>980.0</ele><time>2026-04-27T16:20:59Z</time></trkpt><trkpt lat="42.464924081988286" lon="0.7137490268702361"><ele>982.6666666666666</ele><time>2026-04-27T16:21:00Z</time></trkpt><trkpt lat="42.46501233341193" lon="0.713769586458224"><ele>985.3333333333333</ele><time>2026-04-27T16:21:01Z</time></trkpt><trkpt lat="42.465098918286785" lon="0.7137885041624494"><ele>988.0</ele><time>2026-04-27T16:21:02Z</time></trkpt><trkpt lat="42.465184685142184" lon="0.7138095813183762"><ele>987.9999999999999</ele><time>2026-04-27T16:21:03Z</time></trkpt><trkpt lat="42.46526691142127" lon="0.7138269933981691"><ele>988.0</ele><time>2026-04-27T16:21:04Z</time></trkpt><trkpt lat="42.465353071879896" lon="0.713845895505843"><ele>988.0</ele><time>2026-04-27T16:21:05Z</time></trkpt><trkpt lat="42.46543605678362" lon="0.7138627045008495"><ele>988.0</ele><time>2026-04-27T16:21:06Z</time></trkpt><trkpt lat="42.46551885692505" lon="0.7138823322870347"><ele>987.9999999999999</ele><time>2026-04-27T16:21:07Z</time></trkpt><trkpt lat="42.465600922933575" lon="0.7138996584294722"><ele>988.0</ele><time>2026-04-27T16:21:08Z</time></trkpt><trkpt lat="42.465683658264" lon="0.7139180040858616"><ele>987.9999999999999</ele><time>2026-04-27T16:21:09Z</time></trkpt><trkpt lat="42.46576415402056" lon="0.7139353472837108"><ele>988.0</ele><time>2026-04-27T16:21:10Z</time></trkpt><trkpt lat="42.465846218123076" lon="0.7139524292375996"><ele>988.0</ele><time>2026-04-27T16:21:11Z</time></trkpt><trkpt lat="42.46592646430694" lon="0.7139690447791721"><ele>988.0</ele><time>2026-04-27T16:21:12Z</time></trkpt><trkpt lat="42.46600791122653" lon="0.713987131006341"><ele>987.9999999999999</ele><time>2026-04-27T16:21:13Z</time></trkpt><trkpt lat="42.466091355965446" lon="0.7140056343601159"><ele>988.0</ele><time>2026-04-27T16:21:14Z</time></trkpt><trkpt lat="42.4661740487168" lon="0.7140260655480654"><ele>987.9999999999999</ele><time>2026-04-27T16:21:15Z</time></trkpt><trkpt lat="42.466256444052604" lon="0.714040831653638"><ele>988.0</ele><time>2026-04-27T16:21:16Z</time></trkpt><trkpt lat="42.466337263159964" lon="0.7140599639139323"><ele>988.0</ele><time>2026-04-27T16:21:17Z</time></trkpt><trkpt lat="42.46641652431862" lon="0.7140802420335665"><ele>988.0</ele><time>2026-04-27T16:21:18Z</time></trkpt><trkpt lat="42.466502772132" lon="0.7140990062479289"><ele>987.9999999999999</ele><time>2026-04-27T16:21:19Z</time></trkpt><trkpt lat="42.466581081601916" lon="0.7141208316280083"><ele>988.0</ele><time>2026-04-27T16:21:20Z</time></trkpt><trkpt lat="42.46666199446268" lon="0.7141419957541316"><ele>988.1666666666666</ele><time>2026-04-27T16:21:21Z</time></trkpt><trkpt lat="42.46674360067255" lon="0.7141654896274204"><ele>988.3333333333333</ele><time>2026-04-27T16:21:22Z</time></trkpt><trkpt lat="42.46682372242393" lon="0.7141919375360435"><ele>988.5</ele><time>2026-04-27T16:21:23Z</time></trkpt><trkpt lat="42.466904275718356" lon="0.7142211039190853"><ele>988.6666666666667</ele><time>2026-04-27T16:21:24Z</time></trkpt><trkpt lat="42.46698570881882" lon="0.7142511554752601"><ele>988.8333333333334</ele><time>2026-04-27T16:21:25Z</time></trkpt><trkpt lat="42.46706430371568" lon="0.7142822345856384"><ele>989.0</ele><time>2026-04-27T16:21:26Z</time></trkpt><trkpt lat="42.46714386121066" lon="0.7143125834177716"><ele>989.5000000000001</ele><time>2026-04-27T16:21:27Z</time></trkpt><trkpt lat="42.467220981749016" lon="0.7143480066124697"><ele>990.0</ele><time>2026-04-27T16:21:28Z</time></trkpt><trkpt lat="42.467299926558354" lon="0.7143831712688292"><ele>990.5</ele><time>2026-04-27T16:21:29Z</time></trkpt><trkpt lat="42.467377785331756" lon="0.7144195291780362"><ele>991.0</ele><time>2026-04-27T16:21:30Z</time></trkpt><trkpt lat="42.46745705391668" lon="0.7144500491963405"><ele>991.5000000000001</ele><time>2026-04-27T16:21:31Z</time></trkpt><trkpt lat="42.46753896015694" lon="0.7144801339534308"><ele>992.0</ele><time>2026-04-27T16:21:32Z</time></trkpt><trkpt lat="42.46762129403209" lon="0.7145156531993393"><ele>992.5000000000001</ele><time>2026-04-27T16:21:33Z</time></trkpt><trkpt lat="42.46770355110337" lon="0.7145533548315388"><ele>993.0</ele><time>2026-04-27T16:21:34Z</time></trkpt><trkpt lat="42.4677876179272" lon="0.7145906740377073"><ele>993.5</ele><time>2026-04-27T16:21:35Z</time></trkpt><trkpt lat="42.46787362851229" lon="0.7146280815644028"><ele>994.0</ele><time>2026-04-27T16:21:36Z</time></trkpt><trkpt lat="42.467959518406644" lon="0.7146689199884759"><ele>994.5000000000001</ele><time>2026-04-27T16:21:37Z</time></trkpt><trkpt lat="42.46804731004148" lon="0.7147048637680818"><ele>995.0</ele><time>2026-04-27T16:21:38Z</time></trkpt><trkpt lat="42.46813613137299" lon="0.7147404353175736"><ele>995.0</ele><time>2026-04-27T16:21:39Z</time></trkpt><trkpt lat="42.46822150882806" lon="0.7147798097001616"><ele>995.0</ele><time>2026-04-27T16:21:40Z</time></trkpt><trkpt lat="42.46830910728296" lon="0.7148171568069804"><ele>995.0</ele><time>2026-04-27T16:21:41Z</time></trkpt><trkpt lat="42.46839790897142" lon="0.7148538861273007"><ele>995.0</ele><time>2026-04-27T16:21:42Z</time></trkpt><trkpt lat="42.468487776557744" lon="0.7148908343634247"><ele>995.0</ele><time>2026-04-27T16:21:43Z</time></trkpt><trkpt lat="42.46858065088605" lon="0.7149316502804212"><ele>995.0</ele><time>2026-04-27T16:21:44Z</time></trkpt><trkpt lat="42.46867482397499" lon="0.7149723326480246"><ele>995.0</ele><time>2026-04-27T16:21:45Z</time></trkpt><trkpt lat="42.46877294251346" lon="0.7150148760472635"><ele>995.0</ele><time>2026-04-27T16:21:46Z</time></trkpt><trkpt lat="42.46887234976413" lon="0.7150592941735182"><ele>995.0</ele><time>2026-04-27T16:21:47Z</time></trkpt><trkpt lat="42.46897215235719" lon="0.7151035415242712"><ele>995.0</ele><time>2026-04-27T16:21:48Z</time></trkpt><trkpt lat="42.46907435715458" lon="0.7151488186437908"><ele>994.4</ele><time>2026-04-27T16:21:49Z</time></trkpt><trkpt lat="42.46917475063604" lon="0.7151963549972021"><ele>993.8</ele><time>2026-04-27T16:21:50Z</time></trkpt><trkpt lat="42.469280577776004" lon="0.7152419121955645"><ele>993.2</ele><time>2026-04-27T16:21:51Z</time></trkpt><trkpt lat="42.46938825497227" lon="0.7152892939517754"><ele>992.6</ele><time>2026-04-27T16:21:52Z</time></trkpt><trkpt lat="42.46949598726061" lon="0.7153352379264717"><ele>992.0</ele><time>2026-04-27T16:21:53Z</time></trkpt><trkpt lat="42.469601103945855" lon="0.7153829277899507"><ele>994.0</ele><time>2026-04-27T16:21:54Z</time></trkpt><trkpt lat="42.46970659916737" lon="0.7154298407553122"><ele>996.0</ele><time>2026-04-27T16:21:55Z</time></trkpt><trkpt lat="42.46981348190279" lon="0.7154772473958528"><ele>998.0</ele><time>2026-04-27T16:21:56Z</time></trkpt><trkpt lat="42.46992120967114" lon="0.7155233604233051"><ele>1000.0</ele><time>2026-04-27T16:21:57Z</time></trkpt><trkpt lat="42.47003055575969" lon="0.7155663705183268"><ele>1000.0</ele><time>2026-04-27T16:21:58Z</time></trkpt><trkpt lat="42.470140199197196" lon="0.7155990808046175"><ele>1000.0</ele><time>2026-04-27T16:21:59Z</time></trkpt><trkpt lat="42.470254960102295" lon="0.7156386592832028"><ele>1000.0</ele><time>2026-04-27T16:22:00Z</time></trkpt><trkpt lat="42.470369572932675" lon="0.7156728880631952"><ele>1000.0</ele><time>2026-04-27T16:22:01Z</time></trkpt><trkpt lat="42.47049106086992" lon="0.7157008746360635"><ele>998.25</ele><time>2026-04-27T16:22:02Z</time></trkpt><trkpt lat="42.470595608936534" lon="0.7157343157847081"><ele>996.5</ele><time>2026-04-27T16:22:03Z</time></trkpt><trkpt lat="42.47071429269505" lon="0.715769864563252"><ele>994.75</ele><time>2026-04-27T16:22:04Z</time></trkpt><trkpt lat="42.47083530805297" lon="0.7157916217235396"><ele>993.0</ele><time>2026-04-27T16:22:05Z</time></trkpt><trkpt lat="42.470951734319804" lon="0.7158065640038738"><ele>993.0</ele><time>2026-04-27T16:22:06Z</time></trkpt><trkpt lat="42.471071007641925" lon="0.715819110459171"><ele>993.0</ele><time>2026-04-27T16:22:07Z</time></trkpt><trkpt lat="42.471189796553574" lon="0.7158322668057728"><ele>993.0</ele><time>2026-04-27T16:22:08Z</time></trkpt><trkpt lat="42.471307776690615" lon="0.7158438104407618"><ele>993.0</ele><time>2026-04-27T16:22:09Z</time></trkpt><trkpt lat="42.4714268836927" lon="0.7158546620089307"><ele>991.0</ele><time>2026-04-27T16:22:10Z</time></trkpt><trkpt lat="42.47154590524575" lon="0.7158680390822436"><ele>989.0</ele><time>2026-04-27T16:22:11Z</time></trkpt><trkpt lat="42.47166255119959" lon="0.7158756609418583"><ele>987.0</ele><time>2026-04-27T16:22:12Z</time></trkpt><trkpt lat="42.471780691479225" lon="0.715885738666022"><ele>985.0</ele><time>2026-04-27T16:22:13Z</time></trkpt><trkpt lat="42.47190111613331" lon="0.7158986996889762"><ele>985.0</ele><time>2026-04-27T16:22:14Z</time></trkpt><trkpt lat="42.4720208377447" lon="0.7159061449100332"><ele>985.0</ele><time>2026-04-27T16:22:15Z</time></trkpt><trkpt lat="42.47213806171617" lon="0.7159160853144042"><ele>985.0</ele><time>2026-04-27T16:22:16Z</time></trkpt><trkpt lat="42.472256152272266" lon="0.7159261094642325"><ele>985.0</ele><time>2026-04-27T16:22:17Z</time></trkpt><trkpt lat="42.47237591886723" lon="0.7159377338932561"><ele>982.75</ele><time>2026-04-27T16:22:18Z</time></trkpt><trkpt lat="42.47249363571727" lon="0.715951533545698"><ele>980.5</ele><time>2026-04-27T16:22:19Z</time></trkpt><trkpt lat="42.47261388355769" lon="0.7159650148849325"><ele>978.25</ele><time>2026-04-27T16:22:20Z</time></trkpt><trkpt lat="42.47273007608312" lon="0.715978494951463"><ele>976.0</ele><time>2026-04-27T16:22:21Z</time></trkpt><trkpt lat="42.47284817075982" lon="0.7159937458071703"><ele>974.75</ele><time>2026-04-27T16:22:22Z</time></trkpt><trkpt lat="42.47296657020818" lon="0.7160124722838545"><ele>973.5</ele><time>2026-04-27T16:22:23Z</time></trkpt><trkpt lat="42.473081372867185" lon="0.7160329994102341"><ele>972.25</ele><time>2026-04-27T16:22:24Z</time></trkpt><trkpt lat="42.47318944411057" lon="0.7160587147740465"><ele>971.0</ele><time>2026-04-27T16:22:25Z</time></trkpt><trkpt lat="42.47329859112214" lon="0.7160917716174643"><ele>971.4</ele><time>2026-04-27T16:22:26Z</time></trkpt><trkpt lat="42.47340124027083" lon="0.7161309871713335"><ele>971.8</ele><time>2026-04-27T16:22:27Z</time></trkpt><trkpt lat="42.47350458950113" lon="0.7161639629824197"><ele>972.1999999999999</ele><time>2026-04-27T16:22:28Z</time></trkpt><trkpt lat="42.473609374441764" lon="0.7162017895455093"><ele>972.5999999999999</ele><time>2026-04-27T16:22:29Z</time></trkpt><trkpt lat="42.473714478003856" lon="0.7162444001123369"><ele>973.0</ele><time>2026-04-27T16:22:30Z</time></trkpt><trkpt lat="42.473816616616595" lon="0.7162886696461259"><ele>973.0</ele><time>2026-04-27T16:22:31Z</time></trkpt><trkpt lat="42.473920095462944" lon="0.7163316604238115"><ele>973.0</ele><time>2026-04-27T16:22:32Z</time></trkpt><trkpt lat="42.47402507977349" lon="0.7163744554468193"><ele>973.0</ele><time>2026-04-27T16:22:33Z</time></trkpt><trkpt lat="42.474128501222005" lon="0.716409768614509"><ele>973.0</ele><time>2026-04-27T16:22:34Z</time></trkpt><trkpt lat="42.47422975594369" lon="0.7164544082630868"><ele>973.0</ele><time>2026-04-27T16:22:35Z</time></trkpt><trkpt lat="42.47433353390164" lon="0.7164995183927491"><ele>973.0</ele><time>2026-04-27T16:22:36Z</time></trkpt><trkpt lat="42.47443496877691" lon="0.7165400571976676"><ele>973.0</ele><time>2026-04-27T16:22:37Z</time></trkpt><trkpt lat="42.47453793137365" lon="0.71658445657636"><ele>973.0</ele><time>2026-04-27T16:22:38Z</time></trkpt><trkpt lat="42.47464165684828" lon="0.7166282070432536"><ele>973.0</ele><time>2026-04-27T16:22:39Z</time></trkpt><trkpt lat="42.474742270919926" lon="0.7166677260474168"><ele>973.0</ele><time>2026-04-27T16:22:40Z</time></trkpt><trkpt lat="42.47484359510415" lon="0.7167083848609541"><ele>973.4</ele><time>2026-04-27T16:22:41Z</time></trkpt><trkpt lat="42.474944334724434" lon="0.716744960850307"><ele>973.8</ele><time>2026-04-27T16:22:42Z</time></trkpt><trkpt lat="42.47504392115039" lon="0.7167818250952476"><ele>974.2</ele><time>2026-04-27T16:22:43Z</time></trkpt><trkpt lat="42.475140887285626" lon="0.7168208815081463"><ele>974.6</ele><time>2026-04-27T16:22:44Z</time></trkpt><trkpt lat="42.475236710531654" lon="0.7168655921294453"><ele>975.0</ele><time>2026-04-27T16:22:45Z</time></trkpt><trkpt lat="42.47533441274936" lon="0.7169058441003691"><ele>975.6</ele><time>2026-04-27T16:22:46Z</time></trkpt><trkpt lat="42.47543211796684" lon="0.7169410249876772"><ele>976.2</ele><time>2026-04-27T16:22:47Z</time></trkpt><trkpt lat="42.475529595484936" lon="0.7169797055269868"><ele>976.8</ele><time>2026-04-27T16:22:48Z</time></trkpt><trkpt lat="42.47562738700957" lon="0.7170162549235197"><ele>977.4</ele><time>2026-04-27T16:22:49Z</time></trkpt><trkpt lat="42.47572320105601" lon="0.7170534812344354"><ele>978.0</ele><time>2026-04-27T16:22:50Z</time></trkpt><trkpt lat="42.47582342816011" lon="0.7170929608388088"><ele>978.5999999999999</ele><time>2026-04-27T16:22:51Z</time></trkpt><trkpt lat="42.47591991437755" lon="0.7171280095911217"><ele>979.1999999999999</ele><time>2026-04-27T16:22:52Z</time></trkpt><trkpt lat="42.4760186828552" lon="0.7171665042977745"><ele>979.8</ele><time>2026-04-27T16:22:53Z</time></trkpt><trkpt lat="42.47611574263652" lon="0.7172111851460471"><ele>980.4</ele><time>2026-04-27T16:22:54Z</time></trkpt><trkpt lat="42.476216342226024" lon="0.7172534442860479"><ele>981.0</ele><time>2026-04-27T16:22:55Z</time></trkpt><trkpt lat="42.47631088221694" lon="0.7172987372897923"><ele>981.5999999999999</ele><time>2026-04-27T16:22:56Z</time></trkpt><trkpt lat="42.47640608551861" lon="0.7173643078948734"><ele>982.1999999999999</ele><time>2026-04-27T16:22:57Z</time></trkpt><trkpt lat="42.47649080117553" lon="0.7174285369015131"><ele>982.8000000000001</ele><time>2026-04-27T16:22:58Z</time></trkpt><trkpt lat="42.476576256932795" lon="0.717489492900206"><ele>983.4000000000001</ele><time>2026-04-27T16:22:59Z</time></trkpt><trkpt lat="42.4766653458945" lon="0.7175614944670777"><ele>984.0</ele><time>2026-04-27T16:23:00Z</time></trkpt><trkpt lat="42.476762057291126" lon="0.7176187317659765"><ele>984.0</ele><time>2026-04-27T16:23:01Z</time></trkpt><trkpt lat="42.4768541879936" lon="0.7176787666037199"><ele>984.0000000000001</ele><time>2026-04-27T16:23:02Z</time></trkpt><trkpt lat="42.476944617839735" lon="0.7177340669605494"><ele>984.0000000000001</ele><time>2026-04-27T16:23:03Z</time></trkpt><trkpt lat="42.47703524430457" lon="0.7177900264372941"><ele>984.0</ele><time>2026-04-27T16:23:04Z</time></trkpt><trkpt lat="42.477127365969615" lon="0.7178529945749752"><ele>984.0</ele><time>2026-04-27T16:23:05Z</time></trkpt><trkpt lat="42.477219125450965" lon="0.7179087901486555"><ele>984.2</ele><time>2026-04-27T16:23:06Z</time></trkpt><trkpt lat="42.477309663492676" lon="0.7179746661480029"><ele>984.4000000000001</ele><time>2026-04-27T16:23:07Z</time></trkpt><trkpt lat="42.477405306372496" lon="0.7180280181982298"><ele>984.6</ele><time>2026-04-27T16:23:08Z</time></trkpt><trkpt lat="42.47750006759492" lon="0.7180846475785501"><ele>984.8</ele><time>2026-04-27T16:23:09Z</time></trkpt><trkpt lat="42.47759348255807" lon="0.7181447099138513"><ele>985.0</ele><time>2026-04-27T16:23:10Z</time></trkpt><trkpt lat="42.47768179136155" lon="0.7182027433012173"><ele>985.0</ele><time>2026-04-27T16:23:11Z</time></trkpt><trkpt lat="42.47777612917213" lon="0.7182626694858515"><ele>985.0</ele><time>2026-04-27T16:23:12Z</time></trkpt><trkpt lat="42.47787081926921" lon="0.7183219594936245"><ele>985.0</ele><time>2026-04-27T16:23:13Z</time></trkpt><trkpt lat="42.477963886670935" lon="0.7183792403840655"><ele>985.0</ele><time>2026-04-27T16:23:14Z</time></trkpt><trkpt lat="42.47805516272927" lon="0.7184369567551542"><ele>985.0</ele><time>2026-04-27T16:23:15Z</time></trkpt><trkpt lat="42.478154970366234" lon="0.7184853970188544"><ele>984.8</ele><time>2026-04-27T16:23:16Z</time></trkpt><trkpt lat="42.47824547547264" lon="0.718536743589876"><ele>984.6</ele><time>2026-04-27T16:23:17Z</time></trkpt><trkpt lat="42.478336464693555" lon="0.718590049934715"><ele>984.4000000000001</ele><time>2026-04-27T16:23:18Z</time></trkpt><trkpt lat="42.47842954902783" lon="0.7186326676823563"><ele>984.2</ele><time>2026-04-27T16:23:19Z</time></trkpt><trkpt lat="42.47852850947262" lon="0.7186648584146549"><ele>984.0</ele><time>2026-04-27T16:23:20Z</time></trkpt><trkpt lat="42.47862938184753" lon="0.718685295716305"><ele>985.0</ele><time>2026-04-27T16:23:21Z</time></trkpt><trkpt lat="42.47872942617502" lon="0.7187002304058565"><ele>986.0000000000001</ele><time>2026-04-27T16:23:22Z</time></trkpt><trkpt lat="42.478829222572195" lon="0.7187115810629863"><ele>987.0000000000001</ele><time>2026-04-27T16:23:23Z</time></trkpt><trkpt lat="42.47893071936498" lon="0.7187195947933709"><ele>988.0</ele><time>2026-04-27T16:23:24Z</time></trkpt><trkpt lat="42.47903670970038" lon="0.7187259372855174"><ele>989.0</ele><time>2026-04-27T16:23:25Z</time></trkpt><trkpt lat="42.47914612512049" lon="0.7187291690232359"><ele>989.0</ele><time>2026-04-27T16:23:26Z</time></trkpt><trkpt lat="42.479250724014065" lon="0.7187301316112344"><ele>989.0000000000001</ele><time>2026-04-27T16:23:27Z</time></trkpt><trkpt lat="42.479354339698304" lon="0.7187401583566275"><ele>989.0000000000001</ele><time>2026-04-27T16:23:28Z</time></trkpt><trkpt lat="42.47945890990065" lon="0.7187363109733672"><ele>989.0</ele><time>2026-04-27T16:23:29Z</time></trkpt><trkpt lat="42.47956817915239" lon="0.7187511156164924"><ele>989.0</ele><time>2026-04-27T16:23:30Z</time></trkpt><trkpt lat="42.47967482245669" lon="0.7187553095969129"><ele>989.0</ele><time>2026-04-27T16:23:31Z</time></trkpt><trkpt lat="42.479780668972204" lon="0.7187615589758758"><ele>989.0000000000001</ele><time>2026-04-27T16:23:32Z</time></trkpt><trkpt lat="42.4798902730879" lon="0.7187667723500848"><ele>989.0000000000001</ele><time>2026-04-27T16:23:33Z</time></trkpt><trkpt lat="42.47999778513456" lon="0.7187762056765846"><ele>989.0</ele><time>2026-04-27T16:23:34Z</time></trkpt><trkpt lat="42.48010439897393" lon="0.7187802488481096"><ele>989.0</ele><time>2026-04-27T16:23:35Z</time></trkpt><trkpt lat="42.480212860469884" lon="0.7187839420569075"><ele>989.0</ele><time>2026-04-27T16:23:36Z</time></trkpt><trkpt lat="42.480319412003695" lon="0.7187932798916342"><ele>989.0000000000001</ele><time>2026-04-27T16:23:37Z</time></trkpt><trkpt lat="42.480426825232776" lon="0.7188022888896939"><ele>989.0000000000001</ele><time>2026-04-27T16:23:38Z</time></trkpt><trkpt lat="42.48053810422555" lon="0.7188053948013214"><ele>989.0</ele><time>2026-04-27T16:23:39Z</time></trkpt><trkpt lat="42.48064609572859" lon="0.7188144223014568"><ele>989.0</ele><time>2026-04-27T16:23:40Z</time></trkpt><trkpt lat="42.48075649038385" lon="0.7188215044605285"><ele>989.2</ele><time>2026-04-27T16:23:41Z</time></trkpt><trkpt lat="42.4808651588387" lon="0.7188343117929641"><ele>989.4000000000001</ele><time>2026-04-27T16:23:42Z</time></trkpt><trkpt lat="42.48097538853657" lon="0.718840404722748"><ele>989.6</ele><time>2026-04-27T16:23:43Z</time></trkpt><trkpt lat="42.48108280493586" lon="0.718852022944099"><ele>989.8</ele><time>2026-04-27T16:23:44Z</time></trkpt><trkpt lat="42.481191673230896" lon="0.7188556260659503"><ele>990.0</ele><time>2026-04-27T16:23:45Z</time></trkpt><trkpt lat="42.481302034966326" lon="0.7188622196827076"><ele>990.0</ele><time>2026-04-27T16:23:46Z</time></trkpt><trkpt lat="42.48141465431688" lon="0.7188683371136574"><ele>990.0</ele><time>2026-04-27T16:23:47Z</time></trkpt><trkpt lat="42.481522479706626" lon="0.7188773612172876"><ele>990.0</ele><time>2026-04-27T16:23:48Z</time></trkpt><trkpt lat="42.481631819064376" lon="0.7188842109677349"><ele>990.0</ele><time>2026-04-27T16:23:49Z</time></trkpt><trkpt lat="42.48174016027206" lon="0.718895910773122"><ele>990.0</ele><time>2026-04-27T16:23:50Z</time></trkpt><trkpt lat="42.48185068547546" lon="0.7189004287931056"><ele>990.0</ele><time>2026-04-27T16:23:51Z</time></trkpt><trkpt lat="42.48196167612714" lon="0.7189102433110528"><ele>990.0</ele><time>2026-04-27T16:23:52Z</time></trkpt><trkpt lat="42.48206714908883" lon="0.7189254861812231"><ele>990.0</ele><time>2026-04-27T16:23:53Z</time></trkpt><trkpt lat="42.48217708040838" lon="0.7189278909568186"><ele>990.0</ele><time>2026-04-27T16:23:54Z</time></trkpt><trkpt lat="42.482285654596865" lon="0.7189358644460114"><ele>990.0</ele><time>2026-04-27T16:23:55Z</time></trkpt><trkpt lat="42.48239180921959" lon="0.718941153171014"><ele>991.2</ele><time>2026-04-27T16:23:56Z</time></trkpt><trkpt lat="42.48249990228066" lon="0.7189496348280677"><ele>992.4</ele><time>2026-04-27T16:23:57Z</time></trkpt><trkpt lat="42.48261055478056" lon="0.7189566447617575"><ele>993.5999999999999</ele><time>2026-04-27T16:23:58Z</time></trkpt><trkpt lat="42.48271574844239" lon="0.7189657413558651"><ele>994.8</ele><time>2026-04-27T16:23:59Z</time></trkpt><trkpt lat="42.482822276645116" lon="0.7189676900913308"><ele>996.0</ele><time>2026-04-27T16:24:00Z</time></trkpt><trkpt lat="42.482925288800516" lon="0.7189684531417739"><ele>997.5999999999999</ele><time>2026-04-27T16:24:01Z</time></trkpt><trkpt lat="42.48303221478846" lon="0.7189691745829359"><ele>999.1999999999999</ele><time>2026-04-27T16:24:02Z</time></trkpt><trkpt lat="42.48313439563275" lon="0.7189598517460535"><ele>1000.8000000000001</ele><time>2026-04-27T16:24:03Z</time></trkpt><trkpt lat="42.483235041597105" lon="0.7189428333382074"><ele>1002.4000000000001</ele><time>2026-04-27T16:24:04Z</time></trkpt><trkpt lat="42.483335044954664" lon="0.7189160363181738"><ele>1004.0</ele><time>2026-04-27T16:24:05Z</time></trkpt><trkpt lat="42.48343135345819" lon="0.7188748879701645"><ele>1004.0</ele><time>2026-04-27T16:24:06Z</time></trkpt><trkpt lat="42.48352956273788" lon="0.7188424603917308"><ele>1004.0000000000001</ele><time>2026-04-27T16:24:07Z</time></trkpt><trkpt lat="42.483627937509574" lon="0.7188035019218456"><ele>1004.0000000000001</ele><time>2026-04-27T16:24:08Z</time></trkpt><trkpt lat="42.483723720193844" lon="0.7187623178342956"><ele>1004.0</ele><time>2026-04-27T16:24:09Z</time></trkpt><trkpt lat="42.48382134129229" lon="0.7187235159167632"><ele>1004.0</ele><time>2026-04-27T16:24:10Z</time></trkpt><trkpt lat="42.4839166138191" lon="0.7186808042417384"><ele>1003.4000000000001</ele><time>2026-04-27T16:24:11Z</time></trkpt><trkpt lat="42.484013238897674" lon="0.7186410884034853"><ele>1002.8000000000001</ele><time>2026-04-27T16:24:12Z</time></trkpt><trkpt lat="42.484109798467166" lon="0.7185995246357084"><ele>1002.1999999999999</ele><time>2026-04-27T16:24:13Z</time></trkpt><trkpt lat="42.48420641621661" lon="0.7185594034041116"><ele>1001.5999999999999</ele><time>2026-04-27T16:24:14Z</time></trkpt><trkpt lat="42.48430668691545" lon="0.7185238045328173"><ele>1001.0</ele><time>2026-04-27T16:24:15Z</time></trkpt><trkpt lat="42.48440422502782" lon="0.7184784825883216"><ele>999.4</ele><time>2026-04-27T16:24:16Z</time></trkpt><trkpt lat="42.48450452752194" lon="0.7184464101307613"><ele>997.8</ele><time>2026-04-27T16:24:17Z</time></trkpt><trkpt lat="42.48460903722544" lon="0.7183968902319946"><ele>996.1999999999999</ele><time>2026-04-27T16:24:18Z</time></trkpt><trkpt lat="42.48470947756901" lon="0.7183527015361072"><ele>994.5999999999999</ele><time>2026-04-27T16:24:19Z</time></trkpt><trkpt lat="42.484810451478694" lon="0.7183161858173865"><ele>993.0</ele><time>2026-04-27T16:24:20Z</time></trkpt><trkpt lat="42.484913179082774" lon="0.7182710767164442"><ele>993.0</ele><time>2026-04-27T16:24:21Z</time></trkpt><trkpt lat="42.48501484718629" lon="0.7182337877731302"><ele>993.0</ele><time>2026-04-27T16:24:22Z</time></trkpt><trkpt lat="42.485114366084815" lon="0.7181924650173208"><ele>993.0</ele><time>2026-04-27T16:24:23Z</time></trkpt><trkpt lat="42.48521530700915" lon="0.7181487197464989"><ele>993.0</ele><time>2026-04-27T16:24:24Z</time></trkpt><trkpt lat="42.48531589917712" lon="0.7181056292960695"><ele>993.0</ele><time>2026-04-27T16:24:25Z</time></trkpt><trkpt lat="42.485419272528475" lon="0.7180711611607965"><ele>994.2</ele><time>2026-04-27T16:24:26Z</time></trkpt><trkpt lat="42.48551943490009" lon="0.7180227035366772"><ele>995.4</ele><time>2026-04-27T16:24:27Z</time></trkpt><trkpt lat="42.485619822192426" lon="0.7179773330377651"><ele>996.6000000000001</ele><time>2026-04-27T16:24:28Z</time></trkpt><trkpt lat="42.485720449805086" lon="0.7179371807124155"><ele>997.8000000000001</ele><time>2026-04-27T16:24:29Z</time></trkpt><trkpt lat="42.48581898806807" lon="0.7178952474961313"><ele>999.0</ele><time>2026-04-27T16:24:30Z</time></trkpt><trkpt lat="42.485921535373365" lon="0.7178597169348083"><ele>999.0</ele><time>2026-04-27T16:24:31Z</time></trkpt><trkpt lat="42.48602450775802" lon="0.7178414234848743"><ele>999.0000000000001</ele><time>2026-04-27T16:24:32Z</time></trkpt><trkpt lat="42.48613005868089" lon="0.7178345643226168"><ele>999.0000000000001</ele><time>2026-04-27T16:24:33Z</time></trkpt><trkpt lat="42.48623514816217" lon="0.717849361111559"><ele>999.0</ele><time>2026-04-27T16:24:34Z</time></trkpt><trkpt lat="42.48633641792781" lon="0.7178685285542669"><ele>999.0</ele><time>2026-04-27T16:24:35Z</time></trkpt><trkpt lat="42.486439376283876" lon="0.7178983535401371"><ele>998.8000000000001</ele><time>2026-04-27T16:24:36Z</time></trkpt><trkpt lat="42.48654266235483" lon="0.7179302960809777"><ele>998.6000000000001</ele><time>2026-04-27T16:24:37Z</time></trkpt><trkpt lat="42.48664366916247" lon="0.7179671024065862"><ele>998.4</ele><time>2026-04-27T16:24:38Z</time></trkpt><trkpt lat="42.48674835400016" lon="0.7180044171198935"><ele>998.2</ele><time>2026-04-27T16:24:39Z</time></trkpt><trkpt lat="42.48685463379624" lon="0.7180371019344025"><ele>998.0</ele><time>2026-04-27T16:24:40Z</time></trkpt><trkpt lat="42.48695477673481" lon="0.7180731457816919"><ele>998.0</ele><time>2026-04-27T16:24:41Z</time></trkpt><trkpt lat="42.48706032440016" lon="0.7181065834996996"><ele>998.0</ele><time>2026-04-27T16:24:42Z</time></trkpt><trkpt lat="42.48716450681269" lon="0.7181434164488913"><ele>998.0</ele><time>2026-04-27T16:24:43Z</time></trkpt><trkpt lat="42.48726894683955" lon="0.7181773822941229"><ele>998.0</ele><time>2026-04-27T16:24:44Z</time></trkpt><trkpt lat="42.48737343443617" lon="0.7182105276205899"><ele>998.0</ele><time>2026-04-27T16:24:45Z</time></trkpt><trkpt lat="42.48747965534736" lon="0.7182445164881635"><ele>998.0</ele><time>2026-04-27T16:24:46Z</time></trkpt><trkpt lat="42.48758392011527" lon="0.7182828817738651"><ele>998.0</ele><time>2026-04-27T16:24:47Z</time></trkpt><trkpt lat="42.487687908347716" lon="0.7183182484274386"><ele>998.0</ele><time>2026-04-27T16:24:48Z</time></trkpt><trkpt lat="42.48779152898748" lon="0.7183528402444437"><ele>998.0</ele><time>2026-04-27T16:24:49Z</time></trkpt><trkpt lat="42.48789424041366" lon="0.7183898130002987"><ele>998.0</ele><time>2026-04-27T16:24:50Z</time></trkpt><trkpt lat="42.487996646305206" lon="0.7184110919505299"><ele>997.4</ele><time>2026-04-27T16:24:51Z</time></trkpt><trkpt lat="42.488100554167666" lon="0.7184408743693699"><ele>996.8</ele><time>2026-04-27T16:24:52Z</time></trkpt><trkpt lat="42.488204352370026" lon="0.7184619482856861"><ele>996.2</ele><time>2026-04-27T16:24:53Z</time></trkpt><trkpt lat="42.48830621331563" lon="0.7184730696771774"><ele>995.6</ele><time>2026-04-27T16:24:54Z</time></trkpt><trkpt lat="42.488410652692075" lon="0.7185007710263093"><ele>995.0</ele><time>2026-04-27T16:24:55Z</time></trkpt><trkpt lat="42.48851775563167" lon="0.7184936855471478"><ele>995.0</ele><time>2026-04-27T16:24:56Z</time></trkpt><trkpt lat="42.488625347388776" lon="0.718507987938644"><ele>995.0</ele><time>2026-04-27T16:24:57Z</time></trkpt><trkpt lat="42.48873206539903" lon="0.7185099525052522"><ele>995.0</ele><time>2026-04-27T16:24:58Z</time></trkpt><trkpt lat="42.488840769105934" lon="0.7185187990188218"><ele>995.0</ele><time>2026-04-27T16:24:59Z</time></trkpt><trkpt lat="42.48894515126599" lon="0.7185288988364192"><ele>995.0</ele><time>2026-04-27T16:25:00Z</time></trkpt><trkpt lat="42.489051257011255" lon="0.7185344950550616"><ele>995.4</ele><time>2026-04-27T16:25:01Z</time></trkpt><trkpt lat="42.48915872785366" lon="0.7185402512791287"><ele>995.8</ele><time>2026-04-27T16:25:02Z</time></trkpt><trkpt lat="42.48926332505422" lon="0.7185492752270266"><ele>996.2</ele><time>2026-04-27T16:25:03Z</time></trkpt><trkpt lat="42.48936787591932" lon="0.7185524273941589"><ele>996.6</ele><time>2026-04-27T16:25:04Z</time></trkpt><trkpt lat="42.489472209711614" lon="0.7185472886853096"><ele>997.0</ele><time>2026-04-27T16:25:05Z</time></trkpt><trkpt lat="42.48957824903298" lon="0.7185410949788226"><ele>996.8</ele><time>2026-04-27T16:25:06Z</time></trkpt><trkpt lat="42.489683380224406" lon="0.7185249192937013"><ele>996.6</ele><time>2026-04-27T16:25:07Z</time></trkpt><trkpt lat="42.48979054755705" lon="0.7185034157503888"><ele>996.3999999999999</ele><time>2026-04-27T16:25:08Z</time></trkpt><trkpt lat="42.48989951257649" lon="0.7184806977942313"><ele>996.1999999999999</ele><time>2026-04-27T16:25:09Z</time></trkpt><trkpt lat="42.49000867257592" lon="0.7184560225365257"><ele>996.0</ele><time>2026-04-27T16:25:10Z</time></trkpt><trkpt lat="42.49011499089424" lon="0.7184324814955892"><ele>996.0</ele><time>2026-04-27T16:25:11Z</time></trkpt><trkpt lat="42.490223410597345" lon="0.718410303366966"><ele>995.9999999999999</ele><time>2026-04-27T16:25:12Z</time></trkpt><trkpt lat="42.4903278143874" lon="0.7183847358268609"><ele>995.9999999999999</ele><time>2026-04-27T16:25:13Z</time></trkpt><trkpt lat="42.49043343793993" lon="0.7183616944218905"><ele>996.0</ele><time>2026-04-27T16:25:14Z</time></trkpt><trkpt lat="42.4905385112078" lon="0.7183394737064179"><ele>996.0</ele><time>2026-04-27T16:25:15Z</time></trkpt><trkpt lat="42.49064425160245" lon="0.7183177030173434"><ele>996.8</ele><time>2026-04-27T16:25:16Z</time></trkpt><trkpt lat="42.4907498771619" lon="0.7182989467150792"><ele>997.5999999999999</ele><time>2026-04-27T16:25:17Z</time></trkpt><trkpt lat="42.49085624100812" lon="0.7182882360388341"><ele>998.4</ele><time>2026-04-27T16:25:18Z</time></trkpt><trkpt lat="42.49096536716719" lon="0.718281955341574"><ele>999.2</ele><time>2026-04-27T16:25:19Z</time></trkpt><trkpt lat="42.49107456518474" lon="0.7182810350661498"><ele>1000.0</ele><time>2026-04-27T16:25:20Z</time></trkpt><trkpt lat="42.491184065545376" lon="0.7182826990919743"><ele>999.8</ele><time>2026-04-27T16:25:21Z</time></trkpt><trkpt lat="42.491292164323" lon="0.7182833142196227"><ele>999.6</ele><time>2026-04-27T16:25:22Z</time></trkpt><trkpt lat="42.49140040980477" lon="0.7182821044444477"><ele>999.4000000000001</ele><time>2026-04-27T16:25:23Z</time></trkpt><trkpt lat="42.491510271195125" lon="0.7182773576448218"><ele>999.2</ele><time>2026-04-27T16:25:24Z</time></trkpt><trkpt lat="42.491616699475415" lon="0.7182985936149028"><ele>999.0</ele><time>2026-04-27T16:25:25Z</time></trkpt><trkpt lat="42.49172333604778" lon="0.7182755787186262"><ele>999.0</ele><time>2026-04-27T16:25:26Z</time></trkpt><trkpt lat="42.49183003384498" lon="0.7182777174369663"><ele>999.0000000000001</ele><time>2026-04-27T16:25:27Z</time></trkpt><trkpt lat="42.49193741805983" lon="0.7182777082150089"><ele>999.0000000000001</ele><time>2026-04-27T16:25:28Z</time></trkpt><trkpt lat="42.49204309634177" lon="0.7182765686846162"><ele>999.0</ele><time>2026-04-27T16:25:29Z</time></trkpt><trkpt lat="42.4921510682311" lon="0.7182766943470383"><ele>999.0</ele><time>2026-04-27T16:25:30Z</time></trkpt><trkpt lat="42.49225875013892" lon="0.7182758139475792"><ele>999.2</ele><time>2026-04-27T16:25:31Z</time></trkpt><trkpt lat="42.492365288503464" lon="0.7182774424575856"><ele>999.4000000000001</ele><time>2026-04-27T16:25:32Z</time></trkpt><trkpt lat="42.49247197334272" lon="0.7182766865986734"><ele>999.6</ele><time>2026-04-27T16:25:33Z</time></trkpt><trkpt lat="42.49257802421971" lon="0.7182744423950986"><ele>999.8</ele><time>2026-04-27T16:25:34Z</time></trkpt><trkpt lat="42.492685088510505" lon="0.7182724422045172"><ele>1000.0</ele><time>2026-04-27T16:25:35Z</time></trkpt><trkpt lat="42.492792431016206" lon="0.7182709133747206"><ele>1000.0</ele><time>2026-04-27T16:25:36Z</time></trkpt><trkpt lat="42.4928984149355" lon="0.7182636580427232"><ele>1000.0</ele><time>2026-04-27T16:25:37Z</time></trkpt><trkpt lat="42.493003792678124" lon="0.7182413051808291"><ele>1000.0</ele><time>2026-04-27T16:25:38Z</time></trkpt><trkpt lat="42.493107211598705" lon="0.7182074112280904"><ele>1000.0</ele><time>2026-04-27T16:25:39Z</time></trkpt><trkpt lat="42.49320814370504" lon="0.7181694638112167"><ele>1000.0</ele><time>2026-04-27T16:25:40Z</time></trkpt><trkpt lat="42.49331128031627" lon="0.7181301777446517"><ele>1001.2</ele><time>2026-04-27T16:25:41Z</time></trkpt><trkpt lat="42.49341482920778" lon="0.7180913977798183"><ele>1002.4</ele><time>2026-04-27T16:25:42Z</time></trkpt><trkpt lat="42.49351891648333" lon="0.7180532851564911"><ele>1003.5999999999999</ele><time>2026-04-27T16:25:43Z</time></trkpt><trkpt lat="42.49362505297792" lon="0.7180122432099074"><ele>1004.8</ele><time>2026-04-27T16:25:44Z</time></trkpt><trkpt lat="42.49372932618259" lon="0.7179722195134361"><ele>1006.0</ele><time>2026-04-27T16:25:45Z</time></trkpt><trkpt lat="42.49383527019655" lon="0.7179347858772465"><ele>1007.4</ele><time>2026-04-27T16:25:46Z</time></trkpt><trkpt lat="42.49394091909972" lon="0.7179043275209132"><ele>1008.8</ele><time>2026-04-27T16:25:47Z</time></trkpt><trkpt lat="42.494047514985716" lon="0.7178853813040141"><ele>1010.1999999999999</ele><time>2026-04-27T16:25:48Z</time></trkpt><trkpt lat="42.49415731790656" lon="0.717870383302011"><ele>1011.5999999999999</ele><time>2026-04-27T16:25:49Z</time></trkpt><trkpt lat="42.494266555767986" lon="0.7178589809940139"><ele>1013.0</ele><time>2026-04-27T16:25:50Z</time></trkpt><trkpt lat="42.49437578907581" lon="0.7178484979835087"><ele>1013.0</ele><time>2026-04-27T16:25:51Z</time></trkpt><trkpt lat="42.49448582023039" lon="0.717843709062411"><ele>1013.0</ele><time>2026-04-27T16:25:52Z</time></trkpt><trkpt lat="42.494596481765086" lon="0.7178405440038732"><ele>1013.0</ele><time>2026-04-27T16:25:53Z</time></trkpt><trkpt lat="42.494706582628844" lon="0.7178338776178732"><ele>1013.0</ele><time>2026-04-27T16:25:54Z</time></trkpt><trkpt lat="42.4948138182854" lon="0.7178292582066917"><ele>1013.0</ele><time>2026-04-27T16:25:55Z</time></trkpt><trkpt lat="42.49492197704644" lon="0.7178248222262372"><ele>1012.8</ele><time>2026-04-27T16:25:56Z</time></trkpt><trkpt lat="42.49502899417459" lon="0.7178178452477268"><ele>1012.5999999999999</ele><time>2026-04-27T16:25:57Z</time></trkpt><trkpt lat="42.49513874607397" lon="0.7178075214238484"><ele>1012.4000000000001</ele><time>2026-04-27T16:25:58Z</time></trkpt><trkpt lat="42.49524834746646" lon="0.7177997307215558"><ele>1012.2</ele><time>2026-04-27T16:25:59Z</time></trkpt><trkpt lat="42.495357215873156" lon="0.7177905310956996"><ele>1012.0</ele><time>2026-04-27T16:26:00Z</time></trkpt><trkpt lat="42.49546589930665" lon="0.7177773789002533"><ele>1011.2</ele><time>2026-04-27T16:26:01Z</time></trkpt><trkpt lat="42.49557525278193" lon="0.7177700626339891"><ele>1010.4000000000001</ele><time>2026-04-27T16:26:02Z</time></trkpt><trkpt lat="42.49568347951638" lon="0.7177587057409724"><ele>1009.5999999999999</ele><time>2026-04-27T16:26:03Z</time></trkpt><trkpt lat="42.49579045894483" lon="0.7177504963817429"><ele>1008.8</ele><time>2026-04-27T16:26:04Z</time></trkpt><trkpt lat="42.49589687370869" lon="0.7177430628796437"><ele>1008.0</ele><time>2026-04-27T16:26:05Z</time></trkpt><trkpt lat="42.496003887427406" lon="0.717734005720511"><ele>1005.4</ele><time>2026-04-27T16:26:06Z</time></trkpt><trkpt lat="42.49610962391419" lon="0.7177247067036258"><ele>1002.8</ele><time>2026-04-27T16:26:07Z</time></trkpt><trkpt lat="42.49621605589646" lon="0.7177189131776034"><ele>1000.2</ele><time>2026-04-27T16:26:08Z</time></trkpt><trkpt lat="42.49632297308838" lon="0.7177110355190196"><ele>997.6</ele><time>2026-04-27T16:26:09Z</time></trkpt><trkpt lat="42.496427996546416" lon="0.7177041593079393"><ele>995.0</ele><time>2026-04-27T16:26:10Z</time></trkpt><trkpt lat="42.496533232270146" lon="0.7176958112573686"><ele>995.0</ele><time>2026-04-27T16:26:11Z</time></trkpt><trkpt lat="42.496638258098976" lon="0.7176891627720122"><ele>995.0</ele><time>2026-04-27T16:26:12Z</time></trkpt><trkpt lat="42.49674681294856" lon="0.7176859772371036"><ele>995.0</ele><time>2026-04-27T16:26:13Z</time></trkpt><trkpt lat="42.49685411178231" lon="0.7176773549987421"><ele>995.0</ele><time>2026-04-27T16:26:14Z</time></trkpt><trkpt lat="42.49696205978489" lon="0.7176675069231491"><ele>995.0</ele><time>2026-04-27T16:26:15Z</time></trkpt><trkpt lat="42.497070045251164" lon="0.7176590993191805"><ele>995.8</ele><time>2026-04-27T16:26:16Z</time></trkpt><trkpt lat="42.49717836970157" lon="0.7176488664669737"><ele>996.6</ele><time>2026-04-27T16:26:17Z</time></trkpt><trkpt lat="42.49728703754401" lon="0.7176421784389833"><ele>997.4000000000001</ele><time>2026-04-27T16:26:18Z</time></trkpt><trkpt lat="42.49739470008124" lon="0.7176324539958687"><ele>998.2</ele><time>2026-04-27T16:26:19Z</time></trkpt><trkpt lat="42.49750321603711" lon="0.7176252565780289"><ele>999.0</ele><time>2026-04-27T16:26:20Z</time></trkpt><trkpt lat="42.4976136255744" lon="0.7176174389714833"><ele>999.0</ele><time>2026-04-27T16:26:21Z</time></trkpt><trkpt lat="42.49772302084691" lon="0.7176095611894336"><ele>999.0000000000001</ele><time>2026-04-27T16:26:22Z</time></trkpt><trkpt lat="42.497832807167825" lon="0.7176001614730991"><ele>999.0000000000001</ele><time>2026-04-27T16:26:23Z</time></trkpt><trkpt lat="42.49794224835306" lon="0.7175890201468086"><ele>999.0</ele><time>2026-04-27T16:26:24Z</time></trkpt><trkpt lat="42.49805112662009" lon="0.7175776208935294"><ele>999.0</ele><time>2026-04-27T16:26:25Z</time></trkpt><trkpt lat="42.498159444041804" lon="0.7175675313191449"><ele>999.4000000000001</ele><time>2026-04-27T16:26:26Z</time></trkpt><trkpt lat="42.4982683507587" lon="0.7175582320825099"><ele>999.8000000000001</ele><time>2026-04-27T16:26:27Z</time></trkpt><trkpt lat="42.498376732255245" lon="0.7175505368631859"><ele>1000.1999999999999</ele><time>2026-04-27T16:26:28Z</time></trkpt><trkpt lat="42.498485740721904" lon="0.7175444514492935"><ele>1000.5999999999999</ele><time>2026-04-27T16:26:29Z</time></trkpt><trkpt lat="42.498595063014655" lon="0.7175323720085046"><ele>1001.0</ele><time>2026-04-27T16:26:30Z</time></trkpt><trkpt lat="42.498702490568604" lon="0.7175173974844531"><ele>1001.8</ele><time>2026-04-27T16:26:31Z</time></trkpt><trkpt lat="42.498810683299425" lon="0.7174970930374124"><ele>1002.5999999999999</ele><time>2026-04-27T16:26:32Z</time></trkpt><trkpt lat="42.49891678427005" lon="0.717471157656396"><ele>1003.4</ele><time>2026-04-27T16:26:33Z</time></trkpt><trkpt lat="42.49902265463014" lon="0.7174394316526087"><ele>1004.2</ele><time>2026-04-27T16:26:34Z</time></trkpt><trkpt lat="42.49912899025946" lon="0.7174110251344488"><ele>1005.0</ele><time>2026-04-27T16:26:35Z</time></trkpt><trkpt lat="42.499239076030015" lon="0.7173980539819305"><ele>1005.0</ele><time>2026-04-27T16:26:36Z</time></trkpt><trkpt lat="42.49934715595758" lon="0.7173679019289435"><ele>1005.0</ele><time>2026-04-27T16:26:37Z</time></trkpt><trkpt lat="42.49945293140706" lon="0.7173217498797293"><ele>1005.0</ele><time>2026-04-27T16:26:38Z</time></trkpt><trkpt lat="42.49956194449858" lon="0.7172914054585516"><ele>1005.0</ele><time>2026-04-27T16:26:39Z</time></trkpt><trkpt lat="42.49966891916034" lon="0.717263269661482"><ele>1005.0</ele><time>2026-04-27T16:26:40Z</time></trkpt><trkpt lat="42.49977733035878" lon="0.7172291128463564"><ele>1006.0</ele><time>2026-04-27T16:26:41Z</time></trkpt><trkpt lat="42.49988559796032" lon="0.717204818574531"><ele>1007.0</ele><time>2026-04-27T16:26:42Z</time></trkpt><trkpt lat="42.4999931800219" lon="0.7171737338314089"><ele>1008.0</ele><time>2026-04-27T16:26:43Z</time></trkpt><trkpt lat="42.50010026076063" lon="0.7171446518062521"><ele>1009.0</ele><time>2026-04-27T16:26:44Z</time></trkpt><trkpt lat="42.50020894688391" lon="0.7171130188954015"><ele>1010.0</ele><time>2026-04-27T16:26:45Z</time></trkpt><trkpt lat="42.500316560615445" lon="0.7170831700543112"><ele>1010.2</ele><time>2026-04-27T16:26:46Z</time></trkpt><trkpt lat="42.50042363010469" lon="0.7170541915465581"><ele>1010.4</ele><time>2026-04-27T16:26:47Z</time></trkpt><trkpt lat="42.5005334738196" lon="0.7170270599543098"><ele>1010.5999999999999</ele><time>2026-04-27T16:26:48Z</time></trkpt><trkpt lat="42.500640306180145" lon="0.7169965371073772"><ele>1010.8</ele><time>2026-04-27T16:26:49Z</time></trkpt><trkpt lat="42.50074697541145" lon="0.7169672862653987"><ele>1011.0</ele><time>2026-04-27T16:26:50Z</time></trkpt><trkpt lat="42.50085405928342" lon="0.7169372681807864"><ele>1011.0</ele><time>2026-04-27T16:26:51Z</time></trkpt><trkpt lat="42.500961574482496" lon="0.7169074259334316"><ele>1010.9999999999999</ele><time>2026-04-27T16:26:52Z</time></trkpt><trkpt lat="42.50106868997988" lon="0.7168773024907877"><ele>1010.9999999999999</ele><time>2026-04-27T16:26:53Z</time></trkpt><trkpt lat="42.50117425015693" lon="0.7168488659062998"><ele>1011.0</ele><time>2026-04-27T16:26:54Z</time></trkpt><trkpt lat="42.50128182966167" lon="0.7168193478706688"><ele>1011.0</ele><time>2026-04-27T16:26:55Z</time></trkpt><trkpt lat="42.50138802398169" lon="0.7167889784342975"><ele>1008.1999999999999</ele><time>2026-04-27T16:26:56Z</time></trkpt><trkpt lat="42.50149729227159" lon="0.7167813713434437"><ele>1005.3999999999999</ele><time>2026-04-27T16:26:57Z</time></trkpt><trkpt lat="42.50160029327914" lon="0.7167335722625574"><ele>1002.6</ele><time>2026-04-27T16:26:58Z</time></trkpt><trkpt lat="42.50171072793195" lon="0.7167234172649211"><ele>999.8</ele><time>2026-04-27T16:26:59Z</time></trkpt><trkpt lat="42.50181415030604" lon="0.7166737907467288"><ele>997.0</ele><time>2026-04-27T16:27:00Z</time></trkpt><trkpt lat="42.50192105134592" lon="0.7166443948922343"><ele>997.0</ele><time>2026-04-27T16:27:01Z</time></trkpt><trkpt lat="42.502029022481594" lon="0.7166147922250748"><ele>997.0</ele><time>2026-04-27T16:27:02Z</time></trkpt><trkpt lat="42.50213834892805" lon="0.716606963286573"><ele>997.0</ele><time>2026-04-27T16:27:03Z</time></trkpt><trkpt lat="42.50224461161815" lon="0.716577890155669"><ele>997.0</ele><time>2026-04-27T16:27:04Z</time></trkpt><trkpt lat="42.5023469025756" lon="0.71654990367041"><ele>997.0</ele><time>2026-04-27T16:27:05Z</time></trkpt><trkpt lat="42.50244913104006" lon="0.7165219342855195"><ele>998.6</ele><time>2026-04-27T16:27:06Z</time></trkpt><trkpt lat="42.50254890700415" lon="0.7164946358969494"><ele>1000.2</ele><time>2026-04-27T16:27:07Z</time></trkpt><trkpt lat="42.50265027687668" lon="0.7164669014096996"><ele>1001.8</ele><time>2026-04-27T16:27:08Z</time></trkpt><trkpt lat="42.50275073713948" lon="0.7164378173951552"><ele>1003.4</ele><time>2026-04-27T16:27:09Z</time></trkpt><trkpt lat="42.50285180890096" lon="0.7164062182810151"><ele>1005.0</ele><time>2026-04-27T16:27:10Z</time></trkpt><trkpt lat="42.502950129705994" lon="0.7163698706398323"><ele>1006.8</ele><time>2026-04-27T16:27:11Z</time></trkpt><trkpt lat="42.503044754647334" lon="0.7163255802333833"><ele>1008.6</ele><time>2026-04-27T16:27:12Z</time></trkpt><trkpt lat="42.503137043271806" lon="0.7162720828651569"><ele>1010.4000000000001</ele><time>2026-04-27T16:27:13Z</time></trkpt><trkpt lat="42.50322355762925" lon="0.7162115969553611"><ele>1012.2</ele><time>2026-04-27T16:27:14Z</time></trkpt><trkpt lat="42.50330896864055" lon="0.7161470421432956"><ele>1014.0</ele><time>2026-04-27T16:27:15Z</time></trkpt><trkpt lat="42.50339523959592" lon="0.7160771659814469"><ele>1012.6</ele><time>2026-04-27T16:27:16Z</time></trkpt><trkpt lat="42.503471347367245" lon="0.7159896911644993"><ele>1011.2</ele><time>2026-04-27T16:27:17Z</time></trkpt><trkpt lat="42.50355768488547" lon="0.7159231860659855"><ele>1009.8000000000001</ele><time>2026-04-27T16:27:18Z</time></trkpt><trkpt lat="42.50364735279374" lon="0.7158570280684493"><ele>1008.4000000000001</ele><time>2026-04-27T16:27:19Z</time></trkpt><trkpt lat="42.50373559345934" lon="0.7157909354068042"><ele>1007.0</ele><time>2026-04-27T16:27:20Z</time></trkpt><trkpt lat="42.50382466143882" lon="0.715732357673688"><ele>1007.0</ele><time>2026-04-27T16:27:21Z</time></trkpt><trkpt lat="42.50391732582388" lon="0.7156840589953358"><ele>1007.0</ele><time>2026-04-27T16:27:22Z</time></trkpt><trkpt lat="42.50401040715193" lon="0.7156477290135289"><ele>1007.0</ele><time>2026-04-27T16:27:23Z</time></trkpt><trkpt lat="42.50410396343353" lon="0.7156221537437724"><ele>1007.0</ele><time>2026-04-27T16:27:24Z</time></trkpt><trkpt lat="42.50419861582869" lon="0.7156091729837886"><ele>1007.0</ele><time>2026-04-27T16:27:25Z</time></trkpt><trkpt lat="42.50429218336698" lon="0.7156095317501884"><ele>1007.0</ele><time>2026-04-27T16:27:26Z</time></trkpt><trkpt lat="42.50438826169163" lon="0.7156329816153763"><ele>1007.0</ele><time>2026-04-27T16:27:27Z</time></trkpt><trkpt lat="42.504482107231816" lon="0.7156764961188296"><ele>1007.0</ele><time>2026-04-27T16:27:28Z</time></trkpt><trkpt lat="42.50457437470878" lon="0.7157340311119217"><ele>1007.0</ele><time>2026-04-27T16:27:29Z</time></trkpt><trkpt lat="42.504664044160755" lon="0.7158098070292161"><ele>1007.0</ele><time>2026-04-27T16:27:30Z</time></trkpt><trkpt lat="42.50474532414543" lon="0.7158942730272702"><ele>1008.2</ele><time>2026-04-27T16:27:31Z</time></trkpt><trkpt lat="42.50482014514901" lon="0.7159971117610567"><ele>1009.4000000000001</ele><time>2026-04-27T16:27:32Z</time></trkpt><trkpt lat="42.504892370248164" lon="0.7161027343678141"><ele>1010.5999999999999</ele><time>2026-04-27T16:27:33Z</time></trkpt><trkpt lat="42.504963392623566" lon="0.7162131748631495"><ele>1011.8</ele><time>2026-04-27T16:27:34Z</time></trkpt><trkpt lat="42.50503162415684" lon="0.7163237447653166"><ele>1013.0</ele><time>2026-04-27T16:27:35Z</time></trkpt><trkpt lat="42.50509726667682" lon="0.7164373864922559"><ele>1013.0</ele><time>2026-04-27T16:27:36Z</time></trkpt><trkpt lat="42.50516524312898" lon="0.7165515912435857"><ele>1013.0</ele><time>2026-04-27T16:27:37Z</time></trkpt><trkpt lat="42.50523636432413" lon="0.7166636670210654"><ele>1013.0</ele><time>2026-04-27T16:27:38Z</time></trkpt><trkpt lat="42.50530356602435" lon="0.716780418003755"><ele>1013.0</ele><time>2026-04-27T16:27:39Z</time></trkpt><trkpt lat="42.50537077925036" lon="0.7168954756908804"><ele>1013.0</ele><time>2026-04-27T16:27:40Z</time></trkpt><trkpt lat="42.50543787449022" lon="0.7170103209020182"><ele>1013.4</ele><time>2026-04-27T16:27:41Z</time></trkpt><trkpt lat="42.505505297103404" lon="0.7171263415327813"><ele>1013.8</ele><time>2026-04-27T16:27:42Z</time></trkpt><trkpt lat="42.50557368527371" lon="0.7172419387609409"><ele>1014.2</ele><time>2026-04-27T16:27:43Z</time></trkpt><trkpt lat="42.5056436300932" lon="0.7173544900256101"><ele>1014.6</ele><time>2026-04-27T16:27:44Z</time></trkpt><trkpt lat="42.505712572886225" lon="0.7174703923698159"><ele>1015.0</ele><time>2026-04-27T16:27:45Z</time></trkpt><trkpt lat="42.50578464870195" lon="0.7175830797355397"><ele>1015.0</ele><time>2026-04-27T16:27:46Z</time></trkpt><trkpt lat="42.50586178389965" lon="0.7176863183363932"><ele>1015.0</ele><time>2026-04-27T16:27:47Z</time></trkpt><trkpt lat="42.50593062758014" lon="0.7178064159297264"><ele>1015.0</ele><time>2026-04-27T16:27:48Z</time></trkpt><trkpt lat="42.50601286822665" lon="0.717903246812191"><ele>1015.0</ele><time>2026-04-27T16:27:49Z</time></trkpt><trkpt lat="42.50610411944008" lon="0.7179888313481568"><ele>1015.0</ele><time>2026-04-27T16:27:50Z</time></trkpt><trkpt lat="42.50620367177908" lon="0.7180561949970492"><ele>1013.4</ele><time>2026-04-27T16:27:51Z</time></trkpt><trkpt lat="42.50630474986813" lon="0.7181119563637819"><ele>1011.8</ele><time>2026-04-27T16:27:52Z</time></trkpt><trkpt lat="42.50640529654872" lon="0.7181606319029271"><ele>1010.2</ele><time>2026-04-27T16:27:53Z</time></trkpt><trkpt lat="42.506517398345345" lon="0.7181892809619204"><ele>1008.6</ele><time>2026-04-27T16:27:54Z</time></trkpt><trkpt lat="42.506624892806634" lon="0.7182108060981481"><ele>1007.0</ele><time>2026-04-27T16:27:55Z</time></trkpt><trkpt lat="42.50673390765857" lon="0.7182272882048325"><ele>1007.0</ele><time>2026-04-27T16:27:56Z</time></trkpt><trkpt lat="42.50684152149316" lon="0.7182412554749507"><ele>1007.0</ele><time>2026-04-27T16:27:57Z</time></trkpt><trkpt lat="42.506949225228226" lon="0.7182552344147297"><ele>1007.0</ele><time>2026-04-27T16:27:58Z</time></trkpt><trkpt lat="42.50705430628256" lon="0.718273045706938"><ele>1007.0</ele><time>2026-04-27T16:27:59Z</time></trkpt><trkpt lat="42.50715960443639" lon="0.718292926122118"><ele>1007.0</ele><time>2026-04-27T16:28:00Z</time></trkpt><trkpt lat="42.50726438744179" lon="0.7183049125997699"><ele>1007.8</ele><time>2026-04-27T16:28:01Z</time></trkpt><trkpt lat="42.50736953374583" lon="0.7183161345593415"><ele>1008.6</ele><time>2026-04-27T16:28:02Z</time></trkpt><trkpt lat="42.507469619390825" lon="0.7183251868049004"><ele>1009.3999999999999</ele><time>2026-04-27T16:28:03Z</time></trkpt><trkpt lat="42.50756773467304" lon="0.7183340608389637"><ele>1010.1999999999999</ele><time>2026-04-27T16:28:04Z</time></trkpt><trkpt lat="42.507665238099236" lon="0.7183428795355551"><ele>1011.0</ele><time>2026-04-27T16:28:05Z</time></trkpt><trkpt lat="42.507763154284476" lon="0.718351735565323"><ele>1011.0</ele><time>2026-04-27T16:28:06Z</time></trkpt><trkpt lat="42.50785846165613" lon="0.7183603556378103"><ele>1010.9999999999999</ele><time>2026-04-27T16:28:07Z</time></trkpt><trkpt lat="42.50795179914941" lon="0.7183473428912069"><ele>1010.9999999999999</ele><time>2026-04-27T16:28:08Z</time></trkpt><trkpt lat="42.508045278814436" lon="0.7183579963237662"><ele>1011.0</ele><time>2026-04-27T16:28:09Z</time></trkpt><trkpt lat="42.508137846963024" lon="0.7183700213193128"><ele>1011.0</ele><time>2026-04-27T16:28:10Z</time></trkpt><trkpt lat="42.508230264432434" lon="0.7183800786774486"><ele>1011.5999999999999</ele><time>2026-04-27T16:28:11Z</time></trkpt><trkpt lat="42.50831961573654" lon="0.7183912717408025"><ele>1012.1999999999999</ele><time>2026-04-27T16:28:12Z</time></trkpt><trkpt lat="42.50841055105583" lon="0.7184007170707485"><ele>1012.8000000000001</ele><time>2026-04-27T16:28:13Z</time></trkpt><trkpt lat="42.50850063403174" lon="0.7184096634179206"><ele>1013.4000000000001</ele><time>2026-04-27T16:28:14Z</time></trkpt><trkpt lat="42.508590682024256" lon="0.7184215345725238"><ele>1014.0</ele><time>2026-04-27T16:28:15Z</time></trkpt><trkpt lat="42.50867971754143" lon="0.7184331930989527"><ele>1015.3333333333334</ele><time>2026-04-27T16:28:16Z</time></trkpt><trkpt lat="42.50876756725068" lon="0.7184440430337058"><ele>1016.6666666666667</ele><time>2026-04-27T16:28:17Z</time></trkpt><trkpt lat="42.508855167035875" lon="0.718454644229924"><ele>1018.0</ele><time>2026-04-27T16:28:18Z</time></trkpt><trkpt lat="42.50894125756237" lon="0.7184659497667598"><ele>1019.3333333333334</ele><time>2026-04-27T16:28:19Z</time></trkpt><trkpt lat="42.50902850624466" lon="0.7184778957115916"><ele>1020.6666666666667</ele><time>2026-04-27T16:28:20Z</time></trkpt><trkpt lat="42.50911541009956" lon="0.7184895600016153"><ele>1022.0</ele><time>2026-04-27T16:28:21Z</time></trkpt><trkpt lat="42.50920250658461" lon="0.7184988795779577"><ele>1022.0000000000001</ele><time>2026-04-27T16:28:22Z</time></trkpt><trkpt lat="42.50928877440277" lon="0.7185078985647255"><ele>1022.0</ele><time>2026-04-27T16:28:23Z</time></trkpt><trkpt lat="42.509375214764205" lon="0.7185187325031177"><ele>1022.0</ele><time>2026-04-27T16:28:24Z</time></trkpt><trkpt lat="42.50946122682919" lon="0.7185289585394018"><ele>1022.0</ele><time>2026-04-27T16:28:25Z</time></trkpt><trkpt lat="42.5095465977443" lon="0.7185395474060907"><ele>1022.0000000000001</ele><time>2026-04-27T16:28:26Z</time></trkpt><trkpt lat="42.50963253656991" lon="0.7185471922883274"><ele>1022.0</ele><time>2026-04-27T16:28:27Z</time></trkpt><trkpt lat="42.50971781002185" lon="0.718549413321226"><ele>1022.8333333333334</ele><time>2026-04-27T16:28:28Z</time></trkpt><trkpt lat="42.50980213369377" lon="0.7185464510499645"><ele>1023.6666666666667</ele><time>2026-04-27T16:28:29Z</time></trkpt><trkpt lat="42.50988808838253" lon="0.718559529574031"><ele>1024.5</ele><time>2026-04-27T16:28:30Z</time></trkpt><trkpt lat="42.509971835566596" lon="0.7185234697651282"><ele>1025.3333333333333</ele><time>2026-04-27T16:28:31Z</time></trkpt><trkpt lat="42.5100541687278" lon="0.7185077105039633"><ele>1026.1666666666665</ele><time>2026-04-27T16:28:32Z</time></trkpt><trkpt lat="42.51013889795314" lon="0.7184881678815351"><ele>1027.0</ele><time>2026-04-27T16:28:33Z</time></trkpt><trkpt lat="42.51022007482602" lon="0.7184666872622693"><ele>1027.0</ele><time>2026-04-27T16:28:34Z</time></trkpt><trkpt lat="42.51030415546322" lon="0.7184449785892332"><ele>1027.0</ele><time>2026-04-27T16:28:35Z</time></trkpt><trkpt lat="42.51038875901242" lon="0.7184207776358846"><ele>1027.0</ele><time>2026-04-27T16:28:36Z</time></trkpt><trkpt lat="42.51047434122436" lon="0.7183957823558517"><ele>1027.0</ele><time>2026-04-27T16:28:37Z</time></trkpt><trkpt lat="42.51056125367442" lon="0.7183726780683313"><ele>1027.0</ele><time>2026-04-27T16:28:38Z</time></trkpt><trkpt lat="42.510651215261866" lon="0.7183481299876007"><ele>1027.0</ele><time>2026-04-27T16:28:39Z</time></trkpt><trkpt lat="42.51074046824457" lon="0.7183207520198017"><ele>1026.8</ele><time>2026-04-27T16:28:40Z</time></trkpt><trkpt lat="42.51083242739918" lon="0.7182938496572163"><ele>1026.6</ele><time>2026-04-27T16:28:41Z</time></trkpt><trkpt lat="42.510926860290965" lon="0.7182683400400198"><ele>1026.3999999999999</ele><time>2026-04-27T16:28:42Z</time></trkpt><trkpt lat="42.5110273602563" lon="0.718242284537994"><ele>1026.2</ele><time>2026-04-27T16:28:43Z</time></trkpt><trkpt lat="42.511126612505905" lon="0.7182151506999349"><ele>1026.0</ele><time>2026-04-27T16:28:44Z</time></trkpt><trkpt lat="42.511229003766076" lon="0.7181894520888679"><ele>1025.8</ele><time>2026-04-27T16:28:45Z</time></trkpt><trkpt lat="42.51133362307918" lon="0.7181618521913117"><ele>1025.6</ele><time>2026-04-27T16:28:46Z</time></trkpt><trkpt lat="42.511439909033896" lon="0.7181432568508699"><ele>1025.4</ele><time>2026-04-27T16:28:47Z</time></trkpt><trkpt lat="42.5115486690533" lon="0.718137384933248"><ele>1025.2</ele><time>2026-04-27T16:28:48Z</time></trkpt><trkpt lat="42.51166197272341" lon="0.7181392436066877"><ele>1025.0</ele><time>2026-04-27T16:28:49Z</time></trkpt><trkpt lat="42.511773595589354" lon="0.7181600401641556"><ele>1025.0</ele><time>2026-04-27T16:28:50Z</time></trkpt><trkpt lat="42.51188331045495" lon="0.7181975618764249"><ele>1025.0</ele><time>2026-04-27T16:28:51Z</time></trkpt><trkpt lat="42.51198742211196" lon="0.7182570513611084"><ele>1025.0</ele><time>2026-04-27T16:28:52Z</time></trkpt><trkpt lat="42.512090057190456" lon="0.7183250678646275"><ele>1025.0</ele><time>2026-04-27T16:28:53Z</time></trkpt><trkpt lat="42.51217519200725" lon="0.7184258246001001"><ele>1023.75</ele><time>2026-04-27T16:28:54Z</time></trkpt><trkpt lat="42.51227581216019" lon="0.7185120899144957"><ele>1022.5</ele><time>2026-04-27T16:28:55Z</time></trkpt><trkpt lat="42.51235814410926" lon="0.7186137153708329"><ele>1021.25</ele><time>2026-04-27T16:28:56Z</time></trkpt><trkpt lat="42.51244380489804" lon="0.7187153841325293"><ele>1020.0</ele><time>2026-04-27T16:28:57Z</time></trkpt><trkpt lat="42.512526162657956" lon="0.7188187181595098"><ele>1020.0</ele><time>2026-04-27T16:28:58Z</time></trkpt><trkpt lat="42.512608844114446" lon="0.7189250984501667"><ele>1020.0</ele><time>2026-04-27T16:28:59Z</time></trkpt><trkpt lat="42.512689101517346" lon="0.7190311693630773"><ele>1020.0</ele><time>2026-04-27T16:29:00Z</time></trkpt><trkpt lat="42.51276973061572" lon="0.7191364933260901"><ele>1020.0</ele><time>2026-04-27T16:29:01Z</time></trkpt><trkpt lat="42.51285232662142" lon="0.7192390464166241"><ele>1020.75</ele><time>2026-04-27T16:29:02Z</time></trkpt><trkpt lat="42.51292195052733" lon="0.7193585022004492"><ele>1021.5</ele><time>2026-04-27T16:29:03Z</time></trkpt><trkpt lat="42.51301229998157" lon="0.7194527999992809"><ele>1022.25</ele><time>2026-04-27T16:29:04Z</time></trkpt><trkpt lat="42.51310647264972" lon="0.7195368777310744"><ele>1023.0</ele><time>2026-04-27T16:29:05Z</time></trkpt><trkpt lat="42.51321238951967" lon="0.7196008708946336"><ele>1023.0</ele><time>2026-04-27T16:29:06Z</time></trkpt><trkpt lat="42.51331461769942" lon="0.7196610446654454"><ele>1023.0</ele><time>2026-04-27T16:29:07Z</time></trkpt><trkpt lat="42.51342429634785" lon="0.7197054826039749"><ele>1023.0</ele><time>2026-04-27T16:29:08Z</time></trkpt><trkpt lat="42.51353544713562" lon="0.7197260069884406"><ele>1023.0</ele><time>2026-04-27T16:29:09Z</time></trkpt><trkpt lat="42.51364541324921" lon="0.7197456067754028"><ele>1023.0</ele><time>2026-04-27T16:29:10Z</time></trkpt><trkpt lat="42.513754836851874" lon="0.7197600377817451"><ele>1023.2</ele><time>2026-04-27T16:29:11Z</time></trkpt><trkpt lat="42.51386228206514" lon="0.7197681320190502"><ele>1023.4</ele><time>2026-04-27T16:29:12Z</time></trkpt><trkpt lat="42.51397058750953" lon="0.7197774940768318"><ele>1023.6000000000001</ele><time>2026-04-27T16:29:13Z</time></trkpt><trkpt lat="42.51407929088471" lon="0.7197897265350888"><ele>1023.8000000000001</ele><time>2026-04-27T16:29:14Z</time></trkpt><trkpt lat="42.51418870169394" lon="0.7198020386014811"><ele>1024.0</ele><time>2026-04-27T16:29:15Z</time></trkpt><trkpt lat="42.51429749635593" lon="0.7198142813318444"><ele>1024.0</ele><time>2026-04-27T16:29:16Z</time></trkpt><trkpt lat="42.51440560092885" lon="0.7198264464064767"><ele>1024.0</ele><time>2026-04-27T16:29:17Z</time></trkpt><trkpt lat="42.51451454840089" lon="0.7198385985191592"><ele>1024.0</ele><time>2026-04-27T16:29:18Z</time></trkpt><trkpt lat="42.51462199766971" lon="0.7198483721509011"><ele>1024.0</ele><time>2026-04-27T16:29:19Z</time></trkpt><trkpt lat="42.51472997816336" lon="0.7198597650425416"><ele>1024.0</ele><time>2026-04-27T16:29:20Z</time></trkpt><trkpt lat="42.514835577827434" lon="0.7198764190414265"><ele>1024.8</ele><time>2026-04-27T16:29:21Z</time></trkpt><trkpt lat="42.51493964050861" lon="0.7198957959299994"><ele>1025.6000000000001</ele><time>2026-04-27T16:29:22Z</time></trkpt><trkpt lat="42.51504557562625" lon="0.7199201117443464"><ele>1026.4</ele><time>2026-04-27T16:29:23Z</time></trkpt><trkpt lat="42.51515145143273" lon="0.7199450863169735"><ele>1027.2</ele><time>2026-04-27T16:29:24Z</time></trkpt><trkpt lat="42.51525500157779" lon="0.7199719865555809"><ele>1028.0</ele><time>2026-04-27T16:29:25Z</time></trkpt><trkpt lat="42.51535139706457" lon="0.7200120675069945"><ele>1027.6</ele><time>2026-04-27T16:29:26Z</time></trkpt><trkpt lat="42.515450064607066" lon="0.7200638496653385"><ele>1027.1999999999998</ele><time>2026-04-27T16:29:27Z</time></trkpt><trkpt lat="42.515542167226315" lon="0.7201222563445955"><ele>1026.8</ele><time>2026-04-27T16:29:28Z</time></trkpt><trkpt lat="42.51563157880685" lon="0.7201908159374101"><ele>1026.3999999999999</ele><time>2026-04-27T16:29:29Z</time></trkpt><trkpt lat="42.51572033789013" lon="0.7202667635522908"><ele>1026.0</ele><time>2026-04-27T16:29:30Z</time></trkpt><trkpt lat="42.51581440846285" lon="0.7203308503813062"><ele>1025.8</ele><time>2026-04-27T16:29:31Z</time></trkpt><trkpt lat="42.51589762131191" lon="0.7204161719426571"><ele>1025.6</ele><time>2026-04-27T16:29:32Z</time></trkpt><trkpt lat="42.515978922068996" lon="0.7204991201782165"><ele>1025.4</ele><time>2026-04-27T16:29:33Z</time></trkpt><trkpt lat="42.51605842021942" lon="0.7205813310202297"><ele>1025.2</ele><time>2026-04-27T16:29:34Z</time></trkpt><trkpt lat="42.5161398575932" lon="0.720665062306522"><ele>1025.0</ele><time>2026-04-27T16:29:35Z</time></trkpt><trkpt lat="42.5162208480109" lon="0.7207481270709831"><ele>1025.2</ele><time>2026-04-27T16:29:36Z</time></trkpt><trkpt lat="42.51630147089355" lon="0.7208300287320005"><ele>1025.4</ele><time>2026-04-27T16:29:37Z</time></trkpt><trkpt lat="42.51637212152029" lon="0.7209323951696016"><ele>1025.6</ele><time>2026-04-27T16:29:38Z</time></trkpt><trkpt lat="42.51645342931194" lon="0.721018403100983"><ele>1025.8</ele><time>2026-04-27T16:29:39Z</time></trkpt><trkpt lat="42.51653613452904" lon="0.721104998802534"><ele>1026.0</ele><time>2026-04-27T16:29:40Z</time></trkpt><trkpt lat="42.516619852188924" lon="0.7211916935425945"><ele>1026.0</ele><time>2026-04-27T16:29:41Z</time></trkpt><trkpt lat="42.5167045760748" lon="0.7212794302546496"><ele>1026.0</ele><time>2026-04-27T16:29:42Z</time></trkpt><trkpt lat="42.516788626909" lon="0.7213664700954241"><ele>1026.0</ele><time>2026-04-27T16:29:43Z</time></trkpt><trkpt lat="42.51688390629109" lon="0.7214387509365757"><ele>1026.0</ele><time>2026-04-27T16:29:44Z</time></trkpt><trkpt lat="42.51696771973752" lon="0.7215305003634414"><ele>1026.0</ele><time>2026-04-27T16:29:45Z</time></trkpt><trkpt lat="42.51705459823787" lon="0.7216200433578681"><ele>1026.6</ele><time>2026-04-27T16:29:46Z</time></trkpt><trkpt lat="42.51714000978544" lon="0.7217081877229139"><ele>1027.1999999999998</ele><time>2026-04-27T16:29:47Z</time></trkpt><trkpt lat="42.51722578916247" lon="0.7217975394813998"><ele>1027.8000000000002</ele><time>2026-04-27T16:29:48Z</time></trkpt><trkpt lat="42.51730985709037" lon="0.721886139110982"><ele>1028.4</ele><time>2026-04-27T16:29:49Z</time></trkpt><trkpt lat="42.517394799209306" lon="0.7219765097090257"><ele>1029.0</ele><time>2026-04-27T16:29:50Z</time></trkpt><trkpt lat="42.51748023043769" lon="0.7220643276611953"><ele>1029.0</ele><time>2026-04-27T16:29:51Z</time></trkpt><trkpt lat="42.517563744724676" lon="0.7221541134397766"><ele>1029.0</ele><time>2026-04-27T16:29:52Z</time></trkpt><trkpt lat="42.51764921677968" lon="0.7222421459348183"><ele>1029.0</ele><time>2026-04-27T16:29:53Z</time></trkpt><trkpt lat="42.51773146592014" lon="0.7223241274956793"><ele>1029.0</ele><time>2026-04-27T16:29:54Z</time></trkpt><trkpt lat="42.517816150759934" lon="0.722417279932983"><ele>1029.0</ele><time>2026-04-27T16:29:55Z</time></trkpt><trkpt lat="42.51789824272643" lon="0.7225136559013372"><ele>1029.4</ele><time>2026-04-27T16:29:56Z</time></trkpt><trkpt lat="42.517982211025576" lon="0.7225982295622366"><ele>1029.8000000000002</ele><time>2026-04-27T16:29:57Z</time></trkpt><trkpt lat="42.518066402273135" lon="0.7226846060116624"><ele>1030.1999999999998</ele><time>2026-04-27T16:29:58Z</time></trkpt><trkpt lat="42.51815663035402" lon="0.7227670483516005"><ele>1030.6</ele><time>2026-04-27T16:29:59Z</time></trkpt><trkpt lat="42.518254358041006" lon="0.7228380258715266"><ele>1031.0</ele><time>2026-04-27T16:30:00Z</time></trkpt><trkpt lat="42.51835252851656" lon="0.7228942450458324"><ele>1030.2</ele><time>2026-04-27T16:30:01Z</time></trkpt><trkpt lat="42.51845715851363" lon="0.7229324432815148"><ele>1029.3999999999999</ele><time>2026-04-27T16:30:02Z</time></trkpt><trkpt lat="42.51856474347771" lon="0.7229496915007992"><ele>1028.6</ele><time>2026-04-27T16:30:03Z</time></trkpt><trkpt lat="42.51867476812162" lon="0.7229527666792326"><ele>1027.8</ele><time>2026-04-27T16:30:04Z</time></trkpt><trkpt lat="42.51878247827208" lon="0.7229443502987903"><ele>1027.0</ele><time>2026-04-27T16:30:05Z</time></trkpt><trkpt lat="42.518891318053626" lon="0.7229257149523783"><ele>1027.0</ele><time>2026-04-27T16:30:06Z</time></trkpt><trkpt lat="42.518997984912694" lon="0.7229050479701762"><ele>1027.0</ele><time>2026-04-27T16:30:07Z</time></trkpt><trkpt lat="42.51910439169077" lon="0.7228880242861659"><ele>1027.0</ele><time>2026-04-27T16:30:08Z</time></trkpt><trkpt lat="42.519210622652274" lon="0.722873663198041"><ele>1027.0</ele><time>2026-04-27T16:30:09Z</time></trkpt><trkpt lat="42.51931730824935" lon="0.7228569075713749"><ele>1027.0</ele><time>2026-04-27T16:30:10Z</time></trkpt><trkpt lat="42.519424115893734" lon="0.7228370769310598"><ele>1027.0</ele><time>2026-04-27T16:30:11Z</time></trkpt><trkpt lat="42.51952713363817" lon="0.722816534639279"><ele>1027.0</ele><time>2026-04-27T16:30:12Z</time></trkpt><trkpt lat="42.5196309122069" lon="0.7227942388588648"><ele>1027.0</ele><time>2026-04-27T16:30:13Z</time></trkpt><trkpt lat="42.51973113244569" lon="0.7227796142775117"><ele>1027.0</ele><time>2026-04-27T16:30:14Z</time></trkpt><trkpt lat="42.519833364458584" lon="0.7227607453465767"><ele>1027.0</ele><time>2026-04-27T16:30:15Z</time></trkpt><trkpt lat="42.51992914912361" lon="0.722746519481199"><ele>1029.2</ele><time>2026-04-27T16:30:16Z</time></trkpt><trkpt lat="42.520024553168824" lon="0.7227251940063518"><ele>1031.4</ele><time>2026-04-27T16:30:17Z</time></trkpt><trkpt lat="42.52011988395152" lon="0.7227048112834719"><ele>1033.6</ele><time>2026-04-27T16:30:18Z</time></trkpt><trkpt lat="42.52021578007657" lon="0.7226858718218623"><ele>1035.8</ele><time>2026-04-27T16:30:19Z</time></trkpt><trkpt lat="42.52030735569743" lon="0.7226599160614559"><ele>1038.0</ele><time>2026-04-27T16:30:20Z</time></trkpt><trkpt lat="42.520401071043786" lon="0.7226296526635848"><ele>1038.0</ele><time>2026-04-27T16:30:21Z</time></trkpt><trkpt lat="42.52049425636807" lon="0.72259785217727"><ele>1038.0</ele><time>2026-04-27T16:30:22Z</time></trkpt><trkpt lat="42.52058588552878" lon="0.7225572481386316"><ele>1038.0</ele><time>2026-04-27T16:30:23Z</time></trkpt><trkpt lat="42.52068045499022" lon="0.7225101298593474"><ele>1038.0</ele><time>2026-04-27T16:30:24Z</time></trkpt><trkpt lat="42.52077287085716" lon="0.7224543447069307"><ele>1038.0</ele><time>2026-04-27T16:30:25Z</time></trkpt><trkpt lat="42.52086632506244" lon="0.7224017817778235"><ele>1038.0</ele><time>2026-04-27T16:30:26Z</time></trkpt><trkpt lat="42.52096501996568" lon="0.7223473756304517"><ele>1038.0</ele><time>2026-04-27T16:30:27Z</time></trkpt><trkpt lat="42.52106563627326" lon="0.7222962626563898"><ele>1038.0</ele><time>2026-04-27T16:30:28Z</time></trkpt><trkpt lat="42.52116673632361" lon="0.7222411164734217"><ele>1038.0</ele><time>2026-04-27T16:30:29Z</time></trkpt><trkpt lat="42.521265564983864" lon="0.7221879404498429"><ele>1038.0</ele><time>2026-04-27T16:30:30Z</time></trkpt><trkpt lat="42.52136653451793" lon="0.72213511834382"><ele>1038.8</ele><time>2026-04-27T16:30:31Z</time></trkpt><trkpt lat="42.52146683709618" lon="0.7220804762624405"><ele>1039.6</ele><time>2026-04-27T16:30:32Z</time></trkpt><trkpt lat="42.521565168482994" lon="0.7220235640040733"><ele>1040.4</ele><time>2026-04-27T16:30:33Z</time></trkpt><trkpt lat="42.52166335891796" lon="0.7219690455952761"><ele>1041.2</ele><time>2026-04-27T16:30:34Z</time></trkpt><trkpt lat="42.521761957777265" lon="0.7219158885978805"><ele>1042.0</ele><time>2026-04-27T16:30:35Z</time></trkpt><trkpt lat="42.52186130823056" lon="0.7218628029782622"><ele>1042.0</ele><time>2026-04-27T16:30:36Z</time></trkpt><trkpt lat="42.52195957690564" lon="0.7218094156903356"><ele>1042.0</ele><time>2026-04-27T16:30:37.001Z</time></trkpt><trkpt lat="42.522057660535964" lon="0.7217544185008943"><ele>1042.0</ele><time>2026-04-27T16:30:38.001Z</time></trkpt><trkpt lat="42.522154239593924" lon="0.7216998761922504"><ele>1042.0</ele><time>2026-04-27T16:30:39.001Z</time></trkpt><trkpt lat="42.52225398843964" lon="0.72164434119799"><ele>1042.0</ele><time>2026-04-27T16:30:40.001Z</time></trkpt><trkpt lat="42.52235570074542" lon="0.7215890724210114"><ele>1041.0</ele><time>2026-04-27T16:30:41.001Z</time></trkpt><trkpt lat="42.522456043030694" lon="0.7215305189676482"><ele>1040.0</ele><time>2026-04-27T16:30:42.001Z</time></trkpt><trkpt lat="42.522557550529605" lon="0.7214743174037853"><ele>1039.0</ele><time>2026-04-27T16:30:43.001Z</time></trkpt><trkpt lat="42.52265883957883" lon="0.7214177728891712"><ele>1038.0</ele><time>2026-04-27T16:30:44.001Z</time></trkpt><trkpt lat="42.52276145937398" lon="0.7213581958357054"><ele>1037.0</ele><time>2026-04-27T16:30:45.001Z</time></trkpt><trkpt lat="42.52286513275408" lon="0.7212994885526255"><ele>1036.8</ele><time>2026-04-27T16:30:46.001Z</time></trkpt><trkpt lat="42.52296738336675" lon="0.721242119505622"><ele>1036.6</ele><time>2026-04-27T16:30:47.001Z</time></trkpt><trkpt lat="42.52307021548217" lon="0.7211859250117852"><ele>1036.3999999999999</ele><time>2026-04-27T16:30:48.001Z</time></trkpt><trkpt lat="42.52317555281244" lon="0.7211280554980943"><ele>1036.2</ele><time>2026-04-27T16:30:49.001Z</time></trkpt><trkpt lat="42.52327904467815" lon="0.7210754873410934"><ele>1036.0</ele><time>2026-04-27T16:30:50Z</time></trkpt><trkpt lat="42.523384251165815" lon="0.7210187343026151"><ele>1035.8</ele><time>2026-04-27T16:30:51Z</time></trkpt><trkpt lat="42.52348879019729" lon="0.7209584200327563"><ele>1035.6</ele><time>2026-04-27T16:30:52Z</time></trkpt><trkpt lat="42.523590279497135" lon="0.7209011053586885"><ele>1035.4</ele><time>2026-04-27T16:30:53Z</time></trkpt><trkpt lat="42.523692914956115" lon="0.7208450437192974"><ele>1035.2</ele><time>2026-04-27T16:30:54Z</time></trkpt><trkpt lat="42.52379866783897" lon="0.7207872804236873"><ele>1035.0</ele><time>2026-04-27T16:30:55Z</time></trkpt><trkpt lat="42.523903384623395" lon="0.7207268268516975"><ele>1035.4</ele><time>2026-04-27T16:30:56Z</time></trkpt><trkpt lat="42.524004858776124" lon="0.7206626923295072"><ele>1035.8</ele><time>2026-04-27T16:30:57Z</time></trkpt><trkpt lat="42.52410413140578" lon="0.7205986037589109"><ele>1036.2</ele><time>2026-04-27T16:30:58Z</time></trkpt><trkpt lat="42.52420526224331" lon="0.7205432156989898"><ele>1036.6</ele><time>2026-04-27T16:30:59Z</time></trkpt><trkpt lat="42.52431000738537" lon="0.7204926177392904"><ele>1037.0</ele><time>2026-04-27T16:31:00Z</time></trkpt><trkpt lat="42.52441409545818" lon="0.7204376366717935"><ele>1037.0</ele><time>2026-04-27T16:31:01Z</time></trkpt><trkpt lat="42.52451440399422" lon="0.720378635209156"><ele>1037.0</ele><time>2026-04-27T16:31:02Z</time></trkpt><trkpt lat="42.524613705180755" lon="0.7203234131166772"><ele>1037.0</ele><time>2026-04-27T16:31:03Z</time></trkpt><trkpt lat="42.52471349047219" lon="0.7202677727655283"><ele>1037.0</ele><time>2026-04-27T16:31:04Z</time></trkpt><trkpt lat="42.524813715637514" lon="0.7202117422559723"><ele>1037.0</ele><time>2026-04-27T16:31:05Z</time></trkpt><trkpt lat="42.524914247884126" lon="0.7201575338794398"><ele>1036.8</ele><time>2026-04-27T16:31:06Z</time></trkpt><trkpt lat="42.52501359853396" lon="0.7201082906930615"><ele>1036.6</ele><time>2026-04-27T16:31:07Z</time></trkpt><trkpt lat="42.52511478598357" lon="0.7200619583227541"><ele>1036.3999999999999</ele><time>2026-04-27T16:31:08Z</time></trkpt><trkpt lat="42.52521745620697" lon="0.7200215396002303"><ele>1036.2</ele><time>2026-04-27T16:31:09Z</time></trkpt><trkpt lat="42.52532338072626" lon="0.7199925691817737"><ele>1036.0</ele><time>2026-04-27T16:31:10Z</time></trkpt><trkpt lat="42.525428497199385" lon="0.7199774584925428"><ele>1036.0</ele><time>2026-04-27T16:31:11Z</time></trkpt><trkpt lat="42.52553385286443" lon="0.7199771720541256"><ele>1036.0</ele><time>2026-04-27T16:31:12Z</time></trkpt><trkpt lat="42.525638868734" lon="0.7199911144736563"><ele>1036.0</ele><time>2026-04-27T16:31:13Z</time></trkpt><trkpt lat="42.525744166818804" lon="0.7200188701135587"><ele>1036.0</ele><time>2026-04-27T16:31:14Z</time></trkpt><trkpt lat="42.525845243982204" lon="0.720056870983973"><ele>1036.0</ele><time>2026-04-27T16:31:15Z</time></trkpt><trkpt lat="42.52594486772932" lon="0.7201019882374975"><ele>1036.0</ele><time>2026-04-27T16:31:16Z</time></trkpt><trkpt lat="42.526045064955674" lon="0.7201485902731883"><ele>1036.0</ele><time>2026-04-27T16:31:17Z</time></trkpt><trkpt lat="42.52614713818669" lon="0.7201917493387205"><ele>1036.0</ele><time>2026-04-27T16:31:18Z</time></trkpt><trkpt lat="42.526249742816205" lon="0.72023333319203"><ele>1036.0</ele><time>2026-04-27T16:31:19Z</time></trkpt><trkpt lat="42.52635103863195" lon="0.7202763962048706"><ele>1036.0</ele><time>2026-04-27T16:31:20Z</time></trkpt><trkpt lat="42.52645383763655" lon="0.7203194429643441"><ele>1036.2</ele><time>2026-04-27T16:31:21Z</time></trkpt><trkpt lat="42.52655646575381" lon="0.7203630412869777"><ele>1036.3999999999999</ele><time>2026-04-27T16:31:22Z</time></trkpt><trkpt lat="42.52665970124547" lon="0.7204044218485238"><ele>1036.6</ele><time>2026-04-27T16:31:23Z</time></trkpt><trkpt lat="42.52676391129964" lon="0.7204450458429366"><ele>1036.8</ele><time>2026-04-27T16:31:24Z</time></trkpt><trkpt lat="42.52686534093594" lon="0.7204889799428126"><ele>1037.0</ele><time>2026-04-27T16:31:25Z</time></trkpt><trkpt lat="42.52696783417795" lon="0.7205336810366458"><ele>1037.4</ele><time>2026-04-27T16:31:26Z</time></trkpt><trkpt lat="42.52706974571808" lon="0.7205817194408753"><ele>1037.8000000000002</ele><time>2026-04-27T16:31:27Z</time></trkpt><trkpt lat="42.52717157910664" lon="0.7206304612137443"><ele>1038.2</ele><time>2026-04-27T16:31:28Z</time></trkpt><trkpt lat="42.52727289753565" lon="0.7206734663417844"><ele>1038.6000000000001</ele><time>2026-04-27T16:31:29Z</time></trkpt><trkpt lat="42.527376047953055" lon="0.7207105334673392"><ele>1039.0</ele><time>2026-04-27T16:31:30Z</time></trkpt><trkpt lat="42.52747903204843" lon="0.7207526114506124"><ele>1039.0</ele><time>2026-04-27T16:31:31Z</time></trkpt><trkpt lat="42.52758133524183" lon="0.7207965801552608"><ele>1039.0</ele><time>2026-04-27T16:31:32Z</time></trkpt><trkpt lat="42.52768414019579" lon="0.7208420786790161"><ele>1039.0</ele><time>2026-04-27T16:31:33Z</time></trkpt><trkpt lat="42.52778557439827" lon="0.7208886893560041"><ele>1039.0</ele><time>2026-04-27T16:31:34Z</time></trkpt><trkpt lat="42.5278889031582" lon="0.7209329274592247"><ele>1039.0</ele><time>2026-04-27T16:31:35Z</time></trkpt><trkpt lat="42.527990838335356" lon="0.7209761934013371"><ele>1039.6000000000001</ele><time>2026-04-27T16:31:36Z</time></trkpt><trkpt lat="42.52809329370805" lon="0.721019258343107"><ele>1040.2</ele><time>2026-04-27T16:31:37Z</time></trkpt><trkpt lat="42.52819567679942" lon="0.7210642682518369"><ele>1040.8000000000002</ele><time>2026-04-27T16:31:38Z</time></trkpt><trkpt lat="42.52829985733726" lon="0.7211093787732874"><ele>1041.4</ele><time>2026-04-27T16:31:39Z</time></trkpt><trkpt lat="42.528404045853186" lon="0.7211535608258716"><ele>1042.0</ele><time>2026-04-27T16:31:40Z</time></trkpt><trkpt lat="42.52850733614298" lon="0.7211969602292999"><ele>1042.0</ele><time>2026-04-27T16:31:41Z</time></trkpt><trkpt lat="42.52861066350661" lon="0.7212392860556546"><ele>1042.0</ele><time>2026-04-27T16:31:42Z</time></trkpt><trkpt lat="42.52871365004308" lon="0.7212820179373524"><ele>1042.0</ele><time>2026-04-27T16:31:43Z</time></trkpt><trkpt lat="42.52881671653495" lon="0.7213279800713317"><ele>1042.0</ele><time>2026-04-27T16:31:44Z</time></trkpt><trkpt lat="42.52891987030232" lon="0.7213719266732912"><ele>1042.0</ele><time>2026-04-27T16:31:45Z</time></trkpt><trkpt lat="42.529022732393706" lon="0.7214164829924002"><ele>1042.4</ele><time>2026-04-27T16:31:46Z</time></trkpt><trkpt lat="42.52912769594171" lon="0.7214593338077616"><ele>1042.8000000000002</ele><time>2026-04-27T16:31:47Z</time></trkpt><trkpt lat="42.52923266980371" lon="0.7215059948289488"><ele>1043.2</ele><time>2026-04-27T16:31:48Z</time></trkpt><trkpt lat="42.5293386816218" lon="0.7215539121451751"><ele>1043.6000000000001</ele><time>2026-04-27T16:31:49Z</time></trkpt><trkpt lat="42.5294419940028" lon="0.7215986382874052"><ele>1044.0</ele><time>2026-04-27T16:31:50Z</time></trkpt><trkpt lat="42.52954814667324" lon="0.7216445236664195"><ele>1044.4</ele><time>2026-04-27T16:31:51Z</time></trkpt><trkpt lat="42.529654544476415" lon="0.7216902982888865"><ele>1044.8000000000002</ele><time>2026-04-27T16:31:52Z</time></trkpt><trkpt lat="42.52975996294422" lon="0.7217368888857613"><ele>1045.1999999999998</ele><time>2026-04-27T16:31:53Z</time></trkpt><trkpt lat="42.52986526298569" lon="0.7217809180315045"><ele>1045.6</ele><time>2026-04-27T16:31:54Z</time></trkpt><trkpt lat="42.52997063980078" lon="0.7218275614318119"><ele>1046.0</ele><time>2026-04-27T16:31:55Z</time></trkpt><trkpt lat="42.53007623808926" lon="0.7218709504092765"><ele>1046.0</ele><time>2026-04-27T16:31:56Z</time></trkpt><trkpt lat="42.53018090305352" lon="0.7219170435626544"><ele>1046.0</ele><time>2026-04-27T16:31:57Z</time></trkpt><trkpt lat="42.53028606851138" lon="0.7219621253764786"><ele>1046.0</ele><time>2026-04-27T16:31:58Z</time></trkpt><trkpt lat="42.53039396588746" lon="0.7220054487515436"><ele>1046.0</ele><time>2026-04-27T16:31:59Z</time></trkpt><trkpt lat="42.53049942392158" lon="0.7220508296354474"><ele>1046.0</ele><time>2026-04-27T16:32:00Z</time></trkpt><trkpt lat="42.530604318388676" lon="0.7220940696357515"><ele>1046.0</ele><time>2026-04-27T16:32:01Z</time></trkpt><trkpt lat="42.53070761831794" lon="0.7221400020668354"><ele>1046.0</ele><time>2026-04-27T16:32:02Z</time></trkpt><trkpt lat="42.530814384404025" lon="0.7221874202174642"><ele>1046.0</ele><time>2026-04-27T16:32:03Z</time></trkpt><trkpt lat="42.53091920532444" lon="0.7222354505651094"><ele>1046.0</ele><time>2026-04-27T16:32:04Z</time></trkpt><trkpt lat="42.53102499063701" lon="0.7222820470010707"><ele>1046.0</ele><time>2026-04-27T16:32:05Z</time></trkpt><trkpt lat="42.53113020059917" lon="0.7223270990330718"><ele>1046.3999999999999</ele><time>2026-04-27T16:32:06Z</time></trkpt><trkpt lat="42.5312357010281" lon="0.7223710120965512"><ele>1046.8</ele><time>2026-04-27T16:32:07Z</time></trkpt><trkpt lat="42.53133995085496" lon="0.7224166393133503"><ele>1047.1999999999998</ele><time>2026-04-27T16:32:08Z</time></trkpt><trkpt lat="42.531445458214094" lon="0.7224590509475417"><ele>1047.6</ele><time>2026-04-27T16:32:09Z</time></trkpt><trkpt lat="42.531551126367106" lon="0.7225042113124162"><ele>1048.0</ele><time>2026-04-27T16:32:10Z</time></trkpt><trkpt lat="42.531654673935535" lon="0.7225498992865317"><ele>1048.0</ele><time>2026-04-27T16:32:11Z</time></trkpt><trkpt lat="42.5317593386744" lon="0.7225952433872562"><ele>1048.0</ele><time>2026-04-27T16:32:12Z</time></trkpt><trkpt lat="42.53186607712626" lon="0.7226394999201404"><ele>1048.0</ele><time>2026-04-27T16:32:13Z</time></trkpt><trkpt lat="42.531971541364946" lon="0.7226830461277173"><ele>1048.0</ele><time>2026-04-27T16:32:14Z</time></trkpt><trkpt lat="42.532074977624" lon="0.7227277884583172"><ele>1048.0</ele><time>2026-04-27T16:32:15Z</time></trkpt><trkpt lat="42.53217940734408" lon="0.7227706869588773"><ele>1048.6</ele><time>2026-04-27T16:32:16Z</time></trkpt><trkpt lat="42.53228244336693" lon="0.722814201674177"><ele>1049.1999999999998</ele><time>2026-04-27T16:32:17Z</time></trkpt><trkpt lat="42.53238555706455" lon="0.7228576558683044"><ele>1049.8</ele><time>2026-04-27T16:32:18Z</time></trkpt><trkpt lat="42.53248849236801" lon="0.722900541289355"><ele>1050.3999999999999</ele><time>2026-04-27T16:32:19Z</time></trkpt><trkpt lat="42.532592121473805" lon="0.7229419139601659"><ele>1051.0</ele><time>2026-04-27T16:32:20Z</time></trkpt><trkpt lat="42.53269466824899" lon="0.7229853585923077"><ele>1051.0</ele><time>2026-04-27T16:32:21Z</time></trkpt><trkpt lat="42.532795931251435" lon="0.7230280933919397"><ele>1051.0</ele><time>2026-04-27T16:32:22Z</time></trkpt><trkpt lat="42.53289645066641" lon="0.7230684924530438"><ele>1051.0</ele><time>2026-04-27T16:32:23Z</time></trkpt><trkpt lat="42.5329987206313" lon="0.72310561657726"><ele>1051.0</ele><time>2026-04-27T16:32:24Z</time></trkpt><trkpt lat="42.533096094293526" lon="0.7231692963568492"><ele>1051.0</ele><time>2026-04-27T16:32:25Z</time></trkpt><trkpt lat="42.53320224129492" lon="0.7231914158447171"><ele>1051.3999999999999</ele><time>2026-04-27T16:32:26Z</time></trkpt><trkpt lat="42.533301428255676" lon="0.7232434906342867"><ele>1051.8</ele><time>2026-04-27T16:32:27Z</time></trkpt><trkpt lat="42.533398002994" lon="0.7233057930427347"><ele>1052.1999999999998</ele><time>2026-04-27T16:32:28Z</time></trkpt><trkpt lat="42.53348977418108" lon="0.7233793092658406"><ele>1052.6</ele><time>2026-04-27T16:32:29Z</time></trkpt><trkpt lat="42.53357823488876" lon="0.723463116667286"><ele>1053.0</ele><time>2026-04-27T16:32:30Z</time></trkpt><trkpt lat="42.533659290042195" lon="0.7235614965129463"><ele>1053.6</ele><time>2026-04-27T16:32:31Z</time></trkpt><trkpt lat="42.53373171502612" lon="0.7236656150588322"><ele>1054.1999999999998</ele><time>2026-04-27T16:32:32Z</time></trkpt><trkpt lat="42.53379740466674" lon="0.7237737243552264"><ele>1054.8</ele><time>2026-04-27T16:32:33Z</time></trkpt><trkpt lat="42.53385695730683" lon="0.723884535900853"><ele>1055.3999999999999</ele><time>2026-04-27T16:32:34Z</time></trkpt><trkpt lat="42.53391493394582" lon="0.7239946926445207"><ele>1056.0</ele><time>2026-04-27T16:32:35Z</time></trkpt><trkpt lat="42.533973319686794" lon="0.7241035067100725"><ele>1056.0</ele><time>2026-04-27T16:32:36Z</time></trkpt><trkpt lat="42.53402953157842" lon="0.7242089131618108"><ele>1056.0</ele><time>2026-04-27T16:32:37Z</time></trkpt><trkpt lat="42.534085122646474" lon="0.7243120610347027"><ele>1056.0</ele><time>2026-04-27T16:32:38Z</time></trkpt><trkpt lat="42.53414284367243" lon="0.7244124076084095"><ele>1056.0</ele><time>2026-04-27T16:32:39Z</time></trkpt><trkpt lat="42.53419881113531" lon="0.7245138544246731"><ele>1056.0</ele><time>2026-04-27T16:32:40Z</time></trkpt><trkpt lat="42.5342524661355" lon="0.7246140899508458"><ele>1055.6666666666667</ele><time>2026-04-27T16:32:41Z</time></trkpt><trkpt lat="42.534304803388984" lon="0.7247119739028411"><ele>1055.3333333333333</ele><time>2026-04-27T16:32:42Z</time></trkpt><trkpt lat="42.53435643186547" lon="0.7248096722268321"><ele>1055.0</ele><time>2026-04-27T16:32:43Z</time></trkpt><trkpt lat="42.53440732398971" lon="0.7249057394559212"><ele>1054.6666666666665</ele><time>2026-04-27T16:32:44Z</time></trkpt><trkpt lat="42.53445690114248" lon="0.724999617207233"><ele>1054.3333333333333</ele><time>2026-04-27T16:32:45Z</time></trkpt><trkpt lat="42.534506705255154" lon="0.7250917123795101"><ele>1054.0</ele><time>2026-04-27T16:32:46Z</time></trkpt><trkpt lat="42.53455789941088" lon="0.725181164845498"><ele>1055.6666666666665</ele><time>2026-04-27T16:32:47Z</time></trkpt><trkpt lat="42.534608872354355" lon="0.7252662608628113"><ele>1057.3333333333333</ele><time>2026-04-27T16:32:48Z</time></trkpt><trkpt lat="42.53466672055314" lon="0.7253417508490624"><ele>1059.0</ele><time>2026-04-27T16:32:49Z</time></trkpt><trkpt lat="42.534730973896146" lon="0.7254080766819133"><ele>1060.6666666666667</ele><time>2026-04-27T16:32:50Z</time></trkpt><trkpt lat="42.534794300284176" lon="0.7254719047453738"><ele>1062.3333333333335</ele><time>2026-04-27T16:32:51Z</time></trkpt><trkpt lat="42.53486137088183" lon="0.7255260584300308"><ele>1064.0</ele><time>2026-04-27T16:32:52Z</time></trkpt><trkpt lat="42.534930688654086" lon="0.7255754212577366"><ele>1064.0</ele><time>2026-04-27T16:32:53Z</time></trkpt><trkpt lat="42.535003189256074" lon="0.7256135916401556"><ele>1064.0</ele><time>2026-04-27T16:32:54Z</time></trkpt><trkpt lat="42.535076064741766" lon="0.7256465514639941"><ele>1064.0</ele><time>2026-04-27T16:32:55Z</time></trkpt><trkpt lat="42.53515143895057" lon="0.7256698216877218"><ele>1064.0</ele><time>2026-04-27T16:32:56Z</time></trkpt><trkpt lat="42.53522690138071" lon="0.7256855924148682"><ele>1064.0</ele><time>2026-04-27T16:32:57Z</time></trkpt><trkpt lat="42.53530314906217" lon="0.7256930218534228"><ele>1064.0</ele><time>2026-04-27T16:32:58Z</time></trkpt><trkpt lat="42.535381572906516" lon="0.7256953748134707"><ele>1065.3333333333335</ele><time>2026-04-27T16:32:59Z</time></trkpt><trkpt lat="42.53545849650041" lon="0.725699978429386"><ele>1066.6666666666667</ele><time>2026-04-27T16:33:00Z</time></trkpt><trkpt lat="42.53553514076157" lon="0.7257043723174126"><ele>1068.0</ele><time>2026-04-27T16:33:01Z</time></trkpt><trkpt lat="42.535611967557465" lon="0.725709386405923"><ele>1069.3333333333333</ele><time>2026-04-27T16:33:02Z</time></trkpt><trkpt lat="42.53568884709441" lon="0.7257118776723671"><ele>1070.6666666666665</ele><time>2026-04-27T16:33:03Z</time></trkpt><trkpt lat="42.535765822311305" lon="0.7257159968830071"><ele>1072.0</ele><time>2026-04-27T16:33:04Z</time></trkpt><trkpt lat="42.5358426457574" lon="0.7257215199982123"><ele>1072.0</ele><time>2026-04-27T16:33:05Z</time></trkpt><trkpt lat="42.53591984069806" lon="0.7257263558246971"><ele>1072.0</ele><time>2026-04-27T16:33:06Z</time></trkpt><trkpt lat="42.53599688854521" lon="0.7257299826240062"><ele>1072.0</ele><time>2026-04-27T16:33:07Z</time></trkpt><trkpt lat="42.53607333866949" lon="0.7257371187757253"><ele>1072.0</ele><time>2026-04-27T16:33:08Z</time></trkpt><trkpt lat="42.53614929131092" lon="0.7257437842636391"><ele>1072.0</ele><time>2026-04-27T16:33:09Z</time></trkpt><trkpt lat="42.536226381820526" lon="0.7257566664094075"><ele>1072.0</ele><time>2026-04-27T16:33:10Z</time></trkpt><trkpt lat="42.53630120031085" lon="0.7257745637040631"><ele>1072.1666666666665</ele><time>2026-04-27T16:33:11Z</time></trkpt><trkpt lat="42.536375348515975" lon="0.725799334532077"><ele>1072.3333333333333</ele><time>2026-04-27T16:33:12Z</time></trkpt><trkpt lat="42.53643811727523" lon="0.7258568346322706"><ele>1072.5</ele><time>2026-04-27T16:33:13Z</time></trkpt><trkpt lat="42.53650627097926" lon="0.7258984388934484"><ele>1072.6666666666667</ele><time>2026-04-27T16:33:14Z</time></trkpt><trkpt lat="42.53657228634902" lon="0.725950042308444"><ele>1072.8333333333335</ele><time>2026-04-27T16:33:15Z</time></trkpt><trkpt lat="42.536635265012805" lon="0.7260079987258358"><ele>1073.0</ele><time>2026-04-27T16:33:16Z</time></trkpt><trkpt lat="42.536693992259536" lon="0.7260741372522216"><ele>1073.0</ele><time>2026-04-27T16:33:17Z</time></trkpt><trkpt lat="42.53674966604262" lon="0.7261450374300692"><ele>1073.0</ele><time>2026-04-27T16:33:18Z</time></trkpt><trkpt lat="42.536801846568835" lon="0.7262226476451448"><ele>1073.0</ele><time>2026-04-27T16:33:19Z</time></trkpt><trkpt lat="42.53685815531493" lon="0.7262953853083284"><ele>1073.0</ele><time>2026-04-27T16:33:20Z</time></trkpt><trkpt lat="42.53689936197367" lon="0.7263864804032477"><ele>1073.0</ele><time>2026-04-27T16:33:21Z</time></trkpt><trkpt lat="42.536939105204816" lon="0.7264793302657393"><ele>1073.0</ele><time>2026-04-27T16:33:22Z</time></trkpt><trkpt lat="42.536978605245956" lon="0.726569922376933"><ele>1073.0</ele><time>2026-04-27T16:33:23Z</time></trkpt><trkpt lat="42.537017894105844" lon="0.7266587217876626"><ele>1073.0</ele><time>2026-04-27T16:33:24Z</time></trkpt><trkpt lat="42.537059135529915" lon="0.726746401062229"><ele>1073.0</ele><time>2026-04-27T16:33:25Z</time></trkpt><trkpt lat="42.53709897297426" lon="0.726830523657685"><ele>1073.0</ele><time>2026-04-27T16:33:26Z</time></trkpt><trkpt lat="42.537141504302724" lon="0.7269134331923448"><ele>1073.0</ele><time>2026-04-27T16:33:27Z</time></trkpt><trkpt lat="42.53718734948357" lon="0.7269908869178642"><ele>1073.0</ele><time>2026-04-27T16:33:28Z</time></trkpt><trkpt lat="42.53724195082721" lon="0.7270578551828637"><ele>1073.0</ele><time>2026-04-27T16:33:29Z</time></trkpt><trkpt lat="42.537302416043595" lon="0.7271202025111723"><ele>1074.0</ele><time>2026-04-27T16:33:30Z</time></trkpt><trkpt lat="42.537368678187846" lon="0.7271748394748975"><ele>1075.0</ele><time>2026-04-27T16:33:31Z</time></trkpt><trkpt lat="42.537441785632595" lon="0.727216257740273"><ele>1076.0</ele><time>2026-04-27T16:33:32Z</time></trkpt><trkpt lat="42.53751711343494" lon="0.7272542261796422"><ele>1077.0</ele><time>2026-04-27T16:33:33Z</time></trkpt><trkpt lat="42.53759538877926" lon="0.7272820200570744"><ele>1078.0</ele><time>2026-04-27T16:33:34Z</time></trkpt><trkpt lat="42.537676769393364" lon="0.7273058949805539"><ele>1079.0</ele><time>2026-04-27T16:33:35Z</time></trkpt><trkpt lat="42.53775775742741" lon="0.727326686905186"><ele>1079.0</ele><time>2026-04-27T16:33:36Z</time></trkpt><trkpt lat="42.537841144697296" lon="0.7273434575911608"><ele>1079.0</ele><time>2026-04-27T16:33:37Z</time></trkpt><trkpt lat="42.53792334059121" lon="0.7273586332940551"><ele>1079.0</ele><time>2026-04-27T16:33:38Z</time></trkpt><trkpt lat="42.53800461247869" lon="0.7273743609246016"><ele>1079.0</ele><time>2026-04-27T16:33:39Z</time></trkpt><trkpt lat="42.538085707440544" lon="0.7273890802791502"><ele>1079.0</ele><time>2026-04-27T16:33:40Z</time></trkpt><trkpt lat="42.538166648358654" lon="0.7274042211110607"><ele>1079.0</ele><time>2026-04-27T16:33:41Z</time></trkpt><trkpt lat="42.53824689224431" lon="0.7274208954516678"><ele>1081.3333333333335</ele><time>2026-04-27T16:33:42Z</time></trkpt><trkpt lat="42.53832851927675" lon="0.7274361797011722"><ele>1083.6666666666667</ele><time>2026-04-27T16:33:43Z</time></trkpt><trkpt lat="42.538408903420326" lon="0.7274501879665234"><ele>1086.0</ele><time>2026-04-27T16:33:44Z</time></trkpt><trkpt lat="42.53849161744372" lon="0.7274634908188268"><ele>1088.3333333333333</ele><time>2026-04-27T16:33:45Z</time></trkpt><trkpt lat="42.538572174003825" lon="0.7274767758953522"><ele>1090.6666666666665</ele><time>2026-04-27T16:33:46Z</time></trkpt><trkpt lat="42.53865268235425" lon="0.7274930829936758"><ele>1093.0</ele><time>2026-04-27T16:33:47Z</time></trkpt><trkpt lat="42.538732908629164" lon="0.7275062043344875"><ele>1096.6666666666665</ele><time>2026-04-27T16:33:48Z</time></trkpt><trkpt lat="42.538812480943214" lon="0.7275168633242424"><ele>1100.3333333333333</ele><time>2026-04-27T16:33:49Z</time></trkpt><trkpt lat="42.53888910572449" lon="0.7275574507690731"><ele>1104.0</ele><time>2026-04-27T16:33:50Z</time></trkpt><trkpt lat="42.53896673783211" lon="0.7275830126263293"><ele>1107.6666666666667</ele><time>2026-04-27T16:33:51Z</time></trkpt><trkpt lat="42.539045837146844" lon="0.7275849643569964"><ele>1111.3333333333335</ele><time>2026-04-27T16:33:52Z</time></trkpt><trkpt lat="42.53912026848575" lon="0.727620760202968"><ele>1115.0</ele><time>2026-04-27T16:33:53Z</time></trkpt><trkpt lat="42.53919381929435" lon="0.7276617557209665"><ele>1115.0</ele><time>2026-04-27T16:33:54Z</time></trkpt><trkpt lat="42.53926596882258" lon="0.7277050495912464"><ele>1115.0</ele><time>2026-04-27T16:33:55Z</time></trkpt><trkpt lat="42.539335561523096" lon="0.7277542354824409"><ele>1115.0</ele><time>2026-04-27T16:33:56Z</time></trkpt><trkpt lat="42.539405506270036" lon="0.7278021726013654"><ele>1115.0</ele><time>2026-04-27T16:33:57Z</time></trkpt><trkpt lat="42.53947814428042" lon="0.7278495874429572"><ele>1115.0</ele><time>2026-04-27T16:33:58Z</time></trkpt><trkpt lat="42.53954914380687" lon="0.7278949809881168"><ele>1115.0</ele><time>2026-04-27T16:33:59Z</time></trkpt><trkpt lat="42.53961933595824" lon="0.7279427372010154"><ele>1114.0</ele><time>2026-04-27T16:34:00Z</time></trkpt><trkpt lat="42.539679755651164" lon="0.7280139506677168"><ele>1113.0</ele><time>2026-04-27T16:34:01Z</time></trkpt><trkpt lat="42.53974958103805" lon="0.7280652381854643"><ele>1112.0</ele><time>2026-04-27T16:34:02Z</time></trkpt><trkpt lat="42.539820037183205" lon="0.7281169891023602"><ele>1111.0</ele><time>2026-04-27T16:34:03Z</time></trkpt><trkpt lat="42.539889214900924" lon="0.7281678011757147"><ele>1110.0</ele><time>2026-04-27T16:34:04Z</time></trkpt><trkpt lat="42.5399580410735" lon="0.728218354891514"><ele>1109.0</ele><time>2026-04-27T16:34:05Z</time></trkpt><trkpt lat="42.540033202787775" lon="0.7282489389745795"><ele>1109.0</ele><time>2026-04-27T16:34:06Z</time></trkpt><trkpt lat="42.54010138634007" lon="0.7283019935166383"><ele>1109.0</ele><time>2026-04-27T16:34:07Z</time></trkpt><trkpt lat="42.54017163769754" lon="0.7283505654833499"><ele>1109.0</ele><time>2026-04-27T16:34:08Z</time></trkpt><trkpt lat="42.54024389030886" lon="0.7283962618612827"><ele>1109.0</ele><time>2026-04-27T16:34:09Z</time></trkpt><trkpt lat="42.540311373364396" lon="0.7284479761944478"><ele>1109.0</ele><time>2026-04-27T16:34:10Z</time></trkpt><trkpt lat="42.540382414400305" lon="0.7284893752910222"><ele>1109.0</ele><time>2026-04-27T16:34:11Z</time></trkpt><trkpt lat="42.54045339460594" lon="0.7285319237199264"><ele>1107.8333333333335</ele><time>2026-04-27T16:34:12Z</time></trkpt><trkpt lat="42.54052690979994" lon="0.7285734544382252"><ele>1106.6666666666667</ele><time>2026-04-27T16:34:13Z</time></trkpt><trkpt lat="42.540599090594995" lon="0.728614766344247"><ele>1105.5</ele><time>2026-04-27T16:34:14Z</time></trkpt><trkpt lat="42.540672782733985" lon="0.7286577515276168"><ele>1104.3333333333333</ele><time>2026-04-27T16:34:15Z</time></trkpt><trkpt lat="42.540745200348944" lon="0.7287002834833344"><ele>1103.1666666666665</ele><time>2026-04-27T16:34:16Z</time></trkpt><trkpt lat="42.54081243582668" lon="0.7287634023663045"><ele>1102.0</ele><time>2026-04-27T16:34:17Z</time></trkpt><trkpt lat="42.54088462976077" lon="0.7288059850704651"><ele>1102.0</ele><time>2026-04-27T16:34:18Z</time></trkpt><trkpt lat="42.54095693645111" lon="0.728849347554566"><ele>1102.0</ele><time>2026-04-27T16:34:19Z</time></trkpt><trkpt lat="42.54102923578803" lon="0.7288927041063035"><ele>1102.0</ele><time>2026-04-27T16:34:20Z</time></trkpt><trkpt lat="42.541101492115544" lon="0.7289360348304273"><ele>1102.0</ele><time>2026-04-27T16:34:21Z</time></trkpt><trkpt lat="42.541172767296494" lon="0.728978777170241"><ele>1102.0</ele><time>2026-04-27T16:34:22Z</time></trkpt><trkpt lat="42.541245917189045" lon="0.729022643743728"><ele>1102.0</ele><time>2026-04-27T16:34:23Z</time></trkpt><trkpt lat="42.54131759145207" lon="0.7290656254465535"><ele>1106.3333333333333</ele><time>2026-04-27T16:34:24Z</time></trkpt><trkpt lat="42.541389796716025" lon="0.7291092179816311"><ele>1110.6666666666665</ele><time>2026-04-27T16:34:25Z</time></trkpt><trkpt lat="42.54146244784113" lon="0.7291538064558649"><ele>1115.0</ele><time>2026-04-27T16:34:26Z</time></trkpt><trkpt lat="42.54153439858741" lon="0.7291979650796852"><ele>1119.3333333333333</ele><time>2026-04-27T16:34:27Z</time></trkpt><trkpt lat="42.541603761482015" lon="0.7292405354022458"><ele>1123.6666666666667</ele><time>2026-04-27T16:34:28Z</time></trkpt><trkpt lat="42.54167629949851" lon="0.7292859103961852"><ele>1128.0</ele><time>2026-04-27T16:34:29Z</time></trkpt><trkpt lat="42.54174296711532" lon="0.7293288701211885"><ele>1128.0</ele><time>2026-04-27T16:34:30Z</time></trkpt><trkpt lat="42.54181517397596" lon="0.7293730373170821"><ele>1128.0</ele><time>2026-04-27T16:34:31Z</time></trkpt><trkpt lat="42.54188790057913" lon="0.7294067676856597"><ele>1128.0</ele><time>2026-04-27T16:34:32Z</time></trkpt><trkpt lat="42.54196490606879" lon="0.729415562605584"><ele>1128.0</ele><time>2026-04-27T16:34:33Z</time></trkpt><trkpt lat="42.54204035839844" lon="0.7294454458815292"><ele>1128.0</ele><time>2026-04-27T16:34:34Z</time></trkpt><trkpt lat="42.54211455194523" lon="0.7294681814412894"><ele>1128.0</ele><time>2026-04-27T16:34:35Z</time></trkpt><trkpt lat="42.542193866632324" lon="0.7294889994520244"><ele>1126.8333333333333</ele><time>2026-04-27T16:34:36Z</time></trkpt><trkpt lat="42.54227360007699" lon="0.7295025496262447"><ele>1125.6666666666667</ele><time>2026-04-27T16:34:37Z</time></trkpt><trkpt lat="42.54235486458156" lon="0.7295234151361043"><ele>1124.5</ele><time>2026-04-27T16:34:38Z</time></trkpt><trkpt lat="42.54243739198437" lon="0.7295418848306257"><ele>1123.3333333333335</ele><time>2026-04-27T16:34:39Z</time></trkpt><trkpt lat="42.542514151555395" lon="0.729557412149815"><ele>1122.1666666666667</ele><time>2026-04-27T16:34:40Z</time></trkpt><trkpt lat="42.54259490755889" lon="0.729582188653278"><ele>1121.0</ele><time>2026-04-27T16:34:41Z</time></trkpt><trkpt lat="42.54267689631929" lon="0.7296003524383862"><ele>1121.0</ele><time>2026-04-27T16:34:42Z</time></trkpt><trkpt lat="42.542754977087" lon="0.7296271556352912"><ele>1121.0</ele><time>2026-04-27T16:34:43Z</time></trkpt><trkpt lat="42.542830436486966" lon="0.7296575563886136"><ele>1121.0</ele><time>2026-04-27T16:34:44Z</time></trkpt><trkpt lat="42.54290656885695" lon="0.7296933510511907"><ele>1121.0</ele><time>2026-04-27T16:34:45Z</time></trkpt><trkpt lat="42.54298179062819" lon="0.7297299141886043"><ele>1121.0</ele><time>2026-04-27T16:34:46Z</time></trkpt><trkpt lat="42.543054432992385" lon="0.7297695263625192"><ele>1121.0</ele><time>2026-04-27T16:34:47Z</time></trkpt><trkpt lat="42.5431263323606" lon="0.7298157520043705"><ele>1123.6666666666667</ele><time>2026-04-27T16:34:48Z</time></trkpt><trkpt lat="42.543200107113016" lon="0.7298537059210032"><ele>1126.3333333333335</ele><time>2026-04-27T16:34:49Z</time></trkpt><trkpt lat="42.543272405468784" lon="0.7298953467934192"><ele>1129.0</ele><time>2026-04-27T16:34:50Z</time></trkpt><trkpt lat="42.54334361472199" lon="0.7299350105191534"><ele>1131.6666666666667</ele><time>2026-04-27T16:34:51Z</time></trkpt><trkpt lat="42.543418044617695" lon="0.7299686613282429"><ele>1134.3333333333333</ele><time>2026-04-27T16:34:52Z</time></trkpt><trkpt lat="42.543490364337146" lon="0.7300079388458711"><ele>1137.0</ele><time>2026-04-27T16:34:53Z</time></trkpt><trkpt lat="42.54356132358628" lon="0.7300470230982373"><ele>1137.0</ele><time>2026-04-27T16:34:54Z</time></trkpt><trkpt lat="42.543633903712745" lon="0.7300919148681071"><ele>1137.0</ele><time>2026-04-27T16:34:55Z</time></trkpt><trkpt lat="42.54370599873911" lon="0.7301319034471178"><ele>1137.0</ele><time>2026-04-27T16:34:56Z</time></trkpt><trkpt lat="42.54377827062667" lon="0.730169781925633"><ele>1137.0</ele><time>2026-04-27T16:34:57Z</time></trkpt><trkpt lat="42.54385220995509" lon="0.7302089212533602"><ele>1137.0</ele><time>2026-04-27T16:34:58Z</time></trkpt><trkpt lat="42.54392451170913" lon="0.730249939908961"><ele>1137.0</ele><time>2026-04-27T16:34:59Z</time></trkpt><trkpt lat="42.543996058766886" lon="0.7302920839747171"><ele>1136.0</ele><time>2026-04-27T16:35:00Z</time></trkpt><trkpt lat="42.54406664161843" lon="0.7303362179693335"><ele>1135.0</ele><time>2026-04-27T16:35:01Z</time></trkpt><trkpt lat="42.544138864587474" lon="0.7303787112188218"><ele>1134.0</ele><time>2026-04-27T16:35:02Z</time></trkpt><trkpt lat="42.544210421619134" lon="0.7304181939097507"><ele>1133.0</ele><time>2026-04-27T16:35:03Z</time></trkpt><trkpt lat="42.54428179132602" lon="0.7304651272082627"><ele>1132.0</ele><time>2026-04-27T16:35:04Z</time></trkpt><trkpt lat="42.5443521390862" lon="0.73051680751643"><ele>1131.0</ele><time>2026-04-27T16:35:05Z</time></trkpt><trkpt lat="42.54442203254891" lon="0.7305714719474498"><ele>1131.0</ele><time>2026-04-27T16:35:06Z</time></trkpt><trkpt lat="42.54449011681461" lon="0.7306251504597976"><ele>1131.0</ele><time>2026-04-27T16:35:07Z</time></trkpt><trkpt lat="42.544554945570155" lon="0.7306835443443621"><ele>1131.0</ele><time>2026-04-27T16:35:08Z</time></trkpt><trkpt lat="42.54462018123024" lon="0.7307442424220325"><ele>1131.0</ele><time>2026-04-27T16:35:09Z</time></trkpt><trkpt lat="42.544684682272674" lon="0.7308031314931336"><ele>1131.0</ele><time>2026-04-27T16:35:10Z</time></trkpt><trkpt lat="42.54474812828913" lon="0.7308650846480099"><ele>1131.0</ele><time>2026-04-27T16:35:11Z</time></trkpt><trkpt lat="42.54480523036015" lon="0.7309355254586422"><ele>1132.8333333333333</ele><time>2026-04-27T16:35:12Z</time></trkpt><trkpt lat="42.54485852958378" lon="0.7310101125053343"><ele>1134.6666666666667</ele><time>2026-04-27T16:35:13Z</time></trkpt><trkpt lat="42.54491163801764" lon="0.7310887214880818"><ele>1136.5</ele><time>2026-04-27T16:35:14Z</time></trkpt><trkpt lat="42.544959995953135" lon="0.7311720272373455"><ele>1138.3333333333335</ele><time>2026-04-27T16:35:15Z</time></trkpt><trkpt lat="42.5450061309612" lon="0.7312548588783545"><ele>1140.1666666666667</ele><time>2026-04-27T16:35:16Z</time></trkpt><trkpt lat="42.545051323098086" lon="0.7313375274085311"><ele>1142.0</ele><time>2026-04-27T16:35:17Z</time></trkpt><trkpt lat="42.54509620770573" lon="0.7314253370647095"><ele>1142.0</ele><time>2026-04-27T16:35:18Z</time></trkpt><trkpt lat="42.54513792558579" lon="0.7315161238930841"><ele>1142.0</ele><time>2026-04-27T16:35:19Z</time></trkpt><trkpt lat="42.54518046342613" lon="0.7316083133327075"><ele>1142.0</ele><time>2026-04-27T16:35:20Z</time></trkpt><trkpt lat="42.5452224174816" lon="0.7317022530520565"><ele>1142.0</ele><time>2026-04-27T16:35:21Z</time></trkpt><trkpt lat="42.5452644303917" lon="0.7317960192926979"><ele>1142.0</ele><time>2026-04-27T16:35:22Z</time></trkpt><trkpt lat="42.54530610260715" lon="0.7318900218175209"><ele>1142.0</ele><time>2026-04-27T16:35:23Z</time></trkpt><trkpt lat="42.5453471466208" lon="0.7319832303998518"><ele>1146.0</ele><time>2026-04-27T16:35:24Z</time></trkpt><trkpt lat="42.54539044255824" lon="0.732075247600618"><ele>1150.0</ele><time>2026-04-27T16:35:25Z</time></trkpt><trkpt lat="42.54543512216871" lon="0.7321636619295199"><ele>1154.0</ele><time>2026-04-27T16:35:26Z</time></trkpt><trkpt lat="42.545476688381996" lon="0.7322503142045892"><ele>1158.0</ele><time>2026-04-27T16:35:27Z</time></trkpt><trkpt lat="42.54552031458788" lon="0.7323387011076772"><ele>1162.0</ele><time>2026-04-27T16:35:28Z</time></trkpt><trkpt lat="42.54556270199335" lon="0.7324281389543736"><ele>1166.0</ele><time>2026-04-27T16:35:29Z</time></trkpt><trkpt lat="42.54560508480584" lon="0.7325164958083066"><ele>1166.0</ele><time>2026-04-27T16:35:30Z</time></trkpt><trkpt lat="42.54564777852281" lon="0.7326044539421019"><ele>1166.0</ele><time>2026-04-27T16:35:31Z</time></trkpt><trkpt lat="42.54568852907407" lon="0.7326889879130533"><ele>1166.0</ele><time>2026-04-27T16:35:32Z</time></trkpt><trkpt lat="42.54573152691146" lon="0.7327755305724394"><ele>1166.0</ele><time>2026-04-27T16:35:33Z</time></trkpt><trkpt lat="42.54577381910285" lon="0.732863033759535"><ele>1166.0</ele><time>2026-04-27T16:35:34Z</time></trkpt><trkpt lat="42.54581451870007" lon="0.7329486987677015"><ele>1166.0</ele><time>2026-04-27T16:35:35Z</time></trkpt><trkpt lat="42.545853885485506" lon="0.7330360157522123"><ele>1163.1666666666667</ele><time>2026-04-27T16:35:36Z</time></trkpt><trkpt lat="42.54589524014778" lon="0.7331238175901922"><ele>1160.3333333333335</ele><time>2026-04-27T16:35:37Z</time></trkpt><trkpt lat="42.54593780583563" lon="0.7332101800740662"><ele>1157.5</ele><time>2026-04-27T16:35:38Z</time></trkpt><trkpt lat="42.54597960455849" lon="0.7332967157978487"><ele>1154.6666666666667</ele><time>2026-04-27T16:35:39Z</time></trkpt><trkpt lat="42.54602026596958" lon="0.7333845084630422"><ele>1151.8333333333333</ele><time>2026-04-27T16:35:40Z</time></trkpt><trkpt lat="42.54605817647455" lon="0.7334726511491718"><ele>1149.0</ele><time>2026-04-27T16:35:41Z</time></trkpt><trkpt lat="42.54609457043576" lon="0.7335630740890946"><ele>1147.3333333333333</ele><time>2026-04-27T16:35:42Z</time></trkpt><trkpt lat="42.54612988928619" lon="0.7336565723531873"><ele>1145.6666666666667</ele><time>2026-04-27T16:35:43Z</time></trkpt><trkpt lat="42.546164586145004" lon="0.733752615366938"><ele>1144.0</ele><time>2026-04-27T16:35:44Z</time></trkpt><trkpt lat="42.54619752200279" lon="0.7338451406802242"><ele>1142.3333333333335</ele><time>2026-04-27T16:35:45Z</time></trkpt><trkpt lat="42.54622860029779" lon="0.7339389303238504"><ele>1140.6666666666667</ele><time>2026-04-27T16:35:46Z</time></trkpt><trkpt lat="42.5462567134287" lon="0.7340332020090552"><ele>1139.0</ele><time>2026-04-27T16:35:47Z</time></trkpt><trkpt lat="42.546280200922816" lon="0.7341324544721645"><ele>1144.1666666666667</ele><time>2026-04-27T16:35:48Z</time></trkpt><trkpt lat="42.54630590570424" lon="0.7342329422995959"><ele>1149.3333333333335</ele><time>2026-04-27T16:35:49Z</time></trkpt><trkpt lat="42.54632748282817" lon="0.7343316801671644"><ele>1154.5</ele><time>2026-04-27T16:35:50Z</time></trkpt><trkpt lat="42.54634740026973" lon="0.7344341668559459"><ele>1159.6666666666667</ele><time>2026-04-27T16:35:51Z</time></trkpt><trkpt lat="42.54636586022139" lon="0.7345363998943734"><ele>1164.8333333333333</ele><time>2026-04-27T16:35:52Z</time></trkpt><trkpt lat="42.54638397974188" lon="0.7346389440557768"><ele>1170.0</ele><time>2026-04-27T16:35:53Z</time></trkpt><trkpt lat="42.5464019152037" lon="0.7347421518954939"><ele>1170.5</ele><time>2026-04-27T16:35:54Z</time></trkpt><trkpt lat="42.5464199312499" lon="0.7348428460962744"><ele>1171.0</ele><time>2026-04-27T16:35:55Z</time></trkpt><trkpt lat="42.54643517740821" lon="0.7349466254644362"><ele>1171.5</ele><time>2026-04-27T16:35:56Z</time></trkpt><trkpt lat="42.546447464816815" lon="0.7350484954779928"><ele>1172.0</ele><time>2026-04-27T16:35:57Z</time></trkpt><trkpt lat="42.546457414265376" lon="0.7351520846668367"><ele>1172.5</ele><time>2026-04-27T16:35:58Z</time></trkpt><trkpt lat="42.54646399659565" lon="0.7352547927603642"><ele>1173.0</ele><time>2026-04-27T16:35:59Z</time></trkpt><trkpt lat="42.546469200580724" lon="0.7353583624063657"><ele>1173.0</ele><time>2026-04-27T16:36:00Z</time></trkpt><trkpt lat="42.54647329097918" lon="0.7354623168543803"><ele>1173.0</ele><time>2026-04-27T16:36:01Z</time></trkpt><trkpt lat="42.54647708149034" lon="0.7355660433879742"><ele>1173.0</ele><time>2026-04-27T16:36:02Z</time></trkpt><trkpt lat="42.546478053207316" lon="0.7356710597798685"><ele>1173.0</ele><time>2026-04-27T16:36:03Z</time></trkpt><trkpt lat="42.546478486867144" lon="0.7357773452423124"><ele>1173.0</ele><time>2026-04-27T16:36:04Z</time></trkpt><trkpt lat="42.54647963661106" lon="0.7358808514019671"><ele>1173.0</ele><time>2026-04-27T16:36:05Z</time></trkpt><trkpt lat="42.54647915885952" lon="0.7359842650310306"><ele>1172.3333333333333</ele><time>2026-04-27T16:36:06Z</time></trkpt><trkpt lat="42.546478829357085" lon="0.736086944804962"><ele>1171.6666666666667</ele><time>2026-04-27T16:36:07Z</time></trkpt><trkpt lat="42.54647850991624" lon="0.7361924364948311"><ele>1171.0</ele><time>2026-04-27T16:36:08Z</time></trkpt><trkpt lat="42.546476666681855" lon="0.7362970917514463"><ele>1170.3333333333335</ele><time>2026-04-27T16:36:09Z</time></trkpt><trkpt lat="42.5464727872023" lon="0.7364007619583138"><ele>1169.6666666666667</ele><time>2026-04-27T16:36:10Z</time></trkpt><trkpt lat="42.54647097251984" lon="0.7365057292184523"><ele>1169.0</ele><time>2026-04-27T16:36:11Z</time></trkpt><trkpt lat="42.54647028085653" lon="0.736608938435565"><ele>1169.0</ele><time>2026-04-27T16:36:12Z</time></trkpt><trkpt lat="42.54646629275846" lon="0.7367120157046474"><ele>1169.0</ele><time>2026-04-27T16:36:13Z</time></trkpt><trkpt lat="42.54646648411022" lon="0.7368179260239143"><ele>1169.0</ele><time>2026-04-27T16:36:14Z</time></trkpt><trkpt lat="42.54646323511646" lon="0.7369238480287809"><ele>1169.0</ele><time>2026-04-27T16:36:15Z</time></trkpt><trkpt lat="42.54646230905396" lon="0.7370283560954589"><ele>1169.0</ele><time>2026-04-27T16:36:16Z</time></trkpt><trkpt lat="42.54646429309342" lon="0.7371360208106826"><ele>1169.0</ele><time>2026-04-27T16:36:17Z</time></trkpt><trkpt lat="42.54646429614642" lon="0.7372433553334525"><ele>1169.8333333333335</ele><time>2026-04-27T16:36:18Z</time></trkpt><trkpt lat="42.54646172872058" lon="0.7373480487279604"><ele>1170.6666666666667</ele><time>2026-04-27T16:36:19Z</time></trkpt><trkpt lat="42.546459180854896" lon="0.7374542958089143"><ele>1171.5</ele><time>2026-04-27T16:36:20Z</time></trkpt><trkpt lat="42.54645917553932" lon="0.7375608096712484"><ele>1172.3333333333333</ele><time>2026-04-27T16:36:21Z</time></trkpt><trkpt lat="42.54646025221788" lon="0.7376689878684175"><ele>1173.1666666666665</ele><time>2026-04-27T16:36:22Z</time></trkpt><trkpt lat="42.5464617231434" lon="0.737778516873539"><ele>1174.0</ele><time>2026-04-27T16:36:23Z</time></trkpt><trkpt lat="42.546460720213275" lon="0.7378832715468213"><ele>1174.0</ele><time>2026-04-27T16:36:24Z</time></trkpt><trkpt lat="42.5464578359949" lon="0.7379896619107005"><ele>1174.0</ele><time>2026-04-27T16:36:25Z</time></trkpt><trkpt lat="42.546459429334725" lon="0.7380990817779622"><ele>1174.0</ele><time>2026-04-27T16:36:26Z</time></trkpt><trkpt lat="42.546461623444394" lon="0.7382057427435453"><ele>1174.0</ele><time>2026-04-27T16:36:27Z</time></trkpt><trkpt lat="42.54646178059287" lon="0.7383050914875795"><ele>1174.0</ele><time>2026-04-27T16:36:28Z</time></trkpt><trkpt lat="42.546456322388224" lon="0.7384125647664125"><ele>1174.0</ele><time>2026-04-27T16:36:29Z</time></trkpt><trkpt lat="42.54645355484042" lon="0.7385196524717229"><ele>1174.0</ele><time>2026-04-27T16:36:30Z</time></trkpt><trkpt lat="42.5464515342443" lon="0.7386297408439355"><ele>1174.0</ele><time>2026-04-27T16:36:31Z</time></trkpt><trkpt lat="42.54644969175697" lon="0.7387319389546277"><ele>1174.0</ele><time>2026-04-27T16:36:32Z</time></trkpt><trkpt lat="42.54644819446177" lon="0.7388367055448688"><ele>1174.0</ele><time>2026-04-27T16:36:33Z</time></trkpt><trkpt lat="42.54644668164929" lon="0.7389362048311077"><ele>1174.0</ele><time>2026-04-27T16:36:34Z</time></trkpt><trkpt lat="42.54644452349443" lon="0.739041600368156"><ele>1174.0</ele><time>2026-04-27T16:36:35Z</time></trkpt><trkpt lat="42.54644263989622" lon="0.7391484424721295"><ele>1174.0</ele><time>2026-04-27T16:36:36Z</time></trkpt><trkpt lat="42.54643578449056" lon="0.739253165654121"><ele>1174.0</ele><time>2026-04-27T16:36:37Z</time></trkpt><trkpt lat="42.54643719928212" lon="0.7393552170757032"><ele>1174.0</ele><time>2026-04-27T16:36:38Z</time></trkpt><trkpt lat="42.5464369157843" lon="0.739462725753165"><ele>1174.0</ele><time>2026-04-27T16:36:39Z</time></trkpt><trkpt lat="42.54643292903908" lon="0.7395648604487087"><ele>1174.0</ele><time>2026-04-27T16:36:40Z</time></trkpt><trkpt lat="42.546427774997625" lon="0.7396692521051642"><ele>1174.0</ele><time>2026-04-27T16:36:41Z</time></trkpt><trkpt lat="42.546421602814426" lon="0.7397737713874252"><ele>1179.4</ele><time>2026-04-27T16:36:42.019Z</time></trkpt><trkpt lat="42.54641644841205" lon="0.7398753641795317"><ele>1184.8000000000002</ele><time>2026-04-27T16:36:43.025Z</time></trkpt><trkpt lat="42.54640987619641" lon="0.7399753246149725"><ele>1190.1999999999998</ele><time>2026-04-27T16:36:44.02Z</time></trkpt><trkpt lat="42.54640432166929" lon="0.7400743184377582"><ele>1195.6</ele><time>2026-04-27T16:36:45.017Z</time></trkpt><trkpt lat="42.5464008102501" lon="0.7401740541558388"><ele>1201.0</ele><time>2026-04-27T16:36:46.018Z</time></trkpt><trkpt lat="42.546577605467384" lon="0.7406180736788672"><ele>1201.0</ele><time>2026-04-27T16:36:50.836Z</time></trkpt><trkpt lat="42.54660013117007" lon="0.7407172121126727"><ele>1201.0</ele><time>2026-04-27T16:36:51.836Z</time></trkpt><trkpt lat="42.54665447799687" lon="0.7407888253651175"><ele>1201.0</ele><time>2026-04-27T16:36:52.836Z</time></trkpt><trkpt lat="42.54669873415939" lon="0.7408688842658638"><ele>1201.0</ele><time>2026-04-27T16:36:53.835Z</time></trkpt><trkpt lat="42.546732424664526" lon="0.7409612194261966"><ele>1201.0</ele><time>2026-04-27T16:36:54.836Z</time></trkpt><trkpt lat="42.546793456268325" lon="0.7410225130338438"><ele>1201.0</ele><time>2026-04-27T16:36:55.836Z</time></trkpt><trkpt lat="42.54684689013564" lon="0.7410915880873076"><ele>1199.6</ele><time>2026-04-27T16:36:56.836Z</time></trkpt><trkpt lat="42.54690328519227" lon="0.7411563191437361"><ele>1198.1999999999998</ele><time>2026-04-27T16:36:57.836Z</time></trkpt><trkpt lat="42.54696248248644" lon="0.7412161061782845"><ele>1196.8000000000002</ele><time>2026-04-27T16:36:58.835Z</time></trkpt><trkpt lat="42.5471176357924" lon="0.741363772474379"><ele>1195.4</ele><time>2026-04-27T16:37:01Z</time></trkpt><trkpt lat="42.54718942133623" lon="0.7414074100233803"><ele>1194.0</ele><time>2026-04-27T16:37:02Z</time></trkpt><trkpt lat="42.547255852440024" lon="0.7414417833629856"><ele>1194.0</ele><time>2026-04-27T16:37:03Z</time></trkpt><trkpt lat="42.547326699387966" lon="0.7414528540716249"><ele>1194.0</ele><time>2026-04-27T16:37:04Z</time></trkpt><trkpt lat="42.54739621839988" lon="0.741506667394331"><ele>1194.0</ele><time>2026-04-27T16:37:05Z</time></trkpt><trkpt lat="42.547476057716956" lon="0.7415411599255993"><ele>1194.0</ele><time>2026-04-27T16:37:06Z</time></trkpt><trkpt lat="42.54754297067016" lon="0.7415685699917667"><ele>1194.0</ele><time>2026-04-27T16:37:07Z</time></trkpt><trkpt lat="42.5476237291799" lon="0.7415988390574945"><ele>1194.0</ele><time>2026-04-27T16:37:08Z</time></trkpt><trkpt lat="42.54770060888121" lon="0.7416265770709065"><ele>1194.0</ele><time>2026-04-27T16:37:09Z</time></trkpt><trkpt lat="42.54777670207832" lon="0.7416540313158728"><ele>1194.0</ele><time>2026-04-27T16:37:10Z</time></trkpt><trkpt lat="42.54785057214073" lon="0.7416806834515187"><ele>1194.0</ele><time>2026-04-27T16:37:11Z</time></trkpt><trkpt lat="42.5479249645722" lon="0.7417075240516898"><ele>1194.0</ele><time>2026-04-27T16:37:12Z</time></trkpt><trkpt lat="42.54799843812764" lon="0.7417340331379995"><ele>1194.0</ele><time>2026-04-27T16:37:13Z</time></trkpt><trkpt lat="42.54807762602386" lon="0.7417441077236991"><ele>1194.0</ele><time>2026-04-27T16:37:14Z</time></trkpt><trkpt lat="42.54815102847394" lon="0.741775632262237"><ele>1194.0</ele><time>2026-04-27T16:37:15Z</time></trkpt><trkpt lat="42.54822505238465" lon="0.741802597094912"><ele>1194.0</ele><time>2026-04-27T16:37:16Z</time></trkpt><trkpt lat="42.548297545816745" lon="0.7418380480217404"><ele>1194.0</ele><time>2026-04-27T16:37:17Z</time></trkpt><trkpt lat="42.5483687688214" lon="0.7418805871251126"><ele>1194.0</ele><time>2026-04-27T16:37:18Z</time></trkpt><trkpt lat="42.548435318251386" lon="0.7419361108196458"><ele>1194.0</ele><time>2026-04-27T16:37:19Z</time></trkpt><trkpt lat="42.54849937034022" lon="0.7419953887870893"><ele>1194.0</ele><time>2026-04-27T16:37:20Z</time></trkpt><trkpt lat="42.54855994391659" lon="0.742063425119844"><ele>1194.0</ele><time>2026-04-27T16:37:21Z</time></trkpt><trkpt lat="42.548614582899546" lon="0.74213600852388"><ele>1194.0</ele><time>2026-04-27T16:37:22Z</time></trkpt><trkpt lat="42.54866368321093" lon="0.7422176546412362"><ele>1194.0</ele><time>2026-04-27T16:37:23Z</time></trkpt><trkpt lat="42.54870803806481" lon="0.742305322587518"><ele>1194.0</ele><time>2026-04-27T16:37:24Z</time></trkpt><trkpt lat="42.548749238107106" lon="0.7423959476712004"><ele>1194.0</ele><time>2026-04-27T16:37:25Z</time></trkpt><trkpt lat="42.548782724320446" lon="0.7424884144829753"><ele>1194.0</ele><time>2026-04-27T16:37:26Z</time></trkpt><trkpt lat="42.54881082767446" lon="0.7425830116731206"><ele>1200.0</ele><time>2026-04-27T16:37:27Z</time></trkpt><trkpt lat="42.548832315897954" lon="0.7426804181765219"><ele>1206.0</ele><time>2026-04-27T16:37:28Z</time></trkpt><trkpt lat="42.54884858683539" lon="0.7427819343755219"><ele>1212.0</ele><time>2026-04-27T16:37:29Z</time></trkpt><trkpt lat="42.54886579006388" lon="0.7428816358888066"><ele>1218.0</ele><time>2026-04-27T16:37:30Z</time></trkpt><trkpt lat="42.54888404255407" lon="0.7429790401209387"><ele>1224.0</ele><time>2026-04-27T16:37:31Z</time></trkpt><trkpt lat="42.54890268513485" lon="0.7430763789328417"><ele>1230.0</ele><time>2026-04-27T16:37:32Z</time></trkpt><trkpt lat="42.548921324859684" lon="0.7431763867671985"><ele>1230.0</ele><time>2026-04-27T16:37:33Z</time></trkpt><trkpt lat="42.54893850434332" lon="0.7432760315232555"><ele>1230.0</ele><time>2026-04-27T16:37:34Z</time></trkpt><trkpt lat="42.548956089807334" lon="0.7433774607040237"><ele>1230.0</ele><time>2026-04-27T16:37:35Z</time></trkpt><trkpt lat="42.54897549639949" lon="0.743477028758809"><ele>1230.0</ele><time>2026-04-27T16:37:36Z</time></trkpt><trkpt lat="42.548995313013585" lon="0.7435757657630498"><ele>1230.0</ele><time>2026-04-27T16:37:37Z</time></trkpt><trkpt lat="42.54901876730302" lon="0.7436755160995967"><ele>1230.0</ele><time>2026-04-27T16:37:38Z</time></trkpt><trkpt lat="42.54904986113926" lon="0.7437689724306729"><ele>1227.857142857143</ele><time>2026-04-27T16:37:39Z</time></trkpt><trkpt lat="42.54908743445428" lon="0.743854733652912"><ele>1225.7142857142858</ele><time>2026-04-27T16:37:40Z</time></trkpt><trkpt lat="42.54913163716186" lon="0.7439379959459694"><ele>1223.5714285714287</ele><time>2026-04-27T16:37:41Z</time></trkpt><trkpt lat="42.54917651674653" lon="0.7440165956446357"><ele>1221.4285714285716</ele><time>2026-04-27T16:37:42Z</time></trkpt><trkpt lat="42.5492269806958" lon="0.7440922570718479"><ele>1219.2857142857142</ele><time>2026-04-27T16:37:43Z</time></trkpt><trkpt lat="42.54928257343915" lon="0.7441618477390867"><ele>1217.1428571428573</ele><time>2026-04-27T16:37:44Z</time></trkpt><trkpt lat="42.54934196988322" lon="0.7442264491389975"><ele>1215.0</ele><time>2026-04-27T16:37:45Z</time></trkpt><trkpt lat="42.54940252626105" lon="0.7442871110653293"><ele>1215.0</ele><time>2026-04-27T16:37:46Z</time></trkpt><trkpt lat="42.54946438695691" lon="0.7443491359799"><ele>1215.0</ele><time>2026-04-27T16:37:47Z</time></trkpt><trkpt lat="42.54952941749048" lon="0.7444069403163435"><ele>1215.0</ele><time>2026-04-27T16:37:48Z</time></trkpt><trkpt lat="42.549592998248116" lon="0.7444649914877083"><ele>1215.0</ele><time>2026-04-27T16:37:49Z</time></trkpt><trkpt lat="42.549654748479554" lon="0.7445238942270334"><ele>1215.0</ele><time>2026-04-27T16:37:50Z</time></trkpt><trkpt lat="42.5497207301506" lon="0.7445824598663163"><ele>1215.0</ele><time>2026-04-27T16:37:51Z</time></trkpt><trkpt lat="42.54978658866141" lon="0.7446394025573874"><ele>1216.1666666666667</ele><time>2026-04-27T16:37:52Z</time></trkpt><trkpt lat="42.549851260853465" lon="0.7446977501760496"><ele>1217.3333333333333</ele><time>2026-04-27T16:37:53Z</time></trkpt><trkpt lat="42.54991457770591" lon="0.7447583856264769"><ele>1218.5</ele><time>2026-04-27T16:37:54Z</time></trkpt><trkpt lat="42.54997699753512" lon="0.7448216837637747"><ele>1219.6666666666665</ele><time>2026-04-27T16:37:55Z</time></trkpt><trkpt lat="42.55003967081197" lon="0.7448814816165922"><ele>1220.8333333333333</ele><time>2026-04-27T16:37:56Z</time></trkpt><trkpt lat="42.550100405895726" lon="0.7449413108057041"><ele>1222.0</ele><time>2026-04-27T16:37:57Z</time></trkpt><trkpt lat="42.550161476729556" lon="0.7450024999514775"><ele>1222.0</ele><time>2026-04-27T16:37:58Z</time></trkpt><trkpt lat="42.550221871322606" lon="0.745067983174738"><ele>1222.0</ele><time>2026-04-27T16:37:59Z</time></trkpt><trkpt lat="42.55027723684018" lon="0.7451368226318942"><ele>1222.0</ele><time>2026-04-27T16:38:00Z</time></trkpt><trkpt lat="42.55033063112203" lon="0.7452096527330503"><ele>1222.0</ele><time>2026-04-27T16:38:01Z</time></trkpt><trkpt lat="42.55036689131326" lon="0.7453031573372613"><ele>1222.0</ele><time>2026-04-27T16:38:02Z</time></trkpt><trkpt lat="42.55041197624511" lon="0.7453860758490072"><ele>1222.0</ele><time>2026-04-27T16:38:03Z</time></trkpt><trkpt lat="42.55045285705968" lon="0.7454717148884991"><ele>1223.5714285714287</ele><time>2026-04-27T16:38:04Z</time></trkpt><trkpt lat="42.55050112954832" lon="0.7455530981842569"><ele>1225.142857142857</ele><time>2026-04-27T16:38:05Z</time></trkpt><trkpt lat="42.55053123557981" lon="0.745649410393908"><ele>1226.7142857142858</ele><time>2026-04-27T16:38:06Z</time></trkpt><trkpt lat="42.55056175823049" lon="0.7457397873952822"><ele>1228.2857142857142</ele><time>2026-04-27T16:38:07Z</time></trkpt><trkpt lat="42.550595522970376" lon="0.7458303056205154"><ele>1229.857142857143</ele><time>2026-04-27T16:38:08Z</time></trkpt><trkpt lat="42.550611272644836" lon="0.7459292834340387"><ele>1231.4285714285716</ele><time>2026-04-27T16:38:09Z</time></trkpt><trkpt lat="42.55064177830616" lon="0.7460173109206365"><ele>1233.0</ele><time>2026-04-27T16:38:10Z</time></trkpt><trkpt lat="42.55067486066007" lon="0.7461082416775814"><ele>1233.0</ele><time>2026-04-27T16:38:11Z</time></trkpt><trkpt lat="42.55072210271447" lon="0.7461854310072321"><ele>1233.0</ele><time>2026-04-27T16:38:12Z</time></trkpt><trkpt lat="42.550754457630525" lon="0.7462720107400805"><ele>1233.0</ele><time>2026-04-27T16:38:13Z</time></trkpt><trkpt lat="42.55079048079402" lon="0.7463545054864718"><ele>1233.0</ele><time>2026-04-27T16:38:14Z</time></trkpt><trkpt lat="42.550832096276984" lon="0.7464322953485025"><ele>1233.0</ele><time>2026-04-27T16:38:15Z</time></trkpt><trkpt lat="42.55087867598058" lon="0.7465061397754851"><ele>1233.0</ele><time>2026-04-27T16:38:16Z</time></trkpt><trkpt lat="42.55092573982066" lon="0.7465807018528479"><ele>1233.0</ele><time>2026-04-27T16:38:17Z</time></trkpt><trkpt lat="42.5509772635553" lon="0.7466534042670535"><ele>1233.0</ele><time>2026-04-27T16:38:18Z</time></trkpt><trkpt lat="42.55103335022811" lon="0.7467217457642052"><ele>1233.0</ele><time>2026-04-27T16:38:19Z</time></trkpt><trkpt lat="42.55109273233916" lon="0.7467909015754115"><ele>1233.0</ele><time>2026-04-27T16:38:20Z</time></trkpt><trkpt lat="42.551155003946775" lon="0.7468607022582414"><ele>1233.0</ele><time>2026-04-27T16:38:21Z</time></trkpt><trkpt lat="42.55122014366033" lon="0.7469284072656708"><ele>1233.0</ele><time>2026-04-27T16:38:22Z</time></trkpt><trkpt lat="42.551285166001925" lon="0.7469917053134851"><ele>1233.0</ele><time>2026-04-27T16:38:23Z</time></trkpt><trkpt lat="42.551349234125574" lon="0.7470583953241351"><ele>1233.8333333333333</ele><time>2026-04-27T16:38:24Z</time></trkpt><trkpt lat="42.55141220103188" lon="0.7471267765411146"><ele>1234.6666666666667</ele><time>2026-04-27T16:38:25Z</time></trkpt><trkpt lat="42.551476650326514" lon="0.7471887989771004"><ele>1235.5</ele><time>2026-04-27T16:38:26Z</time></trkpt><trkpt lat="42.551541770562835" lon="0.7472569504057135"><ele>1236.3333333333335</ele><time>2026-04-27T16:38:27Z</time></trkpt><trkpt lat="42.5516049675375" lon="0.7473192566741402"><ele>1237.1666666666667</ele><time>2026-04-27T16:38:28Z</time></trkpt><trkpt lat="42.55166967696917" lon="0.7473847584207731"><ele>1238.0</ele><time>2026-04-27T16:38:29Z</time></trkpt><trkpt lat="42.551737428800806" lon="0.7474492548302583"><ele>1238.0</ele><time>2026-04-27T16:38:30Z</time></trkpt><trkpt lat="42.551802145207226" lon="0.7475120936291519"><ele>1238.0</ele><time>2026-04-27T16:38:31Z</time></trkpt><trkpt lat="42.5518671125778" lon="0.7475737641916977"><ele>1238.0</ele><time>2026-04-27T16:38:32Z</time></trkpt><trkpt lat="42.55193088118718" lon="0.7476367718362664"><ele>1238.0</ele><time>2026-04-27T16:38:33Z</time></trkpt><trkpt lat="42.551992392295006" lon="0.747700100842681"><ele>1238.0</ele><time>2026-04-27T16:38:34Z</time></trkpt><trkpt lat="42.55205487021744" lon="0.7477637907576572"><ele>1238.0</ele><time>2026-04-27T16:38:35Z</time></trkpt><trkpt lat="42.552117504198705" lon="0.7478264406942403"><ele>1239.6666666666667</ele><time>2026-04-27T16:38:36Z</time></trkpt><trkpt lat="42.55218151898177" lon="0.7478883219413283"><ele>1241.3333333333335</ele><time>2026-04-27T16:38:37Z</time></trkpt><trkpt lat="42.55224419602163" lon="0.747952566033778"><ele>1243.0</ele><time>2026-04-27T16:38:38Z</time></trkpt><trkpt lat="42.552306365691344" lon="0.7480181040659866"><ele>1244.6666666666667</ele><time>2026-04-27T16:38:39Z</time></trkpt><trkpt lat="42.55236687659721" lon="0.748083094019498"><ele>1246.3333333333333</ele><time>2026-04-27T16:38:40Z</time></trkpt><trkpt lat="42.55242940508626" lon="0.7481456762546507"><ele>1248.0</ele><time>2026-04-27T16:38:41Z</time></trkpt><trkpt lat="42.55249111493393" lon="0.7482109330366223"><ele>1248.0</ele><time>2026-04-27T16:38:42Z</time></trkpt><trkpt lat="42.55255623712771" lon="0.7482740577872748"><ele>1248.0</ele><time>2026-04-27T16:38:43Z</time></trkpt><trkpt lat="42.55261933084073" lon="0.7483378364163408"><ele>1248.0</ele><time>2026-04-27T16:38:44Z</time></trkpt><trkpt lat="42.552680932969245" lon="0.7484063048738349"><ele>1248.0</ele><time>2026-04-27T16:38:45Z</time></trkpt><trkpt lat="42.55274526303142" lon="0.7484693944341161"><ele>1248.0</ele><time>2026-04-27T16:38:46Z</time></trkpt><trkpt lat="42.55280822377639" lon="0.7485319067144839"><ele>1248.0</ele><time>2026-04-27T16:38:47Z</time></trkpt><trkpt lat="42.5528732315855" lon="0.7485877715319649"><ele>1247.3333333333333</ele><time>2026-04-27T16:38:48Z</time></trkpt><trkpt lat="42.552941534730415" lon="0.7486330928253272"><ele>1246.6666666666667</ele><time>2026-04-27T16:38:49Z</time></trkpt><trkpt lat="42.55301171752571" lon="0.7486736844313021"><ele>1246.0</ele><time>2026-04-27T16:38:50Z</time></trkpt><trkpt lat="42.553084576647095" lon="0.7487047077520202"><ele>1245.3333333333335</ele><time>2026-04-27T16:38:51Z</time></trkpt><trkpt lat="42.553155242212334" lon="0.7487283621893329"><ele>1244.6666666666667</ele><time>2026-04-27T16:38:52Z</time></trkpt><trkpt lat="42.553231162130075" lon="0.7487378347604638"><ele>1244.0</ele><time>2026-04-27T16:38:53Z</time></trkpt><trkpt lat="42.55330635099444" lon="0.7487369709662677"><ele>1244.0</ele><time>2026-04-27T16:38:54Z</time></trkpt><trkpt lat="42.553382141601816" lon="0.7487252177435024"><ele>1244.0</ele><time>2026-04-27T16:38:55Z</time></trkpt><trkpt lat="42.553458844277145" lon="0.7487053307471421"><ele>1244.0</ele><time>2026-04-27T16:38:56Z</time></trkpt><trkpt lat="42.553535564199464" lon="0.7486779815260327"><ele>1244.0</ele><time>2026-04-27T16:38:57Z</time></trkpt><trkpt lat="42.55361017391955" lon="0.7486467198432575"><ele>1244.0</ele><time>2026-04-27T16:38:58Z</time></trkpt><trkpt lat="42.55368363420989" lon="0.7486027943290274"><ele>1244.0</ele><time>2026-04-27T16:38:59Z</time></trkpt><trkpt lat="42.55375631640246" lon="0.7485520454516286"><ele>1246.6666666666667</ele><time>2026-04-27T16:39:00Z</time></trkpt><trkpt lat="42.55383024248209" lon="0.7484978323434298"><ele>1249.3333333333335</ele><time>2026-04-27T16:39:01Z</time></trkpt><trkpt lat="42.553904949529645" lon="0.7484421952573553"><ele>1252.0</ele><time>2026-04-27T16:39:02Z</time></trkpt><trkpt lat="42.55397912132086" lon="0.7483832013458538"><ele>1254.6666666666667</ele><time>2026-04-27T16:39:03Z</time></trkpt><trkpt lat="42.55405341933337" lon="0.7483255705627578"><ele>1257.3333333333333</ele><time>2026-04-27T16:39:04Z</time></trkpt><trkpt lat="42.554130237937024" lon="0.7482724199203914"><ele>1260.0</ele><time>2026-04-27T16:39:05Z</time></trkpt><trkpt lat="42.55420466929499" lon="0.7482169298836551"><ele>1260.0</ele><time>2026-04-27T16:39:06Z</time></trkpt><trkpt lat="42.55427813665016" lon="0.7481609546255052"><ele>1260.0</ele><time>2026-04-27T16:39:07Z</time></trkpt><trkpt lat="42.55435333213558" lon="0.7481062508008883"><ele>1260.0</ele><time>2026-04-27T16:39:08Z</time></trkpt><trkpt lat="42.554425982820156" lon="0.7480524144557751"><ele>1260.0</ele><time>2026-04-27T16:39:09Z</time></trkpt><trkpt lat="42.55449825548399" lon="0.7480005744855016"><ele>1260.0</ele><time>2026-04-27T16:39:10Z</time></trkpt><trkpt lat="42.55457019487219" lon="0.7479476591012334"><ele>1260.0</ele><time>2026-04-27T16:39:11Z</time></trkpt><trkpt lat="42.55464593933775" lon="0.7478998248816386"><ele>1258.8333333333333</ele><time>2026-04-27T16:39:12Z</time></trkpt><trkpt lat="42.55472310071817" lon="0.7478571958607502"><ele>1257.6666666666667</ele><time>2026-04-27T16:39:13Z</time></trkpt><trkpt lat="42.55479982289117" lon="0.7478170042077031"><ele>1256.5</ele><time>2026-04-27T16:39:14Z</time></trkpt><trkpt lat="42.55487647770551" lon="0.7477818922307842"><ele>1255.3333333333335</ele><time>2026-04-27T16:39:15Z</time></trkpt><trkpt lat="42.554954407738094" lon="0.7477480610049592"><ele>1254.1666666666667</ele><time>2026-04-27T16:39:16Z</time></trkpt><trkpt lat="42.555032959687814" lon="0.7477228847785561"><ele>1253.0</ele><time>2026-04-27T16:39:17Z</time></trkpt><trkpt lat="42.555112311695666" lon="0.7477023182890862"><ele>1257.8333333333335</ele><time>2026-04-27T16:39:18Z</time></trkpt><trkpt lat="42.555191932468865" lon="0.7476881777862968"><ele>1262.6666666666667</ele><time>2026-04-27T16:39:19Z</time></trkpt><trkpt lat="42.55527361179029" lon="0.7476809022627535"><ele>1267.5</ele><time>2026-04-27T16:39:20Z</time></trkpt><trkpt lat="42.5553543814398" lon="0.7476732154077615"><ele>1272.3333333333333</ele><time>2026-04-27T16:39:21Z</time></trkpt><trkpt lat="42.55543474466081" lon="0.7476692962532123"><ele>1277.1666666666665</ele><time>2026-04-27T16:39:22Z</time></trkpt><trkpt lat="42.555515708571946" lon="0.7476611621012483"><ele>1282.0</ele><time>2026-04-27T16:39:23Z</time></trkpt><trkpt lat="42.55559496676948" lon="0.74765864830962"><ele>1282.0</ele><time>2026-04-27T16:39:24Z</time></trkpt><trkpt lat="42.55567450040363" lon="0.7476503398938428"><ele>1282.0</ele><time>2026-04-27T16:39:25Z</time></trkpt><trkpt lat="42.555753059403244" lon="0.747652483149962"><ele>1282.0</ele><time>2026-04-27T16:39:26Z</time></trkpt><trkpt lat="42.55583239634079" lon="0.7476508517738918"><ele>1282.0</ele><time>2026-04-27T16:39:27Z</time></trkpt><trkpt lat="42.55591005805635" lon="0.7476481413021744"><ele>1282.0</ele><time>2026-04-27T16:39:28Z</time></trkpt><trkpt lat="42.55598794464608" lon="0.7476430251183869"><ele>1282.0</ele><time>2026-04-27T16:39:29Z</time></trkpt><trkpt lat="42.5560652017253" lon="0.7476384213962208"><ele>1282.0</ele><time>2026-04-27T16:39:30Z</time></trkpt><trkpt lat="42.55614048064693" lon="0.7476379686178992"><ele>1282.0</ele><time>2026-04-27T16:39:31Z</time></trkpt><trkpt lat="42.5562177532766" lon="0.7476342292849183"><ele>1282.0</ele><time>2026-04-27T16:39:32Z</time></trkpt><trkpt lat="42.55629177792665" lon="0.7476279738597945"><ele>1282.0</ele><time>2026-04-27T16:39:33Z</time></trkpt><trkpt lat="42.556366146126905" lon="0.7476240562252076"><ele>1282.0</ele><time>2026-04-27T16:39:34Z</time></trkpt><trkpt lat="42.55644255918437" lon="0.7476224183005529"><ele>1282.0</ele><time>2026-04-27T16:39:35Z</time></trkpt><trkpt lat="42.556517087657966" lon="0.7476203969253802"><ele>1282.8333333333333</ele><time>2026-04-27T16:39:36Z</time></trkpt><trkpt lat="42.55659209605182" lon="0.7476146161612424"><ele>1283.6666666666665</ele><time>2026-04-27T16:39:37Z</time></trkpt><trkpt lat="42.55666624160894" lon="0.7476098171500997"><ele>1284.5</ele><time>2026-04-27T16:39:38Z</time></trkpt><trkpt lat="42.556741318968506" lon="0.7476049250622504"><ele>1285.3333333333333</ele><time>2026-04-27T16:39:39Z</time></trkpt><trkpt lat="42.55681591146475" lon="0.7476005243267452"><ele>1286.1666666666667</ele><time>2026-04-27T16:39:40Z</time></trkpt><trkpt lat="42.556890562653635" lon="0.7475899831079393"><ele>1287.0</ele><time>2026-04-27T16:39:41Z</time></trkpt><trkpt lat="42.55696645353294" lon="0.7475909997931534"><ele>1287.3333333333333</ele><time>2026-04-27T16:39:42Z</time></trkpt><trkpt lat="42.55704360259624" lon="0.747589515534572"><ele>1287.6666666666667</ele><time>2026-04-27T16:39:43Z</time></trkpt><trkpt lat="42.55711608079944" lon="0.7475841746421543"><ele>1288.0</ele><time>2026-04-27T16:39:44Z</time></trkpt><trkpt lat="42.557192709351" lon="0.7475784798603519"><ele>1288.3333333333335</ele><time>2026-04-27T16:39:45Z</time></trkpt><trkpt lat="42.55727168772202" lon="0.7475790314470916"><ele>1288.6666666666667</ele><time>2026-04-27T16:39:46Z</time></trkpt><trkpt lat="42.55734761904839" lon="0.7475748982499214"><ele>1289.0</ele><time>2026-04-27T16:39:47Z</time></trkpt><trkpt lat="42.55742431437564" lon="0.7475711083355024"><ele>1289.0</ele><time>2026-04-27T16:39:48Z</time></trkpt><trkpt lat="42.557503194167126" lon="0.7475646957911634"><ele>1289.0</ele><time>2026-04-27T16:39:49Z</time></trkpt><trkpt lat="42.55757733248881" lon="0.7475555351801741"><ele>1289.0</ele><time>2026-04-27T16:39:50Z</time></trkpt><trkpt lat="42.55765576629483" lon="0.7475573565951178"><ele>1289.0</ele><time>2026-04-27T16:39:51Z</time></trkpt><trkpt lat="42.557734839851065" lon="0.7475503696825776"><ele>1289.0</ele><time>2026-04-27T16:39:52Z</time></trkpt><trkpt lat="42.55781365412673" lon="0.7475479520468357"><ele>1289.0</ele><time>2026-04-27T16:39:53Z</time></trkpt><trkpt lat="42.557891927113744" lon="0.7475433254487679"><ele>1289.6666666666667</ele><time>2026-04-27T16:39:54Z</time></trkpt><trkpt lat="42.55797461555106" lon="0.7475439962934034"><ele>1290.3333333333335</ele><time>2026-04-27T16:39:55Z</time></trkpt><trkpt lat="42.55805335674089" lon="0.7475506573765163"><ele>1291.0</ele><time>2026-04-27T16:39:56Z</time></trkpt><trkpt lat="42.558134461432914" lon="0.7475551405738"><ele>1291.6666666666667</ele><time>2026-04-27T16:39:57Z</time></trkpt><trkpt lat="42.558216295899946" lon="0.7475658950966473"><ele>1292.3333333333333</ele><time>2026-04-27T16:39:58Z</time></trkpt><trkpt lat="42.558298622410994" lon="0.7475817444249698"><ele>1293.0</ele><time>2026-04-27T16:39:59Z</time></trkpt><trkpt lat="42.5583771729447" lon="0.7476016114711298"><ele>1293.0</ele><time>2026-04-27T16:40:00Z</time></trkpt><trkpt lat="42.55845926581727" lon="0.7476301595607512"><ele>1293.0</ele><time>2026-04-27T16:40:01Z</time></trkpt><trkpt lat="42.55853571961201" lon="0.7476849949426537"><ele>1293.0</ele><time>2026-04-27T16:40:02Z</time></trkpt><trkpt lat="42.55861685966288" lon="0.7477020305883143"><ele>1293.0</ele><time>2026-04-27T16:40:03Z</time></trkpt><trkpt lat="42.55869147920282" lon="0.7477479527125767"><ele>1293.0</ele><time>2026-04-27T16:40:04Z</time></trkpt><trkpt lat="42.55876656294066" lon="0.7477988045828765"><ele>1293.0</ele><time>2026-04-27T16:40:05Z</time></trkpt><trkpt lat="42.55883685404224" lon="0.7478540258789901"><ele>1292.6666666666667</ele><time>2026-04-27T16:40:06Z</time></trkpt><trkpt lat="42.55890529059167" lon="0.7479136368715824"><ele>1292.3333333333333</ele><time>2026-04-27T16:40:07Z</time></trkpt><trkpt lat="42.558973648768315" lon="0.7479752950732932"><ele>1292.0</ele><time>2026-04-27T16:40:08Z</time></trkpt><trkpt lat="42.55904124665493" lon="0.7480408338844287"><ele>1291.6666666666665</ele><time>2026-04-27T16:40:09Z</time></trkpt><trkpt lat="42.559104711625956" lon="0.7481092013314703"><ele>1291.3333333333333</ele><time>2026-04-27T16:40:10Z</time></trkpt><trkpt lat="42.55916402882429" lon="0.7481825116285626"><ele>1291.0</ele><time>2026-04-27T16:40:11Z</time></trkpt><trkpt lat="42.5592254640318" lon="0.7482517101824283"><ele>1291.0</ele><time>2026-04-27T16:40:12Z</time></trkpt><trkpt lat="42.55928409913346" lon="0.7483199159999705"><ele>1291.0</ele><time>2026-04-27T16:40:13Z</time></trkpt><trkpt lat="42.559346463186344" lon="0.7483870301217855"><ele>1291.0</ele><time>2026-04-27T16:40:14Z</time></trkpt><trkpt lat="42.55940640244558" lon="0.7484521171789779"><ele>1291.0</ele><time>2026-04-27T16:40:15Z</time></trkpt><trkpt lat="42.55947228461914" lon="0.7485124887719913"><ele>1291.0</ele><time>2026-04-27T16:40:16Z</time></trkpt><trkpt lat="42.55953947102476" lon="0.7485673110602913"><ele>1291.0</ele><time>2026-04-27T16:40:17Z</time></trkpt><trkpt lat="42.55960571719422" lon="0.7486214102561511"><ele>1290.3333333333333</ele><time>2026-04-27T16:40:18Z</time></trkpt><trkpt lat="42.559673126780396" lon="0.7486710788039184"><ele>1289.6666666666665</ele><time>2026-04-27T16:40:19Z</time></trkpt><trkpt lat="42.55974207051849" lon="0.7487171441838748"><ele>1289.0</ele><time>2026-04-27T16:40:20Z</time></trkpt><trkpt lat="42.559811892077924" lon="0.7487584292523034"><ele>1288.3333333333333</ele><time>2026-04-27T16:40:21Z</time></trkpt><trkpt lat="42.55988334501095" lon="0.748798568499132"><ele>1287.6666666666667</ele><time>2026-04-27T16:40:22Z</time></trkpt><trkpt lat="42.559956176323404" lon="0.7488353736774908"><ele>1287.0</ele><time>2026-04-27T16:40:23Z</time></trkpt><trkpt lat="42.560029584228865" lon="0.7488723243749881"><ele>1287.0</ele><time>2026-04-27T16:40:24Z</time></trkpt><trkpt lat="42.560102656269414" lon="0.7489078145013983"><ele>1287.0</ele><time>2026-04-27T16:40:25Z</time></trkpt><trkpt lat="42.56017656885607" lon="0.74893804906478"><ele>1287.0</ele><time>2026-04-27T16:40:26Z</time></trkpt><trkpt lat="42.56025305009966" lon="0.7489687507671726"><ele>1287.0</ele><time>2026-04-27T16:40:27Z</time></trkpt><trkpt lat="42.56032786696959" lon="0.7489919892382678"><ele>1287.0</ele><time>2026-04-27T16:40:28Z</time></trkpt><trkpt lat="42.56040187774201" lon="0.7490241396233653"><ele>1287.0</ele><time>2026-04-27T16:40:29Z</time></trkpt><trkpt lat="42.56047774516918" lon="0.7490448353375332"><ele>1289.0</ele><time>2026-04-27T16:40:30Z</time></trkpt><trkpt lat="42.56055219963382" lon="0.7490731684804816"><ele>1291.0</ele><time>2026-04-27T16:40:31Z</time></trkpt><trkpt lat="42.560628218835234" lon="0.7490969622393258"><ele>1293.0</ele><time>2026-04-27T16:40:32Z</time></trkpt><trkpt lat="42.560701275770185" lon="0.749124018122188"><ele>1295.0</ele><time>2026-04-27T16:40:33Z</time></trkpt><trkpt lat="42.56077582718021" lon="0.7491520405913479"><ele>1297.0</ele><time>2026-04-27T16:40:34Z</time></trkpt><trkpt lat="42.560849625145025" lon="0.7491786084298033"><ele>1299.0</ele><time>2026-04-27T16:40:35Z</time></trkpt><trkpt lat="42.5609225031732" lon="0.7492042726306491"><ele>1299.0000000000002</ele><time>2026-04-27T16:40:36Z</time></trkpt><trkpt lat="42.56099566423762" lon="0.7492285016088794"><ele>1299.0</ele><time>2026-04-27T16:40:37Z</time></trkpt><trkpt lat="42.56106826540349" lon="0.7492541204923964"><ele>1299.0</ele><time>2026-04-27T16:40:38Z</time></trkpt><trkpt lat="42.56114065143096" lon="0.749277930943501"><ele>1299.0</ele><time>2026-04-27T16:40:39Z</time></trkpt><trkpt lat="42.561212789524944" lon="0.7493028030996105"><ele>1299.0</ele><time>2026-04-27T16:40:40Z</time></trkpt><trkpt lat="42.561285139895325" lon="0.7493237122240572"><ele>1299.0000000000002</ele><time>2026-04-27T16:40:41Z</time></trkpt><trkpt lat="42.561355575371984" lon="0.7493519411447276"><ele>1299.0</ele><time>2026-04-27T16:40:42Z</time></trkpt><trkpt lat="42.561428412487494" lon="0.749369081673"><ele>1299.7142857142858</ele><time>2026-04-27T16:40:43Z</time></trkpt><trkpt lat="42.56149865217397" lon="0.7493911234061034"><ele>1300.4285714285716</ele><time>2026-04-27T16:40:44Z</time></trkpt><trkpt lat="42.56157253189236" lon="0.7494079734904027"><ele>1301.1428571428573</ele><time>2026-04-27T16:40:45Z</time></trkpt><trkpt lat="42.56164094823389" lon="0.7494291768399433"><ele>1301.857142857143</ele><time>2026-04-27T16:40:46Z</time></trkpt><trkpt lat="42.56171347001544" lon="0.749445440397987"><ele>1302.5714285714284</ele><time>2026-04-27T16:40:47Z</time></trkpt><trkpt lat="42.56178612468109" lon="0.7494617447997982"><ele>1303.2857142857144</ele><time>2026-04-27T16:40:48Z</time></trkpt><trkpt lat="42.56185928793805" lon="0.7494786844211633"><ele>1304.0</ele><time>2026-04-27T16:40:49Z</time></trkpt><trkpt lat="42.561930998913994" lon="0.7494916527609158"><ele>1304.0</ele><time>2026-04-27T16:40:50Z</time></trkpt><trkpt lat="42.56200300744938" lon="0.7495036784981166"><ele>1304.0</ele><time>2026-04-27T16:40:51Z</time></trkpt><trkpt lat="42.56207682832845" lon="0.7495148750814852"><ele>1304.0</ele><time>2026-04-27T16:40:52Z</time></trkpt><trkpt lat="42.56215109310504" lon="0.7495249152528413"><ele>1304.0</ele><time>2026-04-27T16:40:53Z</time></trkpt><trkpt lat="42.562224504725044" lon="0.749535155534211"><ele>1304.0</ele><time>2026-04-27T16:40:54Z</time></trkpt><trkpt lat="42.56229832799849" lon="0.749543348288598"><ele>1304.0</ele><time>2026-04-27T16:40:55Z</time></trkpt><trkpt lat="42.56237251276766" lon="0.7495504823771075"><ele>1304.0</ele><time>2026-04-27T16:40:56Z</time></trkpt><trkpt lat="42.56244831931869" lon="0.7495570343039257"><ele>1305.1666666666667</ele><time>2026-04-27T16:40:57Z</time></trkpt><trkpt lat="42.56252410056347" lon="0.7495609202452254"><ele>1306.3333333333335</ele><time>2026-04-27T16:40:58Z</time></trkpt><trkpt lat="42.56260202844573" lon="0.7495632345135498"><ele>1307.5</ele><time>2026-04-27T16:40:59Z</time></trkpt><trkpt lat="42.562679133889" lon="0.7495678987318609"><ele>1308.6666666666667</ele><time>2026-04-27T16:41:00Z</time></trkpt><trkpt lat="42.56275546037217" lon="0.7495744229635264"><ele>1309.8333333333333</ele><time>2026-04-27T16:41:01Z</time></trkpt><trkpt lat="42.56283077071282" lon="0.74957731066882"><ele>1311.0</ele><time>2026-04-27T16:41:02Z</time></trkpt><trkpt lat="42.562908133891206" lon="0.74957939772075"><ele>1312.6666666666667</ele><time>2026-04-27T16:41:03Z</time></trkpt><trkpt lat="42.56298480878365" lon="0.7495788371286587"><ele>1314.3333333333333</ele><time>2026-04-27T16:41:04Z</time></trkpt><trkpt lat="42.56306241679885" lon="0.7495865617910522"><ele>1316.0</ele><time>2026-04-27T16:41:05Z</time></trkpt><trkpt lat="42.56313859344406" lon="0.7495941816965765"><ele>1317.6666666666665</ele><time>2026-04-27T16:41:06Z</time></trkpt><trkpt lat="42.56321500977796" lon="0.7496024331737877"><ele>1319.3333333333333</ele><time>2026-04-27T16:41:07Z</time></trkpt><trkpt lat="42.563291529330066" lon="0.7496062746975235"><ele>1321.0</ele><time>2026-04-27T16:41:08Z</time></trkpt><trkpt lat="42.563368581395714" lon="0.7496112881938849"><ele>1321.0</ele><time>2026-04-27T16:41:09Z</time></trkpt><trkpt lat="42.56344443150295" lon="0.749619011860098"><ele>1321.0</ele><time>2026-04-27T16:41:10Z</time></trkpt><trkpt lat="42.56352028736111" lon="0.7496297732980777"><ele>1321.0</ele><time>2026-04-27T16:41:11Z</time></trkpt><trkpt lat="42.563596388674064" lon="0.7496418997231182"><ele>1321.0</ele><time>2026-04-27T16:41:12Z</time></trkpt><trkpt lat="42.563671853238056" lon="0.7496563041015685"><ele>1321.0</ele><time>2026-04-27T16:41:13Z</time></trkpt><trkpt lat="42.56374844078597" lon="0.7496731179434002"><ele>1321.0</ele><time>2026-04-27T16:41:14Z</time></trkpt><trkpt lat="42.56382372204355" lon="0.7496943895807769"><ele>1322.0</ele><time>2026-04-27T16:41:15Z</time></trkpt><trkpt lat="42.56389750970524" lon="0.7497181149441657"><ele>1323.0</ele><time>2026-04-27T16:41:16Z</time></trkpt><trkpt lat="42.56397139201277" lon="0.7497455636133051"><ele>1324.0</ele><time>2026-04-27T16:41:17Z</time></trkpt><trkpt lat="42.56404346581225" lon="0.7497757315157099"><ele>1325.0</ele><time>2026-04-27T16:41:18Z</time></trkpt><trkpt lat="42.56411421760631" lon="0.7498103382831499"><ele>1326.0</ele><time>2026-04-27T16:41:19Z</time></trkpt><trkpt lat="42.56418577032908" lon="0.7498488018963897"><ele>1327.0</ele><time>2026-04-27T16:41:20Z</time></trkpt><trkpt lat="42.564257377444335" lon="0.7498892674188274"><ele>1327.0</ele><time>2026-04-27T16:41:21Z</time></trkpt><trkpt lat="42.56432884980655" lon="0.7499313285578703"><ele>1327.0</ele><time>2026-04-27T16:41:22Z</time></trkpt><trkpt lat="42.56439876946656" lon="0.7499734678624331"><ele>1327.0</ele><time>2026-04-27T16:41:23Z</time></trkpt><trkpt lat="42.56446827170783" lon="0.7500187015675551"><ele>1327.0</ele><time>2026-04-27T16:41:24Z</time></trkpt><trkpt lat="42.56453731387231" lon="0.7500643575380646"><ele>1327.0</ele><time>2026-04-27T16:41:25Z</time></trkpt><trkpt lat="42.564604773959516" lon="0.7501094825655709"><ele>1327.0</ele><time>2026-04-27T16:41:26Z</time></trkpt><trkpt lat="42.56467135292971" lon="0.7501602639884075"><ele>1326.5</ele><time>2026-04-27T16:41:27Z</time></trkpt><trkpt lat="42.564738934699584" lon="0.7502074004916938"><ele>1326.0</ele><time>2026-04-27T16:41:28Z</time></trkpt><trkpt lat="42.56480552222749" lon="0.7502553386276261"><ele>1325.5</ele><time>2026-04-27T16:41:29Z</time></trkpt><trkpt lat="42.564872837335706" lon="0.7503054156777157"><ele>1325.0</ele><time>2026-04-27T16:41:30Z</time></trkpt><trkpt lat="42.56493967611486" lon="0.7503548966539159"><ele>1324.5</ele><time>2026-04-27T16:41:31Z</time></trkpt><trkpt lat="42.56500708359639" lon="0.750404568440552"><ele>1324.0</ele><time>2026-04-27T16:41:32Z</time></trkpt><trkpt lat="42.565075811216246" lon="0.7504530132665657"><ele>1324.0</ele><time>2026-04-27T16:41:33Z</time></trkpt><trkpt lat="42.56514403498104" lon="0.7505002164775139"><ele>1324.0</ele><time>2026-04-27T16:41:34Z</time></trkpt><trkpt lat="42.56521265804193" lon="0.7505499267722261"><ele>1324.0</ele><time>2026-04-27T16:41:35Z</time></trkpt><trkpt lat="42.565281334551706" lon="0.7506001694754608"><ele>1324.0</ele><time>2026-04-27T16:41:36Z</time></trkpt><trkpt lat="42.565349414614296" lon="0.7506508488245394"><ele>1324.0</ele><time>2026-04-27T16:41:37Z</time></trkpt><trkpt lat="42.56541794128036" lon="0.7507010578883405"><ele>1324.0</ele><time>2026-04-27T16:41:38Z</time></trkpt><trkpt lat="42.565487519705805" lon="0.7507524477996683"><ele>1323.8333333333333</ele><time>2026-04-27T16:41:39Z</time></trkpt><trkpt lat="42.56555652169153" lon="0.7508016202282489"><ele>1323.6666666666665</ele><time>2026-04-27T16:41:40Z</time></trkpt><trkpt lat="42.56562611213803" lon="0.7508523762409336"><ele>1323.5</ele><time>2026-04-27T16:41:41Z</time></trkpt><trkpt lat="42.56569670518632" lon="0.750904421036622"><ele>1323.3333333333333</ele><time>2026-04-27T16:41:42Z</time></trkpt><trkpt lat="42.56576653651829" lon="0.750954326765323"><ele>1323.1666666666667</ele><time>2026-04-27T16:41:43Z</time></trkpt><trkpt lat="42.565834154709606" lon="0.751006279737403"><ele>1323.0</ele><time>2026-04-27T16:41:44Z</time></trkpt><trkpt lat="42.56590194330594" lon="0.7510592033822662"><ele>1323.0</ele><time>2026-04-27T16:41:45Z</time></trkpt><trkpt lat="42.56596799099416" lon="0.7511121060881877"><ele>1323.0</ele><time>2026-04-27T16:41:46Z</time></trkpt><trkpt lat="42.56603547790009" lon="0.7511684252863187"><ele>1323.0</ele><time>2026-04-27T16:41:47Z</time></trkpt><trkpt lat="42.56610058151137" lon="0.7512292128955875"><ele>1323.0</ele><time>2026-04-27T16:41:48Z</time></trkpt><trkpt lat="42.56616658581351" lon="0.7512913680552818"><ele>1323.0</ele><time>2026-04-27T16:41:49Z</time></trkpt><trkpt lat="42.566232790709265" lon="0.7513513040585315"><ele>1323.0</ele><time>2026-04-27T16:41:50Z</time></trkpt><trkpt lat="42.5662985298622" lon="0.7514093498516036"><ele>1329.6666666666667</ele><time>2026-04-27T16:41:51Z</time></trkpt><trkpt lat="42.56636317060573" lon="0.7514700528150294"><ele>1336.3333333333333</ele><time>2026-04-27T16:41:52Z</time></trkpt><trkpt lat="42.566426360081216" lon="0.7515328222620692"><ele>1343.0</ele><time>2026-04-27T16:41:53Z</time></trkpt><trkpt lat="42.566489126853476" lon="0.7515970605650453"><ele>1349.6666666666665</ele><time>2026-04-27T16:41:54Z</time></trkpt><trkpt lat="42.56655138127471" lon="0.7516602860860874"><ele>1356.3333333333333</ele><time>2026-04-27T16:41:55Z</time></trkpt><trkpt lat="42.56661287339922" lon="0.751726195704524"><ele>1363.0</ele><time>2026-04-27T16:41:56Z</time></trkpt><trkpt lat="42.56667416859627" lon="0.7517935810853481"><ele>1363.0</ele><time>2026-04-27T16:41:57Z</time></trkpt><trkpt lat="42.566734182073986" lon="0.7518629320967812"><ele>1363.0</ele><time>2026-04-27T16:41:58Z</time></trkpt><trkpt lat="42.56679254127783" lon="0.7519319990949711"><ele>1363.0</ele><time>2026-04-27T16:41:59Z</time></trkpt><trkpt lat="42.56684955606523" lon="0.7520026975811036"><ele>1363.0</ele><time>2026-04-27T16:42:00Z</time></trkpt><trkpt lat="42.566904684610215" lon="0.7520739652850635"><ele>1363.0</ele><time>2026-04-27T16:42:01Z</time></trkpt><trkpt lat="42.56696004377495" lon="0.7521457683161112"><ele>1363.0</ele><time>2026-04-27T16:42:02Z</time></trkpt><trkpt lat="42.567015189715065" lon="0.7522185214347229"><ele>1366.5</ele><time>2026-04-27T16:42:03Z</time></trkpt><trkpt lat="42.56706942898937" lon="0.7522909224178979"><ele>1370.0</ele><time>2026-04-27T16:42:04Z</time></trkpt><trkpt lat="42.56712354152107" lon="0.7523631631270422"><ele>1373.5</ele><time>2026-04-27T16:42:05Z</time></trkpt><trkpt lat="42.56717895734737" lon="0.7524324761956843"><ele>1377.0</ele><time>2026-04-27T16:42:06Z</time></trkpt><trkpt lat="42.56723407605008" lon="0.7525027367349586"><ele>1380.5</ele><time>2026-04-27T16:42:07Z</time></trkpt><trkpt lat="42.56728761872623" lon="0.7525743919496226"><ele>1384.0</ele><time>2026-04-27T16:42:08Z</time></trkpt><trkpt lat="42.567339575536415" lon="0.752650089112738"><ele>1379.7142857142856</ele><time>2026-04-27T16:42:09Z</time></trkpt><trkpt lat="42.56739253545607" lon="0.7527229443339903"><ele>1375.4285714285716</ele><time>2026-04-27T16:42:10Z</time></trkpt><trkpt lat="42.56744446810923" lon="0.7527963317623492"><ele>1371.142857142857</ele><time>2026-04-27T16:42:11Z</time></trkpt><trkpt lat="42.56749636733827" lon="0.7528713913964208"><ele>1366.8571428571427</ele><time>2026-04-27T16:42:12Z</time></trkpt><trkpt lat="42.567548224053844" lon="0.7529433605657826"><ele>1362.5714285714284</ele><time>2026-04-27T16:42:13Z</time></trkpt><trkpt lat="42.56759886463872" lon="0.7530150220558656"><ele>1358.2857142857142</ele><time>2026-04-27T16:42:14Z</time></trkpt><trkpt lat="42.56765012542634" lon="0.7530881724142696"><ele>1354.0</ele><time>2026-04-27T16:42:15Z</time></trkpt><trkpt lat="42.56770194591168" lon="0.753159010379744"><ele>1354.0</ele><time>2026-04-27T16:42:16Z</time></trkpt><trkpt lat="42.56775517212936" lon="0.7532327426946622"><ele>1354.0</ele><time>2026-04-27T16:42:17Z</time></trkpt><trkpt lat="42.56780808166277" lon="0.7533046342812435"><ele>1354.0</ele><time>2026-04-27T16:42:18Z</time></trkpt><trkpt lat="42.56786187308379" lon="0.7533761149863117"><ele>1354.0</ele><time>2026-04-27T16:42:19Z</time></trkpt><trkpt lat="42.56791587957067" lon="0.7534464420839153"><ele>1354.0</ele><time>2026-04-27T16:42:20Z</time></trkpt><trkpt lat="42.567970996121886" lon="0.7535147672412028"><ele>1354.0</ele><time>2026-04-27T16:42:21Z</time></trkpt><trkpt lat="42.56802786763557" lon="0.7535818552076595"><ele>1363.0</ele><time>2026-04-27T16:42:22.017Z</time></trkpt><trkpt lat="42.56808369381307" lon="0.7536465876298293"><ele>1372.0</ele><time>2026-04-27T16:42:23.017Z</time></trkpt><trkpt lat="42.568119176094704" lon="0.7537507912941317"><ele>1381.0</ele><time>2026-04-27T16:42:24.017Z</time></trkpt><trkpt lat="42.56843634729037" lon="0.7539894867032866"><ele>1381.0</ele><time>2026-04-27T16:42:28.837Z</time></trkpt><trkpt lat="42.56849111543383" lon="0.75406152002223"><ele>1381.0</ele><time>2026-04-27T16:42:29.836Z</time></trkpt><trkpt lat="42.56856337709525" lon="0.7540952197831274"><ele>1381.0</ele><time>2026-04-27T16:42:30.837Z</time></trkpt><trkpt lat="42.56862013488177" lon="0.7541645519719977"><ele>1381.0</ele><time>2026-04-27T16:42:31.837Z</time></trkpt><trkpt lat="42.56868704860114" lon="0.7542113312437463"><ele>1381.0</ele><time>2026-04-27T16:42:32.837Z</time></trkpt><trkpt lat="42.56875440934855" lon="0.7542564450064031"><ele>1381.0</ele><time>2026-04-27T16:42:33.837Z</time></trkpt><trkpt lat="42.56882915579494" lon="0.7542779197831441"><ele>1376.0</ele><time>2026-04-27T16:42:34.837Z</time></trkpt><trkpt lat="42.56889160038276" lon="0.7543377151102388"><ele>1371.0</ele><time>2026-04-27T16:42:35.837Z</time></trkpt><trkpt lat="42.56896057635742" lon="0.7543760724835359"><ele>1366.0</ele><time>2026-04-27T16:42:36.837Z</time></trkpt><trkpt lat="42.56903042885336" lon="0.7544132991865294"><ele>1361.0</ele><time>2026-04-27T16:42:37.836Z</time></trkpt><trkpt lat="42.56920628220656" lon="0.7544887609814103"><ele>1356.0</ele><time>2026-04-27T16:42:40Z</time></trkpt><trkpt lat="42.56927685254164" lon="0.7545141002686669"><ele>1356.0</ele><time>2026-04-27T16:42:41Z</time></trkpt><trkpt lat="42.56934994427022" lon="0.7545337836066827"><ele>1356.0</ele><time>2026-04-27T16:42:42Z</time></trkpt><trkpt lat="42.569423478519795" lon="0.7545677645072588"><ele>1356.0</ele><time>2026-04-27T16:42:43Z</time></trkpt><trkpt lat="42.569498588508836" lon="0.754582876785469"><ele>1356.0</ele><time>2026-04-27T16:42:44Z</time></trkpt><trkpt lat="42.569576058308314" lon="0.754606868056086"><ele>1356.0</ele><time>2026-04-27T16:42:45Z</time></trkpt><trkpt lat="42.56963820051208" lon="0.7546282389695719"><ele>1356.0</ele><time>2026-04-27T16:42:46Z</time></trkpt><trkpt lat="42.569712597962855" lon="0.7546544593959756"><ele>1356.0</ele><time>2026-04-27T16:42:47Z</time></trkpt><trkpt lat="42.56978643004411" lon="0.7546770359486578"><ele>1358.0</ele><time>2026-04-27T16:42:48Z</time></trkpt><trkpt lat="42.56986180718562" lon="0.7546989777821683"><ele>1360.0</ele><time>2026-04-27T16:42:49Z</time></trkpt><trkpt lat="42.56993730726435" lon="0.7547229366644898"><ele>1362.0</ele><time>2026-04-27T16:42:50Z</time></trkpt><trkpt lat="42.57001359850981" lon="0.7547471269425994"><ele>1364.0</ele><time>2026-04-27T16:42:51Z</time></trkpt><trkpt lat="42.57008669288883" lon="0.7547766639916819"><ele>1366.0</ele><time>2026-04-27T16:42:52Z</time></trkpt><trkpt lat="42.57016117500259" lon="0.7547969213521505"><ele>1368.0</ele><time>2026-04-27T16:42:53Z</time></trkpt><trkpt lat="42.57023643192885" lon="0.7548161626008303"><ele>1368.0</ele><time>2026-04-27T16:42:54Z</time></trkpt><trkpt lat="42.570308266952914" lon="0.7548457674976428"><ele>1368.0</ele><time>2026-04-27T16:42:55Z</time></trkpt><trkpt lat="42.5703804761818" lon="0.7548679012470618"><ele>1368.0</ele><time>2026-04-27T16:42:56Z</time></trkpt><trkpt lat="42.5704537923609" lon="0.7548889022244527"><ele>1368.0</ele><time>2026-04-27T16:42:57Z</time></trkpt><trkpt lat="42.57052809569289" lon="0.7549090209970162"><ele>1368.0</ele><time>2026-04-27T16:42:58Z</time></trkpt><trkpt lat="42.57060077008248" lon="0.7549318714283846"><ele>1368.0</ele><time>2026-04-27T16:42:59Z</time></trkpt><trkpt lat="42.570674334892004" lon="0.7549569733566859"><ele>1371.5714285714284</ele><time>2026-04-27T16:43:00Z</time></trkpt><trkpt lat="42.57074935607355" lon="0.7549837173433577"><ele>1375.142857142857</ele><time>2026-04-27T16:43:01Z</time></trkpt><trkpt lat="42.570820464519876" lon="0.7550038372945065"><ele>1378.7142857142858</ele><time>2026-04-27T16:43:02Z</time></trkpt><trkpt lat="42.57089340889523" lon="0.7550233995475871"><ele>1382.2857142857142</ele><time>2026-04-27T16:43:03Z</time></trkpt><trkpt lat="42.57096568914252" lon="0.7550449506416194"><ele>1385.857142857143</ele><time>2026-04-27T16:43:04Z</time></trkpt><trkpt lat="42.5710389649502" lon="0.7550681559534462"><ele>1389.4285714285713</ele><time>2026-04-27T16:43:05Z</time></trkpt><trkpt lat="42.57111249827692" lon="0.755091899633223"><ele>1393.0</ele><time>2026-04-27T16:43:06Z</time></trkpt><trkpt lat="42.57118597915995" lon="0.7551171356236901"><ele>1396.142857142857</ele><time>2026-04-27T16:43:07Z</time></trkpt><trkpt lat="42.57125962595243" lon="0.7551416124296115"><ele>1399.2857142857142</ele><time>2026-04-27T16:43:08Z</time></trkpt><trkpt lat="42.57133274644249" lon="0.7551646999875411"><ele>1402.4285714285716</ele><time>2026-04-27T16:43:09Z</time></trkpt><trkpt lat="42.57140539728584" lon="0.7551886220865661"><ele>1405.5714285714284</ele><time>2026-04-27T16:43:10Z</time></trkpt><trkpt lat="42.571479339614555" lon="0.7552131197075178"><ele>1408.7142857142858</ele><time>2026-04-27T16:43:11.023Z</time></trkpt><trkpt lat="42.57154991924905" lon="0.7552370503890596"><ele>1411.857142857143</ele><time>2026-04-27T16:43:12.024Z</time></trkpt><trkpt lat="42.57162006101649" lon="0.7552645413647245"><ele>1415.0</ele><time>2026-04-27T16:43:13.019Z</time></trkpt><trkpt lat="42.57168997177897" lon="0.7552910241459071"><ele>1415.0</ele><time>2026-04-27T16:43:14.024Z</time></trkpt><trkpt lat="42.57175895169213" lon="0.7553172967133955"><ele>1415.0</ele><time>2026-04-27T16:43:15.016Z</time></trkpt><trkpt lat="42.57210134133748" lon="0.7553848331352757"><ele>1415.0</ele><time>2026-04-27T16:43:19.836Z</time></trkpt><trkpt lat="42.57216776680423" lon="0.7554284415211943"><ele>1422.6</ele><time>2026-04-27T16:43:20.836Z</time></trkpt><trkpt lat="42.572237895042036" lon="0.7554500873181117"><ele>1430.2</ele><time>2026-04-27T16:43:21.836Z</time></trkpt><trkpt lat="42.57230804179825" lon="0.7554717388054235"><ele>1437.8000000000002</ele><time>2026-04-27T16:43:22.837Z</time></trkpt><trkpt lat="42.57244828901391" lon="0.7555150275323923"><ele>1445.4</ele><time>2026-04-27T16:43:24.837Z</time></trkpt><trkpt lat="42.572518385417936" lon="0.7555366634775634"><ele>1453.0</ele><time>2026-04-27T16:43:25.837Z</time></trkpt><trkpt lat="42.57273240054072" lon="0.7555796158995504"><ele>1453.0</ele><time>2026-04-27T16:43:28.836Z</time></trkpt><trkpt lat="42.572798867656545" lon="0.7556232371525364"><ele>1453.0</ele><time>2026-04-27T16:43:29.837Z</time></trkpt><trkpt lat="42.572868985238536" lon="0.7556448796516413"><ele>1453.0</ele><time>2026-04-27T16:43:30.837Z</time></trkpt><trkpt lat="42.57300921233991" lon="0.7556881621396659"><ele>1453.0</ele><time>2026-04-27T16:43:32.837Z</time></trkpt><trkpt lat="42.57307932844268" lon="0.7557098041806225"><ele>1453.0</ele><time>2026-04-27T16:43:33.837Z</time></trkpt><trkpt lat="42.573219543337096" lon="0.7557530829220401"><ele>1443.25</ele><time>2026-04-27T16:43:35.836Z</time></trkpt><trkpt lat="42.57328967991896" lon="0.7557747312809248"><ele>1433.5</ele><time>2026-04-27T16:43:36.837Z</time></trkpt><trkpt lat="42.573534295645935" lon="0.7558504128987581"><ele>1423.75</ele><time>2026-04-27T16:43:39Z</time></trkpt><trkpt lat="42.573599454808964" lon="0.7558711060234699"><ele>1414.0</ele><time>2026-04-27T16:43:40Z</time></trkpt><trkpt lat="42.573680096396785" lon="0.7559001879780897"><ele>1415.4285714285713</ele><time>2026-04-27T16:43:41Z</time></trkpt><trkpt lat="42.57374848543901" lon="0.7559196635460458"><ele>1416.857142857143</ele><time>2026-04-27T16:43:42Z</time></trkpt><trkpt lat="42.57382072560243" lon="0.7559356938560565"><ele>1418.2857142857142</ele><time>2026-04-27T16:43:43Z</time></trkpt><trkpt lat="42.57388299866326" lon="0.7560005897313711"><ele>1419.7142857142858</ele><time>2026-04-27T16:43:44Z</time></trkpt><trkpt lat="42.57395464301714" lon="0.7560221710885876"><ele>1421.142857142857</ele><time>2026-04-27T16:43:45Z</time></trkpt><trkpt lat="42.57402567519873" lon="0.7560398130109179"><ele>1422.5714285714284</ele><time>2026-04-27T16:43:46Z</time></trkpt><trkpt lat="42.57409709623257" lon="0.7560569213647692"><ele>1424.0</ele><time>2026-04-27T16:43:47Z</time></trkpt><trkpt lat="42.574171087890356" lon="0.7560768941289706"><ele>1419.9999999999998</ele><time>2026-04-27T16:43:48Z</time></trkpt><trkpt lat="42.57424398928349" lon="0.7560950754699715"><ele>1416.0</ele><time>2026-04-27T16:43:49Z</time></trkpt><trkpt lat="42.57431426452369" lon="0.7561209207412358"><ele>1412.0</ele><time>2026-04-27T16:43:50Z</time></trkpt><trkpt lat="42.574384136515235" lon="0.756148158193685"><ele>1408.0</ele><time>2026-04-27T16:43:51Z</time></trkpt><trkpt lat="42.57445262034009" lon="0.7561702432852272"><ele>1404.0</ele><time>2026-04-27T16:43:52Z</time></trkpt><trkpt lat="42.574521363535275" lon="0.7561906843450203"><ele>1399.9999999999998</ele><time>2026-04-27T16:43:53Z</time></trkpt><trkpt lat="42.57459439573933" lon="0.7562112160922775"><ele>1396.0</ele><time>2026-04-27T16:43:54Z</time></trkpt><trkpt lat="42.57466595286252" lon="0.7562283880774053"><ele>1395.9999999999998</ele><time>2026-04-27T16:43:55Z</time></trkpt><trkpt lat="42.57473742435755" lon="0.7562463970845641"><ele>1396.0</ele><time>2026-04-27T16:43:56Z</time></trkpt><trkpt lat="42.57481270906558" lon="0.7562657649396705"><ele>1396.0</ele><time>2026-04-27T16:43:57Z</time></trkpt><trkpt lat="42.574884584702794" lon="0.756278212112646"><ele>1396.0</ele><time>2026-04-27T16:43:58Z</time></trkpt><trkpt lat="42.57495729931494" lon="0.756288059993793"><ele>1396.0</ele><time>2026-04-27T16:43:59Z</time></trkpt><trkpt lat="42.575028442594" lon="0.7562955870277385"><ele>1395.9999999999998</ele><time>2026-04-27T16:44:00Z</time></trkpt><trkpt lat="42.575103668950895" lon="0.7563030184344033"><ele>1396.0</ele><time>2026-04-27T16:44:01Z</time></trkpt><trkpt lat="42.57517645984826" lon="0.7563081163524688"><ele>1395.9999999999998</ele><time>2026-04-27T16:44:02Z</time></trkpt><trkpt lat="42.57524933881707" lon="0.7563091955869019"><ele>1396.0</ele><time>2026-04-27T16:44:03Z</time></trkpt><trkpt lat="42.5753239324148" lon="0.7563058963369421"><ele>1396.0</ele><time>2026-04-27T16:44:04Z</time></trkpt><trkpt lat="42.57539848537039" lon="0.7563046740403652"><ele>1396.0</ele><time>2026-04-27T16:44:05Z</time></trkpt><trkpt lat="42.57546930979231" lon="0.7563110770823531"><ele>1396.0</ele><time>2026-04-27T16:44:06Z</time></trkpt><trkpt lat="42.575543414036304" lon="0.7563055657535864"><ele>1395.9999999999998</ele><time>2026-04-27T16:44:07Z</time></trkpt><trkpt lat="42.57561541393973" lon="0.7562982127372505"><ele>1396.0</ele><time>2026-04-27T16:44:08Z</time></trkpt><trkpt lat="42.57569145348143" lon="0.7562900083668016"><ele>1392.0</ele><time>2026-04-27T16:44:09Z</time></trkpt><trkpt lat="42.575769331075165" lon="0.756278369474593"><ele>1388.0</ele><time>2026-04-27T16:44:10Z</time></trkpt><trkpt lat="42.575845543550585" lon="0.7562665590128573"><ele>1384.0</ele><time>2026-04-27T16:44:11Z</time></trkpt><trkpt lat="42.57592055395237" lon="0.7562618670404131"><ele>1380.0</ele><time>2026-04-27T16:44:12Z</time></trkpt><trkpt lat="42.57599351753871" lon="0.7562519716273849"><ele>1376.0</ele><time>2026-04-27T16:44:13Z</time></trkpt><trkpt lat="42.57606795936725" lon="0.7562422043254827"><ele>1372.0</ele><time>2026-04-27T16:44:14Z</time></trkpt><trkpt lat="42.57614356379293" lon="0.7562298180887387"><ele>1376.0</ele><time>2026-04-27T16:44:15Z</time></trkpt><trkpt lat="42.57621826955447" lon="0.7562258276007677"><ele>1380.0</ele><time>2026-04-27T16:44:16Z</time></trkpt><trkpt lat="42.57629306517749" lon="0.7562195379885597"><ele>1384.0</ele><time>2026-04-27T16:44:17Z</time></trkpt><trkpt lat="42.57636959282487" lon="0.7562100776338703"><ele>1388.0</ele><time>2026-04-27T16:44:18Z</time></trkpt><trkpt lat="42.57644208682684" lon="0.756203363936981"><ele>1392.0</ele><time>2026-04-27T16:44:19Z</time></trkpt><trkpt lat="42.57651620234094" lon="0.7562040166379065"><ele>1396.0</ele><time>2026-04-27T16:44:20Z</time></trkpt><trkpt lat="42.57659188738874" lon="0.7561984315161455"><ele>1400.0</ele><time>2026-04-27T16:44:21Z</time></trkpt><trkpt lat="42.57666750462116" lon="0.7562040644516157"><ele>1400.0</ele><time>2026-04-27T16:44:22Z</time></trkpt><trkpt lat="42.576744663648924" lon="0.7562006039793473"><ele>1400.0</ele><time>2026-04-27T16:44:23Z</time></trkpt><trkpt lat="42.57681625275403" lon="0.7562090802986655"><ele>1400.0</ele><time>2026-04-27T16:44:24Z</time></trkpt><trkpt lat="42.576891927018245" lon="0.7562058960314442"><ele>1400.0</ele><time>2026-04-27T16:44:25Z</time></trkpt><trkpt lat="42.57696683790798" lon="0.7562066242883863"><ele>1400.0</ele><time>2026-04-27T16:44:26Z</time></trkpt><trkpt lat="42.577038839414435" lon="0.7562174362306467"><ele>1400.0</ele><time>2026-04-27T16:44:27Z</time></trkpt><trkpt lat="42.57711114664409" lon="0.7562208655309145"><ele>1400.0</ele><time>2026-04-27T16:44:28Z</time></trkpt><trkpt lat="42.57718478499045" lon="0.7562270997050803"><ele>1406.3333333333335</ele><time>2026-04-27T16:44:29Z</time></trkpt><trkpt lat="42.577259565852536" lon="0.7562321646463035"><ele>1412.6666666666667</ele><time>2026-04-27T16:44:30Z</time></trkpt><trkpt lat="42.577333386536665" lon="0.7562449320733068"><ele>1419.0</ele><time>2026-04-27T16:44:31Z</time></trkpt><trkpt lat="42.57740871828513" lon="0.7562516054695779"><ele>1425.3333333333333</ele><time>2026-04-27T16:44:32Z</time></trkpt><trkpt lat="42.57748518720639" lon="0.7562603017231948"><ele>1431.6666666666665</ele><time>2026-04-27T16:44:33.016Z</time></trkpt><trkpt lat="42.57756286140946" lon="0.7562684059417262"><ele>1438.0</ele><time>2026-04-27T16:44:34.022Z</time></trkpt><trkpt lat="42.57764057478792" lon="0.7562750262191414"><ele>1438.0</ele><time>2026-04-27T16:44:35.026Z</time></trkpt><trkpt lat="42.57771748473066" lon="0.7562830339984824"><ele>1438.0</ele><time>2026-04-27T16:44:36.015Z</time></trkpt><trkpt lat="42.57779581624223" lon="0.7562918987433319"><ele>1438.0</ele><time>2026-04-27T16:44:37.018Z</time></trkpt><trkpt lat="42.57787605474457" lon="0.7563018367892296"><ele>1438.0</ele><time>2026-04-27T16:44:38.016Z</time></trkpt><trkpt lat="42.577953891509736" lon="0.7563121914153215"><ele>1438.0</ele><time>2026-04-27T16:44:39.014Z</time></trkpt><trkpt lat="42.57803437302937" lon="0.7563231112908384"><ele>1438.0</ele><time>2026-04-27T16:44:40.024Z</time></trkpt><trkpt lat="42.57841909888403" lon="0.7563275702982541"><ele>1441.75</ele><time>2026-04-27T16:44:44.837Z</time></trkpt><trkpt lat="42.57849884692018" lon="0.7563346939264911"><ele>1445.5</ele><time>2026-04-27T16:44:45.836Z</time></trkpt><trkpt lat="42.57857866115993" lon="0.7563418234684756"><ele>1449.25</ele><time>2026-04-27T16:44:46.837Z</time></trkpt><trkpt lat="42.57865736704199" lon="0.7563714312942795"><ele>1453.0</ele><time>2026-04-27T16:44:47.837Z</time></trkpt><trkpt lat="42.57889778691008" lon="0.7563703299159623"><ele>1453.0</ele><time>2026-04-27T16:44:50.837Z</time></trkpt><trkpt lat="42.57905729309222" lon="0.7563845780755126"><ele>1453.0</ele><time>2026-04-27T16:44:52.836Z</time></trkpt><trkpt lat="42.57913713008142" lon="0.7563917096496309"><ele>1453.0</ele><time>2026-04-27T16:44:53.837Z</time></trkpt><trkpt lat="42.579346806781906" lon="0.7565726246691835"><ele>1453.0</ele><time>2026-04-27T16:44:57Z</time></trkpt><trkpt lat="42.57943355279218" lon="0.756574785583864"><ele>1453.0</ele><time>2026-04-27T16:44:58Z</time></trkpt><trkpt lat="42.57943430700459" lon="0.7564552596407169"><ele>1453.0</ele><time>2026-04-27T16:44:59Z</time></trkpt><trkpt lat="42.57951189755775" lon="0.7564700074906338"><ele>1453.0</ele><time>2026-04-27T16:45:00Z</time></trkpt><trkpt lat="42.579593337351604" lon="0.7564622407064914"><ele>1453.0</ele><time>2026-04-27T16:45:01Z</time></trkpt><trkpt lat="42.57967729832926" lon="0.7564546089621399"><ele>1453.0</ele><time>2026-04-27T16:45:02Z</time></trkpt><trkpt lat="42.57975875809543" lon="0.756420312138459"><ele>1450.0</ele><time>2026-04-27T16:45:03Z</time></trkpt><trkpt lat="42.579843941322196" lon="0.7563983783445131"><ele>1447.0</ele><time>2026-04-27T16:45:04Z</time></trkpt><trkpt lat="42.579929487785876" lon="0.7563688588167113"><ele>1444.0</ele><time>2026-04-27T16:45:05Z</time></trkpt><trkpt lat="42.58001552869372" lon="0.7563283005999671"><ele>1441.0</ele><time>2026-04-27T16:45:06Z</time></trkpt><trkpt lat="42.58010339630506" lon="0.7562867608109934"><ele>1438.0</ele><time>2026-04-27T16:45:07Z</time></trkpt><trkpt lat="42.58019175666591" lon="0.7562485562404706"><ele>1438.0</ele><time>2026-04-27T16:45:08Z</time></trkpt><trkpt lat="42.58028082750204" lon="0.7562113040728509"><ele>1438.0</ele><time>2026-04-27T16:45:09Z</time></trkpt><trkpt lat="42.58037428059165" lon="0.7561822107658607"><ele>1438.0</ele><time>2026-04-27T16:45:10Z</time></trkpt><trkpt lat="42.58047151969373" lon="0.7561538004886845"><ele>1438.0</ele><time>2026-04-27T16:45:11Z</time></trkpt><trkpt lat="42.58056793528694" lon="0.7561335717742337"><ele>1438.0</ele><time>2026-04-27T16:45:12Z</time></trkpt><trkpt lat="42.58066399269529" lon="0.7561142664365506"><ele>1435.8000000000002</ele><time>2026-04-27T16:45:13Z</time></trkpt><trkpt lat="42.58076398254364" lon="0.7561002460720652"><ele>1433.6</ele><time>2026-04-27T16:45:14Z</time></trkpt><trkpt lat="42.58086331293238" lon="0.7560872766567245"><ele>1431.4</ele><time>2026-04-27T16:45:15Z</time></trkpt><trkpt lat="42.58096447282024" lon="0.7560806737577445"><ele>1429.1999999999998</ele><time>2026-04-27T16:45:16Z</time></trkpt><trkpt lat="42.58106582859879" lon="0.7560767426254746"><ele>1427.0</ele><time>2026-04-27T16:45:17Z</time></trkpt><trkpt lat="42.58116772250243" lon="0.7560753257695313"><ele>1426.8</ele><time>2026-04-27T16:45:18Z</time></trkpt><trkpt lat="42.581269960852076" lon="0.7560764021168238"><ele>1426.6</ele><time>2026-04-27T16:45:19Z</time></trkpt><trkpt lat="42.581371345984714" lon="0.7560838168359831"><ele>1426.3999999999999</ele><time>2026-04-27T16:45:20Z</time></trkpt><trkpt lat="42.5814733830736" lon="0.7560843449565018"><ele>1426.1999999999998</ele><time>2026-04-27T16:45:21Z</time></trkpt><trkpt lat="42.58157263738881" lon="0.7560997564066382"><ele>1426.0</ele><time>2026-04-27T16:45:22Z</time></trkpt><trkpt lat="42.581676537535664" lon="0.7561063542817257"><ele>1426.0</ele><time>2026-04-27T16:45:23Z</time></trkpt><trkpt lat="42.58178172983504" lon="0.7561111560635376"><ele>1426.0</ele><time>2026-04-27T16:45:24Z</time></trkpt><trkpt lat="42.581890602441945" lon="0.7561153524659858"><ele>1426.0</ele><time>2026-04-27T16:45:25Z</time></trkpt><trkpt lat="42.58199496141568" lon="0.7561223521360988"><ele>1426.0</ele><time>2026-04-27T16:45:26Z</time></trkpt><trkpt lat="42.58210423916398" lon="0.7561267181108989"><ele>1426.0</ele><time>2026-04-27T16:45:27Z</time></trkpt><trkpt lat="42.582213909214175" lon="0.7561360084124514"><ele>1427.6</ele><time>2026-04-27T16:45:28Z</time></trkpt><trkpt lat="42.58232855482344" lon="0.7561408211023134"><ele>1429.1999999999998</ele><time>2026-04-27T16:45:29Z</time></trkpt><trkpt lat="42.58243698766765" lon="0.7561459572963489"><ele>1430.8000000000002</ele><time>2026-04-27T16:45:30Z</time></trkpt><trkpt lat="42.58255055360266" lon="0.7561469038168154"><ele>1432.4</ele><time>2026-04-27T16:45:31Z</time></trkpt><trkpt lat="42.58266233614654" lon="0.7561533167538322"><ele>1434.0</ele><time>2026-04-27T16:45:32Z</time></trkpt><trkpt lat="42.58277547385213" lon="0.7561720458265805"><ele>1435.0</ele><time>2026-04-27T16:45:33Z</time></trkpt><trkpt lat="42.58288789271327" lon="0.7561718823466229"><ele>1436.0</ele><time>2026-04-27T16:45:34Z</time></trkpt><trkpt lat="42.5829999739312" lon="0.756190032720437"><ele>1437.0</ele><time>2026-04-27T16:45:35Z</time></trkpt><trkpt lat="42.583113902301406" lon="0.7561955770298636"><ele>1438.0</ele><time>2026-04-27T16:45:36Z</time></trkpt><trkpt lat="42.58324066228599" lon="0.7562168309370411"><ele>1438.0</ele><time>2026-04-27T16:45:37Z</time></trkpt><trkpt lat="42.583338065851805" lon="0.756237478289494"><ele>1438.0</ele><time>2026-04-27T16:45:38Z</time></trkpt><trkpt lat="42.58341157564266" lon="0.7562614561655511"><ele>1438.0</ele><time>2026-04-27T16:45:39Z</time></trkpt><trkpt lat="42.583570039671855" lon="0.7563328575253422"><ele>1438.0</ele><time>2026-04-27T16:45:40Z</time></trkpt><trkpt lat="42.58367803537288" lon="0.7563831818842104"><ele>1443.0</ele><time>2026-04-27T16:45:41Z</time></trkpt><trkpt lat="42.58378485947639" lon="0.7564400387198066"><ele>1448.0</ele><time>2026-04-27T16:45:42Z</time></trkpt><trkpt lat="42.58389121502729" lon="0.7565022464056355"><ele>1453.0</ele><time>2026-04-27T16:45:43Z</time></trkpt><trkpt lat="42.583991832419855" lon="0.7565760820926081"><ele>1458.0</ele><time>2026-04-27T16:45:44Z</time></trkpt><trkpt lat="42.58408759450826" lon="0.7566609406682641"><ele>1458.0</ele><time>2026-04-27T16:45:45Z</time></trkpt><trkpt lat="42.58418402247259" lon="0.7567542734042915"><ele>1458.0</ele><time>2026-04-27T16:45:46Z</time></trkpt><trkpt lat="42.5842765659613" lon="0.7568501040172575"><ele>1458.0</ele><time>2026-04-27T16:45:47Z</time></trkpt><trkpt lat="42.58436586963708" lon="0.7569508033502187"><ele>1458.0</ele><time>2026-04-27T16:45:48Z</time></trkpt><trkpt lat="42.58444755656253" lon="0.7570563593906205"><ele>1458.25</ele><time>2026-04-27T16:45:49Z</time></trkpt><trkpt lat="42.58452649648048" lon="0.7571723550873306"><ele>1458.5</ele><time>2026-04-27T16:45:50Z</time></trkpt><trkpt lat="42.584610178755234" lon="0.7572925656384053"><ele>1458.75</ele><time>2026-04-27T16:45:51Z</time></trkpt><trkpt lat="42.58468928716508" lon="0.757400791556114"><ele>1459.0</ele><time>2026-04-27T16:45:52Z</time></trkpt><trkpt lat="42.58478063348358" lon="0.7574968884577941"><ele>1459.0</ele><time>2026-04-27T16:45:53Z</time></trkpt><trkpt lat="42.58486553271819" lon="0.7576023173241396"><ele>1459.0</ele><time>2026-04-27T16:45:54Z</time></trkpt><trkpt lat="42.584955753910506" lon="0.7576980246758142"><ele>1459.0</ele><time>2026-04-27T16:45:55Z</time></trkpt><trkpt lat="42.58505137918226" lon="0.7577789387873808"><ele>1459.0</ele><time>2026-04-27T16:45:56Z</time></trkpt><trkpt lat="42.58515275056907" lon="0.7578550080666832"><ele>1452.25</ele><time>2026-04-27T16:45:57Z</time></trkpt><trkpt lat="42.585256864504835" lon="0.7579250981196194"><ele>1445.5</ele><time>2026-04-27T16:45:58Z</time></trkpt><trkpt lat="42.58536073786446" lon="0.7579918100239912"><ele>1438.75</ele><time>2026-04-27T16:45:59Z</time></trkpt><trkpt lat="42.58547259078621" lon="0.7580356269607502"><ele>1432.0</ele><time>2026-04-27T16:46:00Z</time></trkpt><trkpt lat="42.585584890209056" lon="0.7580731298055636"><ele>1432.0</ele><time>2026-04-27T16:46:01Z</time></trkpt><trkpt lat="42.58569830931712" lon="0.7580973353455007"><ele>1432.0</ele><time>2026-04-27T16:46:02Z</time></trkpt><trkpt lat="42.58581351693913" lon="0.758113565899425"><ele>1432.0</ele><time>2026-04-27T16:46:03Z</time></trkpt><trkpt lat="42.58593173815386" lon="0.758118751358881"><ele>1432.0</ele><time>2026-04-27T16:46:04Z</time></trkpt><trkpt lat="42.586049939047705" lon="0.7581077767822553"><ele>1432.0</ele><time>2026-04-27T16:46:05Z</time></trkpt><trkpt lat="42.58616756356736" lon="0.7580808732853409"><ele>1432.0</ele><time>2026-04-27T16:46:06Z</time></trkpt><trkpt lat="42.58628461343249" lon="0.7580465110747309"><ele>1432.0</ele><time>2026-04-27T16:46:07Z</time></trkpt><trkpt lat="42.58639897336689" lon="0.7580044238092829"><ele>1432.0</ele><time>2026-04-27T16:46:08Z</time></trkpt><trkpt lat="42.58651263517862" lon="0.7579576914065005"><ele>1431.75</ele><time>2026-04-27T16:46:09Z</time></trkpt><trkpt lat="42.58662806329107" lon="0.7579106495628966"><ele>1431.5</ele><time>2026-04-27T16:46:10Z</time></trkpt><trkpt lat="42.5867399283545" lon="0.7578627939770708"><ele>1431.25</ele><time>2026-04-27T16:46:11Z</time></trkpt><trkpt lat="42.586854693141355" lon="0.7578128433122095"><ele>1431.0</ele><time>2026-04-27T16:46:12Z</time></trkpt><trkpt lat="42.58696727957218" lon="0.7577669890294665"><ele>1430.75</ele><time>2026-04-27T16:46:13Z</time></trkpt><trkpt lat="42.587077353226896" lon="0.7577214700354319"><ele>1430.5</ele><time>2026-04-27T16:46:14Z</time></trkpt><trkpt lat="42.58719436590763" lon="0.757699510662336"><ele>1430.25</ele><time>2026-04-27T16:46:15Z</time></trkpt><trkpt lat="42.587309945020664" lon="0.7576818434708936"><ele>1430.0</ele><time>2026-04-27T16:46:16Z</time></trkpt><trkpt lat="42.58742801518863" lon="0.7576671113955646"><ele>1430.5</ele><time>2026-04-27T16:46:17Z</time></trkpt><trkpt lat="42.587544162708326" lon="0.7576620316787057"><ele>1431.0</ele><time>2026-04-27T16:46:18Z</time></trkpt><trkpt lat="42.58766155054784" lon="0.7576677935165357"><ele>1431.5</ele><time>2026-04-27T16:46:19Z</time></trkpt><trkpt lat="42.587779273990385" lon="0.7576790424973946"><ele>1432.0</ele><time>2026-04-27T16:46:20Z</time></trkpt><trkpt lat="42.58789308602115" lon="0.7577035876008968"><ele>1432.0</ele><time>2026-04-27T16:46:21Z</time></trkpt><trkpt lat="42.588005749158825" lon="0.7577391375590531"><ele>1432.0</ele><time>2026-04-27T16:46:22Z</time></trkpt><trkpt lat="42.588121119942485" lon="0.7577803288795232"><ele>1432.0</ele><time>2026-04-27T16:46:23Z</time></trkpt><trkpt lat="42.58823469757253" lon="0.7578242703075562"><ele>1432.0</ele><time>2026-04-27T16:46:24Z</time></trkpt><trkpt lat="42.58834858229105" lon="0.757871874153531"><ele>1432.0</ele><time>2026-04-27T16:46:25Z</time></trkpt><trkpt lat="42.58846402067869" lon="0.7579089583602681"><ele>1432.0</ele><time>2026-04-27T16:46:26Z</time></trkpt><trkpt lat="42.58857775361048" lon="0.757964208140378"><ele>1432.0</ele><time>2026-04-27T16:46:27Z</time></trkpt><trkpt lat="42.58868402615316" lon="0.7579952821650275"><ele>1432.0</ele><time>2026-04-27T16:46:28Z</time></trkpt><trkpt lat="42.58880419889763" lon="0.758049595741212"><ele>1433.75</ele><time>2026-04-27T16:46:29Z</time></trkpt><trkpt lat="42.58891602746001" lon="0.7580773013575643"><ele>1435.5</ele><time>2026-04-27T16:46:30Z</time></trkpt><trkpt lat="42.58903268788371" lon="0.7581029905641631"><ele>1437.25</ele><time>2026-04-27T16:46:31Z</time></trkpt><trkpt lat="42.589150623200936" lon="0.7581206007862366"><ele>1439.0</ele><time>2026-04-27T16:46:32Z</time></trkpt><trkpt lat="42.58926928637862" lon="0.7581285476325375"><ele>1439.0</ele><time>2026-04-27T16:46:33Z</time></trkpt><trkpt lat="42.58938723566517" lon="0.7581309339908499"><ele>1439.0</ele><time>2026-04-27T16:46:34Z</time></trkpt><trkpt lat="42.589507285178136" lon="0.7581247291924781"><ele>1439.0</ele><time>2026-04-27T16:46:35Z</time></trkpt><trkpt lat="42.589626615824386" lon="0.75811423952066"><ele>1439.0</ele><time>2026-04-27T16:46:36Z</time></trkpt><trkpt lat="42.58974673568157" lon="0.7580893527267234"><ele>1437.75</ele><time>2026-04-27T16:46:37Z</time></trkpt><trkpt lat="42.58986403243088" lon="0.7580576449679475"><ele>1436.5</ele><time>2026-04-27T16:46:38Z</time></trkpt><trkpt lat="42.589980590233836" lon="0.7580200077348604"><ele>1435.25</ele><time>2026-04-27T16:46:39Z</time></trkpt><trkpt lat="42.59009494007508" lon="0.7579752809838913"><ele>1434.0</ele><time>2026-04-27T16:46:40Z</time></trkpt><trkpt lat="42.590207294921484" lon="0.7579200637627796"><ele>1434.0</ele><time>2026-04-27T16:46:41Z</time></trkpt><trkpt lat="42.59031924375485" lon="0.7578573625687842"><ele>1434.0</ele><time>2026-04-27T16:46:42Z</time></trkpt><trkpt lat="42.59042576291386" lon="0.7577941307865497"><ele>1434.0</ele><time>2026-04-27T16:46:43Z</time></trkpt><trkpt lat="42.59053177787935" lon="0.7577218368672914"><ele>1434.0</ele><time>2026-04-27T16:46:44Z</time></trkpt><trkpt lat="42.59063796928009" lon="0.7576434148644151"><ele>1436.25</ele><time>2026-04-27T16:46:45Z</time></trkpt><trkpt lat="42.59074004466382" lon="0.7575670815219451"><ele>1438.5</ele><time>2026-04-27T16:46:46Z</time></trkpt><trkpt lat="42.590842933620536" lon="0.75749080226693"><ele>1440.75</ele><time>2026-04-27T16:46:47Z</time></trkpt><trkpt lat="42.59094649965467" lon="0.757417932329439"><ele>1443.0</ele><time>2026-04-27T16:46:48Z</time></trkpt><trkpt lat="42.59105384275544" lon="0.7573476803597815"><ele>1443.0</ele><time>2026-04-27T16:46:49Z</time></trkpt><trkpt lat="42.59116258384632" lon="0.7572920108698591"><ele>1443.0</ele><time>2026-04-27T16:46:50Z</time></trkpt><trkpt lat="42.591274806965565" lon="0.75724048606973"><ele>1443.0</ele><time>2026-04-27T16:46:51Z</time></trkpt><trkpt lat="42.59138869418163" lon="0.7571978430402978"><ele>1443.0</ele><time>2026-04-27T16:46:52Z</time></trkpt><trkpt lat="42.59150131593816" lon="0.7571613258515102"><ele>1442.5</ele><time>2026-04-27T16:46:53Z</time></trkpt><trkpt lat="42.59161437546896" lon="0.7571304229585166"><ele>1442.0</ele><time>2026-04-27T16:46:54Z</time></trkpt><trkpt lat="42.59173472724038" lon="0.7571122733788658"><ele>1441.5</ele><time>2026-04-27T16:46:55Z</time></trkpt><trkpt lat="42.59185543376121" lon="0.7571197706069944"><ele>1441.0</ele><time>2026-04-27T16:46:56Z</time></trkpt><trkpt lat="42.59196000555748" lon="0.7570966125799667"><ele>1440.75</ele><time>2026-04-27T16:46:57Z</time></trkpt><trkpt lat="42.59204504774952" lon="0.7571126677488759"><ele>1440.5</ele><time>2026-04-27T16:46:58Z</time></trkpt><trkpt lat="42.59211219704795" lon="0.7571413443034497"><ele>1440.25</ele><time>2026-04-27T16:46:59Z</time></trkpt><trkpt lat="42.592310043334166" lon="0.7571652087955952"><ele>1440.0</ele><time>2026-04-27T16:47:00Z</time></trkpt><trkpt lat="42.59242361327994" lon="0.7571889713966016"><ele>1440.0</ele><time>2026-04-27T16:47:01Z</time></trkpt><trkpt lat="42.592536870742705" lon="0.757204973428531"><ele>1440.0</ele><time>2026-04-27T16:47:02Z</time></trkpt><trkpt lat="42.5926524718044" lon="0.7572325380404772"><ele>1440.0</ele><time>2026-04-27T16:47:03Z</time></trkpt><trkpt lat="42.59276530663238" lon="0.757268951846342"><ele>1440.0</ele><time>2026-04-27T16:47:04Z</time></trkpt><trkpt lat="42.59288021911884" lon="0.7572928226606946"><ele>1441.25</ele><time>2026-04-27T16:47:05Z</time></trkpt><trkpt lat="42.59299271807521" lon="0.757325907452417"><ele>1442.5</ele><time>2026-04-27T16:47:06Z</time></trkpt><trkpt lat="42.59310710457882" lon="0.7573512506183288"><ele>1443.75</ele><time>2026-04-27T16:47:07Z</time></trkpt><trkpt lat="42.593221622020295" lon="0.7573795551106242"><ele>1445.0</ele><time>2026-04-27T16:47:08Z</time></trkpt><trkpt lat="42.59333633193537" lon="0.7574077069932745"><ele>1445.0</ele><time>2026-04-27T16:47:09Z</time></trkpt><trkpt lat="42.59345129745369" lon="0.7574360593328242"><ele>1445.0</ele><time>2026-04-27T16:47:10Z</time></trkpt><trkpt lat="42.593567041476604" lon="0.7574630579419745"><ele>1445.0</ele><time>2026-04-27T16:47:11Z</time></trkpt><trkpt lat="42.5936801174851" lon="0.7574913784058547"><ele>1445.0</ele><time>2026-04-27T16:47:12Z</time></trkpt><trkpt lat="42.593795642120575" lon="0.757513989412607"><ele>1447.5</ele><time>2026-04-27T16:47:13Z</time></trkpt><trkpt lat="42.59391125376653" lon="0.7575432911258085"><ele>1450.0</ele><time>2026-04-27T16:47:14Z</time></trkpt><trkpt lat="42.594027490020345" lon="0.7575719803085987"><ele>1452.5</ele><time>2026-04-27T16:47:15Z</time></trkpt><trkpt lat="42.5941416740161" lon="0.7576113000306577"><ele>1455.0</ele><time>2026-04-27T16:47:16Z</time></trkpt><trkpt lat="42.59425777121305" lon="0.7576363719974316"><ele>1455.0</ele><time>2026-04-27T16:47:17Z</time></trkpt><trkpt lat="42.59437248618032" lon="0.7576653790286952"><ele>1455.0</ele><time>2026-04-27T16:47:18Z</time></trkpt><trkpt lat="42.594487240187355" lon="0.7576937878928052"><ele>1455.0</ele><time>2026-04-27T16:47:19Z</time></trkpt><trkpt lat="42.59460299708561" lon="0.7577220926561964"><ele>1455.0</ele><time>2026-04-27T16:47:20Z</time></trkpt><trkpt lat="42.59472022099604" lon="0.7577515418605141"><ele>1449.5</ele><time>2026-04-27T16:47:21Z</time></trkpt><trkpt lat="42.5948387436255" lon="0.7577792360487516"><ele>1444.0</ele><time>2026-04-27T16:47:22Z</time></trkpt><trkpt lat="42.594953358216934" lon="0.7578103137870101"><ele>1438.5</ele><time>2026-04-27T16:47:23Z</time></trkpt><trkpt lat="42.59506817296437" lon="0.7578378315976275"><ele>1433.0</ele><time>2026-04-27T16:47:24Z</time></trkpt><trkpt lat="42.59518329167215" lon="0.7578710179446979"><ele>1433.0</ele><time>2026-04-27T16:47:25Z</time></trkpt><trkpt lat="42.59529793704174" lon="0.7579001889555885"><ele>1433.0</ele><time>2026-04-27T16:47:26Z</time></trkpt><trkpt lat="42.595412361807696" lon="0.757930087421499"><ele>1433.0</ele><time>2026-04-27T16:47:27Z</time></trkpt><trkpt lat="42.59552569295592" lon="0.7579626028382692"><ele>1433.0</ele><time>2026-04-27T16:47:28Z</time></trkpt><trkpt lat="42.595642406072855" lon="0.758004455444795"><ele>1434.25</ele><time>2026-04-27T16:47:29Z</time></trkpt><trkpt lat="42.5957814893973" lon="0.758119409877161"><ele>1435.5</ele><time>2026-04-27T16:47:30Z</time></trkpt><trkpt lat="42.59588594869971" lon="0.7582278391041223"><ele>1436.75</ele><time>2026-04-27T16:47:31Z</time></trkpt><trkpt lat="42.59596636411253" lon="0.7581253986490689"><ele>1438.0</ele><time>2026-04-27T16:47:32Z</time></trkpt><trkpt lat="42.596066516453625" lon="0.7582153838386962"><ele>1438.0</ele><time>2026-04-27T16:47:33Z</time></trkpt><trkpt lat="42.59616568011627" lon="0.7582975461358265"><ele>1438.0</ele><time>2026-04-27T16:47:34Z</time></trkpt><trkpt lat="42.5962547841562" lon="0.7583895238047211"><ele>1438.0</ele><time>2026-04-27T16:47:35Z</time></trkpt><trkpt lat="42.596341287116005" lon="0.758502468474119"><ele>1438.0</ele><time>2026-04-27T16:47:36Z</time></trkpt><trkpt lat="42.596407155354925" lon="0.7586248559510803"><ele>1440.5</ele><time>2026-04-27T16:47:37Z</time></trkpt><trkpt lat="42.59646768103911" lon="0.7587595067232823"><ele>1443.0</ele><time>2026-04-27T16:47:38Z</time></trkpt><trkpt lat="42.59651542821667" lon="0.7588981790673321"><ele>1445.5</ele><time>2026-04-27T16:47:39Z</time></trkpt><trkpt lat="42.59655073460747" lon="0.7590493482282678"><ele>1448.0</ele><time>2026-04-27T16:47:40Z</time></trkpt><trkpt lat="42.59657889919629" lon="0.7591956266658215"><ele>1448.0</ele><time>2026-04-27T16:47:41Z</time></trkpt><trkpt lat="42.596600853610084" lon="0.7593453643914423"><ele>1448.0</ele><time>2026-04-27T16:47:42Z</time></trkpt><trkpt lat="42.59661681293118" lon="0.7594937643974495"><ele>1448.0</ele><time>2026-04-27T16:47:43Z</time></trkpt><trkpt lat="42.596629839025006" lon="0.7596427653068469"><ele>1448.0</ele><time>2026-04-27T16:47:44Z</time></trkpt><trkpt lat="42.596642445326516" lon="0.7597869643709768"><ele>1448.0</ele><time>2026-04-27T16:47:45Z</time></trkpt><trkpt lat="42.59666837618226" lon="0.7599334553367808"><ele>1448.0</ele><time>2026-04-27T16:47:46Z</time></trkpt><trkpt lat="42.59667848573457" lon="0.7600784391042009"><ele>1448.0</ele><time>2026-04-27T16:47:47Z</time></trkpt><trkpt lat="42.596691973828015" lon="0.7602212948535635"><ele>1448.0</ele><time>2026-04-27T16:47:48Z</time></trkpt><trkpt lat="42.59670767263449" lon="0.7603630132193134"><ele>1448.0</ele><time>2026-04-27T16:47:49Z</time></trkpt><trkpt lat="42.596731661496236" lon="0.7605023547224613"><ele>1448.0</ele><time>2026-04-27T16:47:50Z</time></trkpt><trkpt lat="42.59676567454607" lon="0.7606376509557178"><ele>1447.8000000000002</ele><time>2026-04-27T16:47:51Z</time></trkpt><trkpt lat="42.59680532614279" lon="0.7607705138190166"><ele>1447.6</ele><time>2026-04-27T16:47:52Z</time></trkpt><trkpt lat="42.596848935409284" lon="0.7608987206332766"><ele>1447.4</ele><time>2026-04-27T16:47:53Z</time></trkpt><trkpt lat="42.59690152366864" lon="0.7610214492454886"><ele>1447.1999999999998</ele><time>2026-04-27T16:47:54Z</time></trkpt><trkpt lat="42.596964224541416" lon="0.7611328505584163"><ele>1447.0</ele><time>2026-04-27T16:47:55Z</time></trkpt><trkpt lat="42.59702262746001" lon="0.7612434482799741"><ele>1447.0</ele><time>2026-04-27T16:47:56Z</time></trkpt><trkpt lat="42.59708633207556" lon="0.7613485057220917"><ele>1447.0</ele><time>2026-04-27T16:47:57Z</time></trkpt><trkpt lat="42.59715308676868" lon="0.7614500693958579"><ele>1447.0</ele><time>2026-04-27T16:47:58Z</time></trkpt><trkpt lat="42.59722072764072" lon="0.7615447585952774"><ele>1447.0</ele><time>2026-04-27T16:47:59Z</time></trkpt><trkpt lat="42.597286087081095" lon="0.7616430419937694"><ele>1447.0</ele><time>2026-04-27T16:48:00Z</time></trkpt><trkpt lat="42.59735161187457" lon="0.7617376307873116"><ele>1447.0</ele><time>2026-04-27T16:48:01Z</time></trkpt><trkpt lat="42.59741639518154" lon="0.7618333771095173"><ele>1447.0</ele><time>2026-04-27T16:48:02Z</time></trkpt><trkpt lat="42.59748213778268" lon="0.7619247609025733"><ele>1447.0</ele><time>2026-04-27T16:48:03Z</time></trkpt><trkpt lat="42.59754637935464" lon="0.7620146550076498"><ele>1447.0</ele><time>2026-04-27T16:48:04Z</time></trkpt><trkpt lat="42.597609412140606" lon="0.7621045883290549"><ele>1447.0</ele><time>2026-04-27T16:48:05Z</time></trkpt><trkpt lat="42.59767091669786" lon="0.7621879635217784"><ele>1447.3333333333333</ele><time>2026-04-27T16:48:06Z</time></trkpt><trkpt lat="42.59772947137818" lon="0.7622744949206165"><ele>1447.6666666666665</ele><time>2026-04-27T16:48:07Z</time></trkpt><trkpt lat="42.59778972505007" lon="0.7623555722496703"><ele>1448.0</ele><time>2026-04-27T16:48:08Z</time></trkpt><trkpt lat="42.59785122342679" lon="0.762433244762667"><ele>1448.3333333333333</ele><time>2026-04-27T16:48:09Z</time></trkpt><trkpt lat="42.59791212797821" lon="0.762504336006378"><ele>1448.6666666666667</ele><time>2026-04-27T16:48:10Z</time></trkpt><trkpt lat="42.59797324711672" lon="0.7625763160418267"><ele>1449.0</ele><time>2026-04-27T16:48:11Z</time></trkpt><trkpt lat="42.59803310785265" lon="0.7626449384739313"><ele>1451.0</ele><time>2026-04-27T16:48:12Z</time></trkpt><trkpt lat="42.59809353460797" lon="0.7627081290242247"><ele>1453.0</ele><time>2026-04-27T16:48:13Z</time></trkpt><trkpt lat="42.59815513547602" lon="0.7627671815027265"><ele>1455.0</ele><time>2026-04-27T16:48:14Z</time></trkpt><trkpt lat="42.59821846475864" lon="0.7628252471964597"><ele>1457.0</ele><time>2026-04-27T16:48:15Z</time></trkpt><trkpt lat="42.59827978720083" lon="0.7628809410494359"><ele>1459.0</ele><time>2026-04-27T16:48:16Z</time></trkpt><trkpt lat="42.59834580325611" lon="0.7629327485921017"><ele>1461.0</ele><time>2026-04-27T16:48:17Z</time></trkpt><trkpt lat="42.59841100939565" lon="0.7629849142759402"><ele>1461.0</ele><time>2026-04-27T16:48:18Z</time></trkpt><trkpt lat="42.59847725035219" lon="0.7630308495477162"><ele>1461.0</ele><time>2026-04-27T16:48:19Z</time></trkpt><trkpt lat="42.598545920118205" lon="0.7630752578168517"><ele>1461.0</ele><time>2026-04-27T16:48:20Z</time></trkpt><trkpt lat="42.59861356332199" lon="0.7631163965822797"><ele>1461.0</ele><time>2026-04-27T16:48:21Z</time></trkpt><trkpt lat="42.59868411798819" lon="0.7631571472165122"><ele>1461.0</ele><time>2026-04-27T16:48:22Z</time></trkpt><trkpt lat="42.598755009411455" lon="0.7631942318114638"><ele>1461.0</ele><time>2026-04-27T16:48:23Z</time></trkpt><trkpt lat="42.598828435059296" lon="0.7632336794628156"><ele>1461.8333333333333</ele><time>2026-04-27T16:48:24Z</time></trkpt><trkpt lat="42.598901399843946" lon="0.7632654213973196"><ele>1462.6666666666667</ele><time>2026-04-27T16:48:25Z</time></trkpt><trkpt lat="42.59897815437078" lon="0.7632946760744405"><ele>1463.5</ele><time>2026-04-27T16:48:26Z</time></trkpt><trkpt lat="42.599054687771634" lon="0.7633189153288911"><ele>1464.3333333333335</ele><time>2026-04-27T16:48:27Z</time></trkpt><trkpt lat="42.59913431342244" lon="0.7633455496392847"><ele>1465.1666666666667</ele><time>2026-04-27T16:48:28Z</time></trkpt><trkpt lat="42.59921504157977" lon="0.7633690475487062"><ele>1466.0</ele><time>2026-04-27T16:48:29Z</time></trkpt><trkpt lat="42.599296603271334" lon="0.7633859849791239"><ele>1466.0</ele><time>2026-04-27T16:48:30Z</time></trkpt><trkpt lat="42.59937911896821" lon="0.7633984433911227"><ele>1466.0</ele><time>2026-04-27T16:48:31Z</time></trkpt><trkpt lat="42.59946377985126" lon="0.7634138011631373"><ele>1466.0</ele><time>2026-04-27T16:48:32Z</time></trkpt><trkpt lat="42.59954976435194" lon="0.763425551668865"><ele>1466.0</ele><time>2026-04-27T16:48:33Z</time></trkpt><trkpt lat="42.599635201323245" lon="0.763437522760468"><ele>1466.0</ele><time>2026-04-27T16:48:34Z</time></trkpt><trkpt lat="42.5997228783938" lon="0.7634457921337927"><ele>1466.0</ele><time>2026-04-27T16:48:35Z</time></trkpt><trkpt lat="42.59981105750196" lon="0.7634557107477373"><ele>1467.0</ele><time>2026-04-27T16:48:36Z</time></trkpt><trkpt lat="42.59990024745923" lon="0.7634588755717442"><ele>1468.0</ele><time>2026-04-27T16:48:37Z</time></trkpt><trkpt lat="42.59999039730107" lon="0.7634653903085453"><ele>1469.0</ele><time>2026-04-27T16:48:38Z</time></trkpt><trkpt lat="42.60008327404603" lon="0.7634638596554663"><ele>1470.0</ele><time>2026-04-27T16:48:39Z</time></trkpt><trkpt lat="42.60017199829179" lon="0.7634675553764206"><ele>1471.0</ele><time>2026-04-27T16:48:40Z</time></trkpt><trkpt lat="42.600264997402256" lon="0.7634698816145253"><ele>1471.8</ele><time>2026-04-27T16:48:41Z</time></trkpt><trkpt lat="42.600357327116605" lon="0.7634741315370349"><ele>1472.6</ele><time>2026-04-27T16:48:42Z</time></trkpt><trkpt lat="42.60044914490297" lon="0.7634807978900953"><ele>1473.4</ele><time>2026-04-27T16:48:43Z</time></trkpt><trkpt lat="42.600540524475775" lon="0.7634887897703814"><ele>1474.2</ele><time>2026-04-27T16:48:44Z</time></trkpt><trkpt lat="42.60063279282344" lon="0.7634881173427283"><ele>1475.0</ele><time>2026-04-27T16:48:45Z</time></trkpt><trkpt lat="42.600727544385464" lon="0.7634913721067703"><ele>1475.0</ele><time>2026-04-27T16:48:46Z</time></trkpt><trkpt lat="42.6008199712303" lon="0.7634946366350992"><ele>1475.0</ele><time>2026-04-27T16:48:47Z</time></trkpt><trkpt lat="42.6009150257053" lon="0.7634978875132078"><ele>1475.0</ele><time>2026-04-27T16:48:48Z</time></trkpt><trkpt lat="42.60100974931425" lon="0.7635024580491951"><ele>1475.0</ele><time>2026-04-27T16:48:49Z</time></trkpt><trkpt lat="42.60110349852345" lon="0.7635090498957271"><ele>1475.0</ele><time>2026-04-27T16:48:50Z</time></trkpt><trkpt lat="42.601198952709396" lon="0.7635149165160158"><ele>1474.6</ele><time>2026-04-27T16:48:51Z</time></trkpt><trkpt lat="42.601293898189084" lon="0.7635278821826071"><ele>1474.2</ele><time>2026-04-27T16:48:52Z</time></trkpt><trkpt lat="42.60138694082881" lon="0.7635454434363741"><ele>1473.8000000000002</ele><time>2026-04-27T16:48:53Z</time></trkpt><trkpt lat="42.60148080699283" lon="0.7635738399948897"><ele>1473.4</ele><time>2026-04-27T16:48:54Z</time></trkpt><trkpt lat="42.60157443267689" lon="0.7635973598299031"><ele>1473.0</ele><time>2026-04-27T16:48:55Z</time></trkpt><trkpt lat="42.60166783932077" lon="0.7636262705831527"><ele>1473.0</ele><time>2026-04-27T16:48:56Z</time></trkpt><trkpt lat="42.60176109486081" lon="0.7636542045596032"><ele>1473.0</ele><time>2026-04-27T16:48:57Z</time></trkpt><trkpt lat="42.60185300379579" lon="0.7636919926181821"><ele>1473.0</ele><time>2026-04-27T16:48:58Z</time></trkpt><trkpt lat="42.60194226653059" lon="0.7637335853170826"><ele>1473.0</ele><time>2026-04-27T16:48:59Z</time></trkpt><trkpt lat="42.60203445649019" lon="0.7637750966030056"><ele>1473.0</ele><time>2026-04-27T16:49:00Z</time></trkpt><trkpt lat="42.60212430310063" lon="0.7638217595315699"><ele>1473.6000000000001</ele><time>2026-04-27T16:49:01Z</time></trkpt><trkpt lat="42.602213289964965" lon="0.7638762279988712"><ele>1474.2</ele><time>2026-04-27T16:49:02Z</time></trkpt><trkpt lat="42.60230292444745" lon="0.7639305491105391"><ele>1474.8</ele><time>2026-04-27T16:49:03Z</time></trkpt><trkpt lat="42.60238732551028" lon="0.7639920963441423"><ele>1475.4</ele><time>2026-04-27T16:49:04Z</time></trkpt><trkpt lat="42.602473721823905" lon="0.7640548175460468"><ele>1476.0</ele><time>2026-04-27T16:49:05Z</time></trkpt><trkpt lat="42.60255858511918" lon="0.7641236025886518"><ele>1476.0</ele><time>2026-04-27T16:49:06Z</time></trkpt><trkpt lat="42.60264065097907" lon="0.7641894782618089"><ele>1476.0</ele><time>2026-04-27T16:49:07Z</time></trkpt><trkpt lat="42.602720451341625" lon="0.7642655037203833"><ele>1476.0</ele><time>2026-04-27T16:49:08Z</time></trkpt><trkpt lat="42.60279955981924" lon="0.7643428623538806"><ele>1476.0</ele><time>2026-04-27T16:49:09Z</time></trkpt><trkpt lat="42.602878499591995" lon="0.7644199329543108"><ele>1476.0</ele><time>2026-04-27T16:49:10Z</time></trkpt><trkpt lat="42.602956046563804" lon="0.7644981353360809"><ele>1476.4</ele><time>2026-04-27T16:49:11Z</time></trkpt><trkpt lat="42.60303391679346" lon="0.7645769097657241"><ele>1476.8</ele><time>2026-04-27T16:49:12Z</time></trkpt><trkpt lat="42.60311177379751" lon="0.7646586846079424"><ele>1477.2</ele><time>2026-04-27T16:49:13Z</time></trkpt><trkpt lat="42.60318762481343" lon="0.7647382486870984"><ele>1477.6000000000001</ele><time>2026-04-27T16:49:14Z</time></trkpt><trkpt lat="42.60326447299731" lon="0.7648256472333198"><ele>1478.0</ele><time>2026-04-27T16:49:15Z</time></trkpt><trkpt lat="42.603340854082504" lon="0.7649044818766259"><ele>1478.0</ele><time>2026-04-27T16:49:16Z</time></trkpt><trkpt lat="42.60341648999823" lon="0.7649849262098352"><ele>1478.0</ele><time>2026-04-27T16:49:17Z</time></trkpt><trkpt lat="42.60349293649075" lon="0.7650703106948128"><ele>1478.0</ele><time>2026-04-27T16:49:18Z</time></trkpt><trkpt lat="42.60356893905602" lon="0.7651482811218494"><ele>1478.0</ele><time>2026-04-27T16:49:19Z</time></trkpt><trkpt lat="42.6036411879099" lon="0.7652266712523148"><ele>1478.0</ele><time>2026-04-27T16:49:20Z</time></trkpt><trkpt lat="42.60371700759154" lon="0.7653055743648002"><ele>1480.0</ele><time>2026-04-27T16:49:21Z</time></trkpt><trkpt lat="42.603791188414604" lon="0.7653876155310368"><ele>1482.0</ele><time>2026-04-27T16:49:22Z</time></trkpt><trkpt lat="42.603864855184135" lon="0.7654589118290948"><ele>1484.0</ele><time>2026-04-27T16:49:23Z</time></trkpt><trkpt lat="42.60393777965776" lon="0.7655345087915272"><ele>1486.0</ele><time>2026-04-27T16:49:24Z</time></trkpt><trkpt lat="42.604010775886444" lon="0.7656051398695557"><ele>1488.0</ele><time>2026-04-27T16:49:25Z</time></trkpt><trkpt lat="42.60408516906466" lon="0.7656773195039065"><ele>1488.0</ele><time>2026-04-27T16:49:26Z</time></trkpt><trkpt lat="42.60415720628494" lon="0.7657372046818262"><ele>1488.0</ele><time>2026-04-27T16:49:27Z</time></trkpt><trkpt lat="42.604231714006715" lon="0.7657986427073179"><ele>1488.0</ele><time>2026-04-27T16:49:28Z</time></trkpt><trkpt lat="42.60430695004854" lon="0.7658518092926756"><ele>1488.0</ele><time>2026-04-27T16:49:29Z</time></trkpt><trkpt lat="42.60438342584166" lon="0.7658979927629546"><ele>1488.0</ele><time>2026-04-27T16:49:30Z</time></trkpt><trkpt lat="42.60445815956798" lon="0.765944496722523"><ele>1488.0</ele><time>2026-04-27T16:49:31Z</time></trkpt><trkpt lat="42.60453503293996" lon="0.7659886239818522"><ele>1489.0</ele><time>2026-04-27T16:49:32Z</time></trkpt><trkpt lat="42.604611453402754" lon="0.7660262789090451"><ele>1490.0</ele><time>2026-04-27T16:49:33Z</time></trkpt><trkpt lat="42.6046876011975" lon="0.7660635262834373"><ele>1491.0</ele><time>2026-04-27T16:49:34Z</time></trkpt><trkpt lat="42.604763466340856" lon="0.7660950823560727"><ele>1492.0</ele><time>2026-04-27T16:49:35Z</time></trkpt><trkpt lat="42.60484008967899" lon="0.7661231795556465"><ele>1493.0</ele><time>2026-04-27T16:49:36Z</time></trkpt><trkpt lat="42.60491755499168" lon="0.7661465742378974"><ele>1494.0</ele><time>2026-04-27T16:49:37Z</time></trkpt><trkpt lat="42.60499341306503" lon="0.7661663629102559"><ele>1494.0</ele><time>2026-04-27T16:49:38Z</time></trkpt><trkpt lat="42.60506876255972" lon="0.7661788005163324"><ele>1494.0</ele><time>2026-04-27T16:49:39Z</time></trkpt><trkpt lat="42.60514589774772" lon="0.766191494602375"><ele>1494.0</ele><time>2026-04-27T16:49:40Z</time></trkpt><trkpt lat="42.60522213097075" lon="0.766201879613517"><ele>1494.0</ele><time>2026-04-27T16:49:41Z</time></trkpt><trkpt lat="42.6052970691023" lon="0.7662054838085317"><ele>1494.0</ele><time>2026-04-27T16:49:42Z</time></trkpt><trkpt lat="42.60537206950717" lon="0.7662064413870855"><ele>1494.0</ele><time>2026-04-27T16:49:43Z</time></trkpt><trkpt lat="42.60544761393307" lon="0.7662065481230641"><ele>1494.142857142857</ele><time>2026-04-27T16:49:44Z</time></trkpt><trkpt lat="42.605521142303104" lon="0.7662008981872661"><ele>1494.2857142857142</ele><time>2026-04-27T16:49:45Z</time></trkpt><trkpt lat="42.60559527387886" lon="0.7661935992654119"><ele>1494.4285714285716</ele><time>2026-04-27T16:49:46Z</time></trkpt><trkpt lat="42.60566922751348" lon="0.7661803600463296"><ele>1494.5714285714284</ele><time>2026-04-27T16:49:47Z</time></trkpt><trkpt lat="42.605742022551745" lon="0.7661619577632824"><ele>1494.7142857142858</ele><time>2026-04-27T16:49:48Z</time></trkpt><trkpt lat="42.605815535128826" lon="0.7661437141594292"><ele>1494.857142857143</ele><time>2026-04-27T16:49:49Z</time></trkpt><trkpt lat="42.60588804169739" lon="0.7661290052844191"><ele>1495.0</ele><time>2026-04-27T16:49:50Z</time></trkpt><trkpt lat="42.605963481118515" lon="0.7661085762328742"><ele>1495.0000000000002</ele><time>2026-04-27T16:49:51Z</time></trkpt><trkpt lat="42.60603540325091" lon="0.7660853049972051"><ele>1495.0</ele><time>2026-04-27T16:49:52Z</time></trkpt><trkpt lat="42.606108484493184" lon="0.7660633065588995"><ele>1495.0</ele><time>2026-04-27T16:49:53Z</time></trkpt><trkpt lat="42.60618127539743" lon="0.7660396906424587"><ele>1495.0</ele><time>2026-04-27T16:49:54Z</time></trkpt><trkpt lat="42.606251836700594" lon="0.7660164389450294"><ele>1495.0</ele><time>2026-04-27T16:49:55Z</time></trkpt><trkpt lat="42.60632437802642" lon="0.7659942836361445"><ele>1495.0000000000002</ele><time>2026-04-27T16:49:56Z</time></trkpt><trkpt lat="42.6063993002314" lon="0.7659750237995683"><ele>1495.0</ele><time>2026-04-27T16:49:57Z</time></trkpt><trkpt lat="42.606472343139245" lon="0.7659575592193605"><ele>1497.6666666666665</ele><time>2026-04-27T16:49:58Z</time></trkpt><trkpt lat="42.606547440741174" lon="0.7659396231699243"><ele>1500.3333333333333</ele><time>2026-04-27T16:49:59Z</time></trkpt><trkpt lat="42.60662400336456" lon="0.7659259795763436"><ele>1503.0</ele><time>2026-04-27T16:50:00Z</time></trkpt><trkpt lat="42.60670155233308" lon="0.7659153233038627"><ele>1505.6666666666667</ele><time>2026-04-27T16:50:01Z</time></trkpt><trkpt lat="42.60677736108225" lon="0.7659088997111099"><ele>1508.3333333333335</ele><time>2026-04-27T16:50:02Z</time></trkpt><trkpt lat="42.60685404793885" lon="0.7659026675221927"><ele>1511.0</ele><time>2026-04-27T16:50:03Z</time></trkpt><trkpt lat="42.606932272249665" lon="0.7659024729050036"><ele>1511.3333333333335</ele><time>2026-04-27T16:50:04Z</time></trkpt><trkpt lat="42.6070104634864" lon="0.7659032312991233"><ele>1511.6666666666667</ele><time>2026-04-27T16:50:05Z</time></trkpt><trkpt lat="42.60708841922999" lon="0.7659075836048992"><ele>1512.0</ele><time>2026-04-27T16:50:06Z</time></trkpt><trkpt lat="42.60716586216139" lon="0.7659163945504948"><ele>1512.3333333333333</ele><time>2026-04-27T16:50:07Z</time></trkpt><trkpt lat="42.60724246271869" lon="0.7659280705052515"><ele>1512.6666666666665</ele><time>2026-04-27T16:50:08Z</time></trkpt><trkpt lat="42.607321766922574" lon="0.7659408356630528"><ele>1513.0</ele><time>2026-04-27T16:50:09Z</time></trkpt><trkpt lat="42.60739927193297" lon="0.7659576133907336"><ele>1513.0</ele><time>2026-04-27T16:50:10Z</time></trkpt><trkpt lat="42.60747660004601" lon="0.7659777492344847"><ele>1513.0</ele><time>2026-04-27T16:50:11Z</time></trkpt><trkpt lat="42.60755405469596" lon="0.7659969486576145"><ele>1513.0</ele><time>2026-04-27T16:50:12Z</time></trkpt><trkpt lat="42.607630560142304" lon="0.7660234862754176"><ele>1513.0</ele><time>2026-04-27T16:50:13Z</time></trkpt><trkpt lat="42.607704131172746" lon="0.7660520356700692"><ele>1513.0</ele><time>2026-04-27T16:50:14Z</time></trkpt><trkpt lat="42.60777999967685" lon="0.7660831265741634"><ele>1513.0</ele><time>2026-04-27T16:50:15Z</time></trkpt><trkpt lat="42.60785210506028" lon="0.7661165438418561"><ele>1513.0</ele><time>2026-04-27T16:50:16Z</time></trkpt><trkpt lat="42.60792399847064" lon="0.7661522065138286"><ele>1513.0</ele><time>2026-04-27T16:50:17Z</time></trkpt><trkpt lat="42.60799417517408" lon="0.7661926887804485"><ele>1513.0</ele><time>2026-04-27T16:50:18Z</time></trkpt><trkpt lat="42.60806359113805" lon="0.7662315127919068"><ele>1513.0</ele><time>2026-04-27T16:50:19Z</time></trkpt><trkpt lat="42.6081311826983" lon="0.7662674886774283"><ele>1513.0</ele><time>2026-04-27T16:50:20Z</time></trkpt><trkpt lat="42.60820101821546" lon="0.7663031600627764"><ele>1513.0</ele><time>2026-04-27T16:50:21Z</time></trkpt><trkpt lat="42.60826975890911" lon="0.7663399982392367"><ele>1513.0</ele><time>2026-04-27T16:50:22Z</time></trkpt><trkpt lat="42.60833748023655" lon="0.7663733767763112"><ele>1513.0</ele><time>2026-04-27T16:50:23Z</time></trkpt><trkpt lat="42.60840544584859" lon="0.766407692750579"><ele>1513.0</ele><time>2026-04-27T16:50:24Z</time></trkpt><trkpt lat="42.60847317609463" lon="0.7664430578351252"><ele>1513.0</ele><time>2026-04-27T16:50:25Z</time></trkpt><trkpt lat="42.60853838840081" lon="0.7664757356343289"><ele>1513.0</ele><time>2026-04-27T16:50:26Z</time></trkpt><trkpt lat="42.60860599674834" lon="0.7665067392307429"><ele>1513.0</ele><time>2026-04-27T16:50:27Z</time></trkpt><trkpt lat="42.60867404612858" lon="0.7665353673996088"><ele>1513.0</ele><time>2026-04-27T16:50:28Z</time></trkpt><trkpt lat="42.608741687386186" lon="0.7665602820957852"><ele>1513.0</ele><time>2026-04-27T16:50:29Z</time></trkpt><trkpt lat="42.608810733109536" lon="0.7665847440170218"><ele>1514.0</ele><time>2026-04-27T16:50:30Z</time></trkpt><trkpt lat="42.60888009979169" lon="0.766607223542157"><ele>1515.0</ele><time>2026-04-27T16:50:31Z</time></trkpt><trkpt lat="42.608948979125714" lon="0.7666265293688866"><ele>1516.0</ele><time>2026-04-27T16:50:32Z</time></trkpt><trkpt lat="42.60901895553504" lon="0.7666448052778989"><ele>1517.0</ele><time>2026-04-27T16:50:33Z</time></trkpt><trkpt lat="42.609089486560976" lon="0.7666620144173071"><ele>1518.0</ele><time>2026-04-27T16:50:34Z</time></trkpt><trkpt lat="42.60916010985077" lon="0.7666787788979954"><ele>1519.0</ele><time>2026-04-27T16:50:35Z</time></trkpt><trkpt lat="42.60922939856886" lon="0.7666937874780795"><ele>1520.0</ele><time>2026-04-27T16:50:36Z</time></trkpt><trkpt lat="42.609301362056755" lon="0.7667069003703633"><ele>1520.0</ele><time>2026-04-27T16:50:37Z</time></trkpt><trkpt lat="42.609372605517564" lon="0.766717719827591"><ele>1520.0</ele><time>2026-04-27T16:50:38Z</time></trkpt><trkpt lat="42.60944399951908" lon="0.7667266458022279"><ele>1520.0</ele><time>2026-04-27T16:50:39Z</time></trkpt><trkpt lat="42.60951520687079" lon="0.7667320321643073"><ele>1520.0</ele><time>2026-04-27T16:50:40Z</time></trkpt><trkpt lat="42.609587625517555" lon="0.7667383941845978"><ele>1520.0</ele><time>2026-04-27T16:50:41Z</time></trkpt><trkpt lat="42.609659125010275" lon="0.7667439941797728"><ele>1520.0</ele><time>2026-04-27T16:50:42Z</time></trkpt><trkpt lat="42.60973118745304" lon="0.7667472142900557"><ele>1520.0</ele><time>2026-04-27T16:50:43Z</time></trkpt><trkpt lat="42.6098041999243" lon="0.7667478460456989"><ele>1520.857142857143</ele><time>2026-04-27T16:50:44Z</time></trkpt><trkpt lat="42.60987485422366" lon="0.7667477848857998"><ele>1521.7142857142858</ele><time>2026-04-27T16:50:45Z</time></trkpt><trkpt lat="42.609944880631204" lon="0.7667454148199334"><ele>1522.5714285714284</ele><time>2026-04-27T16:50:46Z</time></trkpt><trkpt lat="42.610015469313566" lon="0.7667397196875835"><ele>1523.4285714285716</ele><time>2026-04-27T16:50:47Z</time></trkpt><trkpt lat="42.610086796573654" lon="0.7667304539232883"><ele>1524.2857142857142</ele><time>2026-04-27T16:50:48Z</time></trkpt><trkpt lat="42.61015798582369" lon="0.7667208077778308"><ele>1525.142857142857</ele><time>2026-04-27T16:50:49Z</time></trkpt><trkpt lat="42.610228808985816" lon="0.7667096881492114"><ele>1526.0</ele><time>2026-04-27T16:50:50Z</time></trkpt><trkpt lat="42.61029898784755" lon="0.7666967500462931"><ele>1526.4285714285713</ele><time>2026-04-27T16:50:51Z</time></trkpt><trkpt lat="42.61036927526553" lon="0.7666843820521682"><ele>1526.857142857143</ele><time>2026-04-27T16:50:52Z</time></trkpt><trkpt lat="42.61044014302345" lon="0.7666719307417953"><ele>1527.2857142857142</ele><time>2026-04-27T16:50:53Z</time></trkpt><trkpt lat="42.61051081249606" lon="0.7666594974753226"><ele>1527.7142857142858</ele><time>2026-04-27T16:50:54Z</time></trkpt><trkpt lat="42.61058128158114" lon="0.7666475107427156"><ele>1528.142857142857</ele><time>2026-04-27T16:50:55Z</time></trkpt><trkpt lat="42.610650719601544" lon="0.7666325099044045"><ele>1528.5714285714284</ele><time>2026-04-27T16:50:56Z</time></trkpt><trkpt lat="42.61071861831118" lon="0.766616949061666"><ele>1529.0</ele><time>2026-04-27T16:50:57Z</time></trkpt><trkpt lat="42.610830624033056" lon="0.7665908391498437"><ele>1529.0</ele><time>2026-04-27T16:50:59Z</time></trkpt><trkpt lat="42.61094379174303" lon="0.766569263491039"><ele>1529.0</ele><time>2026-04-27T16:51:01Z</time></trkpt><trkpt lat="42.61105018241244" lon="0.7665488484287394"><ele>1529.0</ele><time>2026-04-27T16:51:03Z</time></trkpt><trkpt lat="42.611125769523284" lon="0.7665320733516657"><ele>1529.0</ele><time>2026-04-27T16:51:05Z</time></trkpt><trkpt lat="42.6111903393993" lon="0.7665063887704112"><ele>1529.0</ele><time>2026-04-27T16:53:34Z</time></trkpt><trkpt lat="42.611270284615955" lon="0.7664920510058263"><ele>1529.0</ele><time>2026-04-27T16:53:37Z</time></trkpt><trkpt lat="42.611340781930004" lon="0.7664741099344012"><ele>1530.4</ele><time>2026-04-27T16:53:39Z</time></trkpt><trkpt lat="42.61143460740115" lon="0.7664598080628988"><ele>1531.8000000000002</ele><time>2026-04-27T16:53:41Z</time></trkpt><trkpt lat="42.61154388836243" lon="0.7664351960083291"><ele>1533.1999999999998</ele><time>2026-04-27T16:53:43Z</time></trkpt><trkpt lat="42.61166405283026" lon="0.7664093490862525"><ele>1534.6</ele><time>2026-04-27T16:53:45Z</time></trkpt><trkpt lat="42.61173007289016" lon="0.7663922726921352"><ele>1536.0</ele><time>2026-04-27T16:53:46Z</time></trkpt><trkpt lat="42.61179529085154" lon="0.7663744039287498"><ele>1535.9999999999998</ele><time>2026-04-27T16:53:47Z</time></trkpt><trkpt lat="42.611863791674985" lon="0.7663569458166051"><ele>1536.0</ele><time>2026-04-27T16:53:48Z</time></trkpt><trkpt lat="42.6119351603621" lon="0.7663444460493866"><ele>1536.0</ele><time>2026-04-27T16:53:49Z</time></trkpt><trkpt lat="42.61200600159134" lon="0.766328885529616"><ele>1536.0</ele><time>2026-04-27T16:53:50Z</time></trkpt><trkpt lat="42.61208045760546" lon="0.7663082750739572"><ele>1536.0</ele><time>2026-04-27T16:53:51Z</time></trkpt><trkpt lat="42.61215150810856" lon="0.7662923918824901"><ele>1535.9999999999998</ele><time>2026-04-27T16:53:52Z</time></trkpt><trkpt lat="42.61222521530066" lon="0.7662754380550832"><ele>1536.0</ele><time>2026-04-27T16:53:53Z</time></trkpt><trkpt lat="42.61230325381739" lon="0.766257363622402"><ele>1537.1666666666667</ele><time>2026-04-27T16:53:54Z</time></trkpt><trkpt lat="42.61238132812616" lon="0.7662405034753353"><ele>1538.3333333333335</ele><time>2026-04-27T16:53:55Z</time></trkpt><trkpt lat="42.61245797728643" lon="0.7662223597618499"><ele>1539.5</ele><time>2026-04-27T16:53:56Z</time></trkpt><trkpt lat="42.61253660450899" lon="0.7662023005714883"><ele>1540.6666666666667</ele><time>2026-04-27T16:53:57Z</time></trkpt><trkpt lat="42.61261656303879" lon="0.7661853280493045"><ele>1541.8333333333335</ele><time>2026-04-27T16:53:58Z</time></trkpt><trkpt lat="42.612696745527344" lon="0.7661656028746693"><ele>1543.0</ele><time>2026-04-27T16:53:59Z</time></trkpt><trkpt lat="42.61278057497524" lon="0.7661479558948586"><ele>1543.6666666666667</ele><time>2026-04-27T16:54:00Z</time></trkpt><trkpt lat="42.6128643167645" lon="0.7661318115119083"><ele>1544.3333333333335</ele><time>2026-04-27T16:54:01Z</time></trkpt><trkpt lat="42.61294775964163" lon="0.7661139581283848"><ele>1545.0</ele><time>2026-04-27T16:54:02Z</time></trkpt><trkpt lat="42.61303421077102" lon="0.7660897757264518"><ele>1545.6666666666665</ele><time>2026-04-27T16:54:03Z</time></trkpt><trkpt lat="42.61311798100399" lon="0.7660682169701915"><ele>1546.3333333333333</ele><time>2026-04-27T16:54:04Z</time></trkpt><trkpt lat="42.61320122851495" lon="0.7660464728602826"><ele>1547.0</ele><time>2026-04-27T16:54:05Z</time></trkpt><trkpt lat="42.61328969488192" lon="0.7660259018438873"><ele>1547.1666666666665</ele><time>2026-04-27T16:54:06Z</time></trkpt><trkpt lat="42.61337853979135" lon="0.7660068367646717"><ele>1547.3333333333333</ele><time>2026-04-27T16:54:07Z</time></trkpt><trkpt lat="42.61346407699243" lon="0.7659878828413409"><ele>1547.5</ele><time>2026-04-27T16:54:08Z</time></trkpt><trkpt lat="42.61355011591361" lon="0.7659683657429991"><ele>1547.6666666666665</ele><time>2026-04-27T16:54:09Z</time></trkpt><trkpt lat="42.61363936053887" lon="0.7659498871527314"><ele>1547.8333333333333</ele><time>2026-04-27T16:54:10Z</time></trkpt><trkpt lat="42.61372801345177" lon="0.765929706630658"><ele>1548.0</ele><time>2026-04-27T16:54:11Z</time></trkpt><trkpt lat="42.61381640813252" lon="0.7659095106622142"><ele>1548.6000000000001</ele><time>2026-04-27T16:54:12Z</time></trkpt><trkpt lat="42.613906616550615" lon="0.7658930047204591"><ele>1549.2</ele><time>2026-04-27T16:54:13Z</time></trkpt><trkpt lat="42.61399329594096" lon="0.7658708097599449"><ele>1549.8</ele><time>2026-04-27T16:54:14Z</time></trkpt><trkpt lat="42.61407963536605" lon="0.765846621459937"><ele>1550.4</ele><time>2026-04-27T16:54:15Z</time></trkpt><trkpt lat="42.614169325545966" lon="0.7658211385811624"><ele>1551.0</ele><time>2026-04-27T16:54:16Z</time></trkpt><trkpt lat="42.61425943224605" lon="0.765801138692041"><ele>1551.0</ele><time>2026-04-27T16:54:17Z</time></trkpt><trkpt lat="42.61434806857259" lon="0.7657811248118576"><ele>1551.0</ele><time>2026-04-27T16:54:18Z</time></trkpt><trkpt lat="42.6144351193004" lon="0.7657635089341008"><ele>1551.0</ele><time>2026-04-27T16:54:19Z</time></trkpt><trkpt lat="42.61452087483556" lon="0.7657396644170336"><ele>1551.0</ele><time>2026-04-27T16:54:20Z</time></trkpt><trkpt lat="42.61460563873618" lon="0.7657148228999665"><ele>1551.0</ele><time>2026-04-27T16:54:21Z</time></trkpt><trkpt lat="42.61469277307269" lon="0.7656907023041475"><ele>1551.0</ele><time>2026-04-27T16:54:22Z</time></trkpt><trkpt lat="42.61478294143042" lon="0.7656658601424394"><ele>1551.8</ele><time>2026-04-27T16:54:23Z</time></trkpt><trkpt lat="42.61487444950931" lon="0.7656431662465498"><ele>1552.6</ele><time>2026-04-27T16:54:24Z</time></trkpt><trkpt lat="42.61496373248303" lon="0.7656193152230646"><ele>1553.4</ele><time>2026-04-27T16:54:25Z</time></trkpt><trkpt lat="42.6150554995632" lon="0.7655915032015876"><ele>1554.2</ele><time>2026-04-27T16:54:26Z</time></trkpt><trkpt lat="42.61514782337743" lon="0.7655638559924636"><ele>1555.0</ele><time>2026-04-27T16:54:27Z</time></trkpt><trkpt lat="42.61523420346761" lon="0.7655327685975107"><ele>1555.2</ele><time>2026-04-27T16:54:28Z</time></trkpt><trkpt lat="42.615323961028906" lon="0.765502129063183"><ele>1555.4</ele><time>2026-04-27T16:54:29Z</time></trkpt><trkpt lat="42.615412461452784" lon="0.7654673369608597"><ele>1555.6</ele><time>2026-04-27T16:54:30Z</time></trkpt><trkpt lat="42.615502639249485" lon="0.7654289231833202"><ele>1555.8</ele><time>2026-04-27T16:54:31Z</time></trkpt><trkpt lat="42.61559152797547" lon="0.7653915558435255"><ele>1556.0</ele><time>2026-04-27T16:54:32Z</time></trkpt><trkpt lat="42.615678632892674" lon="0.7653502357982768"><ele>1556.0</ele><time>2026-04-27T16:54:33Z</time></trkpt><trkpt lat="42.61576818820028" lon="0.7653103886710684"><ele>1556.0</ele><time>2026-04-27T16:54:34Z</time></trkpt><trkpt lat="42.61585512023618" lon="0.7652646341446542"><ele>1556.0</ele><time>2026-04-27T16:54:35Z</time></trkpt><trkpt lat="42.61594550445965" lon="0.7652260149585586"><ele>1556.0</ele><time>2026-04-27T16:54:36Z</time></trkpt><trkpt lat="42.61603599503983" lon="0.7651814047297988"><ele>1556.0</ele><time>2026-04-27T16:54:37Z</time></trkpt><trkpt lat="42.61612565222447" lon="0.7651379481043478"><ele>1556.0</ele><time>2026-04-27T16:54:38Z</time></trkpt><trkpt lat="42.616216938028145" lon="0.7650953601648645"><ele>1556.0</ele><time>2026-04-27T16:54:39Z</time></trkpt><trkpt lat="42.61630635127961" lon="0.765048513871593"><ele>1556.0</ele><time>2026-04-27T16:54:40Z</time></trkpt><trkpt lat="42.616392863215076" lon="0.7650033686577931"><ele>1556.0</ele><time>2026-04-27T16:54:41Z</time></trkpt><trkpt lat="42.61648497631785" lon="0.7649669354870602"><ele>1556.0</ele><time>2026-04-27T16:54:42Z</time></trkpt><trkpt lat="42.6165769187272" lon="0.7649257417005113"><ele>1556.0</ele><time>2026-04-27T16:54:43Z</time></trkpt><trkpt lat="42.61666973416196" lon="0.7648858570556475"><ele>1556.0</ele><time>2026-04-27T16:54:44Z</time></trkpt><trkpt lat="42.61676224966775" lon="0.7648449992244258"><ele>1556.0</ele><time>2026-04-27T16:54:45Z</time></trkpt><trkpt lat="42.61685643719982" lon="0.7648149445948497"><ele>1556.0</ele><time>2026-04-27T16:54:46Z</time></trkpt><trkpt lat="42.61695248169319" lon="0.7647884142908803"><ele>1556.0</ele><time>2026-04-27T16:54:47Z</time></trkpt><trkpt lat="42.617047246723914" lon="0.764764270434069"><ele>1556.4</ele><time>2026-04-27T16:54:48Z</time></trkpt><trkpt lat="42.61714413347163" lon="0.7647414838241599"><ele>1556.8</ele><time>2026-04-27T16:54:49Z</time></trkpt><trkpt lat="42.617240637919984" lon="0.7647262691968928"><ele>1557.2</ele><time>2026-04-27T16:54:50Z</time></trkpt><trkpt lat="42.61733939179914" lon="0.7647163238657474"><ele>1557.6000000000001</ele><time>2026-04-27T16:54:51Z</time></trkpt><trkpt lat="42.61743678438358" lon="0.7647129938109679"><ele>1558.0</ele><time>2026-04-27T16:54:52Z</time></trkpt><trkpt lat="42.61753249900789" lon="0.7647134450767297"><ele>1558.0</ele><time>2026-04-27T16:54:53Z</time></trkpt><trkpt lat="42.61763071119993" lon="0.7647194926090306"><ele>1558.0</ele><time>2026-04-27T16:54:54Z</time></trkpt><trkpt lat="42.617727685892156" lon="0.7647281125655739"><ele>1558.0</ele><time>2026-04-27T16:54:55Z</time></trkpt><trkpt lat="42.61782253703612" lon="0.7647328946827338"><ele>1558.0</ele><time>2026-04-27T16:54:56Z</time></trkpt><trkpt lat="42.61792042694124" lon="0.7647409484678093"><ele>1558.0</ele><time>2026-04-27T16:54:57Z</time></trkpt><trkpt lat="42.61801787703979" lon="0.7647501102531323"><ele>1558.6000000000001</ele><time>2026-04-27T16:54:58Z</time></trkpt><trkpt lat="42.61811634970737" lon="0.7647603622900586"><ele>1559.2</ele><time>2026-04-27T16:54:59Z</time></trkpt><trkpt lat="42.61821474214568" lon="0.7647711529941738"><ele>1559.8</ele><time>2026-04-27T16:55:00Z</time></trkpt><trkpt lat="42.6183122277316" lon="0.7647815297303564"><ele>1560.4</ele><time>2026-04-27T16:55:01Z</time></trkpt><trkpt lat="42.61840825430863" lon="0.7647908475117434"><ele>1561.0</ele><time>2026-04-27T16:55:02Z</time></trkpt><trkpt lat="42.61850565467111" lon="0.7648011222050315"><ele>1561.0</ele><time>2026-04-27T16:55:03Z</time></trkpt><trkpt lat="42.61860538143433" lon="0.7648126933107198"><ele>1561.0</ele><time>2026-04-27T16:55:04Z</time></trkpt><trkpt lat="42.61870550331958" lon="0.7648226719428469"><ele>1561.0</ele><time>2026-04-27T16:55:05Z</time></trkpt><trkpt lat="42.618804222160584" lon="0.7648325405366714"><ele>1561.0</ele><time>2026-04-27T16:55:06Z</time></trkpt><trkpt lat="42.61890189571557" lon="0.7648427853033697"><ele>1561.0</ele><time>2026-04-27T16:55:07Z</time></trkpt><trkpt lat="42.619000494112505" lon="0.7648544061037196"><ele>1562.1999999999998</ele><time>2026-04-27T16:55:08Z</time></trkpt><trkpt lat="42.61909514809886" lon="0.764863545990634"><ele>1563.3999999999999</ele><time>2026-04-27T16:55:09Z</time></trkpt><trkpt lat="42.61918804657985" lon="0.764871132803487"><ele>1564.6</ele><time>2026-04-27T16:55:10Z</time></trkpt><trkpt lat="42.61927977448046" lon="0.7648795838894724"><ele>1565.8</ele><time>2026-04-27T16:55:11Z</time></trkpt><trkpt lat="42.619370304052374" lon="0.7648867312657998"><ele>1567.0</ele><time>2026-04-27T16:55:12Z</time></trkpt><trkpt lat="42.6194583557571" lon="0.7648959759245744"><ele>1566.8333333333335</ele><time>2026-04-27T16:55:13Z</time></trkpt><trkpt lat="42.61954536687918" lon="0.764906234422086"><ele>1566.6666666666667</ele><time>2026-04-27T16:55:14Z</time></trkpt><trkpt lat="42.61963122898077" lon="0.7649131229438323"><ele>1566.5</ele><time>2026-04-27T16:55:15Z</time></trkpt><trkpt lat="42.61971567294697" lon="0.7649190374015473"><ele>1566.3333333333335</ele><time>2026-04-27T16:55:16Z</time></trkpt><trkpt lat="42.61980092724834" lon="0.764929084303329"><ele>1566.1666666666667</ele><time>2026-04-27T16:55:17Z</time></trkpt><trkpt lat="42.61988361971123" lon="0.7649403974470841"><ele>1566.0</ele><time>2026-04-27T16:55:18Z</time></trkpt><trkpt lat="42.61996655417133" lon="0.7649483889333657"><ele>1566.0</ele><time>2026-04-27T16:55:19Z</time></trkpt><trkpt lat="42.62004826975508" lon="0.7649573183743095"><ele>1566.0</ele><time>2026-04-27T16:55:20Z</time></trkpt><trkpt lat="42.62012969132907" lon="0.7649658267939099"><ele>1566.0</ele><time>2026-04-27T16:55:21Z</time></trkpt><trkpt lat="42.620211250458595" lon="0.7649735526854571"><ele>1566.0</ele><time>2026-04-27T16:55:22Z</time></trkpt><trkpt lat="42.62029022520388" lon="0.764984192649573"><ele>1566.0</ele><time>2026-04-27T16:55:23Z</time></trkpt><trkpt lat="42.62036869212961" lon="0.7649968055654892"><ele>1566.0</ele><time>2026-04-27T16:55:24Z</time></trkpt><trkpt lat="42.62044619908416" lon="0.7650126215455523"><ele>1567.1666666666667</ele><time>2026-04-27T16:55:25Z</time></trkpt><trkpt lat="42.62052498588415" lon="0.7650307026189984"><ele>1568.3333333333335</ele><time>2026-04-27T16:55:26Z</time></trkpt><trkpt lat="42.62060359188593" lon="0.7650475150782605"><ele>1569.5</ele><time>2026-04-27T16:55:27Z</time></trkpt><trkpt lat="42.620682413998416" lon="0.7650630591692493"><ele>1570.6666666666667</ele><time>2026-04-27T16:55:28Z</time></trkpt><trkpt lat="42.62076076035554" lon="0.7650774000603225"><ele>1571.8333333333335</ele><time>2026-04-27T16:55:29Z</time></trkpt><trkpt lat="42.62083806361482" lon="0.765093657485928"><ele>1573.0</ele><time>2026-04-27T16:55:30Z</time></trkpt><trkpt lat="42.620913274327876" lon="0.7651082736973971"><ele>1573.0000000000002</ele><time>2026-04-27T16:55:31Z</time></trkpt><trkpt lat="42.6209904899873" lon="0.7651244613408045"><ele>1573.0</ele><time>2026-04-27T16:55:32Z</time></trkpt><trkpt lat="42.62106753337663" lon="0.7651375647310077"><ele>1573.0</ele><time>2026-04-27T16:55:33Z</time></trkpt><trkpt lat="42.62114446243755" lon="0.7651482803116777"><ele>1573.0</ele><time>2026-04-27T16:55:34Z</time></trkpt><trkpt lat="42.62122049215361" lon="0.7651603869117337"><ele>1573.0000000000002</ele><time>2026-04-27T16:55:35Z</time></trkpt><trkpt lat="42.62129774876322" lon="0.7651746525009"><ele>1573.0</ele><time>2026-04-27T16:55:36Z</time></trkpt><trkpt lat="42.62137441996922" lon="0.7651889963451138"><ele>1574.142857142857</ele><time>2026-04-27T16:55:37Z</time></trkpt><trkpt lat="42.62145166844964" lon="0.7652003942024986"><ele>1575.2857142857144</ele><time>2026-04-27T16:55:38Z</time></trkpt><trkpt lat="42.62152763544757" lon="0.765207440783944"><ele>1576.4285714285716</ele><time>2026-04-27T16:55:39Z</time></trkpt><trkpt lat="42.62160224623346" lon="0.7652131755887313"><ele>1577.5714285714284</ele><time>2026-04-27T16:55:40Z</time></trkpt><trkpt lat="42.62167601920157" lon="0.7652196409369952"><ele>1578.7142857142858</ele><time>2026-04-27T16:55:41Z</time></trkpt><trkpt lat="42.62174989874562" lon="0.7652268596549894"><ele>1579.857142857143</ele><time>2026-04-27T16:55:42Z</time></trkpt><trkpt lat="42.62182172524326" lon="0.7652288803805226"><ele>1581.0</ele><time>2026-04-27T16:55:43Z</time></trkpt><trkpt lat="42.621886392226926" lon="0.7652318860475553"><ele>1582.5</ele><time>2026-04-27T16:55:44Z</time></trkpt><trkpt lat="42.6219959181403" lon="0.7652372235714958"><ele>1584.0</ele><time>2026-04-27T16:55:46Z</time></trkpt><trkpt lat="42.62205997896047" lon="0.7652415640280656"><ele>1585.5</ele><time>2026-04-27T16:55:48Z</time></trkpt><trkpt lat="42.62212616652889" lon="0.7652475895784028"><ele>1587.0</ele><time>2026-04-27T17:04:23Z</time></trkpt><trkpt lat="42.62221947134792" lon="0.7652419819112124"><ele>1588.5</ele><time>2026-04-27T17:04:26Z</time></trkpt><trkpt lat="42.622306536940684" lon="0.7652252851249495"><ele>1590.0</ele><time>2026-04-27T17:04:28Z</time></trkpt><trkpt lat="42.62241685859563" lon="0.7652080921536474"><ele>1589.5</ele><time>2026-04-27T17:04:30Z</time></trkpt><trkpt lat="42.62253618933486" lon="0.7651821771406502"><ele>1589.0</ele><time>2026-04-27T17:04:32Z</time></trkpt><trkpt lat="42.62260068997687" lon="0.765165910127487"><ele>1588.5</ele><time>2026-04-27T17:04:33Z</time></trkpt><trkpt lat="42.62266447221257" lon="0.7651520384408057"><ele>1588.0</ele><time>2026-04-27T17:04:34Z</time></trkpt><trkpt lat="42.62273093921985" lon="0.7651331915655323"><ele>1587.5</ele><time>2026-04-27T17:04:35Z</time></trkpt><trkpt lat="42.62279875844399" lon="0.7651109645511851"><ele>1587.0</ele><time>2026-04-27T17:04:36Z</time></trkpt><trkpt lat="42.62286845999598" lon="0.7650867818485911"><ele>1587.0</ele><time>2026-04-27T17:04:37Z</time></trkpt><trkpt lat="42.62293705492093" lon="0.7650641803858318"><ele>1587.0</ele><time>2026-04-27T17:04:38Z</time></trkpt><trkpt lat="42.6230080310262" lon="0.7650413125345814"><ele>1587.0</ele><time>2026-04-27T17:04:39Z</time></trkpt><trkpt lat="42.62307909800056" lon="0.7650209704125247"><ele>1587.0</ele><time>2026-04-27T17:04:40Z</time></trkpt><trkpt lat="42.623152969270656" lon="0.7649992626853862"><ele>1587.0</ele><time>2026-04-27T17:04:41Z</time></trkpt><trkpt lat="42.623226393966334" lon="0.764982251695759"><ele>1587.0</ele><time>2026-04-27T17:04:42Z</time></trkpt><trkpt lat="42.62329857747404" lon="0.7649616121928403"><ele>1587.0</ele><time>2026-04-27T17:04:43Z</time></trkpt><trkpt lat="42.62337885598299" lon="0.7649439022764418"><ele>1587.0</ele><time>2026-04-27T17:04:44Z</time></trkpt><trkpt lat="42.62346174550136" lon="0.7649259626151615"><ele>1587.0</ele><time>2026-04-27T17:04:45Z</time></trkpt><trkpt lat="42.62354289105628" lon="0.7649115587808168"><ele>1587.0</ele><time>2026-04-27T17:04:46Z</time></trkpt><trkpt lat="42.623622071093315" lon="0.7648940080006754"><ele>1587.0</ele><time>2026-04-27T17:04:47Z</time></trkpt><trkpt lat="42.62370542493511" lon="0.7648725392508352"><ele>1587.0</ele><time>2026-04-27T17:04:48Z</time></trkpt><trkpt lat="42.6237822520624" lon="0.7648518961357036"><ele>1587.0</ele><time>2026-04-27T17:04:49Z</time></trkpt><trkpt lat="42.62384897712662" lon="0.7648328770013523"><ele>1588.6666666666667</ele><time>2026-04-27T17:04:50Z</time></trkpt><trkpt lat="42.623910862479455" lon="0.7648137572633864"><ele>1590.3333333333335</ele><time>2026-04-27T17:04:51Z</time></trkpt><trkpt lat="42.6240141958542" lon="0.7647907896548216"><ele>1592.0</ele><time>2026-04-27T17:04:53Z</time></trkpt><trkpt lat="42.62408253391728" lon="0.7647744005520803"><ele>1593.6666666666667</ele><time>2026-04-27T17:04:55Z</time></trkpt><trkpt lat="42.62416154492042" lon="0.7647674420437679"><ele>1595.3333333333335</ele><time>2026-04-27T17:07:55Z</time></trkpt><trkpt lat="42.624246211788545" lon="0.7647563849360947"><ele>1597.0</ele><time>2026-04-27T17:07:57Z</time></trkpt><trkpt lat="42.62436110954596" lon="0.7647197301968869"><ele>1597.0000000000002</ele><time>2026-04-27T17:07:59Z</time></trkpt><trkpt lat="42.62442743061037" lon="0.7647056745032844"><ele>1597.0</ele><time>2026-04-27T17:08:00Z</time></trkpt><trkpt lat="42.62449779251852" lon="0.7646909605879764"><ele>1597.0</ele><time>2026-04-27T17:08:01Z</time></trkpt><trkpt lat="42.624571877079404" lon="0.7646736037747428"><ele>1597.0</ele><time>2026-04-27T17:08:02Z</time></trkpt><trkpt lat="42.6246491838631" lon="0.764656471860667"><ele>1597.0000000000002</ele><time>2026-04-27T17:08:03Z</time></trkpt><trkpt lat="42.62472815791633" lon="0.7646370427110574"><ele>1597.0</ele><time>2026-04-27T17:08:04Z</time></trkpt><trkpt lat="42.62481206909858" lon="0.7646324951357839"><ele>1598.3333333333335</ele><time>2026-04-27T17:08:05Z</time></trkpt><trkpt lat="42.62489544117214" lon="0.7646313518874394"><ele>1599.6666666666667</ele><time>2026-04-27T17:08:06Z</time></trkpt><trkpt lat="42.62498237783268" lon="0.7646359193193945"><ele>1601.0</ele><time>2026-04-27T17:08:07Z</time></trkpt><trkpt lat="42.625063817826955" lon="0.7646301866780272"><ele>1602.3333333333335</ele><time>2026-04-27T17:08:08.013Z</time></trkpt><trkpt lat="42.62514773199143" lon="0.7646290221233234"><ele>1603.6666666666667</ele><time>2026-04-27T17:08:09.014Z</time></trkpt><trkpt lat="42.62523239181832" lon="0.7646264891788017"><ele>1605.0</ele><time>2026-04-27T17:08:10.014Z</time></trkpt><trkpt lat="42.62531787199952" lon="0.7646223728753626"><ele>1609.5</ele><time>2026-04-27T17:08:11.016Z</time></trkpt><trkpt lat="42.625402565922016" lon="0.764621455852726"><ele>1614.0</ele><time>2026-04-27T17:08:12.019Z</time></trkpt><trkpt lat="42.67096531320307" lon="0.7785128079264326"><ele>1561.0</ele><time>2026-04-27T17:14:44.002Z</time></trkpt><trkpt lat="42.67108394998308" lon="0.7784756642200273"><ele>1508.0</ele><time>2026-04-27T17:14:45.002Z</time></trkpt><trkpt lat="42.671198442633276" lon="0.7784156946663597"><ele>1455.0</ele><time>2026-04-27T17:14:46.002Z</time></trkpt><trkpt lat="42.67131675633288" lon="0.7784260038787111"><ele>1402.0</ele><time>2026-04-27T17:14:47.002Z</time></trkpt><trkpt lat="42.67142943471748" lon="0.7783840521011961"><ele>1397.0</ele><time>2026-04-27T17:14:48.001Z</time></trkpt><trkpt lat="42.67154148676367" lon="0.7783338114419062"><ele>1392.0</ele><time>2026-04-27T17:14:49.001Z</time></trkpt><trkpt lat="42.671648509070614" lon="0.7782804714184373"><ele>1387.0</ele><time>2026-04-27T17:14:50.001Z</time></trkpt><trkpt lat="42.67175905765045" lon="0.7782163083441951"><ele>1382.0</ele><time>2026-04-27T17:14:51.001Z</time></trkpt><trkpt lat="42.67186252200239" lon="0.7781441778341421"><ele>1377.5</ele><time>2026-04-27T17:14:52Z</time></trkpt><trkpt lat="42.67197330349851" lon="0.7780703064712946"><ele>1373.0</ele><time>2026-04-27T17:14:53Z</time></trkpt><trkpt lat="42.67207405370206" lon="0.7779894940628553"><ele>1368.5</ele><time>2026-04-27T17:14:54Z</time></trkpt><trkpt lat="42.67217600497557" lon="0.7779006473843235"><ele>1364.0</ele><time>2026-04-27T17:14:55Z</time></trkpt><trkpt lat="42.67227771548385" lon="0.7778016688839171"><ele>1364.0</ele><time>2026-04-27T17:14:56Z</time></trkpt><trkpt lat="42.672376278563426" lon="0.7777060402152985"><ele>1364.0</ele><time>2026-04-27T17:14:57Z</time></trkpt><trkpt lat="42.672469153856724" lon="0.7775994901140901"><ele>1364.0</ele><time>2026-04-27T17:14:58Z</time></trkpt><trkpt lat="42.67255353525704" lon="0.7774853679658623"><ele>1364.0</ele><time>2026-04-27T17:14:59Z</time></trkpt><trkpt lat="42.67263967726669" lon="0.7773869461961613"><ele>1363.5</ele><time>2026-04-27T17:15:00Z</time></trkpt><trkpt lat="42.67272008470904" lon="0.7772758844999135"><ele>1363.0</ele><time>2026-04-27T17:15:01Z</time></trkpt><trkpt lat="42.67279586379811" lon="0.7771665871981789"><ele>1362.5</ele><time>2026-04-27T17:15:02Z</time></trkpt><trkpt lat="42.67287025991863" lon="0.7770503040722518"><ele>1362.0</ele><time>2026-04-27T17:15:03Z</time></trkpt><trkpt lat="42.672941706549416" lon="0.7769345263038706"><ele>1364.8</ele><time>2026-04-27T17:15:04Z</time></trkpt><trkpt lat="42.673006743045946" lon="0.7768135905398496"><ele>1367.6</ele><time>2026-04-27T17:15:05Z</time></trkpt><trkpt lat="42.673073395153814" lon="0.7766927956448467"><ele>1370.3999999999999</ele><time>2026-04-27T17:15:06Z</time></trkpt><trkpt lat="42.67313889092728" lon="0.776569716293515"><ele>1373.1999999999998</ele><time>2026-04-27T17:15:07Z</time></trkpt><trkpt lat="42.673206008832864" lon="0.776444638992975"><ele>1376.0</ele><time>2026-04-27T17:15:08Z</time></trkpt><trkpt lat="42.67326709427696" lon="0.7763186263179466"><ele>1376.0</ele><time>2026-04-27T17:15:09Z</time></trkpt><trkpt lat="42.67333187522398" lon="0.776154704880203"><ele>1376.0</ele><time>2026-04-27T17:15:10Z</time></trkpt><trkpt lat="42.67339325959308" lon="0.7760246271830328"><ele>1376.0</ele><time>2026-04-27T17:15:11Z</time></trkpt><trkpt lat="42.67346636883055" lon="0.7758947424236248"><ele>1376.0</ele><time>2026-04-27T17:15:12Z</time></trkpt><trkpt lat="42.67352991132074" lon="0.7757743321102215"><ele>1378.0</ele><time>2026-04-27T17:15:13Z</time></trkpt><trkpt lat="42.673594564157895" lon="0.775657605290494"><ele>1380.0</ele><time>2026-04-27T17:15:14Z</time></trkpt><trkpt lat="42.6736627476963" lon="0.7755418279146941"><ele>1382.0</ele><time>2026-04-27T17:15:15Z</time></trkpt><trkpt lat="42.67372358834152" lon="0.7754282049753239"><ele>1384.0</ele><time>2026-04-27T17:15:16Z</time></trkpt><trkpt lat="42.67378832756414" lon="0.7753234680783533"><ele>1386.0</ele><time>2026-04-27T17:15:17Z</time></trkpt><trkpt lat="42.673855720383486" lon="0.7752283311144103"><ele>1383.8</ele><time>2026-04-27T17:15:18Z</time></trkpt><trkpt lat="42.67392291176037" lon="0.7751336949172241"><ele>1381.6</ele><time>2026-04-27T17:15:19Z</time></trkpt><trkpt lat="42.67398928086325" lon="0.775040167732465"><ele>1379.4</ele><time>2026-04-27T17:15:20Z</time></trkpt><trkpt lat="42.67405618775393" lon="0.7749610506193374"><ele>1377.2</ele><time>2026-04-27T17:15:21Z</time></trkpt><trkpt lat="42.67411959932725" lon="0.7748756832588145"><ele>1375.0</ele><time>2026-04-27T17:15:22Z</time></trkpt><trkpt lat="42.67418107873255" lon="0.7747959140761673"><ele>1375.0</ele><time>2026-04-27T17:15:23Z</time></trkpt><trkpt lat="42.674232565071534" lon="0.7747212820735051"><ele>1375.0</ele><time>2026-04-27T17:15:24Z</time></trkpt><trkpt lat="42.6742815043601" lon="0.7746411377825411"><ele>1375.0</ele><time>2026-04-27T17:15:25Z</time></trkpt><trkpt lat="42.67432658425212" lon="0.774568017723166"><ele>1375.0</ele><time>2026-04-27T17:15:26Z</time></trkpt><trkpt lat="42.67438905493104" lon="0.7744491314037433"><ele>1375.0</ele><time>2026-04-27T17:15:28Z</time></trkpt><trkpt lat="42.674425825236" lon="0.774363295998687"><ele>1375.0</ele><time>2026-04-27T17:15:30Z</time></trkpt><trkpt lat="42.674457918763444" lon="0.7742698770822124"><ele>1371.8333333333333</ele><time>2026-04-27T17:15:33Z</time></trkpt><trkpt lat="42.674489683565554" lon="0.7741653679410978"><ele>1368.6666666666665</ele><time>2026-04-27T17:15:36Z</time></trkpt><trkpt lat="42.674514435381894" lon="0.7740598565269079"><ele>1365.5</ele><time>2026-04-27T17:15:39Z</time></trkpt><trkpt lat="42.67454656874565" lon="0.7739433322729798"><ele>1362.3333333333333</ele><time>2026-04-27T17:15:42Z</time></trkpt><trkpt lat="42.67457525451482" lon="0.7738517216019164"><ele>1359.1666666666667</ele><time>2026-04-27T17:15:44Z</time></trkpt><trkpt lat="42.67459023072635" lon="0.7737197279407706"><ele>1356.0</ele><time>2026-04-27T17:15:46Z</time></trkpt><trkpt lat="42.67461239587864" lon="0.7735540762581047"><ele>1356.3333333333333</ele><time>2026-04-27T17:15:48Z</time></trkpt><trkpt lat="42.67461955058239" lon="0.7734578559309467"><ele>1356.6666666666667</ele><time>2026-04-27T17:15:49Z</time></trkpt><trkpt lat="42.67462258337245" lon="0.7733484370054201"><ele>1357.0</ele><time>2026-04-27T17:15:50Z</time></trkpt><trkpt lat="42.67462098059808" lon="0.7732280366500356"><ele>1357.3333333333335</ele><time>2026-04-27T17:15:51Z</time></trkpt><trkpt lat="42.674619848593395" lon="0.7731059763092658"><ele>1357.6666666666667</ele><time>2026-04-27T17:15:52Z</time></trkpt><trkpt lat="42.67462163938185" lon="0.7729785140287082"><ele>1358.0</ele><time>2026-04-27T17:15:53Z</time></trkpt><trkpt lat="42.67462060284975" lon="0.7728462939994069"><ele>1358.0</ele><time>2026-04-27T17:15:54Z</time></trkpt><trkpt lat="42.67462519644571" lon="0.7727108187095532"><ele>1358.0</ele><time>2026-04-27T17:15:55Z</time></trkpt><trkpt lat="42.674633200089644" lon="0.772578013357751"><ele>1358.0</ele><time>2026-04-27T17:15:56Z</time></trkpt><trkpt lat="42.67464976127279" lon="0.7724458324587037"><ele>1358.0</ele><time>2026-04-27T17:15:57Z</time></trkpt><trkpt lat="42.674675725381704" lon="0.7723130945279166"><ele>1358.0</ele><time>2026-04-27T17:15:58Z</time></trkpt><trkpt lat="42.674709893966934" lon="0.7721868731827619"><ele>1358.4</ele><time>2026-04-27T17:15:59Z</time></trkpt><trkpt lat="42.674751341856776" lon="0.7720555168914365"><ele>1358.8000000000002</ele><time>2026-04-27T17:16:00Z</time></trkpt><trkpt lat="42.674798739317716" lon="0.7719264248979435"><ele>1359.2</ele><time>2026-04-27T17:16:01Z</time></trkpt><trkpt lat="42.6748541790899" lon="0.7718031362870643"><ele>1359.6</ele><time>2026-04-27T17:16:02Z</time></trkpt><trkpt lat="42.67491102773429" lon="0.771676268251446"><ele>1360.0</ele><time>2026-04-27T17:16:03Z</time></trkpt><trkpt lat="42.67496926381255" lon="0.7715459084513702"><ele>1360.0</ele><time>2026-04-27T17:16:04Z</time></trkpt><trkpt lat="42.67502690206818" lon="0.7714088994036649"><ele>1360.0</ele><time>2026-04-27T17:16:05Z</time></trkpt><trkpt lat="42.67508073952451" lon="0.7712739315261313"><ele>1360.0</ele><time>2026-04-27T17:16:06Z</time></trkpt><trkpt lat="42.675130928925924" lon="0.7711346373704985"><ele>1360.0</ele><time>2026-04-27T17:16:07Z</time></trkpt><trkpt lat="42.6751739836007" lon="0.7709897850787965"><ele>1359.75</ele><time>2026-04-27T17:16:08Z</time></trkpt><trkpt lat="42.67521133865534" lon="0.7708380756446742"><ele>1359.5</ele><time>2026-04-27T17:16:09Z</time></trkpt><trkpt lat="42.67524125926458" lon="0.7706847140682435"><ele>1359.25</ele><time>2026-04-27T17:16:10Z</time></trkpt><trkpt lat="42.67526075701844" lon="0.7705298274444901"><ele>1359.0</ele><time>2026-04-27T17:16:11Z</time></trkpt><trkpt lat="42.67527520460466" lon="0.7703745654894061"><ele>1355.8000000000002</ele><time>2026-04-27T17:16:12Z</time></trkpt><trkpt lat="42.6752874040171" lon="0.7702307229200651"><ele>1352.6000000000001</ele><time>2026-04-27T17:16:13Z</time></trkpt><trkpt lat="42.675291543734346" lon="0.7700857928200179"><ele>1349.4</ele><time>2026-04-27T17:16:14Z</time></trkpt><trkpt lat="42.67528858808204" lon="0.769933568373049"><ele>1346.2</ele><time>2026-04-27T17:16:15Z</time></trkpt><trkpt lat="42.67528978019115" lon="0.7697876953224725"><ele>1343.0</ele><time>2026-04-27T17:16:16Z</time></trkpt><trkpt lat="42.675302244795" lon="0.7696505711637743"><ele>1343.0</ele><time>2026-04-27T17:16:17Z</time></trkpt><trkpt lat="42.67532888569271" lon="0.769516474893473"><ele>1343.0</ele><time>2026-04-27T17:16:18Z</time></trkpt><trkpt lat="42.67536853670282" lon="0.7693866195660819"><ele>1343.0</ele><time>2026-04-27T17:16:19Z</time></trkpt><trkpt lat="42.675417646266176" lon="0.7692712503367444"><ele>1343.0</ele><time>2026-04-27T17:16:20Z</time></trkpt><trkpt lat="42.67548715367412" lon="0.7691748225143921"><ele>1343.0</ele><time>2026-04-27T17:16:21Z</time></trkpt><trkpt lat="42.67556970732109" lon="0.7691049308464766"><ele>1344.2</ele><time>2026-04-27T17:16:22Z</time></trkpt><trkpt lat="42.67566562444001" lon="0.7690621079587019"><ele>1345.4</ele><time>2026-04-27T17:16:23Z</time></trkpt><trkpt lat="42.675766303366856" lon="0.7690408204490685"><ele>1346.6000000000001</ele><time>2026-04-27T17:16:24Z</time></trkpt><trkpt lat="42.67587911705491" lon="0.7690400339203123"><ele>1347.8000000000002</ele><time>2026-04-27T17:16:25Z</time></trkpt><trkpt lat="42.67597932981764" lon="0.7690715619505265"><ele>1349.0</ele><time>2026-04-27T17:16:26Z</time></trkpt><trkpt lat="42.67607769753114" lon="0.7691272532432177"><ele>1351.2</ele><time>2026-04-27T17:16:27Z</time></trkpt><trkpt lat="42.67616750536442" lon="0.7692089843881701"><ele>1353.4</ele><time>2026-04-27T17:16:28Z</time></trkpt><trkpt lat="42.676241643666664" lon="0.7693226071226562"><ele>1355.6</ele><time>2026-04-27T17:16:29Z</time></trkpt><trkpt lat="42.67629867848305" lon="0.7694492082171968"><ele>1357.8</ele><time>2026-04-27T17:16:30Z</time></trkpt><trkpt lat="42.676326446263474" lon="0.769599462772607"><ele>1360.0</ele><time>2026-04-27T17:16:31Z</time></trkpt><trkpt lat="42.67633962144647" lon="0.7697385342886663"><ele>1360.0</ele><time>2026-04-27T17:16:32Z</time></trkpt><trkpt lat="42.676333062667574" lon="0.7698668283282147"><ele>1360.0</ele><time>2026-04-27T17:16:33Z</time></trkpt><trkpt lat="42.676330718133904" lon="0.7699813325270228"><ele>1360.0</ele><time>2026-04-27T17:16:34Z</time></trkpt><trkpt lat="42.67633701168849" lon="0.7700969773487186"><ele>1360.0</ele><time>2026-04-27T17:16:35Z</time></trkpt><trkpt lat="42.67635269781774" lon="0.7702526811030238"><ele>1360.0</ele><time>2026-04-27T17:16:36Z</time></trkpt><trkpt lat="42.67636499249446" lon="0.7704226812889872"><ele>1358.75</ele><time>2026-04-27T17:16:37Z</time></trkpt><trkpt lat="42.676401943143226" lon="0.7706199977404514"><ele>1357.5</ele><time>2026-04-27T17:16:38Z</time></trkpt><trkpt lat="42.67637405174902" lon="0.7707734393729022"><ele>1356.25</ele><time>2026-04-27T17:16:39Z</time></trkpt><trkpt lat="42.67637737661299" lon="0.770939763050412"><ele>1355.0</ele><time>2026-04-27T17:16:40Z</time></trkpt><trkpt lat="42.67638676737331" lon="0.7710892682348193"><ele>1353.25</ele><time>2026-04-27T17:16:41Z</time></trkpt><trkpt lat="42.676395693683155" lon="0.7712405805519281"><ele>1351.5</ele><time>2026-04-27T17:16:42Z</time></trkpt><trkpt lat="42.67639691703901" lon="0.7713921563487185"><ele>1349.75</ele><time>2026-04-27T17:16:43Z</time></trkpt><trkpt lat="42.676389742721646" lon="0.7715436009425128"><ele>1348.0</ele><time>2026-04-27T17:16:44Z</time></trkpt><trkpt lat="42.67637654717054" lon="0.7717030056859979"><ele>1346.0</ele><time>2026-04-27T17:16:45Z</time></trkpt><trkpt lat="42.676361839072136" lon="0.771860373189879"><ele>1344.0</ele><time>2026-04-27T17:16:46Z</time></trkpt><trkpt lat="42.676348286682696" lon="0.7720137217293229"><ele>1342.0</ele><time>2026-04-27T17:16:47Z</time></trkpt><trkpt lat="42.67635402704731" lon="0.7721669960451872"><ele>1340.0</ele><time>2026-04-27T17:16:48Z</time></trkpt><trkpt lat="42.67637590700193" lon="0.7723180932770637"><ele>1340.0</ele><time>2026-04-27T17:16:49Z</time></trkpt><trkpt lat="42.67640637512837" lon="0.7724777724479469"><ele>1340.0</ele><time>2026-04-27T17:16:50Z</time></trkpt><trkpt lat="42.6764357183414" lon="0.7726429086069422"><ele>1340.0</ele><time>2026-04-27T17:16:51Z</time></trkpt><trkpt lat="42.676412390272986" lon="0.7728524269011877"><ele>1340.0</ele><time>2026-04-27T17:16:52Z</time></trkpt><trkpt lat="42.67640527874895" lon="0.7730695620614074"><ele>1338.25</ele><time>2026-04-27T17:16:53Z</time></trkpt><trkpt lat="42.67652452715594" lon="0.7731122542338702"><ele>1336.5</ele><time>2026-04-27T17:16:54Z</time></trkpt><trkpt lat="42.676561351642555" lon="0.7732732535911161"><ele>1334.75</ele><time>2026-04-27T17:16:55Z</time></trkpt><trkpt lat="42.67660906325255" lon="0.7734312443928306"><ele>1333.0</ele><time>2026-04-27T17:16:56Z</time></trkpt><trkpt lat="42.676658071017485" lon="0.7735846419056722"><ele>1331.25</ele><time>2026-04-27T17:16:57Z</time></trkpt><trkpt lat="42.67670430584454" lon="0.7737314314260345"><ele>1329.5</ele><time>2026-04-27T17:16:58Z</time></trkpt><trkpt lat="42.67674800435875" lon="0.7738801435730503"><ele>1327.75</ele><time>2026-04-27T17:16:59Z</time></trkpt><trkpt lat="42.67678781523813" lon="0.7740386370865788"><ele>1326.0</ele><time>2026-04-27T17:17:00Z</time></trkpt><trkpt lat="42.67680818037125" lon="0.7742057487321407"><ele>1325.25</ele><time>2026-04-27T17:17:01Z</time></trkpt><trkpt lat="42.67681638880722" lon="0.774373711342354"><ele>1324.5</ele><time>2026-04-27T17:17:02Z</time></trkpt><trkpt lat="42.67681356944893" lon="0.7745349955747189"><ele>1323.75</ele><time>2026-04-27T17:17:03Z</time></trkpt><trkpt lat="42.676802990114766" lon="0.7747016510286385"><ele>1323.0</ele><time>2026-04-27T17:17:04Z</time></trkpt><trkpt lat="42.676797244622605" lon="0.7748608795632695"><ele>1323.0</ele><time>2026-04-27T17:17:05Z</time></trkpt><trkpt lat="42.67679266493589" lon="0.7750316081798945"><ele>1323.0</ele><time>2026-04-27T17:17:06Z</time></trkpt><trkpt lat="42.67678698178045" lon="0.7752001120282495"><ele>1323.0</ele><time>2026-04-27T17:17:07Z</time></trkpt><trkpt lat="42.67677649658024" lon="0.7753656147547655"><ele>1323.0</ele><time>2026-04-27T17:17:08Z</time></trkpt><trkpt lat="42.67675546793028" lon="0.7755337672146613"><ele>1322.75</ele><time>2026-04-27T17:17:09Z</time></trkpt><trkpt lat="42.67673146289313" lon="0.7756977277147268"><ele>1322.5</ele><time>2026-04-27T17:17:10Z</time></trkpt><trkpt lat="42.67669802396753" lon="0.775855971052246"><ele>1322.25</ele><time>2026-04-27T17:17:11Z</time></trkpt><trkpt lat="42.67666598289954" lon="0.7760204385579663"><ele>1322.0</ele><time>2026-04-27T17:17:12Z</time></trkpt><trkpt lat="42.676649406385756" lon="0.776188309698351"><ele>1322.0</ele><time>2026-04-27T17:17:13Z</time></trkpt><trkpt lat="42.6766426326791" lon="0.7763477763317782"><ele>1322.0</ele><time>2026-04-27T17:17:14Z</time></trkpt><trkpt lat="42.67665085965387" lon="0.7765173316942974"><ele>1322.0</ele><time>2026-04-27T17:17:15Z</time></trkpt><trkpt lat="42.6766537929322" lon="0.7766832133192045"><ele>1322.0</ele><time>2026-04-27T17:17:16Z</time></trkpt><trkpt lat="42.67664707501035" lon="0.7768495902902557"><ele>1321.25</ele><time>2026-04-27T17:17:17Z</time></trkpt><trkpt lat="42.67663520230752" lon="0.7770154980503898"><ele>1320.5</ele><time>2026-04-27T17:17:18Z</time></trkpt><trkpt lat="42.67661401822913" lon="0.7771763137829543"><ele>1319.75</ele><time>2026-04-27T17:17:19Z</time></trkpt><trkpt lat="42.67659459090682" lon="0.7773386604348466"><ele>1319.0</ele><time>2026-04-27T17:17:20Z</time></trkpt><trkpt lat="42.67657592863338" lon="0.7775037484911027"><ele>1319.0</ele><time>2026-04-27T17:17:21Z</time></trkpt><trkpt lat="42.67655806496095" lon="0.7776722303839388"><ele>1319.0</ele><time>2026-04-27T17:17:22Z</time></trkpt><trkpt lat="42.676537469575976" lon="0.7778401109429361"><ele>1319.0</ele><time>2026-04-27T17:17:23Z</time></trkpt><trkpt lat="42.67652154657282" lon="0.7780040863381216"><ele>1319.0</ele><time>2026-04-27T17:17:24Z</time></trkpt><trkpt lat="42.6765116180082" lon="0.7781705639629067"><ele>1317.5</ele><time>2026-04-27T17:17:25Z</time></trkpt><trkpt lat="42.67650994232883" lon="0.7783379344397948"><ele>1316.0</ele><time>2026-04-27T17:17:26Z</time></trkpt><trkpt lat="42.676511483762496" lon="0.7785040257646563"><ele>1314.5</ele><time>2026-04-27T17:17:27Z</time></trkpt><trkpt lat="42.67651142471851" lon="0.7786694395744874"><ele>1313.0</ele><time>2026-04-27T17:17:28Z</time></trkpt><trkpt lat="42.676513047302606" lon="0.7788309831227885"><ele>1313.0</ele><time>2026-04-27T17:17:29Z</time></trkpt><trkpt lat="42.676510768593594" lon="0.7789970112782557"><ele>1313.0</ele><time>2026-04-27T17:17:30Z</time></trkpt><trkpt lat="42.67650789066888" lon="0.7791651310348192"><ele>1313.0</ele><time>2026-04-27T17:17:31Z</time></trkpt><trkpt lat="42.676512643268175" lon="0.7793363940668342"><ele>1313.0</ele><time>2026-04-27T17:17:32Z</time></trkpt><trkpt lat="42.676514816357354" lon="0.7795041301121878"><ele>1313.0</ele><time>2026-04-27T17:17:33Z</time></trkpt><trkpt lat="42.6765270489142" lon="0.7796748537189477"><ele>1313.0</ele><time>2026-04-27T17:17:34Z</time></trkpt><trkpt lat="42.67654078968487" lon="0.779839797679543"><ele>1313.0</ele><time>2026-04-27T17:17:35Z</time></trkpt><trkpt lat="42.67655534302118" lon="0.7800056232408702"><ele>1313.0</ele><time>2026-04-27T17:17:36Z</time></trkpt><trkpt lat="42.676566498013464" lon="0.7801702348960078"><ele>1311.75</ele><time>2026-04-27T17:17:37Z</time></trkpt><trkpt lat="42.676572489776035" lon="0.7803367168740531"><ele>1310.5</ele><time>2026-04-27T17:17:38Z</time></trkpt><trkpt lat="42.676569179862135" lon="0.7805036123519943"><ele>1309.25</ele><time>2026-04-27T17:17:39Z</time></trkpt><trkpt lat="42.67654765947223" lon="0.7806698793081677"><ele>1308.0</ele><time>2026-04-27T17:17:40Z</time></trkpt><trkpt lat="42.67652801794224" lon="0.7808342295256948"><ele>1306.2</ele><time>2026-04-27T17:17:41Z</time></trkpt><trkpt lat="42.67650718516422" lon="0.781023550560554"><ele>1304.4</ele><time>2026-04-27T17:17:42Z</time></trkpt><trkpt lat="42.67647375536482" lon="0.7812037004279626"><ele>1302.6000000000001</ele><time>2026-04-27T17:17:43Z</time></trkpt><trkpt lat="42.67649796805988" lon="0.781289310790462"><ele>1300.8000000000002</ele><time>2026-04-27T17:17:44Z</time></trkpt><trkpt lat="42.67652549664235" lon="0.781412989520497"><ele>1299.0</ele><time>2026-04-27T17:17:45Z</time></trkpt><trkpt lat="42.67663318917172" lon="0.7815415514578684"><ele>1299.0</ele><time>2026-04-27T17:17:46Z</time></trkpt><trkpt lat="42.67673529721883" lon="0.7817029004619829"><ele>1299.0</ele><time>2026-04-27T17:17:47Z</time></trkpt><trkpt lat="42.67682579233996" lon="0.7818796145590158"><ele>1299.0</ele><time>2026-04-27T17:17:48Z</time></trkpt><trkpt lat="42.67681895565771" lon="0.7820582732539363"><ele>1299.0</ele><time>2026-04-27T17:17:49Z</time></trkpt><trkpt lat="42.67685526532913" lon="0.7822134281000789"><ele>1303.25</ele><time>2026-04-27T17:17:50Z</time></trkpt><trkpt lat="42.6769027294125" lon="0.782366036119154"><ele>1307.5</ele><time>2026-04-27T17:17:51Z</time></trkpt><trkpt lat="42.67695059920251" lon="0.7825230994676553"><ele>1311.75</ele><time>2026-04-27T17:17:52Z</time></trkpt><trkpt lat="42.676999362117556" lon="0.7826782937918492"><ele>1316.0</ele><time>2026-04-27T17:17:53Z</time></trkpt><trkpt lat="42.67705375043606" lon="0.7828334358560577"><ele>1316.0</ele><time>2026-04-27T17:17:54Z</time></trkpt><trkpt lat="42.67710577007208" lon="0.7829880797964187"><ele>1316.0</ele><time>2026-04-27T17:17:55Z</time></trkpt><trkpt lat="42.67715590781047" lon="0.7831456490143452"><ele>1316.0</ele><time>2026-04-27T17:17:56Z</time></trkpt><trkpt lat="42.67721270509371" lon="0.783300191711855"><ele>1316.0</ele><time>2026-04-27T17:17:57Z</time></trkpt><trkpt lat="42.677276053633776" lon="0.7834438583159554"><ele>1308.75</ele><time>2026-04-27T17:17:58Z</time></trkpt><trkpt lat="42.677337387344224" lon="0.7835950601752384"><ele>1301.5</ele><time>2026-04-27T17:17:59Z</time></trkpt><trkpt lat="42.67740187813806" lon="0.7837358108057625"><ele>1294.25</ele><time>2026-04-27T17:18:00Z</time></trkpt><trkpt lat="42.67747281929064" lon="0.7838726983035521"><ele>1287.0</ele><time>2026-04-27T17:18:01Z</time></trkpt><trkpt lat="42.677544361328906" lon="0.7840137498002953"><ele>1287.0</ele><time>2026-04-27T17:18:02Z</time></trkpt><trkpt lat="42.677613056175076" lon="0.7841562164241292"><ele>1287.0</ele><time>2026-04-27T17:18:03Z</time></trkpt><trkpt lat="42.67767943307945" lon="0.784301584182597"><ele>1287.0</ele><time>2026-04-27T17:18:04Z</time></trkpt><trkpt lat="42.67774195467002" lon="0.784449725799937"><ele>1287.0</ele><time>2026-04-27T17:18:05Z</time></trkpt><trkpt lat="42.67780192495444" lon="0.7846033584462495"><ele>1282.25</ele><time>2026-04-27T17:18:06Z</time></trkpt><trkpt lat="42.677858331437825" lon="0.7847528527855717"><ele>1277.5</ele><time>2026-04-27T17:18:07Z</time></trkpt><trkpt lat="42.6779175476049" lon="0.7848973052595855"><ele>1272.75</ele><time>2026-04-27T17:18:08Z</time></trkpt><trkpt lat="42.677978772550325" lon="0.7850493569268421"><ele>1268.0</ele><time>2026-04-27T17:18:09Z</time></trkpt><trkpt lat="42.67805822528469" lon="0.7851804491771951"><ele>1268.0</ele><time>2026-04-27T17:18:10Z</time></trkpt><trkpt lat="42.67815535708908" lon="0.7852920197644508"><ele>1268.0</ele><time>2026-04-27T17:18:11Z</time></trkpt><trkpt lat="42.67825519618178" lon="0.785397810430672"><ele>1268.0</ele><time>2026-04-27T17:18:12Z</time></trkpt><trkpt lat="42.67834636447762" lon="0.7855244377745702"><ele>1268.0</ele><time>2026-04-27T17:18:13Z</time></trkpt><trkpt lat="42.67843813815039" lon="0.7856458136451456"><ele>1268.0</ele><time>2026-04-27T17:18:14Z</time></trkpt><trkpt lat="42.678527001679136" lon="0.7857679477274049"><ele>1268.0</ele><time>2026-04-27T17:18:15Z</time></trkpt><trkpt lat="42.678619078891884" lon="0.7858900553120352"><ele>1268.0</ele><time>2026-04-27T17:18:16Z</time></trkpt><trkpt lat="42.678707900553256" lon="0.7860128972115273"><ele>1268.0</ele><time>2026-04-27T17:18:17Z</time></trkpt><trkpt lat="42.67880231564403" lon="0.7861335114220271"><ele>1266.0</ele><time>2026-04-27T17:18:18Z</time></trkpt><trkpt lat="42.678896667696165" lon="0.786252419061827"><ele>1264.0</ele><time>2026-04-27T17:18:19Z</time></trkpt><trkpt lat="42.67898931455936" lon="0.7863731267520195"><ele>1262.0</ele><time>2026-04-27T17:18:20Z</time></trkpt><trkpt lat="42.67908903333067" lon="0.7864838739905609"><ele>1260.0</ele><time>2026-04-27T17:18:21Z</time></trkpt><trkpt lat="42.679197196208136" lon="0.7865797782407871"><ele>1260.0</ele><time>2026-04-27T17:18:22Z</time></trkpt><trkpt lat="42.679303598345136" lon="0.7866770621466579"><ele>1260.0</ele><time>2026-04-27T17:18:23Z</time></trkpt><trkpt lat="42.679411058242756" lon="0.7867684839855718"><ele>1260.0</ele><time>2026-04-27T17:18:24Z</time></trkpt><trkpt lat="42.67952285334146" lon="0.7868485222971356"><ele>1260.0</ele><time>2026-04-27T17:18:25Z</time></trkpt><trkpt lat="42.67964470096654" lon="0.78691211790465"><ele>1253.25</ele><time>2026-04-27T17:18:26Z</time></trkpt><trkpt lat="42.67976531910378" lon="0.7869644637375539"><ele>1246.5</ele><time>2026-04-27T17:18:27Z</time></trkpt><trkpt lat="42.67988594290971" lon="0.7870096930654333"><ele>1239.75</ele><time>2026-04-27T17:18:28Z</time></trkpt><trkpt lat="42.68000826338021" lon="0.787048568585151"><ele>1233.0</ele><time>2026-04-27T17:18:29Z</time></trkpt><trkpt lat="42.68013297216275" lon="0.7870922905117023"><ele>1233.0</ele><time>2026-04-27T17:18:30Z</time></trkpt><trkpt lat="42.680258095347334" lon="0.7871232610570379"><ele>1233.0</ele><time>2026-04-27T17:18:31Z</time></trkpt><trkpt lat="42.680383662591325" lon="0.7871428559698549"><ele>1233.0</ele><time>2026-04-27T17:18:32Z</time></trkpt><trkpt lat="42.68050591549839" lon="0.7871729118364842"><ele>1233.0</ele><time>2026-04-27T17:18:33Z</time></trkpt><trkpt lat="42.68062904864011" lon="0.7872162937547257"><ele>1249.0</ele><time>2026-04-27T17:18:34Z</time></trkpt><trkpt lat="42.680748015631124" lon="0.7872670980741245"><ele>1249.0</ele><time>2026-04-27T17:18:35Z</time></trkpt><trkpt lat="42.68086586912033" lon="0.7873273860640968"><ele>1249.0</ele><time>2026-04-27T17:18:36Z</time></trkpt></trkseg></trk></gpx>